<?xml version="1.0" encoding="UTF-8"?>
<gpx version="1.1" creator="https://www.youtrack.es" xsi:schemaLocation="http://www.topografix.com/GPX/1/1 http://www.topografix.com/GPX/1/1/gpx.xsd http://www.garmin.com/xmlschemas/GpxExtensions/v3 http://www.garmin.com/xmlschemas/GpxExtensionsv3.xsd http://www.garmin.com/xmlschemas/TrackPointExtension/v1 http://www.garmin.com/xmlschemas/TrackPointExtensionv1.xsd" xmlns:gpxtpx="http://www.garmin.com/xmlschemas/TrackPointExtension/v1" xmlns:gpxx="http://www.garmin.com/xmlschemas/GpxExtensions/v3" xmlns:xsi="http://www.w3.org/2001/XMLSchema-instance">
  <metadata>
    <author>
      <name>Juan Manuel Iglesias Orellana</name>
      <email id="juanmanueligl" domain="gmail.com"/>
    </author>
    <link href="https://www.youtrack.es">
      <text>YouTrack.es</text>
    </link>
    <time>2026-05-08T20:41:59Z</time>
  </metadata>
  <wpt lat="42.8072" lon="-7.61803">
    <name>Portomarín </name>
  </wpt>
  <wpt lat="42.78" lon="-7.41718">
    <name>Sarria</name>
  </wpt>
  <wpt lat="42.8754" lon="-7.8666">
    <name>Palas de Rei</name>
  </wpt>
  <wpt lat="42.9299" lon="-8.1477">
    <name>Arzúa</name>
  </wpt>
  <wpt lat="42.906" lon="-8.36007">
    <name>O Pedrouzo</name>
  </wpt>
  <trk>
    <src>https://www.youtrack.es</src>
    <link href="https://www.youtrack.es/ruta/34135-camino-santiago-2022">
      <text>YouTrack.es</text>
    </link>
    <trkseg>
      <trkpt lat="42.779823" lon="-7.4167967">
        <time>2022-07-12T04:51:05Z</time>
      </trkpt>
      <trkpt lat="42.779827" lon="-7.416806">
        <time>2022-07-12T04:51:06Z</time>
      </trkpt>
      <trkpt lat="42.779827" lon="-7.4168077">
        <time>2022-07-12T04:51:07Z</time>
      </trkpt>
      <trkpt lat="42.779827" lon="-7.41681">
        <time>2022-07-12T04:51:08Z</time>
      </trkpt>
      <trkpt lat="42.779823" lon="-7.416816">
        <time>2022-07-12T04:51:09Z</time>
      </trkpt>
      <trkpt lat="42.779823" lon="-7.416825">
        <time>2022-07-12T04:51:10Z</time>
      </trkpt>
      <trkpt lat="42.779827" lon="-7.416837">
        <time>2022-07-12T04:51:11Z</time>
      </trkpt>
      <trkpt lat="42.779827" lon="-7.4168506">
        <time>2022-07-12T04:51:12Z</time>
      </trkpt>
      <trkpt lat="42.779827" lon="-7.416866">
        <time>2022-07-12T04:51:13Z</time>
      </trkpt>
      <trkpt lat="42.77982" lon="-7.416883">
        <time>2022-07-12T04:51:14Z</time>
      </trkpt>
      <trkpt lat="42.77982" lon="-7.4169016">
        <time>2022-07-12T04:51:15Z</time>
      </trkpt>
      <trkpt lat="42.779823" lon="-7.4169183">
        <time>2022-07-12T04:51:16Z</time>
      </trkpt>
      <trkpt lat="42.779823" lon="-7.4169354">
        <time>2022-07-12T04:51:17Z</time>
      </trkpt>
      <trkpt lat="42.77985" lon="-7.4170027">
        <time>2022-07-12T04:51:21Z</time>
      </trkpt>
      <trkpt lat="42.77988" lon="-7.4170837">
        <time>2022-07-12T04:51:25Z</time>
      </trkpt>
      <trkpt lat="42.779903" lon="-7.4171467">
        <time>2022-07-12T04:51:29Z</time>
      </trkpt>
      <trkpt lat="42.77991" lon="-7.4172177">
        <time>2022-07-12T04:51:33Z</time>
      </trkpt>
      <trkpt lat="42.77993" lon="-7.4172792">
        <time>2022-07-12T04:51:37Z</time>
      </trkpt>
      <trkpt lat="42.77997" lon="-7.417326">
        <time>2022-07-12T04:51:41Z</time>
      </trkpt>
      <trkpt lat="42.780014" lon="-7.4173717">
        <time>2022-07-12T04:51:45Z</time>
      </trkpt>
      <trkpt lat="42.780064" lon="-7.417416">
        <time>2022-07-12T04:51:49Z</time>
      </trkpt>
      <trkpt lat="42.780098" lon="-7.417469">
        <time>2022-07-12T04:51:52Z</time>
      </trkpt>
      <trkpt lat="42.780136" lon="-7.417528">
        <time>2022-07-12T04:51:55Z</time>
      </trkpt>
      <trkpt lat="42.78016" lon="-7.4175787">
        <time>2022-07-12T04:51:58Z</time>
      </trkpt>
      <trkpt lat="42.780186" lon="-7.417659">
        <time>2022-07-12T04:52:03Z</time>
      </trkpt>
      <trkpt lat="42.780235" lon="-7.417698">
        <time>2022-07-12T04:52:07Z</time>
      </trkpt>
      <trkpt lat="42.780254" lon="-7.417751">
        <time>2022-07-12T04:52:11Z</time>
      </trkpt>
      <trkpt lat="42.780254" lon="-7.417833">
        <time>2022-07-12T04:52:16Z</time>
      </trkpt>
      <trkpt lat="42.78026" lon="-7.417893">
        <time>2022-07-12T04:52:20Z</time>
      </trkpt>
      <trkpt lat="42.780308" lon="-7.417924">
        <time>2022-07-12T04:52:26Z</time>
      </trkpt>
      <trkpt lat="42.780323" lon="-7.4179916">
        <time>2022-07-12T04:52:32Z</time>
      </trkpt>
      <trkpt lat="42.780323" lon="-7.418074">
        <time>2022-07-12T04:52:37Z</time>
      </trkpt>
      <trkpt lat="42.78033" lon="-7.4181447">
        <time>2022-07-12T04:52:41Z</time>
      </trkpt>
      <trkpt lat="42.780357" lon="-7.4182158">
        <time>2022-07-12T04:52:45Z</time>
      </trkpt>
      <trkpt lat="42.780388" lon="-7.418272">
        <time>2022-07-12T04:52:48Z</time>
      </trkpt>
      <trkpt lat="42.78041" lon="-7.418339">
        <time>2022-07-12T04:52:52Z</time>
      </trkpt>
      <trkpt lat="42.780445" lon="-7.4184">
        <time>2022-07-12T04:52:56Z</time>
      </trkpt>
      <trkpt lat="42.780476" lon="-7.4184494">
        <time>2022-07-12T04:52:59Z</time>
      </trkpt>
      <trkpt lat="42.78048" lon="-7.4185233">
        <time>2022-07-12T04:53:03Z</time>
      </trkpt>
      <trkpt lat="42.780483" lon="-7.4185905">
        <time>2022-07-12T04:53:07Z</time>
      </trkpt>
      <trkpt lat="42.780518" lon="-7.4186606">
        <time>2022-07-12T04:53:12Z</time>
      </trkpt>
      <trkpt lat="42.78054" lon="-7.418714">
        <time>2022-07-12T04:53:16Z</time>
      </trkpt>
      <trkpt lat="42.78058" lon="-7.4187756">
        <time>2022-07-12T04:53:21Z</time>
      </trkpt>
      <trkpt lat="42.780594" lon="-7.4188375">
        <time>2022-07-12T04:53:26Z</time>
      </trkpt>
      <trkpt lat="42.7806" lon="-7.4189115">
        <time>2022-07-12T04:53:30Z</time>
      </trkpt>
      <trkpt lat="42.78063" lon="-7.41899">
        <time>2022-07-12T04:53:39Z</time>
      </trkpt>
      <trkpt lat="42.780647" lon="-7.4190545">
        <time>2022-07-12T04:53:45Z</time>
      </trkpt>
      <trkpt lat="42.78067" lon="-7.419117">
        <time>2022-07-12T04:53:50Z</time>
      </trkpt>
      <trkpt lat="42.78071" lon="-7.419186">
        <time>2022-07-12T04:53:55Z</time>
      </trkpt>
      <trkpt lat="42.780743" lon="-7.4192433">
        <time>2022-07-12T04:53:58Z</time>
      </trkpt>
      <trkpt lat="42.780792" lon="-7.419292">
        <time>2022-07-12T04:54:01Z</time>
      </trkpt>
      <trkpt lat="42.780804" lon="-7.419316">
        <time>2022-07-12T04:54:07Z</time>
      </trkpt>
      <trkpt lat="42.78084" lon="-7.419329">
        <time>2022-07-12T04:54:17Z</time>
      </trkpt>
      <trkpt lat="42.780888" lon="-7.4193563">
        <time>2022-07-12T04:54:24Z</time>
      </trkpt>
      <trkpt lat="42.780872" lon="-7.419436">
        <time>2022-07-12T04:54:31Z</time>
      </trkpt>
      <trkpt lat="42.78087" lon="-7.419504">
        <time>2022-07-12T04:54:35Z</time>
      </trkpt>
      <trkpt lat="42.78089" lon="-7.4195795">
        <time>2022-07-12T04:54:40Z</time>
      </trkpt>
      <trkpt lat="42.780907" lon="-7.41965">
        <time>2022-07-12T04:54:45Z</time>
      </trkpt>
      <trkpt lat="42.780926" lon="-7.4197307">
        <time>2022-07-12T04:54:50Z</time>
      </trkpt>
      <trkpt lat="42.78094" lon="-7.4198117">
        <time>2022-07-12T04:54:55Z</time>
      </trkpt>
      <trkpt lat="42.780952" lon="-7.4198914">
        <time>2022-07-12T04:55:00Z</time>
      </trkpt>
      <trkpt lat="42.780956" lon="-7.419968">
        <time>2022-07-12T04:55:05Z</time>
      </trkpt>
      <trkpt lat="42.780987" lon="-7.420042">
        <time>2022-07-12T04:55:09Z</time>
      </trkpt>
      <trkpt lat="42.781" lon="-7.420129">
        <time>2022-07-12T04:55:13Z</time>
      </trkpt>
      <trkpt lat="42.781002" lon="-7.420198">
        <time>2022-07-12T04:55:17Z</time>
      </trkpt>
      <trkpt lat="42.78102" lon="-7.420277">
        <time>2022-07-12T04:55:22Z</time>
      </trkpt>
      <trkpt lat="42.78104" lon="-7.4203496">
        <time>2022-07-12T04:55:26Z</time>
      </trkpt>
      <trkpt lat="42.781055" lon="-7.4204226">
        <time>2022-07-12T04:55:31Z</time>
      </trkpt>
      <trkpt lat="42.78107" lon="-7.4204917">
        <time>2022-07-12T04:55:35Z</time>
      </trkpt>
      <trkpt lat="42.781075" lon="-7.420565">
        <time>2022-07-12T04:55:40Z</time>
      </trkpt>
      <trkpt lat="42.781044" lon="-7.420623">
        <time>2022-07-12T04:55:45Z</time>
      </trkpt>
      <trkpt lat="42.781055" lon="-7.420703">
        <time>2022-07-12T04:56:42Z</time>
      </trkpt>
      <trkpt lat="42.781017" lon="-7.4207573">
        <time>2022-07-12T04:56:46Z</time>
      </trkpt>
      <trkpt lat="42.78097" lon="-7.4208226">
        <time>2022-07-12T04:56:50Z</time>
      </trkpt>
      <trkpt lat="42.780933" lon="-7.420874">
        <time>2022-07-12T04:56:54Z</time>
      </trkpt>
      <trkpt lat="42.78091" lon="-7.4209394">
        <time>2022-07-12T04:56:59Z</time>
      </trkpt>
      <trkpt lat="42.7809" lon="-7.421019">
        <time>2022-07-12T04:57:04Z</time>
      </trkpt>
      <trkpt lat="42.78089" lon="-7.421084">
        <time>2022-07-12T04:57:08Z</time>
      </trkpt>
      <trkpt lat="42.780884" lon="-7.421167">
        <time>2022-07-12T04:57:13Z</time>
      </trkpt>
      <trkpt lat="42.78088" lon="-7.421241">
        <time>2022-07-12T04:57:17Z</time>
      </trkpt>
      <trkpt lat="42.780876" lon="-7.4213095">
        <time>2022-07-12T04:57:21Z</time>
      </trkpt>
      <trkpt lat="42.78088" lon="-7.4213786">
        <time>2022-07-12T04:57:25Z</time>
      </trkpt>
      <trkpt lat="42.780895" lon="-7.4214616">
        <time>2022-07-12T04:57:29Z</time>
      </trkpt>
      <trkpt lat="42.780922" lon="-7.4215302">
        <time>2022-07-12T04:57:32Z</time>
      </trkpt>
      <trkpt lat="42.78094" lon="-7.421594">
        <time>2022-07-12T04:57:35Z</time>
      </trkpt>
      <trkpt lat="42.780945" lon="-7.421654">
        <time>2022-07-12T04:57:38Z</time>
      </trkpt>
      <trkpt lat="42.780914" lon="-7.421727">
        <time>2022-07-12T04:57:42Z</time>
      </trkpt>
      <trkpt lat="42.78089" lon="-7.421799">
        <time>2022-07-12T04:57:46Z</time>
      </trkpt>
      <trkpt lat="42.780884" lon="-7.4218636">
        <time>2022-07-12T04:57:50Z</time>
      </trkpt>
      <trkpt lat="42.780876" lon="-7.421954">
        <time>2022-07-12T04:57:56Z</time>
      </trkpt>
      <trkpt lat="42.780838" lon="-7.4220104">
        <time>2022-07-12T04:58:01Z</time>
      </trkpt>
      <trkpt lat="42.78078" lon="-7.4220505">
        <time>2022-07-12T04:58:06Z</time>
      </trkpt>
      <trkpt lat="42.780743" lon="-7.42212">
        <time>2022-07-12T04:58:11Z</time>
      </trkpt>
      <trkpt lat="42.780712" lon="-7.42217">
        <time>2022-07-12T04:58:15Z</time>
      </trkpt>
      <trkpt lat="42.78065" lon="-7.422193">
        <time>2022-07-12T04:58:20Z</time>
      </trkpt>
      <trkpt lat="42.78061" lon="-7.422228">
        <time>2022-07-12T04:58:24Z</time>
      </trkpt>
      <trkpt lat="42.780552" lon="-7.4222517">
        <time>2022-07-12T04:58:28Z</time>
      </trkpt>
      <trkpt lat="42.7805" lon="-7.4222918">
        <time>2022-07-12T04:58:32Z</time>
      </trkpt>
      <trkpt lat="42.78045" lon="-7.422342">
        <time>2022-07-12T04:58:37Z</time>
      </trkpt>
      <trkpt lat="42.780407" lon="-7.422394">
        <time>2022-07-12T04:58:42Z</time>
      </trkpt>
      <trkpt lat="42.780357" lon="-7.4224424">
        <time>2022-07-12T04:58:47Z</time>
      </trkpt>
      <trkpt lat="42.780315" lon="-7.422477">
        <time>2022-07-12T04:58:51Z</time>
      </trkpt>
      <trkpt lat="42.78027" lon="-7.422529">
        <time>2022-07-12T04:58:56Z</time>
      </trkpt>
      <trkpt lat="42.78022" lon="-7.4225683">
        <time>2022-07-12T04:59:01Z</time>
      </trkpt>
      <trkpt lat="42.780163" lon="-7.4226055">
        <time>2022-07-12T04:59:05Z</time>
      </trkpt>
      <trkpt lat="42.780113" lon="-7.42264">
        <time>2022-07-12T04:59:09Z</time>
      </trkpt>
      <trkpt lat="42.780064" lon="-7.422675">
        <time>2022-07-12T04:59:13Z</time>
      </trkpt>
      <trkpt lat="42.78002" lon="-7.422713">
        <time>2022-07-12T04:59:17Z</time>
      </trkpt>
      <trkpt lat="42.77997" lon="-7.422754">
        <time>2022-07-12T04:59:22Z</time>
      </trkpt>
      <trkpt lat="42.779922" lon="-7.422782">
        <time>2022-07-12T04:59:26Z</time>
      </trkpt>
      <trkpt lat="42.779873" lon="-7.422807">
        <time>2022-07-12T04:59:30Z</time>
      </trkpt>
      <trkpt lat="42.779816" lon="-7.422828">
        <time>2022-07-12T04:59:34Z</time>
      </trkpt>
      <trkpt lat="42.779778" lon="-7.4228597">
        <time>2022-07-12T04:59:38Z</time>
      </trkpt>
      <trkpt lat="42.779736" lon="-7.422915">
        <time>2022-07-12T04:59:43Z</time>
      </trkpt>
      <trkpt lat="42.7797" lon="-7.4229555">
        <time>2022-07-12T04:59:47Z</time>
      </trkpt>
      <trkpt lat="42.779663" lon="-7.423024">
        <time>2022-07-12T04:59:53Z</time>
      </trkpt>
      <trkpt lat="42.77962" lon="-7.423057">
        <time>2022-07-12T04:59:57Z</time>
      </trkpt>
      <trkpt lat="42.779564" lon="-7.423081">
        <time>2022-07-12T05:00:02Z</time>
      </trkpt>
      <trkpt lat="42.779514" lon="-7.4231052">
        <time>2022-07-12T05:00:06Z</time>
      </trkpt>
      <trkpt lat="42.77947" lon="-7.423139">
        <time>2022-07-12T05:00:11Z</time>
      </trkpt>
      <trkpt lat="42.77942" lon="-7.423168">
        <time>2022-07-12T05:00:16Z</time>
      </trkpt>
      <trkpt lat="42.77936" lon="-7.4231873">
        <time>2022-07-12T05:00:21Z</time>
      </trkpt>
      <trkpt lat="42.779305" lon="-7.423201">
        <time>2022-07-12T05:00:26Z</time>
      </trkpt>
      <trkpt lat="42.779243" lon="-7.423209">
        <time>2022-07-12T05:00:31Z</time>
      </trkpt>
      <trkpt lat="42.779182" lon="-7.423231">
        <time>2022-07-12T05:00:36Z</time>
      </trkpt>
      <trkpt lat="42.779125" lon="-7.423248">
        <time>2022-07-12T05:00:40Z</time>
      </trkpt>
      <trkpt lat="42.77908" lon="-7.4232616">
        <time>2022-07-12T05:00:44Z</time>
      </trkpt>
      <trkpt lat="42.77902" lon="-7.4232736">
        <time>2022-07-12T05:00:49Z</time>
      </trkpt>
      <trkpt lat="42.778973" lon="-7.4232917">
        <time>2022-07-12T05:00:53Z</time>
      </trkpt>
      <trkpt lat="42.778927" lon="-7.4233375">
        <time>2022-07-12T05:00:57Z</time>
      </trkpt>
      <trkpt lat="42.778866" lon="-7.423341">
        <time>2022-07-12T05:01:01Z</time>
      </trkpt>
      <trkpt lat="42.77881" lon="-7.423337">
        <time>2022-07-12T05:01:06Z</time>
      </trkpt>
      <trkpt lat="42.77876" lon="-7.4233465">
        <time>2022-07-12T05:01:10Z</time>
      </trkpt>
      <trkpt lat="42.7787" lon="-7.4233646">
        <time>2022-07-12T05:01:15Z</time>
      </trkpt>
      <trkpt lat="42.778652" lon="-7.423389">
        <time>2022-07-12T05:01:20Z</time>
      </trkpt>
      <trkpt lat="42.778603" lon="-7.42339">
        <time>2022-07-12T05:01:24Z</time>
      </trkpt>
      <trkpt lat="42.77854" lon="-7.4233985">
        <time>2022-07-12T05:01:29Z</time>
      </trkpt>
      <trkpt lat="42.77848" lon="-7.4234047">
        <time>2022-07-12T05:01:35Z</time>
      </trkpt>
      <trkpt lat="42.778435" lon="-7.423415">
        <time>2022-07-12T05:01:40Z</time>
      </trkpt>
      <trkpt lat="42.778427" lon="-7.4234786">
        <time>2022-07-12T05:01:58Z</time>
      </trkpt>
      <trkpt lat="42.77842" lon="-7.42356">
        <time>2022-07-12T05:02:02Z</time>
      </trkpt>
      <trkpt lat="42.778427" lon="-7.423633">
        <time>2022-07-12T05:02:06Z</time>
      </trkpt>
      <trkpt lat="42.778435" lon="-7.423712">
        <time>2022-07-12T05:02:11Z</time>
      </trkpt>
      <trkpt lat="42.778435" lon="-7.423794">
        <time>2022-07-12T05:02:16Z</time>
      </trkpt>
      <trkpt lat="42.778423" lon="-7.4238763">
        <time>2022-07-12T05:02:21Z</time>
      </trkpt>
      <trkpt lat="42.778404" lon="-7.4239454">
        <time>2022-07-12T05:02:25Z</time>
      </trkpt>
      <trkpt lat="42.778385" lon="-7.424">
        <time>2022-07-12T05:02:29Z</time>
      </trkpt>
      <trkpt lat="42.778343" lon="-7.424071">
        <time>2022-07-12T05:02:34Z</time>
      </trkpt>
      <trkpt lat="42.77831" lon="-7.4241266">
        <time>2022-07-12T05:02:38Z</time>
      </trkpt>
      <trkpt lat="42.77828" lon="-7.424186">
        <time>2022-07-12T05:02:42Z</time>
      </trkpt>
      <trkpt lat="42.77825" lon="-7.4242516">
        <time>2022-07-12T05:02:47Z</time>
      </trkpt>
      <trkpt lat="42.778225" lon="-7.424324">
        <time>2022-07-12T05:02:52Z</time>
      </trkpt>
      <trkpt lat="42.77819" lon="-7.424393">
        <time>2022-07-12T05:02:57Z</time>
      </trkpt>
      <trkpt lat="42.778145" lon="-7.424446">
        <time>2022-07-12T05:03:01Z</time>
      </trkpt>
      <trkpt lat="42.778107" lon="-7.4245067">
        <time>2022-07-12T05:03:05Z</time>
      </trkpt>
      <trkpt lat="42.778088" lon="-7.4245915">
        <time>2022-07-12T05:03:10Z</time>
      </trkpt>
      <trkpt lat="42.778088" lon="-7.424669">
        <time>2022-07-12T05:03:14Z</time>
      </trkpt>
      <trkpt lat="42.77808" lon="-7.424734">
        <time>2022-07-12T05:03:18Z</time>
      </trkpt>
      <trkpt lat="42.778065" lon="-7.424809">
        <time>2022-07-12T05:03:23Z</time>
      </trkpt>
      <trkpt lat="42.778057" lon="-7.424886">
        <time>2022-07-12T05:03:28Z</time>
      </trkpt>
      <trkpt lat="42.77804" lon="-7.424969">
        <time>2022-07-12T05:03:33Z</time>
      </trkpt>
      <trkpt lat="42.77802" lon="-7.425036">
        <time>2022-07-12T05:03:38Z</time>
      </trkpt>
      <trkpt lat="42.777996" lon="-7.425103">
        <time>2022-07-12T05:03:43Z</time>
      </trkpt>
      <trkpt lat="42.777966" lon="-7.425164">
        <time>2022-07-12T05:03:48Z</time>
      </trkpt>
      <trkpt lat="42.777924" lon="-7.425216">
        <time>2022-07-12T05:03:54Z</time>
      </trkpt>
      <trkpt lat="42.77788" lon="-7.4252396">
        <time>2022-07-12T05:03:59Z</time>
      </trkpt>
      <trkpt lat="42.777824" lon="-7.4252844">
        <time>2022-07-12T05:04:28Z</time>
      </trkpt>
      <trkpt lat="42.777782" lon="-7.4253297">
        <time>2022-07-12T05:04:33Z</time>
      </trkpt>
      <trkpt lat="42.777737" lon="-7.425378">
        <time>2022-07-12T05:04:38Z</time>
      </trkpt>
      <trkpt lat="42.777695" lon="-7.4254208">
        <time>2022-07-12T05:04:42Z</time>
      </trkpt>
      <trkpt lat="42.777653" lon="-7.425475">
        <time>2022-07-12T05:04:47Z</time>
      </trkpt>
      <trkpt lat="42.777596" lon="-7.4255185">
        <time>2022-07-12T05:04:52Z</time>
      </trkpt>
      <trkpt lat="42.77754" lon="-7.425554">
        <time>2022-07-12T05:04:57Z</time>
      </trkpt>
      <trkpt lat="42.777496" lon="-7.4255815">
        <time>2022-07-12T05:05:00Z</time>
      </trkpt>
      <trkpt lat="42.777447" lon="-7.4256206">
        <time>2022-07-12T05:05:04Z</time>
      </trkpt>
      <trkpt lat="42.77741" lon="-7.4256654">
        <time>2022-07-12T05:05:08Z</time>
      </trkpt>
      <trkpt lat="42.777363" lon="-7.425712">
        <time>2022-07-12T05:05:13Z</time>
      </trkpt>
      <trkpt lat="42.77732" lon="-7.4257503">
        <time>2022-07-12T05:05:18Z</time>
      </trkpt>
      <trkpt lat="42.777275" lon="-7.425794">
        <time>2022-07-12T05:05:23Z</time>
      </trkpt>
      <trkpt lat="42.77723" lon="-7.4258466">
        <time>2022-07-12T05:05:27Z</time>
      </trkpt>
      <trkpt lat="42.77719" lon="-7.4258895">
        <time>2022-07-12T05:05:30Z</time>
      </trkpt>
      <trkpt lat="42.777153" lon="-7.4259515">
        <time>2022-07-12T05:05:34Z</time>
      </trkpt>
      <trkpt lat="42.777115" lon="-7.4260006">
        <time>2022-07-12T05:05:39Z</time>
      </trkpt>
      <trkpt lat="42.777073" lon="-7.426047">
        <time>2022-07-12T05:05:44Z</time>
      </trkpt>
      <trkpt lat="42.777035" lon="-7.426101">
        <time>2022-07-12T05:05:48Z</time>
      </trkpt>
      <trkpt lat="42.777" lon="-7.426152">
        <time>2022-07-12T05:05:52Z</time>
      </trkpt>
      <trkpt lat="42.776966" lon="-7.426218">
        <time>2022-07-12T05:05:57Z</time>
      </trkpt>
      <trkpt lat="42.776928" lon="-7.4262795">
        <time>2022-07-12T05:06:01Z</time>
      </trkpt>
      <trkpt lat="42.77688" lon="-7.426329">
        <time>2022-07-12T05:06:05Z</time>
      </trkpt>
      <trkpt lat="42.776844" lon="-7.4263744">
        <time>2022-07-12T05:06:09Z</time>
      </trkpt>
      <trkpt lat="42.776817" lon="-7.426439">
        <time>2022-07-12T05:06:14Z</time>
      </trkpt>
      <trkpt lat="42.77679" lon="-7.426502">
        <time>2022-07-12T05:06:18Z</time>
      </trkpt>
      <trkpt lat="42.77678" lon="-7.4265733">
        <time>2022-07-12T05:06:23Z</time>
      </trkpt>
      <trkpt lat="42.776745" lon="-7.4266305">
        <time>2022-07-12T05:06:27Z</time>
      </trkpt>
      <trkpt lat="42.77671" lon="-7.426693">
        <time>2022-07-12T05:06:31Z</time>
      </trkpt>
      <trkpt lat="42.776684" lon="-7.4267583">
        <time>2022-07-12T05:06:36Z</time>
      </trkpt>
      <trkpt lat="42.776638" lon="-7.426805">
        <time>2022-07-12T05:06:41Z</time>
      </trkpt>
      <trkpt lat="42.776585" lon="-7.4268126">
        <time>2022-07-12T05:06:46Z</time>
      </trkpt>
      <trkpt lat="42.776546" lon="-7.426784">
        <time>2022-07-12T05:06:51Z</time>
      </trkpt>
      <trkpt lat="42.776512" lon="-7.4267135">
        <time>2022-07-12T05:06:57Z</time>
      </trkpt>
      <trkpt lat="42.776485" lon="-7.4266443">
        <time>2022-07-12T05:07:01Z</time>
      </trkpt>
      <trkpt lat="42.77645" lon="-7.426586">
        <time>2022-07-12T05:07:04Z</time>
      </trkpt>
      <trkpt lat="42.776417" lon="-7.4265404">
        <time>2022-07-12T05:07:08Z</time>
      </trkpt>
      <trkpt lat="42.776367" lon="-7.4265285">
        <time>2022-07-12T05:07:13Z</time>
      </trkpt>
      <trkpt lat="42.776325" lon="-7.426548">
        <time>2022-07-12T05:07:19Z</time>
      </trkpt>
      <trkpt lat="42.77627" lon="-7.4266214">
        <time>2022-07-12T05:07:58Z</time>
      </trkpt>
      <trkpt lat="42.776234" lon="-7.4266706">
        <time>2022-07-12T05:08:01Z</time>
      </trkpt>
      <trkpt lat="42.7762" lon="-7.42672">
        <time>2022-07-12T05:08:05Z</time>
      </trkpt>
      <trkpt lat="42.776157" lon="-7.426779">
        <time>2022-07-12T05:08:10Z</time>
      </trkpt>
      <trkpt lat="42.776108" lon="-7.4268217">
        <time>2022-07-12T05:08:14Z</time>
      </trkpt>
      <trkpt lat="42.776062" lon="-7.4268527">
        <time>2022-07-12T05:08:18Z</time>
      </trkpt>
      <trkpt lat="42.776005" lon="-7.4268985">
        <time>2022-07-12T05:08:23Z</time>
      </trkpt>
      <trkpt lat="42.77596" lon="-7.426943">
        <time>2022-07-12T05:08:27Z</time>
      </trkpt>
      <trkpt lat="42.775917" lon="-7.4269743">
        <time>2022-07-12T05:08:31Z</time>
      </trkpt>
      <trkpt lat="42.77586" lon="-7.427007">
        <time>2022-07-12T05:08:36Z</time>
      </trkpt>
      <trkpt lat="42.775803" lon="-7.4270363">
        <time>2022-07-12T05:08:40Z</time>
      </trkpt>
      <trkpt lat="42.77576" lon="-7.4270635">
        <time>2022-07-12T05:08:44Z</time>
      </trkpt>
      <trkpt lat="42.7757" lon="-7.427096">
        <time>2022-07-12T05:08:49Z</time>
      </trkpt>
      <trkpt lat="42.77565" lon="-7.427122">
        <time>2022-07-12T05:08:52Z</time>
      </trkpt>
      <trkpt lat="42.775604" lon="-7.427159">
        <time>2022-07-12T05:08:56Z</time>
      </trkpt>
      <trkpt lat="42.775555" lon="-7.4272175">
        <time>2022-07-12T05:09:01Z</time>
      </trkpt>
      <trkpt lat="42.775517" lon="-7.427267">
        <time>2022-07-12T05:09:05Z</time>
      </trkpt>
      <trkpt lat="42.77547" lon="-7.4273233">
        <time>2022-07-12T05:09:10Z</time>
      </trkpt>
      <trkpt lat="42.775433" lon="-7.4273925">
        <time>2022-07-12T05:09:15Z</time>
      </trkpt>
      <trkpt lat="42.775394" lon="-7.427455">
        <time>2022-07-12T05:09:20Z</time>
      </trkpt>
      <trkpt lat="42.775364" lon="-7.4275117">
        <time>2022-07-12T05:09:24Z</time>
      </trkpt>
      <trkpt lat="42.775337" lon="-7.4275665">
        <time>2022-07-12T05:09:28Z</time>
      </trkpt>
      <trkpt lat="42.775295" lon="-7.427633">
        <time>2022-07-12T05:09:33Z</time>
      </trkpt>
      <trkpt lat="42.77527" lon="-7.427692">
        <time>2022-07-12T05:09:37Z</time>
      </trkpt>
      <trkpt lat="42.775246" lon="-7.427758">
        <time>2022-07-12T05:09:43Z</time>
      </trkpt>
      <trkpt lat="42.775208" lon="-7.4278107">
        <time>2022-07-12T05:09:48Z</time>
      </trkpt>
      <trkpt lat="42.775166" lon="-7.4278655">
        <time>2022-07-12T05:09:53Z</time>
      </trkpt>
      <trkpt lat="42.775112" lon="-7.427935">
        <time>2022-07-12T05:09:59Z</time>
      </trkpt>
      <trkpt lat="42.775063" lon="-7.4280415">
        <time>2022-07-12T05:10:04Z</time>
      </trkpt>
      <trkpt lat="42.77506" lon="-7.4280443">
        <time>2022-07-12T05:10:05Z</time>
      </trkpt>
      <trkpt lat="42.775005" lon="-7.4280987">
        <time>2022-07-12T05:10:11Z</time>
      </trkpt>
      <trkpt lat="42.77497" lon="-7.42815">
        <time>2022-07-12T05:10:15Z</time>
      </trkpt>
      <trkpt lat="42.77492" lon="-7.4282002">
        <time>2022-07-12T05:10:20Z</time>
      </trkpt>
      <trkpt lat="42.774864" lon="-7.428233">
        <time>2022-07-12T05:10:24Z</time>
      </trkpt>
      <trkpt lat="42.77482" lon="-7.4282613">
        <time>2022-07-12T05:10:28Z</time>
      </trkpt>
      <trkpt lat="42.77477" lon="-7.4282885">
        <time>2022-07-12T05:10:32Z</time>
      </trkpt>
      <trkpt lat="42.774727" lon="-7.428337">
        <time>2022-07-12T05:10:36Z</time>
      </trkpt>
      <trkpt lat="42.77469" lon="-7.4283915">
        <time>2022-07-12T05:10:40Z</time>
      </trkpt>
      <trkpt lat="42.774673" lon="-7.4284525">
        <time>2022-07-12T05:10:44Z</time>
      </trkpt>
      <trkpt lat="42.774647" lon="-7.428522">
        <time>2022-07-12T05:10:49Z</time>
      </trkpt>
      <trkpt lat="42.774624" lon="-7.42858">
        <time>2022-07-12T05:10:53Z</time>
      </trkpt>
      <trkpt lat="42.774593" lon="-7.4286494">
        <time>2022-07-12T05:10:58Z</time>
      </trkpt>
      <trkpt lat="42.774563" lon="-7.4286995">
        <time>2022-07-12T05:11:02Z</time>
      </trkpt>
      <trkpt lat="42.774525" lon="-7.428769">
        <time>2022-07-12T05:11:07Z</time>
      </trkpt>
      <trkpt lat="42.774487" lon="-7.428839">
        <time>2022-07-12T05:11:12Z</time>
      </trkpt>
      <trkpt lat="42.77446" lon="-7.4289074">
        <time>2022-07-12T05:11:17Z</time>
      </trkpt>
      <trkpt lat="42.77444" lon="-7.4289775">
        <time>2022-07-12T05:11:21Z</time>
      </trkpt>
      <trkpt lat="42.774433" lon="-7.4290395">
        <time>2022-07-12T05:11:25Z</time>
      </trkpt>
      <trkpt lat="42.774418" lon="-7.429118">
        <time>2022-07-12T05:11:30Z</time>
      </trkpt>
      <trkpt lat="42.7744" lon="-7.4291906">
        <time>2022-07-12T05:11:35Z</time>
      </trkpt>
      <trkpt lat="42.77439" lon="-7.429273">
        <time>2022-07-12T05:11:40Z</time>
      </trkpt>
      <trkpt lat="42.774387" lon="-7.429352">
        <time>2022-07-12T05:11:44Z</time>
      </trkpt>
      <trkpt lat="42.774376" lon="-7.429423">
        <time>2022-07-12T05:11:47Z</time>
      </trkpt>
      <trkpt lat="42.774357" lon="-7.4294763">
        <time>2022-07-12T05:11:50Z</time>
      </trkpt>
      <trkpt lat="42.774334" lon="-7.4295535">
        <time>2022-07-12T05:11:55Z</time>
      </trkpt>
      <trkpt lat="42.77431" lon="-7.429625">
        <time>2022-07-12T05:11:59Z</time>
      </trkpt>
      <trkpt lat="42.77429" lon="-7.429702">
        <time>2022-07-12T05:12:04Z</time>
      </trkpt>
      <trkpt lat="42.774265" lon="-7.429768">
        <time>2022-07-12T05:12:08Z</time>
      </trkpt>
      <trkpt lat="42.77425" lon="-7.4298472">
        <time>2022-07-12T05:12:13Z</time>
      </trkpt>
      <trkpt lat="42.77424" lon="-7.42992">
        <time>2022-07-12T05:12:18Z</time>
      </trkpt>
      <trkpt lat="42.774235" lon="-7.429981">
        <time>2022-07-12T05:12:23Z</time>
      </trkpt>
      <trkpt lat="42.77422" lon="-7.430058">
        <time>2022-07-12T05:12:29Z</time>
      </trkpt>
      <trkpt lat="42.774197" lon="-7.430128">
        <time>2022-07-12T05:12:34Z</time>
      </trkpt>
      <trkpt lat="42.77417" lon="-7.430185">
        <time>2022-07-12T05:12:38Z</time>
      </trkpt>
      <trkpt lat="42.77414" lon="-7.4302487">
        <time>2022-07-12T05:12:43Z</time>
      </trkpt>
      <trkpt lat="42.774082" lon="-7.4302955">
        <time>2022-07-12T05:12:48Z</time>
      </trkpt>
      <trkpt lat="42.774033" lon="-7.430323">
        <time>2022-07-12T05:12:52Z</time>
      </trkpt>
      <trkpt lat="42.773975" lon="-7.430353">
        <time>2022-07-12T05:12:57Z</time>
      </trkpt>
      <trkpt lat="42.773922" lon="-7.4303865">
        <time>2022-07-12T05:13:01Z</time>
      </trkpt>
      <trkpt lat="42.773876" lon="-7.4304147">
        <time>2022-07-12T05:13:05Z</time>
      </trkpt>
      <trkpt lat="42.77382" lon="-7.4304514">
        <time>2022-07-12T05:13:10Z</time>
      </trkpt>
      <trkpt lat="42.773766" lon="-7.43048">
        <time>2022-07-12T05:13:14Z</time>
      </trkpt>
      <trkpt lat="42.773724" lon="-7.430505">
        <time>2022-07-12T05:13:18Z</time>
      </trkpt>
      <trkpt lat="42.773678" lon="-7.4305367">
        <time>2022-07-12T05:13:23Z</time>
      </trkpt>
      <trkpt lat="42.773613" lon="-7.430561">
        <time>2022-07-12T05:13:28Z</time>
      </trkpt>
      <trkpt lat="42.773563" lon="-7.4305854">
        <time>2022-07-12T05:13:32Z</time>
      </trkpt>
      <trkpt lat="42.77352" lon="-7.4306207">
        <time>2022-07-12T05:13:36Z</time>
      </trkpt>
      <trkpt lat="42.773468" lon="-7.430646">
        <time>2022-07-12T05:13:42Z</time>
      </trkpt>
      <trkpt lat="42.773415" lon="-7.430677">
        <time>2022-07-12T05:13:48Z</time>
      </trkpt>
      <trkpt lat="42.773373" lon="-7.430713">
        <time>2022-07-12T05:13:52Z</time>
      </trkpt>
      <trkpt lat="42.773315" lon="-7.4307413">
        <time>2022-07-12T05:13:57Z</time>
      </trkpt>
      <trkpt lat="42.77326" lon="-7.4307656">
        <time>2022-07-12T05:14:01Z</time>
      </trkpt>
      <trkpt lat="42.773205" lon="-7.430781">
        <time>2022-07-12T05:14:05Z</time>
      </trkpt>
      <trkpt lat="42.773155" lon="-7.430802">
        <time>2022-07-12T05:14:09Z</time>
      </trkpt>
      <trkpt lat="42.773106" lon="-7.430834">
        <time>2022-07-12T05:14:13Z</time>
      </trkpt>
      <trkpt lat="42.773064" lon="-7.430864">
        <time>2022-07-12T05:14:17Z</time>
      </trkpt>
      <trkpt lat="42.77301" lon="-7.4309015">
        <time>2022-07-12T05:14:22Z</time>
      </trkpt>
      <trkpt lat="42.77296" lon="-7.430935">
        <time>2022-07-12T05:14:26Z</time>
      </trkpt>
      <trkpt lat="42.772915" lon="-7.4309688">
        <time>2022-07-12T05:14:30Z</time>
      </trkpt>
      <trkpt lat="42.77286" lon="-7.4310155">
        <time>2022-07-12T05:14:35Z</time>
      </trkpt>
      <trkpt lat="42.772808" lon="-7.4310503">
        <time>2022-07-12T05:14:39Z</time>
      </trkpt>
      <trkpt lat="42.77276" lon="-7.431082">
        <time>2022-07-12T05:14:43Z</time>
      </trkpt>
      <trkpt lat="42.772724" lon="-7.4311285">
        <time>2022-07-12T05:14:49Z</time>
      </trkpt>
      <trkpt lat="42.772686" lon="-7.4311857">
        <time>2022-07-12T05:14:56Z</time>
      </trkpt>
      <trkpt lat="42.772675" lon="-7.4312696">
        <time>2022-07-12T05:15:02Z</time>
      </trkpt>
      <trkpt lat="42.772667" lon="-7.431352">
        <time>2022-07-12T05:15:07Z</time>
      </trkpt>
      <trkpt lat="42.772694" lon="-7.4314165">
        <time>2022-07-12T05:15:11Z</time>
      </trkpt>
      <trkpt lat="42.772713" lon="-7.431483">
        <time>2022-07-12T05:15:15Z</time>
      </trkpt>
      <trkpt lat="42.772747" lon="-7.4315557">
        <time>2022-07-12T05:15:19Z</time>
      </trkpt>
      <trkpt lat="42.772747" lon="-7.4316196">
        <time>2022-07-12T05:15:23Z</time>
      </trkpt>
      <trkpt lat="42.77276" lon="-7.4316964">
        <time>2022-07-12T05:15:28Z</time>
      </trkpt>
      <trkpt lat="42.77278" lon="-7.4317636">
        <time>2022-07-12T05:15:33Z</time>
      </trkpt>
      <trkpt lat="42.772755" lon="-7.43183">
        <time>2022-07-12T05:15:37Z</time>
      </trkpt>
      <trkpt lat="42.772728" lon="-7.4319077">
        <time>2022-07-12T05:15:41Z</time>
      </trkpt>
      <trkpt lat="42.772697" lon="-7.4319572">
        <time>2022-07-12T05:15:44Z</time>
      </trkpt>
      <trkpt lat="42.772675" lon="-7.432027">
        <time>2022-07-12T05:15:49Z</time>
      </trkpt>
      <trkpt lat="42.772682" lon="-7.432102">
        <time>2022-07-12T05:15:53Z</time>
      </trkpt>
      <trkpt lat="42.77271" lon="-7.432174">
        <time>2022-07-12T05:15:57Z</time>
      </trkpt>
      <trkpt lat="42.77273" lon="-7.4322405">
        <time>2022-07-12T05:16:02Z</time>
      </trkpt>
      <trkpt lat="42.77275" lon="-7.432296">
        <time>2022-07-12T05:16:06Z</time>
      </trkpt>
      <trkpt lat="42.772747" lon="-7.4323783">
        <time>2022-07-12T05:16:11Z</time>
      </trkpt>
      <trkpt lat="42.772743" lon="-7.4324436">
        <time>2022-07-12T05:16:16Z</time>
      </trkpt>
      <trkpt lat="42.77273" lon="-7.4325075">
        <time>2022-07-12T05:16:22Z</time>
      </trkpt>
      <trkpt lat="42.772717" lon="-7.432583">
        <time>2022-07-12T05:16:28Z</time>
      </trkpt>
      <trkpt lat="42.7727" lon="-7.432665">
        <time>2022-07-12T05:16:33Z</time>
      </trkpt>
      <trkpt lat="42.772686" lon="-7.4327445">
        <time>2022-07-12T05:16:37Z</time>
      </trkpt>
      <trkpt lat="42.77268" lon="-7.4328256">
        <time>2022-07-12T05:16:41Z</time>
      </trkpt>
      <trkpt lat="42.77268" lon="-7.432885">
        <time>2022-07-12T05:16:46Z</time>
      </trkpt>
      <trkpt lat="42.77264" lon="-7.4329543">
        <time>2022-07-12T05:16:52Z</time>
      </trkpt>
      <trkpt lat="42.77262" lon="-7.433015">
        <time>2022-07-12T05:16:57Z</time>
      </trkpt>
      <trkpt lat="42.772617" lon="-7.4330816">
        <time>2022-07-12T05:17:03Z</time>
      </trkpt>
      <trkpt lat="42.7726" lon="-7.4331484">
        <time>2022-07-12T05:17:09Z</time>
      </trkpt>
      <trkpt lat="42.772552" lon="-7.4332027">
        <time>2022-07-12T05:17:15Z</time>
      </trkpt>
      <trkpt lat="42.772526" lon="-7.4332533">
        <time>2022-07-12T05:17:20Z</time>
      </trkpt>
      <trkpt lat="42.772488" lon="-7.433297">
        <time>2022-07-12T05:17:27Z</time>
      </trkpt>
      <trkpt lat="42.77249" lon="-7.433374">
        <time>2022-07-12T05:17:34Z</time>
      </trkpt>
      <trkpt lat="42.772484" lon="-7.4334464">
        <time>2022-07-12T05:17:39Z</time>
      </trkpt>
      <trkpt lat="42.77246" lon="-7.433517">
        <time>2022-07-12T05:17:44Z</time>
      </trkpt>
      <trkpt lat="42.772438" lon="-7.433589">
        <time>2022-07-12T05:17:48Z</time>
      </trkpt>
      <trkpt lat="42.772415" lon="-7.4336452">
        <time>2022-07-12T05:17:52Z</time>
      </trkpt>
      <trkpt lat="42.77242" lon="-7.4337177">
        <time>2022-07-12T05:17:58Z</time>
      </trkpt>
      <trkpt lat="42.77243" lon="-7.433793">
        <time>2022-07-12T05:18:04Z</time>
      </trkpt>
      <trkpt lat="42.77244" lon="-7.4338584">
        <time>2022-07-12T05:18:10Z</time>
      </trkpt>
      <trkpt lat="42.772438" lon="-7.433937">
        <time>2022-07-12T05:18:16Z</time>
      </trkpt>
      <trkpt lat="42.772446" lon="-7.4339995">
        <time>2022-07-12T05:18:21Z</time>
      </trkpt>
      <trkpt lat="42.772446" lon="-7.434067">
        <time>2022-07-12T05:18:27Z</time>
      </trkpt>
      <trkpt lat="42.772423" lon="-7.434137">
        <time>2022-07-12T05:18:34Z</time>
      </trkpt>
      <trkpt lat="42.772408" lon="-7.4342027">
        <time>2022-07-12T05:18:40Z</time>
      </trkpt>
      <trkpt lat="42.772404" lon="-7.4342895">
        <time>2022-07-12T05:18:46Z</time>
      </trkpt>
      <trkpt lat="42.772404" lon="-7.434345">
        <time>2022-07-12T05:18:52Z</time>
      </trkpt>
      <trkpt lat="42.772373" lon="-7.43438">
        <time>2022-07-12T05:19:50Z</time>
      </trkpt>
      <trkpt lat="42.77237" lon="-7.4344764">
        <time>2022-07-12T05:20:01Z</time>
      </trkpt>
      <trkpt lat="42.77236" lon="-7.434563">
        <time>2022-07-12T05:20:04Z</time>
      </trkpt>
      <trkpt lat="42.77235" lon="-7.434669">
        <time>2022-07-12T05:20:07Z</time>
      </trkpt>
      <trkpt lat="42.772346" lon="-7.434734">
        <time>2022-07-12T05:20:09Z</time>
      </trkpt>
      <trkpt lat="42.77235" lon="-7.434815">
        <time>2022-07-12T05:20:12Z</time>
      </trkpt>
      <trkpt lat="42.772346" lon="-7.43488">
        <time>2022-07-12T05:20:15Z</time>
      </trkpt>
      <trkpt lat="42.772346" lon="-7.4349523">
        <time>2022-07-12T05:20:19Z</time>
      </trkpt>
      <trkpt lat="42.772346" lon="-7.4350257">
        <time>2022-07-12T05:20:24Z</time>
      </trkpt>
      <trkpt lat="42.77232" lon="-7.435101">
        <time>2022-07-12T05:20:29Z</time>
      </trkpt>
      <trkpt lat="42.772316" lon="-7.435176">
        <time>2022-07-12T05:20:33Z</time>
      </trkpt>
      <trkpt lat="42.772335" lon="-7.435238">
        <time>2022-07-12T05:20:37Z</time>
      </trkpt>
      <trkpt lat="42.77234" lon="-7.4352965">
        <time>2022-07-12T05:20:42Z</time>
      </trkpt>
      <trkpt lat="42.772335" lon="-7.435367">
        <time>2022-07-12T05:20:50Z</time>
      </trkpt>
      <trkpt lat="42.77231" lon="-7.435447">
        <time>2022-07-12T05:20:55Z</time>
      </trkpt>
      <trkpt lat="42.772312" lon="-7.4355044">
        <time>2022-07-12T05:20:59Z</time>
      </trkpt>
      <trkpt lat="42.772316" lon="-7.4355783">
        <time>2022-07-12T05:21:05Z</time>
      </trkpt>
      <trkpt lat="42.77232" lon="-7.4356627">
        <time>2022-07-12T05:21:11Z</time>
      </trkpt>
      <trkpt lat="42.77232" lon="-7.4357324">
        <time>2022-07-12T05:21:16Z</time>
      </trkpt>
      <trkpt lat="42.77232" lon="-7.435799">
        <time>2022-07-12T05:21:21Z</time>
      </trkpt>
      <trkpt lat="42.77235" lon="-7.4358726">
        <time>2022-07-12T05:21:26Z</time>
      </trkpt>
      <trkpt lat="42.772354" lon="-7.4359417">
        <time>2022-07-12T05:21:30Z</time>
      </trkpt>
      <trkpt lat="42.77237" lon="-7.436007">
        <time>2022-07-12T05:21:34Z</time>
      </trkpt>
      <trkpt lat="42.772373" lon="-7.436073">
        <time>2022-07-12T05:21:39Z</time>
      </trkpt>
      <trkpt lat="42.77238" lon="-7.436151">
        <time>2022-07-12T05:21:46Z</time>
      </trkpt>
      <trkpt lat="42.772377" lon="-7.4362235">
        <time>2022-07-12T05:21:53Z</time>
      </trkpt>
      <trkpt lat="42.772373" lon="-7.4362955">
        <time>2022-07-12T05:22:00Z</time>
      </trkpt>
      <trkpt lat="42.772358" lon="-7.4363585">
        <time>2022-07-12T05:22:07Z</time>
      </trkpt>
      <trkpt lat="42.772316" lon="-7.4363317">
        <time>2022-07-12T05:22:16Z</time>
      </trkpt>
      <trkpt lat="42.772293" lon="-7.4362607">
        <time>2022-07-12T05:22:23Z</time>
      </trkpt>
      <trkpt lat="42.772278" lon="-7.4361835">
        <time>2022-07-12T05:22:29Z</time>
      </trkpt>
      <trkpt lat="42.772255" lon="-7.436104">
        <time>2022-07-12T05:22:34Z</time>
      </trkpt>
      <trkpt lat="42.77223" lon="-7.436043">
        <time>2022-07-12T05:22:38Z</time>
      </trkpt>
      <trkpt lat="42.772213" lon="-7.4359746">
        <time>2022-07-12T05:22:43Z</time>
      </trkpt>
      <trkpt lat="42.77219" lon="-7.435908">
        <time>2022-07-12T05:22:48Z</time>
      </trkpt>
      <trkpt lat="42.772152" lon="-7.435851">
        <time>2022-07-12T05:22:53Z</time>
      </trkpt>
      <trkpt lat="42.772114" lon="-7.435812">
        <time>2022-07-12T05:22:58Z</time>
      </trkpt>
      <trkpt lat="42.77206" lon="-7.4357915">
        <time>2022-07-12T05:23:04Z</time>
      </trkpt>
      <trkpt lat="42.772022" lon="-7.435762">
        <time>2022-07-12T05:23:17Z</time>
      </trkpt>
      <trkpt lat="42.771957" lon="-7.4357615">
        <time>2022-07-12T05:23:23Z</time>
      </trkpt>
      <trkpt lat="42.771904" lon="-7.4357696">
        <time>2022-07-12T05:23:28Z</time>
      </trkpt>
      <trkpt lat="42.771847" lon="-7.435785">
        <time>2022-07-12T05:23:34Z</time>
      </trkpt>
      <trkpt lat="42.77179" lon="-7.435805">
        <time>2022-07-12T05:23:39Z</time>
      </trkpt>
      <trkpt lat="42.771736" lon="-7.4358287">
        <time>2022-07-12T05:23:44Z</time>
      </trkpt>
      <trkpt lat="42.77168" lon="-7.435847">
        <time>2022-07-12T05:23:49Z</time>
      </trkpt>
      <trkpt lat="42.77162" lon="-7.435853">
        <time>2022-07-12T05:23:54Z</time>
      </trkpt>
      <trkpt lat="42.77157" lon="-7.435855">
        <time>2022-07-12T05:24:00Z</time>
      </trkpt>
      <trkpt lat="42.771515" lon="-7.4358654">
        <time>2022-07-12T05:24:15Z</time>
      </trkpt>
      <trkpt lat="42.771473" lon="-7.4359055">
        <time>2022-07-12T05:24:20Z</time>
      </trkpt>
      <trkpt lat="42.77143" lon="-7.435969">
        <time>2022-07-12T05:24:25Z</time>
      </trkpt>
      <trkpt lat="42.771393" lon="-7.4360213">
        <time>2022-07-12T05:24:29Z</time>
      </trkpt>
      <trkpt lat="42.77136" lon="-7.436074">
        <time>2022-07-12T05:24:33Z</time>
      </trkpt>
      <trkpt lat="42.771324" lon="-7.4361267">
        <time>2022-07-12T05:24:37Z</time>
      </trkpt>
      <trkpt lat="42.771294" lon="-7.4362">
        <time>2022-07-12T05:24:42Z</time>
      </trkpt>
      <trkpt lat="42.77127" lon="-7.43628">
        <time>2022-07-12T05:24:47Z</time>
      </trkpt>
      <trkpt lat="42.77124" lon="-7.4363604">
        <time>2022-07-12T05:24:52Z</time>
      </trkpt>
      <trkpt lat="42.77121" lon="-7.4364243">
        <time>2022-07-12T05:24:56Z</time>
      </trkpt>
      <trkpt lat="42.771187" lon="-7.4364796">
        <time>2022-07-12T05:25:00Z</time>
      </trkpt>
      <trkpt lat="42.77117" lon="-7.4365582">
        <time>2022-07-12T05:25:05Z</time>
      </trkpt>
      <trkpt lat="42.77115" lon="-7.436634">
        <time>2022-07-12T05:25:10Z</time>
      </trkpt>
      <trkpt lat="42.771133" lon="-7.4367123">
        <time>2022-07-12T05:25:15Z</time>
      </trkpt>
      <trkpt lat="42.771107" lon="-7.4367905">
        <time>2022-07-12T05:25:20Z</time>
      </trkpt>
      <trkpt lat="42.77107" lon="-7.4368567">
        <time>2022-07-12T05:25:25Z</time>
      </trkpt>
      <trkpt lat="42.77104" lon="-7.4369273">
        <time>2022-07-12T05:25:30Z</time>
      </trkpt>
      <trkpt lat="42.771023" lon="-7.4369946">
        <time>2022-07-12T05:25:34Z</time>
      </trkpt>
      <trkpt lat="42.771004" lon="-7.4370656">
        <time>2022-07-12T05:25:39Z</time>
      </trkpt>
      <trkpt lat="42.77098" lon="-7.4371405">
        <time>2022-07-12T05:25:44Z</time>
      </trkpt>
      <trkpt lat="42.77095" lon="-7.437209">
        <time>2022-07-12T05:25:49Z</time>
      </trkpt>
      <trkpt lat="42.77093" lon="-7.437284">
        <time>2022-07-12T05:25:54Z</time>
      </trkpt>
      <trkpt lat="42.77091" lon="-7.437359">
        <time>2022-07-12T05:25:59Z</time>
      </trkpt>
      <trkpt lat="42.770885" lon="-7.437424">
        <time>2022-07-12T05:26:03Z</time>
      </trkpt>
      <trkpt lat="42.770863" lon="-7.437497">
        <time>2022-07-12T05:26:08Z</time>
      </trkpt>
      <trkpt lat="42.77084" lon="-7.4375787">
        <time>2022-07-12T05:26:13Z</time>
      </trkpt>
      <trkpt lat="42.770817" lon="-7.437647">
        <time>2022-07-12T05:26:18Z</time>
      </trkpt>
      <trkpt lat="42.77079" lon="-7.437704">
        <time>2022-07-12T05:26:24Z</time>
      </trkpt>
      <trkpt lat="42.770756" lon="-7.437759">
        <time>2022-07-12T05:26:29Z</time>
      </trkpt>
      <trkpt lat="42.770718" lon="-7.437817">
        <time>2022-07-12T05:26:34Z</time>
      </trkpt>
      <trkpt lat="42.77068" lon="-7.4378805">
        <time>2022-07-12T05:26:39Z</time>
      </trkpt>
      <trkpt lat="42.770634" lon="-7.437943">
        <time>2022-07-12T05:26:44Z</time>
      </trkpt>
      <trkpt lat="42.770588" lon="-7.4380107">
        <time>2022-07-12T05:26:49Z</time>
      </trkpt>
      <trkpt lat="42.770554" lon="-7.4380565">
        <time>2022-07-12T05:26:53Z</time>
      </trkpt>
      <trkpt lat="42.770508" lon="-7.438115">
        <time>2022-07-12T05:26:58Z</time>
      </trkpt>
      <trkpt lat="42.77048" lon="-7.438167">
        <time>2022-07-12T05:27:02Z</time>
      </trkpt>
      <trkpt lat="42.770435" lon="-7.4382353">
        <time>2022-07-12T05:27:07Z</time>
      </trkpt>
      <trkpt lat="42.770397" lon="-7.438294">
        <time>2022-07-12T05:27:11Z</time>
      </trkpt>
      <trkpt lat="42.770367" lon="-7.4383435">
        <time>2022-07-12T05:27:15Z</time>
      </trkpt>
      <trkpt lat="42.770332" lon="-7.438407">
        <time>2022-07-12T05:27:20Z</time>
      </trkpt>
      <trkpt lat="42.7703" lon="-7.4384685">
        <time>2022-07-12T05:27:25Z</time>
      </trkpt>
      <trkpt lat="42.770264" lon="-7.438528">
        <time>2022-07-12T05:27:29Z</time>
      </trkpt>
      <trkpt lat="42.770233" lon="-7.4385953">
        <time>2022-07-12T05:27:34Z</time>
      </trkpt>
      <trkpt lat="42.770203" lon="-7.4386597">
        <time>2022-07-12T05:27:38Z</time>
      </trkpt>
      <trkpt lat="42.770172" lon="-7.43872">
        <time>2022-07-12T05:27:42Z</time>
      </trkpt>
      <trkpt lat="42.770145" lon="-7.4387755">
        <time>2022-07-12T05:27:46Z</time>
      </trkpt>
      <trkpt lat="42.77012" lon="-7.4388375">
        <time>2022-07-12T05:27:50Z</time>
      </trkpt>
      <trkpt lat="42.770096" lon="-7.4389067">
        <time>2022-07-12T05:27:55Z</time>
      </trkpt>
      <trkpt lat="42.770073" lon="-7.4389777">
        <time>2022-07-12T05:28:00Z</time>
      </trkpt>
      <trkpt lat="42.770042" lon="-7.439044">
        <time>2022-07-12T05:28:05Z</time>
      </trkpt>
      <trkpt lat="42.770016" lon="-7.4391074">
        <time>2022-07-12T05:28:09Z</time>
      </trkpt>
      <trkpt lat="42.76999" lon="-7.4391685">
        <time>2022-07-12T05:28:13Z</time>
      </trkpt>
      <trkpt lat="42.76996" lon="-7.439245">
        <time>2022-07-12T05:28:18Z</time>
      </trkpt>
      <trkpt lat="42.76993" lon="-7.4393225">
        <time>2022-07-12T05:28:23Z</time>
      </trkpt>
      <trkpt lat="42.76991" lon="-7.4393992">
        <time>2022-07-12T05:28:28Z</time>
      </trkpt>
      <trkpt lat="42.769882" lon="-7.439464">
        <time>2022-07-12T05:28:33Z</time>
      </trkpt>
      <trkpt lat="42.769855" lon="-7.4395313">
        <time>2022-07-12T05:28:38Z</time>
      </trkpt>
      <trkpt lat="42.76983" lon="-7.439609">
        <time>2022-07-12T05:28:43Z</time>
      </trkpt>
      <trkpt lat="42.76982" lon="-7.4396825">
        <time>2022-07-12T05:28:47Z</time>
      </trkpt>
      <trkpt lat="42.76985" lon="-7.439753">
        <time>2022-07-12T05:28:52Z</time>
      </trkpt>
      <trkpt lat="42.769894" lon="-7.439798">
        <time>2022-07-12T05:28:56Z</time>
      </trkpt>
      <trkpt lat="42.76994" lon="-7.439841">
        <time>2022-07-12T05:29:01Z</time>
      </trkpt>
      <trkpt lat="42.769985" lon="-7.43988">
        <time>2022-07-12T05:29:06Z</time>
      </trkpt>
      <trkpt lat="42.77003" lon="-7.4399047">
        <time>2022-07-12T05:29:10Z</time>
      </trkpt>
      <trkpt lat="42.770084" lon="-7.439939">
        <time>2022-07-12T05:29:15Z</time>
      </trkpt>
      <trkpt lat="42.770134" lon="-7.439969">
        <time>2022-07-12T05:29:19Z</time>
      </trkpt>
      <trkpt lat="42.770176" lon="-7.4400005">
        <time>2022-07-12T05:29:23Z</time>
      </trkpt>
      <trkpt lat="42.770226" lon="-7.440048">
        <time>2022-07-12T05:29:28Z</time>
      </trkpt>
      <trkpt lat="42.770264" lon="-7.4400883">
        <time>2022-07-12T05:29:32Z</time>
      </trkpt>
      <trkpt lat="42.77031" lon="-7.4401393">
        <time>2022-07-12T05:29:37Z</time>
      </trkpt>
      <trkpt lat="42.770344" lon="-7.4402065">
        <time>2022-07-12T05:29:42Z</time>
      </trkpt>
      <trkpt lat="42.770367" lon="-7.4402814">
        <time>2022-07-12T05:29:47Z</time>
      </trkpt>
      <trkpt lat="42.77039" lon="-7.4403605">
        <time>2022-07-12T05:29:52Z</time>
      </trkpt>
      <trkpt lat="42.77041" lon="-7.4404383">
        <time>2022-07-12T05:29:57Z</time>
      </trkpt>
      <trkpt lat="42.770428" lon="-7.4404993">
        <time>2022-07-12T05:30:01Z</time>
      </trkpt>
      <trkpt lat="42.770447" lon="-7.4405794">
        <time>2022-07-12T05:30:06Z</time>
      </trkpt>
      <trkpt lat="42.77046" lon="-7.4406567">
        <time>2022-07-12T05:30:11Z</time>
      </trkpt>
      <trkpt lat="42.770473" lon="-7.440724">
        <time>2022-07-12T05:30:15Z</time>
      </trkpt>
      <trkpt lat="42.77049" lon="-7.4407864">
        <time>2022-07-12T05:30:19Z</time>
      </trkpt>
      <trkpt lat="42.77051" lon="-7.440872">
        <time>2022-07-12T05:30:24Z</time>
      </trkpt>
      <trkpt lat="42.770535" lon="-7.440943">
        <time>2022-07-12T05:30:28Z</time>
      </trkpt>
      <trkpt lat="42.77055" lon="-7.441021">
        <time>2022-07-12T05:30:33Z</time>
      </trkpt>
      <trkpt lat="42.77056" lon="-7.4410944">
        <time>2022-07-12T05:30:37Z</time>
      </trkpt>
      <trkpt lat="42.77057" lon="-7.441171">
        <time>2022-07-12T05:30:42Z</time>
      </trkpt>
      <trkpt lat="42.770588" lon="-7.4412446">
        <time>2022-07-12T05:30:46Z</time>
      </trkpt>
      <trkpt lat="42.770596" lon="-7.4413157">
        <time>2022-07-12T05:30:50Z</time>
      </trkpt>
      <trkpt lat="42.770596" lon="-7.4414015">
        <time>2022-07-12T05:30:55Z</time>
      </trkpt>
      <trkpt lat="42.770596" lon="-7.4414725">
        <time>2022-07-12T05:30:59Z</time>
      </trkpt>
      <trkpt lat="42.770603" lon="-7.4415445">
        <time>2022-07-12T05:31:04Z</time>
      </trkpt>
      <trkpt lat="42.770607" lon="-7.441623">
        <time>2022-07-12T05:31:09Z</time>
      </trkpt>
      <trkpt lat="42.77062" lon="-7.441697">
        <time>2022-07-12T05:31:14Z</time>
      </trkpt>
      <trkpt lat="42.77063" lon="-7.441768">
        <time>2022-07-12T05:31:18Z</time>
      </trkpt>
      <trkpt lat="42.77064" lon="-7.44184">
        <time>2022-07-12T05:31:23Z</time>
      </trkpt>
      <trkpt lat="42.770657" lon="-7.441908">
        <time>2022-07-12T05:31:27Z</time>
      </trkpt>
      <trkpt lat="42.77067" lon="-7.441974">
        <time>2022-07-12T05:31:31Z</time>
      </trkpt>
      <trkpt lat="42.77069" lon="-7.442052">
        <time>2022-07-12T05:31:36Z</time>
      </trkpt>
      <trkpt lat="42.770706" lon="-7.4421105">
        <time>2022-07-12T05:31:40Z</time>
      </trkpt>
      <trkpt lat="42.77073" lon="-7.4421835">
        <time>2022-07-12T05:31:45Z</time>
      </trkpt>
      <trkpt lat="42.770752" lon="-7.44225">
        <time>2022-07-12T05:31:50Z</time>
      </trkpt>
      <trkpt lat="42.77077" lon="-7.442325">
        <time>2022-07-12T05:31:55Z</time>
      </trkpt>
      <trkpt lat="42.770782" lon="-7.4424005">
        <time>2022-07-12T05:32:00Z</time>
      </trkpt>
      <trkpt lat="42.770794" lon="-7.442478">
        <time>2022-07-12T05:32:05Z</time>
      </trkpt>
      <trkpt lat="42.770813" lon="-7.442561">
        <time>2022-07-12T05:32:11Z</time>
      </trkpt>
      <trkpt lat="42.77083" lon="-7.4426475">
        <time>2022-07-12T05:32:16Z</time>
      </trkpt>
      <trkpt lat="42.77084" lon="-7.442723">
        <time>2022-07-12T05:32:21Z</time>
      </trkpt>
      <trkpt lat="42.77085" lon="-7.4427967">
        <time>2022-07-12T05:32:25Z</time>
      </trkpt>
      <trkpt lat="42.77087" lon="-7.4428725">
        <time>2022-07-12T05:32:29Z</time>
      </trkpt>
      <trkpt lat="42.770885" lon="-7.4429455">
        <time>2022-07-12T05:32:34Z</time>
      </trkpt>
      <trkpt lat="42.7709" lon="-7.4430184">
        <time>2022-07-12T05:32:38Z</time>
      </trkpt>
      <trkpt lat="42.770905" lon="-7.4430804">
        <time>2022-07-12T05:32:42Z</time>
      </trkpt>
      <trkpt lat="42.770912" lon="-7.443167">
        <time>2022-07-12T05:32:47Z</time>
      </trkpt>
      <trkpt lat="42.77091" lon="-7.4432373">
        <time>2022-07-12T05:32:51Z</time>
      </trkpt>
      <trkpt lat="42.77088" lon="-7.4433045">
        <time>2022-07-12T05:32:56Z</time>
      </trkpt>
      <trkpt lat="42.770836" lon="-7.4433627">
        <time>2022-07-12T05:33:01Z</time>
      </trkpt>
      <trkpt lat="42.770782" lon="-7.443392">
        <time>2022-07-12T05:33:06Z</time>
      </trkpt>
      <trkpt lat="42.770733" lon="-7.4434137">
        <time>2022-07-12T05:33:10Z</time>
      </trkpt>
      <trkpt lat="42.77068" lon="-7.443432">
        <time>2022-07-12T05:33:15Z</time>
      </trkpt>
      <trkpt lat="42.77062" lon="-7.443455">
        <time>2022-07-12T05:33:20Z</time>
      </trkpt>
      <trkpt lat="42.77056" lon="-7.4434834">
        <time>2022-07-12T05:33:25Z</time>
      </trkpt>
      <trkpt lat="42.770508" lon="-7.443527">
        <time>2022-07-12T05:33:29Z</time>
      </trkpt>
      <trkpt lat="42.77046" lon="-7.4435563">
        <time>2022-07-12T05:33:33Z</time>
      </trkpt>
      <trkpt lat="42.77041" lon="-7.4435806">
        <time>2022-07-12T05:33:37Z</time>
      </trkpt>
      <trkpt lat="42.770367" lon="-7.4436088">
        <time>2022-07-12T05:33:41Z</time>
      </trkpt>
      <trkpt lat="42.770313" lon="-7.443635">
        <time>2022-07-12T05:33:46Z</time>
      </trkpt>
      <trkpt lat="42.770256" lon="-7.443661">
        <time>2022-07-12T05:33:51Z</time>
      </trkpt>
      <trkpt lat="42.770206" lon="-7.4436827">
        <time>2022-07-12T05:33:55Z</time>
      </trkpt>
      <trkpt lat="42.770164" lon="-7.443716">
        <time>2022-07-12T05:34:00Z</time>
      </trkpt>
      <trkpt lat="42.77012" lon="-7.443753">
        <time>2022-07-12T05:34:05Z</time>
      </trkpt>
      <trkpt lat="42.770065" lon="-7.4437957">
        <time>2022-07-12T05:34:10Z</time>
      </trkpt>
      <trkpt lat="42.770027" lon="-7.4438233">
        <time>2022-07-12T05:34:14Z</time>
      </trkpt>
      <trkpt lat="42.769985" lon="-7.4438753">
        <time>2022-07-12T05:34:19Z</time>
      </trkpt>
      <trkpt lat="42.76995" lon="-7.4439373">
        <time>2022-07-12T05:34:24Z</time>
      </trkpt>
      <trkpt lat="42.769913" lon="-7.443998">
        <time>2022-07-12T05:34:29Z</time>
      </trkpt>
      <trkpt lat="42.769882" lon="-7.44405">
        <time>2022-07-12T05:34:33Z</time>
      </trkpt>
      <trkpt lat="42.769848" lon="-7.44411">
        <time>2022-07-12T05:34:38Z</time>
      </trkpt>
      <trkpt lat="42.769814" lon="-7.4441714">
        <time>2022-07-12T05:34:43Z</time>
      </trkpt>
      <trkpt lat="42.769768" lon="-7.444219">
        <time>2022-07-12T05:34:48Z</time>
      </trkpt>
      <trkpt lat="42.76972" lon="-7.444267">
        <time>2022-07-12T05:34:53Z</time>
      </trkpt>
      <trkpt lat="42.769672" lon="-7.4443045">
        <time>2022-07-12T05:34:58Z</time>
      </trkpt>
      <trkpt lat="42.769623" lon="-7.4443336">
        <time>2022-07-12T05:35:03Z</time>
      </trkpt>
      <trkpt lat="42.76957" lon="-7.4443603">
        <time>2022-07-12T05:35:08Z</time>
      </trkpt>
      <trkpt lat="42.76952" lon="-7.4443765">
        <time>2022-07-12T05:35:13Z</time>
      </trkpt>
      <trkpt lat="42.769466" lon="-7.4443827">
        <time>2022-07-12T05:35:18Z</time>
      </trkpt>
      <trkpt lat="42.76941" lon="-7.4443774">
        <time>2022-07-12T05:35:23Z</time>
      </trkpt>
      <trkpt lat="42.76935" lon="-7.4443765">
        <time>2022-07-12T05:35:28Z</time>
      </trkpt>
      <trkpt lat="42.769295" lon="-7.4443765">
        <time>2022-07-12T05:35:33Z</time>
      </trkpt>
      <trkpt lat="42.769234" lon="-7.444373">
        <time>2022-07-12T05:35:38Z</time>
      </trkpt>
      <trkpt lat="42.76918" lon="-7.4443727">
        <time>2022-07-12T05:35:43Z</time>
      </trkpt>
      <trkpt lat="42.76913" lon="-7.444399">
        <time>2022-07-12T05:35:49Z</time>
      </trkpt>
      <trkpt lat="42.769108" lon="-7.444461">
        <time>2022-07-12T05:35:57Z</time>
      </trkpt>
      <trkpt lat="42.769093" lon="-7.4445343">
        <time>2022-07-12T05:36:06Z</time>
      </trkpt>
      <trkpt lat="42.769073" lon="-7.444598">
        <time>2022-07-12T05:36:14Z</time>
      </trkpt>
      <trkpt lat="42.769054" lon="-7.4446673">
        <time>2022-07-12T05:36:24Z</time>
      </trkpt>
      <trkpt lat="42.769012" lon="-7.4447055">
        <time>2022-07-12T05:36:34Z</time>
      </trkpt>
      <trkpt lat="42.768963" lon="-7.444726">
        <time>2022-07-12T05:36:45Z</time>
      </trkpt>
      <trkpt lat="42.769016" lon="-7.444783">
        <time>2022-07-12T05:40:54Z</time>
      </trkpt>
      <trkpt lat="42.768993" lon="-7.4447784">
        <time>2022-07-12T05:42:04Z</time>
      </trkpt>
      <trkpt lat="42.76896" lon="-7.444803">
        <time>2022-07-12T05:42:11Z</time>
      </trkpt>
      <trkpt lat="42.76898" lon="-7.4447746">
        <time>2022-07-12T05:42:45Z</time>
      </trkpt>
      <trkpt lat="42.768997" lon="-7.444689">
        <time>2022-07-12T05:44:51Z</time>
      </trkpt>
      <trkpt lat="42.769043" lon="-7.44464">
        <time>2022-07-12T06:03:21Z</time>
      </trkpt>
      <trkpt lat="42.769085" lon="-7.444568">
        <time>2022-07-12T06:03:26Z</time>
      </trkpt>
      <trkpt lat="42.76911" lon="-7.444504">
        <time>2022-07-12T06:03:31Z</time>
      </trkpt>
      <trkpt lat="42.769127" lon="-7.444437">
        <time>2022-07-12T06:03:35Z</time>
      </trkpt>
      <trkpt lat="42.76912" lon="-7.444358">
        <time>2022-07-12T06:03:39Z</time>
      </trkpt>
      <trkpt lat="42.769085" lon="-7.444297">
        <time>2022-07-12T06:03:43Z</time>
      </trkpt>
      <trkpt lat="42.769035" lon="-7.444241">
        <time>2022-07-12T06:03:48Z</time>
      </trkpt>
      <trkpt lat="42.768993" lon="-7.444194">
        <time>2022-07-12T06:03:53Z</time>
      </trkpt>
      <trkpt lat="42.768944" lon="-7.444146">
        <time>2022-07-12T06:03:58Z</time>
      </trkpt>
      <trkpt lat="42.768894" lon="-7.4441338">
        <time>2022-07-12T06:04:02Z</time>
      </trkpt>
      <trkpt lat="42.768833" lon="-7.444144">
        <time>2022-07-12T06:04:07Z</time>
      </trkpt>
      <trkpt lat="42.768784" lon="-7.4441557">
        <time>2022-07-12T06:04:11Z</time>
      </trkpt>
      <trkpt lat="42.76873" lon="-7.4441957">
        <time>2022-07-12T06:04:16Z</time>
      </trkpt>
      <trkpt lat="42.768696" lon="-7.4442406">
        <time>2022-07-12T06:04:20Z</time>
      </trkpt>
      <trkpt lat="42.768665" lon="-7.4443035">
        <time>2022-07-12T06:04:25Z</time>
      </trkpt>
      <trkpt lat="42.76864" lon="-7.4443636">
        <time>2022-07-12T06:04:29Z</time>
      </trkpt>
      <trkpt lat="42.76862" lon="-7.444441">
        <time>2022-07-12T06:04:34Z</time>
      </trkpt>
      <trkpt lat="42.768597" lon="-7.444502">
        <time>2022-07-12T06:04:38Z</time>
      </trkpt>
      <trkpt lat="42.768574" lon="-7.44457">
        <time>2022-07-12T06:04:43Z</time>
      </trkpt>
      <trkpt lat="42.76855" lon="-7.444643">
        <time>2022-07-12T06:04:48Z</time>
      </trkpt>
      <trkpt lat="42.768543" lon="-7.444718">
        <time>2022-07-12T06:04:53Z</time>
      </trkpt>
      <trkpt lat="42.76855" lon="-7.4447927">
        <time>2022-07-12T06:04:58Z</time>
      </trkpt>
      <trkpt lat="42.76856" lon="-7.444864">
        <time>2022-07-12T06:05:03Z</time>
      </trkpt>
      <trkpt lat="42.76857" lon="-7.4449368">
        <time>2022-07-12T06:05:07Z</time>
      </trkpt>
      <trkpt lat="42.768578" lon="-7.445017">
        <time>2022-07-12T06:05:12Z</time>
      </trkpt>
      <trkpt lat="42.768585" lon="-7.4450855">
        <time>2022-07-12T06:05:17Z</time>
      </trkpt>
      <trkpt lat="42.768585" lon="-7.4451604">
        <time>2022-07-12T06:05:22Z</time>
      </trkpt>
      <trkpt lat="42.768566" lon="-7.4452434">
        <time>2022-07-12T06:05:27Z</time>
      </trkpt>
      <trkpt lat="42.76855" lon="-7.4453125">
        <time>2022-07-12T06:05:32Z</time>
      </trkpt>
      <trkpt lat="42.768517" lon="-7.4453773">
        <time>2022-07-12T06:05:37Z</time>
      </trkpt>
      <trkpt lat="42.76847" lon="-7.4454207">
        <time>2022-07-12T06:05:42Z</time>
      </trkpt>
      <trkpt lat="42.76843" lon="-7.445451">
        <time>2022-07-12T06:05:46Z</time>
      </trkpt>
      <trkpt lat="42.768375" lon="-7.4454975">
        <time>2022-07-12T06:05:51Z</time>
      </trkpt>
      <trkpt lat="42.76833" lon="-7.44554">
        <time>2022-07-12T06:05:56Z</time>
      </trkpt>
      <trkpt lat="42.768284" lon="-7.445576">
        <time>2022-07-12T06:06:00Z</time>
      </trkpt>
      <trkpt lat="42.768238" lon="-7.4456267">
        <time>2022-07-12T06:06:05Z</time>
      </trkpt>
      <trkpt lat="42.76819" lon="-7.4456687">
        <time>2022-07-12T06:06:10Z</time>
      </trkpt>
      <trkpt lat="42.76814" lon="-7.445698">
        <time>2022-07-12T06:06:15Z</time>
      </trkpt>
      <trkpt lat="42.76809" lon="-7.445729">
        <time>2022-07-12T06:06:19Z</time>
      </trkpt>
      <trkpt lat="42.76804" lon="-7.445772">
        <time>2022-07-12T06:06:24Z</time>
      </trkpt>
      <trkpt lat="42.767998" lon="-7.4458055">
        <time>2022-07-12T06:06:28Z</time>
      </trkpt>
      <trkpt lat="42.767956" lon="-7.445866">
        <time>2022-07-12T06:06:33Z</time>
      </trkpt>
      <trkpt lat="42.767918" lon="-7.4459047">
        <time>2022-07-12T06:06:37Z</time>
      </trkpt>
      <trkpt lat="42.76787" lon="-7.4459634">
        <time>2022-07-12T06:06:42Z</time>
      </trkpt>
      <trkpt lat="42.76783" lon="-7.446025">
        <time>2022-07-12T06:06:47Z</time>
      </trkpt>
      <trkpt lat="42.76778" lon="-7.4460783">
        <time>2022-07-12T06:06:52Z</time>
      </trkpt>
      <trkpt lat="42.767735" lon="-7.4461393">
        <time>2022-07-12T06:06:57Z</time>
      </trkpt>
      <trkpt lat="42.76769" lon="-7.446195">
        <time>2022-07-12T06:07:02Z</time>
      </trkpt>
      <trkpt lat="42.767635" lon="-7.4462447">
        <time>2022-07-12T06:07:07Z</time>
      </trkpt>
      <trkpt lat="42.767586" lon="-7.4463053">
        <time>2022-07-12T06:07:12Z</time>
      </trkpt>
      <trkpt lat="42.767548" lon="-7.4463577">
        <time>2022-07-12T06:07:16Z</time>
      </trkpt>
      <trkpt lat="42.7675" lon="-7.446397">
        <time>2022-07-12T06:07:20Z</time>
      </trkpt>
      <trkpt lat="42.767452" lon="-7.446445">
        <time>2022-07-12T06:07:25Z</time>
      </trkpt>
      <trkpt lat="42.76741" lon="-7.4464974">
        <time>2022-07-12T06:07:30Z</time>
      </trkpt>
      <trkpt lat="42.767372" lon="-7.446549">
        <time>2022-07-12T06:07:35Z</time>
      </trkpt>
      <trkpt lat="42.767338" lon="-7.4466133">
        <time>2022-07-12T06:07:40Z</time>
      </trkpt>
      <trkpt lat="42.767303" lon="-7.446668">
        <time>2022-07-12T06:07:45Z</time>
      </trkpt>
      <trkpt lat="42.767254" lon="-7.446709">
        <time>2022-07-12T06:07:51Z</time>
      </trkpt>
      <trkpt lat="42.76721" lon="-7.4467516">
        <time>2022-07-12T06:07:56Z</time>
      </trkpt>
      <trkpt lat="42.767162" lon="-7.446809">
        <time>2022-07-12T06:08:00Z</time>
      </trkpt>
      <trkpt lat="42.767113" lon="-7.446859">
        <time>2022-07-12T06:08:04Z</time>
      </trkpt>
      <trkpt lat="42.767067" lon="-7.446911">
        <time>2022-07-12T06:08:09Z</time>
      </trkpt>
      <trkpt lat="42.76703" lon="-7.4469643">
        <time>2022-07-12T06:08:13Z</time>
      </trkpt>
      <trkpt lat="42.76699" lon="-7.447023">
        <time>2022-07-12T06:08:18Z</time>
      </trkpt>
      <trkpt lat="42.766956" lon="-7.447079">
        <time>2022-07-12T06:08:22Z</time>
      </trkpt>
      <trkpt lat="42.766922" lon="-7.4471307">
        <time>2022-07-12T06:08:26Z</time>
      </trkpt>
      <trkpt lat="42.7669" lon="-7.447199">
        <time>2022-07-12T06:08:31Z</time>
      </trkpt>
      <trkpt lat="42.76687" lon="-7.4472504">
        <time>2022-07-12T06:08:44Z</time>
      </trkpt>
      <trkpt lat="42.766846" lon="-7.447315">
        <time>2022-07-12T06:08:48Z</time>
      </trkpt>
      <trkpt lat="42.766827" lon="-7.4473805">
        <time>2022-07-12T06:08:52Z</time>
      </trkpt>
      <trkpt lat="42.766808" lon="-7.447451">
        <time>2022-07-12T06:08:56Z</time>
      </trkpt>
      <trkpt lat="42.76679" lon="-7.447514">
        <time>2022-07-12T06:09:00Z</time>
      </trkpt>
      <trkpt lat="42.76676" lon="-7.4475827">
        <time>2022-07-12T06:09:04Z</time>
      </trkpt>
      <trkpt lat="42.766735" lon="-7.447652">
        <time>2022-07-12T06:09:09Z</time>
      </trkpt>
      <trkpt lat="42.766712" lon="-7.4477134">
        <time>2022-07-12T06:09:13Z</time>
      </trkpt>
      <trkpt lat="42.766685" lon="-7.4477835">
        <time>2022-07-12T06:09:18Z</time>
      </trkpt>
      <trkpt lat="42.766663" lon="-7.4478607">
        <time>2022-07-12T06:09:23Z</time>
      </trkpt>
      <trkpt lat="42.766647" lon="-7.4479227">
        <time>2022-07-12T06:09:27Z</time>
      </trkpt>
      <trkpt lat="42.76664" lon="-7.448">
        <time>2022-07-12T06:09:32Z</time>
      </trkpt>
      <trkpt lat="42.76663" lon="-7.4480658">
        <time>2022-07-12T06:09:36Z</time>
      </trkpt>
      <trkpt lat="42.766605" lon="-7.4481516">
        <time>2022-07-12T06:09:41Z</time>
      </trkpt>
      <trkpt lat="42.766594" lon="-7.448221">
        <time>2022-07-12T06:09:45Z</time>
      </trkpt>
      <trkpt lat="42.766582" lon="-7.4482903">
        <time>2022-07-12T06:09:49Z</time>
      </trkpt>
      <trkpt lat="42.766582" lon="-7.4483676">
        <time>2022-07-12T06:09:53Z</time>
      </trkpt>
      <trkpt lat="42.76658" lon="-7.4484396">
        <time>2022-07-12T06:09:57Z</time>
      </trkpt>
      <trkpt lat="42.76657" lon="-7.448524">
        <time>2022-07-12T06:10:02Z</time>
      </trkpt>
      <trkpt lat="42.766567" lon="-7.448602">
        <time>2022-07-12T06:10:06Z</time>
      </trkpt>
      <trkpt lat="42.766563" lon="-7.4486675">
        <time>2022-07-12T06:10:10Z</time>
      </trkpt>
      <trkpt lat="42.766556" lon="-7.448745">
        <time>2022-07-12T06:10:14Z</time>
      </trkpt>
      <trkpt lat="42.76655" lon="-7.448816">
        <time>2022-07-12T06:10:18Z</time>
      </trkpt>
      <trkpt lat="42.76654" lon="-7.448892">
        <time>2022-07-12T06:10:23Z</time>
      </trkpt>
      <trkpt lat="42.76653" lon="-7.448955">
        <time>2022-07-12T06:10:27Z</time>
      </trkpt>
      <trkpt lat="42.766502" lon="-7.4490385">
        <time>2022-07-12T06:10:32Z</time>
      </trkpt>
      <trkpt lat="42.766483" lon="-7.4491143">
        <time>2022-07-12T06:10:36Z</time>
      </trkpt>
      <trkpt lat="42.766464" lon="-7.449176">
        <time>2022-07-12T06:10:40Z</time>
      </trkpt>
      <trkpt lat="42.76644" lon="-7.449241">
        <time>2022-07-12T06:10:44Z</time>
      </trkpt>
      <trkpt lat="42.766415" lon="-7.449303">
        <time>2022-07-12T06:10:48Z</time>
      </trkpt>
      <trkpt lat="42.76639" lon="-7.4493685">
        <time>2022-07-12T06:10:52Z</time>
      </trkpt>
      <trkpt lat="42.766365" lon="-7.44943">
        <time>2022-07-12T06:10:56Z</time>
      </trkpt>
      <trkpt lat="42.76634" lon="-7.449494">
        <time>2022-07-12T06:11:01Z</time>
      </trkpt>
      <trkpt lat="42.766308" lon="-7.449569">
        <time>2022-07-12T06:11:06Z</time>
      </trkpt>
      <trkpt lat="42.76627" lon="-7.449642">
        <time>2022-07-12T06:11:11Z</time>
      </trkpt>
      <trkpt lat="42.766243" lon="-7.449706">
        <time>2022-07-12T06:11:15Z</time>
      </trkpt>
      <trkpt lat="42.766216" lon="-7.4497604">
        <time>2022-07-12T06:11:19Z</time>
      </trkpt>
      <trkpt lat="42.766182" lon="-7.4498296">
        <time>2022-07-12T06:11:24Z</time>
      </trkpt>
      <trkpt lat="42.76616" lon="-7.44989">
        <time>2022-07-12T06:11:28Z</time>
      </trkpt>
      <trkpt lat="42.76613" lon="-7.449967">
        <time>2022-07-12T06:11:33Z</time>
      </trkpt>
      <trkpt lat="42.766094" lon="-7.450024">
        <time>2022-07-12T06:11:37Z</time>
      </trkpt>
      <trkpt lat="42.766052" lon="-7.450087">
        <time>2022-07-12T06:11:42Z</time>
      </trkpt>
      <trkpt lat="42.766014" lon="-7.45014">
        <time>2022-07-12T06:11:46Z</time>
      </trkpt>
      <trkpt lat="42.765976" lon="-7.4501877">
        <time>2022-07-12T06:11:50Z</time>
      </trkpt>
      <trkpt lat="42.765938" lon="-7.450259">
        <time>2022-07-12T06:11:55Z</time>
      </trkpt>
      <trkpt lat="42.765926" lon="-7.4503384">
        <time>2022-07-12T06:12:00Z</time>
      </trkpt>
      <trkpt lat="42.765934" lon="-7.4504213">
        <time>2022-07-12T06:12:05Z</time>
      </trkpt>
      <trkpt lat="42.76597" lon="-7.4504914">
        <time>2022-07-12T06:12:10Z</time>
      </trkpt>
      <trkpt lat="42.766003" lon="-7.450551">
        <time>2022-07-12T06:12:14Z</time>
      </trkpt>
      <trkpt lat="42.766037" lon="-7.4506254">
        <time>2022-07-12T06:12:19Z</time>
      </trkpt>
      <trkpt lat="42.76607" lon="-7.450676">
        <time>2022-07-12T06:12:23Z</time>
      </trkpt>
      <trkpt lat="42.76612" lon="-7.4507394">
        <time>2022-07-12T06:12:28Z</time>
      </trkpt>
      <trkpt lat="42.766155" lon="-7.4507885">
        <time>2022-07-12T06:12:32Z</time>
      </trkpt>
      <trkpt lat="42.7662" lon="-7.4508486">
        <time>2022-07-12T06:12:37Z</time>
      </trkpt>
      <trkpt lat="42.766247" lon="-7.450904">
        <time>2022-07-12T06:12:42Z</time>
      </trkpt>
      <trkpt lat="42.766296" lon="-7.450955">
        <time>2022-07-12T06:12:47Z</time>
      </trkpt>
      <trkpt lat="42.766342" lon="-7.4509983">
        <time>2022-07-12T06:12:51Z</time>
      </trkpt>
      <trkpt lat="42.766388" lon="-7.45105">
        <time>2022-07-12T06:12:56Z</time>
      </trkpt>
      <trkpt lat="42.76642" lon="-7.451105">
        <time>2022-07-12T06:13:00Z</time>
      </trkpt>
      <trkpt lat="42.766457" lon="-7.4511514">
        <time>2022-07-12T06:13:04Z</time>
      </trkpt>
      <trkpt lat="42.766506" lon="-7.4512014">
        <time>2022-07-12T06:13:09Z</time>
      </trkpt>
      <trkpt lat="42.76655" lon="-7.4512463">
        <time>2022-07-12T06:13:13Z</time>
      </trkpt>
      <trkpt lat="42.766598" lon="-7.451283">
        <time>2022-07-12T06:13:17Z</time>
      </trkpt>
      <trkpt lat="42.76664" lon="-7.451336">
        <time>2022-07-12T06:13:22Z</time>
      </trkpt>
      <trkpt lat="42.766685" lon="-7.4513745">
        <time>2022-07-12T06:13:26Z</time>
      </trkpt>
      <trkpt lat="42.766727" lon="-7.451429">
        <time>2022-07-12T06:13:31Z</time>
      </trkpt>
      <trkpt lat="42.766766" lon="-7.451473">
        <time>2022-07-12T06:13:35Z</time>
      </trkpt>
      <trkpt lat="42.766815" lon="-7.4515157">
        <time>2022-07-12T06:13:40Z</time>
      </trkpt>
      <trkpt lat="42.766865" lon="-7.4515424">
        <time>2022-07-12T06:13:44Z</time>
      </trkpt>
      <trkpt lat="42.766907" lon="-7.4515796">
        <time>2022-07-12T06:13:48Z</time>
      </trkpt>
      <trkpt lat="42.76696" lon="-7.451623">
        <time>2022-07-12T06:13:53Z</time>
      </trkpt>
      <trkpt lat="42.767002" lon="-7.4516635">
        <time>2022-07-12T06:13:57Z</time>
      </trkpt>
      <trkpt lat="42.767056" lon="-7.4517183">
        <time>2022-07-12T06:14:02Z</time>
      </trkpt>
      <trkpt lat="42.767094" lon="-7.4517574">
        <time>2022-07-12T06:14:06Z</time>
      </trkpt>
      <trkpt lat="42.76715" lon="-7.4518">
        <time>2022-07-12T06:14:11Z</time>
      </trkpt>
      <trkpt lat="42.767185" lon="-7.45184">
        <time>2022-07-12T06:14:15Z</time>
      </trkpt>
      <trkpt lat="42.76723" lon="-7.451895">
        <time>2022-07-12T06:14:20Z</time>
      </trkpt>
      <trkpt lat="42.76728" lon="-7.4519444">
        <time>2022-07-12T06:14:25Z</time>
      </trkpt>
      <trkpt lat="42.767323" lon="-7.4519744">
        <time>2022-07-12T06:14:29Z</time>
      </trkpt>
      <trkpt lat="42.767372" lon="-7.452011">
        <time>2022-07-12T06:14:33Z</time>
      </trkpt>
      <trkpt lat="42.76742" lon="-7.452046">
        <time>2022-07-12T06:14:37Z</time>
      </trkpt>
      <trkpt lat="42.76747" lon="-7.452074">
        <time>2022-07-12T06:14:41Z</time>
      </trkpt>
      <trkpt lat="42.76752" lon="-7.4521074">
        <time>2022-07-12T06:14:46Z</time>
      </trkpt>
      <trkpt lat="42.767567" lon="-7.4521637">
        <time>2022-07-12T06:14:51Z</time>
      </trkpt>
      <trkpt lat="42.767612" lon="-7.4521985">
        <time>2022-07-12T06:14:54Z</time>
      </trkpt>
      <trkpt lat="42.767662" lon="-7.45224">
        <time>2022-07-12T06:14:58Z</time>
      </trkpt>
      <trkpt lat="42.76771" lon="-7.4522843">
        <time>2022-07-12T06:15:03Z</time>
      </trkpt>
      <trkpt lat="42.767757" lon="-7.452336">
        <time>2022-07-12T06:15:08Z</time>
      </trkpt>
      <trkpt lat="42.767807" lon="-7.4523797">
        <time>2022-07-12T06:15:13Z</time>
      </trkpt>
      <trkpt lat="42.767853" lon="-7.4524174">
        <time>2022-07-12T06:15:18Z</time>
      </trkpt>
      <trkpt lat="42.76791" lon="-7.4524546">
        <time>2022-07-12T06:15:23Z</time>
      </trkpt>
      <trkpt lat="42.767963" lon="-7.4524927">
        <time>2022-07-12T06:15:28Z</time>
      </trkpt>
      <trkpt lat="42.76801" lon="-7.4525294">
        <time>2022-07-12T06:15:32Z</time>
      </trkpt>
      <trkpt lat="42.76805" lon="-7.4525633">
        <time>2022-07-12T06:15:36Z</time>
      </trkpt>
      <trkpt lat="42.7681" lon="-7.4525986">
        <time>2022-07-12T06:15:41Z</time>
      </trkpt>
      <trkpt lat="42.768147" lon="-7.4526277">
        <time>2022-07-12T06:15:45Z</time>
      </trkpt>
      <trkpt lat="42.768208" lon="-7.452659">
        <time>2022-07-12T06:15:50Z</time>
      </trkpt>
      <trkpt lat="42.768257" lon="-7.4526854">
        <time>2022-07-12T06:15:54Z</time>
      </trkpt>
      <trkpt lat="42.768307" lon="-7.45272">
        <time>2022-07-12T06:15:59Z</time>
      </trkpt>
      <trkpt lat="42.768353" lon="-7.4527335">
        <time>2022-07-12T06:16:02Z</time>
      </trkpt>
      <trkpt lat="42.768406" lon="-7.452766">
        <time>2022-07-12T06:16:07Z</time>
      </trkpt>
      <trkpt lat="42.76845" lon="-7.452796">
        <time>2022-07-12T06:16:11Z</time>
      </trkpt>
      <trkpt lat="42.768505" lon="-7.452831">
        <time>2022-07-12T06:16:16Z</time>
      </trkpt>
      <trkpt lat="42.768547" lon="-7.4528613">
        <time>2022-07-12T06:16:20Z</time>
      </trkpt>
      <trkpt lat="42.7686" lon="-7.452912">
        <time>2022-07-12T06:16:25Z</time>
      </trkpt>
      <trkpt lat="42.768642" lon="-7.452952">
        <time>2022-07-12T06:16:29Z</time>
      </trkpt>
      <trkpt lat="42.76869" lon="-7.4530063">
        <time>2022-07-12T06:16:34Z</time>
      </trkpt>
      <trkpt lat="42.768723" lon="-7.4530735">
        <time>2022-07-12T06:16:39Z</time>
      </trkpt>
      <trkpt lat="42.768753" lon="-7.4531307">
        <time>2022-07-12T06:16:43Z</time>
      </trkpt>
      <trkpt lat="42.768787" lon="-7.453196">
        <time>2022-07-12T06:16:48Z</time>
      </trkpt>
      <trkpt lat="42.768826" lon="-7.4532685">
        <time>2022-07-12T06:16:53Z</time>
      </trkpt>
      <trkpt lat="42.768856" lon="-7.4533253">
        <time>2022-07-12T06:16:57Z</time>
      </trkpt>
      <trkpt lat="42.76889" lon="-7.453379">
        <time>2022-07-12T06:17:01Z</time>
      </trkpt>
      <trkpt lat="42.76893" lon="-7.4534264">
        <time>2022-07-12T06:17:05Z</time>
      </trkpt>
      <trkpt lat="42.76897" lon="-7.453491">
        <time>2022-07-12T06:17:10Z</time>
      </trkpt>
      <trkpt lat="42.769005" lon="-7.453556">
        <time>2022-07-12T06:17:14Z</time>
      </trkpt>
      <trkpt lat="42.76903" lon="-7.453614">
        <time>2022-07-12T06:17:18Z</time>
      </trkpt>
      <trkpt lat="42.769062" lon="-7.4536724">
        <time>2022-07-12T06:17:22Z</time>
      </trkpt>
      <trkpt lat="42.7691" lon="-7.4537444">
        <time>2022-07-12T06:17:27Z</time>
      </trkpt>
      <trkpt lat="42.769127" lon="-7.453805">
        <time>2022-07-12T06:17:31Z</time>
      </trkpt>
      <trkpt lat="42.76915" lon="-7.453872">
        <time>2022-07-12T06:17:36Z</time>
      </trkpt>
      <trkpt lat="42.769173" lon="-7.4539366">
        <time>2022-07-12T06:17:40Z</time>
      </trkpt>
      <trkpt lat="42.769196" lon="-7.4540167">
        <time>2022-07-12T06:17:45Z</time>
      </trkpt>
      <trkpt lat="42.769222" lon="-7.454083">
        <time>2022-07-12T06:17:49Z</time>
      </trkpt>
      <trkpt lat="42.769253" lon="-7.45415">
        <time>2022-07-12T06:17:54Z</time>
      </trkpt>
      <trkpt lat="42.76927" lon="-7.4542117">
        <time>2022-07-12T06:17:58Z</time>
      </trkpt>
      <trkpt lat="42.769287" lon="-7.4542885">
        <time>2022-07-12T06:18:03Z</time>
      </trkpt>
      <trkpt lat="42.769302" lon="-7.454376">
        <time>2022-07-12T06:18:08Z</time>
      </trkpt>
      <trkpt lat="42.769318" lon="-7.4544525">
        <time>2022-07-12T06:18:13Z</time>
      </trkpt>
      <trkpt lat="42.769337" lon="-7.454521">
        <time>2022-07-12T06:18:18Z</time>
      </trkpt>
      <trkpt lat="42.76936" lon="-7.454608">
        <time>2022-07-12T06:18:23Z</time>
      </trkpt>
      <trkpt lat="42.769367" lon="-7.4546843">
        <time>2022-07-12T06:18:28Z</time>
      </trkpt>
      <trkpt lat="42.76937" lon="-7.4547515">
        <time>2022-07-12T06:18:32Z</time>
      </trkpt>
      <trkpt lat="42.769382" lon="-7.4548373">
        <time>2022-07-12T06:18:37Z</time>
      </trkpt>
      <trkpt lat="42.76938" lon="-7.4549055">
        <time>2022-07-12T06:18:41Z</time>
      </trkpt>
      <trkpt lat="42.76939" lon="-7.4549937">
        <time>2022-07-12T06:18:46Z</time>
      </trkpt>
      <trkpt lat="42.7694" lon="-7.455066">
        <time>2022-07-12T06:18:51Z</time>
      </trkpt>
      <trkpt lat="42.769417" lon="-7.455136">
        <time>2022-07-12T06:18:55Z</time>
      </trkpt>
      <trkpt lat="42.76942" lon="-7.4552045">
        <time>2022-07-12T06:18:59Z</time>
      </trkpt>
      <trkpt lat="42.76943" lon="-7.455283">
        <time>2022-07-12T06:19:03Z</time>
      </trkpt>
      <trkpt lat="42.769432" lon="-7.4553466">
        <time>2022-07-12T06:19:07Z</time>
      </trkpt>
      <trkpt lat="42.76944" lon="-7.455421">
        <time>2022-07-12T06:19:11Z</time>
      </trkpt>
      <trkpt lat="42.769455" lon="-7.455506">
        <time>2022-07-12T06:19:16Z</time>
      </trkpt>
      <trkpt lat="42.769463" lon="-7.4555798">
        <time>2022-07-12T06:19:19Z</time>
      </trkpt>
      <trkpt lat="42.769505" lon="-7.4556446">
        <time>2022-07-12T06:19:26Z</time>
      </trkpt>
      <trkpt lat="42.769524" lon="-7.4557014">
        <time>2022-07-12T06:19:30Z</time>
      </trkpt>
      <trkpt lat="42.76955" lon="-7.455764">
        <time>2022-07-12T06:19:35Z</time>
      </trkpt>
      <trkpt lat="42.76956" lon="-7.455846">
        <time>2022-07-12T06:19:40Z</time>
      </trkpt>
      <trkpt lat="42.76957" lon="-7.455908">
        <time>2022-07-12T06:19:44Z</time>
      </trkpt>
      <trkpt lat="42.76958" lon="-7.4559913">
        <time>2022-07-12T06:19:50Z</time>
      </trkpt>
      <trkpt lat="42.769573" lon="-7.4560738">
        <time>2022-07-12T06:19:56Z</time>
      </trkpt>
      <trkpt lat="42.769554" lon="-7.456141">
        <time>2022-07-12T06:20:00Z</time>
      </trkpt>
      <trkpt lat="42.76953" lon="-7.456206">
        <time>2022-07-12T06:20:04Z</time>
      </trkpt>
      <trkpt lat="42.769505" lon="-7.4562664">
        <time>2022-07-12T06:20:08Z</time>
      </trkpt>
      <trkpt lat="42.769474" lon="-7.456325">
        <time>2022-07-12T06:20:12Z</time>
      </trkpt>
      <trkpt lat="42.769436" lon="-7.4563866">
        <time>2022-07-12T06:20:16Z</time>
      </trkpt>
      <trkpt lat="42.769398" lon="-7.456441">
        <time>2022-07-12T06:20:20Z</time>
      </trkpt>
      <trkpt lat="42.769363" lon="-7.45649">
        <time>2022-07-12T06:20:24Z</time>
      </trkpt>
      <trkpt lat="42.76931" lon="-7.456533">
        <time>2022-07-12T06:20:29Z</time>
      </trkpt>
      <trkpt lat="42.76927" lon="-7.456577">
        <time>2022-07-12T06:20:33Z</time>
      </trkpt>
      <trkpt lat="42.769226" lon="-7.4566264">
        <time>2022-07-12T06:20:38Z</time>
      </trkpt>
      <trkpt lat="42.769184" lon="-7.4566684">
        <time>2022-07-12T06:20:43Z</time>
      </trkpt>
      <trkpt lat="42.769135" lon="-7.456715">
        <time>2022-07-12T06:20:48Z</time>
      </trkpt>
      <trkpt lat="42.76909" lon="-7.4567604">
        <time>2022-07-12T06:20:53Z</time>
      </trkpt>
      <trkpt lat="42.769047" lon="-7.4568095">
        <time>2022-07-12T06:20:58Z</time>
      </trkpt>
      <trkpt lat="42.769005" lon="-7.456856">
        <time>2022-07-12T06:21:02Z</time>
      </trkpt>
      <trkpt lat="42.768963" lon="-7.456897">
        <time>2022-07-12T06:21:06Z</time>
      </trkpt>
      <trkpt lat="42.76893" lon="-7.4569497">
        <time>2022-07-12T06:21:11Z</time>
      </trkpt>
      <trkpt lat="42.768894" lon="-7.4570184">
        <time>2022-07-12T06:21:17Z</time>
      </trkpt>
      <trkpt lat="42.768864" lon="-7.457084">
        <time>2022-07-12T06:21:22Z</time>
      </trkpt>
      <trkpt lat="42.768833" lon="-7.4571567">
        <time>2022-07-12T06:21:27Z</time>
      </trkpt>
      <trkpt lat="42.768806" lon="-7.45723">
        <time>2022-07-12T06:21:31Z</time>
      </trkpt>
      <trkpt lat="42.768784" lon="-7.4572988">
        <time>2022-07-12T06:21:35Z</time>
      </trkpt>
      <trkpt lat="42.76877" lon="-7.4573717">
        <time>2022-07-12T06:21:39Z</time>
      </trkpt>
      <trkpt lat="42.768753" lon="-7.457428">
        <time>2022-07-12T06:21:43Z</time>
      </trkpt>
      <trkpt lat="42.768723" lon="-7.457492">
        <time>2022-07-12T06:21:48Z</time>
      </trkpt>
      <trkpt lat="42.76868" lon="-7.4575486">
        <time>2022-07-12T06:21:53Z</time>
      </trkpt>
      <trkpt lat="42.768646" lon="-7.4575934">
        <time>2022-07-12T06:21:57Z</time>
      </trkpt>
      <trkpt lat="42.768616" lon="-7.4576683">
        <time>2022-07-12T06:22:03Z</time>
      </trkpt>
      <trkpt lat="42.768597" lon="-7.457746">
        <time>2022-07-12T06:22:07Z</time>
      </trkpt>
      <trkpt lat="42.768574" lon="-7.4578094">
        <time>2022-07-12T06:22:11Z</time>
      </trkpt>
      <trkpt lat="42.76854" lon="-7.4578834">
        <time>2022-07-12T06:22:15Z</time>
      </trkpt>
      <trkpt lat="42.768505" lon="-7.457954">
        <time>2022-07-12T06:22:19Z</time>
      </trkpt>
      <trkpt lat="42.768475" lon="-7.4580126">
        <time>2022-07-12T06:22:23Z</time>
      </trkpt>
      <trkpt lat="42.768456" lon="-7.4580855">
        <time>2022-07-12T06:22:27Z</time>
      </trkpt>
      <trkpt lat="42.768436" lon="-7.4581428">
        <time>2022-07-12T06:22:31Z</time>
      </trkpt>
      <trkpt lat="42.76842" lon="-7.458217">
        <time>2022-07-12T06:22:36Z</time>
      </trkpt>
      <trkpt lat="42.7684" lon="-7.458291">
        <time>2022-07-12T06:22:42Z</time>
      </trkpt>
      <trkpt lat="42.76837" lon="-7.458351">
        <time>2022-07-12T06:22:46Z</time>
      </trkpt>
      <trkpt lat="42.76834" lon="-7.4584117">
        <time>2022-07-12T06:22:50Z</time>
      </trkpt>
      <trkpt lat="42.768307" lon="-7.458468">
        <time>2022-07-12T06:22:54Z</time>
      </trkpt>
      <trkpt lat="42.768276" lon="-7.4585376">
        <time>2022-07-12T06:22:58Z</time>
      </trkpt>
      <trkpt lat="42.76825" lon="-7.4586005">
        <time>2022-07-12T06:23:02Z</time>
      </trkpt>
      <trkpt lat="42.76822" lon="-7.4586763">
        <time>2022-07-12T06:23:07Z</time>
      </trkpt>
      <trkpt lat="42.768196" lon="-7.4587464">
        <time>2022-07-12T06:23:11Z</time>
      </trkpt>
      <trkpt lat="42.768154" lon="-7.4588137">
        <time>2022-07-12T06:23:15Z</time>
      </trkpt>
      <trkpt lat="42.76811" lon="-7.4588623">
        <time>2022-07-12T06:23:19Z</time>
      </trkpt>
      <trkpt lat="42.768066" lon="-7.458917">
        <time>2022-07-12T06:23:24Z</time>
      </trkpt>
      <trkpt lat="42.768055" lon="-7.458984">
        <time>2022-07-12T06:23:28Z</time>
      </trkpt>
      <trkpt lat="42.768074" lon="-7.459059">
        <time>2022-07-12T06:23:32Z</time>
      </trkpt>
      <trkpt lat="42.7681" lon="-7.459119">
        <time>2022-07-12T06:23:36Z</time>
      </trkpt>
      <trkpt lat="42.768124" lon="-7.459185">
        <time>2022-07-12T06:23:40Z</time>
      </trkpt>
      <trkpt lat="42.768147" lon="-7.4592533">
        <time>2022-07-12T06:23:44Z</time>
      </trkpt>
      <trkpt lat="42.768177" lon="-7.4593234">
        <time>2022-07-12T06:23:48Z</time>
      </trkpt>
      <trkpt lat="42.76822" lon="-7.459363">
        <time>2022-07-12T06:23:52Z</time>
      </trkpt>
      <trkpt lat="42.76826" lon="-7.4593964">
        <time>2022-07-12T06:23:56Z</time>
      </trkpt>
      <trkpt lat="42.768314" lon="-7.459448">
        <time>2022-07-12T06:24:01Z</time>
      </trkpt>
      <trkpt lat="42.768364" lon="-7.4594865">
        <time>2022-07-12T06:24:05Z</time>
      </trkpt>
      <trkpt lat="42.76841" lon="-7.459514">
        <time>2022-07-12T06:24:09Z</time>
      </trkpt>
      <trkpt lat="42.76846" lon="-7.4595537">
        <time>2022-07-12T06:24:14Z</time>
      </trkpt>
      <trkpt lat="42.768513" lon="-7.459583">
        <time>2022-07-12T06:24:18Z</time>
      </trkpt>
      <trkpt lat="42.768562" lon="-7.459617">
        <time>2022-07-12T06:24:22Z</time>
      </trkpt>
      <trkpt lat="42.768604" lon="-7.459649">
        <time>2022-07-12T06:24:27Z</time>
      </trkpt>
      <trkpt lat="42.768665" lon="-7.4597096">
        <time>2022-07-12T06:24:33Z</time>
      </trkpt>
      <trkpt lat="42.7687" lon="-7.459778">
        <time>2022-07-12T06:24:38Z</time>
      </trkpt>
      <trkpt lat="42.76873" lon="-7.459854">
        <time>2022-07-12T06:24:43Z</time>
      </trkpt>
      <trkpt lat="42.768757" lon="-7.4599323">
        <time>2022-07-12T06:24:48Z</time>
      </trkpt>
      <trkpt lat="42.768787" lon="-7.459995">
        <time>2022-07-12T06:24:52Z</time>
      </trkpt>
      <trkpt lat="42.768814" lon="-7.4600616">
        <time>2022-07-12T06:24:57Z</time>
      </trkpt>
      <trkpt lat="42.76884" lon="-7.460113">
        <time>2022-07-12T06:25:01Z</time>
      </trkpt>
      <trkpt lat="42.768875" lon="-7.460182">
        <time>2022-07-12T06:25:07Z</time>
      </trkpt>
      <trkpt lat="42.7689" lon="-7.460243">
        <time>2022-07-12T06:25:11Z</time>
      </trkpt>
      <trkpt lat="42.76892" lon="-7.460305">
        <time>2022-07-12T06:25:15Z</time>
      </trkpt>
      <trkpt lat="42.768936" lon="-7.4603767">
        <time>2022-07-12T06:25:20Z</time>
      </trkpt>
      <trkpt lat="42.76895" lon="-7.4604616">
        <time>2022-07-12T06:25:25Z</time>
      </trkpt>
      <trkpt lat="42.768963" lon="-7.4605374">
        <time>2022-07-12T06:25:29Z</time>
      </trkpt>
      <trkpt lat="42.768986" lon="-7.460615">
        <time>2022-07-12T06:25:33Z</time>
      </trkpt>
      <trkpt lat="42.769012" lon="-7.460685">
        <time>2022-07-12T06:25:37Z</time>
      </trkpt>
      <trkpt lat="42.769043" lon="-7.460746">
        <time>2022-07-12T06:25:41Z</time>
      </trkpt>
      <trkpt lat="42.76908" lon="-7.460788">
        <time>2022-07-12T06:25:44Z</time>
      </trkpt>
      <trkpt lat="42.769115" lon="-7.4608455">
        <time>2022-07-12T06:25:47Z</time>
      </trkpt>
      <trkpt lat="42.76914" lon="-7.4609237">
        <time>2022-07-12T06:25:51Z</time>
      </trkpt>
      <trkpt lat="42.769157" lon="-7.460987">
        <time>2022-07-12T06:25:55Z</time>
      </trkpt>
      <trkpt lat="42.76917" lon="-7.46107">
        <time>2022-07-12T06:26:00Z</time>
      </trkpt>
      <trkpt lat="42.76917" lon="-7.4611454">
        <time>2022-07-12T06:26:05Z</time>
      </trkpt>
      <trkpt lat="42.769165" lon="-7.461234">
        <time>2022-07-12T06:26:10Z</time>
      </trkpt>
      <trkpt lat="42.769157" lon="-7.461303">
        <time>2022-07-12T06:26:14Z</time>
      </trkpt>
      <trkpt lat="42.769154" lon="-7.461376">
        <time>2022-07-12T06:26:18Z</time>
      </trkpt>
      <trkpt lat="42.769154" lon="-7.4614477">
        <time>2022-07-12T06:26:22Z</time>
      </trkpt>
      <trkpt lat="42.769146" lon="-7.461538">
        <time>2022-07-12T06:26:27Z</time>
      </trkpt>
      <trkpt lat="42.769154" lon="-7.461612">
        <time>2022-07-12T06:26:31Z</time>
      </trkpt>
      <trkpt lat="42.76916" lon="-7.4616804">
        <time>2022-07-12T06:26:35Z</time>
      </trkpt>
      <trkpt lat="42.769176" lon="-7.4617505">
        <time>2022-07-12T06:26:39Z</time>
      </trkpt>
      <trkpt lat="42.76919" lon="-7.4618225">
        <time>2022-07-12T06:26:43Z</time>
      </trkpt>
      <trkpt lat="42.7692" lon="-7.461889">
        <time>2022-07-12T06:26:47Z</time>
      </trkpt>
      <trkpt lat="42.769215" lon="-7.461961">
        <time>2022-07-12T06:26:51Z</time>
      </trkpt>
      <trkpt lat="42.76923" lon="-7.4620414">
        <time>2022-07-12T06:26:56Z</time>
      </trkpt>
      <trkpt lat="42.769245" lon="-7.4621143">
        <time>2022-07-12T06:27:00Z</time>
      </trkpt>
      <trkpt lat="42.769264" lon="-7.4621825">
        <time>2022-07-12T06:27:04Z</time>
      </trkpt>
      <trkpt lat="42.769283" lon="-7.4622626">
        <time>2022-07-12T06:27:09Z</time>
      </trkpt>
      <trkpt lat="42.769306" lon="-7.4623365">
        <time>2022-07-12T06:27:14Z</time>
      </trkpt>
      <trkpt lat="42.76932" lon="-7.462396">
        <time>2022-07-12T06:27:18Z</time>
      </trkpt>
      <trkpt lat="42.769344" lon="-7.4624715">
        <time>2022-07-12T06:27:23Z</time>
      </trkpt>
      <trkpt lat="42.769367" lon="-7.4625387">
        <time>2022-07-12T06:27:27Z</time>
      </trkpt>
      <trkpt lat="42.769382" lon="-7.462597">
        <time>2022-07-12T06:27:31Z</time>
      </trkpt>
      <trkpt lat="42.769382" lon="-7.462668">
        <time>2022-07-12T06:27:36Z</time>
      </trkpt>
      <trkpt lat="42.76937" lon="-7.462741">
        <time>2022-07-12T06:27:41Z</time>
      </trkpt>
      <trkpt lat="42.769356" lon="-7.462813">
        <time>2022-07-12T06:27:46Z</time>
      </trkpt>
      <trkpt lat="42.769333" lon="-7.462875">
        <time>2022-07-12T06:27:52Z</time>
      </trkpt>
      <trkpt lat="42.769295" lon="-7.4629416">
        <time>2022-07-12T06:27:57Z</time>
      </trkpt>
      <trkpt lat="42.76927" lon="-7.4629965">
        <time>2022-07-12T06:28:01Z</time>
      </trkpt>
      <trkpt lat="42.76926" lon="-7.4630675">
        <time>2022-07-12T06:28:07Z</time>
      </trkpt>
      <trkpt lat="42.769257" lon="-7.463138">
        <time>2022-07-12T06:28:12Z</time>
      </trkpt>
      <trkpt lat="42.76926" lon="-7.4632263">
        <time>2022-07-12T06:28:17Z</time>
      </trkpt>
      <trkpt lat="42.769268" lon="-7.4633126">
        <time>2022-07-12T06:28:22Z</time>
      </trkpt>
      <trkpt lat="42.769287" lon="-7.4633875">
        <time>2022-07-12T06:28:27Z</time>
      </trkpt>
      <trkpt lat="42.769302" lon="-7.4634466">
        <time>2022-07-12T06:28:31Z</time>
      </trkpt>
      <trkpt lat="42.769344" lon="-7.4634976">
        <time>2022-07-12T06:28:36Z</time>
      </trkpt>
      <trkpt lat="42.76939" lon="-7.4635377">
        <time>2022-07-12T06:28:41Z</time>
      </trkpt>
      <trkpt lat="42.769444" lon="-7.4635787">
        <time>2022-07-12T06:28:46Z</time>
      </trkpt>
      <trkpt lat="42.769485" lon="-7.4636154">
        <time>2022-07-12T06:28:50Z</time>
      </trkpt>
      <trkpt lat="42.769524" lon="-7.4636593">
        <time>2022-07-12T06:28:54Z</time>
      </trkpt>
      <trkpt lat="42.769558" lon="-7.463716">
        <time>2022-07-12T06:28:58Z</time>
      </trkpt>
      <trkpt lat="42.76958" lon="-7.4637723">
        <time>2022-07-12T06:29:02Z</time>
      </trkpt>
      <trkpt lat="42.769608" lon="-7.4638395">
        <time>2022-07-12T06:29:07Z</time>
      </trkpt>
      <trkpt lat="42.769634" lon="-7.463917">
        <time>2022-07-12T06:29:13Z</time>
      </trkpt>
      <trkpt lat="42.76965" lon="-7.463997">
        <time>2022-07-12T06:29:17Z</time>
      </trkpt>
      <trkpt lat="42.76966" lon="-7.464066">
        <time>2022-07-12T06:29:21Z</time>
      </trkpt>
      <trkpt lat="42.76967" lon="-7.4641294">
        <time>2022-07-12T06:29:25Z</time>
      </trkpt>
      <trkpt lat="42.769676" lon="-7.4642005">
        <time>2022-07-12T06:29:31Z</time>
      </trkpt>
      <trkpt lat="42.76967" lon="-7.4642873">
        <time>2022-07-12T06:29:36Z</time>
      </trkpt>
      <trkpt lat="42.769676" lon="-7.4643483">
        <time>2022-07-12T06:29:40Z</time>
      </trkpt>
      <trkpt lat="42.769676" lon="-7.4644237">
        <time>2022-07-12T06:29:44Z</time>
      </trkpt>
      <trkpt lat="42.76968" lon="-7.464496">
        <time>2022-07-12T06:29:48Z</time>
      </trkpt>
      <trkpt lat="42.769684" lon="-7.46458">
        <time>2022-07-12T06:29:53Z</time>
      </trkpt>
      <trkpt lat="42.769676" lon="-7.464657">
        <time>2022-07-12T06:29:57Z</time>
      </trkpt>
      <trkpt lat="42.769684" lon="-7.4647207">
        <time>2022-07-12T06:30:01Z</time>
      </trkpt>
      <trkpt lat="42.76969" lon="-7.4648046">
        <time>2022-07-12T06:30:06Z</time>
      </trkpt>
      <trkpt lat="42.7697" lon="-7.4648685">
        <time>2022-07-12T06:30:10Z</time>
      </trkpt>
      <trkpt lat="42.769714" lon="-7.4649553">
        <time>2022-07-12T06:30:15Z</time>
      </trkpt>
      <trkpt lat="42.769733" lon="-7.465016">
        <time>2022-07-12T06:30:19Z</time>
      </trkpt>
      <trkpt lat="42.769783" lon="-7.4650764">
        <time>2022-07-12T06:30:24Z</time>
      </trkpt>
      <trkpt lat="42.769833" lon="-7.465119">
        <time>2022-07-12T06:30:28Z</time>
      </trkpt>
      <trkpt lat="42.76988" lon="-7.4651585">
        <time>2022-07-12T06:30:32Z</time>
      </trkpt>
      <trkpt lat="42.769924" lon="-7.465218">
        <time>2022-07-12T06:30:37Z</time>
      </trkpt>
      <trkpt lat="42.76997" lon="-7.465265">
        <time>2022-07-12T06:30:41Z</time>
      </trkpt>
      <trkpt lat="42.770008" lon="-7.465327">
        <time>2022-07-12T06:30:46Z</time>
      </trkpt>
      <trkpt lat="42.770027" lon="-7.465402">
        <time>2022-07-12T06:30:51Z</time>
      </trkpt>
      <trkpt lat="42.770042" lon="-7.4654727">
        <time>2022-07-12T06:30:55Z</time>
      </trkpt>
      <trkpt lat="42.770058" lon="-7.4655423">
        <time>2022-07-12T06:31:00Z</time>
      </trkpt>
      <trkpt lat="42.770073" lon="-7.465606">
        <time>2022-07-12T06:31:04Z</time>
      </trkpt>
      <trkpt lat="42.770077" lon="-7.465694">
        <time>2022-07-12T06:31:09Z</time>
      </trkpt>
      <trkpt lat="42.770073" lon="-7.4657664">
        <time>2022-07-12T06:31:13Z</time>
      </trkpt>
      <trkpt lat="42.77008" lon="-7.4658494">
        <time>2022-07-12T06:31:18Z</time>
      </trkpt>
      <trkpt lat="42.77008" lon="-7.465924">
        <time>2022-07-12T06:31:22Z</time>
      </trkpt>
      <trkpt lat="42.77009" lon="-7.4659944">
        <time>2022-07-12T06:31:26Z</time>
      </trkpt>
      <trkpt lat="42.770103" lon="-7.4660635">
        <time>2022-07-12T06:31:30Z</time>
      </trkpt>
      <trkpt lat="42.770115" lon="-7.466141">
        <time>2022-07-12T06:31:35Z</time>
      </trkpt>
      <trkpt lat="42.770126" lon="-7.4662056">
        <time>2022-07-12T06:31:39Z</time>
      </trkpt>
      <trkpt lat="42.77014" lon="-7.466289">
        <time>2022-07-12T06:31:44Z</time>
      </trkpt>
      <trkpt lat="42.770153" lon="-7.4663644">
        <time>2022-07-12T06:31:48Z</time>
      </trkpt>
      <trkpt lat="42.770172" lon="-7.466427">
        <time>2022-07-12T06:31:52Z</time>
      </trkpt>
      <trkpt lat="42.77021" lon="-7.466484">
        <time>2022-07-12T06:31:56Z</time>
      </trkpt>
      <trkpt lat="42.770256" lon="-7.4665265">
        <time>2022-07-12T06:32:00Z</time>
      </trkpt>
      <trkpt lat="42.77031" lon="-7.466561">
        <time>2022-07-12T06:32:04Z</time>
      </trkpt>
      <trkpt lat="42.77038" lon="-7.466595">
        <time>2022-07-12T06:32:08Z</time>
      </trkpt>
      <trkpt lat="42.77042" lon="-7.4666133">
        <time>2022-07-12T06:32:11Z</time>
      </trkpt>
      <trkpt lat="42.77047" lon="-7.4666257">
        <time>2022-07-12T06:32:15Z</time>
      </trkpt>
      <trkpt lat="42.770535" lon="-7.4666476">
        <time>2022-07-12T06:32:20Z</time>
      </trkpt>
      <trkpt lat="42.770588" lon="-7.4666677">
        <time>2022-07-12T06:32:24Z</time>
      </trkpt>
      <trkpt lat="42.770645" lon="-7.466687">
        <time>2022-07-12T06:32:29Z</time>
      </trkpt>
      <trkpt lat="42.7707" lon="-7.466702">
        <time>2022-07-12T06:32:33Z</time>
      </trkpt>
      <trkpt lat="42.77075" lon="-7.466719">
        <time>2022-07-12T06:32:37Z</time>
      </trkpt>
      <trkpt lat="42.7708" lon="-7.4667435">
        <time>2022-07-12T06:32:42Z</time>
      </trkpt>
      <trkpt lat="42.770847" lon="-7.4667745">
        <time>2022-07-12T06:32:46Z</time>
      </trkpt>
      <trkpt lat="42.770866" lon="-7.4668546">
        <time>2022-07-12T06:32:56Z</time>
      </trkpt>
      <trkpt lat="42.770874" lon="-7.4669294">
        <time>2022-07-12T06:33:01Z</time>
      </trkpt>
      <trkpt lat="42.770905" lon="-7.4670005">
        <time>2022-07-12T06:33:06Z</time>
      </trkpt>
      <trkpt lat="42.770943" lon="-7.467059">
        <time>2022-07-12T06:33:11Z</time>
      </trkpt>
      <trkpt lat="42.770966" lon="-7.467115">
        <time>2022-07-12T06:33:15Z</time>
      </trkpt>
      <trkpt lat="42.771" lon="-7.467179">
        <time>2022-07-12T06:33:20Z</time>
      </trkpt>
      <trkpt lat="42.771034" lon="-7.467238">
        <time>2022-07-12T06:33:24Z</time>
      </trkpt>
      <trkpt lat="42.771076" lon="-7.4673033">
        <time>2022-07-12T06:33:28Z</time>
      </trkpt>
      <trkpt lat="42.771114" lon="-7.467345">
        <time>2022-07-12T06:33:32Z</time>
      </trkpt>
      <trkpt lat="42.771168" lon="-7.4673448">
        <time>2022-07-12T06:33:36Z</time>
      </trkpt>
      <trkpt lat="42.771225" lon="-7.4673266">
        <time>2022-07-12T06:33:40Z</time>
      </trkpt>
      <trkpt lat="42.77127" lon="-7.467302">
        <time>2022-07-12T06:33:43Z</time>
      </trkpt>
      <trkpt lat="42.771328" lon="-7.4672747">
        <time>2022-07-12T06:33:47Z</time>
      </trkpt>
      <trkpt lat="42.771378" lon="-7.4672446">
        <time>2022-07-12T06:33:51Z</time>
      </trkpt>
      <trkpt lat="42.77142" lon="-7.467212">
        <time>2022-07-12T06:33:55Z</time>
      </trkpt>
      <trkpt lat="42.771477" lon="-7.467191">
        <time>2022-07-12T06:34:00Z</time>
      </trkpt>
      <trkpt lat="42.77153" lon="-7.4671917">
        <time>2022-07-12T06:34:04Z</time>
      </trkpt>
      <trkpt lat="42.77158" lon="-7.467222">
        <time>2022-07-12T06:34:09Z</time>
      </trkpt>
      <trkpt lat="42.77162" lon="-7.467255">
        <time>2022-07-12T06:34:14Z</time>
      </trkpt>
      <trkpt lat="42.771725" lon="-7.467424">
        <time>2022-07-12T06:34:44Z</time>
      </trkpt>
      <trkpt lat="42.771763" lon="-7.467479">
        <time>2022-07-12T06:34:50Z</time>
      </trkpt>
      <trkpt lat="42.77181" lon="-7.467528">
        <time>2022-07-12T06:34:55Z</time>
      </trkpt>
      <trkpt lat="42.77185" lon="-7.467585">
        <time>2022-07-12T06:34:59Z</time>
      </trkpt>
      <trkpt lat="42.771896" lon="-7.4676476">
        <time>2022-07-12T06:35:03Z</time>
      </trkpt>
      <trkpt lat="42.77194" lon="-7.467698">
        <time>2022-07-12T06:35:07Z</time>
      </trkpt>
      <trkpt lat="42.771984" lon="-7.467727">
        <time>2022-07-12T06:35:10Z</time>
      </trkpt>
      <trkpt lat="42.772022" lon="-7.467777">
        <time>2022-07-12T06:35:14Z</time>
      </trkpt>
      <trkpt lat="42.772053" lon="-7.4678235">
        <time>2022-07-12T06:35:18Z</time>
      </trkpt>
      <trkpt lat="42.772102" lon="-7.4678855">
        <time>2022-07-12T06:35:23Z</time>
      </trkpt>
      <trkpt lat="42.772152" lon="-7.46792">
        <time>2022-07-12T06:35:27Z</time>
      </trkpt>
      <trkpt lat="42.7722" lon="-7.467962">
        <time>2022-07-12T06:35:32Z</time>
      </trkpt>
      <trkpt lat="42.772255" lon="-7.468003">
        <time>2022-07-12T06:35:38Z</time>
      </trkpt>
      <trkpt lat="42.772297" lon="-7.4680443">
        <time>2022-07-12T06:35:42Z</time>
      </trkpt>
      <trkpt lat="42.772343" lon="-7.4681005">
        <time>2022-07-12T06:35:46Z</time>
      </trkpt>
      <trkpt lat="42.77238" lon="-7.468163">
        <time>2022-07-12T06:35:50Z</time>
      </trkpt>
      <trkpt lat="42.77241" lon="-7.468209">
        <time>2022-07-12T06:35:53Z</time>
      </trkpt>
      <trkpt lat="42.772453" lon="-7.468262">
        <time>2022-07-12T06:35:57Z</time>
      </trkpt>
      <trkpt lat="42.772488" lon="-7.4683084">
        <time>2022-07-12T06:36:01Z</time>
      </trkpt>
      <trkpt lat="42.772526" lon="-7.4683633">
        <time>2022-07-12T06:36:06Z</time>
      </trkpt>
      <trkpt lat="42.772575" lon="-7.468384">
        <time>2022-07-12T06:36:10Z</time>
      </trkpt>
      <trkpt lat="42.772617" lon="-7.468445">
        <time>2022-07-12T06:36:16Z</time>
      </trkpt>
      <trkpt lat="42.772663" lon="-7.4684873">
        <time>2022-07-12T06:36:20Z</time>
      </trkpt>
      <trkpt lat="42.772717" lon="-7.4685483">
        <time>2022-07-12T06:36:24Z</time>
      </trkpt>
      <trkpt lat="42.772755" lon="-7.4685903">
        <time>2022-07-12T06:36:27Z</time>
      </trkpt>
      <trkpt lat="42.772793" lon="-7.4686513">
        <time>2022-07-12T06:36:31Z</time>
      </trkpt>
      <trkpt lat="42.77283" lon="-7.468703">
        <time>2022-07-12T06:36:35Z</time>
      </trkpt>
      <trkpt lat="42.772877" lon="-7.4687448">
        <time>2022-07-12T06:36:39Z</time>
      </trkpt>
      <trkpt lat="42.772926" lon="-7.468783">
        <time>2022-07-12T06:36:43Z</time>
      </trkpt>
      <trkpt lat="42.772972" lon="-7.4688296">
        <time>2022-07-12T06:36:47Z</time>
      </trkpt>
      <trkpt lat="42.773006" lon="-7.4688945">
        <time>2022-07-12T06:36:52Z</time>
      </trkpt>
      <trkpt lat="42.77305" lon="-7.4689493">
        <time>2022-07-12T06:36:56Z</time>
      </trkpt>
      <trkpt lat="42.773094" lon="-7.469012">
        <time>2022-07-12T06:37:00Z</time>
      </trkpt>
      <trkpt lat="42.77313" lon="-7.469063">
        <time>2022-07-12T06:37:04Z</time>
      </trkpt>
      <trkpt lat="42.773174" lon="-7.4691257">
        <time>2022-07-12T06:37:09Z</time>
      </trkpt>
      <trkpt lat="42.773205" lon="-7.4692">
        <time>2022-07-12T06:37:13Z</time>
      </trkpt>
      <trkpt lat="42.77323" lon="-7.469258">
        <time>2022-07-12T06:37:17Z</time>
      </trkpt>
      <trkpt lat="42.773266" lon="-7.4693255">
        <time>2022-07-12T06:37:22Z</time>
      </trkpt>
      <trkpt lat="42.773285" lon="-7.469397">
        <time>2022-07-12T06:37:26Z</time>
      </trkpt>
      <trkpt lat="42.773308" lon="-7.4694705">
        <time>2022-07-12T06:37:31Z</time>
      </trkpt>
      <trkpt lat="42.77333" lon="-7.4695263">
        <time>2022-07-12T06:37:35Z</time>
      </trkpt>
      <trkpt lat="42.773373" lon="-7.4696">
        <time>2022-07-12T06:37:40Z</time>
      </trkpt>
      <trkpt lat="42.773407" lon="-7.4696574">
        <time>2022-07-12T06:37:44Z</time>
      </trkpt>
      <trkpt lat="42.77344" lon="-7.469719">
        <time>2022-07-12T06:37:49Z</time>
      </trkpt>
      <trkpt lat="42.773476" lon="-7.469793">
        <time>2022-07-12T06:37:54Z</time>
      </trkpt>
      <trkpt lat="42.773506" lon="-7.46985">
        <time>2022-07-12T06:37:58Z</time>
      </trkpt>
      <trkpt lat="42.773544" lon="-7.4699044">
        <time>2022-07-12T06:38:03Z</time>
      </trkpt>
      <trkpt lat="42.77359" lon="-7.469953">
        <time>2022-07-12T06:38:08Z</time>
      </trkpt>
      <trkpt lat="42.773636" lon="-7.469999">
        <time>2022-07-12T06:38:12Z</time>
      </trkpt>
      <trkpt lat="42.77368" lon="-7.4700327">
        <time>2022-07-12T06:38:16Z</time>
      </trkpt>
      <trkpt lat="42.77372" lon="-7.4700828">
        <time>2022-07-12T06:38:20Z</time>
      </trkpt>
      <trkpt lat="42.773754" lon="-7.47014">
        <time>2022-07-12T06:38:24Z</time>
      </trkpt>
      <trkpt lat="42.773785" lon="-7.4702063">
        <time>2022-07-12T06:38:28Z</time>
      </trkpt>
      <trkpt lat="42.773815" lon="-7.470259">
        <time>2022-07-12T06:38:32Z</time>
      </trkpt>
      <trkpt lat="42.773857" lon="-7.470324">
        <time>2022-07-12T06:38:38Z</time>
      </trkpt>
      <trkpt lat="42.77389" lon="-7.4703755">
        <time>2022-07-12T06:38:41Z</time>
      </trkpt>
      <trkpt lat="42.77393" lon="-7.4704223">
        <time>2022-07-12T06:38:45Z</time>
      </trkpt>
      <trkpt lat="42.773968" lon="-7.4704766">
        <time>2022-07-12T06:38:50Z</time>
      </trkpt>
      <trkpt lat="42.774006" lon="-7.470529">
        <time>2022-07-12T06:38:54Z</time>
      </trkpt>
      <trkpt lat="42.77404" lon="-7.4705915">
        <time>2022-07-12T06:38:58Z</time>
      </trkpt>
      <trkpt lat="42.774067" lon="-7.4706535">
        <time>2022-07-12T06:39:02Z</time>
      </trkpt>
      <trkpt lat="42.7741" lon="-7.470716">
        <time>2022-07-12T06:39:06Z</time>
      </trkpt>
      <trkpt lat="42.774124" lon="-7.470774">
        <time>2022-07-12T06:39:10Z</time>
      </trkpt>
      <trkpt lat="42.77416" lon="-7.470847">
        <time>2022-07-12T06:39:15Z</time>
      </trkpt>
      <trkpt lat="42.7742" lon="-7.470894">
        <time>2022-07-12T06:39:19Z</time>
      </trkpt>
      <trkpt lat="42.774246" lon="-7.4709415">
        <time>2022-07-12T06:39:23Z</time>
      </trkpt>
      <trkpt lat="42.77429" lon="-7.4709854">
        <time>2022-07-12T06:39:27Z</time>
      </trkpt>
      <trkpt lat="42.774338" lon="-7.4710274">
        <time>2022-07-12T06:39:32Z</time>
      </trkpt>
      <trkpt lat="42.77439" lon="-7.471077">
        <time>2022-07-12T06:39:37Z</time>
      </trkpt>
      <trkpt lat="42.77444" lon="-7.471119">
        <time>2022-07-12T06:39:41Z</time>
      </trkpt>
      <trkpt lat="42.774498" lon="-7.4711623">
        <time>2022-07-12T06:39:45Z</time>
      </trkpt>
      <trkpt lat="42.77454" lon="-7.4711957">
        <time>2022-07-12T06:39:48Z</time>
      </trkpt>
      <trkpt lat="42.77459" lon="-7.4712343">
        <time>2022-07-12T06:39:52Z</time>
      </trkpt>
      <trkpt lat="42.774647" lon="-7.4712877">
        <time>2022-07-12T06:39:57Z</time>
      </trkpt>
      <trkpt lat="42.774685" lon="-7.471326">
        <time>2022-07-12T06:40:01Z</time>
      </trkpt>
      <trkpt lat="42.774727" lon="-7.471389">
        <time>2022-07-12T06:40:07Z</time>
      </trkpt>
      <trkpt lat="42.774765" lon="-7.471462">
        <time>2022-07-12T06:40:12Z</time>
      </trkpt>
      <trkpt lat="42.774796" lon="-7.4715247">
        <time>2022-07-12T06:40:16Z</time>
      </trkpt>
      <trkpt lat="42.774834" lon="-7.471581">
        <time>2022-07-12T06:40:20Z</time>
      </trkpt>
      <trkpt lat="42.774868" lon="-7.4716334">
        <time>2022-07-12T06:40:24Z</time>
      </trkpt>
      <trkpt lat="42.774895" lon="-7.4716907">
        <time>2022-07-12T06:40:28Z</time>
      </trkpt>
      <trkpt lat="42.774937" lon="-7.4717574">
        <time>2022-07-12T06:40:33Z</time>
      </trkpt>
      <trkpt lat="42.77497" lon="-7.4718146">
        <time>2022-07-12T06:40:38Z</time>
      </trkpt>
      <trkpt lat="42.774982" lon="-7.4718795">
        <time>2022-07-12T06:40:43Z</time>
      </trkpt>
      <trkpt lat="42.77497" lon="-7.47197">
        <time>2022-07-12T06:40:48Z</time>
      </trkpt>
      <trkpt lat="42.77496" lon="-7.4720383">
        <time>2022-07-12T06:40:52Z</time>
      </trkpt>
      <trkpt lat="42.77494" lon="-7.4721203">
        <time>2022-07-12T06:40:57Z</time>
      </trkpt>
      <trkpt lat="42.77492" lon="-7.472201">
        <time>2022-07-12T06:41:02Z</time>
      </trkpt>
      <trkpt lat="42.774906" lon="-7.4722667">
        <time>2022-07-12T06:41:06Z</time>
      </trkpt>
      <trkpt lat="42.774887" lon="-7.472352">
        <time>2022-07-12T06:41:11Z</time>
      </trkpt>
      <trkpt lat="42.774864" lon="-7.4724216">
        <time>2022-07-12T06:41:15Z</time>
      </trkpt>
      <trkpt lat="42.77484" lon="-7.4724874">
        <time>2022-07-12T06:41:19Z</time>
      </trkpt>
      <trkpt lat="42.774822" lon="-7.4725637">
        <time>2022-07-12T06:41:23Z</time>
      </trkpt>
      <trkpt lat="42.774803" lon="-7.472633">
        <time>2022-07-12T06:41:27Z</time>
      </trkpt>
      <trkpt lat="42.77478" lon="-7.4727044">
        <time>2022-07-12T06:41:32Z</time>
      </trkpt>
      <trkpt lat="42.77476" lon="-7.4727774">
        <time>2022-07-12T06:41:36Z</time>
      </trkpt>
      <trkpt lat="42.774734" lon="-7.472853">
        <time>2022-07-12T06:41:40Z</time>
      </trkpt>
      <trkpt lat="42.77471" lon="-7.4729333">
        <time>2022-07-12T06:41:44Z</time>
      </trkpt>
      <trkpt lat="42.7747" lon="-7.473007">
        <time>2022-07-12T06:41:48Z</time>
      </trkpt>
      <trkpt lat="42.774693" lon="-7.4730725">
        <time>2022-07-12T06:41:52Z</time>
      </trkpt>
      <trkpt lat="42.774673" lon="-7.4731464">
        <time>2022-07-12T06:41:57Z</time>
      </trkpt>
      <trkpt lat="42.774654" lon="-7.473207">
        <time>2022-07-12T06:42:01Z</time>
      </trkpt>
      <trkpt lat="42.77464" lon="-7.4732785">
        <time>2022-07-12T06:42:05Z</time>
      </trkpt>
      <trkpt lat="42.774612" lon="-7.473347">
        <time>2022-07-12T06:42:10Z</time>
      </trkpt>
      <trkpt lat="42.774593" lon="-7.4734244">
        <time>2022-07-12T06:42:15Z</time>
      </trkpt>
      <trkpt lat="42.774582" lon="-7.473499">
        <time>2022-07-12T06:42:19Z</time>
      </trkpt>
      <trkpt lat="42.774563" lon="-7.4735675">
        <time>2022-07-12T06:42:23Z</time>
      </trkpt>
      <trkpt lat="42.77454" lon="-7.473633">
        <time>2022-07-12T06:42:27Z</time>
      </trkpt>
      <trkpt lat="42.774517" lon="-7.473699">
        <time>2022-07-12T06:42:31Z</time>
      </trkpt>
      <trkpt lat="42.77449" lon="-7.4737625">
        <time>2022-07-12T06:42:35Z</time>
      </trkpt>
      <trkpt lat="42.774464" lon="-7.4738274">
        <time>2022-07-12T06:42:40Z</time>
      </trkpt>
      <trkpt lat="42.774433" lon="-7.473903">
        <time>2022-07-12T06:42:45Z</time>
      </trkpt>
      <trkpt lat="42.774403" lon="-7.473978">
        <time>2022-07-12T06:42:49Z</time>
      </trkpt>
      <trkpt lat="42.774384" lon="-7.4740443">
        <time>2022-07-12T06:42:53Z</time>
      </trkpt>
      <trkpt lat="42.774357" lon="-7.4741173">
        <time>2022-07-12T06:42:58Z</time>
      </trkpt>
      <trkpt lat="42.774334" lon="-7.474181">
        <time>2022-07-12T06:43:02Z</time>
      </trkpt>
      <trkpt lat="42.774303" lon="-7.4742336">
        <time>2022-07-12T06:43:06Z</time>
      </trkpt>
      <trkpt lat="42.774273" lon="-7.474306">
        <time>2022-07-12T06:43:11Z</time>
      </trkpt>
      <trkpt lat="42.774258" lon="-7.4743743">
        <time>2022-07-12T06:43:15Z</time>
      </trkpt>
      <trkpt lat="42.77424" lon="-7.474447">
        <time>2022-07-12T06:43:19Z</time>
      </trkpt>
      <trkpt lat="42.774227" lon="-7.4745183">
        <time>2022-07-12T06:43:23Z</time>
      </trkpt>
      <trkpt lat="42.774204" lon="-7.474597">
        <time>2022-07-12T06:43:27Z</time>
      </trkpt>
      <trkpt lat="42.77418" lon="-7.4746485">
        <time>2022-07-12T06:43:30Z</time>
      </trkpt>
      <trkpt lat="42.77415" lon="-7.474709">
        <time>2022-07-12T06:43:34Z</time>
      </trkpt>
      <trkpt lat="42.774136" lon="-7.4747906">
        <time>2022-07-12T06:43:39Z</time>
      </trkpt>
      <trkpt lat="42.774113" lon="-7.4748435">
        <time>2022-07-12T06:43:42Z</time>
      </trkpt>
      <trkpt lat="42.774097" lon="-7.474915">
        <time>2022-07-12T06:43:47Z</time>
      </trkpt>
      <trkpt lat="42.774082" lon="-7.474988">
        <time>2022-07-12T06:43:51Z</time>
      </trkpt>
      <trkpt lat="42.774067" lon="-7.4750667">
        <time>2022-07-12T06:43:55Z</time>
      </trkpt>
      <trkpt lat="42.774048" lon="-7.475129">
        <time>2022-07-12T06:43:59Z</time>
      </trkpt>
      <trkpt lat="42.774017" lon="-7.4751964">
        <time>2022-07-12T06:44:04Z</time>
      </trkpt>
      <trkpt lat="42.773994" lon="-7.475275">
        <time>2022-07-12T06:44:08Z</time>
      </trkpt>
      <trkpt lat="42.773983" lon="-7.475346">
        <time>2022-07-12T06:44:12Z</time>
      </trkpt>
      <trkpt lat="42.773975" lon="-7.475424">
        <time>2022-07-12T06:44:17Z</time>
      </trkpt>
      <trkpt lat="42.77395" lon="-7.4754825">
        <time>2022-07-12T06:44:21Z</time>
      </trkpt>
      <trkpt lat="42.77392" lon="-7.475547">
        <time>2022-07-12T06:44:25Z</time>
      </trkpt>
      <trkpt lat="42.773895" lon="-7.475624">
        <time>2022-07-12T06:44:29Z</time>
      </trkpt>
      <trkpt lat="42.773872" lon="-7.4756885">
        <time>2022-07-12T06:44:32Z</time>
      </trkpt>
      <trkpt lat="42.773846" lon="-7.4757605">
        <time>2022-07-12T06:44:36Z</time>
      </trkpt>
      <trkpt lat="42.77381" lon="-7.475819">
        <time>2022-07-12T06:44:40Z</time>
      </trkpt>
      <trkpt lat="42.77378" lon="-7.475882">
        <time>2022-07-12T06:44:44Z</time>
      </trkpt>
      <trkpt lat="42.77375" lon="-7.4759336">
        <time>2022-07-12T06:44:48Z</time>
      </trkpt>
      <trkpt lat="42.77371" lon="-7.4759974">
        <time>2022-07-12T06:44:53Z</time>
      </trkpt>
      <trkpt lat="42.773678" lon="-7.4760685">
        <time>2022-07-12T06:44:57Z</time>
      </trkpt>
      <trkpt lat="42.77365" lon="-7.4761333">
        <time>2022-07-12T06:45:01Z</time>
      </trkpt>
      <trkpt lat="42.773617" lon="-7.4761925">
        <time>2022-07-12T06:45:06Z</time>
      </trkpt>
      <trkpt lat="42.773563" lon="-7.476258">
        <time>2022-07-12T06:45:10Z</time>
      </trkpt>
      <trkpt lat="42.77354" lon="-7.476329">
        <time>2022-07-12T06:45:14Z</time>
      </trkpt>
      <trkpt lat="42.77352" lon="-7.476394">
        <time>2022-07-12T06:45:18Z</time>
      </trkpt>
      <trkpt lat="42.7735" lon="-7.4764805">
        <time>2022-07-12T06:45:23Z</time>
      </trkpt>
      <trkpt lat="42.773487" lon="-7.476563">
        <time>2022-07-12T06:45:27Z</time>
      </trkpt>
      <trkpt lat="42.773487" lon="-7.476632">
        <time>2022-07-12T06:45:31Z</time>
      </trkpt>
      <trkpt lat="42.77347" lon="-7.4767027">
        <time>2022-07-12T06:45:36Z</time>
      </trkpt>
      <trkpt lat="42.77345" lon="-7.476759">
        <time>2022-07-12T06:45:40Z</time>
      </trkpt>
      <trkpt lat="42.77341" lon="-7.4768143">
        <time>2022-07-12T06:45:45Z</time>
      </trkpt>
      <trkpt lat="42.773357" lon="-7.4768677">
        <time>2022-07-12T06:45:50Z</time>
      </trkpt>
      <trkpt lat="42.77331" lon="-7.4769154">
        <time>2022-07-12T06:45:54Z</time>
      </trkpt>
      <trkpt lat="42.77327" lon="-7.476969">
        <time>2022-07-12T06:45:58Z</time>
      </trkpt>
      <trkpt lat="42.77324" lon="-7.4770246">
        <time>2022-07-12T06:46:02Z</time>
      </trkpt>
      <trkpt lat="42.77321" lon="-7.47709">
        <time>2022-07-12T06:46:06Z</time>
      </trkpt>
      <trkpt lat="42.77319" lon="-7.477167">
        <time>2022-07-12T06:46:10Z</time>
      </trkpt>
      <trkpt lat="42.77318" lon="-7.47724">
        <time>2022-07-12T06:46:13Z</time>
      </trkpt>
      <trkpt lat="42.773167" lon="-7.4772987">
        <time>2022-07-12T06:46:16Z</time>
      </trkpt>
      <trkpt lat="42.77317" lon="-7.4773746">
        <time>2022-07-12T06:46:21Z</time>
      </trkpt>
      <trkpt lat="42.773167" lon="-7.4774637">
        <time>2022-07-12T06:46:26Z</time>
      </trkpt>
      <trkpt lat="42.77316" lon="-7.477533">
        <time>2022-07-12T06:46:30Z</time>
      </trkpt>
      <trkpt lat="42.773155" lon="-7.477608">
        <time>2022-07-12T06:46:35Z</time>
      </trkpt>
      <trkpt lat="42.77315" lon="-7.477682">
        <time>2022-07-12T06:46:39Z</time>
      </trkpt>
      <trkpt lat="42.773136" lon="-7.47776">
        <time>2022-07-12T06:46:43Z</time>
      </trkpt>
      <trkpt lat="42.773125" lon="-7.4778357">
        <time>2022-07-12T06:46:48Z</time>
      </trkpt>
      <trkpt lat="42.77312" lon="-7.4779105">
        <time>2022-07-12T06:46:52Z</time>
      </trkpt>
      <trkpt lat="42.77311" lon="-7.477982">
        <time>2022-07-12T06:46:56Z</time>
      </trkpt>
      <trkpt lat="42.773106" lon="-7.4780517">
        <time>2022-07-12T06:47:00Z</time>
      </trkpt>
      <trkpt lat="42.77309" lon="-7.478137">
        <time>2022-07-12T06:47:05Z</time>
      </trkpt>
      <trkpt lat="42.77307" lon="-7.478215">
        <time>2022-07-12T06:47:09Z</time>
      </trkpt>
      <trkpt lat="42.773052" lon="-7.4782686">
        <time>2022-07-12T06:47:12Z</time>
      </trkpt>
      <trkpt lat="42.773018" lon="-7.478345">
        <time>2022-07-12T06:47:17Z</time>
      </trkpt>
      <trkpt lat="42.772987" lon="-7.478412">
        <time>2022-07-12T06:47:21Z</time>
      </trkpt>
      <trkpt lat="42.772957" lon="-7.478466">
        <time>2022-07-12T06:47:25Z</time>
      </trkpt>
      <trkpt lat="42.772923" lon="-7.478524">
        <time>2022-07-12T06:47:30Z</time>
      </trkpt>
      <trkpt lat="42.772884" lon="-7.478585">
        <time>2022-07-12T06:47:34Z</time>
      </trkpt>
      <trkpt lat="42.772842" lon="-7.4786577">
        <time>2022-07-12T06:47:38Z</time>
      </trkpt>
      <trkpt lat="42.77281" lon="-7.478727">
        <time>2022-07-12T06:47:42Z</time>
      </trkpt>
      <trkpt lat="42.7728" lon="-7.478799">
        <time>2022-07-12T06:47:46Z</time>
      </trkpt>
      <trkpt lat="42.7728" lon="-7.4788804">
        <time>2022-07-12T06:47:50Z</time>
      </trkpt>
      <trkpt lat="42.77279" lon="-7.4789395">
        <time>2022-07-12T06:47:54Z</time>
      </trkpt>
      <trkpt lat="42.77278" lon="-7.4790163">
        <time>2022-07-12T06:48:00Z</time>
      </trkpt>
      <trkpt lat="42.772762" lon="-7.479088">
        <time>2022-07-12T06:48:05Z</time>
      </trkpt>
      <trkpt lat="42.772736" lon="-7.479146">
        <time>2022-07-12T06:48:09Z</time>
      </trkpt>
      <trkpt lat="42.772713" lon="-7.479211">
        <time>2022-07-12T06:48:13Z</time>
      </trkpt>
      <trkpt lat="42.772694" lon="-7.4792857">
        <time>2022-07-12T06:48:17Z</time>
      </trkpt>
      <trkpt lat="42.77268" lon="-7.479359">
        <time>2022-07-12T06:48:21Z</time>
      </trkpt>
      <trkpt lat="42.772663" lon="-7.479417">
        <time>2022-07-12T06:48:25Z</time>
      </trkpt>
      <trkpt lat="42.772636" lon="-7.4795012">
        <time>2022-07-12T06:48:30Z</time>
      </trkpt>
      <trkpt lat="42.772625" lon="-7.479558">
        <time>2022-07-12T06:48:33Z</time>
      </trkpt>
      <trkpt lat="42.772602" lon="-7.479635">
        <time>2022-07-12T06:48:38Z</time>
      </trkpt>
      <trkpt lat="42.772587" lon="-7.479719">
        <time>2022-07-12T06:48:42Z</time>
      </trkpt>
      <trkpt lat="42.77258" lon="-7.47979">
        <time>2022-07-12T06:48:45Z</time>
      </trkpt>
      <trkpt lat="42.77259" lon="-7.4798584">
        <time>2022-07-12T06:48:48Z</time>
      </trkpt>
      <trkpt lat="42.772625" lon="-7.4799266">
        <time>2022-07-12T06:48:52Z</time>
      </trkpt>
      <trkpt lat="42.772663" lon="-7.479966">
        <time>2022-07-12T06:48:56Z</time>
      </trkpt>
      <trkpt lat="42.77271" lon="-7.480006">
        <time>2022-07-12T06:49:01Z</time>
      </trkpt>
      <trkpt lat="42.772762" lon="-7.480028">
        <time>2022-07-12T06:49:05Z</time>
      </trkpt>
      <trkpt lat="42.77282" lon="-7.480049">
        <time>2022-07-12T06:49:09Z</time>
      </trkpt>
      <trkpt lat="42.772877" lon="-7.480067">
        <time>2022-07-12T06:49:13Z</time>
      </trkpt>
      <trkpt lat="42.772926" lon="-7.4800677">
        <time>2022-07-12T06:49:17Z</time>
      </trkpt>
      <trkpt lat="42.77298" lon="-7.4800344">
        <time>2022-07-12T06:49:22Z</time>
      </trkpt>
      <trkpt lat="42.773018" lon="-7.479987">
        <time>2022-07-12T06:49:26Z</time>
      </trkpt>
      <trkpt lat="42.77306" lon="-7.479938">
        <time>2022-07-12T06:49:31Z</time>
      </trkpt>
      <trkpt lat="42.77311" lon="-7.479912">
        <time>2022-07-12T06:49:36Z</time>
      </trkpt>
      <trkpt lat="42.77316" lon="-7.4798903">
        <time>2022-07-12T06:49:41Z</time>
      </trkpt>
      <trkpt lat="42.773212" lon="-7.479884">
        <time>2022-07-12T06:49:47Z</time>
      </trkpt>
      <trkpt lat="42.773266" lon="-7.479881">
        <time>2022-07-12T06:49:52Z</time>
      </trkpt>
      <trkpt lat="42.773323" lon="-7.4798765">
        <time>2022-07-12T06:49:57Z</time>
      </trkpt>
      <trkpt lat="42.773376" lon="-7.479876">
        <time>2022-07-12T06:50:01Z</time>
      </trkpt>
      <trkpt lat="42.773422" lon="-7.4798903">
        <time>2022-07-12T06:50:05Z</time>
      </trkpt>
      <trkpt lat="42.77347" lon="-7.479912">
        <time>2022-07-12T06:50:10Z</time>
      </trkpt>
      <trkpt lat="42.77352" lon="-7.479949">
        <time>2022-07-12T06:50:14Z</time>
      </trkpt>
      <trkpt lat="42.773575" lon="-7.479968">
        <time>2022-07-12T06:50:18Z</time>
      </trkpt>
      <trkpt lat="42.773632" lon="-7.4799757">
        <time>2022-07-12T06:50:23Z</time>
      </trkpt>
      <trkpt lat="42.77369" lon="-7.47998">
        <time>2022-07-12T06:50:28Z</time>
      </trkpt>
      <trkpt lat="42.773735" lon="-7.4800043">
        <time>2022-07-12T06:50:33Z</time>
      </trkpt>
      <trkpt lat="42.7738" lon="-7.480024">
        <time>2022-07-12T06:50:38Z</time>
      </trkpt>
      <trkpt lat="42.77386" lon="-7.4800344">
        <time>2022-07-12T06:50:43Z</time>
      </trkpt>
      <trkpt lat="42.77392" lon="-7.4800425">
        <time>2022-07-12T06:50:47Z</time>
      </trkpt>
      <trkpt lat="42.773975" lon="-7.480051">
        <time>2022-07-12T06:50:51Z</time>
      </trkpt>
      <trkpt lat="42.77403" lon="-7.480067">
        <time>2022-07-12T06:50:55Z</time>
      </trkpt>
      <trkpt lat="42.774086" lon="-7.4800706">
        <time>2022-07-12T06:50:59Z</time>
      </trkpt>
      <trkpt lat="42.77413" lon="-7.4800634">
        <time>2022-07-12T06:51:03Z</time>
      </trkpt>
      <trkpt lat="42.774178" lon="-7.4800706">
        <time>2022-07-12T06:51:08Z</time>
      </trkpt>
      <trkpt lat="42.774235" lon="-7.4800897">
        <time>2022-07-12T06:51:13Z</time>
      </trkpt>
      <trkpt lat="42.774296" lon="-7.480112">
        <time>2022-07-12T06:51:18Z</time>
      </trkpt>
      <trkpt lat="42.774345" lon="-7.480133">
        <time>2022-07-12T06:51:23Z</time>
      </trkpt>
      <trkpt lat="42.7744" lon="-7.4801683">
        <time>2022-07-12T06:51:28Z</time>
      </trkpt>
      <trkpt lat="42.774456" lon="-7.4802136">
        <time>2022-07-12T06:51:32Z</time>
      </trkpt>
      <trkpt lat="42.774498" lon="-7.4802475">
        <time>2022-07-12T06:51:35Z</time>
      </trkpt>
      <trkpt lat="42.774548" lon="-7.4802957">
        <time>2022-07-12T06:51:39Z</time>
      </trkpt>
      <trkpt lat="42.774597" lon="-7.4803405">
        <time>2022-07-12T06:51:43Z</time>
      </trkpt>
      <trkpt lat="42.77463" lon="-7.4803815">
        <time>2022-07-12T06:51:47Z</time>
      </trkpt>
      <trkpt lat="42.774677" lon="-7.480426">
        <time>2022-07-12T06:51:51Z</time>
      </trkpt>
      <trkpt lat="42.774723" lon="-7.480472">
        <time>2022-07-12T06:51:55Z</time>
      </trkpt>
      <trkpt lat="42.774773" lon="-7.480509">
        <time>2022-07-12T06:52:00Z</time>
      </trkpt>
      <trkpt lat="42.774826" lon="-7.4805446">
        <time>2022-07-12T06:52:05Z</time>
      </trkpt>
      <trkpt lat="42.774876" lon="-7.480576">
        <time>2022-07-12T06:52:10Z</time>
      </trkpt>
      <trkpt lat="42.77493" lon="-7.4806056">
        <time>2022-07-12T06:52:14Z</time>
      </trkpt>
      <trkpt lat="42.774967" lon="-7.4806566">
        <time>2022-07-12T06:52:18Z</time>
      </trkpt>
      <trkpt lat="42.77501" lon="-7.4807067">
        <time>2022-07-12T06:52:22Z</time>
      </trkpt>
      <trkpt lat="42.77506" lon="-7.480746">
        <time>2022-07-12T06:52:26Z</time>
      </trkpt>
      <trkpt lat="42.77512" lon="-7.4807544">
        <time>2022-07-12T06:52:31Z</time>
      </trkpt>
      <trkpt lat="42.775177" lon="-7.4807525">
        <time>2022-07-12T06:52:35Z</time>
      </trkpt>
      <trkpt lat="42.775223" lon="-7.480758">
        <time>2022-07-12T06:52:39Z</time>
      </trkpt>
      <trkpt lat="42.775276" lon="-7.4807673">
        <time>2022-07-12T06:52:43Z</time>
      </trkpt>
      <trkpt lat="42.775337" lon="-7.48078">
        <time>2022-07-12T06:52:47Z</time>
      </trkpt>
      <trkpt lat="42.775387" lon="-7.480786">
        <time>2022-07-12T06:52:51Z</time>
      </trkpt>
      <trkpt lat="42.77545" lon="-7.480802">
        <time>2022-07-12T06:52:56Z</time>
      </trkpt>
      <trkpt lat="42.775505" lon="-7.4808254">
        <time>2022-07-12T06:53:01Z</time>
      </trkpt>
      <trkpt lat="42.77556" lon="-7.480848">
        <time>2022-07-12T06:53:06Z</time>
      </trkpt>
      <trkpt lat="42.77561" lon="-7.4808674">
        <time>2022-07-12T06:53:10Z</time>
      </trkpt>
      <trkpt lat="42.77567" lon="-7.4808908">
        <time>2022-07-12T06:53:14Z</time>
      </trkpt>
      <trkpt lat="42.77572" lon="-7.4809074">
        <time>2022-07-12T06:53:18Z</time>
      </trkpt>
      <trkpt lat="42.775776" lon="-7.480926">
        <time>2022-07-12T06:53:23Z</time>
      </trkpt>
      <trkpt lat="42.77583" lon="-7.480947">
        <time>2022-07-12T06:53:27Z</time>
      </trkpt>
      <trkpt lat="42.77587" lon="-7.480963">
        <time>2022-07-12T06:53:30Z</time>
      </trkpt>
      <trkpt lat="42.775936" lon="-7.480991">
        <time>2022-07-12T06:53:35Z</time>
      </trkpt>
      <trkpt lat="42.775997" lon="-7.4810214">
        <time>2022-07-12T06:53:40Z</time>
      </trkpt>
      <trkpt lat="42.776043" lon="-7.481049">
        <time>2022-07-12T06:53:43Z</time>
      </trkpt>
      <trkpt lat="42.776104" lon="-7.4810715">
        <time>2022-07-12T06:53:48Z</time>
      </trkpt>
      <trkpt lat="42.77616" lon="-7.4810925">
        <time>2022-07-12T06:53:52Z</time>
      </trkpt>
      <trkpt lat="42.77621" lon="-7.4811106">
        <time>2022-07-12T06:53:56Z</time>
      </trkpt>
      <trkpt lat="42.776264" lon="-7.481129">
        <time>2022-07-12T06:54:00Z</time>
      </trkpt>
      <trkpt lat="42.77631" lon="-7.4811482">
        <time>2022-07-12T06:54:04Z</time>
      </trkpt>
      <trkpt lat="42.77637" lon="-7.4811716">
        <time>2022-07-12T06:54:09Z</time>
      </trkpt>
      <trkpt lat="42.776424" lon="-7.4811974">
        <time>2022-07-12T06:54:14Z</time>
      </trkpt>
      <trkpt lat="42.776493" lon="-7.4812226">
        <time>2022-07-12T06:54:19Z</time>
      </trkpt>
      <trkpt lat="42.776543" lon="-7.4812455">
        <time>2022-07-12T06:54:23Z</time>
      </trkpt>
      <trkpt lat="42.776596" lon="-7.481275">
        <time>2022-07-12T06:54:27Z</time>
      </trkpt>
      <trkpt lat="42.77664" lon="-7.481305">
        <time>2022-07-12T06:54:31Z</time>
      </trkpt>
      <trkpt lat="42.776684" lon="-7.4813337">
        <time>2022-07-12T06:54:35Z</time>
      </trkpt>
      <trkpt lat="42.776733" lon="-7.4813724">
        <time>2022-07-12T06:54:39Z</time>
      </trkpt>
      <trkpt lat="42.776783" lon="-7.481421">
        <time>2022-07-12T06:54:44Z</time>
      </trkpt>
      <trkpt lat="42.776833" lon="-7.481457">
        <time>2022-07-12T06:54:48Z</time>
      </trkpt>
      <trkpt lat="42.77688" lon="-7.4814925">
        <time>2022-07-12T06:54:52Z</time>
      </trkpt>
      <trkpt lat="42.776928" lon="-7.481545">
        <time>2022-07-12T06:54:57Z</time>
      </trkpt>
      <trkpt lat="42.776978" lon="-7.4815855">
        <time>2022-07-12T06:55:01Z</time>
      </trkpt>
      <trkpt lat="42.777023" lon="-7.4816165">
        <time>2022-07-12T06:55:06Z</time>
      </trkpt>
      <trkpt lat="42.77707" lon="-7.4816327">
        <time>2022-07-12T06:55:16Z</time>
      </trkpt>
      <trkpt lat="42.777134" lon="-7.4816504">
        <time>2022-07-12T06:55:22Z</time>
      </trkpt>
      <trkpt lat="42.7772" lon="-7.4816666">
        <time>2022-07-12T06:55:26Z</time>
      </trkpt>
      <trkpt lat="42.777252" lon="-7.4816775">
        <time>2022-07-12T06:55:30Z</time>
      </trkpt>
      <trkpt lat="42.777298" lon="-7.4816856">
        <time>2022-07-12T06:55:34Z</time>
      </trkpt>
      <trkpt lat="42.777363" lon="-7.481703">
        <time>2022-07-12T06:55:38Z</time>
      </trkpt>
      <trkpt lat="42.77741" lon="-7.4817185">
        <time>2022-07-12T06:55:41Z</time>
      </trkpt>
      <trkpt lat="42.777462" lon="-7.4817343">
        <time>2022-07-12T06:55:45Z</time>
      </trkpt>
      <trkpt lat="42.777515" lon="-7.481753">
        <time>2022-07-12T06:55:49Z</time>
      </trkpt>
      <trkpt lat="42.77757" lon="-7.4817767">
        <time>2022-07-12T06:55:53Z</time>
      </trkpt>
      <trkpt lat="42.777622" lon="-7.4817977">
        <time>2022-07-12T06:55:57Z</time>
      </trkpt>
      <trkpt lat="42.77768" lon="-7.4818215">
        <time>2022-07-12T06:56:02Z</time>
      </trkpt>
      <trkpt lat="42.777737" lon="-7.48184">
        <time>2022-07-12T06:56:06Z</time>
      </trkpt>
      <trkpt lat="42.77779" lon="-7.4818606">
        <time>2022-07-12T06:56:10Z</time>
      </trkpt>
      <trkpt lat="42.777843" lon="-7.4818754">
        <time>2022-07-12T06:56:14Z</time>
      </trkpt>
      <trkpt lat="42.777893" lon="-7.481889">
        <time>2022-07-12T06:56:18Z</time>
      </trkpt>
      <trkpt lat="42.777943" lon="-7.4819036">
        <time>2022-07-12T06:56:22Z</time>
      </trkpt>
      <trkpt lat="42.778008" lon="-7.481925">
        <time>2022-07-12T06:56:27Z</time>
      </trkpt>
      <trkpt lat="42.778065" lon="-7.481952">
        <time>2022-07-12T06:56:31Z</time>
      </trkpt>
      <trkpt lat="42.778114" lon="-7.4819775">
        <time>2022-07-12T06:56:35Z</time>
      </trkpt>
      <trkpt lat="42.778168" lon="-7.4820027">
        <time>2022-07-12T06:56:39Z</time>
      </trkpt>
      <trkpt lat="42.778217" lon="-7.482026">
        <time>2022-07-12T06:56:43Z</time>
      </trkpt>
      <trkpt lat="42.77827" lon="-7.482058">
        <time>2022-07-12T06:56:48Z</time>
      </trkpt>
      <trkpt lat="42.778328" lon="-7.482093">
        <time>2022-07-12T06:56:53Z</time>
      </trkpt>
      <trkpt lat="42.778385" lon="-7.4821305">
        <time>2022-07-12T06:56:58Z</time>
      </trkpt>
      <trkpt lat="42.77843" lon="-7.4821653">
        <time>2022-07-12T06:57:02Z</time>
      </trkpt>
      <trkpt lat="42.778473" lon="-7.482206">
        <time>2022-07-12T06:57:06Z</time>
      </trkpt>
      <trkpt lat="42.77852" lon="-7.482252">
        <time>2022-07-12T06:57:10Z</time>
      </trkpt>
      <trkpt lat="42.77857" lon="-7.48229">
        <time>2022-07-12T06:57:14Z</time>
      </trkpt>
      <trkpt lat="42.77862" lon="-7.4823275">
        <time>2022-07-12T06:57:19Z</time>
      </trkpt>
      <trkpt lat="42.77867" lon="-7.482362">
        <time>2022-07-12T06:57:23Z</time>
      </trkpt>
      <trkpt lat="42.778725" lon="-7.48239">
        <time>2022-07-12T06:57:28Z</time>
      </trkpt>
      <trkpt lat="42.778774" lon="-7.482422">
        <time>2022-07-12T06:57:32Z</time>
      </trkpt>
      <trkpt lat="42.778816" lon="-7.482457">
        <time>2022-07-12T06:57:36Z</time>
      </trkpt>
      <trkpt lat="42.778866" lon="-7.482491">
        <time>2022-07-12T06:57:40Z</time>
      </trkpt>
      <trkpt lat="42.77892" lon="-7.482529">
        <time>2022-07-12T06:57:45Z</time>
      </trkpt>
      <trkpt lat="42.778973" lon="-7.482572">
        <time>2022-07-12T06:57:50Z</time>
      </trkpt>
      <trkpt lat="42.779026" lon="-7.482615">
        <time>2022-07-12T06:57:55Z</time>
      </trkpt>
      <trkpt lat="42.779064" lon="-7.482666">
        <time>2022-07-12T06:57:59Z</time>
      </trkpt>
      <trkpt lat="42.779125" lon="-7.482707">
        <time>2022-07-12T06:58:04Z</time>
      </trkpt>
      <trkpt lat="42.779175" lon="-7.482747">
        <time>2022-07-12T06:58:09Z</time>
      </trkpt>
      <trkpt lat="42.779232" lon="-7.4827814">
        <time>2022-07-12T06:58:14Z</time>
      </trkpt>
      <trkpt lat="42.77928" lon="-7.4828134">
        <time>2022-07-12T06:58:19Z</time>
      </trkpt>
      <trkpt lat="42.779327" lon="-7.482841">
        <time>2022-07-12T06:58:24Z</time>
      </trkpt>
      <trkpt lat="42.77938" lon="-7.4828715">
        <time>2022-07-12T06:58:29Z</time>
      </trkpt>
      <trkpt lat="42.779434" lon="-7.4828935">
        <time>2022-07-12T06:58:33Z</time>
      </trkpt>
      <trkpt lat="42.779484" lon="-7.482916">
        <time>2022-07-12T06:58:37Z</time>
      </trkpt>
      <trkpt lat="42.77954" lon="-7.4829464">
        <time>2022-07-12T06:58:42Z</time>
      </trkpt>
      <trkpt lat="42.77959" lon="-7.4829707">
        <time>2022-07-12T06:58:46Z</time>
      </trkpt>
      <trkpt lat="42.77964" lon="-7.482995">
        <time>2022-07-12T06:58:50Z</time>
      </trkpt>
      <trkpt lat="42.77969" lon="-7.483025">
        <time>2022-07-12T06:58:54Z</time>
      </trkpt>
      <trkpt lat="42.779743" lon="-7.4830594">
        <time>2022-07-12T06:58:58Z</time>
      </trkpt>
      <trkpt lat="42.77979" lon="-7.483092">
        <time>2022-07-12T06:59:02Z</time>
      </trkpt>
      <trkpt lat="42.779842" lon="-7.4831214">
        <time>2022-07-12T06:59:06Z</time>
      </trkpt>
      <trkpt lat="42.77989" lon="-7.483141">
        <time>2022-07-12T06:59:10Z</time>
      </trkpt>
      <trkpt lat="42.77994" lon="-7.4831605">
        <time>2022-07-12T06:59:14Z</time>
      </trkpt>
      <trkpt lat="42.779987" lon="-7.4831796">
        <time>2022-07-12T06:59:18Z</time>
      </trkpt>
      <trkpt lat="42.780052" lon="-7.4831996">
        <time>2022-07-12T06:59:23Z</time>
      </trkpt>
      <trkpt lat="42.78011" lon="-7.483236">
        <time>2022-07-12T06:59:28Z</time>
      </trkpt>
      <trkpt lat="42.780163" lon="-7.4832582">
        <time>2022-07-12T06:59:32Z</time>
      </trkpt>
      <trkpt lat="42.780212" lon="-7.483271">
        <time>2022-07-12T06:59:36Z</time>
      </trkpt>
      <trkpt lat="42.780277" lon="-7.4832764">
        <time>2022-07-12T06:59:41Z</time>
      </trkpt>
      <trkpt lat="42.780327" lon="-7.4832726">
        <time>2022-07-12T06:59:45Z</time>
      </trkpt>
      <trkpt lat="42.780396" lon="-7.483284">
        <time>2022-07-12T06:59:50Z</time>
      </trkpt>
      <trkpt lat="42.780445" lon="-7.4833074">
        <time>2022-07-12T06:59:54Z</time>
      </trkpt>
      <trkpt lat="42.7805" lon="-7.483333">
        <time>2022-07-12T06:59:58Z</time>
      </trkpt>
      <trkpt lat="42.78055" lon="-7.4833503">
        <time>2022-07-12T07:00:02Z</time>
      </trkpt>
      <trkpt lat="42.780598" lon="-7.483385">
        <time>2022-07-12T07:00:07Z</time>
      </trkpt>
      <trkpt lat="42.780647" lon="-7.483424">
        <time>2022-07-12T07:00:11Z</time>
      </trkpt>
      <trkpt lat="42.780693" lon="-7.4834795">
        <time>2022-07-12T07:00:16Z</time>
      </trkpt>
      <trkpt lat="42.780746" lon="-7.483542">
        <time>2022-07-12T07:00:21Z</time>
      </trkpt>
      <trkpt lat="42.780785" lon="-7.4835963">
        <time>2022-07-12T07:00:25Z</time>
      </trkpt>
      <trkpt lat="42.780823" lon="-7.483662">
        <time>2022-07-12T07:00:30Z</time>
      </trkpt>
      <trkpt lat="42.78087" lon="-7.483716">
        <time>2022-07-12T07:00:34Z</time>
      </trkpt>
      <trkpt lat="42.78091" lon="-7.4837637">
        <time>2022-07-12T07:00:38Z</time>
      </trkpt>
      <trkpt lat="42.78095" lon="-7.483815">
        <time>2022-07-12T07:00:42Z</time>
      </trkpt>
      <trkpt lat="42.78099" lon="-7.483885">
        <time>2022-07-12T07:00:46Z</time>
      </trkpt>
      <trkpt lat="42.781025" lon="-7.483934">
        <time>2022-07-12T07:00:49Z</time>
      </trkpt>
      <trkpt lat="42.781055" lon="-7.483978">
        <time>2022-07-12T07:00:53Z</time>
      </trkpt>
      <trkpt lat="42.781097" lon="-7.4840546">
        <time>2022-07-12T07:00:59Z</time>
      </trkpt>
      <trkpt lat="42.78112" lon="-7.484122">
        <time>2022-07-12T07:01:03Z</time>
      </trkpt>
      <trkpt lat="42.781136" lon="-7.484188">
        <time>2022-07-12T07:01:07Z</time>
      </trkpt>
      <trkpt lat="42.781143" lon="-7.4842625">
        <time>2022-07-12T07:01:12Z</time>
      </trkpt>
      <trkpt lat="42.78115" lon="-7.4843397">
        <time>2022-07-12T07:01:16Z</time>
      </trkpt>
      <trkpt lat="42.781155" lon="-7.4844136">
        <time>2022-07-12T07:01:20Z</time>
      </trkpt>
      <trkpt lat="42.781155" lon="-7.4844866">
        <time>2022-07-12T07:01:24Z</time>
      </trkpt>
      <trkpt lat="42.78115" lon="-7.4845614">
        <time>2022-07-12T07:01:28Z</time>
      </trkpt>
      <trkpt lat="42.781143" lon="-7.4846354">
        <time>2022-07-12T07:01:32Z</time>
      </trkpt>
      <trkpt lat="42.78113" lon="-7.484712">
        <time>2022-07-12T07:01:37Z</time>
      </trkpt>
      <trkpt lat="42.781124" lon="-7.4847865">
        <time>2022-07-12T07:01:41Z</time>
      </trkpt>
      <trkpt lat="42.781113" lon="-7.484864">
        <time>2022-07-12T07:01:45Z</time>
      </trkpt>
      <trkpt lat="42.781105" lon="-7.484931">
        <time>2022-07-12T07:01:49Z</time>
      </trkpt>
      <trkpt lat="42.78109" lon="-7.4850235">
        <time>2022-07-12T07:01:54Z</time>
      </trkpt>
      <trkpt lat="42.78108" lon="-7.485103">
        <time>2022-07-12T07:01:58Z</time>
      </trkpt>
      <trkpt lat="42.78107" lon="-7.4851823">
        <time>2022-07-12T07:02:03Z</time>
      </trkpt>
      <trkpt lat="42.78105" lon="-7.4852705">
        <time>2022-07-12T07:02:08Z</time>
      </trkpt>
      <trkpt lat="42.781036" lon="-7.4853444">
        <time>2022-07-12T07:02:12Z</time>
      </trkpt>
      <trkpt lat="42.781025" lon="-7.4854217">
        <time>2022-07-12T07:02:17Z</time>
      </trkpt>
      <trkpt lat="42.781017" lon="-7.485515">
        <time>2022-07-12T07:02:22Z</time>
      </trkpt>
      <trkpt lat="42.78102" lon="-7.4855847">
        <time>2022-07-12T07:02:26Z</time>
      </trkpt>
      <trkpt lat="42.781017" lon="-7.485643">
        <time>2022-07-12T07:02:32Z</time>
      </trkpt>
      <trkpt lat="42.78099" lon="-7.4857297">
        <time>2022-07-12T07:02:38Z</time>
      </trkpt>
      <trkpt lat="42.78098" lon="-7.485808">
        <time>2022-07-12T07:02:42Z</time>
      </trkpt>
      <trkpt lat="42.78097" lon="-7.4858766">
        <time>2022-07-12T07:02:46Z</time>
      </trkpt>
      <trkpt lat="42.780968" lon="-7.485955">
        <time>2022-07-12T07:02:51Z</time>
      </trkpt>
      <trkpt lat="42.78096" lon="-7.486039">
        <time>2022-07-12T07:02:55Z</time>
      </trkpt>
      <trkpt lat="42.780952" lon="-7.4861145">
        <time>2022-07-12T07:02:59Z</time>
      </trkpt>
      <trkpt lat="42.780952" lon="-7.486197">
        <time>2022-07-12T07:03:04Z</time>
      </trkpt>
      <trkpt lat="42.780952" lon="-7.486272">
        <time>2022-07-12T07:03:08Z</time>
      </trkpt>
      <trkpt lat="42.78095" lon="-7.4863443">
        <time>2022-07-12T07:03:13Z</time>
      </trkpt>
      <trkpt lat="42.780945" lon="-7.4864173">
        <time>2022-07-12T07:03:18Z</time>
      </trkpt>
      <trkpt lat="42.780937" lon="-7.486482">
        <time>2022-07-12T07:03:22Z</time>
      </trkpt>
      <trkpt lat="42.780933" lon="-7.4865627">
        <time>2022-07-12T07:03:27Z</time>
      </trkpt>
      <trkpt lat="42.780952" lon="-7.486636">
        <time>2022-07-12T07:03:32Z</time>
      </trkpt>
      <trkpt lat="42.78097" lon="-7.4867015">
        <time>2022-07-12T07:03:36Z</time>
      </trkpt>
      <trkpt lat="42.780975" lon="-7.486767">
        <time>2022-07-12T07:03:40Z</time>
      </trkpt>
      <trkpt lat="42.780983" lon="-7.4868493">
        <time>2022-07-12T07:03:45Z</time>
      </trkpt>
      <trkpt lat="42.780994" lon="-7.4869237">
        <time>2022-07-12T07:03:49Z</time>
      </trkpt>
      <trkpt lat="42.780994" lon="-7.487005">
        <time>2022-07-12T07:03:54Z</time>
      </trkpt>
      <trkpt lat="42.780994" lon="-7.4870963">
        <time>2022-07-12T07:03:59Z</time>
      </trkpt>
      <trkpt lat="42.780994" lon="-7.487167">
        <time>2022-07-12T07:04:03Z</time>
      </trkpt>
      <trkpt lat="42.78099" lon="-7.4872537">
        <time>2022-07-12T07:04:08Z</time>
      </trkpt>
      <trkpt lat="42.78099" lon="-7.4873457">
        <time>2022-07-12T07:04:12Z</time>
      </trkpt>
      <trkpt lat="42.78099" lon="-7.487413">
        <time>2022-07-12T07:04:15Z</time>
      </trkpt>
      <trkpt lat="42.781" lon="-7.487489">
        <time>2022-07-12T07:04:19Z</time>
      </trkpt>
      <trkpt lat="42.78101" lon="-7.4875603">
        <time>2022-07-12T07:04:23Z</time>
      </trkpt>
      <trkpt lat="42.78103" lon="-7.4876404">
        <time>2022-07-12T07:04:27Z</time>
      </trkpt>
      <trkpt lat="42.781048" lon="-7.487733">
        <time>2022-07-12T07:04:31Z</time>
      </trkpt>
      <trkpt lat="42.781063" lon="-7.4877934">
        <time>2022-07-12T07:04:34Z</time>
      </trkpt>
      <trkpt lat="42.781075" lon="-7.487861">
        <time>2022-07-12T07:04:38Z</time>
      </trkpt>
      <trkpt lat="42.781086" lon="-7.4879327">
        <time>2022-07-12T07:04:42Z</time>
      </trkpt>
      <trkpt lat="42.7811" lon="-7.488019">
        <time>2022-07-12T07:04:46Z</time>
      </trkpt>
      <trkpt lat="42.781113" lon="-7.488094">
        <time>2022-07-12T07:04:50Z</time>
      </trkpt>
      <trkpt lat="42.781116" lon="-7.488171">
        <time>2022-07-12T07:04:55Z</time>
      </trkpt>
      <trkpt lat="42.781124" lon="-7.488246">
        <time>2022-07-12T07:04:59Z</time>
      </trkpt>
      <trkpt lat="42.78113" lon="-7.488334">
        <time>2022-07-12T07:05:03Z</time>
      </trkpt>
      <trkpt lat="42.78113" lon="-7.4884095">
        <time>2022-07-12T07:05:07Z</time>
      </trkpt>
      <trkpt lat="42.78113" lon="-7.4884734">
        <time>2022-07-12T07:05:11Z</time>
      </trkpt>
      <trkpt lat="42.781128" lon="-7.4885516">
        <time>2022-07-12T07:05:15Z</time>
      </trkpt>
      <trkpt lat="42.781124" lon="-7.488625">
        <time>2022-07-12T07:05:19Z</time>
      </trkpt>
      <trkpt lat="42.78112" lon="-7.488707">
        <time>2022-07-12T07:05:24Z</time>
      </trkpt>
      <trkpt lat="42.781124" lon="-7.4887896">
        <time>2022-07-12T07:05:28Z</time>
      </trkpt>
      <trkpt lat="42.78112" lon="-7.488854">
        <time>2022-07-12T07:05:31Z</time>
      </trkpt>
      <trkpt lat="42.781116" lon="-7.4889317">
        <time>2022-07-12T07:05:35Z</time>
      </trkpt>
      <trkpt lat="42.781113" lon="-7.4890003">
        <time>2022-07-12T07:05:39Z</time>
      </trkpt>
      <trkpt lat="42.78111" lon="-7.4890757">
        <time>2022-07-12T07:05:43Z</time>
      </trkpt>
      <trkpt lat="42.7811" lon="-7.4891615">
        <time>2022-07-12T07:05:47Z</time>
      </trkpt>
      <trkpt lat="42.781094" lon="-7.4892383">
        <time>2022-07-12T07:05:51Z</time>
      </trkpt>
      <trkpt lat="42.78109" lon="-7.4893045">
        <time>2022-07-12T07:05:55Z</time>
      </trkpt>
      <trkpt lat="42.781082" lon="-7.4893813">
        <time>2022-07-12T07:05:59Z</time>
      </trkpt>
      <trkpt lat="42.78107" lon="-7.4894524">
        <time>2022-07-12T07:06:03Z</time>
      </trkpt>
      <trkpt lat="42.781067" lon="-7.4895315">
        <time>2022-07-12T07:06:08Z</time>
      </trkpt>
      <trkpt lat="42.78106" lon="-7.4896064">
        <time>2022-07-12T07:06:12Z</time>
      </trkpt>
      <trkpt lat="42.781048" lon="-7.4896836">
        <time>2022-07-12T07:06:17Z</time>
      </trkpt>
      <trkpt lat="42.781044" lon="-7.4897585">
        <time>2022-07-12T07:06:21Z</time>
      </trkpt>
      <trkpt lat="42.78103" lon="-7.4898343">
        <time>2022-07-12T07:06:26Z</time>
      </trkpt>
      <trkpt lat="42.781006" lon="-7.4899006">
        <time>2022-07-12T07:06:31Z</time>
      </trkpt>
      <trkpt lat="42.780975" lon="-7.4899454">
        <time>2022-07-12T07:06:36Z</time>
      </trkpt>
      <trkpt lat="42.78093" lon="-7.4899387">
        <time>2022-07-12T07:06:44Z</time>
      </trkpt>
      <trkpt lat="42.78096" lon="-7.489975">
        <time>2022-07-12T07:08:45Z</time>
      </trkpt>
      <trkpt lat="42.78092" lon="-7.48995">
        <time>2022-07-12T07:09:47Z</time>
      </trkpt>
      <trkpt lat="42.780853" lon="-7.489978">
        <time>2022-07-12T07:09:54Z</time>
      </trkpt>
      <trkpt lat="42.780804" lon="-7.4900064">
        <time>2022-07-12T07:09:58Z</time>
      </trkpt>
      <trkpt lat="42.780804" lon="-7.4900064">
        <time>2022-07-12T07:10:08Z</time>
      </trkpt>
      <trkpt lat="42.780865" lon="-7.489992">
        <time>2022-07-12T07:10:13Z</time>
      </trkpt>
      <trkpt lat="42.780914" lon="-7.4899735">
        <time>2022-07-12T07:10:17Z</time>
      </trkpt>
      <trkpt lat="42.780937" lon="-7.489967">
        <time>2022-07-12T07:10:32Z</time>
      </trkpt>
      <trkpt lat="42.780994" lon="-7.489931">
        <time>2022-07-12T07:10:38Z</time>
      </trkpt>
      <trkpt lat="42.781044" lon="-7.4898734">
        <time>2022-07-12T07:10:42Z</time>
      </trkpt>
      <trkpt lat="42.781082" lon="-7.489824">
        <time>2022-07-12T07:10:45Z</time>
      </trkpt>
      <trkpt lat="42.781124" lon="-7.4897766">
        <time>2022-07-12T07:10:48Z</time>
      </trkpt>
      <trkpt lat="42.781166" lon="-7.489732">
        <time>2022-07-12T07:10:52Z</time>
      </trkpt>
      <trkpt lat="42.78122" lon="-7.48969">
        <time>2022-07-12T07:10:57Z</time>
      </trkpt>
      <trkpt lat="42.781265" lon="-7.489649">
        <time>2022-07-12T07:11:01Z</time>
      </trkpt>
      <trkpt lat="42.781315" lon="-7.489604">
        <time>2022-07-12T07:11:05Z</time>
      </trkpt>
      <trkpt lat="42.78137" lon="-7.4895635">
        <time>2022-07-12T07:11:10Z</time>
      </trkpt>
      <trkpt lat="42.781387" lon="-7.4895973">
        <time>2022-07-12T07:12:08Z</time>
      </trkpt>
      <trkpt lat="42.781322" lon="-7.489621">
        <time>2022-07-12T07:12:13Z</time>
      </trkpt>
      <trkpt lat="42.781277" lon="-7.489647">
        <time>2022-07-12T07:12:16Z</time>
      </trkpt>
      <trkpt lat="42.781223" lon="-7.4896855">
        <time>2022-07-12T07:12:20Z</time>
      </trkpt>
      <trkpt lat="42.781178" lon="-7.4897294">
        <time>2022-07-12T07:12:24Z</time>
      </trkpt>
      <trkpt lat="42.781136" lon="-7.4897733">
        <time>2022-07-12T07:12:28Z</time>
      </trkpt>
      <trkpt lat="42.781082" lon="-7.489821">
        <time>2022-07-12T07:12:32Z</time>
      </trkpt>
      <trkpt lat="42.781044" lon="-7.489856">
        <time>2022-07-12T07:12:35Z</time>
      </trkpt>
      <trkpt lat="42.78099" lon="-7.4899025">
        <time>2022-07-12T07:12:39Z</time>
      </trkpt>
      <trkpt lat="42.78095" lon="-7.489931">
        <time>2022-07-12T07:12:44Z</time>
      </trkpt>
      <trkpt lat="42.78095" lon="-7.4899817">
        <time>2022-07-12T07:13:28Z</time>
      </trkpt>
      <trkpt lat="42.781013" lon="-7.4900284">
        <time>2022-07-12T07:14:26Z</time>
      </trkpt>
      <trkpt lat="42.78102" lon="-7.4901156">
        <time>2022-07-12T07:14:31Z</time>
      </trkpt>
      <trkpt lat="42.78103" lon="-7.490188">
        <time>2022-07-12T07:14:35Z</time>
      </trkpt>
      <trkpt lat="42.78103" lon="-7.4902577">
        <time>2022-07-12T07:14:39Z</time>
      </trkpt>
      <trkpt lat="42.78103" lon="-7.490351">
        <time>2022-07-12T07:14:45Z</time>
      </trkpt>
      <trkpt lat="42.78103" lon="-7.4904165">
        <time>2022-07-12T07:14:49Z</time>
      </trkpt>
      <trkpt lat="42.78103" lon="-7.490497">
        <time>2022-07-12T07:14:54Z</time>
      </trkpt>
      <trkpt lat="42.781033" lon="-7.490567">
        <time>2022-07-12T07:14:58Z</time>
      </trkpt>
      <trkpt lat="42.781033" lon="-7.4906344">
        <time>2022-07-12T07:15:02Z</time>
      </trkpt>
      <trkpt lat="42.781033" lon="-7.4907207">
        <time>2022-07-12T07:15:07Z</time>
      </trkpt>
      <trkpt lat="42.781033" lon="-7.490794">
        <time>2022-07-12T07:15:11Z</time>
      </trkpt>
      <trkpt lat="42.781033" lon="-7.490872">
        <time>2022-07-12T07:15:16Z</time>
      </trkpt>
      <trkpt lat="42.78103" lon="-7.490943">
        <time>2022-07-12T07:15:20Z</time>
      </trkpt>
      <trkpt lat="42.78102" lon="-7.491019">
        <time>2022-07-12T07:15:25Z</time>
      </trkpt>
      <trkpt lat="42.78101" lon="-7.4910927">
        <time>2022-07-12T07:15:29Z</time>
      </trkpt>
      <trkpt lat="42.781002" lon="-7.4911695">
        <time>2022-07-12T07:15:33Z</time>
      </trkpt>
      <trkpt lat="42.78099" lon="-7.4912357">
        <time>2022-07-12T07:15:37Z</time>
      </trkpt>
      <trkpt lat="42.78098" lon="-7.49131">
        <time>2022-07-12T07:15:41Z</time>
      </trkpt>
      <trkpt lat="42.780964" lon="-7.491383">
        <time>2022-07-12T07:15:45Z</time>
      </trkpt>
      <trkpt lat="42.780952" lon="-7.4914517">
        <time>2022-07-12T07:15:49Z</time>
      </trkpt>
      <trkpt lat="42.78094" lon="-7.4915066">
        <time>2022-07-12T07:15:53Z</time>
      </trkpt>
      <trkpt lat="42.78091" lon="-7.4915686">
        <time>2022-07-12T07:16:02Z</time>
      </trkpt>
      <trkpt lat="42.780888" lon="-7.4916463">
        <time>2022-07-12T07:16:10Z</time>
      </trkpt>
      <trkpt lat="42.780872" lon="-7.491705">
        <time>2022-07-12T07:16:14Z</time>
      </trkpt>
      <trkpt lat="42.780853" lon="-7.4917746">
        <time>2022-07-12T07:16:19Z</time>
      </trkpt>
      <trkpt lat="42.780838" lon="-7.491853">
        <time>2022-07-12T07:16:24Z</time>
      </trkpt>
      <trkpt lat="42.78082" lon="-7.491926">
        <time>2022-07-12T07:16:28Z</time>
      </trkpt>
      <trkpt lat="42.780804" lon="-7.491991">
        <time>2022-07-12T07:16:32Z</time>
      </trkpt>
      <trkpt lat="42.78078" lon="-7.492056">
        <time>2022-07-12T07:16:37Z</time>
      </trkpt>
      <trkpt lat="42.780758" lon="-7.492126">
        <time>2022-07-12T07:16:42Z</time>
      </trkpt>
      <trkpt lat="42.780743" lon="-7.4921927">
        <time>2022-07-12T07:16:47Z</time>
      </trkpt>
      <trkpt lat="42.780727" lon="-7.492259">
        <time>2022-07-12T07:16:51Z</time>
      </trkpt>
      <trkpt lat="42.780716" lon="-7.492334">
        <time>2022-07-12T07:16:56Z</time>
      </trkpt>
      <trkpt lat="42.78071" lon="-7.492401">
        <time>2022-07-12T07:17:01Z</time>
      </trkpt>
      <trkpt lat="42.780693" lon="-7.492487">
        <time>2022-07-12T07:17:06Z</time>
      </trkpt>
      <trkpt lat="42.780663" lon="-7.492561">
        <time>2022-07-12T07:17:11Z</time>
      </trkpt>
      <trkpt lat="42.78064" lon="-7.492627">
        <time>2022-07-12T07:17:15Z</time>
      </trkpt>
      <trkpt lat="42.78063" lon="-7.492706">
        <time>2022-07-12T07:17:19Z</time>
      </trkpt>
      <trkpt lat="42.780613" lon="-7.4927707">
        <time>2022-07-12T07:17:23Z</time>
      </trkpt>
      <trkpt lat="42.780594" lon="-7.4928546">
        <time>2022-07-12T07:17:28Z</time>
      </trkpt>
      <trkpt lat="42.780586" lon="-7.4929338">
        <time>2022-07-12T07:17:32Z</time>
      </trkpt>
      <trkpt lat="42.78058" lon="-7.4930124">
        <time>2022-07-12T07:17:36Z</time>
      </trkpt>
      <trkpt lat="42.78057" lon="-7.493091">
        <time>2022-07-12T07:17:41Z</time>
      </trkpt>
      <trkpt lat="42.780563" lon="-7.493163">
        <time>2022-07-12T07:17:45Z</time>
      </trkpt>
      <trkpt lat="42.780556" lon="-7.4932437">
        <time>2022-07-12T07:17:49Z</time>
      </trkpt>
      <trkpt lat="42.78055" lon="-7.493311">
        <time>2022-07-12T07:17:53Z</time>
      </trkpt>
      <trkpt lat="42.780537" lon="-7.4933906">
        <time>2022-07-12T07:17:58Z</time>
      </trkpt>
      <trkpt lat="42.780514" lon="-7.4934616">
        <time>2022-07-12T07:18:02Z</time>
      </trkpt>
      <trkpt lat="42.780483" lon="-7.493526">
        <time>2022-07-12T07:18:06Z</time>
      </trkpt>
      <trkpt lat="42.78045" lon="-7.493584">
        <time>2022-07-12T07:18:11Z</time>
      </trkpt>
      <trkpt lat="42.78042" lon="-7.4936366">
        <time>2022-07-12T07:18:16Z</time>
      </trkpt>
      <trkpt lat="42.78038" lon="-7.4937043">
        <time>2022-07-12T07:18:21Z</time>
      </trkpt>
      <trkpt lat="42.780354" lon="-7.4937544">
        <time>2022-07-12T07:18:25Z</time>
      </trkpt>
      <trkpt lat="42.780323" lon="-7.4938245">
        <time>2022-07-12T07:18:30Z</time>
      </trkpt>
      <trkpt lat="42.780296" lon="-7.493877">
        <time>2022-07-12T07:18:34Z</time>
      </trkpt>
      <trkpt lat="42.780266" lon="-7.493946">
        <time>2022-07-12T07:18:39Z</time>
      </trkpt>
      <trkpt lat="42.780243" lon="-7.494017">
        <time>2022-07-12T07:18:43Z</time>
      </trkpt>
      <trkpt lat="42.78022" lon="-7.49408">
        <time>2022-07-12T07:18:47Z</time>
      </trkpt>
      <trkpt lat="42.780216" lon="-7.4941626">
        <time>2022-07-12T07:18:52Z</time>
      </trkpt>
      <trkpt lat="42.780212" lon="-7.4942436">
        <time>2022-07-12T07:18:56Z</time>
      </trkpt>
      <trkpt lat="42.7802" lon="-7.494314">
        <time>2022-07-12T07:19:00Z</time>
      </trkpt>
      <trkpt lat="42.780197" lon="-7.494377">
        <time>2022-07-12T07:19:04Z</time>
      </trkpt>
      <trkpt lat="42.78021" lon="-7.494454">
        <time>2022-07-12T07:19:08Z</time>
      </trkpt>
      <trkpt lat="42.78023" lon="-7.494516">
        <time>2022-07-12T07:19:12Z</time>
      </trkpt>
      <trkpt lat="42.78028" lon="-7.494559">
        <time>2022-07-12T07:19:17Z</time>
      </trkpt>
      <trkpt lat="42.78033" lon="-7.4945903">
        <time>2022-07-12T07:19:21Z</time>
      </trkpt>
      <trkpt lat="42.780376" lon="-7.494622">
        <time>2022-07-12T07:19:25Z</time>
      </trkpt>
      <trkpt lat="42.780426" lon="-7.4946604">
        <time>2022-07-12T07:19:30Z</time>
      </trkpt>
      <trkpt lat="42.78047" lon="-7.494705">
        <time>2022-07-12T07:19:34Z</time>
      </trkpt>
      <trkpt lat="42.780506" lon="-7.4947624">
        <time>2022-07-12T07:19:39Z</time>
      </trkpt>
      <trkpt lat="42.780544" lon="-7.494821">
        <time>2022-07-12T07:19:44Z</time>
      </trkpt>
      <trkpt lat="42.780575" lon="-7.49487">
        <time>2022-07-12T07:19:48Z</time>
      </trkpt>
      <trkpt lat="42.78061" lon="-7.4949393">
        <time>2022-07-12T07:19:53Z</time>
      </trkpt>
      <trkpt lat="42.780632" lon="-7.4950027">
        <time>2022-07-12T07:19:57Z</time>
      </trkpt>
      <trkpt lat="42.780663" lon="-7.495069">
        <time>2022-07-12T07:20:01Z</time>
      </trkpt>
      <trkpt lat="42.78069" lon="-7.4951196">
        <time>2022-07-12T07:20:04Z</time>
      </trkpt>
      <trkpt lat="42.780724" lon="-7.4951777">
        <time>2022-07-12T07:20:08Z</time>
      </trkpt>
      <trkpt lat="42.78076" lon="-7.4952374">
        <time>2022-07-12T07:20:12Z</time>
      </trkpt>
      <trkpt lat="42.780792" lon="-7.495292">
        <time>2022-07-12T07:20:16Z</time>
      </trkpt>
      <trkpt lat="42.780827" lon="-7.495356">
        <time>2022-07-12T07:20:20Z</time>
      </trkpt>
      <trkpt lat="42.780865" lon="-7.495418">
        <time>2022-07-12T07:20:24Z</time>
      </trkpt>
      <trkpt lat="42.780895" lon="-7.49547">
        <time>2022-07-12T07:20:28Z</time>
      </trkpt>
      <trkpt lat="42.78093" lon="-7.4955273">
        <time>2022-07-12T07:20:32Z</time>
      </trkpt>
      <trkpt lat="42.780952" lon="-7.4955974">
        <time>2022-07-12T07:20:37Z</time>
      </trkpt>
      <trkpt lat="42.780964" lon="-7.495665">
        <time>2022-07-12T07:20:42Z</time>
      </trkpt>
      <trkpt lat="42.78094" lon="-7.4957175">
        <time>2022-07-12T07:20:48Z</time>
      </trkpt>
      <trkpt lat="42.78089" lon="-7.4957576">
        <time>2022-07-12T07:20:54Z</time>
      </trkpt>
      <trkpt lat="42.78084" lon="-7.495792">
        <time>2022-07-12T07:20:59Z</time>
      </trkpt>
      <trkpt lat="42.78079" lon="-7.495821">
        <time>2022-07-12T07:21:03Z</time>
      </trkpt>
      <trkpt lat="42.780743" lon="-7.4958405">
        <time>2022-07-12T07:21:07Z</time>
      </trkpt>
      <trkpt lat="42.78068" lon="-7.4958773">
        <time>2022-07-12T07:21:12Z</time>
      </trkpt>
      <trkpt lat="42.780632" lon="-7.495896">
        <time>2022-07-12T07:21:16Z</time>
      </trkpt>
      <trkpt lat="42.780575" lon="-7.4959164">
        <time>2022-07-12T07:21:21Z</time>
      </trkpt>
      <trkpt lat="42.780525" lon="-7.495926">
        <time>2022-07-12T07:21:25Z</time>
      </trkpt>
      <trkpt lat="42.780464" lon="-7.49593">
        <time>2022-07-12T07:21:30Z</time>
      </trkpt>
      <trkpt lat="42.78042" lon="-7.4959335">
        <time>2022-07-12T07:21:34Z</time>
      </trkpt>
      <trkpt lat="42.78036" lon="-7.4959245">
        <time>2022-07-12T07:21:39Z</time>
      </trkpt>
      <trkpt lat="42.780308" lon="-7.495911">
        <time>2022-07-12T07:21:43Z</time>
      </trkpt>
      <trkpt lat="42.78026" lon="-7.495898">
        <time>2022-07-12T07:21:48Z</time>
      </trkpt>
      <trkpt lat="42.780205" lon="-7.495866">
        <time>2022-07-12T07:21:52Z</time>
      </trkpt>
      <trkpt lat="42.78015" lon="-7.4958296">
        <time>2022-07-12T07:21:57Z</time>
      </trkpt>
      <trkpt lat="42.780087" lon="-7.4958158">
        <time>2022-07-12T07:22:02Z</time>
      </trkpt>
      <trkpt lat="42.78003" lon="-7.4958153">
        <time>2022-07-12T07:22:07Z</time>
      </trkpt>
      <trkpt lat="42.779976" lon="-7.4958267">
        <time>2022-07-12T07:22:12Z</time>
      </trkpt>
      <trkpt lat="42.77992" lon="-7.495822">
        <time>2022-07-12T07:22:16Z</time>
      </trkpt>
      <trkpt lat="42.779865" lon="-7.495837">
        <time>2022-07-12T07:22:20Z</time>
      </trkpt>
      <trkpt lat="42.77981" lon="-7.4958515">
        <time>2022-07-12T07:22:25Z</time>
      </trkpt>
      <trkpt lat="42.779755" lon="-7.495878">
        <time>2022-07-12T07:22:31Z</time>
      </trkpt>
      <trkpt lat="42.77971" lon="-7.4959064">
        <time>2022-07-12T07:22:36Z</time>
      </trkpt>
      <trkpt lat="42.77968" lon="-7.4959393">
        <time>2022-07-12T07:22:51Z</time>
      </trkpt>
      <trkpt lat="42.77962" lon="-7.49597">
        <time>2022-07-12T07:22:56Z</time>
      </trkpt>
      <trkpt lat="42.779575" lon="-7.4960165">
        <time>2022-07-12T07:23:01Z</time>
      </trkpt>
      <trkpt lat="42.779533" lon="-7.4960594">
        <time>2022-07-12T07:23:05Z</time>
      </trkpt>
      <trkpt lat="42.779514" lon="-7.496134">
        <time>2022-07-12T07:23:10Z</time>
      </trkpt>
      <trkpt lat="42.77949" lon="-7.4962125">
        <time>2022-07-12T07:23:15Z</time>
      </trkpt>
      <trkpt lat="42.77946" lon="-7.496281">
        <time>2022-07-12T07:23:20Z</time>
      </trkpt>
      <trkpt lat="42.779457" lon="-7.496353">
        <time>2022-07-12T07:23:24Z</time>
      </trkpt>
      <trkpt lat="42.77945" lon="-7.4964375">
        <time>2022-07-12T07:23:29Z</time>
      </trkpt>
      <trkpt lat="42.77945" lon="-7.4965076">
        <time>2022-07-12T07:23:33Z</time>
      </trkpt>
      <trkpt lat="42.779453" lon="-7.4965925">
        <time>2022-07-12T07:23:38Z</time>
      </trkpt>
      <trkpt lat="42.779457" lon="-7.496679">
        <time>2022-07-12T07:23:43Z</time>
      </trkpt>
      <trkpt lat="42.779457" lon="-7.4967585">
        <time>2022-07-12T07:23:48Z</time>
      </trkpt>
      <trkpt lat="42.779457" lon="-7.496832">
        <time>2022-07-12T07:23:52Z</time>
      </trkpt>
      <trkpt lat="42.779446" lon="-7.4969096">
        <time>2022-07-12T07:23:57Z</time>
      </trkpt>
      <trkpt lat="42.77943" lon="-7.496983">
        <time>2022-07-12T07:24:02Z</time>
      </trkpt>
      <trkpt lat="42.779415" lon="-7.4970503">
        <time>2022-07-12T07:24:06Z</time>
      </trkpt>
      <trkpt lat="42.7794" lon="-7.4971232">
        <time>2022-07-12T07:24:10Z</time>
      </trkpt>
      <trkpt lat="42.779392" lon="-7.497194">
        <time>2022-07-12T07:24:14Z</time>
      </trkpt>
      <trkpt lat="42.779385" lon="-7.4972653">
        <time>2022-07-12T07:24:18Z</time>
      </trkpt>
      <trkpt lat="42.77938" lon="-7.497351">
        <time>2022-07-12T07:24:22Z</time>
      </trkpt>
      <trkpt lat="42.77937" lon="-7.4974284">
        <time>2022-07-12T07:24:26Z</time>
      </trkpt>
      <trkpt lat="42.779366" lon="-7.497498">
        <time>2022-07-12T07:24:30Z</time>
      </trkpt>
      <trkpt lat="42.779354" lon="-7.4975686">
        <time>2022-07-12T07:24:34Z</time>
      </trkpt>
      <trkpt lat="42.779343" lon="-7.497638">
        <time>2022-07-12T07:24:38Z</time>
      </trkpt>
      <trkpt lat="42.77934" lon="-7.4977164">
        <time>2022-07-12T07:24:42Z</time>
      </trkpt>
      <trkpt lat="42.77933" lon="-7.4977875">
        <time>2022-07-12T07:24:46Z</time>
      </trkpt>
      <trkpt lat="42.779324" lon="-7.49786">
        <time>2022-07-12T07:24:50Z</time>
      </trkpt>
      <trkpt lat="42.779316" lon="-7.497934">
        <time>2022-07-12T07:24:54Z</time>
      </trkpt>
      <trkpt lat="42.77931" lon="-7.4980493">
        <time>2022-07-12T07:24:59Z</time>
      </trkpt>
      <trkpt lat="42.779293" lon="-7.4981403">
        <time>2022-07-12T07:25:05Z</time>
      </trkpt>
      <trkpt lat="42.77928" lon="-7.4982133">
        <time>2022-07-12T07:25:09Z</time>
      </trkpt>
      <trkpt lat="42.77927" lon="-7.498285">
        <time>2022-07-12T07:25:13Z</time>
      </trkpt>
      <trkpt lat="42.77926" lon="-7.4983544">
        <time>2022-07-12T07:25:17Z</time>
      </trkpt>
      <trkpt lat="42.779247" lon="-7.4984264">
        <time>2022-07-12T07:25:21Z</time>
      </trkpt>
      <trkpt lat="42.779236" lon="-7.4985">
        <time>2022-07-12T07:25:25Z</time>
      </trkpt>
      <trkpt lat="42.77922" lon="-7.4985733">
        <time>2022-07-12T07:25:29Z</time>
      </trkpt>
      <trkpt lat="42.779205" lon="-7.4986453">
        <time>2022-07-12T07:25:33Z</time>
      </trkpt>
      <trkpt lat="42.779182" lon="-7.4987125">
        <time>2022-07-12T07:25:37Z</time>
      </trkpt>
      <trkpt lat="42.779163" lon="-7.498781">
        <time>2022-07-12T07:25:41Z</time>
      </trkpt>
      <trkpt lat="42.779144" lon="-7.4988456">
        <time>2022-07-12T07:25:45Z</time>
      </trkpt>
      <trkpt lat="42.779118" lon="-7.4989333">
        <time>2022-07-12T07:25:50Z</time>
      </trkpt>
      <trkpt lat="42.779095" lon="-7.4989963">
        <time>2022-07-12T07:25:54Z</time>
      </trkpt>
      <trkpt lat="42.77908" lon="-7.4990654">
        <time>2022-07-12T07:25:58Z</time>
      </trkpt>
      <trkpt lat="42.77905" lon="-7.4991317">
        <time>2022-07-12T07:26:03Z</time>
      </trkpt>
      <trkpt lat="42.779022" lon="-7.499187">
        <time>2022-07-12T07:26:07Z</time>
      </trkpt>
      <trkpt lat="42.778984" lon="-7.4992514">
        <time>2022-07-12T07:26:12Z</time>
      </trkpt>
      <trkpt lat="42.77893" lon="-7.4993134">
        <time>2022-07-12T07:26:17Z</time>
      </trkpt>
      <trkpt lat="42.778885" lon="-7.4993567">
        <time>2022-07-12T07:26:21Z</time>
      </trkpt>
      <trkpt lat="42.778843" lon="-7.4994035">
        <time>2022-07-12T07:26:26Z</time>
      </trkpt>
      <trkpt lat="42.7788" lon="-7.49945">
        <time>2022-07-12T07:26:31Z</time>
      </trkpt>
      <trkpt lat="42.778755" lon="-7.49949">
        <time>2022-07-12T07:26:35Z</time>
      </trkpt>
      <trkpt lat="42.7787" lon="-7.49952">
        <time>2022-07-12T07:26:40Z</time>
      </trkpt>
      <trkpt lat="42.77866" lon="-7.499556">
        <time>2022-07-12T07:26:44Z</time>
      </trkpt>
      <trkpt lat="42.77861" lon="-7.499596">
        <time>2022-07-12T07:26:48Z</time>
      </trkpt>
      <trkpt lat="42.77856" lon="-7.4996395">
        <time>2022-07-12T07:26:52Z</time>
      </trkpt>
      <trkpt lat="42.778507" lon="-7.499684">
        <time>2022-07-12T07:26:56Z</time>
      </trkpt>
      <trkpt lat="42.77846" lon="-7.499732">
        <time>2022-07-12T07:27:00Z</time>
      </trkpt>
      <trkpt lat="42.778416" lon="-7.499777">
        <time>2022-07-12T07:27:04Z</time>
      </trkpt>
      <trkpt lat="42.778374" lon="-7.4998236">
        <time>2022-07-12T07:27:08Z</time>
      </trkpt>
      <trkpt lat="42.77833" lon="-7.4998674">
        <time>2022-07-12T07:27:12Z</time>
      </trkpt>
      <trkpt lat="42.778297" lon="-7.499919">
        <time>2022-07-12T07:27:16Z</time>
      </trkpt>
      <trkpt lat="42.778255" lon="-7.4999776">
        <time>2022-07-12T07:27:21Z</time>
      </trkpt>
      <trkpt lat="42.778217" lon="-7.500018">
        <time>2022-07-12T07:27:25Z</time>
      </trkpt>
      <trkpt lat="42.77817" lon="-7.5000668">
        <time>2022-07-12T07:27:29Z</time>
      </trkpt>
      <trkpt lat="42.778126" lon="-7.5001035">
        <time>2022-07-12T07:27:33Z</time>
      </trkpt>
      <trkpt lat="42.778076" lon="-7.50015">
        <time>2022-07-12T07:27:38Z</time>
      </trkpt>
      <trkpt lat="42.778034" lon="-7.500192">
        <time>2022-07-12T07:27:42Z</time>
      </trkpt>
      <trkpt lat="42.777985" lon="-7.5002494">
        <time>2022-07-12T07:27:48Z</time>
      </trkpt>
      <trkpt lat="42.777946" lon="-7.5003023">
        <time>2022-07-12T07:27:52Z</time>
      </trkpt>
      <trkpt lat="42.777905" lon="-7.5003514">
        <time>2022-07-12T07:27:57Z</time>
      </trkpt>
      <trkpt lat="42.777866" lon="-7.5004096">
        <time>2022-07-12T07:28:02Z</time>
      </trkpt>
      <trkpt lat="42.77785" lon="-7.5004735">
        <time>2022-07-12T07:28:08Z</time>
      </trkpt>
      <trkpt lat="42.777824" lon="-7.500555">
        <time>2022-07-12T07:28:21Z</time>
      </trkpt>
      <trkpt lat="42.777813" lon="-7.5006266">
        <time>2022-07-12T07:28:25Z</time>
      </trkpt>
      <trkpt lat="42.777817" lon="-7.5007076">
        <time>2022-07-12T07:28:31Z</time>
      </trkpt>
      <trkpt lat="42.77782" lon="-7.5007663">
        <time>2022-07-12T07:28:37Z</time>
      </trkpt>
      <trkpt lat="42.777824" lon="-7.5008335">
        <time>2022-07-12T07:28:41Z</time>
      </trkpt>
      <trkpt lat="42.777817" lon="-7.50092">
        <time>2022-07-12T07:28:46Z</time>
      </trkpt>
      <trkpt lat="42.7778" lon="-7.50099">
        <time>2022-07-12T07:28:50Z</time>
      </trkpt>
      <trkpt lat="42.777782" lon="-7.5010624">
        <time>2022-07-12T07:28:54Z</time>
      </trkpt>
      <trkpt lat="42.777767" lon="-7.5011334">
        <time>2022-07-12T07:28:59Z</time>
      </trkpt>
      <trkpt lat="42.777744" lon="-7.501206">
        <time>2022-07-12T07:29:04Z</time>
      </trkpt>
      <trkpt lat="42.77772" lon="-7.501283">
        <time>2022-07-12T07:29:09Z</time>
      </trkpt>
      <trkpt lat="42.7777" lon="-7.501345">
        <time>2022-07-12T07:29:13Z</time>
      </trkpt>
      <trkpt lat="42.77768" lon="-7.5014033">
        <time>2022-07-12T07:29:17Z</time>
      </trkpt>
      <trkpt lat="42.777653" lon="-7.501478">
        <time>2022-07-12T07:29:22Z</time>
      </trkpt>
      <trkpt lat="42.777634" lon="-7.5015473">
        <time>2022-07-12T07:29:27Z</time>
      </trkpt>
      <trkpt lat="42.777615" lon="-7.501612">
        <time>2022-07-12T07:29:31Z</time>
      </trkpt>
      <trkpt lat="42.77759" lon="-7.5016866">
        <time>2022-07-12T07:29:36Z</time>
      </trkpt>
      <trkpt lat="42.777565" lon="-7.5017605">
        <time>2022-07-12T07:29:41Z</time>
      </trkpt>
      <trkpt lat="42.777534" lon="-7.5018167">
        <time>2022-07-12T07:29:46Z</time>
      </trkpt>
      <trkpt lat="42.777508" lon="-7.5018783">
        <time>2022-07-12T07:29:51Z</time>
      </trkpt>
      <trkpt lat="42.777462" lon="-7.5019464">
        <time>2022-07-12T07:29:56Z</time>
      </trkpt>
      <trkpt lat="42.77743" lon="-7.5020213">
        <time>2022-07-12T07:30:00Z</time>
      </trkpt>
      <trkpt lat="42.777412" lon="-7.502096">
        <time>2022-07-12T07:30:04Z</time>
      </trkpt>
      <trkpt lat="42.777397" lon="-7.502177">
        <time>2022-07-12T07:30:09Z</time>
      </trkpt>
      <trkpt lat="42.777397" lon="-7.5022535">
        <time>2022-07-12T07:30:13Z</time>
      </trkpt>
      <trkpt lat="42.7774" lon="-7.5023336">
        <time>2022-07-12T07:30:18Z</time>
      </trkpt>
      <trkpt lat="42.777397" lon="-7.502403">
        <time>2022-07-12T07:30:23Z</time>
      </trkpt>
      <trkpt lat="42.77739" lon="-7.5024767">
        <time>2022-07-12T07:30:28Z</time>
      </trkpt>
      <trkpt lat="42.77737" lon="-7.502546">
        <time>2022-07-12T07:30:33Z</time>
      </trkpt>
      <trkpt lat="42.777348" lon="-7.5026255">
        <time>2022-07-12T07:30:38Z</time>
      </trkpt>
      <trkpt lat="42.77732" lon="-7.5027003">
        <time>2022-07-12T07:30:43Z</time>
      </trkpt>
      <trkpt lat="42.777298" lon="-7.5027614">
        <time>2022-07-12T07:30:47Z</time>
      </trkpt>
      <trkpt lat="42.77729" lon="-7.5028286">
        <time>2022-07-12T07:30:51Z</time>
      </trkpt>
      <trkpt lat="42.777287" lon="-7.5029135">
        <time>2022-07-12T07:30:56Z</time>
      </trkpt>
      <trkpt lat="42.777294" lon="-7.5029902">
        <time>2022-07-12T07:31:00Z</time>
      </trkpt>
      <trkpt lat="42.7773" lon="-7.5030584">
        <time>2022-07-12T07:31:04Z</time>
      </trkpt>
      <trkpt lat="42.777306" lon="-7.503144">
        <time>2022-07-12T07:31:09Z</time>
      </trkpt>
      <trkpt lat="42.7773" lon="-7.50321">
        <time>2022-07-12T07:31:13Z</time>
      </trkpt>
      <trkpt lat="42.777298" lon="-7.503281">
        <time>2022-07-12T07:31:17Z</time>
      </trkpt>
      <trkpt lat="42.777306" lon="-7.503356">
        <time>2022-07-12T07:31:22Z</time>
      </trkpt>
      <trkpt lat="42.77734" lon="-7.503427">
        <time>2022-07-12T07:31:27Z</time>
      </trkpt>
      <trkpt lat="42.777363" lon="-7.503498">
        <time>2022-07-12T07:31:31Z</time>
      </trkpt>
      <trkpt lat="42.777378" lon="-7.5035625">
        <time>2022-07-12T07:31:34Z</time>
      </trkpt>
      <trkpt lat="42.77741" lon="-7.503627">
        <time>2022-07-12T07:31:38Z</time>
      </trkpt>
      <trkpt lat="42.777443" lon="-7.503676">
        <time>2022-07-12T07:31:42Z</time>
      </trkpt>
      <trkpt lat="42.777473" lon="-7.5037313">
        <time>2022-07-12T07:31:46Z</time>
      </trkpt>
      <trkpt lat="42.7775" lon="-7.503795">
        <time>2022-07-12T07:31:51Z</time>
      </trkpt>
      <trkpt lat="42.77752" lon="-7.5038795">
        <time>2022-07-12T07:31:56Z</time>
      </trkpt>
      <trkpt lat="42.77753" lon="-7.5039597">
        <time>2022-07-12T07:32:01Z</time>
      </trkpt>
      <trkpt lat="42.777527" lon="-7.504038">
        <time>2022-07-12T07:32:06Z</time>
      </trkpt>
      <trkpt lat="42.777527" lon="-7.504114">
        <time>2022-07-12T07:32:11Z</time>
      </trkpt>
      <trkpt lat="42.77752" lon="-7.5041785">
        <time>2022-07-12T07:32:15Z</time>
      </trkpt>
      <trkpt lat="42.777515" lon="-7.5042586">
        <time>2022-07-12T07:32:20Z</time>
      </trkpt>
      <trkpt lat="42.777523" lon="-7.504331">
        <time>2022-07-12T07:32:24Z</time>
      </trkpt>
      <trkpt lat="42.77753" lon="-7.5044136">
        <time>2022-07-12T07:32:28Z</time>
      </trkpt>
      <trkpt lat="42.777527" lon="-7.5045013">
        <time>2022-07-12T07:32:32Z</time>
      </trkpt>
      <trkpt lat="42.777515" lon="-7.504578">
        <time>2022-07-12T07:32:36Z</time>
      </trkpt>
      <trkpt lat="42.777493" lon="-7.504655">
        <time>2022-07-12T07:32:41Z</time>
      </trkpt>
      <trkpt lat="42.777466" lon="-7.504722">
        <time>2022-07-12T07:32:45Z</time>
      </trkpt>
      <trkpt lat="42.777447" lon="-7.5047793">
        <time>2022-07-12T07:32:49Z</time>
      </trkpt>
      <trkpt lat="42.777412" lon="-7.50485">
        <time>2022-07-12T07:32:54Z</time>
      </trkpt>
      <trkpt lat="42.77737" lon="-7.504903">
        <time>2022-07-12T07:32:58Z</time>
      </trkpt>
      <trkpt lat="42.777332" lon="-7.5049644">
        <time>2022-07-12T07:33:03Z</time>
      </trkpt>
      <trkpt lat="42.777306" lon="-7.5050244">
        <time>2022-07-12T07:33:07Z</time>
      </trkpt>
      <trkpt lat="42.77728" lon="-7.5050974">
        <time>2022-07-12T07:33:12Z</time>
      </trkpt>
      <trkpt lat="42.77726" lon="-7.5051703">
        <time>2022-07-12T07:33:16Z</time>
      </trkpt>
      <trkpt lat="42.77725" lon="-7.5052414">
        <time>2022-07-12T07:33:20Z</time>
      </trkpt>
      <trkpt lat="42.777237" lon="-7.5053215">
        <time>2022-07-12T07:33:24Z</time>
      </trkpt>
      <trkpt lat="42.777225" lon="-7.5053883">
        <time>2022-07-12T07:33:28Z</time>
      </trkpt>
      <trkpt lat="42.777206" lon="-7.5054655">
        <time>2022-07-12T07:33:33Z</time>
      </trkpt>
      <trkpt lat="42.777195" lon="-7.505536">
        <time>2022-07-12T07:33:37Z</time>
      </trkpt>
      <trkpt lat="42.777187" lon="-7.505613">
        <time>2022-07-12T07:33:41Z</time>
      </trkpt>
      <trkpt lat="42.777176" lon="-7.5056896">
        <time>2022-07-12T07:33:46Z</time>
      </trkpt>
      <trkpt lat="42.777172" lon="-7.505767">
        <time>2022-07-12T07:33:51Z</time>
      </trkpt>
      <trkpt lat="42.77717" lon="-7.5058618">
        <time>2022-07-12T07:33:56Z</time>
      </trkpt>
      <trkpt lat="42.77716" lon="-7.505931">
        <time>2022-07-12T07:34:00Z</time>
      </trkpt>
      <trkpt lat="42.777176" lon="-7.506026">
        <time>2022-07-12T07:34:06Z</time>
      </trkpt>
      <trkpt lat="42.777203" lon="-7.5060887">
        <time>2022-07-12T07:34:10Z</time>
      </trkpt>
      <trkpt lat="42.77723" lon="-7.506153">
        <time>2022-07-12T07:34:15Z</time>
      </trkpt>
      <trkpt lat="42.77726" lon="-7.506226">
        <time>2022-07-12T07:34:20Z</time>
      </trkpt>
      <trkpt lat="42.777294" lon="-7.5062885">
        <time>2022-07-12T07:34:24Z</time>
      </trkpt>
      <trkpt lat="42.77732" lon="-7.5063586">
        <time>2022-07-12T07:34:28Z</time>
      </trkpt>
      <trkpt lat="42.77735" lon="-7.5064335">
        <time>2022-07-12T07:34:32Z</time>
      </trkpt>
      <trkpt lat="42.77737" lon="-7.5065026">
        <time>2022-07-12T07:34:37Z</time>
      </trkpt>
      <trkpt lat="42.777393" lon="-7.5065784">
        <time>2022-07-12T07:34:43Z</time>
      </trkpt>
      <trkpt lat="42.77743" lon="-7.5066504">
        <time>2022-07-12T07:34:48Z</time>
      </trkpt>
      <trkpt lat="42.77748" lon="-7.5067205">
        <time>2022-07-12T07:34:54Z</time>
      </trkpt>
      <trkpt lat="42.77752" lon="-7.5067782">
        <time>2022-07-12T07:34:58Z</time>
      </trkpt>
      <trkpt lat="42.777557" lon="-7.506843">
        <time>2022-07-12T07:35:02Z</time>
      </trkpt>
      <trkpt lat="42.777596" lon="-7.5068974">
        <time>2022-07-12T07:35:06Z</time>
      </trkpt>
      <trkpt lat="42.777626" lon="-7.506948">
        <time>2022-07-12T07:35:09Z</time>
      </trkpt>
      <trkpt lat="42.777657" lon="-7.5070033">
        <time>2022-07-12T07:35:13Z</time>
      </trkpt>
      <trkpt lat="42.777687" lon="-7.5070643">
        <time>2022-07-12T07:35:18Z</time>
      </trkpt>
      <trkpt lat="42.777725" lon="-7.5071244">
        <time>2022-07-12T07:35:22Z</time>
      </trkpt>
      <trkpt lat="42.777767" lon="-7.507182">
        <time>2022-07-12T07:35:26Z</time>
      </trkpt>
      <trkpt lat="42.7778" lon="-7.5072274">
        <time>2022-07-12T07:35:30Z</time>
      </trkpt>
      <trkpt lat="42.777836" lon="-7.5072913">
        <time>2022-07-12T07:35:35Z</time>
      </trkpt>
      <trkpt lat="42.77788" lon="-7.507346">
        <time>2022-07-12T07:35:39Z</time>
      </trkpt>
      <trkpt lat="42.77792" lon="-7.507394">
        <time>2022-07-12T07:35:42Z</time>
      </trkpt>
      <trkpt lat="42.777966" lon="-7.507453">
        <time>2022-07-12T07:35:46Z</time>
      </trkpt>
      <trkpt lat="42.778004" lon="-7.507491">
        <time>2022-07-12T07:35:50Z</time>
      </trkpt>
      <trkpt lat="42.77805" lon="-7.5075483">
        <time>2022-07-12T07:35:55Z</time>
      </trkpt>
      <trkpt lat="42.77808" lon="-7.5076036">
        <time>2022-07-12T07:35:59Z</time>
      </trkpt>
      <trkpt lat="42.778122" lon="-7.507646">
        <time>2022-07-12T07:36:03Z</time>
      </trkpt>
      <trkpt lat="42.778168" lon="-7.5077024">
        <time>2022-07-12T07:36:08Z</time>
      </trkpt>
      <trkpt lat="42.778194" lon="-7.507772">
        <time>2022-07-12T07:36:13Z</time>
      </trkpt>
      <trkpt lat="42.77822" lon="-7.507853">
        <time>2022-07-12T07:36:17Z</time>
      </trkpt>
      <trkpt lat="42.778255" lon="-7.5079284">
        <time>2022-07-12T07:36:21Z</time>
      </trkpt>
      <trkpt lat="42.778286" lon="-7.507973">
        <time>2022-07-12T07:36:25Z</time>
      </trkpt>
      <trkpt lat="42.778336" lon="-7.508022">
        <time>2022-07-12T07:36:30Z</time>
      </trkpt>
      <trkpt lat="42.77837" lon="-7.5080676">
        <time>2022-07-12T07:36:34Z</time>
      </trkpt>
      <trkpt lat="42.778408" lon="-7.508129">
        <time>2022-07-12T07:36:39Z</time>
      </trkpt>
      <trkpt lat="42.778446" lon="-7.508165">
        <time>2022-07-12T07:36:43Z</time>
      </trkpt>
      <trkpt lat="42.77849" lon="-7.508204">
        <time>2022-07-12T07:36:48Z</time>
      </trkpt>
      <trkpt lat="42.77855" lon="-7.508234">
        <time>2022-07-12T07:36:54Z</time>
      </trkpt>
      <trkpt lat="42.778606" lon="-7.508271">
        <time>2022-07-12T07:36:59Z</time>
      </trkpt>
      <trkpt lat="42.778652" lon="-7.5083156">
        <time>2022-07-12T07:37:03Z</time>
      </trkpt>
      <trkpt lat="42.778694" lon="-7.5083723">
        <time>2022-07-12T07:37:08Z</time>
      </trkpt>
      <trkpt lat="42.778736" lon="-7.5084248">
        <time>2022-07-12T07:37:13Z</time>
      </trkpt>
      <trkpt lat="42.77877" lon="-7.508477">
        <time>2022-07-12T07:37:17Z</time>
      </trkpt>
      <trkpt lat="42.778786" lon="-7.50855">
        <time>2022-07-12T07:37:22Z</time>
      </trkpt>
      <trkpt lat="42.77877" lon="-7.508628">
        <time>2022-07-12T07:37:27Z</time>
      </trkpt>
      <trkpt lat="42.778744" lon="-7.508694">
        <time>2022-07-12T07:37:33Z</time>
      </trkpt>
      <trkpt lat="42.778713" lon="-7.508768">
        <time>2022-07-12T07:37:38Z</time>
      </trkpt>
      <trkpt lat="42.778698" lon="-7.5088325">
        <time>2022-07-12T07:37:42Z</time>
      </trkpt>
      <trkpt lat="42.77869" lon="-7.5089126">
        <time>2022-07-12T07:37:47Z</time>
      </trkpt>
      <trkpt lat="42.77868" lon="-7.5089855">
        <time>2022-07-12T07:37:52Z</time>
      </trkpt>
      <trkpt lat="42.778656" lon="-7.509064">
        <time>2022-07-12T07:37:57Z</time>
      </trkpt>
      <trkpt lat="42.77863" lon="-7.509133">
        <time>2022-07-12T07:38:02Z</time>
      </trkpt>
      <trkpt lat="42.778603" lon="-7.509199">
        <time>2022-07-12T07:38:07Z</time>
      </trkpt>
      <trkpt lat="42.778564" lon="-7.509258">
        <time>2022-07-12T07:38:12Z</time>
      </trkpt>
      <trkpt lat="42.778526" lon="-7.509311">
        <time>2022-07-12T07:38:17Z</time>
      </trkpt>
      <trkpt lat="42.778496" lon="-7.5093637">
        <time>2022-07-12T07:38:23Z</time>
      </trkpt>
      <trkpt lat="42.77846" lon="-7.509434">
        <time>2022-07-12T07:38:29Z</time>
      </trkpt>
      <trkpt lat="42.77842" lon="-7.509498">
        <time>2022-07-12T07:38:35Z</time>
      </trkpt>
      <trkpt lat="42.77839" lon="-7.509569">
        <time>2022-07-12T07:38:41Z</time>
      </trkpt>
      <trkpt lat="42.77837" lon="-7.509676">
        <time>2022-07-12T07:38:47Z</time>
      </trkpt>
      <trkpt lat="42.778362" lon="-7.5097184">
        <time>2022-07-12T07:38:51Z</time>
      </trkpt>
      <trkpt lat="42.778355" lon="-7.5097895">
        <time>2022-07-12T07:38:56Z</time>
      </trkpt>
      <trkpt lat="42.77836" lon="-7.509868">
        <time>2022-07-12T07:39:01Z</time>
      </trkpt>
      <trkpt lat="42.778366" lon="-7.509936">
        <time>2022-07-12T07:39:06Z</time>
      </trkpt>
      <trkpt lat="42.77838" lon="-7.510012">
        <time>2022-07-12T07:39:10Z</time>
      </trkpt>
      <trkpt lat="42.778397" lon="-7.510087">
        <time>2022-07-12T07:39:14Z</time>
      </trkpt>
      <trkpt lat="42.778408" lon="-7.5101557">
        <time>2022-07-12T07:39:19Z</time>
      </trkpt>
      <trkpt lat="42.778423" lon="-7.510226">
        <time>2022-07-12T07:39:26Z</time>
      </trkpt>
      <trkpt lat="42.778446" lon="-7.5103">
        <time>2022-07-12T07:39:31Z</time>
      </trkpt>
      <trkpt lat="42.778465" lon="-7.5103736">
        <time>2022-07-12T07:39:36Z</time>
      </trkpt>
      <trkpt lat="42.778484" lon="-7.510444">
        <time>2022-07-12T07:39:42Z</time>
      </trkpt>
      <trkpt lat="42.778492" lon="-7.510519">
        <time>2022-07-12T07:39:47Z</time>
      </trkpt>
      <trkpt lat="42.77851" lon="-7.510584">
        <time>2022-07-12T07:39:52Z</time>
      </trkpt>
      <trkpt lat="42.77853" lon="-7.51065">
        <time>2022-07-12T07:39:57Z</time>
      </trkpt>
      <trkpt lat="42.77855" lon="-7.510717">
        <time>2022-07-12T07:40:03Z</time>
      </trkpt>
      <trkpt lat="42.778572" lon="-7.5107865">
        <time>2022-07-12T07:40:08Z</time>
      </trkpt>
      <trkpt lat="42.778603" lon="-7.510858">
        <time>2022-07-12T07:40:13Z</time>
      </trkpt>
      <trkpt lat="42.778637" lon="-7.51093">
        <time>2022-07-12T07:40:17Z</time>
      </trkpt>
      <trkpt lat="42.778656" lon="-7.5109854">
        <time>2022-07-12T07:40:21Z</time>
      </trkpt>
      <trkpt lat="42.77866" lon="-7.5110664">
        <time>2022-07-12T07:40:26Z</time>
      </trkpt>
      <trkpt lat="42.77869" lon="-7.511129">
        <time>2022-07-12T07:40:31Z</time>
      </trkpt>
      <trkpt lat="42.778725" lon="-7.511188">
        <time>2022-07-12T07:40:36Z</time>
      </trkpt>
      <trkpt lat="42.778763" lon="-7.511257">
        <time>2022-07-12T07:40:42Z</time>
      </trkpt>
      <trkpt lat="42.778793" lon="-7.511322">
        <time>2022-07-12T07:40:47Z</time>
      </trkpt>
      <trkpt lat="42.778805" lon="-7.511391">
        <time>2022-07-12T07:40:51Z</time>
      </trkpt>
      <trkpt lat="42.77881" lon="-7.511466">
        <time>2022-07-12T07:40:55Z</time>
      </trkpt>
      <trkpt lat="42.778805" lon="-7.5115495">
        <time>2022-07-12T07:40:59Z</time>
      </trkpt>
      <trkpt lat="42.778805" lon="-7.5116343">
        <time>2022-07-12T07:41:03Z</time>
      </trkpt>
      <trkpt lat="42.778805" lon="-7.5117006">
        <time>2022-07-12T07:41:07Z</time>
      </trkpt>
      <trkpt lat="42.778805" lon="-7.5117946">
        <time>2022-07-12T07:41:12Z</time>
      </trkpt>
      <trkpt lat="42.778805" lon="-7.5118575">
        <time>2022-07-12T07:41:16Z</time>
      </trkpt>
      <trkpt lat="42.778793" lon="-7.51194">
        <time>2022-07-12T07:41:21Z</time>
      </trkpt>
      <trkpt lat="42.77878" lon="-7.5120196">
        <time>2022-07-12T07:41:26Z</time>
      </trkpt>
      <trkpt lat="42.778774" lon="-7.5120926">
        <time>2022-07-12T07:41:31Z</time>
      </trkpt>
      <trkpt lat="42.778767" lon="-7.5121655">
        <time>2022-07-12T07:41:36Z</time>
      </trkpt>
      <trkpt lat="42.77876" lon="-7.512245">
        <time>2022-07-12T07:41:41Z</time>
      </trkpt>
      <trkpt lat="42.77876" lon="-7.512318">
        <time>2022-07-12T07:41:46Z</time>
      </trkpt>
      <trkpt lat="42.778748" lon="-7.512404">
        <time>2022-07-12T07:41:51Z</time>
      </trkpt>
      <trkpt lat="42.778732" lon="-7.512486">
        <time>2022-07-12T07:41:56Z</time>
      </trkpt>
      <trkpt lat="42.778732" lon="-7.5125613">
        <time>2022-07-12T07:42:00Z</time>
      </trkpt>
      <trkpt lat="42.778744" lon="-7.5126443">
        <time>2022-07-12T07:42:05Z</time>
      </trkpt>
      <trkpt lat="42.778755" lon="-7.512717">
        <time>2022-07-12T07:42:09Z</time>
      </trkpt>
      <trkpt lat="42.778763" lon="-7.5127935">
        <time>2022-07-12T07:42:14Z</time>
      </trkpt>
      <trkpt lat="42.778778" lon="-7.512859">
        <time>2022-07-12T07:42:18Z</time>
      </trkpt>
      <trkpt lat="42.778793" lon="-7.512937">
        <time>2022-07-12T07:42:23Z</time>
      </trkpt>
      <trkpt lat="42.778805" lon="-7.513005">
        <time>2022-07-12T07:42:27Z</time>
      </trkpt>
      <trkpt lat="42.77882" lon="-7.513082">
        <time>2022-07-12T07:42:32Z</time>
      </trkpt>
      <trkpt lat="42.778843" lon="-7.5131545">
        <time>2022-07-12T07:42:37Z</time>
      </trkpt>
      <trkpt lat="42.77887" lon="-7.5132155">
        <time>2022-07-12T07:42:41Z</time>
      </trkpt>
      <trkpt lat="42.778893" lon="-7.5132904">
        <time>2022-07-12T07:42:46Z</time>
      </trkpt>
      <trkpt lat="42.77892" lon="-7.51336">
        <time>2022-07-12T07:42:51Z</time>
      </trkpt>
      <trkpt lat="42.778946" lon="-7.513417">
        <time>2022-07-12T07:42:55Z</time>
      </trkpt>
      <trkpt lat="42.778973" lon="-7.513484">
        <time>2022-07-12T07:43:00Z</time>
      </trkpt>
      <trkpt lat="42.77899" lon="-7.5135627">
        <time>2022-07-12T07:43:05Z</time>
      </trkpt>
      <trkpt lat="42.77901" lon="-7.513641">
        <time>2022-07-12T07:43:10Z</time>
      </trkpt>
      <trkpt lat="42.77903" lon="-7.513701">
        <time>2022-07-12T07:43:14Z</time>
      </trkpt>
      <trkpt lat="42.779034" lon="-7.513776">
        <time>2022-07-12T07:43:19Z</time>
      </trkpt>
      <trkpt lat="42.779034" lon="-7.513849">
        <time>2022-07-12T07:43:24Z</time>
      </trkpt>
      <trkpt lat="42.779026" lon="-7.5139217">
        <time>2022-07-12T07:43:29Z</time>
      </trkpt>
      <trkpt lat="42.779015" lon="-7.5140033">
        <time>2022-07-12T07:43:34Z</time>
      </trkpt>
      <trkpt lat="42.778996" lon="-7.5140834">
        <time>2022-07-12T07:43:39Z</time>
      </trkpt>
      <trkpt lat="42.778984" lon="-7.514163">
        <time>2022-07-12T07:43:44Z</time>
      </trkpt>
      <trkpt lat="42.778976" lon="-7.51424">
        <time>2022-07-12T07:43:49Z</time>
      </trkpt>
      <trkpt lat="42.77897" lon="-7.514321">
        <time>2022-07-12T07:43:54Z</time>
      </trkpt>
      <trkpt lat="42.77897" lon="-7.5143847">
        <time>2022-07-12T07:43:58Z</time>
      </trkpt>
      <trkpt lat="42.778976" lon="-7.5144506">
        <time>2022-07-12T07:44:03Z</time>
      </trkpt>
      <trkpt lat="42.77899" lon="-7.514522">
        <time>2022-07-12T07:44:08Z</time>
      </trkpt>
      <trkpt lat="42.77903" lon="-7.514591">
        <time>2022-07-12T07:44:13Z</time>
      </trkpt>
      <trkpt lat="42.77906" lon="-7.514632">
        <time>2022-07-12T07:44:17Z</time>
      </trkpt>
      <trkpt lat="42.779106" lon="-7.51468">
        <time>2022-07-12T07:44:22Z</time>
      </trkpt>
      <trkpt lat="42.77915" lon="-7.5147285">
        <time>2022-07-12T07:44:27Z</time>
      </trkpt>
      <trkpt lat="42.77919" lon="-7.5147743">
        <time>2022-07-12T07:44:32Z</time>
      </trkpt>
      <trkpt lat="42.779213" lon="-7.5148277">
        <time>2022-07-12T07:44:37Z</time>
      </trkpt>
      <trkpt lat="42.779232" lon="-7.5149093">
        <time>2022-07-12T07:44:43Z</time>
      </trkpt>
      <trkpt lat="42.77924" lon="-7.51499">
        <time>2022-07-12T07:44:49Z</time>
      </trkpt>
      <trkpt lat="42.779236" lon="-7.5150566">
        <time>2022-07-12T07:44:54Z</time>
      </trkpt>
      <trkpt lat="42.77923" lon="-7.5151296">
        <time>2022-07-12T07:44:59Z</time>
      </trkpt>
      <trkpt lat="42.779224" lon="-7.515203">
        <time>2022-07-12T07:45:04Z</time>
      </trkpt>
      <trkpt lat="42.779255" lon="-7.515274">
        <time>2022-07-12T07:45:15Z</time>
      </trkpt>
      <trkpt lat="42.779297" lon="-7.515314">
        <time>2022-07-12T07:45:21Z</time>
      </trkpt>
      <trkpt lat="42.77934" lon="-7.5153794">
        <time>2022-07-12T07:45:27Z</time>
      </trkpt>
      <trkpt lat="42.779373" lon="-7.515446">
        <time>2022-07-12T07:45:33Z</time>
      </trkpt>
      <trkpt lat="42.779415" lon="-7.5155067">
        <time>2022-07-12T07:45:39Z</time>
      </trkpt>
      <trkpt lat="42.779453" lon="-7.5155497">
        <time>2022-07-12T07:45:43Z</time>
      </trkpt>
      <trkpt lat="42.779503" lon="-7.515607">
        <time>2022-07-12T07:45:48Z</time>
      </trkpt>
      <trkpt lat="42.779552" lon="-7.5156426">
        <time>2022-07-12T07:45:52Z</time>
      </trkpt>
      <trkpt lat="42.779587" lon="-7.5156918">
        <time>2022-07-12T07:45:56Z</time>
      </trkpt>
      <trkpt lat="42.77961" lon="-7.5157523">
        <time>2022-07-12T07:46:01Z</time>
      </trkpt>
      <trkpt lat="42.77963" lon="-7.5158377">
        <time>2022-07-12T07:46:07Z</time>
      </trkpt>
      <trkpt lat="42.779655" lon="-7.5159087">
        <time>2022-07-12T07:46:11Z</time>
      </trkpt>
      <trkpt lat="42.779675" lon="-7.5159736">
        <time>2022-07-12T07:46:15Z</time>
      </trkpt>
      <trkpt lat="42.779686" lon="-7.51605">
        <time>2022-07-12T07:46:19Z</time>
      </trkpt>
      <trkpt lat="42.779694" lon="-7.516132">
        <time>2022-07-12T07:46:23Z</time>
      </trkpt>
      <trkpt lat="42.7797" lon="-7.5161977">
        <time>2022-07-12T07:46:27Z</time>
      </trkpt>
      <trkpt lat="42.779713" lon="-7.5162745">
        <time>2022-07-12T07:46:32Z</time>
      </trkpt>
      <trkpt lat="42.779716" lon="-7.516342">
        <time>2022-07-12T07:46:36Z</time>
      </trkpt>
      <trkpt lat="42.779724" lon="-7.516423">
        <time>2022-07-12T07:46:42Z</time>
      </trkpt>
      <trkpt lat="42.779724" lon="-7.5165043">
        <time>2022-07-12T07:46:48Z</time>
      </trkpt>
      <trkpt lat="42.779724" lon="-7.5165715">
        <time>2022-07-12T07:46:52Z</time>
      </trkpt>
      <trkpt lat="42.779728" lon="-7.516645">
        <time>2022-07-12T07:46:56Z</time>
      </trkpt>
      <trkpt lat="42.779728" lon="-7.5167246">
        <time>2022-07-12T07:47:01Z</time>
      </trkpt>
      <trkpt lat="42.77973" lon="-7.516791">
        <time>2022-07-12T07:47:05Z</time>
      </trkpt>
      <trkpt lat="42.779755" lon="-7.516861">
        <time>2022-07-12T07:47:09Z</time>
      </trkpt>
      <trkpt lat="42.779778" lon="-7.516925">
        <time>2022-07-12T07:47:13Z</time>
      </trkpt>
      <trkpt lat="42.779804" lon="-7.516987">
        <time>2022-07-12T07:47:17Z</time>
      </trkpt>
      <trkpt lat="42.77984" lon="-7.517063">
        <time>2022-07-12T07:47:22Z</time>
      </trkpt>
      <trkpt lat="42.77986" lon="-7.5171285">
        <time>2022-07-12T07:47:26Z</time>
      </trkpt>
      <trkpt lat="42.77989" lon="-7.5171957">
        <time>2022-07-12T07:47:30Z</time>
      </trkpt>
      <trkpt lat="42.77991" lon="-7.517253">
        <time>2022-07-12T07:47:34Z</time>
      </trkpt>
      <trkpt lat="42.779938" lon="-7.517328">
        <time>2022-07-12T07:47:39Z</time>
      </trkpt>
      <trkpt lat="42.779964" lon="-7.517389">
        <time>2022-07-12T07:47:43Z</time>
      </trkpt>
      <trkpt lat="42.779987" lon="-7.5174537">
        <time>2022-07-12T07:47:47Z</time>
      </trkpt>
      <trkpt lat="42.780014" lon="-7.5175147">
        <time>2022-07-12T07:47:51Z</time>
      </trkpt>
      <trkpt lat="42.780037" lon="-7.5175734">
        <time>2022-07-12T07:47:55Z</time>
      </trkpt>
      <trkpt lat="42.780067" lon="-7.517647">
        <time>2022-07-12T07:48:01Z</time>
      </trkpt>
      <trkpt lat="42.780094" lon="-7.517716">
        <time>2022-07-12T07:48:05Z</time>
      </trkpt>
      <trkpt lat="42.78012" lon="-7.517789">
        <time>2022-07-12T07:48:10Z</time>
      </trkpt>
      <trkpt lat="42.78014" lon="-7.517862">
        <time>2022-07-12T07:48:15Z</time>
      </trkpt>
      <trkpt lat="42.78015" lon="-7.51794">
        <time>2022-07-12T07:48:20Z</time>
      </trkpt>
      <trkpt lat="42.780167" lon="-7.5180135">
        <time>2022-07-12T07:48:25Z</time>
      </trkpt>
      <trkpt lat="42.78018" lon="-7.51809">
        <time>2022-07-12T07:48:30Z</time>
      </trkpt>
      <trkpt lat="42.780193" lon="-7.518157">
        <time>2022-07-12T07:48:34Z</time>
      </trkpt>
      <trkpt lat="42.780212" lon="-7.518224">
        <time>2022-07-12T07:48:38Z</time>
      </trkpt>
      <trkpt lat="42.78023" lon="-7.518303">
        <time>2022-07-12T07:48:43Z</time>
      </trkpt>
      <trkpt lat="42.78024" lon="-7.5183783">
        <time>2022-07-12T07:48:48Z</time>
      </trkpt>
      <trkpt lat="42.780247" lon="-7.5184407">
        <time>2022-07-12T07:48:53Z</time>
      </trkpt>
      <trkpt lat="42.780247" lon="-7.5185165">
        <time>2022-07-12T07:48:59Z</time>
      </trkpt>
      <trkpt lat="42.78026" lon="-7.518591">
        <time>2022-07-12T07:49:04Z</time>
      </trkpt>
      <trkpt lat="42.78028" lon="-7.51867">
        <time>2022-07-12T07:49:09Z</time>
      </trkpt>
      <trkpt lat="42.780293" lon="-7.5187583">
        <time>2022-07-12T07:49:14Z</time>
      </trkpt>
      <trkpt lat="42.780308" lon="-7.518836">
        <time>2022-07-12T07:49:18Z</time>
      </trkpt>
      <trkpt lat="42.780315" lon="-7.5189257">
        <time>2022-07-12T07:49:23Z</time>
      </trkpt>
      <trkpt lat="42.780334" lon="-7.518996">
        <time>2022-07-12T07:49:27Z</time>
      </trkpt>
      <trkpt lat="42.780354" lon="-7.5190597">
        <time>2022-07-12T07:49:31Z</time>
      </trkpt>
      <trkpt lat="42.78038" lon="-7.519129">
        <time>2022-07-12T07:49:36Z</time>
      </trkpt>
      <trkpt lat="42.7804" lon="-7.5191865">
        <time>2022-07-12T07:49:40Z</time>
      </trkpt>
      <trkpt lat="42.78042" lon="-7.5192537">
        <time>2022-07-12T07:49:45Z</time>
      </trkpt>
      <trkpt lat="42.780453" lon="-7.519315">
        <time>2022-07-12T07:49:50Z</time>
      </trkpt>
      <trkpt lat="42.78049" lon="-7.519372">
        <time>2022-07-12T07:49:55Z</time>
      </trkpt>
      <trkpt lat="42.78053" lon="-7.5194206">
        <time>2022-07-12T07:49:59Z</time>
      </trkpt>
      <trkpt lat="42.78058" lon="-7.5194707">
        <time>2022-07-12T07:50:04Z</time>
      </trkpt>
      <trkpt lat="42.78062" lon="-7.519513">
        <time>2022-07-12T07:50:08Z</time>
      </trkpt>
      <trkpt lat="42.78067" lon="-7.519554">
        <time>2022-07-12T07:50:12Z</time>
      </trkpt>
      <trkpt lat="42.78072" lon="-7.519587">
        <time>2022-07-12T07:50:16Z</time>
      </trkpt>
      <trkpt lat="42.78077" lon="-7.5196133">
        <time>2022-07-12T07:50:20Z</time>
      </trkpt>
      <trkpt lat="42.78082" lon="-7.5196514">
        <time>2022-07-12T07:50:24Z</time>
      </trkpt>
      <trkpt lat="42.78087" lon="-7.519696">
        <time>2022-07-12T07:50:29Z</time>
      </trkpt>
      <trkpt lat="42.780907" lon="-7.5197406">
        <time>2022-07-12T07:50:33Z</time>
      </trkpt>
      <trkpt lat="42.78095" lon="-7.5197873">
        <time>2022-07-12T07:50:37Z</time>
      </trkpt>
      <trkpt lat="42.78099" lon="-7.519836">
        <time>2022-07-12T07:50:41Z</time>
      </trkpt>
      <trkpt lat="42.781036" lon="-7.519884">
        <time>2022-07-12T07:50:45Z</time>
      </trkpt>
      <trkpt lat="42.781082" lon="-7.519931">
        <time>2022-07-12T07:50:49Z</time>
      </trkpt>
      <trkpt lat="42.78112" lon="-7.51998">
        <time>2022-07-12T07:50:53Z</time>
      </trkpt>
      <trkpt lat="42.78116" lon="-7.5200443">
        <time>2022-07-12T07:50:58Z</time>
      </trkpt>
      <trkpt lat="42.781204" lon="-7.5201163">
        <time>2022-07-12T07:51:03Z</time>
      </trkpt>
      <trkpt lat="42.78124" lon="-7.520178">
        <time>2022-07-12T07:51:07Z</time>
      </trkpt>
      <trkpt lat="42.78126" lon="-7.5202436">
        <time>2022-07-12T07:51:11Z</time>
      </trkpt>
      <trkpt lat="42.78128" lon="-7.520316">
        <time>2022-07-12T07:51:16Z</time>
      </trkpt>
      <trkpt lat="42.781315" lon="-7.520381">
        <time>2022-07-12T07:51:21Z</time>
      </trkpt>
      <trkpt lat="42.781345" lon="-7.520447">
        <time>2022-07-12T07:51:25Z</time>
      </trkpt>
      <trkpt lat="42.781364" lon="-7.520516">
        <time>2022-07-12T07:51:29Z</time>
      </trkpt>
      <trkpt lat="42.78139" lon="-7.5205874">
        <time>2022-07-12T07:51:33Z</time>
      </trkpt>
      <trkpt lat="42.781418" lon="-7.520653">
        <time>2022-07-12T07:51:37Z</time>
      </trkpt>
      <trkpt lat="42.781452" lon="-7.52071">
        <time>2022-07-12T07:51:41Z</time>
      </trkpt>
      <trkpt lat="42.7815" lon="-7.520756">
        <time>2022-07-12T07:51:45Z</time>
      </trkpt>
      <trkpt lat="42.781544" lon="-7.5207777">
        <time>2022-07-12T07:51:49Z</time>
      </trkpt>
      <trkpt lat="42.781605" lon="-7.520767">
        <time>2022-07-12T07:51:54Z</time>
      </trkpt>
      <trkpt lat="42.781666" lon="-7.5207486">
        <time>2022-07-12T07:51:58Z</time>
      </trkpt>
      <trkpt lat="42.781723" lon="-7.5207353">
        <time>2022-07-12T07:52:02Z</time>
      </trkpt>
      <trkpt lat="42.78178" lon="-7.5207343">
        <time>2022-07-12T07:52:07Z</time>
      </trkpt>
      <trkpt lat="42.781834" lon="-7.5207443">
        <time>2022-07-12T07:52:11Z</time>
      </trkpt>
      <trkpt lat="42.781883" lon="-7.520769">
        <time>2022-07-12T07:52:15Z</time>
      </trkpt>
      <trkpt lat="42.78192" lon="-7.520827">
        <time>2022-07-12T07:52:20Z</time>
      </trkpt>
      <trkpt lat="42.78196" lon="-7.520881">
        <time>2022-07-12T07:52:24Z</time>
      </trkpt>
      <trkpt lat="42.78199" lon="-7.5209346">
        <time>2022-07-12T07:52:28Z</time>
      </trkpt>
      <trkpt lat="42.78202" lon="-7.521003">
        <time>2022-07-12T07:52:33Z</time>
      </trkpt>
      <trkpt lat="42.782055" lon="-7.521071">
        <time>2022-07-12T07:52:37Z</time>
      </trkpt>
      <trkpt lat="42.78208" lon="-7.5211377">
        <time>2022-07-12T07:52:42Z</time>
      </trkpt>
      <trkpt lat="42.782124" lon="-7.5211897">
        <time>2022-07-12T07:52:48Z</time>
      </trkpt>
      <trkpt lat="42.78217" lon="-7.521232">
        <time>2022-07-12T07:52:53Z</time>
      </trkpt>
      <trkpt lat="42.782223" lon="-7.521238">
        <time>2022-07-12T07:52:59Z</time>
      </trkpt>
      <trkpt lat="42.782288" lon="-7.521229">
        <time>2022-07-12T07:53:04Z</time>
      </trkpt>
      <trkpt lat="42.78235" lon="-7.521216">
        <time>2022-07-12T07:53:08Z</time>
      </trkpt>
      <trkpt lat="42.7824" lon="-7.5212">
        <time>2022-07-12T07:53:12Z</time>
      </trkpt>
      <trkpt lat="42.78245" lon="-7.521162">
        <time>2022-07-12T07:53:17Z</time>
      </trkpt>
      <trkpt lat="42.78249" lon="-7.521133">
        <time>2022-07-12T07:53:21Z</time>
      </trkpt>
      <trkpt lat="42.782524" lon="-7.521085">
        <time>2022-07-12T07:53:28Z</time>
      </trkpt>
      <trkpt lat="42.782505" lon="-7.521088">
        <time>2022-07-12T07:53:48Z</time>
      </trkpt>
      <trkpt lat="42.782505" lon="-7.521131">
        <time>2022-07-12T07:58:40Z</time>
      </trkpt>
      <trkpt lat="42.78256" lon="-7.5211215">
        <time>2022-07-12T07:58:44Z</time>
      </trkpt>
      <trkpt lat="42.782616" lon="-7.521104">
        <time>2022-07-12T07:58:49Z</time>
      </trkpt>
      <trkpt lat="42.78267" lon="-7.521089">
        <time>2022-07-12T07:58:53Z</time>
      </trkpt>
      <trkpt lat="42.782726" lon="-7.5210795">
        <time>2022-07-12T07:58:58Z</time>
      </trkpt>
      <trkpt lat="42.782784" lon="-7.5210795">
        <time>2022-07-12T07:59:02Z</time>
      </trkpt>
      <trkpt lat="42.782833" lon="-7.521104">
        <time>2022-07-12T07:59:06Z</time>
      </trkpt>
      <trkpt lat="42.782887" lon="-7.521159">
        <time>2022-07-12T07:59:11Z</time>
      </trkpt>
      <trkpt lat="42.782936" lon="-7.52121">
        <time>2022-07-12T07:59:16Z</time>
      </trkpt>
      <trkpt lat="42.782974" lon="-7.5212274">
        <time>2022-07-12T07:59:21Z</time>
      </trkpt>
      <trkpt lat="42.783035" lon="-7.521235">
        <time>2022-07-12T07:59:32Z</time>
      </trkpt>
      <trkpt lat="42.78309" lon="-7.5212274">
        <time>2022-07-12T07:59:37Z</time>
      </trkpt>
      <trkpt lat="42.783142" lon="-7.5212264">
        <time>2022-07-12T07:59:43Z</time>
      </trkpt>
      <trkpt lat="42.783195" lon="-7.521231">
        <time>2022-07-12T07:59:48Z</time>
      </trkpt>
      <trkpt lat="42.78326" lon="-7.521243">
        <time>2022-07-12T07:59:53Z</time>
      </trkpt>
      <trkpt lat="42.78331" lon="-7.5212665">
        <time>2022-07-12T07:59:58Z</time>
      </trkpt>
      <trkpt lat="42.78336" lon="-7.521306">
        <time>2022-07-12T08:00:03Z</time>
      </trkpt>
      <trkpt lat="42.783394" lon="-7.521352">
        <time>2022-07-12T08:00:07Z</time>
      </trkpt>
      <trkpt lat="42.783443" lon="-7.5213876">
        <time>2022-07-12T08:00:11Z</time>
      </trkpt>
      <trkpt lat="42.783493" lon="-7.521406">
        <time>2022-07-12T08:00:15Z</time>
      </trkpt>
      <trkpt lat="42.78355" lon="-7.521403">
        <time>2022-07-12T08:00:21Z</time>
      </trkpt>
      <trkpt lat="42.7836" lon="-7.521362">
        <time>2022-07-12T08:00:27Z</time>
      </trkpt>
      <trkpt lat="42.78365" lon="-7.52133">
        <time>2022-07-12T08:00:32Z</time>
      </trkpt>
      <trkpt lat="42.7837" lon="-7.5213">
        <time>2022-07-12T08:00:36Z</time>
      </trkpt>
      <trkpt lat="42.783752" lon="-7.5212626">
        <time>2022-07-12T08:00:41Z</time>
      </trkpt>
      <trkpt lat="42.78379" lon="-7.5212226">
        <time>2022-07-12T08:00:44Z</time>
      </trkpt>
      <trkpt lat="42.783836" lon="-7.5211897">
        <time>2022-07-12T08:00:49Z</time>
      </trkpt>
      <trkpt lat="42.783894" lon="-7.521144">
        <time>2022-07-12T08:00:54Z</time>
      </trkpt>
      <trkpt lat="42.783955" lon="-7.5211">
        <time>2022-07-12T08:00:58Z</time>
      </trkpt>
      <trkpt lat="42.784004" lon="-7.5210767">
        <time>2022-07-12T08:01:01Z</time>
      </trkpt>
      <trkpt lat="42.78405" lon="-7.5210657">
        <time>2022-07-12T08:01:04Z</time>
      </trkpt>
      <trkpt lat="42.7841" lon="-7.521074">
        <time>2022-07-12T08:01:09Z</time>
      </trkpt>
      <trkpt lat="42.784157" lon="-7.521101">
        <time>2022-07-12T08:01:14Z</time>
      </trkpt>
      <trkpt lat="42.784206" lon="-7.521134">
        <time>2022-07-12T08:01:18Z</time>
      </trkpt>
      <trkpt lat="42.78426" lon="-7.5211635">
        <time>2022-07-12T08:01:23Z</time>
      </trkpt>
      <trkpt lat="42.784306" lon="-7.521188">
        <time>2022-07-12T08:01:27Z</time>
      </trkpt>
      <trkpt lat="42.784367" lon="-7.5212145">
        <time>2022-07-12T08:01:32Z</time>
      </trkpt>
      <trkpt lat="42.784416" lon="-7.521237">
        <time>2022-07-12T08:01:36Z</time>
      </trkpt>
      <trkpt lat="42.784473" lon="-7.5212655">
        <time>2022-07-12T08:01:41Z</time>
      </trkpt>
      <trkpt lat="42.78453" lon="-7.5212917">
        <time>2022-07-12T08:01:46Z</time>
      </trkpt>
      <trkpt lat="42.784584" lon="-7.5213165">
        <time>2022-07-12T08:01:51Z</time>
      </trkpt>
      <trkpt lat="42.78464" lon="-7.521349">
        <time>2022-07-12T08:01:56Z</time>
      </trkpt>
      <trkpt lat="42.784695" lon="-7.5213714">
        <time>2022-07-12T08:02:00Z</time>
      </trkpt>
      <trkpt lat="42.784744" lon="-7.521395">
        <time>2022-07-12T08:02:04Z</time>
      </trkpt>
      <trkpt lat="42.784786" lon="-7.521424">
        <time>2022-07-12T08:02:08Z</time>
      </trkpt>
      <trkpt lat="42.784832" lon="-7.521462">
        <time>2022-07-12T08:02:12Z</time>
      </trkpt>
      <trkpt lat="42.78488" lon="-7.5215025">
        <time>2022-07-12T08:02:16Z</time>
      </trkpt>
      <trkpt lat="42.784924" lon="-7.521551">
        <time>2022-07-12T08:02:21Z</time>
      </trkpt>
      <trkpt lat="42.784958" lon="-7.5215974">
        <time>2022-07-12T08:02:25Z</time>
      </trkpt>
      <trkpt lat="42.785" lon="-7.5216527">
        <time>2022-07-12T08:02:30Z</time>
      </trkpt>
      <trkpt lat="42.78503" lon="-7.5217">
        <time>2022-07-12T08:02:34Z</time>
      </trkpt>
      <trkpt lat="42.785076" lon="-7.521758">
        <time>2022-07-12T08:02:39Z</time>
      </trkpt>
      <trkpt lat="42.78511" lon="-7.5218177">
        <time>2022-07-12T08:02:43Z</time>
      </trkpt>
      <trkpt lat="42.78514" lon="-7.521867">
        <time>2022-07-12T08:02:46Z</time>
      </trkpt>
      <trkpt lat="42.78518" lon="-7.5219307">
        <time>2022-07-12T08:02:51Z</time>
      </trkpt>
      <trkpt lat="42.785225" lon="-7.521985">
        <time>2022-07-12T08:02:56Z</time>
      </trkpt>
      <trkpt lat="42.785255" lon="-7.5220532">
        <time>2022-07-12T08:03:01Z</time>
      </trkpt>
      <trkpt lat="42.78527" lon="-7.522123">
        <time>2022-07-12T08:03:06Z</time>
      </trkpt>
      <trkpt lat="42.785275" lon="-7.5221906">
        <time>2022-07-12T08:03:11Z</time>
      </trkpt>
      <trkpt lat="42.785267" lon="-7.5222645">
        <time>2022-07-12T08:03:16Z</time>
      </trkpt>
      <trkpt lat="42.78526" lon="-7.522348">
        <time>2022-07-12T08:03:21Z</time>
      </trkpt>
      <trkpt lat="42.785248" lon="-7.522419">
        <time>2022-07-12T08:03:26Z</time>
      </trkpt>
      <trkpt lat="42.785233" lon="-7.522496">
        <time>2022-07-12T08:03:32Z</time>
      </trkpt>
      <trkpt lat="42.78521" lon="-7.522581">
        <time>2022-07-12T08:03:38Z</time>
      </trkpt>
      <trkpt lat="42.78519" lon="-7.5226526">
        <time>2022-07-12T08:03:43Z</time>
      </trkpt>
      <trkpt lat="42.785168" lon="-7.5227265">
        <time>2022-07-12T08:03:48Z</time>
      </trkpt>
      <trkpt lat="42.78515" lon="-7.522796">
        <time>2022-07-12T08:03:53Z</time>
      </trkpt>
      <trkpt lat="42.785126" lon="-7.5228715">
        <time>2022-07-12T08:03:58Z</time>
      </trkpt>
      <trkpt lat="42.785095" lon="-7.522936">
        <time>2022-07-12T08:04:03Z</time>
      </trkpt>
      <trkpt lat="42.785065" lon="-7.523002">
        <time>2022-07-12T08:04:08Z</time>
      </trkpt>
      <trkpt lat="42.785038" lon="-7.523072">
        <time>2022-07-12T08:04:13Z</time>
      </trkpt>
      <trkpt lat="42.785007" lon="-7.5231333">
        <time>2022-07-12T08:04:18Z</time>
      </trkpt>
      <trkpt lat="42.78496" lon="-7.5231943">
        <time>2022-07-12T08:04:22Z</time>
      </trkpt>
      <trkpt lat="42.784935" lon="-7.5232472">
        <time>2022-07-12T08:04:26Z</time>
      </trkpt>
      <trkpt lat="42.78491" lon="-7.52332">
        <time>2022-07-12T08:04:32Z</time>
      </trkpt>
      <trkpt lat="42.784878" lon="-7.5233784">
        <time>2022-07-12T08:04:37Z</time>
      </trkpt>
      <trkpt lat="42.784843" lon="-7.523443">
        <time>2022-07-12T08:04:42Z</time>
      </trkpt>
      <trkpt lat="42.78483" lon="-7.523508">
        <time>2022-07-12T08:04:47Z</time>
      </trkpt>
      <trkpt lat="42.7848" lon="-7.5235786">
        <time>2022-07-12T08:04:52Z</time>
      </trkpt>
      <trkpt lat="42.78477" lon="-7.523648">
        <time>2022-07-12T08:04:57Z</time>
      </trkpt>
      <trkpt lat="42.784733" lon="-7.523715">
        <time>2022-07-12T08:05:02Z</time>
      </trkpt>
      <trkpt lat="42.784706" lon="-7.5237656">
        <time>2022-07-12T08:05:06Z</time>
      </trkpt>
      <trkpt lat="42.784676" lon="-7.523832">
        <time>2022-07-12T08:05:11Z</time>
      </trkpt>
      <trkpt lat="42.78464" lon="-7.523901">
        <time>2022-07-12T08:05:16Z</time>
      </trkpt>
      <trkpt lat="42.78462" lon="-7.52396">
        <time>2022-07-12T08:05:21Z</time>
      </trkpt>
      <trkpt lat="42.784595" lon="-7.524042">
        <time>2022-07-12T08:05:27Z</time>
      </trkpt>
      <trkpt lat="42.784573" lon="-7.5241146">
        <time>2022-07-12T08:05:31Z</time>
      </trkpt>
      <trkpt lat="42.784557" lon="-7.5241804">
        <time>2022-07-12T08:05:35Z</time>
      </trkpt>
      <trkpt lat="42.784542" lon="-7.524253">
        <time>2022-07-12T08:05:40Z</time>
      </trkpt>
      <trkpt lat="42.78452" lon="-7.52432">
        <time>2022-07-12T08:05:44Z</time>
      </trkpt>
      <trkpt lat="42.7845" lon="-7.5243883">
        <time>2022-07-12T08:05:48Z</time>
      </trkpt>
      <trkpt lat="42.784477" lon="-7.524472">
        <time>2022-07-12T08:05:53Z</time>
      </trkpt>
      <trkpt lat="42.784454" lon="-7.524537">
        <time>2022-07-12T08:05:57Z</time>
      </trkpt>
      <trkpt lat="42.784435" lon="-7.524616">
        <time>2022-07-12T08:06:02Z</time>
      </trkpt>
      <trkpt lat="42.784412" lon="-7.524695">
        <time>2022-07-12T08:06:07Z</time>
      </trkpt>
      <trkpt lat="42.784393" lon="-7.5247707">
        <time>2022-07-12T08:06:12Z</time>
      </trkpt>
      <trkpt lat="42.784374" lon="-7.524834">
        <time>2022-07-12T08:06:16Z</time>
      </trkpt>
      <trkpt lat="42.784355" lon="-7.524897">
        <time>2022-07-12T08:06:21Z</time>
      </trkpt>
      <trkpt lat="42.784336" lon="-7.524967">
        <time>2022-07-12T08:06:26Z</time>
      </trkpt>
      <trkpt lat="42.78432" lon="-7.5250287">
        <time>2022-07-12T08:06:29Z</time>
      </trkpt>
      <trkpt lat="42.78429" lon="-7.525116">
        <time>2022-07-12T08:06:35Z</time>
      </trkpt>
      <trkpt lat="42.784267" lon="-7.5251803">
        <time>2022-07-12T08:06:39Z</time>
      </trkpt>
      <trkpt lat="42.784245" lon="-7.5252333">
        <time>2022-07-12T08:06:44Z</time>
      </trkpt>
      <trkpt lat="42.784203" lon="-7.5253124">
        <time>2022-07-12T08:06:55Z</time>
      </trkpt>
      <trkpt lat="42.784157" lon="-7.5253825">
        <time>2022-07-12T08:07:02Z</time>
      </trkpt>
      <trkpt lat="42.784122" lon="-7.525448">
        <time>2022-07-12T08:07:07Z</time>
      </trkpt>
      <trkpt lat="42.784096" lon="-7.5255113">
        <time>2022-07-12T08:07:12Z</time>
      </trkpt>
      <trkpt lat="42.784073" lon="-7.525574">
        <time>2022-07-12T08:07:17Z</time>
      </trkpt>
      <trkpt lat="42.784046" lon="-7.5256433">
        <time>2022-07-12T08:07:22Z</time>
      </trkpt>
      <trkpt lat="42.78403" lon="-7.52573">
        <time>2022-07-12T08:07:26Z</time>
      </trkpt>
      <trkpt lat="42.784023" lon="-7.525805">
        <time>2022-07-12T08:07:30Z</time>
      </trkpt>
      <trkpt lat="42.784023" lon="-7.5258765">
        <time>2022-07-12T08:07:34Z</time>
      </trkpt>
      <trkpt lat="42.784042" lon="-7.525955">
        <time>2022-07-12T08:07:39Z</time>
      </trkpt>
      <trkpt lat="42.78406" lon="-7.526037">
        <time>2022-07-12T08:07:44Z</time>
      </trkpt>
      <trkpt lat="42.78408" lon="-7.526109">
        <time>2022-07-12T08:07:48Z</time>
      </trkpt>
      <trkpt lat="42.78409" lon="-7.5261784">
        <time>2022-07-12T08:07:52Z</time>
      </trkpt>
      <trkpt lat="42.78409" lon="-7.5262547">
        <time>2022-07-12T08:07:57Z</time>
      </trkpt>
      <trkpt lat="42.78408" lon="-7.526327">
        <time>2022-07-12T08:08:01Z</time>
      </trkpt>
      <trkpt lat="42.78406" lon="-7.526401">
        <time>2022-07-12T08:08:06Z</time>
      </trkpt>
      <trkpt lat="42.784042" lon="-7.526477">
        <time>2022-07-12T08:08:11Z</time>
      </trkpt>
      <trkpt lat="42.78401" lon="-7.5265512">
        <time>2022-07-12T08:08:16Z</time>
      </trkpt>
      <trkpt lat="42.78398" lon="-7.526614">
        <time>2022-07-12T08:08:20Z</time>
      </trkpt>
      <trkpt lat="42.783955" lon="-7.5266786">
        <time>2022-07-12T08:08:24Z</time>
      </trkpt>
      <trkpt lat="42.783928" lon="-7.526742">
        <time>2022-07-12T08:08:28Z</time>
      </trkpt>
      <trkpt lat="42.783894" lon="-7.5268106">
        <time>2022-07-12T08:08:33Z</time>
      </trkpt>
      <trkpt lat="42.783863" lon="-7.526873">
        <time>2022-07-12T08:08:37Z</time>
      </trkpt>
      <trkpt lat="42.783833" lon="-7.5269337">
        <time>2022-07-12T08:08:41Z</time>
      </trkpt>
      <trkpt lat="42.7838" lon="-7.526999">
        <time>2022-07-12T08:08:46Z</time>
      </trkpt>
      <trkpt lat="42.783768" lon="-7.5270667">
        <time>2022-07-12T08:08:50Z</time>
      </trkpt>
      <trkpt lat="42.783726" lon="-7.527175">
        <time>2022-07-12T08:08:56Z</time>
      </trkpt>
      <trkpt lat="42.783714" lon="-7.5272117">
        <time>2022-07-12T08:09:00Z</time>
      </trkpt>
      <trkpt lat="42.783695" lon="-7.52728">
        <time>2022-07-12T08:09:04Z</time>
      </trkpt>
      <trkpt lat="42.783672" lon="-7.527347">
        <time>2022-07-12T08:09:08Z</time>
      </trkpt>
      <trkpt lat="42.78365" lon="-7.527421">
        <time>2022-07-12T08:09:13Z</time>
      </trkpt>
      <trkpt lat="42.783638" lon="-7.527492">
        <time>2022-07-12T08:09:17Z</time>
      </trkpt>
      <trkpt lat="42.783634" lon="-7.5275693">
        <time>2022-07-12T08:09:25Z</time>
      </trkpt>
      <trkpt lat="42.78363" lon="-7.5276566">
        <time>2022-07-12T08:09:31Z</time>
      </trkpt>
      <trkpt lat="42.783634" lon="-7.527741">
        <time>2022-07-12T08:09:37Z</time>
      </trkpt>
      <trkpt lat="42.783634" lon="-7.527814">
        <time>2022-07-12T08:09:41Z</time>
      </trkpt>
      <trkpt lat="42.783627" lon="-7.527888">
        <time>2022-07-12T08:09:46Z</time>
      </trkpt>
      <trkpt lat="42.78362" lon="-7.527982">
        <time>2022-07-12T08:09:51Z</time>
      </trkpt>
      <trkpt lat="42.78363" lon="-7.52806">
        <time>2022-07-12T08:09:55Z</time>
      </trkpt>
      <trkpt lat="42.783634" lon="-7.528139">
        <time>2022-07-12T08:10:00Z</time>
      </trkpt>
      <trkpt lat="42.783646" lon="-7.5282097">
        <time>2022-07-12T08:10:05Z</time>
      </trkpt>
      <trkpt lat="42.783665" lon="-7.5282907">
        <time>2022-07-12T08:10:11Z</time>
      </trkpt>
      <trkpt lat="42.783676" lon="-7.5283723">
        <time>2022-07-12T08:10:17Z</time>
      </trkpt>
      <trkpt lat="42.783684" lon="-7.528448">
        <time>2022-07-12T08:10:22Z</time>
      </trkpt>
      <trkpt lat="42.7837" lon="-7.5285234">
        <time>2022-07-12T08:10:28Z</time>
      </trkpt>
      <trkpt lat="42.78372" lon="-7.5285845">
        <time>2022-07-12T08:10:32Z</time>
      </trkpt>
      <trkpt lat="42.78373" lon="-7.5286713">
        <time>2022-07-12T08:10:37Z</time>
      </trkpt>
      <trkpt lat="42.783733" lon="-7.5287433">
        <time>2022-07-12T08:10:41Z</time>
      </trkpt>
      <trkpt lat="42.78375" lon="-7.528824">
        <time>2022-07-12T08:10:46Z</time>
      </trkpt>
      <trkpt lat="42.78375" lon="-7.528898">
        <time>2022-07-12T08:10:50Z</time>
      </trkpt>
      <trkpt lat="42.78376" lon="-7.52898">
        <time>2022-07-12T08:10:54Z</time>
      </trkpt>
      <trkpt lat="42.783764" lon="-7.529063">
        <time>2022-07-12T08:10:58Z</time>
      </trkpt>
      <trkpt lat="42.783775" lon="-7.5291295">
        <time>2022-07-12T08:11:02Z</time>
      </trkpt>
      <trkpt lat="42.783794" lon="-7.5292134">
        <time>2022-07-12T08:11:07Z</time>
      </trkpt>
      <trkpt lat="42.78381" lon="-7.5292916">
        <time>2022-07-12T08:11:11Z</time>
      </trkpt>
      <trkpt lat="42.783813" lon="-7.5293703">
        <time>2022-07-12T08:11:16Z</time>
      </trkpt>
      <trkpt lat="42.783813" lon="-7.52944">
        <time>2022-07-12T08:11:20Z</time>
      </trkpt>
      <trkpt lat="42.783806" lon="-7.5295057">
        <time>2022-07-12T08:11:24Z</time>
      </trkpt>
      <trkpt lat="42.783833" lon="-7.529577">
        <time>2022-07-12T08:11:29Z</time>
      </trkpt>
      <trkpt lat="42.783882" lon="-7.529623">
        <time>2022-07-12T08:11:33Z</time>
      </trkpt>
      <trkpt lat="42.78393" lon="-7.5296626">
        <time>2022-07-12T08:11:37Z</time>
      </trkpt>
      <trkpt lat="42.783947" lon="-7.5297337">
        <time>2022-07-12T08:11:42Z</time>
      </trkpt>
      <trkpt lat="42.78395" lon="-7.529801">
        <time>2022-07-12T08:11:47Z</time>
      </trkpt>
      <trkpt lat="42.783947" lon="-7.529877">
        <time>2022-07-12T08:11:52Z</time>
      </trkpt>
      <trkpt lat="42.78394" lon="-7.529948">
        <time>2022-07-12T08:11:57Z</time>
      </trkpt>
      <trkpt lat="42.78393" lon="-7.5300345">
        <time>2022-07-12T08:12:02Z</time>
      </trkpt>
      <trkpt lat="42.78392" lon="-7.5301075">
        <time>2022-07-12T08:12:06Z</time>
      </trkpt>
      <trkpt lat="42.78392" lon="-7.53019">
        <time>2022-07-12T08:12:11Z</time>
      </trkpt>
      <trkpt lat="42.78392" lon="-7.530263">
        <time>2022-07-12T08:12:15Z</time>
      </trkpt>
      <trkpt lat="42.783916" lon="-7.5303397">
        <time>2022-07-12T08:12:20Z</time>
      </trkpt>
      <trkpt lat="42.7839" lon="-7.530412">
        <time>2022-07-12T08:12:25Z</time>
      </trkpt>
      <trkpt lat="42.783894" lon="-7.5304847">
        <time>2022-07-12T08:12:29Z</time>
      </trkpt>
      <trkpt lat="42.783894" lon="-7.5305576">
        <time>2022-07-12T08:12:34Z</time>
      </trkpt>
      <trkpt lat="42.78389" lon="-7.530627">
        <time>2022-07-12T08:12:39Z</time>
      </trkpt>
      <trkpt lat="42.783882" lon="-7.5306997">
        <time>2022-07-12T08:12:44Z</time>
      </trkpt>
      <trkpt lat="42.783863" lon="-7.530773">
        <time>2022-07-12T08:12:48Z</time>
      </trkpt>
      <trkpt lat="42.78384" lon="-7.530825">
        <time>2022-07-12T08:12:52Z</time>
      </trkpt>
      <trkpt lat="42.783794" lon="-7.5308986">
        <time>2022-07-12T08:12:58Z</time>
      </trkpt>
      <trkpt lat="42.783752" lon="-7.5309505">
        <time>2022-07-12T08:13:02Z</time>
      </trkpt>
      <trkpt lat="42.7837" lon="-7.5309973">
        <time>2022-07-12T08:13:07Z</time>
      </trkpt>
      <trkpt lat="42.783657" lon="-7.5310464">
        <time>2022-07-12T08:13:12Z</time>
      </trkpt>
      <trkpt lat="42.78362" lon="-7.531103">
        <time>2022-07-12T08:13:16Z</time>
      </trkpt>
      <trkpt lat="42.78359" lon="-7.531161">
        <time>2022-07-12T08:13:20Z</time>
      </trkpt>
      <trkpt lat="42.783554" lon="-7.5312204">
        <time>2022-07-12T08:13:25Z</time>
      </trkpt>
      <trkpt lat="42.78354" lon="-7.5312977">
        <time>2022-07-12T08:13:30Z</time>
      </trkpt>
      <trkpt lat="42.783516" lon="-7.531373">
        <time>2022-07-12T08:13:35Z</time>
      </trkpt>
      <trkpt lat="42.783493" lon="-7.5314527">
        <time>2022-07-12T08:13:39Z</time>
      </trkpt>
      <trkpt lat="42.783485" lon="-7.531519">
        <time>2022-07-12T08:13:43Z</time>
      </trkpt>
      <trkpt lat="42.783478" lon="-7.5315857">
        <time>2022-07-12T08:13:47Z</time>
      </trkpt>
      <trkpt lat="42.783478" lon="-7.5316696">
        <time>2022-07-12T08:13:53Z</time>
      </trkpt>
      <trkpt lat="42.78348" lon="-7.531748">
        <time>2022-07-12T08:13:58Z</time>
      </trkpt>
      <trkpt lat="42.78349" lon="-7.531837">
        <time>2022-07-12T08:14:03Z</time>
      </trkpt>
      <trkpt lat="42.78349" lon="-7.5319138">
        <time>2022-07-12T08:14:07Z</time>
      </trkpt>
      <trkpt lat="42.783478" lon="-7.5319886">
        <time>2022-07-12T08:14:11Z</time>
      </trkpt>
      <trkpt lat="42.78348" lon="-7.5320525">
        <time>2022-07-12T08:14:14Z</time>
      </trkpt>
      <trkpt lat="42.78349" lon="-7.5321217">
        <time>2022-07-12T08:14:18Z</time>
      </trkpt>
      <trkpt lat="42.78349" lon="-7.5322084">
        <time>2022-07-12T08:14:23Z</time>
      </trkpt>
      <trkpt lat="42.78348" lon="-7.5322814">
        <time>2022-07-12T08:14:27Z</time>
      </trkpt>
      <trkpt lat="42.78348" lon="-7.5323644">
        <time>2022-07-12T08:14:31Z</time>
      </trkpt>
      <trkpt lat="42.78349" lon="-7.532441">
        <time>2022-07-12T08:14:36Z</time>
      </trkpt>
      <trkpt lat="42.783493" lon="-7.532514">
        <time>2022-07-12T08:14:40Z</time>
      </trkpt>
      <trkpt lat="42.783497" lon="-7.532578">
        <time>2022-07-12T08:14:44Z</time>
      </trkpt>
      <trkpt lat="42.783512" lon="-7.532656">
        <time>2022-07-12T08:14:49Z</time>
      </trkpt>
      <trkpt lat="42.783527" lon="-7.5327353">
        <time>2022-07-12T08:14:54Z</time>
      </trkpt>
      <trkpt lat="42.783535" lon="-7.532807">
        <time>2022-07-12T08:14:58Z</time>
      </trkpt>
      <trkpt lat="42.783543" lon="-7.532883">
        <time>2022-07-12T08:15:03Z</time>
      </trkpt>
      <trkpt lat="42.78356" lon="-7.5329466">
        <time>2022-07-12T08:15:07Z</time>
      </trkpt>
      <trkpt lat="42.783573" lon="-7.533018">
        <time>2022-07-12T08:15:12Z</time>
      </trkpt>
      <trkpt lat="42.783585" lon="-7.53309">
        <time>2022-07-12T08:15:16Z</time>
      </trkpt>
      <trkpt lat="42.783596" lon="-7.5331707">
        <time>2022-07-12T08:15:21Z</time>
      </trkpt>
      <trkpt lat="42.783615" lon="-7.5332584">
        <time>2022-07-12T08:15:26Z</time>
      </trkpt>
      <trkpt lat="42.783623" lon="-7.533326">
        <time>2022-07-12T08:15:31Z</time>
      </trkpt>
      <trkpt lat="42.783592" lon="-7.5333743">
        <time>2022-07-12T08:15:36Z</time>
      </trkpt>
      <trkpt lat="42.783554" lon="-7.5334344">
        <time>2022-07-12T08:15:42Z</time>
      </trkpt>
      <trkpt lat="42.78353" lon="-7.5335045">
        <time>2022-07-12T08:15:46Z</time>
      </trkpt>
      <trkpt lat="42.783512" lon="-7.5335793">
        <time>2022-07-12T08:15:51Z</time>
      </trkpt>
      <trkpt lat="42.783493" lon="-7.533672">
        <time>2022-07-12T08:15:56Z</time>
      </trkpt>
      <trkpt lat="42.783474" lon="-7.5337515">
        <time>2022-07-12T08:16:00Z</time>
      </trkpt>
      <trkpt lat="42.783466" lon="-7.533826">
        <time>2022-07-12T08:16:04Z</time>
      </trkpt>
      <trkpt lat="42.78347" lon="-7.5338936">
        <time>2022-07-12T08:16:08Z</time>
      </trkpt>
      <trkpt lat="42.783463" lon="-7.5339675">
        <time>2022-07-12T08:16:12Z</time>
      </trkpt>
      <trkpt lat="42.783463" lon="-7.5340347">
        <time>2022-07-12T08:16:16Z</time>
      </trkpt>
      <trkpt lat="42.783474" lon="-7.534114">
        <time>2022-07-12T08:16:21Z</time>
      </trkpt>
      <trkpt lat="42.783478" lon="-7.5341864">
        <time>2022-07-12T08:16:26Z</time>
      </trkpt>
      <trkpt lat="42.783478" lon="-7.534258">
        <time>2022-07-12T08:16:31Z</time>
      </trkpt>
      <trkpt lat="42.78349" lon="-7.5343275">
        <time>2022-07-12T08:16:36Z</time>
      </trkpt>
      <trkpt lat="42.783493" lon="-7.534402">
        <time>2022-07-12T08:16:41Z</time>
      </trkpt>
      <trkpt lat="42.783497" lon="-7.534478">
        <time>2022-07-12T08:16:46Z</time>
      </trkpt>
      <trkpt lat="42.783504" lon="-7.534552">
        <time>2022-07-12T08:16:51Z</time>
      </trkpt>
      <trkpt lat="42.78351" lon="-7.534619">
        <time>2022-07-12T08:16:55Z</time>
      </trkpt>
      <trkpt lat="42.783516" lon="-7.534698">
        <time>2022-07-12T08:17:00Z</time>
      </trkpt>
      <trkpt lat="42.783524" lon="-7.5347834">
        <time>2022-07-12T08:17:05Z</time>
      </trkpt>
      <trkpt lat="42.78353" lon="-7.534845">
        <time>2022-07-12T08:17:09Z</time>
      </trkpt>
      <trkpt lat="42.78354" lon="-7.534925">
        <time>2022-07-12T08:17:14Z</time>
      </trkpt>
      <trkpt lat="42.783543" lon="-7.534991">
        <time>2022-07-12T08:17:18Z</time>
      </trkpt>
      <trkpt lat="42.78356" lon="-7.535072">
        <time>2022-07-12T08:17:23Z</time>
      </trkpt>
      <trkpt lat="42.783566" lon="-7.535145">
        <time>2022-07-12T08:17:27Z</time>
      </trkpt>
      <trkpt lat="42.78357" lon="-7.53521">
        <time>2022-07-12T08:17:31Z</time>
      </trkpt>
      <trkpt lat="42.78357" lon="-7.53529">
        <time>2022-07-12T08:17:36Z</time>
      </trkpt>
      <trkpt lat="42.78358" lon="-7.5353713">
        <time>2022-07-12T08:17:41Z</time>
      </trkpt>
      <trkpt lat="42.783585" lon="-7.5354366">
        <time>2022-07-12T08:17:45Z</time>
      </trkpt>
      <trkpt lat="42.783604" lon="-7.535507">
        <time>2022-07-12T08:17:50Z</time>
      </trkpt>
      <trkpt lat="42.783638" lon="-7.5355787">
        <time>2022-07-12T08:17:55Z</time>
      </trkpt>
      <trkpt lat="42.78366" lon="-7.535641">
        <time>2022-07-12T08:17:59Z</time>
      </trkpt>
      <trkpt lat="42.783684" lon="-7.535714">
        <time>2022-07-12T08:18:04Z</time>
      </trkpt>
      <trkpt lat="42.783703" lon="-7.535777">
        <time>2022-07-12T08:18:08Z</time>
      </trkpt>
      <trkpt lat="42.783722" lon="-7.535855">
        <time>2022-07-12T08:18:13Z</time>
      </trkpt>
      <trkpt lat="42.78374" lon="-7.535933">
        <time>2022-07-12T08:18:18Z</time>
      </trkpt>
      <trkpt lat="42.783752" lon="-7.5360017">
        <time>2022-07-12T08:18:22Z</time>
      </trkpt>
      <trkpt lat="42.783756" lon="-7.536072">
        <time>2022-07-12T08:18:26Z</time>
      </trkpt>
      <trkpt lat="42.783775" lon="-7.53615">
        <time>2022-07-12T08:18:31Z</time>
      </trkpt>
      <trkpt lat="42.78379" lon="-7.5362325">
        <time>2022-07-12T08:18:37Z</time>
      </trkpt>
      <trkpt lat="42.783794" lon="-7.536319">
        <time>2022-07-12T08:18:42Z</time>
      </trkpt>
      <trkpt lat="42.7838" lon="-7.536401">
        <time>2022-07-12T08:18:47Z</time>
      </trkpt>
      <trkpt lat="42.78381" lon="-7.536482">
        <time>2022-07-12T08:18:52Z</time>
      </trkpt>
      <trkpt lat="42.783817" lon="-7.5365605">
        <time>2022-07-12T08:18:57Z</time>
      </trkpt>
      <trkpt lat="42.783836" lon="-7.5366387">
        <time>2022-07-12T08:19:02Z</time>
      </trkpt>
      <trkpt lat="42.783855" lon="-7.536711">
        <time>2022-07-12T08:19:07Z</time>
      </trkpt>
      <trkpt lat="42.783863" lon="-7.536786">
        <time>2022-07-12T08:19:12Z</time>
      </trkpt>
      <trkpt lat="42.783867" lon="-7.5368633">
        <time>2022-07-12T08:19:17Z</time>
      </trkpt>
      <trkpt lat="42.78387" lon="-7.536946">
        <time>2022-07-12T08:19:22Z</time>
      </trkpt>
      <trkpt lat="42.78387" lon="-7.537018">
        <time>2022-07-12T08:19:26Z</time>
      </trkpt>
      <trkpt lat="42.783863" lon="-7.537082">
        <time>2022-07-12T08:19:30Z</time>
      </trkpt>
      <trkpt lat="42.783863" lon="-7.5371585">
        <time>2022-07-12T08:19:35Z</time>
      </trkpt>
      <trkpt lat="42.783848" lon="-7.5372396">
        <time>2022-07-12T08:19:40Z</time>
      </trkpt>
      <trkpt lat="42.78384" lon="-7.537307">
        <time>2022-07-12T08:19:45Z</time>
      </trkpt>
      <trkpt lat="42.783875" lon="-7.537381">
        <time>2022-07-12T08:20:00Z</time>
      </trkpt>
      <trkpt lat="42.783905" lon="-7.537439">
        <time>2022-07-12T08:20:05Z</time>
      </trkpt>
      <trkpt lat="42.783924" lon="-7.537513">
        <time>2022-07-12T08:20:10Z</time>
      </trkpt>
      <trkpt lat="42.783947" lon="-7.537576">
        <time>2022-07-12T08:20:15Z</time>
      </trkpt>
      <trkpt lat="42.783966" lon="-7.537647">
        <time>2022-07-12T08:20:20Z</time>
      </trkpt>
      <trkpt lat="42.78398" lon="-7.537713">
        <time>2022-07-12T08:20:24Z</time>
      </trkpt>
      <trkpt lat="42.784" lon="-7.537787">
        <time>2022-07-12T08:20:29Z</time>
      </trkpt>
      <trkpt lat="42.78402" lon="-7.537849">
        <time>2022-07-12T08:20:33Z</time>
      </trkpt>
      <trkpt lat="42.78403" lon="-7.537924">
        <time>2022-07-12T08:20:37Z</time>
      </trkpt>
      <trkpt lat="42.784046" lon="-7.537986">
        <time>2022-07-12T08:20:41Z</time>
      </trkpt>
      <trkpt lat="42.784065" lon="-7.5380497">
        <time>2022-07-12T08:20:46Z</time>
      </trkpt>
      <trkpt lat="42.78409" lon="-7.5381203">
        <time>2022-07-12T08:20:51Z</time>
      </trkpt>
      <trkpt lat="42.784115" lon="-7.5381937">
        <time>2022-07-12T08:20:56Z</time>
      </trkpt>
      <trkpt lat="42.78413" lon="-7.5382524">
        <time>2022-07-12T08:21:00Z</time>
      </trkpt>
      <trkpt lat="42.78415" lon="-7.538326">
        <time>2022-07-12T08:21:05Z</time>
      </trkpt>
      <trkpt lat="42.78417" lon="-7.5383964">
        <time>2022-07-12T08:21:10Z</time>
      </trkpt>
      <trkpt lat="42.78418" lon="-7.538473">
        <time>2022-07-12T08:21:15Z</time>
      </trkpt>
      <trkpt lat="42.78419" lon="-7.538549">
        <time>2022-07-12T08:21:20Z</time>
      </trkpt>
      <trkpt lat="42.7842" lon="-7.5386157">
        <time>2022-07-12T08:21:24Z</time>
      </trkpt>
      <trkpt lat="42.784206" lon="-7.538691">
        <time>2022-07-12T08:21:29Z</time>
      </trkpt>
      <trkpt lat="42.784214" lon="-7.538767">
        <time>2022-07-12T08:21:34Z</time>
      </trkpt>
      <trkpt lat="42.784218" lon="-7.538848">
        <time>2022-07-12T08:21:39Z</time>
      </trkpt>
      <trkpt lat="42.784233" lon="-7.538919">
        <time>2022-07-12T08:21:43Z</time>
      </trkpt>
      <trkpt lat="42.784237" lon="-7.5389905">
        <time>2022-07-12T08:21:47Z</time>
      </trkpt>
      <trkpt lat="42.784252" lon="-7.5390625">
        <time>2022-07-12T08:21:52Z</time>
      </trkpt>
      <trkpt lat="42.784256" lon="-7.5391364">
        <time>2022-07-12T08:21:57Z</time>
      </trkpt>
      <trkpt lat="42.78426" lon="-7.5392137">
        <time>2022-07-12T08:22:02Z</time>
      </trkpt>
      <trkpt lat="42.784252" lon="-7.5392823">
        <time>2022-07-12T08:22:06Z</time>
      </trkpt>
      <trkpt lat="42.784252" lon="-7.5393543">
        <time>2022-07-12T08:22:11Z</time>
      </trkpt>
      <trkpt lat="42.78424" lon="-7.5394244">
        <time>2022-07-12T08:22:16Z</time>
      </trkpt>
      <trkpt lat="42.78424" lon="-7.539491">
        <time>2022-07-12T08:22:21Z</time>
      </trkpt>
      <trkpt lat="42.78425" lon="-7.5395765">
        <time>2022-07-12T08:22:26Z</time>
      </trkpt>
      <trkpt lat="42.784264" lon="-7.539633">
        <time>2022-07-12T08:22:30Z</time>
      </trkpt>
      <trkpt lat="42.78427" lon="-7.539716">
        <time>2022-07-12T08:22:35Z</time>
      </trkpt>
      <trkpt lat="42.784283" lon="-7.539787">
        <time>2022-07-12T08:22:39Z</time>
      </trkpt>
      <trkpt lat="42.784286" lon="-7.539852">
        <time>2022-07-12T08:22:43Z</time>
      </trkpt>
      <trkpt lat="42.784286" lon="-7.5399384">
        <time>2022-07-12T08:22:48Z</time>
      </trkpt>
      <trkpt lat="42.784306" lon="-7.5400143">
        <time>2022-07-12T08:22:53Z</time>
      </trkpt>
      <trkpt lat="42.784317" lon="-7.5400896">
        <time>2022-07-12T08:22:57Z</time>
      </trkpt>
      <trkpt lat="42.78431" lon="-7.5401645">
        <time>2022-07-12T08:23:01Z</time>
      </trkpt>
      <trkpt lat="42.784317" lon="-7.540237">
        <time>2022-07-12T08:23:06Z</time>
      </trkpt>
      <trkpt lat="42.784325" lon="-7.5403266">
        <time>2022-07-12T08:23:18Z</time>
      </trkpt>
      <trkpt lat="42.784336" lon="-7.540404">
        <time>2022-07-12T08:23:23Z</time>
      </trkpt>
      <trkpt lat="42.78435" lon="-7.5404806">
        <time>2022-07-12T08:23:28Z</time>
      </trkpt>
      <trkpt lat="42.784374" lon="-7.5405574">
        <time>2022-07-12T08:23:33Z</time>
      </trkpt>
      <trkpt lat="42.784405" lon="-7.5406127">
        <time>2022-07-12T08:23:37Z</time>
      </trkpt>
      <trkpt lat="42.78444" lon="-7.5406775">
        <time>2022-07-12T08:23:42Z</time>
      </trkpt>
      <trkpt lat="42.78447" lon="-7.540745">
        <time>2022-07-12T08:23:48Z</time>
      </trkpt>
      <trkpt lat="42.784492" lon="-7.5408025">
        <time>2022-07-12T08:23:53Z</time>
      </trkpt>
      <trkpt lat="42.784523" lon="-7.540868">
        <time>2022-07-12T08:23:58Z</time>
      </trkpt>
      <trkpt lat="42.78456" lon="-7.540929">
        <time>2022-07-12T08:24:02Z</time>
      </trkpt>
      <trkpt lat="42.784595" lon="-7.540986">
        <time>2022-07-12T08:24:05Z</time>
      </trkpt>
      <trkpt lat="42.784634" lon="-7.5410533">
        <time>2022-07-12T08:24:09Z</time>
      </trkpt>
      <trkpt lat="42.784657" lon="-7.5411115">
        <time>2022-07-12T08:24:13Z</time>
      </trkpt>
      <trkpt lat="42.784695" lon="-7.5411663">
        <time>2022-07-12T08:24:17Z</time>
      </trkpt>
      <trkpt lat="42.784737" lon="-7.541218">
        <time>2022-07-12T08:24:21Z</time>
      </trkpt>
      <trkpt lat="42.784767" lon="-7.5412703">
        <time>2022-07-12T08:24:25Z</time>
      </trkpt>
      <trkpt lat="42.7848" lon="-7.541321">
        <time>2022-07-12T08:24:29Z</time>
      </trkpt>
      <trkpt lat="42.78484" lon="-7.5413833">
        <time>2022-07-12T08:24:33Z</time>
      </trkpt>
      <trkpt lat="42.784866" lon="-7.541447">
        <time>2022-07-12T08:24:38Z</time>
      </trkpt>
      <trkpt lat="42.78491" lon="-7.5415125">
        <time>2022-07-12T08:24:43Z</time>
      </trkpt>
      <trkpt lat="42.78494" lon="-7.54158">
        <time>2022-07-12T08:24:47Z</time>
      </trkpt>
      <trkpt lat="42.78496" lon="-7.541638">
        <time>2022-07-12T08:24:51Z</time>
      </trkpt>
      <trkpt lat="42.78498" lon="-7.5417137">
        <time>2022-07-12T08:24:56Z</time>
      </trkpt>
      <trkpt lat="42.784996" lon="-7.5417786">
        <time>2022-07-12T08:25:00Z</time>
      </trkpt>
      <trkpt lat="42.785004" lon="-7.541854">
        <time>2022-07-12T08:25:05Z</time>
      </trkpt>
      <trkpt lat="42.785027" lon="-7.5419736">
        <time>2022-07-12T08:25:28Z</time>
      </trkpt>
      <trkpt lat="42.785046" lon="-7.5420384">
        <time>2022-07-12T08:25:33Z</time>
      </trkpt>
      <trkpt lat="42.78507" lon="-7.542111">
        <time>2022-07-12T08:25:38Z</time>
      </trkpt>
      <trkpt lat="42.7851" lon="-7.5421824">
        <time>2022-07-12T08:25:43Z</time>
      </trkpt>
      <trkpt lat="42.785114" lon="-7.542254">
        <time>2022-07-12T08:25:48Z</time>
      </trkpt>
      <trkpt lat="42.785107" lon="-7.542326">
        <time>2022-07-12T08:25:52Z</time>
      </trkpt>
      <trkpt lat="42.785076" lon="-7.542373">
        <time>2022-07-12T08:25:56Z</time>
      </trkpt>
      <trkpt lat="42.78502" lon="-7.5424">
        <time>2022-07-12T08:26:01Z</time>
      </trkpt>
      <trkpt lat="42.78496" lon="-7.542427">
        <time>2022-07-12T08:26:06Z</time>
      </trkpt>
      <trkpt lat="42.78491" lon="-7.542457">
        <time>2022-07-12T08:26:10Z</time>
      </trkpt>
      <trkpt lat="42.784863" lon="-7.5425005">
        <time>2022-07-12T08:26:14Z</time>
      </trkpt>
      <trkpt lat="42.784824" lon="-7.5425415">
        <time>2022-07-12T08:26:18Z</time>
      </trkpt>
      <trkpt lat="42.784782" lon="-7.542599">
        <time>2022-07-12T08:26:23Z</time>
      </trkpt>
      <trkpt lat="42.78476" lon="-7.5426817">
        <time>2022-07-12T08:26:28Z</time>
      </trkpt>
      <trkpt lat="42.78477" lon="-7.542751">
        <time>2022-07-12T08:26:32Z</time>
      </trkpt>
      <trkpt lat="42.784794" lon="-7.5428267">
        <time>2022-07-12T08:26:37Z</time>
      </trkpt>
      <trkpt lat="42.7848" lon="-7.5429077">
        <time>2022-07-12T08:26:42Z</time>
      </trkpt>
      <trkpt lat="42.78479" lon="-7.5429826">
        <time>2022-07-12T08:26:47Z</time>
      </trkpt>
      <trkpt lat="42.78479" lon="-7.543054">
        <time>2022-07-12T08:26:52Z</time>
      </trkpt>
      <trkpt lat="42.78483" lon="-7.543106">
        <time>2022-07-12T08:26:57Z</time>
      </trkpt>
      <trkpt lat="42.784866" lon="-7.543155">
        <time>2022-07-12T08:27:02Z</time>
      </trkpt>
      <trkpt lat="42.784885" lon="-7.543222">
        <time>2022-07-12T08:27:07Z</time>
      </trkpt>
      <trkpt lat="42.78491" lon="-7.5432997">
        <time>2022-07-12T08:27:13Z</time>
      </trkpt>
      <trkpt lat="42.784912" lon="-7.5433793">
        <time>2022-07-12T08:27:17Z</time>
      </trkpt>
      <trkpt lat="42.784924" lon="-7.543451">
        <time>2022-07-12T08:27:22Z</time>
      </trkpt>
      <trkpt lat="42.78494" lon="-7.5435085">
        <time>2022-07-12T08:27:27Z</time>
      </trkpt>
      <trkpt lat="42.784946" lon="-7.543595">
        <time>2022-07-12T08:27:33Z</time>
      </trkpt>
      <trkpt lat="42.784958" lon="-7.54367">
        <time>2022-07-12T08:27:38Z</time>
      </trkpt>
      <trkpt lat="42.78495" lon="-7.5437493">
        <time>2022-07-12T08:27:43Z</time>
      </trkpt>
      <trkpt lat="42.78495" lon="-7.5438066">
        <time>2022-07-12T08:27:48Z</time>
      </trkpt>
      <trkpt lat="42.78495" lon="-7.5439057">
        <time>2022-07-12T08:27:54Z</time>
      </trkpt>
      <trkpt lat="42.78495" lon="-7.5439887">
        <time>2022-07-12T08:27:58Z</time>
      </trkpt>
      <trkpt lat="42.784946" lon="-7.5440598">
        <time>2022-07-12T08:28:03Z</time>
      </trkpt>
      <trkpt lat="42.78494" lon="-7.544128">
        <time>2022-07-12T08:28:08Z</time>
      </trkpt>
      <trkpt lat="42.784927" lon="-7.5442057">
        <time>2022-07-12T08:28:12Z</time>
      </trkpt>
      <trkpt lat="42.78492" lon="-7.5442824">
        <time>2022-07-12T08:28:16Z</time>
      </trkpt>
      <trkpt lat="42.784912" lon="-7.544358">
        <time>2022-07-12T08:28:20Z</time>
      </trkpt>
      <trkpt lat="42.784912" lon="-7.544429">
        <time>2022-07-12T08:28:24Z</time>
      </trkpt>
      <trkpt lat="42.78491" lon="-7.5445013">
        <time>2022-07-12T08:28:29Z</time>
      </trkpt>
      <trkpt lat="42.784897" lon="-7.5445743">
        <time>2022-07-12T08:28:34Z</time>
      </trkpt>
      <trkpt lat="42.784878" lon="-7.544652">
        <time>2022-07-12T08:28:40Z</time>
      </trkpt>
      <trkpt lat="42.784866" lon="-7.5447135">
        <time>2022-07-12T08:28:44Z</time>
      </trkpt>
      <trkpt lat="42.78484" lon="-7.544782">
        <time>2022-07-12T08:28:48Z</time>
      </trkpt>
      <trkpt lat="42.784813" lon="-7.544852">
        <time>2022-07-12T08:28:52Z</time>
      </trkpt>
      <trkpt lat="42.784775" lon="-7.544902">
        <time>2022-07-12T08:28:56Z</time>
      </trkpt>
      <trkpt lat="42.784733" lon="-7.544939">
        <time>2022-07-12T08:29:00Z</time>
      </trkpt>
      <trkpt lat="42.784695" lon="-7.544984">
        <time>2022-07-12T08:29:07Z</time>
      </trkpt>
      <trkpt lat="42.784664" lon="-7.545045">
        <time>2022-07-12T08:29:13Z</time>
      </trkpt>
      <trkpt lat="42.784622" lon="-7.5451026">
        <time>2022-07-12T08:29:17Z</time>
      </trkpt>
      <trkpt lat="42.78459" lon="-7.5451503">
        <time>2022-07-12T08:29:21Z</time>
      </trkpt>
      <trkpt lat="42.784554" lon="-7.545222">
        <time>2022-07-12T08:29:26Z</time>
      </trkpt>
      <trkpt lat="42.78452" lon="-7.545291">
        <time>2022-07-12T08:29:30Z</time>
      </trkpt>
      <trkpt lat="42.784492" lon="-7.5453587">
        <time>2022-07-12T08:29:34Z</time>
      </trkpt>
      <trkpt lat="42.784462" lon="-7.545429">
        <time>2022-07-12T08:29:39Z</time>
      </trkpt>
      <trkpt lat="42.78444" lon="-7.5455027">
        <time>2022-07-12T08:29:44Z</time>
      </trkpt>
      <trkpt lat="42.78442" lon="-7.5455685">
        <time>2022-07-12T08:29:48Z</time>
      </trkpt>
      <trkpt lat="42.784405" lon="-7.5456395">
        <time>2022-07-12T08:29:53Z</time>
      </trkpt>
      <trkpt lat="42.7844" lon="-7.5457163">
        <time>2022-07-12T08:29:58Z</time>
      </trkpt>
      <trkpt lat="42.784397" lon="-7.545807">
        <time>2022-07-12T08:30:04Z</time>
      </trkpt>
      <trkpt lat="42.784397" lon="-7.5458837">
        <time>2022-07-12T08:30:09Z</time>
      </trkpt>
      <trkpt lat="42.78441" lon="-7.5459495">
        <time>2022-07-12T08:30:14Z</time>
      </trkpt>
      <trkpt lat="42.78445" lon="-7.5460005">
        <time>2022-07-12T08:30:20Z</time>
      </trkpt>
      <trkpt lat="42.784492" lon="-7.5460343">
        <time>2022-07-12T08:30:25Z</time>
      </trkpt>
      <trkpt lat="42.78454" lon="-7.5460587">
        <time>2022-07-12T08:30:30Z</time>
      </trkpt>
      <trkpt lat="42.784595" lon="-7.546095">
        <time>2022-07-12T08:30:36Z</time>
      </trkpt>
      <trkpt lat="42.784634" lon="-7.5461287">
        <time>2022-07-12T08:30:41Z</time>
      </trkpt>
      <trkpt lat="42.78469" lon="-7.546164">
        <time>2022-07-12T08:30:47Z</time>
      </trkpt>
      <trkpt lat="42.784737" lon="-7.546198">
        <time>2022-07-12T08:30:52Z</time>
      </trkpt>
      <trkpt lat="42.784782" lon="-7.546223">
        <time>2022-07-12T08:30:57Z</time>
      </trkpt>
      <trkpt lat="42.78484" lon="-7.546243">
        <time>2022-07-12T08:31:03Z</time>
      </trkpt>
      <trkpt lat="42.784885" lon="-7.5462847">
        <time>2022-07-12T08:31:11Z</time>
      </trkpt>
      <trkpt lat="42.784935" lon="-7.546312">
        <time>2022-07-12T08:31:18Z</time>
      </trkpt>
      <trkpt lat="42.784985" lon="-7.546336">
        <time>2022-07-12T08:31:23Z</time>
      </trkpt>
      <trkpt lat="42.785027" lon="-7.546376">
        <time>2022-07-12T08:31:29Z</time>
      </trkpt>
      <trkpt lat="42.78505" lon="-7.5464473">
        <time>2022-07-12T08:31:36Z</time>
      </trkpt>
      <trkpt lat="42.78504" lon="-7.5465236">
        <time>2022-07-12T08:31:43Z</time>
      </trkpt>
      <trkpt lat="42.78503" lon="-7.546596">
        <time>2022-07-12T08:31:47Z</time>
      </trkpt>
      <trkpt lat="42.785015" lon="-7.546662">
        <time>2022-07-12T08:31:52Z</time>
      </trkpt>
      <trkpt lat="42.785" lon="-7.546731">
        <time>2022-07-12T08:31:57Z</time>
      </trkpt>
      <trkpt lat="42.784977" lon="-7.546805">
        <time>2022-07-12T08:32:02Z</time>
      </trkpt>
      <trkpt lat="42.784946" lon="-7.546872">
        <time>2022-07-12T08:32:06Z</time>
      </trkpt>
      <trkpt lat="42.784912" lon="-7.546921">
        <time>2022-07-12T08:32:10Z</time>
      </trkpt>
      <trkpt lat="42.784874" lon="-7.546971">
        <time>2022-07-12T08:32:15Z</time>
      </trkpt>
      <trkpt lat="42.784832" lon="-7.547016">
        <time>2022-07-12T08:32:19Z</time>
      </trkpt>
      <trkpt lat="42.78479" lon="-7.5470552">
        <time>2022-07-12T08:32:23Z</time>
      </trkpt>
      <trkpt lat="42.78474" lon="-7.5470924">
        <time>2022-07-12T08:32:27Z</time>
      </trkpt>
      <trkpt lat="42.784702" lon="-7.547136">
        <time>2022-07-12T08:32:31Z</time>
      </trkpt>
      <trkpt lat="42.784657" lon="-7.54718">
        <time>2022-07-12T08:32:36Z</time>
      </trkpt>
      <trkpt lat="42.784615" lon="-7.547235">
        <time>2022-07-12T08:32:41Z</time>
      </trkpt>
      <trkpt lat="42.78458" lon="-7.5473075">
        <time>2022-07-12T08:32:47Z</time>
      </trkpt>
      <trkpt lat="42.78456" lon="-7.547382">
        <time>2022-07-12T08:32:52Z</time>
      </trkpt>
      <trkpt lat="42.784542" lon="-7.5474577">
        <time>2022-07-12T08:32:57Z</time>
      </trkpt>
      <trkpt lat="42.784523" lon="-7.547537">
        <time>2022-07-12T08:33:03Z</time>
      </trkpt>
      <trkpt lat="42.7845" lon="-7.5476165">
        <time>2022-07-12T08:33:08Z</time>
      </trkpt>
      <trkpt lat="42.784485" lon="-7.5476885">
        <time>2022-07-12T08:33:13Z</time>
      </trkpt>
      <trkpt lat="42.78447" lon="-7.54776">
        <time>2022-07-12T08:33:17Z</time>
      </trkpt>
      <trkpt lat="42.784447" lon="-7.547825">
        <time>2022-07-12T08:33:22Z</time>
      </trkpt>
      <trkpt lat="42.784416" lon="-7.5478964">
        <time>2022-07-12T08:33:27Z</time>
      </trkpt>
      <trkpt lat="42.78439" lon="-7.547953">
        <time>2022-07-12T08:33:31Z</time>
      </trkpt>
      <trkpt lat="42.784355" lon="-7.5480194">
        <time>2022-07-12T08:33:36Z</time>
      </trkpt>
      <trkpt lat="42.784325" lon="-7.5480747">
        <time>2022-07-12T08:33:40Z</time>
      </trkpt>
      <trkpt lat="42.78429" lon="-7.548135">
        <time>2022-07-12T08:33:44Z</time>
      </trkpt>
      <trkpt lat="42.784256" lon="-7.548184">
        <time>2022-07-12T08:33:48Z</time>
      </trkpt>
      <trkpt lat="42.784214" lon="-7.5482464">
        <time>2022-07-12T08:33:53Z</time>
      </trkpt>
      <trkpt lat="42.784184" lon="-7.5483217">
        <time>2022-07-12T08:33:58Z</time>
      </trkpt>
      <trkpt lat="42.78416" lon="-7.5483956">
        <time>2022-07-12T08:34:03Z</time>
      </trkpt>
      <trkpt lat="42.78414" lon="-7.548461">
        <time>2022-07-12T08:34:07Z</time>
      </trkpt>
      <trkpt lat="42.784126" lon="-7.548527">
        <time>2022-07-12T08:34:11Z</time>
      </trkpt>
      <trkpt lat="42.784115" lon="-7.5486073">
        <time>2022-07-12T08:34:16Z</time>
      </trkpt>
      <trkpt lat="42.784103" lon="-7.548671">
        <time>2022-07-12T08:34:20Z</time>
      </trkpt>
      <trkpt lat="42.78409" lon="-7.5487456">
        <time>2022-07-12T08:34:25Z</time>
      </trkpt>
      <trkpt lat="42.784073" lon="-7.548809">
        <time>2022-07-12T08:34:29Z</time>
      </trkpt>
      <trkpt lat="42.784058" lon="-7.5488853">
        <time>2022-07-12T08:34:34Z</time>
      </trkpt>
      <trkpt lat="42.784054" lon="-7.5489583">
        <time>2022-07-12T08:34:39Z</time>
      </trkpt>
      <trkpt lat="42.78404" lon="-7.5490313">
        <time>2022-07-12T08:34:44Z</time>
      </trkpt>
      <trkpt lat="42.78403" lon="-7.549094">
        <time>2022-07-12T08:34:48Z</time>
      </trkpt>
      <trkpt lat="42.784027" lon="-7.5491734">
        <time>2022-07-12T08:34:53Z</time>
      </trkpt>
      <trkpt lat="42.784023" lon="-7.549256">
        <time>2022-07-12T08:34:58Z</time>
      </trkpt>
      <trkpt lat="42.784016" lon="-7.549337">
        <time>2022-07-12T08:35:03Z</time>
      </trkpt>
      <trkpt lat="42.784004" lon="-7.5494046">
        <time>2022-07-12T08:35:07Z</time>
      </trkpt>
      <trkpt lat="42.783997" lon="-7.5494695">
        <time>2022-07-12T08:35:11Z</time>
      </trkpt>
      <trkpt lat="42.78398" lon="-7.5495486">
        <time>2022-07-12T08:35:16Z</time>
      </trkpt>
      <trkpt lat="42.78397" lon="-7.5496197">
        <time>2022-07-12T08:35:20Z</time>
      </trkpt>
      <trkpt lat="42.783962" lon="-7.549681">
        <time>2022-07-12T08:35:24Z</time>
      </trkpt>
      <trkpt lat="42.78395" lon="-7.549752">
        <time>2022-07-12T08:35:30Z</time>
      </trkpt>
      <trkpt lat="42.78395" lon="-7.549792">
        <time>2022-07-12T08:35:50Z</time>
      </trkpt>
      <trkpt lat="42.783943" lon="-7.5498075">
        <time>2022-07-12T08:37:43Z</time>
      </trkpt>
      <trkpt lat="42.78401" lon="-7.5498805">
        <time>2022-07-12T08:45:00Z</time>
      </trkpt>
      <trkpt lat="42.783997" lon="-7.5499554">
        <time>2022-07-12T08:45:03Z</time>
      </trkpt>
      <trkpt lat="42.78399" lon="-7.5500245">
        <time>2022-07-12T08:45:06Z</time>
      </trkpt>
      <trkpt lat="42.783985" lon="-7.5500836">
        <time>2022-07-12T08:45:10Z</time>
      </trkpt>
      <trkpt lat="42.783993" lon="-7.5501595">
        <time>2022-07-12T08:45:15Z</time>
      </trkpt>
      <trkpt lat="42.784004" lon="-7.5502343">
        <time>2022-07-12T08:45:20Z</time>
      </trkpt>
      <trkpt lat="42.78404" lon="-7.550295">
        <time>2022-07-12T08:45:25Z</time>
      </trkpt>
      <trkpt lat="42.784084" lon="-7.5503592">
        <time>2022-07-12T08:45:30Z</time>
      </trkpt>
      <trkpt lat="42.784115" lon="-7.5504313">
        <time>2022-07-12T08:45:35Z</time>
      </trkpt>
      <trkpt lat="42.78413" lon="-7.5505157">
        <time>2022-07-12T08:45:40Z</time>
      </trkpt>
      <trkpt lat="42.78415" lon="-7.550584">
        <time>2022-07-12T08:45:44Z</time>
      </trkpt>
      <trkpt lat="42.78417" lon="-7.550651">
        <time>2022-07-12T08:45:48Z</time>
      </trkpt>
      <trkpt lat="42.78418" lon="-7.550728">
        <time>2022-07-12T08:45:52Z</time>
      </trkpt>
      <trkpt lat="42.784206" lon="-7.550787">
        <time>2022-07-12T08:45:56Z</time>
      </trkpt>
      <trkpt lat="42.784225" lon="-7.550859">
        <time>2022-07-12T08:46:01Z</time>
      </trkpt>
      <trkpt lat="42.784256" lon="-7.5509167">
        <time>2022-07-12T08:46:05Z</time>
      </trkpt>
      <trkpt lat="42.784283" lon="-7.5509815">
        <time>2022-07-12T08:46:09Z</time>
      </trkpt>
      <trkpt lat="42.784298" lon="-7.551042">
        <time>2022-07-12T08:46:13Z</time>
      </trkpt>
      <trkpt lat="42.784313" lon="-7.5511255">
        <time>2022-07-12T08:46:18Z</time>
      </trkpt>
      <trkpt lat="42.78432" lon="-7.551191">
        <time>2022-07-12T08:46:22Z</time>
      </trkpt>
      <trkpt lat="42.784325" lon="-7.5512686">
        <time>2022-07-12T08:46:27Z</time>
      </trkpt>
      <trkpt lat="42.784313" lon="-7.55133">
        <time>2022-07-12T08:46:31Z</time>
      </trkpt>
      <trkpt lat="42.784306" lon="-7.5514126">
        <time>2022-07-12T08:46:36Z</time>
      </trkpt>
      <trkpt lat="42.78429" lon="-7.5514846">
        <time>2022-07-12T08:46:40Z</time>
      </trkpt>
      <trkpt lat="42.784275" lon="-7.551557">
        <time>2022-07-12T08:46:44Z</time>
      </trkpt>
      <trkpt lat="42.784252" lon="-7.5516205">
        <time>2022-07-12T08:46:48Z</time>
      </trkpt>
      <trkpt lat="42.784237" lon="-7.551686">
        <time>2022-07-12T08:46:52Z</time>
      </trkpt>
      <trkpt lat="42.784237" lon="-7.55177">
        <time>2022-07-12T08:46:57Z</time>
      </trkpt>
      <trkpt lat="42.784245" lon="-7.55184">
        <time>2022-07-12T08:47:01Z</time>
      </trkpt>
      <trkpt lat="42.784256" lon="-7.551922">
        <time>2022-07-12T08:47:06Z</time>
      </trkpt>
      <trkpt lat="42.784267" lon="-7.552004">
        <time>2022-07-12T08:47:11Z</time>
      </trkpt>
      <trkpt lat="42.784275" lon="-7.5520644">
        <time>2022-07-12T08:47:15Z</time>
      </trkpt>
      <trkpt lat="42.78428" lon="-7.552139">
        <time>2022-07-12T08:47:20Z</time>
      </trkpt>
      <trkpt lat="42.784264" lon="-7.5522127">
        <time>2022-07-12T08:47:24Z</time>
      </trkpt>
      <trkpt lat="42.784252" lon="-7.5522933">
        <time>2022-07-12T08:47:29Z</time>
      </trkpt>
      <trkpt lat="42.784237" lon="-7.552357">
        <time>2022-07-12T08:47:33Z</time>
      </trkpt>
      <trkpt lat="42.78422" lon="-7.5524235">
        <time>2022-07-12T08:47:37Z</time>
      </trkpt>
      <trkpt lat="42.784203" lon="-7.5524926">
        <time>2022-07-12T08:47:41Z</time>
      </trkpt>
      <trkpt lat="42.784184" lon="-7.5525613">
        <time>2022-07-12T08:47:45Z</time>
      </trkpt>
      <trkpt lat="42.78416" lon="-7.552625">
        <time>2022-07-12T08:47:49Z</time>
      </trkpt>
      <trkpt lat="42.78414" lon="-7.5526977">
        <time>2022-07-12T08:47:54Z</time>
      </trkpt>
      <trkpt lat="42.784126" lon="-7.55277">
        <time>2022-07-12T08:47:59Z</time>
      </trkpt>
      <trkpt lat="42.784084" lon="-7.5528507">
        <time>2022-07-12T08:48:03Z</time>
      </trkpt>
      <trkpt lat="42.78407" lon="-7.552922">
        <time>2022-07-12T08:48:07Z</time>
      </trkpt>
      <trkpt lat="42.784065" lon="-7.5529933">
        <time>2022-07-12T08:48:12Z</time>
      </trkpt>
      <trkpt lat="42.784058" lon="-7.553056">
        <time>2022-07-12T08:48:16Z</time>
      </trkpt>
      <trkpt lat="42.78403" lon="-7.5531282">
        <time>2022-07-12T08:48:21Z</time>
      </trkpt>
      <trkpt lat="42.784027" lon="-7.553201">
        <time>2022-07-12T08:48:27Z</time>
      </trkpt>
      <trkpt lat="42.784035" lon="-7.5532684">
        <time>2022-07-12T08:48:32Z</time>
      </trkpt>
      <trkpt lat="42.784042" lon="-7.553338">
        <time>2022-07-12T08:48:37Z</time>
      </trkpt>
      <trkpt lat="42.78404" lon="-7.5534277">
        <time>2022-07-12T08:48:42Z</time>
      </trkpt>
      <trkpt lat="42.784027" lon="-7.5535016">
        <time>2022-07-12T08:48:46Z</time>
      </trkpt>
      <trkpt lat="42.784004" lon="-7.5535913">
        <time>2022-07-12T08:48:50Z</time>
      </trkpt>
      <trkpt lat="42.783985" lon="-7.5536523">
        <time>2022-07-12T08:48:53Z</time>
      </trkpt>
      <trkpt lat="42.783974" lon="-7.5537252">
        <time>2022-07-12T08:48:58Z</time>
      </trkpt>
      <trkpt lat="42.783955" lon="-7.5538063">
        <time>2022-07-12T08:49:03Z</time>
      </trkpt>
      <trkpt lat="42.783936" lon="-7.5538707">
        <time>2022-07-12T08:49:07Z</time>
      </trkpt>
      <trkpt lat="42.78391" lon="-7.553948">
        <time>2022-07-12T08:49:11Z</time>
      </trkpt>
      <trkpt lat="42.783894" lon="-7.554001">
        <time>2022-07-12T08:49:14Z</time>
      </trkpt>
      <trkpt lat="42.783886" lon="-7.55407">
        <time>2022-07-12T08:49:19Z</time>
      </trkpt>
      <trkpt lat="42.783867" lon="-7.5541387">
        <time>2022-07-12T08:49:24Z</time>
      </trkpt>
      <trkpt lat="42.783833" lon="-7.5542216">
        <time>2022-07-12T08:49:29Z</time>
      </trkpt>
      <trkpt lat="42.783787" lon="-7.5542846">
        <time>2022-07-12T08:49:33Z</time>
      </trkpt>
      <trkpt lat="42.78375" lon="-7.5543284">
        <time>2022-07-12T08:49:36Z</time>
      </trkpt>
      <trkpt lat="42.783707" lon="-7.554385">
        <time>2022-07-12T08:49:41Z</time>
      </trkpt>
      <trkpt lat="42.78368" lon="-7.554434">
        <time>2022-07-12T08:49:45Z</time>
      </trkpt>
      <trkpt lat="42.78364" lon="-7.5544915">
        <time>2022-07-12T08:49:50Z</time>
      </trkpt>
      <trkpt lat="42.783596" lon="-7.55455">
        <time>2022-07-12T08:49:54Z</time>
      </trkpt>
      <trkpt lat="42.78355" lon="-7.5546117">
        <time>2022-07-12T08:49:59Z</time>
      </trkpt>
      <trkpt lat="42.783512" lon="-7.55466">
        <time>2022-07-12T08:50:03Z</time>
      </trkpt>
      <trkpt lat="42.783466" lon="-7.5547204">
        <time>2022-07-12T08:50:08Z</time>
      </trkpt>
      <trkpt lat="42.78342" lon="-7.554778">
        <time>2022-07-12T08:50:12Z</time>
      </trkpt>
      <trkpt lat="42.78338" lon="-7.5548325">
        <time>2022-07-12T08:50:16Z</time>
      </trkpt>
      <trkpt lat="42.78334" lon="-7.554884">
        <time>2022-07-12T08:50:20Z</time>
      </trkpt>
      <trkpt lat="42.783306" lon="-7.5549335">
        <time>2022-07-12T08:50:24Z</time>
      </trkpt>
      <trkpt lat="42.783257" lon="-7.5549746">
        <time>2022-07-12T08:50:29Z</time>
      </trkpt>
      <trkpt lat="42.783215" lon="-7.5550137">
        <time>2022-07-12T08:50:34Z</time>
      </trkpt>
      <trkpt lat="42.78316" lon="-7.555066">
        <time>2022-07-12T08:50:39Z</time>
      </trkpt>
      <trkpt lat="42.783115" lon="-7.555118">
        <time>2022-07-12T08:50:43Z</time>
      </trkpt>
      <trkpt lat="42.783077" lon="-7.5551705">
        <time>2022-07-12T08:50:46Z</time>
      </trkpt>
      <trkpt lat="42.78304" lon="-7.5552335">
        <time>2022-07-12T08:50:50Z</time>
      </trkpt>
      <trkpt lat="42.782997" lon="-7.5552964">
        <time>2022-07-12T08:50:54Z</time>
      </trkpt>
      <trkpt lat="42.782955" lon="-7.555339">
        <time>2022-07-12T08:50:58Z</time>
      </trkpt>
      <trkpt lat="42.78291" lon="-7.555372">
        <time>2022-07-12T08:51:02Z</time>
      </trkpt>
      <trkpt lat="42.78287" lon="-7.555427">
        <time>2022-07-12T08:51:06Z</time>
      </trkpt>
      <trkpt lat="42.78285" lon="-7.555494">
        <time>2022-07-12T08:51:10Z</time>
      </trkpt>
      <trkpt lat="42.78283" lon="-7.55557">
        <time>2022-07-12T08:51:14Z</time>
      </trkpt>
      <trkpt lat="42.78283" lon="-7.555659">
        <time>2022-07-12T08:51:19Z</time>
      </trkpt>
      <trkpt lat="42.782845" lon="-7.5557423">
        <time>2022-07-12T08:51:23Z</time>
      </trkpt>
      <trkpt lat="42.78287" lon="-7.555818">
        <time>2022-07-12T08:51:27Z</time>
      </trkpt>
      <trkpt lat="42.782898" lon="-7.5558906">
        <time>2022-07-12T08:51:32Z</time>
      </trkpt>
      <trkpt lat="42.78292" lon="-7.5559745">
        <time>2022-07-12T08:51:37Z</time>
      </trkpt>
      <trkpt lat="42.78293" lon="-7.556041">
        <time>2022-07-12T08:51:41Z</time>
      </trkpt>
      <trkpt lat="42.782944" lon="-7.5561256">
        <time>2022-07-12T08:51:46Z</time>
      </trkpt>
      <trkpt lat="42.782955" lon="-7.5561867">
        <time>2022-07-12T08:51:49Z</time>
      </trkpt>
      <trkpt lat="42.78297" lon="-7.5562572">
        <time>2022-07-12T08:51:53Z</time>
      </trkpt>
      <trkpt lat="42.78299" lon="-7.5563364">
        <time>2022-07-12T08:51:58Z</time>
      </trkpt>
      <trkpt lat="42.783012" lon="-7.556412">
        <time>2022-07-12T08:52:03Z</time>
      </trkpt>
      <trkpt lat="42.783035" lon="-7.556473">
        <time>2022-07-12T08:52:07Z</time>
      </trkpt>
      <trkpt lat="42.783073" lon="-7.5565324">
        <time>2022-07-12T08:52:11Z</time>
      </trkpt>
      <trkpt lat="42.78311" lon="-7.556586">
        <time>2022-07-12T08:52:15Z</time>
      </trkpt>
      <trkpt lat="42.783154" lon="-7.556641">
        <time>2022-07-12T08:52:20Z</time>
      </trkpt>
      <trkpt lat="42.783195" lon="-7.5566897">
        <time>2022-07-12T08:52:24Z</time>
      </trkpt>
      <trkpt lat="42.783234" lon="-7.5567303">
        <time>2022-07-12T08:52:28Z</time>
      </trkpt>
      <trkpt lat="42.783276" lon="-7.556788">
        <time>2022-07-12T08:52:33Z</time>
      </trkpt>
      <trkpt lat="42.783318" lon="-7.556841">
        <time>2022-07-12T08:52:38Z</time>
      </trkpt>
      <trkpt lat="42.783356" lon="-7.5568843">
        <time>2022-07-12T08:52:42Z</time>
      </trkpt>
      <trkpt lat="42.783398" lon="-7.5569263">
        <time>2022-07-12T08:52:47Z</time>
      </trkpt>
      <trkpt lat="42.78346" lon="-7.556953">
        <time>2022-07-12T08:52:52Z</time>
      </trkpt>
      <trkpt lat="42.78352" lon="-7.55697">
        <time>2022-07-12T08:52:56Z</time>
      </trkpt>
      <trkpt lat="42.783577" lon="-7.5569825">
        <time>2022-07-12T08:52:59Z</time>
      </trkpt>
      <trkpt lat="42.783615" lon="-7.5570097">
        <time>2022-07-12T08:53:02Z</time>
      </trkpt>
      <trkpt lat="42.783672" lon="-7.55704">
        <time>2022-07-12T08:53:07Z</time>
      </trkpt>
      <trkpt lat="42.783733" lon="-7.5570726">
        <time>2022-07-12T08:53:12Z</time>
      </trkpt>
      <trkpt lat="42.783794" lon="-7.5571117">
        <time>2022-07-12T08:53:16Z</time>
      </trkpt>
      <trkpt lat="42.783848" lon="-7.5571313">
        <time>2022-07-12T08:53:20Z</time>
      </trkpt>
      <trkpt lat="42.7839" lon="-7.5571637">
        <time>2022-07-12T08:53:25Z</time>
      </trkpt>
      <trkpt lat="42.783947" lon="-7.55719">
        <time>2022-07-12T08:53:29Z</time>
      </trkpt>
      <trkpt lat="42.783997" lon="-7.557235">
        <time>2022-07-12T08:53:34Z</time>
      </trkpt>
      <trkpt lat="42.78404" lon="-7.557261">
        <time>2022-07-12T08:53:38Z</time>
      </trkpt>
      <trkpt lat="42.784092" lon="-7.557292">
        <time>2022-07-12T08:53:43Z</time>
      </trkpt>
      <trkpt lat="42.784138" lon="-7.557322">
        <time>2022-07-12T08:53:47Z</time>
      </trkpt>
      <trkpt lat="42.784184" lon="-7.55736">
        <time>2022-07-12T08:53:51Z</time>
      </trkpt>
      <trkpt lat="42.784233" lon="-7.557409">
        <time>2022-07-12T08:53:55Z</time>
      </trkpt>
      <trkpt lat="42.78428" lon="-7.557462">
        <time>2022-07-12T08:53:59Z</time>
      </trkpt>
      <trkpt lat="42.78432" lon="-7.5575185">
        <time>2022-07-12T08:54:03Z</time>
      </trkpt>
      <trkpt lat="42.784363" lon="-7.5575776">
        <time>2022-07-12T08:54:07Z</time>
      </trkpt>
      <trkpt lat="42.78438" lon="-7.5576305">
        <time>2022-07-12T08:54:11Z</time>
      </trkpt>
      <trkpt lat="42.784416" lon="-7.557687">
        <time>2022-07-12T08:54:16Z</time>
      </trkpt>
      <trkpt lat="42.784447" lon="-7.557764">
        <time>2022-07-12T08:54:21Z</time>
      </trkpt>
      <trkpt lat="42.784473" lon="-7.5578213">
        <time>2022-07-12T08:54:24Z</time>
      </trkpt>
      <trkpt lat="42.784508" lon="-7.5578794">
        <time>2022-07-12T08:54:27Z</time>
      </trkpt>
      <trkpt lat="42.78453" lon="-7.5579567">
        <time>2022-07-12T08:54:31Z</time>
      </trkpt>
      <trkpt lat="42.784546" lon="-7.558025">
        <time>2022-07-12T08:54:35Z</time>
      </trkpt>
      <trkpt lat="42.78456" lon="-7.55809">
        <time>2022-07-12T08:54:40Z</time>
      </trkpt>
      <trkpt lat="42.78459" lon="-7.5581675">
        <time>2022-07-12T08:54:45Z</time>
      </trkpt>
      <trkpt lat="42.784607" lon="-7.5582395">
        <time>2022-07-12T08:54:49Z</time>
      </trkpt>
      <trkpt lat="42.78462" lon="-7.558315">
        <time>2022-07-12T08:54:54Z</time>
      </trkpt>
      <trkpt lat="42.784622" lon="-7.558402">
        <time>2022-07-12T08:55:00Z</time>
      </trkpt>
      <trkpt lat="42.784615" lon="-7.558479">
        <time>2022-07-12T08:55:05Z</time>
      </trkpt>
      <trkpt lat="42.784603" lon="-7.5585546">
        <time>2022-07-12T08:55:09Z</time>
      </trkpt>
      <trkpt lat="42.78459" lon="-7.5586395">
        <time>2022-07-12T08:55:13Z</time>
      </trkpt>
      <trkpt lat="42.784576" lon="-7.5587077">
        <time>2022-07-12T08:55:17Z</time>
      </trkpt>
      <trkpt lat="42.78456" lon="-7.5587745">
        <time>2022-07-12T08:55:21Z</time>
      </trkpt>
      <trkpt lat="42.78454" lon="-7.5588527">
        <time>2022-07-12T08:55:26Z</time>
      </trkpt>
      <trkpt lat="42.784523" lon="-7.558924">
        <time>2022-07-12T08:55:31Z</time>
      </trkpt>
      <trkpt lat="42.784527" lon="-7.558993">
        <time>2022-07-12T08:55:35Z</time>
      </trkpt>
      <trkpt lat="42.78456" lon="-7.5590687">
        <time>2022-07-12T08:55:40Z</time>
      </trkpt>
      <trkpt lat="42.7846" lon="-7.5591354">
        <time>2022-07-12T08:55:44Z</time>
      </trkpt>
      <trkpt lat="42.784637" lon="-7.5591846">
        <time>2022-07-12T08:55:48Z</time>
      </trkpt>
      <trkpt lat="42.784695" lon="-7.5592203">
        <time>2022-07-12T08:55:52Z</time>
      </trkpt>
      <trkpt lat="42.784744" lon="-7.5592465">
        <time>2022-07-12T08:55:56Z</time>
      </trkpt>
      <trkpt lat="42.784794" lon="-7.559281">
        <time>2022-07-12T08:56:00Z</time>
      </trkpt>
      <trkpt lat="42.784836" lon="-7.5593224">
        <time>2022-07-12T08:56:05Z</time>
      </trkpt>
      <trkpt lat="42.784874" lon="-7.559375">
        <time>2022-07-12T08:56:10Z</time>
      </trkpt>
      <trkpt lat="42.78491" lon="-7.559441">
        <time>2022-07-12T08:56:15Z</time>
      </trkpt>
      <trkpt lat="42.784943" lon="-7.5595098">
        <time>2022-07-12T08:56:19Z</time>
      </trkpt>
      <trkpt lat="42.78497" lon="-7.5595684">
        <time>2022-07-12T08:56:23Z</time>
      </trkpt>
      <trkpt lat="42.785" lon="-7.5596194">
        <time>2022-07-12T08:56:27Z</time>
      </trkpt>
      <trkpt lat="42.785034" lon="-7.5596776">
        <time>2022-07-12T08:56:32Z</time>
      </trkpt>
      <trkpt lat="42.785072" lon="-7.559731">
        <time>2022-07-12T08:56:37Z</time>
      </trkpt>
      <trkpt lat="42.785122" lon="-7.5597935">
        <time>2022-07-12T08:56:42Z</time>
      </trkpt>
      <trkpt lat="42.785168" lon="-7.5598445">
        <time>2022-07-12T08:56:46Z</time>
      </trkpt>
      <trkpt lat="42.785217" lon="-7.559888">
        <time>2022-07-12T08:56:51Z</time>
      </trkpt>
      <trkpt lat="42.785263" lon="-7.5599294">
        <time>2022-07-12T08:56:57Z</time>
      </trkpt>
      <trkpt lat="42.7853" lon="-7.559984">
        <time>2022-07-12T08:57:03Z</time>
      </trkpt>
      <trkpt lat="42.785343" lon="-7.56003">
        <time>2022-07-12T08:57:07Z</time>
      </trkpt>
      <trkpt lat="42.785393" lon="-7.5600753">
        <time>2022-07-12T08:57:11Z</time>
      </trkpt>
      <trkpt lat="42.785427" lon="-7.5601125">
        <time>2022-07-12T08:57:14Z</time>
      </trkpt>
      <trkpt lat="42.78547" lon="-7.560165">
        <time>2022-07-12T08:57:18Z</time>
      </trkpt>
      <trkpt lat="42.785515" lon="-7.560207">
        <time>2022-07-12T08:57:23Z</time>
      </trkpt>
      <trkpt lat="42.785553" lon="-7.560249">
        <time>2022-07-12T08:57:27Z</time>
      </trkpt>
      <trkpt lat="42.785583" lon="-7.560321">
        <time>2022-07-12T08:57:31Z</time>
      </trkpt>
      <trkpt lat="42.785625" lon="-7.5603657">
        <time>2022-07-12T08:57:35Z</time>
      </trkpt>
      <trkpt lat="42.78567" lon="-7.5604024">
        <time>2022-07-12T08:57:39Z</time>
      </trkpt>
      <trkpt lat="42.785713" lon="-7.5604606">
        <time>2022-07-12T08:57:44Z</time>
      </trkpt>
      <trkpt lat="42.785744" lon="-7.560509">
        <time>2022-07-12T08:57:48Z</time>
      </trkpt>
      <trkpt lat="42.785793" lon="-7.560552">
        <time>2022-07-12T08:57:53Z</time>
      </trkpt>
      <trkpt lat="42.785835" lon="-7.5606017">
        <time>2022-07-12T08:57:58Z</time>
      </trkpt>
      <trkpt lat="42.785866" lon="-7.560671">
        <time>2022-07-12T08:58:03Z</time>
      </trkpt>
      <trkpt lat="42.785904" lon="-7.560729">
        <time>2022-07-12T08:58:07Z</time>
      </trkpt>
      <trkpt lat="42.785942" lon="-7.560776">
        <time>2022-07-12T08:58:10Z</time>
      </trkpt>
      <trkpt lat="42.785984" lon="-7.5608344">
        <time>2022-07-12T08:58:13Z</time>
      </trkpt>
      <trkpt lat="42.786022" lon="-7.560871">
        <time>2022-07-12T08:58:16Z</time>
      </trkpt>
      <trkpt lat="42.786057" lon="-7.5609326">
        <time>2022-07-12T08:58:20Z</time>
      </trkpt>
      <trkpt lat="42.786064" lon="-7.561004">
        <time>2022-07-12T08:58:25Z</time>
      </trkpt>
      <trkpt lat="42.786068" lon="-7.561086">
        <time>2022-07-12T08:58:30Z</time>
      </trkpt>
      <trkpt lat="42.786076" lon="-7.561156">
        <time>2022-07-12T08:58:35Z</time>
      </trkpt>
      <trkpt lat="42.786076" lon="-7.5612364">
        <time>2022-07-12T08:58:40Z</time>
      </trkpt>
      <trkpt lat="42.786076" lon="-7.5613165">
        <time>2022-07-12T08:58:44Z</time>
      </trkpt>
      <trkpt lat="42.78608" lon="-7.561384">
        <time>2022-07-12T08:58:48Z</time>
      </trkpt>
      <trkpt lat="42.78609" lon="-7.561463">
        <time>2022-07-12T08:58:53Z</time>
      </trkpt>
      <trkpt lat="42.786095" lon="-7.5615377">
        <time>2022-07-12T08:58:57Z</time>
      </trkpt>
      <trkpt lat="42.786106" lon="-7.5616136">
        <time>2022-07-12T08:59:02Z</time>
      </trkpt>
      <trkpt lat="42.78613" lon="-7.561675">
        <time>2022-07-12T08:59:06Z</time>
      </trkpt>
      <trkpt lat="42.786156" lon="-7.561744">
        <time>2022-07-12T08:59:10Z</time>
      </trkpt>
      <trkpt lat="42.786167" lon="-7.5618086">
        <time>2022-07-12T08:59:14Z</time>
      </trkpt>
      <trkpt lat="42.786182" lon="-7.561889">
        <time>2022-07-12T08:59:19Z</time>
      </trkpt>
      <trkpt lat="42.786198" lon="-7.5619583">
        <time>2022-07-12T08:59:23Z</time>
      </trkpt>
      <trkpt lat="42.786217" lon="-7.56202">
        <time>2022-07-12T08:59:27Z</time>
      </trkpt>
      <trkpt lat="42.786243" lon="-7.562072">
        <time>2022-07-12T08:59:32Z</time>
      </trkpt>
      <trkpt lat="42.78627" lon="-7.562154">
        <time>2022-07-12T08:59:38Z</time>
      </trkpt>
      <trkpt lat="42.7863" lon="-7.562225">
        <time>2022-07-12T08:59:43Z</time>
      </trkpt>
      <trkpt lat="42.786327" lon="-7.5622907">
        <time>2022-07-12T08:59:47Z</time>
      </trkpt>
      <trkpt lat="42.786354" lon="-7.5623384">
        <time>2022-07-12T08:59:51Z</time>
      </trkpt>
      <trkpt lat="42.786396" lon="-7.5623937">
        <time>2022-07-12T08:59:57Z</time>
      </trkpt>
      <trkpt lat="42.786446" lon="-7.5624394">
        <time>2022-07-12T09:00:02Z</time>
      </trkpt>
      <trkpt lat="42.78649" lon="-7.562496">
        <time>2022-07-12T09:00:07Z</time>
      </trkpt>
      <trkpt lat="42.786526" lon="-7.562538">
        <time>2022-07-12T09:00:11Z</time>
      </trkpt>
      <trkpt lat="42.786583" lon="-7.5625877">
        <time>2022-07-12T09:00:16Z</time>
      </trkpt>
      <trkpt lat="42.786625" lon="-7.5626345">
        <time>2022-07-12T09:00:20Z</time>
      </trkpt>
      <trkpt lat="42.78666" lon="-7.562672">
        <time>2022-07-12T09:00:24Z</time>
      </trkpt>
      <trkpt lat="42.786705" lon="-7.562719">
        <time>2022-07-12T09:00:29Z</time>
      </trkpt>
      <trkpt lat="42.78675" lon="-7.562748">
        <time>2022-07-12T09:00:33Z</time>
      </trkpt>
      <trkpt lat="42.78681" lon="-7.5627775">
        <time>2022-07-12T09:00:39Z</time>
      </trkpt>
      <trkpt lat="42.78686" lon="-7.56279">
        <time>2022-07-12T09:00:45Z</time>
      </trkpt>
      <trkpt lat="42.78692" lon="-7.562833">
        <time>2022-07-12T09:00:51Z</time>
      </trkpt>
      <trkpt lat="42.786938" lon="-7.562899">
        <time>2022-07-12T09:00:55Z</time>
      </trkpt>
      <trkpt lat="42.78696" lon="-7.5629826">
        <time>2022-07-12T09:01:00Z</time>
      </trkpt>
      <trkpt lat="42.78698" lon="-7.563043">
        <time>2022-07-12T09:01:04Z</time>
      </trkpt>
      <trkpt lat="42.786983" lon="-7.563123">
        <time>2022-07-12T09:01:10Z</time>
      </trkpt>
      <trkpt lat="42.786972" lon="-7.563198">
        <time>2022-07-12T09:01:15Z</time>
      </trkpt>
      <trkpt lat="42.786953" lon="-7.5632873">
        <time>2022-07-12T09:01:20Z</time>
      </trkpt>
      <trkpt lat="42.786938" lon="-7.5633645">
        <time>2022-07-12T09:01:24Z</time>
      </trkpt>
      <trkpt lat="42.786938" lon="-7.5634413">
        <time>2022-07-12T09:01:29Z</time>
      </trkpt>
      <trkpt lat="42.786964" lon="-7.5635157">
        <time>2022-07-12T09:01:34Z</time>
      </trkpt>
      <trkpt lat="42.786995" lon="-7.563569">
        <time>2022-07-12T09:01:38Z</time>
      </trkpt>
      <trkpt lat="42.787025" lon="-7.56363">
        <time>2022-07-12T09:01:43Z</time>
      </trkpt>
      <trkpt lat="42.787056" lon="-7.5636926">
        <time>2022-07-12T09:01:48Z</time>
      </trkpt>
      <trkpt lat="42.78709" lon="-7.563752">
        <time>2022-07-12T09:01:53Z</time>
      </trkpt>
      <trkpt lat="42.787125" lon="-7.563795">
        <time>2022-07-12T09:02:01Z</time>
      </trkpt>
      <trkpt lat="42.78715" lon="-7.563872">
        <time>2022-07-12T09:02:38Z</time>
      </trkpt>
      <trkpt lat="42.787205" lon="-7.5639176">
        <time>2022-07-12T09:02:42Z</time>
      </trkpt>
      <trkpt lat="42.787243" lon="-7.5639634">
        <time>2022-07-12T09:02:46Z</time>
      </trkpt>
      <trkpt lat="42.78729" lon="-7.564018">
        <time>2022-07-12T09:02:51Z</time>
      </trkpt>
      <trkpt lat="42.78733" lon="-7.5640807">
        <time>2022-07-12T09:02:55Z</time>
      </trkpt>
      <trkpt lat="42.78738" lon="-7.5641646">
        <time>2022-07-12T09:03:00Z</time>
      </trkpt>
      <trkpt lat="42.78741" lon="-7.5642323">
        <time>2022-07-12T09:03:04Z</time>
      </trkpt>
      <trkpt lat="42.787434" lon="-7.564303">
        <time>2022-07-12T09:03:08Z</time>
      </trkpt>
      <trkpt lat="42.78746" lon="-7.564372">
        <time>2022-07-12T09:03:12Z</time>
      </trkpt>
      <trkpt lat="42.787487" lon="-7.5644383">
        <time>2022-07-12T09:03:16Z</time>
      </trkpt>
      <trkpt lat="42.78751" lon="-7.5645075">
        <time>2022-07-12T09:03:20Z</time>
      </trkpt>
      <trkpt lat="42.787525" lon="-7.564577">
        <time>2022-07-12T09:03:24Z</time>
      </trkpt>
      <trkpt lat="42.787544" lon="-7.5646453">
        <time>2022-07-12T09:03:28Z</time>
      </trkpt>
      <trkpt lat="42.787556" lon="-7.5647163">
        <time>2022-07-12T09:03:32Z</time>
      </trkpt>
      <trkpt lat="42.787567" lon="-7.5647874">
        <time>2022-07-12T09:03:36Z</time>
      </trkpt>
      <trkpt lat="42.787582" lon="-7.564853">
        <time>2022-07-12T09:03:40Z</time>
      </trkpt>
      <trkpt lat="42.78761" lon="-7.564932">
        <time>2022-07-12T09:03:45Z</time>
      </trkpt>
      <trkpt lat="42.787647" lon="-7.5650215">
        <time>2022-07-12T09:03:49Z</time>
      </trkpt>
      <trkpt lat="42.787655" lon="-7.56505">
        <time>2022-07-12T09:03:52Z</time>
      </trkpt>
      <trkpt lat="42.787678" lon="-7.565123">
        <time>2022-07-12T09:03:57Z</time>
      </trkpt>
      <trkpt lat="42.787704" lon="-7.5651774">
        <time>2022-07-12T09:04:01Z</time>
      </trkpt>
      <trkpt lat="42.787735" lon="-7.5652504">
        <time>2022-07-12T09:04:06Z</time>
      </trkpt>
      <trkpt lat="42.78776" lon="-7.5653086">
        <time>2022-07-12T09:04:10Z</time>
      </trkpt>
      <trkpt lat="42.787785" lon="-7.565368">
        <time>2022-07-12T09:04:14Z</time>
      </trkpt>
      <trkpt lat="42.787815" lon="-7.5654373">
        <time>2022-07-12T09:04:19Z</time>
      </trkpt>
      <trkpt lat="42.78785" lon="-7.565495">
        <time>2022-07-12T09:04:23Z</time>
      </trkpt>
      <trkpt lat="42.787884" lon="-7.565556">
        <time>2022-07-12T09:04:27Z</time>
      </trkpt>
      <trkpt lat="42.787918" lon="-7.5656185">
        <time>2022-07-12T09:04:31Z</time>
      </trkpt>
      <trkpt lat="42.787945" lon="-7.5656843">
        <time>2022-07-12T09:04:35Z</time>
      </trkpt>
      <trkpt lat="42.78797" lon="-7.565751">
        <time>2022-07-12T09:04:39Z</time>
      </trkpt>
      <trkpt lat="42.78799" lon="-7.5658216">
        <time>2022-07-12T09:04:43Z</time>
      </trkpt>
      <trkpt lat="42.788002" lon="-7.5658984">
        <time>2022-07-12T09:04:47Z</time>
      </trkpt>
      <trkpt lat="42.78801" lon="-7.5659714">
        <time>2022-07-12T09:04:51Z</time>
      </trkpt>
      <trkpt lat="42.78802" lon="-7.566045">
        <time>2022-07-12T09:04:55Z</time>
      </trkpt>
      <trkpt lat="42.788033" lon="-7.5661116">
        <time>2022-07-12T09:04:59Z</time>
      </trkpt>
      <trkpt lat="42.788048" lon="-7.5661964">
        <time>2022-07-12T09:05:04Z</time>
      </trkpt>
      <trkpt lat="42.788063" lon="-7.566263">
        <time>2022-07-12T09:05:08Z</time>
      </trkpt>
      <trkpt lat="42.788094" lon="-7.5663323">
        <time>2022-07-12T09:05:13Z</time>
      </trkpt>
      <trkpt lat="42.78812" lon="-7.566409">
        <time>2022-07-12T09:05:18Z</time>
      </trkpt>
      <trkpt lat="42.788136" lon="-7.5664744">
        <time>2022-07-12T09:05:22Z</time>
      </trkpt>
      <trkpt lat="42.788162" lon="-7.566552">
        <time>2022-07-12T09:05:27Z</time>
      </trkpt>
      <trkpt lat="42.788197" lon="-7.566631">
        <time>2022-07-12T09:05:32Z</time>
      </trkpt>
      <trkpt lat="42.78823" lon="-7.566688">
        <time>2022-07-12T09:05:36Z</time>
      </trkpt>
      <trkpt lat="42.78827" lon="-7.566744">
        <time>2022-07-12T09:05:40Z</time>
      </trkpt>
      <trkpt lat="42.788315" lon="-7.5667987">
        <time>2022-07-12T09:05:45Z</time>
      </trkpt>
      <trkpt lat="42.788364" lon="-7.566856">
        <time>2022-07-12T09:05:50Z</time>
      </trkpt>
      <trkpt lat="42.788403" lon="-7.566905">
        <time>2022-07-12T09:05:54Z</time>
      </trkpt>
      <trkpt lat="42.78845" lon="-7.5669646">
        <time>2022-07-12T09:05:59Z</time>
      </trkpt>
      <trkpt lat="42.78849" lon="-7.5670233">
        <time>2022-07-12T09:06:04Z</time>
      </trkpt>
      <trkpt lat="42.78853" lon="-7.567077">
        <time>2022-07-12T09:06:08Z</time>
      </trkpt>
      <trkpt lat="42.788544" lon="-7.567162">
        <time>2022-07-12T09:06:13Z</time>
      </trkpt>
      <trkpt lat="42.78854" lon="-7.567251">
        <time>2022-07-12T09:06:18Z</time>
      </trkpt>
      <trkpt lat="42.788532" lon="-7.56732">
        <time>2022-07-12T09:06:22Z</time>
      </trkpt>
      <trkpt lat="42.788525" lon="-7.567403">
        <time>2022-07-12T09:06:27Z</time>
      </trkpt>
      <trkpt lat="42.788517" lon="-7.567474">
        <time>2022-07-12T09:06:32Z</time>
      </trkpt>
      <trkpt lat="42.78851" lon="-7.567554">
        <time>2022-07-12T09:06:37Z</time>
      </trkpt>
      <trkpt lat="42.788513" lon="-7.5676117">
        <time>2022-07-12T09:06:42Z</time>
      </trkpt>
      <trkpt lat="42.78855" lon="-7.567669">
        <time>2022-07-12T09:06:51Z</time>
      </trkpt>
      <trkpt lat="42.788593" lon="-7.5677147">
        <time>2022-07-12T09:06:56Z</time>
      </trkpt>
      <trkpt lat="42.78863" lon="-7.5677733">
        <time>2022-07-12T09:07:01Z</time>
      </trkpt>
      <trkpt lat="42.788666" lon="-7.5678267">
        <time>2022-07-12T09:07:05Z</time>
      </trkpt>
      <trkpt lat="42.788704" lon="-7.5678706">
        <time>2022-07-12T09:07:09Z</time>
      </trkpt>
      <trkpt lat="42.788746" lon="-7.567919">
        <time>2022-07-12T09:07:14Z</time>
      </trkpt>
      <trkpt lat="42.788765" lon="-7.567987">
        <time>2022-07-12T09:07:19Z</time>
      </trkpt>
      <trkpt lat="42.78877" lon="-7.5680647">
        <time>2022-07-12T09:07:24Z</time>
      </trkpt>
      <trkpt lat="42.788776" lon="-7.568141">
        <time>2022-07-12T09:07:29Z</time>
      </trkpt>
      <trkpt lat="42.788773" lon="-7.568217">
        <time>2022-07-12T09:07:34Z</time>
      </trkpt>
      <trkpt lat="42.788757" lon="-7.568293">
        <time>2022-07-12T09:07:38Z</time>
      </trkpt>
      <trkpt lat="42.78875" lon="-7.5683627">
        <time>2022-07-12T09:07:42Z</time>
      </trkpt>
      <trkpt lat="42.788734" lon="-7.5684433">
        <time>2022-07-12T09:07:47Z</time>
      </trkpt>
      <trkpt lat="42.788708" lon="-7.5685215">
        <time>2022-07-12T09:07:51Z</time>
      </trkpt>
      <trkpt lat="42.78869" lon="-7.5685925">
        <time>2022-07-12T09:07:55Z</time>
      </trkpt>
      <trkpt lat="42.78868" lon="-7.5686693">
        <time>2022-07-12T09:08:00Z</time>
      </trkpt>
      <trkpt lat="42.788704" lon="-7.5687237">
        <time>2022-07-12T09:08:05Z</time>
      </trkpt>
      <trkpt lat="42.78872" lon="-7.568805">
        <time>2022-07-12T09:08:12Z</time>
      </trkpt>
      <trkpt lat="42.788742" lon="-7.568865">
        <time>2022-07-12T09:08:17Z</time>
      </trkpt>
      <trkpt lat="42.78877" lon="-7.568922">
        <time>2022-07-12T09:08:22Z</time>
      </trkpt>
      <trkpt lat="42.788788" lon="-7.569003">
        <time>2022-07-12T09:08:28Z</time>
      </trkpt>
      <trkpt lat="42.788807" lon="-7.569073">
        <time>2022-07-12T09:08:33Z</time>
      </trkpt>
      <trkpt lat="42.78881" lon="-7.5691533">
        <time>2022-07-12T09:08:38Z</time>
      </trkpt>
      <trkpt lat="42.78881" lon="-7.569234">
        <time>2022-07-12T09:08:42Z</time>
      </trkpt>
      <trkpt lat="42.788822" lon="-7.569316">
        <time>2022-07-12T09:08:47Z</time>
      </trkpt>
      <trkpt lat="42.788837" lon="-7.5693746">
        <time>2022-07-12T09:08:51Z</time>
      </trkpt>
      <trkpt lat="42.78885" lon="-7.5694513">
        <time>2022-07-12T09:08:56Z</time>
      </trkpt>
      <trkpt lat="42.788868" lon="-7.569514">
        <time>2022-07-12T09:09:01Z</time>
      </trkpt>
      <trkpt lat="42.78889" lon="-7.569586">
        <time>2022-07-12T09:09:06Z</time>
      </trkpt>
      <trkpt lat="42.788918" lon="-7.5696597">
        <time>2022-07-12T09:09:11Z</time>
      </trkpt>
      <trkpt lat="42.788937" lon="-7.5697255">
        <time>2022-07-12T09:09:15Z</time>
      </trkpt>
      <trkpt lat="42.788975" lon="-7.5697913">
        <time>2022-07-12T09:09:20Z</time>
      </trkpt>
      <trkpt lat="42.78901" lon="-7.5698476">
        <time>2022-07-12T09:09:25Z</time>
      </trkpt>
      <trkpt lat="42.789047" lon="-7.56992">
        <time>2022-07-12T09:09:30Z</time>
      </trkpt>
      <trkpt lat="42.78907" lon="-7.5699863">
        <time>2022-07-12T09:09:35Z</time>
      </trkpt>
      <trkpt lat="42.7891" lon="-7.570042">
        <time>2022-07-12T09:09:40Z</time>
      </trkpt>
      <trkpt lat="42.789143" lon="-7.570106">
        <time>2022-07-12T09:09:46Z</time>
      </trkpt>
      <trkpt lat="42.78917" lon="-7.5701804">
        <time>2022-07-12T09:09:51Z</time>
      </trkpt>
      <trkpt lat="42.78921" lon="-7.570246">
        <time>2022-07-12T09:09:57Z</time>
      </trkpt>
      <trkpt lat="42.789253" lon="-7.570321">
        <time>2022-07-12T09:10:02Z</time>
      </trkpt>
      <trkpt lat="42.78928" lon="-7.570368">
        <time>2022-07-12T09:10:06Z</time>
      </trkpt>
      <trkpt lat="42.789314" lon="-7.570429">
        <time>2022-07-12T09:10:11Z</time>
      </trkpt>
      <trkpt lat="42.789356" lon="-7.5704947">
        <time>2022-07-12T09:10:17Z</time>
      </trkpt>
      <trkpt lat="42.7894" lon="-7.5705504">
        <time>2022-07-12T09:10:22Z</time>
      </trkpt>
      <trkpt lat="42.789436" lon="-7.570601">
        <time>2022-07-12T09:10:26Z</time>
      </trkpt>
      <trkpt lat="42.789463" lon="-7.570659">
        <time>2022-07-12T09:10:30Z</time>
      </trkpt>
      <trkpt lat="42.789497" lon="-7.570717">
        <time>2022-07-12T09:10:35Z</time>
      </trkpt>
      <trkpt lat="42.789528" lon="-7.5707774">
        <time>2022-07-12T09:10:39Z</time>
      </trkpt>
      <trkpt lat="42.789562" lon="-7.5708327">
        <time>2022-07-12T09:10:44Z</time>
      </trkpt>
      <trkpt lat="42.78962" lon="-7.5708623">
        <time>2022-07-12T09:10:49Z</time>
      </trkpt>
      <trkpt lat="42.789673" lon="-7.570895">
        <time>2022-07-12T09:10:54Z</time>
      </trkpt>
      <trkpt lat="42.78972" lon="-7.570927">
        <time>2022-07-12T09:10:59Z</time>
      </trkpt>
      <trkpt lat="42.78977" lon="-7.5709558">
        <time>2022-07-12T09:11:09Z</time>
      </trkpt>
      <trkpt lat="42.789825" lon="-7.5710015">
        <time>2022-07-12T09:11:15Z</time>
      </trkpt>
      <trkpt lat="42.789875" lon="-7.571041">
        <time>2022-07-12T09:11:19Z</time>
      </trkpt>
      <trkpt lat="42.789917" lon="-7.5710998">
        <time>2022-07-12T09:11:24Z</time>
      </trkpt>
      <trkpt lat="42.78995" lon="-7.571158">
        <time>2022-07-12T09:11:29Z</time>
      </trkpt>
      <trkpt lat="42.789993" lon="-7.5712123">
        <time>2022-07-12T09:11:36Z</time>
      </trkpt>
      <trkpt lat="42.79004" lon="-7.5712533">
        <time>2022-07-12T09:11:41Z</time>
      </trkpt>
      <trkpt lat="42.790085" lon="-7.5713067">
        <time>2022-07-12T09:11:46Z</time>
      </trkpt>
      <trkpt lat="42.79013" lon="-7.571358">
        <time>2022-07-12T09:11:51Z</time>
      </trkpt>
      <trkpt lat="42.79018" lon="-7.5713973">
        <time>2022-07-12T09:11:56Z</time>
      </trkpt>
      <trkpt lat="42.79023" lon="-7.57144">
        <time>2022-07-12T09:12:01Z</time>
      </trkpt>
      <trkpt lat="42.790268" lon="-7.571478">
        <time>2022-07-12T09:12:05Z</time>
      </trkpt>
      <trkpt lat="42.79031" lon="-7.5715237">
        <time>2022-07-12T09:12:10Z</time>
      </trkpt>
      <trkpt lat="42.790356" lon="-7.5715694">
        <time>2022-07-12T09:12:15Z</time>
      </trkpt>
      <trkpt lat="42.790394" lon="-7.5716257">
        <time>2022-07-12T09:12:20Z</time>
      </trkpt>
      <trkpt lat="42.790436" lon="-7.571682">
        <time>2022-07-12T09:12:25Z</time>
      </trkpt>
      <trkpt lat="42.79048" lon="-7.571735">
        <time>2022-07-12T09:12:30Z</time>
      </trkpt>
      <trkpt lat="42.79051" lon="-7.5717816">
        <time>2022-07-12T09:12:34Z</time>
      </trkpt>
      <trkpt lat="42.79055" lon="-7.571831">
        <time>2022-07-12T09:12:40Z</time>
      </trkpt>
      <trkpt lat="42.790596" lon="-7.5718822">
        <time>2022-07-12T09:12:45Z</time>
      </trkpt>
      <trkpt lat="42.79063" lon="-7.571933">
        <time>2022-07-12T09:12:49Z</time>
      </trkpt>
      <trkpt lat="42.79067" lon="-7.5719795">
        <time>2022-07-12T09:12:53Z</time>
      </trkpt>
      <trkpt lat="42.790714" lon="-7.5720267">
        <time>2022-07-12T09:12:58Z</time>
      </trkpt>
      <trkpt lat="42.790756" lon="-7.572066">
        <time>2022-07-12T09:13:03Z</time>
      </trkpt>
      <trkpt lat="42.7908" lon="-7.5721135">
        <time>2022-07-12T09:13:09Z</time>
      </trkpt>
      <trkpt lat="42.79082" lon="-7.572172">
        <time>2022-07-12T09:13:16Z</time>
      </trkpt>
      <trkpt lat="42.790886" lon="-7.5724072">
        <time>2022-07-12T09:20:23Z</time>
      </trkpt>
      <trkpt lat="42.7909" lon="-7.5724845">
        <time>2022-07-12T09:20:27Z</time>
      </trkpt>
      <trkpt lat="42.79092" lon="-7.5725627">
        <time>2022-07-12T09:20:31Z</time>
      </trkpt>
      <trkpt lat="42.790936" lon="-7.572634">
        <time>2022-07-12T09:20:35Z</time>
      </trkpt>
      <trkpt lat="42.79094" lon="-7.5727115">
        <time>2022-07-12T09:20:40Z</time>
      </trkpt>
      <trkpt lat="42.790943" lon="-7.5727806">
        <time>2022-07-12T09:20:44Z</time>
      </trkpt>
      <trkpt lat="42.79095" lon="-7.5728617">
        <time>2022-07-12T09:20:49Z</time>
      </trkpt>
      <trkpt lat="42.79096" lon="-7.5729384">
        <time>2022-07-12T09:20:53Z</time>
      </trkpt>
      <trkpt lat="42.790955" lon="-7.573021">
        <time>2022-07-12T09:20:58Z</time>
      </trkpt>
      <trkpt lat="42.790966" lon="-7.573094">
        <time>2022-07-12T09:21:03Z</time>
      </trkpt>
      <trkpt lat="42.790955" lon="-7.5731716">
        <time>2022-07-12T09:21:07Z</time>
      </trkpt>
      <trkpt lat="42.790943" lon="-7.573244">
        <time>2022-07-12T09:21:11Z</time>
      </trkpt>
      <trkpt lat="42.790936" lon="-7.5733237">
        <time>2022-07-12T09:21:16Z</time>
      </trkpt>
      <trkpt lat="42.790936" lon="-7.573407">
        <time>2022-07-12T09:21:21Z</time>
      </trkpt>
      <trkpt lat="42.79094" lon="-7.573481">
        <time>2022-07-12T09:21:26Z</time>
      </trkpt>
      <trkpt lat="42.790936" lon="-7.573551">
        <time>2022-07-12T09:21:31Z</time>
      </trkpt>
      <trkpt lat="42.79094" lon="-7.5736213">
        <time>2022-07-12T09:21:36Z</time>
      </trkpt>
      <trkpt lat="42.79095" lon="-7.5736947">
        <time>2022-07-12T09:21:42Z</time>
      </trkpt>
      <trkpt lat="42.790966" lon="-7.573764">
        <time>2022-07-12T09:21:47Z</time>
      </trkpt>
      <trkpt lat="42.79097" lon="-7.573843">
        <time>2022-07-12T09:21:52Z</time>
      </trkpt>
      <trkpt lat="42.790977" lon="-7.573911">
        <time>2022-07-12T09:21:57Z</time>
      </trkpt>
      <trkpt lat="42.790966" lon="-7.5739903">
        <time>2022-07-12T09:22:03Z</time>
      </trkpt>
      <trkpt lat="42.79095" lon="-7.57406">
        <time>2022-07-12T09:22:08Z</time>
      </trkpt>
      <trkpt lat="42.79093" lon="-7.5741487">
        <time>2022-07-12T09:22:13Z</time>
      </trkpt>
      <trkpt lat="42.790916" lon="-7.5742188">
        <time>2022-07-12T09:22:17Z</time>
      </trkpt>
      <trkpt lat="42.790905" lon="-7.574288">
        <time>2022-07-12T09:22:22Z</time>
      </trkpt>
      <trkpt lat="42.790905" lon="-7.5743556">
        <time>2022-07-12T09:22:27Z</time>
      </trkpt>
      <trkpt lat="42.7909" lon="-7.5744267">
        <time>2022-07-12T09:22:32Z</time>
      </trkpt>
      <trkpt lat="42.790894" lon="-7.57451">
        <time>2022-07-12T09:22:38Z</time>
      </trkpt>
      <trkpt lat="42.79089" lon="-7.574579">
        <time>2022-07-12T09:22:43Z</time>
      </trkpt>
      <trkpt lat="42.79089" lon="-7.5746536">
        <time>2022-07-12T09:22:48Z</time>
      </trkpt>
      <trkpt lat="42.79089" lon="-7.574725">
        <time>2022-07-12T09:22:53Z</time>
      </trkpt>
      <trkpt lat="42.790897" lon="-7.5748043">
        <time>2022-07-12T09:22:58Z</time>
      </trkpt>
      <trkpt lat="42.7909" lon="-7.574881">
        <time>2022-07-12T09:23:03Z</time>
      </trkpt>
      <trkpt lat="42.790913" lon="-7.574956">
        <time>2022-07-12T09:23:08Z</time>
      </trkpt>
      <trkpt lat="42.790928" lon="-7.575035">
        <time>2022-07-12T09:23:14Z</time>
      </trkpt>
      <trkpt lat="42.79095" lon="-7.575116">
        <time>2022-07-12T09:23:19Z</time>
      </trkpt>
      <trkpt lat="42.790955" lon="-7.5751944">
        <time>2022-07-12T09:23:24Z</time>
      </trkpt>
      <trkpt lat="42.790966" lon="-7.575252">
        <time>2022-07-12T09:23:28Z</time>
      </trkpt>
      <trkpt lat="42.79098" lon="-7.5753365">
        <time>2022-07-12T09:23:34Z</time>
      </trkpt>
      <trkpt lat="42.790997" lon="-7.5754075">
        <time>2022-07-12T09:23:39Z</time>
      </trkpt>
      <trkpt lat="42.79101" lon="-7.575477">
        <time>2022-07-12T09:23:44Z</time>
      </trkpt>
      <trkpt lat="42.791023" lon="-7.5755506">
        <time>2022-07-12T09:23:49Z</time>
      </trkpt>
      <trkpt lat="42.791035" lon="-7.5756245">
        <time>2022-07-12T09:23:54Z</time>
      </trkpt>
      <trkpt lat="42.79105" lon="-7.575688">
        <time>2022-07-12T09:23:59Z</time>
      </trkpt>
      <trkpt lat="42.79106" lon="-7.5757713">
        <time>2022-07-12T09:24:05Z</time>
      </trkpt>
      <trkpt lat="42.79106" lon="-7.5758543">
        <time>2022-07-12T09:24:11Z</time>
      </trkpt>
      <trkpt lat="42.79106" lon="-7.5759244">
        <time>2022-07-12T09:24:16Z</time>
      </trkpt>
      <trkpt lat="42.791065" lon="-7.576003">
        <time>2022-07-12T09:24:21Z</time>
      </trkpt>
      <trkpt lat="42.791065" lon="-7.5760894">
        <time>2022-07-12T09:24:26Z</time>
      </trkpt>
      <trkpt lat="42.79106" lon="-7.5761557">
        <time>2022-07-12T09:24:30Z</time>
      </trkpt>
      <trkpt lat="42.79106" lon="-7.5762305">
        <time>2022-07-12T09:24:34Z</time>
      </trkpt>
      <trkpt lat="42.79106" lon="-7.576296">
        <time>2022-07-12T09:24:38Z</time>
      </trkpt>
      <trkpt lat="42.79106" lon="-7.576377">
        <time>2022-07-12T09:24:43Z</time>
      </trkpt>
      <trkpt lat="42.791058" lon="-7.576452">
        <time>2022-07-12T09:24:48Z</time>
      </trkpt>
      <trkpt lat="42.79105" lon="-7.5765176">
        <time>2022-07-12T09:24:52Z</time>
      </trkpt>
      <trkpt lat="42.79104" lon="-7.5766006">
        <time>2022-07-12T09:24:57Z</time>
      </trkpt>
      <trkpt lat="42.79103" lon="-7.576679">
        <time>2022-07-12T09:25:02Z</time>
      </trkpt>
      <trkpt lat="42.79102" lon="-7.576758">
        <time>2022-07-12T09:25:07Z</time>
      </trkpt>
      <trkpt lat="42.79101" lon="-7.5768356">
        <time>2022-07-12T09:25:12Z</time>
      </trkpt>
      <trkpt lat="42.791" lon="-7.576901">
        <time>2022-07-12T09:25:17Z</time>
      </trkpt>
      <trkpt lat="42.79098" lon="-7.576969">
        <time>2022-07-12T09:25:22Z</time>
      </trkpt>
      <trkpt lat="42.79097" lon="-7.5770555">
        <time>2022-07-12T09:25:27Z</time>
      </trkpt>
      <trkpt lat="42.790966" lon="-7.577123">
        <time>2022-07-12T09:25:31Z</time>
      </trkpt>
      <trkpt lat="42.79096" lon="-7.577196">
        <time>2022-07-12T09:25:36Z</time>
      </trkpt>
      <trkpt lat="42.79095" lon="-7.577269">
        <time>2022-07-12T09:25:41Z</time>
      </trkpt>
      <trkpt lat="42.790928" lon="-7.577351">
        <time>2022-07-12T09:25:46Z</time>
      </trkpt>
      <trkpt lat="42.790913" lon="-7.5774155">
        <time>2022-07-12T09:25:50Z</time>
      </trkpt>
      <trkpt lat="42.7909" lon="-7.577478">
        <time>2022-07-12T09:25:54Z</time>
      </trkpt>
      <trkpt lat="42.790894" lon="-7.5775657">
        <time>2022-07-12T09:26:00Z</time>
      </trkpt>
      <trkpt lat="42.79088" lon="-7.577636">
        <time>2022-07-12T09:26:04Z</time>
      </trkpt>
      <trkpt lat="42.790867" lon="-7.5777125">
        <time>2022-07-12T09:26:09Z</time>
      </trkpt>
      <trkpt lat="42.790855" lon="-7.577783">
        <time>2022-07-12T09:26:13Z</time>
      </trkpt>
      <trkpt lat="42.790844" lon="-7.577865">
        <time>2022-07-12T09:26:18Z</time>
      </trkpt>
      <trkpt lat="42.790833" lon="-7.5779424">
        <time>2022-07-12T09:26:22Z</time>
      </trkpt>
      <trkpt lat="42.79082" lon="-7.5780077">
        <time>2022-07-12T09:26:26Z</time>
      </trkpt>
      <trkpt lat="42.790813" lon="-7.578099">
        <time>2022-07-12T09:26:31Z</time>
      </trkpt>
      <trkpt lat="42.790806" lon="-7.5781727">
        <time>2022-07-12T09:26:35Z</time>
      </trkpt>
      <trkpt lat="42.7908" lon="-7.578236">
        <time>2022-07-12T09:26:39Z</time>
      </trkpt>
      <trkpt lat="42.79079" lon="-7.5783095">
        <time>2022-07-12T09:26:43Z</time>
      </trkpt>
      <trkpt lat="42.790783" lon="-7.57838">
        <time>2022-07-12T09:26:47Z</time>
      </trkpt>
      <trkpt lat="42.790775" lon="-7.5784683">
        <time>2022-07-12T09:26:52Z</time>
      </trkpt>
      <trkpt lat="42.79077" lon="-7.578539">
        <time>2022-07-12T09:26:56Z</time>
      </trkpt>
      <trkpt lat="42.790768" lon="-7.578621">
        <time>2022-07-12T09:27:01Z</time>
      </trkpt>
      <trkpt lat="42.79077" lon="-7.57869">
        <time>2022-07-12T09:27:05Z</time>
      </trkpt>
      <trkpt lat="42.790768" lon="-7.578768">
        <time>2022-07-12T09:27:10Z</time>
      </trkpt>
      <trkpt lat="42.790768" lon="-7.578834">
        <time>2022-07-12T09:27:14Z</time>
      </trkpt>
      <trkpt lat="42.79077" lon="-7.578912">
        <time>2022-07-12T09:27:19Z</time>
      </trkpt>
      <trkpt lat="42.790775" lon="-7.578979">
        <time>2022-07-12T09:27:23Z</time>
      </trkpt>
      <trkpt lat="42.790775" lon="-7.5790577">
        <time>2022-07-12T09:27:28Z</time>
      </trkpt>
      <trkpt lat="42.790775" lon="-7.57912">
        <time>2022-07-12T09:27:32Z</time>
      </trkpt>
      <trkpt lat="42.790775" lon="-7.57921">
        <time>2022-07-12T09:27:37Z</time>
      </trkpt>
      <trkpt lat="42.79078" lon="-7.5792856">
        <time>2022-07-12T09:27:42Z</time>
      </trkpt>
      <trkpt lat="42.790787" lon="-7.579355">
        <time>2022-07-12T09:27:46Z</time>
      </trkpt>
      <trkpt lat="42.7908" lon="-7.5794315">
        <time>2022-07-12T09:27:51Z</time>
      </trkpt>
      <trkpt lat="42.790806" lon="-7.579499">
        <time>2022-07-12T09:27:55Z</time>
      </trkpt>
      <trkpt lat="42.790813" lon="-7.5795755">
        <time>2022-07-12T09:28:00Z</time>
      </trkpt>
      <trkpt lat="42.790825" lon="-7.57965">
        <time>2022-07-12T09:28:05Z</time>
      </trkpt>
      <trkpt lat="42.790836" lon="-7.579731">
        <time>2022-07-12T09:28:10Z</time>
      </trkpt>
      <trkpt lat="42.790844" lon="-7.5797935">
        <time>2022-07-12T09:28:14Z</time>
      </trkpt>
      <trkpt lat="42.790848" lon="-7.5798693">
        <time>2022-07-12T09:28:19Z</time>
      </trkpt>
      <trkpt lat="42.790855" lon="-7.579954">
        <time>2022-07-12T09:28:24Z</time>
      </trkpt>
      <trkpt lat="42.790867" lon="-7.580041">
        <time>2022-07-12T09:28:29Z</time>
      </trkpt>
      <trkpt lat="42.79087" lon="-7.580119">
        <time>2022-07-12T09:28:34Z</time>
      </trkpt>
      <trkpt lat="42.79088" lon="-7.5801964">
        <time>2022-07-12T09:28:39Z</time>
      </trkpt>
      <trkpt lat="42.790886" lon="-7.5802765">
        <time>2022-07-12T09:28:44Z</time>
      </trkpt>
      <trkpt lat="42.790897" lon="-7.5803595">
        <time>2022-07-12T09:28:50Z</time>
      </trkpt>
      <trkpt lat="42.7909" lon="-7.5804343">
        <time>2022-07-12T09:28:55Z</time>
      </trkpt>
      <trkpt lat="42.790905" lon="-7.5805163">
        <time>2022-07-12T09:29:00Z</time>
      </trkpt>
      <trkpt lat="42.790913" lon="-7.580581">
        <time>2022-07-12T09:29:04Z</time>
      </trkpt>
      <trkpt lat="42.790924" lon="-7.5806556">
        <time>2022-07-12T09:29:09Z</time>
      </trkpt>
      <trkpt lat="42.79094" lon="-7.580729">
        <time>2022-07-12T09:29:14Z</time>
      </trkpt>
      <trkpt lat="42.790955" lon="-7.5808015">
        <time>2022-07-12T09:29:19Z</time>
      </trkpt>
      <trkpt lat="42.79097" lon="-7.5808716">
        <time>2022-07-12T09:29:24Z</time>
      </trkpt>
      <trkpt lat="42.790985" lon="-7.580946">
        <time>2022-07-12T09:29:30Z</time>
      </trkpt>
      <trkpt lat="42.79099" lon="-7.581025">
        <time>2022-07-12T09:29:39Z</time>
      </trkpt>
      <trkpt lat="42.791008" lon="-7.5810776">
        <time>2022-07-12T09:30:05Z</time>
      </trkpt>
      <trkpt lat="42.791023" lon="-7.5811577">
        <time>2022-07-12T09:30:09Z</time>
      </trkpt>
      <trkpt lat="42.79103" lon="-7.5812345">
        <time>2022-07-12T09:30:13Z</time>
      </trkpt>
      <trkpt lat="42.791035" lon="-7.581318">
        <time>2022-07-12T09:30:18Z</time>
      </trkpt>
      <trkpt lat="42.791046" lon="-7.5814004">
        <time>2022-07-12T09:30:23Z</time>
      </trkpt>
      <trkpt lat="42.791054" lon="-7.5814757">
        <time>2022-07-12T09:30:28Z</time>
      </trkpt>
      <trkpt lat="42.791058" lon="-7.5815516">
        <time>2022-07-12T09:30:33Z</time>
      </trkpt>
      <trkpt lat="42.791065" lon="-7.5816207">
        <time>2022-07-12T09:30:37Z</time>
      </trkpt>
      <trkpt lat="42.79108" lon="-7.581708">
        <time>2022-07-12T09:30:42Z</time>
      </trkpt>
      <trkpt lat="42.79109" lon="-7.581782">
        <time>2022-07-12T09:30:46Z</time>
      </trkpt>
      <trkpt lat="42.7911" lon="-7.5818515">
        <time>2022-07-12T09:30:50Z</time>
      </trkpt>
      <trkpt lat="42.791107" lon="-7.5819187">
        <time>2022-07-12T09:30:54Z</time>
      </trkpt>
      <trkpt lat="42.791115" lon="-7.582006">
        <time>2022-07-12T09:30:59Z</time>
      </trkpt>
      <trkpt lat="42.79113" lon="-7.5820727">
        <time>2022-07-12T09:31:03Z</time>
      </trkpt>
      <trkpt lat="42.79114" lon="-7.5821576">
        <time>2022-07-12T09:31:08Z</time>
      </trkpt>
      <trkpt lat="42.791157" lon="-7.58224">
        <time>2022-07-12T09:31:13Z</time>
      </trkpt>
      <trkpt lat="42.791172" lon="-7.582326">
        <time>2022-07-12T09:31:18Z</time>
      </trkpt>
      <trkpt lat="42.791176" lon="-7.5824137">
        <time>2022-07-12T09:31:23Z</time>
      </trkpt>
      <trkpt lat="42.791183" lon="-7.5824885">
        <time>2022-07-12T09:31:27Z</time>
      </trkpt>
      <trkpt lat="42.791195" lon="-7.5825577">
        <time>2022-07-12T09:31:31Z</time>
      </trkpt>
      <trkpt lat="42.791206" lon="-7.58262">
        <time>2022-07-12T09:31:35Z</time>
      </trkpt>
      <trkpt lat="42.791233" lon="-7.5826917">
        <time>2022-07-12T09:31:40Z</time>
      </trkpt>
      <trkpt lat="42.791256" lon="-7.582761">
        <time>2022-07-12T09:31:45Z</time>
      </trkpt>
      <trkpt lat="42.791286" lon="-7.582829">
        <time>2022-07-12T09:31:50Z</time>
      </trkpt>
      <trkpt lat="42.79132" lon="-7.5829">
        <time>2022-07-12T09:31:55Z</time>
      </trkpt>
      <trkpt lat="42.791344" lon="-7.582966">
        <time>2022-07-12T09:32:00Z</time>
      </trkpt>
      <trkpt lat="42.791367" lon="-7.583034">
        <time>2022-07-12T09:32:05Z</time>
      </trkpt>
      <trkpt lat="42.79138" lon="-7.583107">
        <time>2022-07-12T09:32:10Z</time>
      </trkpt>
      <trkpt lat="42.791397" lon="-7.5831833">
        <time>2022-07-12T09:32:15Z</time>
      </trkpt>
      <trkpt lat="42.79142" lon="-7.583257">
        <time>2022-07-12T09:32:20Z</time>
      </trkpt>
      <trkpt lat="42.791443" lon="-7.583324">
        <time>2022-07-12T09:32:25Z</time>
      </trkpt>
      <trkpt lat="42.79145" lon="-7.583393">
        <time>2022-07-12T09:32:29Z</time>
      </trkpt>
      <trkpt lat="42.791466" lon="-7.5834594">
        <time>2022-07-12T09:32:34Z</time>
      </trkpt>
      <trkpt lat="42.791504" lon="-7.583506">
        <time>2022-07-12T09:32:39Z</time>
      </trkpt>
      <trkpt lat="42.791546" lon="-7.5835447">
        <time>2022-07-12T09:32:44Z</time>
      </trkpt>
      <trkpt lat="42.79159" lon="-7.583585">
        <time>2022-07-12T09:32:49Z</time>
      </trkpt>
      <trkpt lat="42.79164" lon="-7.5836296">
        <time>2022-07-12T09:32:54Z</time>
      </trkpt>
      <trkpt lat="42.791683" lon="-7.5836687">
        <time>2022-07-12T09:32:58Z</time>
      </trkpt>
      <trkpt lat="42.791725" lon="-7.583715">
        <time>2022-07-12T09:33:02Z</time>
      </trkpt>
      <trkpt lat="42.791767" lon="-7.583768">
        <time>2022-07-12T09:33:06Z</time>
      </trkpt>
      <trkpt lat="42.791805" lon="-7.5838075">
        <time>2022-07-12T09:33:10Z</time>
      </trkpt>
      <trkpt lat="42.79186" lon="-7.5838604">
        <time>2022-07-12T09:33:16Z</time>
      </trkpt>
      <trkpt lat="42.7919" lon="-7.5839057">
        <time>2022-07-12T09:33:20Z</time>
      </trkpt>
      <trkpt lat="42.79194" lon="-7.583954">
        <time>2022-07-12T09:33:25Z</time>
      </trkpt>
      <trkpt lat="42.792" lon="-7.5839834">
        <time>2022-07-12T09:33:30Z</time>
      </trkpt>
      <trkpt lat="42.792057" lon="-7.5839987">
        <time>2022-07-12T09:33:34Z</time>
      </trkpt>
      <trkpt lat="42.792118" lon="-7.584006">
        <time>2022-07-12T09:33:38Z</time>
      </trkpt>
      <trkpt lat="42.792164" lon="-7.58401">
        <time>2022-07-12T09:33:42Z</time>
      </trkpt>
      <trkpt lat="42.79223" lon="-7.584003">
        <time>2022-07-12T09:33:47Z</time>
      </trkpt>
      <trkpt lat="42.792286" lon="-7.5840073">
        <time>2022-07-12T09:33:52Z</time>
      </trkpt>
      <trkpt lat="42.79233" lon="-7.584034">
        <time>2022-07-12T09:33:57Z</time>
      </trkpt>
      <trkpt lat="42.792385" lon="-7.5840683">
        <time>2022-07-12T09:34:02Z</time>
      </trkpt>
      <trkpt lat="42.79243" lon="-7.584111">
        <time>2022-07-12T09:34:07Z</time>
      </trkpt>
      <trkpt lat="42.792477" lon="-7.5841517">
        <time>2022-07-12T09:34:12Z</time>
      </trkpt>
      <trkpt lat="42.792526" lon="-7.584195">
        <time>2022-07-12T09:34:16Z</time>
      </trkpt>
      <trkpt lat="42.792576" lon="-7.5842457">
        <time>2022-07-12T09:34:20Z</time>
      </trkpt>
      <trkpt lat="42.792618" lon="-7.5843034">
        <time>2022-07-12T09:34:25Z</time>
      </trkpt>
      <trkpt lat="42.792667" lon="-7.584347">
        <time>2022-07-12T09:34:30Z</time>
      </trkpt>
      <trkpt lat="42.79272" lon="-7.584386">
        <time>2022-07-12T09:34:35Z</time>
      </trkpt>
      <trkpt lat="42.792763" lon="-7.5844226">
        <time>2022-07-12T09:34:40Z</time>
      </trkpt>
      <trkpt lat="42.792812" lon="-7.584448">
        <time>2022-07-12T09:34:44Z</time>
      </trkpt>
      <trkpt lat="42.792866" lon="-7.584485">
        <time>2022-07-12T09:34:49Z</time>
      </trkpt>
      <trkpt lat="42.792915" lon="-7.5845284">
        <time>2022-07-12T09:34:55Z</time>
      </trkpt>
      <trkpt lat="42.792965" lon="-7.5845585">
        <time>2022-07-12T09:34:59Z</time>
      </trkpt>
      <trkpt lat="42.793015" lon="-7.5845933">
        <time>2022-07-12T09:35:03Z</time>
      </trkpt>
      <trkpt lat="42.79306" lon="-7.584634">
        <time>2022-07-12T09:35:08Z</time>
      </trkpt>
      <trkpt lat="42.793114" lon="-7.584678">
        <time>2022-07-12T09:35:13Z</time>
      </trkpt>
      <trkpt lat="42.793156" lon="-7.5847187">
        <time>2022-07-12T09:35:17Z</time>
      </trkpt>
      <trkpt lat="42.79319" lon="-7.584766">
        <time>2022-07-12T09:35:22Z</time>
      </trkpt>
      <trkpt lat="42.793224" lon="-7.584836">
        <time>2022-07-12T09:35:27Z</time>
      </trkpt>
      <trkpt lat="42.79325" lon="-7.584904">
        <time>2022-07-12T09:35:32Z</time>
      </trkpt>
      <trkpt lat="42.793274" lon="-7.584978">
        <time>2022-07-12T09:35:37Z</time>
      </trkpt>
      <trkpt lat="42.793293" lon="-7.5850453">
        <time>2022-07-12T09:35:41Z</time>
      </trkpt>
      <trkpt lat="42.79332" lon="-7.585122">
        <time>2022-07-12T09:35:47Z</time>
      </trkpt>
      <trkpt lat="42.79334" lon="-7.5851874">
        <time>2022-07-12T09:35:51Z</time>
      </trkpt>
      <trkpt lat="42.793365" lon="-7.5852537">
        <time>2022-07-12T09:35:56Z</time>
      </trkpt>
      <trkpt lat="42.793396" lon="-7.5853214">
        <time>2022-07-12T09:36:01Z</time>
      </trkpt>
      <trkpt lat="42.79342" lon="-7.585385">
        <time>2022-07-12T09:36:05Z</time>
      </trkpt>
      <trkpt lat="42.79344" lon="-7.5854483">
        <time>2022-07-12T09:36:10Z</time>
      </trkpt>
      <trkpt lat="42.793472" lon="-7.5855236">
        <time>2022-07-12T09:36:15Z</time>
      </trkpt>
      <trkpt lat="42.793495" lon="-7.5855784">
        <time>2022-07-12T09:36:19Z</time>
      </trkpt>
      <trkpt lat="42.793526" lon="-7.5856557">
        <time>2022-07-12T09:36:25Z</time>
      </trkpt>
      <trkpt lat="42.79355" lon="-7.5857224">
        <time>2022-07-12T09:36:29Z</time>
      </trkpt>
      <trkpt lat="42.793568" lon="-7.585783">
        <time>2022-07-12T09:36:34Z</time>
      </trkpt>
      <trkpt lat="42.793594" lon="-7.5858593">
        <time>2022-07-12T09:36:39Z</time>
      </trkpt>
      <trkpt lat="42.793613" lon="-7.5859194">
        <time>2022-07-12T09:36:43Z</time>
      </trkpt>
      <trkpt lat="42.79364" lon="-7.58599">
        <time>2022-07-12T09:36:48Z</time>
      </trkpt>
      <trkpt lat="42.79366" lon="-7.586057">
        <time>2022-07-12T09:36:53Z</time>
      </trkpt>
      <trkpt lat="42.793682" lon="-7.5861154">
        <time>2022-07-12T09:36:58Z</time>
      </trkpt>
      <trkpt lat="42.793713" lon="-7.5861893">
        <time>2022-07-12T09:37:03Z</time>
      </trkpt>
      <trkpt lat="42.793743" lon="-7.5862503">
        <time>2022-07-12T09:37:08Z</time>
      </trkpt>
      <trkpt lat="42.79377" lon="-7.5863147">
        <time>2022-07-12T09:37:13Z</time>
      </trkpt>
      <trkpt lat="42.793808" lon="-7.586385">
        <time>2022-07-12T09:37:18Z</time>
      </trkpt>
      <trkpt lat="42.79384" lon="-7.5864415">
        <time>2022-07-12T09:37:22Z</time>
      </trkpt>
      <trkpt lat="42.793877" lon="-7.586497">
        <time>2022-07-12T09:37:27Z</time>
      </trkpt>
      <trkpt lat="42.793922" lon="-7.5865335">
        <time>2022-07-12T09:37:31Z</time>
      </trkpt>
      <trkpt lat="42.79396" lon="-7.5865765">
        <time>2022-07-12T09:37:35Z</time>
      </trkpt>
      <trkpt lat="42.79401" lon="-7.586636">
        <time>2022-07-12T09:37:41Z</time>
      </trkpt>
      <trkpt lat="42.794044" lon="-7.5866933">
        <time>2022-07-12T09:37:46Z</time>
      </trkpt>
      <trkpt lat="42.79408" lon="-7.5867543">
        <time>2022-07-12T09:37:51Z</time>
      </trkpt>
      <trkpt lat="42.79411" lon="-7.586809">
        <time>2022-07-12T09:37:55Z</time>
      </trkpt>
      <trkpt lat="42.794132" lon="-7.5868683">
        <time>2022-07-12T09:38:00Z</time>
      </trkpt>
      <trkpt lat="42.794163" lon="-7.5869393">
        <time>2022-07-12T09:38:05Z</time>
      </trkpt>
      <trkpt lat="42.794186" lon="-7.5870037">
        <time>2022-07-12T09:38:10Z</time>
      </trkpt>
      <trkpt lat="42.794212" lon="-7.587074">
        <time>2022-07-12T09:38:15Z</time>
      </trkpt>
      <trkpt lat="42.794243" lon="-7.5871506">
        <time>2022-07-12T09:38:21Z</time>
      </trkpt>
      <trkpt lat="42.794273" lon="-7.5872216">
        <time>2022-07-12T09:38:26Z</time>
      </trkpt>
      <trkpt lat="42.794304" lon="-7.587289">
        <time>2022-07-12T09:38:31Z</time>
      </trkpt>
      <trkpt lat="42.794334" lon="-7.5873613">
        <time>2022-07-12T09:38:36Z</time>
      </trkpt>
      <trkpt lat="42.794357" lon="-7.5874295">
        <time>2022-07-12T09:38:41Z</time>
      </trkpt>
      <trkpt lat="42.79438" lon="-7.5874968">
        <time>2022-07-12T09:38:46Z</time>
      </trkpt>
      <trkpt lat="42.794407" lon="-7.587564">
        <time>2022-07-12T09:38:51Z</time>
      </trkpt>
      <trkpt lat="42.794437" lon="-7.5876303">
        <time>2022-07-12T09:38:56Z</time>
      </trkpt>
      <trkpt lat="42.79446" lon="-7.587698">
        <time>2022-07-12T09:39:01Z</time>
      </trkpt>
      <trkpt lat="42.79449" lon="-7.587767">
        <time>2022-07-12T09:39:06Z</time>
      </trkpt>
      <trkpt lat="42.794514" lon="-7.5878267">
        <time>2022-07-12T09:39:10Z</time>
      </trkpt>
      <trkpt lat="42.794537" lon="-7.5879">
        <time>2022-07-12T09:39:15Z</time>
      </trkpt>
      <trkpt lat="42.79455" lon="-7.5879765">
        <time>2022-07-12T09:39:20Z</time>
      </trkpt>
      <trkpt lat="42.794567" lon="-7.588054">
        <time>2022-07-12T09:39:26Z</time>
      </trkpt>
      <trkpt lat="42.79457" lon="-7.5881376">
        <time>2022-07-12T09:39:30Z</time>
      </trkpt>
      <trkpt lat="42.794567" lon="-7.588199">
        <time>2022-07-12T09:39:34Z</time>
      </trkpt>
      <trkpt lat="42.794548" lon="-7.588281">
        <time>2022-07-12T09:39:39Z</time>
      </trkpt>
      <trkpt lat="42.794533" lon="-7.588344">
        <time>2022-07-12T09:39:43Z</time>
      </trkpt>
      <trkpt lat="42.794514" lon="-7.5884213">
        <time>2022-07-12T09:39:48Z</time>
      </trkpt>
      <trkpt lat="42.794495" lon="-7.5885005">
        <time>2022-07-12T09:39:53Z</time>
      </trkpt>
      <trkpt lat="42.794476" lon="-7.588562">
        <time>2022-07-12T09:39:57Z</time>
      </trkpt>
      <trkpt lat="42.79445" lon="-7.588632">
        <time>2022-07-12T09:40:02Z</time>
      </trkpt>
      <trkpt lat="42.794426" lon="-7.5886908">
        <time>2022-07-12T09:40:06Z</time>
      </trkpt>
      <trkpt lat="42.794403" lon="-7.588764">
        <time>2022-07-12T09:40:11Z</time>
      </trkpt>
      <trkpt lat="42.794376" lon="-7.588824">
        <time>2022-07-12T09:40:15Z</time>
      </trkpt>
      <trkpt lat="42.79435" lon="-7.5888968">
        <time>2022-07-12T09:40:20Z</time>
      </trkpt>
      <trkpt lat="42.79432" lon="-7.5889645">
        <time>2022-07-12T09:40:25Z</time>
      </trkpt>
      <trkpt lat="42.794292" lon="-7.589021">
        <time>2022-07-12T09:40:29Z</time>
      </trkpt>
      <trkpt lat="42.794266" lon="-7.589095">
        <time>2022-07-12T09:40:34Z</time>
      </trkpt>
      <trkpt lat="42.79426" lon="-7.5891566">
        <time>2022-07-12T09:40:38Z</time>
      </trkpt>
      <trkpt lat="42.794254" lon="-7.589239">
        <time>2022-07-12T09:40:43Z</time>
      </trkpt>
      <trkpt lat="42.79426" lon="-7.5893035">
        <time>2022-07-12T09:40:47Z</time>
      </trkpt>
      <trkpt lat="42.79427" lon="-7.5893855">
        <time>2022-07-12T09:40:52Z</time>
      </trkpt>
      <trkpt lat="42.79428" lon="-7.589451">
        <time>2022-07-12T09:40:56Z</time>
      </trkpt>
      <trkpt lat="42.794292" lon="-7.5895257">
        <time>2022-07-12T09:41:01Z</time>
      </trkpt>
      <trkpt lat="42.79431" lon="-7.589587">
        <time>2022-07-12T09:41:06Z</time>
      </trkpt>
      <trkpt lat="42.79432" lon="-7.5896673">
        <time>2022-07-12T09:41:11Z</time>
      </trkpt>
      <trkpt lat="42.79433" lon="-7.5897346">
        <time>2022-07-12T09:41:15Z</time>
      </trkpt>
      <trkpt lat="42.794342" lon="-7.5898046">
        <time>2022-07-12T09:41:19Z</time>
      </trkpt>
      <trkpt lat="42.794353" lon="-7.5898905">
        <time>2022-07-12T09:41:24Z</time>
      </trkpt>
      <trkpt lat="42.79436" lon="-7.589957">
        <time>2022-07-12T09:41:28Z</time>
      </trkpt>
      <trkpt lat="42.794373" lon="-7.5900393">
        <time>2022-07-12T09:41:33Z</time>
      </trkpt>
      <trkpt lat="42.794376" lon="-7.5901036">
        <time>2022-07-12T09:41:37Z</time>
      </trkpt>
      <trkpt lat="42.79438" lon="-7.5901837">
        <time>2022-07-12T09:41:42Z</time>
      </trkpt>
      <trkpt lat="42.794388" lon="-7.590248">
        <time>2022-07-12T09:41:46Z</time>
      </trkpt>
      <trkpt lat="42.794395" lon="-7.590329">
        <time>2022-07-12T09:41:51Z</time>
      </trkpt>
      <trkpt lat="42.794403" lon="-7.590392">
        <time>2022-07-12T09:41:55Z</time>
      </trkpt>
      <trkpt lat="42.794403" lon="-7.5904756">
        <time>2022-07-12T09:42:00Z</time>
      </trkpt>
      <trkpt lat="42.794403" lon="-7.5905395">
        <time>2022-07-12T09:42:04Z</time>
      </trkpt>
      <trkpt lat="42.7944" lon="-7.5906196">
        <time>2022-07-12T09:42:09Z</time>
      </trkpt>
      <trkpt lat="42.794395" lon="-7.5906963">
        <time>2022-07-12T09:42:14Z</time>
      </trkpt>
      <trkpt lat="42.794388" lon="-7.5907755">
        <time>2022-07-12T09:42:19Z</time>
      </trkpt>
      <trkpt lat="42.79438" lon="-7.590844">
        <time>2022-07-12T09:42:24Z</time>
      </trkpt>
      <trkpt lat="42.79437" lon="-7.5909176">
        <time>2022-07-12T09:42:29Z</time>
      </trkpt>
      <trkpt lat="42.794357" lon="-7.5909977">
        <time>2022-07-12T09:42:34Z</time>
      </trkpt>
      <trkpt lat="42.79434" lon="-7.591081">
        <time>2022-07-12T09:42:39Z</time>
      </trkpt>
      <trkpt lat="42.794323" lon="-7.59116">
        <time>2022-07-12T09:42:44Z</time>
      </trkpt>
      <trkpt lat="42.79432" lon="-7.5912213">
        <time>2022-07-12T09:42:48Z</time>
      </trkpt>
      <trkpt lat="42.79432" lon="-7.5913">
        <time>2022-07-12T09:42:53Z</time>
      </trkpt>
      <trkpt lat="42.794327" lon="-7.5913815">
        <time>2022-07-12T09:42:58Z</time>
      </trkpt>
      <trkpt lat="42.794346" lon="-7.591459">
        <time>2022-07-12T09:43:03Z</time>
      </trkpt>
      <trkpt lat="42.79436" lon="-7.591521">
        <time>2022-07-12T09:43:07Z</time>
      </trkpt>
      <trkpt lat="42.794384" lon="-7.5915976">
        <time>2022-07-12T09:43:12Z</time>
      </trkpt>
      <trkpt lat="42.79441" lon="-7.5916796">
        <time>2022-07-12T09:43:17Z</time>
      </trkpt>
      <trkpt lat="42.79443" lon="-7.5917625">
        <time>2022-07-12T09:43:22Z</time>
      </trkpt>
      <trkpt lat="42.79445" lon="-7.591838">
        <time>2022-07-12T09:43:27Z</time>
      </trkpt>
      <trkpt lat="42.794468" lon="-7.5919085">
        <time>2022-07-12T09:43:32Z</time>
      </trkpt>
      <trkpt lat="42.794483" lon="-7.5919876">
        <time>2022-07-12T09:43:37Z</time>
      </trkpt>
      <trkpt lat="42.794495" lon="-7.592056">
        <time>2022-07-12T09:43:41Z</time>
      </trkpt>
      <trkpt lat="42.79451" lon="-7.592121">
        <time>2022-07-12T09:43:45Z</time>
      </trkpt>
      <trkpt lat="42.79453" lon="-7.5922008">
        <time>2022-07-12T09:43:50Z</time>
      </trkpt>
      <trkpt lat="42.794548" lon="-7.592281">
        <time>2022-07-12T09:43:55Z</time>
      </trkpt>
      <trkpt lat="42.794575" lon="-7.592348">
        <time>2022-07-12T09:44:00Z</time>
      </trkpt>
      <trkpt lat="42.7946" lon="-7.5924077">
        <time>2022-07-12T09:44:04Z</time>
      </trkpt>
      <trkpt lat="42.79463" lon="-7.5924783">
        <time>2022-07-12T09:44:09Z</time>
      </trkpt>
      <trkpt lat="42.794647" lon="-7.592553">
        <time>2022-07-12T09:44:14Z</time>
      </trkpt>
      <trkpt lat="42.794674" lon="-7.592624">
        <time>2022-07-12T09:44:19Z</time>
      </trkpt>
      <trkpt lat="42.79469" lon="-7.592687">
        <time>2022-07-12T09:44:23Z</time>
      </trkpt>
      <trkpt lat="42.79471" lon="-7.5927644">
        <time>2022-07-12T09:44:28Z</time>
      </trkpt>
      <trkpt lat="42.794724" lon="-7.59284">
        <time>2022-07-12T09:44:33Z</time>
      </trkpt>
      <trkpt lat="42.794743" lon="-7.592921">
        <time>2022-07-12T09:44:38Z</time>
      </trkpt>
      <trkpt lat="42.794765" lon="-7.5929976">
        <time>2022-07-12T09:44:43Z</time>
      </trkpt>
      <trkpt lat="42.794785" lon="-7.59306">
        <time>2022-07-12T09:44:47Z</time>
      </trkpt>
      <trkpt lat="42.79482" lon="-7.593117">
        <time>2022-07-12T09:44:52Z</time>
      </trkpt>
      <trkpt lat="42.794834" lon="-7.59316">
        <time>2022-07-12T09:45:02Z</time>
      </trkpt>
      <trkpt lat="42.79487" lon="-7.593129">
        <time>2022-07-12T09:46:02Z</time>
      </trkpt>
      <trkpt lat="42.794918" lon="-7.593094">
        <time>2022-07-12T09:46:06Z</time>
      </trkpt>
      <trkpt lat="42.794964" lon="-7.5930424">
        <time>2022-07-12T09:46:10Z</time>
      </trkpt>
      <trkpt lat="42.795002" lon="-7.5930057">
        <time>2022-07-12T09:46:16Z</time>
      </trkpt>
      <trkpt lat="42.79497" lon="-7.5930524">
        <time>2022-07-12T09:46:52Z</time>
      </trkpt>
      <trkpt lat="42.794914" lon="-7.593091">
        <time>2022-07-12T09:46:57Z</time>
      </trkpt>
      <trkpt lat="42.794857" lon="-7.59312">
        <time>2022-07-12T09:47:02Z</time>
      </trkpt>
      <trkpt lat="42.79483" lon="-7.5931554">
        <time>2022-07-12T09:48:24Z</time>
      </trkpt>
      <trkpt lat="42.794838" lon="-7.5932283">
        <time>2022-07-12T09:49:34Z</time>
      </trkpt>
      <trkpt lat="42.794857" lon="-7.593321">
        <time>2022-07-12T09:49:39Z</time>
      </trkpt>
      <trkpt lat="42.79487" lon="-7.5933948">
        <time>2022-07-12T09:49:42Z</time>
      </trkpt>
      <trkpt lat="42.79488" lon="-7.593455">
        <time>2022-07-12T09:49:45Z</time>
      </trkpt>
      <trkpt lat="42.794895" lon="-7.593539">
        <time>2022-07-12T09:49:50Z</time>
      </trkpt>
      <trkpt lat="42.79491" lon="-7.5936213">
        <time>2022-07-12T09:49:55Z</time>
      </trkpt>
      <trkpt lat="42.79492" lon="-7.593691">
        <time>2022-07-12T09:49:59Z</time>
      </trkpt>
      <trkpt lat="42.79493" lon="-7.593774">
        <time>2022-07-12T09:50:04Z</time>
      </trkpt>
      <trkpt lat="42.79493" lon="-7.593855">
        <time>2022-07-12T09:50:09Z</time>
      </trkpt>
      <trkpt lat="42.79492" lon="-7.5939345">
        <time>2022-07-12T09:50:14Z</time>
      </trkpt>
      <trkpt lat="42.79492" lon="-7.5940146">
        <time>2022-07-12T09:50:19Z</time>
      </trkpt>
      <trkpt lat="42.79492" lon="-7.5940895">
        <time>2022-07-12T09:50:24Z</time>
      </trkpt>
      <trkpt lat="42.794926" lon="-7.594169">
        <time>2022-07-12T09:50:29Z</time>
      </trkpt>
      <trkpt lat="42.79493" lon="-7.5942373">
        <time>2022-07-12T09:50:33Z</time>
      </trkpt>
      <trkpt lat="42.794937" lon="-7.594311">
        <time>2022-07-12T09:50:38Z</time>
      </trkpt>
      <trkpt lat="42.794952" lon="-7.594384">
        <time>2022-07-12T09:50:42Z</time>
      </trkpt>
      <trkpt lat="42.794964" lon="-7.594459">
        <time>2022-07-12T09:50:46Z</time>
      </trkpt>
      <trkpt lat="42.794987" lon="-7.594534">
        <time>2022-07-12T09:50:51Z</time>
      </trkpt>
      <trkpt lat="42.79501" lon="-7.594606">
        <time>2022-07-12T09:50:56Z</time>
      </trkpt>
      <trkpt lat="42.79502" lon="-7.594682">
        <time>2022-07-12T09:51:02Z</time>
      </trkpt>
      <trkpt lat="42.795033" lon="-7.594751">
        <time>2022-07-12T09:51:07Z</time>
      </trkpt>
      <trkpt lat="42.795048" lon="-7.5948267">
        <time>2022-07-12T09:51:13Z</time>
      </trkpt>
      <trkpt lat="42.79507" lon="-7.594895">
        <time>2022-07-12T09:51:18Z</time>
      </trkpt>
      <trkpt lat="42.795082" lon="-7.594962">
        <time>2022-07-12T09:51:22Z</time>
      </trkpt>
      <trkpt lat="42.795097" lon="-7.5950284">
        <time>2022-07-12T09:51:26Z</time>
      </trkpt>
      <trkpt lat="42.795116" lon="-7.595101">
        <time>2022-07-12T09:51:31Z</time>
      </trkpt>
      <trkpt lat="42.795135" lon="-7.5951724">
        <time>2022-07-12T09:51:36Z</time>
      </trkpt>
      <trkpt lat="42.79515" lon="-7.59524">
        <time>2022-07-12T09:51:41Z</time>
      </trkpt>
      <trkpt lat="42.79517" lon="-7.595311">
        <time>2022-07-12T09:51:46Z</time>
      </trkpt>
      <trkpt lat="42.79519" lon="-7.5953856">
        <time>2022-07-12T09:51:51Z</time>
      </trkpt>
      <trkpt lat="42.7952" lon="-7.5954533">
        <time>2022-07-12T09:51:56Z</time>
      </trkpt>
      <trkpt lat="42.795208" lon="-7.595532">
        <time>2022-07-12T09:52:01Z</time>
      </trkpt>
      <trkpt lat="42.795216" lon="-7.595617">
        <time>2022-07-12T09:52:06Z</time>
      </trkpt>
      <trkpt lat="42.795235" lon="-7.595683">
        <time>2022-07-12T09:52:10Z</time>
      </trkpt>
      <trkpt lat="42.795246" lon="-7.5957665">
        <time>2022-07-12T09:52:15Z</time>
      </trkpt>
      <trkpt lat="42.79525" lon="-7.5958495">
        <time>2022-07-12T09:52:20Z</time>
      </trkpt>
      <trkpt lat="42.79525" lon="-7.595917">
        <time>2022-07-12T09:52:24Z</time>
      </trkpt>
      <trkpt lat="42.795254" lon="-7.595992">
        <time>2022-07-12T09:52:28Z</time>
      </trkpt>
      <trkpt lat="42.79526" lon="-7.5960646">
        <time>2022-07-12T09:52:32Z</time>
      </trkpt>
      <trkpt lat="42.795273" lon="-7.596134">
        <time>2022-07-12T09:52:36Z</time>
      </trkpt>
      <trkpt lat="42.795288" lon="-7.596214">
        <time>2022-07-12T09:52:41Z</time>
      </trkpt>
      <trkpt lat="42.795288" lon="-7.596293">
        <time>2022-07-12T09:52:46Z</time>
      </trkpt>
      <trkpt lat="42.795284" lon="-7.59636">
        <time>2022-07-12T09:52:50Z</time>
      </trkpt>
      <trkpt lat="42.795277" lon="-7.5964303">
        <time>2022-07-12T09:52:54Z</time>
      </trkpt>
      <trkpt lat="42.795273" lon="-7.596513">
        <time>2022-07-12T09:52:59Z</time>
      </trkpt>
      <trkpt lat="42.79526" lon="-7.5965843">
        <time>2022-07-12T09:53:04Z</time>
      </trkpt>
      <trkpt lat="42.795242" lon="-7.5966616">
        <time>2022-07-12T09:53:09Z</time>
      </trkpt>
      <trkpt lat="42.795235" lon="-7.5967298">
        <time>2022-07-12T09:53:15Z</time>
      </trkpt>
      <trkpt lat="42.79523" lon="-7.5968">
        <time>2022-07-12T09:53:20Z</time>
      </trkpt>
      <trkpt lat="42.795223" lon="-7.5968747">
        <time>2022-07-12T09:53:25Z</time>
      </trkpt>
      <trkpt lat="42.795223" lon="-7.5969515">
        <time>2022-07-12T09:53:30Z</time>
      </trkpt>
      <trkpt lat="42.795235" lon="-7.5970335">
        <time>2022-07-12T09:53:35Z</time>
      </trkpt>
      <trkpt lat="42.79526" lon="-7.5971103">
        <time>2022-07-12T09:53:40Z</time>
      </trkpt>
      <trkpt lat="42.795284" lon="-7.597187">
        <time>2022-07-12T09:53:45Z</time>
      </trkpt>
      <trkpt lat="42.79531" lon="-7.597264">
        <time>2022-07-12T09:53:50Z</time>
      </trkpt>
      <trkpt lat="42.795334" lon="-7.597346">
        <time>2022-07-12T09:53:55Z</time>
      </trkpt>
      <trkpt lat="42.795357" lon="-7.597426">
        <time>2022-07-12T09:54:00Z</time>
      </trkpt>
      <trkpt lat="42.795376" lon="-7.597501">
        <time>2022-07-12T09:54:05Z</time>
      </trkpt>
      <trkpt lat="42.795387" lon="-7.5975833">
        <time>2022-07-12T09:54:10Z</time>
      </trkpt>
      <trkpt lat="42.795406" lon="-7.5976377">
        <time>2022-07-12T09:54:14Z</time>
      </trkpt>
      <trkpt lat="42.795425" lon="-7.5977173">
        <time>2022-07-12T09:54:20Z</time>
      </trkpt>
      <trkpt lat="42.79544" lon="-7.597791">
        <time>2022-07-12T09:54:25Z</time>
      </trkpt>
      <trkpt lat="42.79546" lon="-7.5978675">
        <time>2022-07-12T09:54:30Z</time>
      </trkpt>
      <trkpt lat="42.795475" lon="-7.597946">
        <time>2022-07-12T09:54:35Z</time>
      </trkpt>
      <trkpt lat="42.795486" lon="-7.5980206">
        <time>2022-07-12T09:54:41Z</time>
      </trkpt>
      <trkpt lat="42.7955" lon="-7.598099">
        <time>2022-07-12T09:54:45Z</time>
      </trkpt>
      <trkpt lat="42.79552" lon="-7.5981755">
        <time>2022-07-12T09:54:50Z</time>
      </trkpt>
      <trkpt lat="42.79554" lon="-7.598238">
        <time>2022-07-12T09:54:54Z</time>
      </trkpt>
      <trkpt lat="42.79556" lon="-7.5983167">
        <time>2022-07-12T09:54:59Z</time>
      </trkpt>
      <trkpt lat="42.795574" lon="-7.5984006">
        <time>2022-07-12T09:55:04Z</time>
      </trkpt>
      <trkpt lat="42.79558" lon="-7.598472">
        <time>2022-07-12T09:55:08Z</time>
      </trkpt>
      <trkpt lat="42.79558" lon="-7.598545">
        <time>2022-07-12T09:55:12Z</time>
      </trkpt>
      <trkpt lat="42.79558" lon="-7.5986285">
        <time>2022-07-12T09:55:17Z</time>
      </trkpt>
      <trkpt lat="42.79558" lon="-7.598703">
        <time>2022-07-12T09:55:22Z</time>
      </trkpt>
      <trkpt lat="42.79558" lon="-7.598776">
        <time>2022-07-12T09:55:27Z</time>
      </trkpt>
      <trkpt lat="42.795574" lon="-7.5988517">
        <time>2022-07-12T09:55:32Z</time>
      </trkpt>
      <trkpt lat="42.79557" lon="-7.598933">
        <time>2022-07-12T09:55:37Z</time>
      </trkpt>
      <trkpt lat="42.795563" lon="-7.5989995">
        <time>2022-07-12T09:55:41Z</time>
      </trkpt>
      <trkpt lat="42.795555" lon="-7.599066">
        <time>2022-07-12T09:55:45Z</time>
      </trkpt>
      <trkpt lat="42.795544" lon="-7.5991464">
        <time>2022-07-12T09:55:50Z</time>
      </trkpt>
      <trkpt lat="42.79554" lon="-7.5992136">
        <time>2022-07-12T09:55:54Z</time>
      </trkpt>
      <trkpt lat="42.79554" lon="-7.599295">
        <time>2022-07-12T09:55:59Z</time>
      </trkpt>
      <trkpt lat="42.795544" lon="-7.5993586">
        <time>2022-07-12T09:56:03Z</time>
      </trkpt>
      <trkpt lat="42.795544" lon="-7.599446">
        <time>2022-07-12T09:56:08Z</time>
      </trkpt>
      <trkpt lat="42.795544" lon="-7.5995183">
        <time>2022-07-12T09:56:12Z</time>
      </trkpt>
      <trkpt lat="42.795547" lon="-7.599605">
        <time>2022-07-12T09:56:17Z</time>
      </trkpt>
      <trkpt lat="42.795555" lon="-7.5996885">
        <time>2022-07-12T09:56:22Z</time>
      </trkpt>
      <trkpt lat="42.79556" lon="-7.5997734">
        <time>2022-07-12T09:56:27Z</time>
      </trkpt>
      <trkpt lat="42.795567" lon="-7.5998526">
        <time>2022-07-12T09:56:32Z</time>
      </trkpt>
      <trkpt lat="42.795567" lon="-7.59992">
        <time>2022-07-12T09:56:36Z</time>
      </trkpt>
      <trkpt lat="42.795567" lon="-7.6000037">
        <time>2022-07-12T09:56:41Z</time>
      </trkpt>
      <trkpt lat="42.795578" lon="-7.600087">
        <time>2022-07-12T09:56:46Z</time>
      </trkpt>
      <trkpt lat="42.795586" lon="-7.6001515">
        <time>2022-07-12T09:56:50Z</time>
      </trkpt>
      <trkpt lat="42.795597" lon="-7.600228">
        <time>2022-07-12T09:56:55Z</time>
      </trkpt>
      <trkpt lat="42.7956" lon="-7.600307">
        <time>2022-07-12T09:57:00Z</time>
      </trkpt>
      <trkpt lat="42.795616" lon="-7.600387">
        <time>2022-07-12T09:57:05Z</time>
      </trkpt>
      <trkpt lat="42.795624" lon="-7.6004677">
        <time>2022-07-12T09:57:10Z</time>
      </trkpt>
      <trkpt lat="42.795635" lon="-7.6005306">
        <time>2022-07-12T09:57:14Z</time>
      </trkpt>
      <trkpt lat="42.79565" lon="-7.60061">
        <time>2022-07-12T09:57:19Z</time>
      </trkpt>
      <trkpt lat="42.795654" lon="-7.6006894">
        <time>2022-07-12T09:57:24Z</time>
      </trkpt>
      <trkpt lat="42.79565" lon="-7.6007614">
        <time>2022-07-12T09:57:28Z</time>
      </trkpt>
      <trkpt lat="42.79563" lon="-7.600848">
        <time>2022-07-12T09:57:33Z</time>
      </trkpt>
      <trkpt lat="42.795616" lon="-7.6009145">
        <time>2022-07-12T09:57:37Z</time>
      </trkpt>
      <trkpt lat="42.795586" lon="-7.6010056">
        <time>2022-07-12T09:57:43Z</time>
      </trkpt>
      <trkpt lat="42.79557" lon="-7.6010814">
        <time>2022-07-12T09:57:48Z</time>
      </trkpt>
      <trkpt lat="42.79556" lon="-7.6011534">
        <time>2022-07-12T09:57:53Z</time>
      </trkpt>
      <trkpt lat="42.795555" lon="-7.6012325">
        <time>2022-07-12T09:57:58Z</time>
      </trkpt>
      <trkpt lat="42.795547" lon="-7.601317">
        <time>2022-07-12T09:58:03Z</time>
      </trkpt>
      <trkpt lat="42.795544" lon="-7.601386">
        <time>2022-07-12T09:58:07Z</time>
      </trkpt>
      <trkpt lat="42.795536" lon="-7.601471">
        <time>2022-07-12T09:58:12Z</time>
      </trkpt>
      <trkpt lat="42.79552" lon="-7.6015525">
        <time>2022-07-12T09:58:17Z</time>
      </trkpt>
      <trkpt lat="42.79551" lon="-7.6016207">
        <time>2022-07-12T09:58:21Z</time>
      </trkpt>
      <trkpt lat="42.7955" lon="-7.601683">
        <time>2022-07-12T09:58:25Z</time>
      </trkpt>
      <trkpt lat="42.795494" lon="-7.6017566">
        <time>2022-07-12T09:58:30Z</time>
      </trkpt>
      <trkpt lat="42.795494" lon="-7.6018405">
        <time>2022-07-12T09:58:35Z</time>
      </trkpt>
      <trkpt lat="42.795494" lon="-7.6019087">
        <time>2022-07-12T09:58:39Z</time>
      </trkpt>
      <trkpt lat="42.795498" lon="-7.60199">
        <time>2022-07-12T09:58:44Z</time>
      </trkpt>
      <trkpt lat="42.795513" lon="-7.602069">
        <time>2022-07-12T09:58:49Z</time>
      </trkpt>
      <trkpt lat="42.795536" lon="-7.6021276">
        <time>2022-07-12T09:58:53Z</time>
      </trkpt>
      <trkpt lat="42.79558" lon="-7.602185">
        <time>2022-07-12T09:58:58Z</time>
      </trkpt>
      <trkpt lat="42.795624" lon="-7.6022353">
        <time>2022-07-12T09:59:03Z</time>
      </trkpt>
      <trkpt lat="42.79566" lon="-7.602284">
        <time>2022-07-12T09:59:07Z</time>
      </trkpt>
      <trkpt lat="42.79568" lon="-7.6023607">
        <time>2022-07-12T09:59:12Z</time>
      </trkpt>
      <trkpt lat="42.795692" lon="-7.602425">
        <time>2022-07-12T09:59:16Z</time>
      </trkpt>
      <trkpt lat="42.7957" lon="-7.602511">
        <time>2022-07-12T09:59:21Z</time>
      </trkpt>
      <trkpt lat="42.7957" lon="-7.6025877">
        <time>2022-07-12T09:59:26Z</time>
      </trkpt>
      <trkpt lat="42.7957" lon="-7.602653">
        <time>2022-07-12T09:59:30Z</time>
      </trkpt>
      <trkpt lat="42.795696" lon="-7.602726">
        <time>2022-07-12T09:59:35Z</time>
      </trkpt>
      <trkpt lat="42.795696" lon="-7.6028075">
        <time>2022-07-12T09:59:41Z</time>
      </trkpt>
      <trkpt lat="42.79569" lon="-7.6028757">
        <time>2022-07-12T09:59:47Z</time>
      </trkpt>
      <trkpt lat="42.79568" lon="-7.6029506">
        <time>2022-07-12T09:59:54Z</time>
      </trkpt>
      <trkpt lat="42.795677" lon="-7.603026">
        <time>2022-07-12T10:00:00Z</time>
      </trkpt>
      <trkpt lat="42.795666" lon="-7.603107">
        <time>2022-07-12T10:00:06Z</time>
      </trkpt>
      <trkpt lat="42.795677" lon="-7.6031713">
        <time>2022-07-12T10:00:12Z</time>
      </trkpt>
      <trkpt lat="42.79567" lon="-7.603245">
        <time>2022-07-12T10:00:17Z</time>
      </trkpt>
      <trkpt lat="42.795662" lon="-7.603324">
        <time>2022-07-12T10:00:22Z</time>
      </trkpt>
      <trkpt lat="42.79565" lon="-7.6034">
        <time>2022-07-12T10:00:27Z</time>
      </trkpt>
      <trkpt lat="42.795628" lon="-7.603478">
        <time>2022-07-12T10:00:32Z</time>
      </trkpt>
      <trkpt lat="42.795597" lon="-7.6035304">
        <time>2022-07-12T10:00:36Z</time>
      </trkpt>
      <trkpt lat="42.795547" lon="-7.603575">
        <time>2022-07-12T10:00:41Z</time>
      </trkpt>
      <trkpt lat="42.795506" lon="-7.6035995">
        <time>2022-07-12T10:00:45Z</time>
      </trkpt>
      <trkpt lat="42.795456" lon="-7.603625">
        <time>2022-07-12T10:00:50Z</time>
      </trkpt>
      <trkpt lat="42.79541" lon="-7.6036725">
        <time>2022-07-12T10:00:56Z</time>
      </trkpt>
      <trkpt lat="42.795376" lon="-7.60374">
        <time>2022-07-12T10:01:01Z</time>
      </trkpt>
      <trkpt lat="42.795345" lon="-7.603801">
        <time>2022-07-12T10:01:06Z</time>
      </trkpt>
      <trkpt lat="42.79531" lon="-7.603865">
        <time>2022-07-12T10:01:11Z</time>
      </trkpt>
      <trkpt lat="42.795273" lon="-7.603914">
        <time>2022-07-12T10:01:15Z</time>
      </trkpt>
      <trkpt lat="42.79523" lon="-7.603971">
        <time>2022-07-12T10:01:20Z</time>
      </trkpt>
      <trkpt lat="42.795193" lon="-7.6040277">
        <time>2022-07-12T10:01:25Z</time>
      </trkpt>
      <trkpt lat="42.79516" lon="-7.6040783">
        <time>2022-07-12T10:01:30Z</time>
      </trkpt>
      <trkpt lat="42.795128" lon="-7.604143">
        <time>2022-07-12T10:01:35Z</time>
      </trkpt>
      <trkpt lat="42.795113" lon="-7.604202">
        <time>2022-07-12T10:01:45Z</time>
      </trkpt>
      <trkpt lat="42.79509" lon="-7.604329">
        <time>2022-07-12T10:02:01Z</time>
      </trkpt>
      <trkpt lat="42.795094" lon="-7.604402">
        <time>2022-07-12T10:02:06Z</time>
      </trkpt>
      <trkpt lat="42.795094" lon="-7.6044846">
        <time>2022-07-12T10:02:11Z</time>
      </trkpt>
      <trkpt lat="42.795097" lon="-7.6045527">
        <time>2022-07-12T10:02:15Z</time>
      </trkpt>
      <trkpt lat="42.795105" lon="-7.604635">
        <time>2022-07-12T10:02:20Z</time>
      </trkpt>
      <trkpt lat="42.795113" lon="-7.6047153">
        <time>2022-07-12T10:02:25Z</time>
      </trkpt>
      <trkpt lat="42.795124" lon="-7.604777">
        <time>2022-07-12T10:02:29Z</time>
      </trkpt>
      <trkpt lat="42.795143" lon="-7.6048565">
        <time>2022-07-12T10:02:34Z</time>
      </trkpt>
      <trkpt lat="42.795155" lon="-7.604913">
        <time>2022-07-12T10:02:38Z</time>
      </trkpt>
      <trkpt lat="42.795174" lon="-7.6049986">
        <time>2022-07-12T10:02:43Z</time>
      </trkpt>
      <trkpt lat="42.79519" lon="-7.605059">
        <time>2022-07-12T10:02:47Z</time>
      </trkpt>
      <trkpt lat="42.795216" lon="-7.6051307">
        <time>2022-07-12T10:02:52Z</time>
      </trkpt>
      <trkpt lat="42.795235" lon="-7.6051955">
        <time>2022-07-12T10:02:56Z</time>
      </trkpt>
      <trkpt lat="42.795246" lon="-7.6052604">
        <time>2022-07-12T10:03:00Z</time>
      </trkpt>
      <trkpt lat="42.79526" lon="-7.6053414">
        <time>2022-07-12T10:03:05Z</time>
      </trkpt>
      <trkpt lat="42.795284" lon="-7.605417">
        <time>2022-07-12T10:03:10Z</time>
      </trkpt>
      <trkpt lat="42.795303" lon="-7.605478">
        <time>2022-07-12T10:03:14Z</time>
      </trkpt>
      <trkpt lat="42.795326" lon="-7.605553">
        <time>2022-07-12T10:03:19Z</time>
      </trkpt>
      <trkpt lat="42.795353" lon="-7.6056232">
        <time>2022-07-12T10:03:24Z</time>
      </trkpt>
      <trkpt lat="42.795383" lon="-7.605695">
        <time>2022-07-12T10:03:29Z</time>
      </trkpt>
      <trkpt lat="42.795418" lon="-7.6057696">
        <time>2022-07-12T10:03:34Z</time>
      </trkpt>
      <trkpt lat="42.795437" lon="-7.605837">
        <time>2022-07-12T10:03:38Z</time>
      </trkpt>
      <trkpt lat="42.795467" lon="-7.6059103">
        <time>2022-07-12T10:03:43Z</time>
      </trkpt>
      <trkpt lat="42.79548" lon="-7.605986">
        <time>2022-07-12T10:03:48Z</time>
      </trkpt>
      <trkpt lat="42.795494" lon="-7.606064">
        <time>2022-07-12T10:03:53Z</time>
      </trkpt>
      <trkpt lat="42.7955" lon="-7.6061444">
        <time>2022-07-12T10:03:58Z</time>
      </trkpt>
      <trkpt lat="42.795513" lon="-7.6062055">
        <time>2022-07-12T10:04:02Z</time>
      </trkpt>
      <trkpt lat="42.795536" lon="-7.606292">
        <time>2022-07-12T10:04:07Z</time>
      </trkpt>
      <trkpt lat="42.79556" lon="-7.606375">
        <time>2022-07-12T10:04:14Z</time>
      </trkpt>
      <trkpt lat="42.795574" lon="-7.606437">
        <time>2022-07-12T10:04:18Z</time>
      </trkpt>
      <trkpt lat="42.795586" lon="-7.6065183">
        <time>2022-07-12T10:04:23Z</time>
      </trkpt>
      <trkpt lat="42.795597" lon="-7.6065784">
        <time>2022-07-12T10:04:27Z</time>
      </trkpt>
      <trkpt lat="42.795612" lon="-7.6066594">
        <time>2022-07-12T10:04:32Z</time>
      </trkpt>
      <trkpt lat="42.795624" lon="-7.606744">
        <time>2022-07-12T10:04:37Z</time>
      </trkpt>
      <trkpt lat="42.795635" lon="-7.6068077">
        <time>2022-07-12T10:04:41Z</time>
      </trkpt>
      <trkpt lat="42.795647" lon="-7.606888">
        <time>2022-07-12T10:04:46Z</time>
      </trkpt>
      <trkpt lat="42.795654" lon="-7.60697">
        <time>2022-07-12T10:04:51Z</time>
      </trkpt>
      <trkpt lat="42.79566" lon="-7.607036">
        <time>2022-07-12T10:04:55Z</time>
      </trkpt>
      <trkpt lat="42.795666" lon="-7.607113">
        <time>2022-07-12T10:05:00Z</time>
      </trkpt>
      <trkpt lat="42.795673" lon="-7.6071787">
        <time>2022-07-12T10:05:04Z</time>
      </trkpt>
      <trkpt lat="42.79568" lon="-7.6072617">
        <time>2022-07-12T10:05:09Z</time>
      </trkpt>
      <trkpt lat="42.79569" lon="-7.6073227">
        <time>2022-07-12T10:05:13Z</time>
      </trkpt>
      <trkpt lat="42.7957" lon="-7.6074047">
        <time>2022-07-12T10:05:18Z</time>
      </trkpt>
      <trkpt lat="42.795708" lon="-7.6074724">
        <time>2022-07-12T10:05:26Z</time>
      </trkpt>
      <trkpt lat="42.795715" lon="-7.607559">
        <time>2022-07-12T10:05:32Z</time>
      </trkpt>
      <trkpt lat="42.79572" lon="-7.6076264">
        <time>2022-07-12T10:05:36Z</time>
      </trkpt>
      <trkpt lat="42.795723" lon="-7.607708">
        <time>2022-07-12T10:05:41Z</time>
      </trkpt>
      <trkpt lat="42.79574" lon="-7.6077952">
        <time>2022-07-12T10:05:46Z</time>
      </trkpt>
      <trkpt lat="42.795746" lon="-7.607866">
        <time>2022-07-12T10:05:50Z</time>
      </trkpt>
      <trkpt lat="42.795757" lon="-7.6079473">
        <time>2022-07-12T10:05:55Z</time>
      </trkpt>
      <trkpt lat="42.795776" lon="-7.608024">
        <time>2022-07-12T10:06:00Z</time>
      </trkpt>
      <trkpt lat="42.795803" lon="-7.608097">
        <time>2022-07-12T10:06:05Z</time>
      </trkpt>
      <trkpt lat="42.79583" lon="-7.608167">
        <time>2022-07-12T10:06:10Z</time>
      </trkpt>
      <trkpt lat="42.795856" lon="-7.6082354">
        <time>2022-07-12T10:06:15Z</time>
      </trkpt>
      <trkpt lat="42.79589" lon="-7.608308">
        <time>2022-07-12T10:06:20Z</time>
      </trkpt>
      <trkpt lat="42.795918" lon="-7.608375">
        <time>2022-07-12T10:06:25Z</time>
      </trkpt>
      <trkpt lat="42.795944" lon="-7.608443">
        <time>2022-07-12T10:06:30Z</time>
      </trkpt>
      <trkpt lat="42.795956" lon="-7.6085196">
        <time>2022-07-12T10:06:35Z</time>
      </trkpt>
      <trkpt lat="42.79597" lon="-7.6085973">
        <time>2022-07-12T10:06:40Z</time>
      </trkpt>
      <trkpt lat="42.795982" lon="-7.6086693">
        <time>2022-07-12T10:06:45Z</time>
      </trkpt>
      <trkpt lat="42.79599" lon="-7.608752">
        <time>2022-07-12T10:06:51Z</time>
      </trkpt>
      <trkpt lat="42.796" lon="-7.608816">
        <time>2022-07-12T10:06:55Z</time>
      </trkpt>
      <trkpt lat="42.79602" lon="-7.6089">
        <time>2022-07-12T10:07:00Z</time>
      </trkpt>
      <trkpt lat="42.79604" lon="-7.6089807">
        <time>2022-07-12T10:07:05Z</time>
      </trkpt>
      <trkpt lat="42.796062" lon="-7.609056">
        <time>2022-07-12T10:07:10Z</time>
      </trkpt>
      <trkpt lat="42.7961" lon="-7.609121">
        <time>2022-07-12T10:07:15Z</time>
      </trkpt>
      <trkpt lat="42.79614" lon="-7.6091685">
        <time>2022-07-12T10:07:19Z</time>
      </trkpt>
      <trkpt lat="42.79619" lon="-7.6092095">
        <time>2022-07-12T10:07:24Z</time>
      </trkpt>
      <trkpt lat="42.79624" lon="-7.609234">
        <time>2022-07-12T10:07:28Z</time>
      </trkpt>
      <trkpt lat="42.79629" lon="-7.609255">
        <time>2022-07-12T10:07:32Z</time>
      </trkpt>
      <trkpt lat="42.796352" lon="-7.609251">
        <time>2022-07-12T10:07:37Z</time>
      </trkpt>
      <trkpt lat="42.7964" lon="-7.609224">
        <time>2022-07-12T10:07:41Z</time>
      </trkpt>
      <trkpt lat="42.796448" lon="-7.609189">
        <time>2022-07-12T10:07:46Z</time>
      </trkpt>
      <trkpt lat="42.79649" lon="-7.6091657">
        <time>2022-07-12T10:07:51Z</time>
      </trkpt>
      <trkpt lat="42.796528" lon="-7.609152">
        <time>2022-07-12T10:08:43Z</time>
      </trkpt>
      <trkpt lat="42.79658" lon="-7.6091146">
        <time>2022-07-12T10:08:49Z</time>
      </trkpt>
      <trkpt lat="42.796616" lon="-7.609058">
        <time>2022-07-12T10:08:53Z</time>
      </trkpt>
      <trkpt lat="42.796635" lon="-7.6089983">
        <time>2022-07-12T10:09:01Z</time>
      </trkpt>
      <trkpt lat="42.796616" lon="-7.609062">
        <time>2022-07-12T10:09:14Z</time>
      </trkpt>
      <trkpt lat="42.796604" lon="-7.6091285">
        <time>2022-07-12T10:09:39Z</time>
      </trkpt>
      <trkpt lat="42.7966" lon="-7.6092024">
        <time>2022-07-12T10:09:43Z</time>
      </trkpt>
      <trkpt lat="42.7966" lon="-7.609279">
        <time>2022-07-12T10:09:47Z</time>
      </trkpt>
      <trkpt lat="42.796597" lon="-7.60935">
        <time>2022-07-12T10:09:51Z</time>
      </trkpt>
      <trkpt lat="42.796593" lon="-7.609425">
        <time>2022-07-12T10:09:56Z</time>
      </trkpt>
      <trkpt lat="42.796593" lon="-7.6094975">
        <time>2022-07-12T10:10:01Z</time>
      </trkpt>
      <trkpt lat="42.796593" lon="-7.609573">
        <time>2022-07-12T10:10:05Z</time>
      </trkpt>
      <trkpt lat="42.796585" lon="-7.609657">
        <time>2022-07-12T10:10:09Z</time>
      </trkpt>
      <trkpt lat="42.796577" lon="-7.609739">
        <time>2022-07-12T10:10:13Z</time>
      </trkpt>
      <trkpt lat="42.796562" lon="-7.6098027">
        <time>2022-07-12T10:10:17Z</time>
      </trkpt>
      <trkpt lat="42.796543" lon="-7.609874">
        <time>2022-07-12T10:10:22Z</time>
      </trkpt>
      <trkpt lat="42.796528" lon="-7.609956">
        <time>2022-07-12T10:10:27Z</time>
      </trkpt>
      <trkpt lat="42.79651" lon="-7.6100273">
        <time>2022-07-12T10:10:31Z</time>
      </trkpt>
      <trkpt lat="42.79649" lon="-7.6101093">
        <time>2022-07-12T10:10:35Z</time>
      </trkpt>
      <trkpt lat="42.796474" lon="-7.610188">
        <time>2022-07-12T10:10:39Z</time>
      </trkpt>
      <trkpt lat="42.796463" lon="-7.610248">
        <time>2022-07-12T10:10:43Z</time>
      </trkpt>
      <trkpt lat="42.796448" lon="-7.6103272">
        <time>2022-07-12T10:10:48Z</time>
      </trkpt>
      <trkpt lat="42.796432" lon="-7.6104">
        <time>2022-07-12T10:10:52Z</time>
      </trkpt>
      <trkpt lat="42.796425" lon="-7.6104817">
        <time>2022-07-12T10:10:56Z</time>
      </trkpt>
      <trkpt lat="42.796436" lon="-7.610552">
        <time>2022-07-12T10:11:00Z</time>
      </trkpt>
      <trkpt lat="42.796455" lon="-7.610611">
        <time>2022-07-12T10:11:04Z</time>
      </trkpt>
      <trkpt lat="42.79648" lon="-7.6106815">
        <time>2022-07-12T10:11:09Z</time>
      </trkpt>
      <trkpt lat="42.796505" lon="-7.610739">
        <time>2022-07-12T10:11:13Z</time>
      </trkpt>
      <trkpt lat="42.796547" lon="-7.610801">
        <time>2022-07-12T10:11:17Z</time>
      </trkpt>
      <trkpt lat="42.796585" lon="-7.610861">
        <time>2022-07-12T10:11:21Z</time>
      </trkpt>
      <trkpt lat="42.796627" lon="-7.6109076">
        <time>2022-07-12T10:11:26Z</time>
      </trkpt>
      <trkpt lat="42.796677" lon="-7.6109557">
        <time>2022-07-12T10:11:31Z</time>
      </trkpt>
      <trkpt lat="42.796715" lon="-7.611007">
        <time>2022-07-12T10:11:35Z</time>
      </trkpt>
      <trkpt lat="42.796757" lon="-7.611056">
        <time>2022-07-12T10:11:40Z</time>
      </trkpt>
      <trkpt lat="42.796806" lon="-7.611096">
        <time>2022-07-12T10:11:45Z</time>
      </trkpt>
      <trkpt lat="42.796864" lon="-7.611127">
        <time>2022-07-12T10:11:49Z</time>
      </trkpt>
      <trkpt lat="42.796917" lon="-7.6111903">
        <time>2022-07-12T10:11:54Z</time>
      </trkpt>
      <trkpt lat="42.796955" lon="-7.611228">
        <time>2022-07-12T10:11:58Z</time>
      </trkpt>
      <trkpt lat="42.797005" lon="-7.61127">
        <time>2022-07-12T10:12:03Z</time>
      </trkpt>
      <trkpt lat="42.79705" lon="-7.6113086">
        <time>2022-07-12T10:12:07Z</time>
      </trkpt>
      <trkpt lat="42.79709" lon="-7.6113515">
        <time>2022-07-12T10:12:11Z</time>
      </trkpt>
      <trkpt lat="42.797134" lon="-7.611408">
        <time>2022-07-12T10:12:16Z</time>
      </trkpt>
      <trkpt lat="42.797176" lon="-7.6114507">
        <time>2022-07-12T10:12:20Z</time>
      </trkpt>
      <trkpt lat="42.79723" lon="-7.6115007">
        <time>2022-07-12T10:12:25Z</time>
      </trkpt>
      <trkpt lat="42.79728" lon="-7.611557">
        <time>2022-07-12T10:12:30Z</time>
      </trkpt>
      <trkpt lat="42.797325" lon="-7.6116123">
        <time>2022-07-12T10:12:35Z</time>
      </trkpt>
      <trkpt lat="42.797367" lon="-7.611664">
        <time>2022-07-12T10:12:40Z</time>
      </trkpt>
      <trkpt lat="42.79741" lon="-7.611704">
        <time>2022-07-12T10:12:44Z</time>
      </trkpt>
      <trkpt lat="42.79745" lon="-7.6117506">
        <time>2022-07-12T10:12:48Z</time>
      </trkpt>
      <trkpt lat="42.797504" lon="-7.611803">
        <time>2022-07-12T10:12:53Z</time>
      </trkpt>
      <trkpt lat="42.79755" lon="-7.6118484">
        <time>2022-07-12T10:12:57Z</time>
      </trkpt>
      <trkpt lat="42.79759" lon="-7.611891">
        <time>2022-07-12T10:13:01Z</time>
      </trkpt>
      <trkpt lat="42.797638" lon="-7.61194">
        <time>2022-07-12T10:13:06Z</time>
      </trkpt>
      <trkpt lat="42.797684" lon="-7.6119905">
        <time>2022-07-12T10:13:10Z</time>
      </trkpt>
      <trkpt lat="42.79772" lon="-7.6120396">
        <time>2022-07-12T10:13:14Z</time>
      </trkpt>
      <trkpt lat="42.797764" lon="-7.612091">
        <time>2022-07-12T10:13:19Z</time>
      </trkpt>
      <trkpt lat="42.79781" lon="-7.612137">
        <time>2022-07-12T10:13:23Z</time>
      </trkpt>
      <trkpt lat="42.79785" lon="-7.6121845">
        <time>2022-07-12T10:13:28Z</time>
      </trkpt>
      <trkpt lat="42.79789" lon="-7.6122284">
        <time>2022-07-12T10:13:32Z</time>
      </trkpt>
      <trkpt lat="42.797935" lon="-7.6122866">
        <time>2022-07-12T10:13:37Z</time>
      </trkpt>
      <trkpt lat="42.797974" lon="-7.612346">
        <time>2022-07-12T10:13:41Z</time>
      </trkpt>
      <trkpt lat="42.79801" lon="-7.612412">
        <time>2022-07-12T10:13:45Z</time>
      </trkpt>
      <trkpt lat="42.79804" lon="-7.6124763">
        <time>2022-07-12T10:13:49Z</time>
      </trkpt>
      <trkpt lat="42.798065" lon="-7.6125474">
        <time>2022-07-12T10:13:55Z</time>
      </trkpt>
      <trkpt lat="42.798122" lon="-7.612556">
        <time>2022-07-12T10:14:10Z</time>
      </trkpt>
      <trkpt lat="42.798176" lon="-7.6125813">
        <time>2022-07-12T10:14:15Z</time>
      </trkpt>
      <trkpt lat="42.798233" lon="-7.612625">
        <time>2022-07-12T10:14:20Z</time>
      </trkpt>
      <trkpt lat="42.798286" lon="-7.612665">
        <time>2022-07-12T10:14:25Z</time>
      </trkpt>
      <trkpt lat="42.79834" lon="-7.612704">
        <time>2022-07-12T10:14:30Z</time>
      </trkpt>
      <trkpt lat="42.79838" lon="-7.612733">
        <time>2022-07-12T10:14:34Z</time>
      </trkpt>
      <trkpt lat="42.798435" lon="-7.612767">
        <time>2022-07-12T10:14:39Z</time>
      </trkpt>
      <trkpt lat="42.798485" lon="-7.612803">
        <time>2022-07-12T10:14:43Z</time>
      </trkpt>
      <trkpt lat="42.798527" lon="-7.6128354">
        <time>2022-07-12T10:14:47Z</time>
      </trkpt>
      <trkpt lat="42.79858" lon="-7.6128683">
        <time>2022-07-12T10:14:52Z</time>
      </trkpt>
      <trkpt lat="42.79863" lon="-7.6128983">
        <time>2022-07-12T10:14:56Z</time>
      </trkpt>
      <trkpt lat="42.79868" lon="-7.612924">
        <time>2022-07-12T10:15:00Z</time>
      </trkpt>
      <trkpt lat="42.798737" lon="-7.6129556">
        <time>2022-07-12T10:15:05Z</time>
      </trkpt>
      <trkpt lat="42.79878" lon="-7.6129985">
        <time>2022-07-12T10:15:09Z</time>
      </trkpt>
      <trkpt lat="42.798813" lon="-7.61304">
        <time>2022-07-12T10:15:13Z</time>
      </trkpt>
      <trkpt lat="42.798862" lon="-7.613093">
        <time>2022-07-12T10:15:19Z</time>
      </trkpt>
      <trkpt lat="42.798904" lon="-7.613136">
        <time>2022-07-12T10:15:23Z</time>
      </trkpt>
      <trkpt lat="42.798943" lon="-7.6131816">
        <time>2022-07-12T10:15:28Z</time>
      </trkpt>
      <trkpt lat="42.79899" lon="-7.6132402">
        <time>2022-07-12T10:15:33Z</time>
      </trkpt>
      <trkpt lat="42.79902" lon="-7.613291">
        <time>2022-07-12T10:15:37Z</time>
      </trkpt>
      <trkpt lat="42.79905" lon="-7.613356">
        <time>2022-07-12T10:15:42Z</time>
      </trkpt>
      <trkpt lat="42.799084" lon="-7.613416">
        <time>2022-07-12T10:15:46Z</time>
      </trkpt>
      <trkpt lat="42.799114" lon="-7.6134744">
        <time>2022-07-12T10:15:51Z</time>
      </trkpt>
      <trkpt lat="42.799145" lon="-7.613535">
        <time>2022-07-12T10:15:55Z</time>
      </trkpt>
      <trkpt lat="42.79917" lon="-7.6136045">
        <time>2022-07-12T10:15:59Z</time>
      </trkpt>
      <trkpt lat="42.79919" lon="-7.6136665">
        <time>2022-07-12T10:16:03Z</time>
      </trkpt>
      <trkpt lat="42.799217" lon="-7.613745">
        <time>2022-07-12T10:16:08Z</time>
      </trkpt>
      <trkpt lat="42.799232" lon="-7.613815">
        <time>2022-07-12T10:16:12Z</time>
      </trkpt>
      <trkpt lat="42.799244" lon="-7.6138797">
        <time>2022-07-12T10:16:16Z</time>
      </trkpt>
      <trkpt lat="42.79926" lon="-7.6139483">
        <time>2022-07-12T10:16:21Z</time>
      </trkpt>
      <trkpt lat="42.799267" lon="-7.614032">
        <time>2022-07-12T10:16:26Z</time>
      </trkpt>
      <trkpt lat="42.799286" lon="-7.6140924">
        <time>2022-07-12T10:16:30Z</time>
      </trkpt>
      <trkpt lat="42.799328" lon="-7.6141467">
        <time>2022-07-12T10:16:35Z</time>
      </trkpt>
      <trkpt lat="42.799374" lon="-7.614198">
        <time>2022-07-12T10:16:39Z</time>
      </trkpt>
      <trkpt lat="42.799408" lon="-7.6142344">
        <time>2022-07-12T10:16:42Z</time>
      </trkpt>
      <trkpt lat="42.799458" lon="-7.6142817">
        <time>2022-07-12T10:16:47Z</time>
      </trkpt>
      <trkpt lat="42.799515" lon="-7.614331">
        <time>2022-07-12T10:16:52Z</time>
      </trkpt>
      <trkpt lat="42.79957" lon="-7.614372">
        <time>2022-07-12T10:16:56Z</time>
      </trkpt>
      <trkpt lat="42.799614" lon="-7.6144166">
        <time>2022-07-12T10:17:01Z</time>
      </trkpt>
      <trkpt lat="42.799664" lon="-7.614464">
        <time>2022-07-12T10:17:06Z</time>
      </trkpt>
      <trkpt lat="42.79971" lon="-7.614508">
        <time>2022-07-12T10:17:10Z</time>
      </trkpt>
      <trkpt lat="42.799755" lon="-7.6145515">
        <time>2022-07-12T10:17:15Z</time>
      </trkpt>
      <trkpt lat="42.799812" lon="-7.614599">
        <time>2022-07-12T10:17:20Z</time>
      </trkpt>
      <trkpt lat="42.79985" lon="-7.614635">
        <time>2022-07-12T10:17:23Z</time>
      </trkpt>
      <trkpt lat="42.799885" lon="-7.6146827">
        <time>2022-07-12T10:17:28Z</time>
      </trkpt>
      <trkpt lat="42.79993" lon="-7.614745">
        <time>2022-07-12T10:17:33Z</time>
      </trkpt>
      <trkpt lat="42.799965" lon="-7.6147995">
        <time>2022-07-12T10:17:37Z</time>
      </trkpt>
      <trkpt lat="42.8" lon="-7.6148615">
        <time>2022-07-12T10:17:42Z</time>
      </trkpt>
      <trkpt lat="42.80003" lon="-7.614922">
        <time>2022-07-12T10:17:46Z</time>
      </trkpt>
      <trkpt lat="42.800056" lon="-7.6149883">
        <time>2022-07-12T10:17:51Z</time>
      </trkpt>
      <trkpt lat="42.800083" lon="-7.6150537">
        <time>2022-07-12T10:17:55Z</time>
      </trkpt>
      <trkpt lat="42.80011" lon="-7.615125">
        <time>2022-07-12T10:17:59Z</time>
      </trkpt>
      <trkpt lat="42.80014" lon="-7.6151896">
        <time>2022-07-12T10:18:04Z</time>
      </trkpt>
      <trkpt lat="42.800163" lon="-7.615254">
        <time>2022-07-12T10:18:08Z</time>
      </trkpt>
      <trkpt lat="42.800182" lon="-7.6153154">
        <time>2022-07-12T10:18:12Z</time>
      </trkpt>
      <trkpt lat="42.800205" lon="-7.615394">
        <time>2022-07-12T10:18:18Z</time>
      </trkpt>
      <trkpt lat="42.800232" lon="-7.615457">
        <time>2022-07-12T10:18:22Z</time>
      </trkpt>
      <trkpt lat="42.80024" lon="-7.61554">
        <time>2022-07-12T10:18:28Z</time>
      </trkpt>
      <trkpt lat="42.800247" lon="-7.6156073">
        <time>2022-07-12T10:18:33Z</time>
      </trkpt>
      <trkpt lat="42.800274" lon="-7.6156597">
        <time>2022-07-12T10:18:39Z</time>
      </trkpt>
      <trkpt lat="42.800312" lon="-7.615719">
        <time>2022-07-12T10:18:45Z</time>
      </trkpt>
      <trkpt lat="42.800354" lon="-7.6157675">
        <time>2022-07-12T10:18:51Z</time>
      </trkpt>
      <trkpt lat="42.80038" lon="-7.6158285">
        <time>2022-07-12T10:18:56Z</time>
      </trkpt>
      <trkpt lat="42.800415" lon="-7.615874">
        <time>2022-07-12T10:19:01Z</time>
      </trkpt>
      <trkpt lat="42.80046" lon="-7.615931">
        <time>2022-07-12T10:19:06Z</time>
      </trkpt>
      <trkpt lat="42.800488" lon="-7.6159883">
        <time>2022-07-12T10:19:11Z</time>
      </trkpt>
      <trkpt lat="42.80052" lon="-7.616033">
        <time>2022-07-12T10:19:16Z</time>
      </trkpt>
      <trkpt lat="42.800564" lon="-7.61607">
        <time>2022-07-12T10:19:24Z</time>
      </trkpt>
      <trkpt lat="42.8006" lon="-7.616118">
        <time>2022-07-12T10:19:33Z</time>
      </trkpt>
      <trkpt lat="42.800632" lon="-7.61632">
        <time>2022-07-12T10:20:14Z</time>
      </trkpt>
      <trkpt lat="42.800644" lon="-7.6163874">
        <time>2022-07-12T10:20:22Z</time>
      </trkpt>
      <trkpt lat="42.800705" lon="-7.61651">
        <time>2022-07-12T10:20:49Z</time>
      </trkpt>
      <trkpt lat="42.800724" lon="-7.61658">
        <time>2022-07-12T10:21:03Z</time>
      </trkpt>
      <trkpt lat="42.800735" lon="-7.616649">
        <time>2022-07-12T10:21:08Z</time>
      </trkpt>
      <trkpt lat="42.800743" lon="-7.616715">
        <time>2022-07-12T10:21:14Z</time>
      </trkpt>
      <trkpt lat="42.800755" lon="-7.6167874">
        <time>2022-07-12T10:21:21Z</time>
      </trkpt>
      <trkpt lat="42.80077" lon="-7.616858">
        <time>2022-07-12T10:21:29Z</time>
      </trkpt>
      <trkpt lat="42.800762" lon="-7.6169167">
        <time>2022-07-12T10:21:41Z</time>
      </trkpt>
      <trkpt lat="42.800797" lon="-7.6170073">
        <time>2022-07-12T10:21:56Z</time>
      </trkpt>
      <trkpt lat="42.80082" lon="-7.6170673">
        <time>2022-07-12T10:22:03Z</time>
      </trkpt>
      <trkpt lat="42.80084" lon="-7.6171365">
        <time>2022-07-12T10:22:12Z</time>
      </trkpt>
      <trkpt lat="42.80086" lon="-7.617153">
        <time>2022-07-12T10:22:48Z</time>
      </trkpt>
      <trkpt lat="42.800907" lon="-7.6171265">
        <time>2022-07-12T10:23:19Z</time>
      </trkpt>
      <trkpt lat="42.80096" lon="-7.6171384">
        <time>2022-07-12T10:23:23Z</time>
      </trkpt>
      <trkpt lat="42.80101" lon="-7.6171284">
        <time>2022-07-12T10:23:27Z</time>
      </trkpt>
      <trkpt lat="42.801067" lon="-7.6170783">
        <time>2022-07-12T10:23:32Z</time>
      </trkpt>
      <trkpt lat="42.8011" lon="-7.6170206">
        <time>2022-07-12T10:23:36Z</time>
      </trkpt>
      <trkpt lat="42.801136" lon="-7.616958">
        <time>2022-07-12T10:23:41Z</time>
      </trkpt>
      <trkpt lat="42.801178" lon="-7.6168904">
        <time>2022-07-12T10:23:46Z</time>
      </trkpt>
      <trkpt lat="42.801212" lon="-7.616829">
        <time>2022-07-12T10:23:50Z</time>
      </trkpt>
      <trkpt lat="42.80125" lon="-7.616771">
        <time>2022-07-12T10:23:55Z</time>
      </trkpt>
      <trkpt lat="42.801292" lon="-7.616698">
        <time>2022-07-12T10:24:00Z</time>
      </trkpt>
      <trkpt lat="42.80132" lon="-7.616633">
        <time>2022-07-12T10:24:04Z</time>
      </trkpt>
      <trkpt lat="42.801357" lon="-7.616581">
        <time>2022-07-12T10:24:09Z</time>
      </trkpt>
      <trkpt lat="42.801407" lon="-7.616532">
        <time>2022-07-12T10:24:14Z</time>
      </trkpt>
      <trkpt lat="42.80145" lon="-7.616479">
        <time>2022-07-12T10:24:18Z</time>
      </trkpt>
      <trkpt lat="42.80148" lon="-7.616442">
        <time>2022-07-12T10:24:22Z</time>
      </trkpt>
      <trkpt lat="42.80152" lon="-7.616392">
        <time>2022-07-12T10:24:29Z</time>
      </trkpt>
      <trkpt lat="42.801556" lon="-7.616338">
        <time>2022-07-12T10:24:34Z</time>
      </trkpt>
      <trkpt lat="42.801586" lon="-7.6162686">
        <time>2022-07-12T10:24:40Z</time>
      </trkpt>
      <trkpt lat="42.80161" lon="-7.6162066">
        <time>2022-07-12T10:24:44Z</time>
      </trkpt>
      <trkpt lat="42.801647" lon="-7.616152">
        <time>2022-07-12T10:24:49Z</time>
      </trkpt>
      <trkpt lat="42.80169" lon="-7.616103">
        <time>2022-07-12T10:24:53Z</time>
      </trkpt>
      <trkpt lat="42.801743" lon="-7.616057">
        <time>2022-07-12T10:24:57Z</time>
      </trkpt>
      <trkpt lat="42.801785" lon="-7.6160116">
        <time>2022-07-12T10:25:01Z</time>
      </trkpt>
      <trkpt lat="42.801823" lon="-7.6159515">
        <time>2022-07-12T10:25:06Z</time>
      </trkpt>
      <trkpt lat="42.801857" lon="-7.615896">
        <time>2022-07-12T10:25:10Z</time>
      </trkpt>
      <trkpt lat="42.801884" lon="-7.6158476">
        <time>2022-07-12T10:25:14Z</time>
      </trkpt>
      <trkpt lat="42.801926" lon="-7.615792">
        <time>2022-07-12T10:25:19Z</time>
      </trkpt>
      <trkpt lat="42.80196" lon="-7.615737">
        <time>2022-07-12T10:25:23Z</time>
      </trkpt>
      <trkpt lat="42.80199" lon="-7.61568">
        <time>2022-07-12T10:25:28Z</time>
      </trkpt>
      <trkpt lat="42.80203" lon="-7.6156216">
        <time>2022-07-12T10:25:34Z</time>
      </trkpt>
      <trkpt lat="42.802097" lon="-7.6155767">
        <time>2022-07-12T10:27:00Z</time>
      </trkpt>
      <trkpt lat="42.8021" lon="-7.6154943">
        <time>2022-07-12T10:27:05Z</time>
      </trkpt>
      <trkpt lat="42.80211" lon="-7.6154222">
        <time>2022-07-12T10:27:08Z</time>
      </trkpt>
      <trkpt lat="42.802116" lon="-7.615354">
        <time>2022-07-12T10:27:11Z</time>
      </trkpt>
      <trkpt lat="42.80213" lon="-7.615288">
        <time>2022-07-12T10:27:15Z</time>
      </trkpt>
      <trkpt lat="42.802143" lon="-7.615214">
        <time>2022-07-12T10:27:20Z</time>
      </trkpt>
      <trkpt lat="42.802174" lon="-7.6151547">
        <time>2022-07-12T10:27:26Z</time>
      </trkpt>
      <trkpt lat="42.80221" lon="-7.615138">
        <time>2022-07-12T10:27:54Z</time>
      </trkpt>
      <trkpt lat="42.80226" lon="-7.615165">
        <time>2022-07-12T10:27:59Z</time>
      </trkpt>
      <trkpt lat="42.80232" lon="-7.6151857">
        <time>2022-07-12T10:28:03Z</time>
      </trkpt>
      <trkpt lat="42.802372" lon="-7.6152153">
        <time>2022-07-12T10:28:08Z</time>
      </trkpt>
      <trkpt lat="42.80243" lon="-7.6152472">
        <time>2022-07-12T10:28:13Z</time>
      </trkpt>
      <trkpt lat="42.802483" lon="-7.6152763">
        <time>2022-07-12T10:28:18Z</time>
      </trkpt>
      <trkpt lat="42.802532" lon="-7.6153145">
        <time>2022-07-12T10:28:23Z</time>
      </trkpt>
      <trkpt lat="42.80258" lon="-7.615342">
        <time>2022-07-12T10:28:28Z</time>
      </trkpt>
      <trkpt lat="42.80265" lon="-7.6153717">
        <time>2022-07-12T10:28:39Z</time>
      </trkpt>
      <trkpt lat="42.802704" lon="-7.6154118">
        <time>2022-07-12T10:28:44Z</time>
      </trkpt>
      <trkpt lat="42.802753" lon="-7.615437">
        <time>2022-07-12T10:28:51Z</time>
      </trkpt>
      <trkpt lat="42.80281" lon="-7.6154785">
        <time>2022-07-12T10:28:58Z</time>
      </trkpt>
      <trkpt lat="42.80285" lon="-7.6155186">
        <time>2022-07-12T10:29:03Z</time>
      </trkpt>
      <trkpt lat="42.8029" lon="-7.6155605">
        <time>2022-07-12T10:29:08Z</time>
      </trkpt>
      <trkpt lat="42.802948" lon="-7.6155925">
        <time>2022-07-12T10:29:13Z</time>
      </trkpt>
      <trkpt lat="42.802994" lon="-7.6156254">
        <time>2022-07-12T10:29:19Z</time>
      </trkpt>
      <trkpt lat="42.803043" lon="-7.615645">
        <time>2022-07-12T10:29:26Z</time>
      </trkpt>
      <trkpt lat="42.803093" lon="-7.6156645">
        <time>2022-07-12T10:29:31Z</time>
      </trkpt>
      <trkpt lat="42.80315" lon="-7.6156926">
        <time>2022-07-12T10:29:36Z</time>
      </trkpt>
      <trkpt lat="42.8032" lon="-7.6157327">
        <time>2022-07-12T10:29:40Z</time>
      </trkpt>
      <trkpt lat="42.80325" lon="-7.6157713">
        <time>2022-07-12T10:29:44Z</time>
      </trkpt>
      <trkpt lat="42.803295" lon="-7.615804">
        <time>2022-07-12T10:29:48Z</time>
      </trkpt>
      <trkpt lat="42.803352" lon="-7.6158423">
        <time>2022-07-12T10:29:53Z</time>
      </trkpt>
      <trkpt lat="42.803402" lon="-7.6158776">
        <time>2022-07-12T10:29:58Z</time>
      </trkpt>
      <trkpt lat="42.803448" lon="-7.615907">
        <time>2022-07-12T10:30:03Z</time>
      </trkpt>
      <trkpt lat="42.8035" lon="-7.6159205">
        <time>2022-07-12T10:30:08Z</time>
      </trkpt>
      <trkpt lat="42.80356" lon="-7.615929">
        <time>2022-07-12T10:30:12Z</time>
      </trkpt>
      <trkpt lat="42.803608" lon="-7.6159444">
        <time>2022-07-12T10:30:18Z</time>
      </trkpt>
      <trkpt lat="42.80366" lon="-7.6159825">
        <time>2022-07-12T10:30:23Z</time>
      </trkpt>
      <trkpt lat="42.80372" lon="-7.6160126">
        <time>2022-07-12T10:30:28Z</time>
      </trkpt>
      <trkpt lat="42.803787" lon="-7.616045">
        <time>2022-07-12T10:30:32Z</time>
      </trkpt>
      <trkpt lat="42.80383" lon="-7.616072">
        <time>2022-07-12T10:30:35Z</time>
      </trkpt>
      <trkpt lat="42.80387" lon="-7.61611">
        <time>2022-07-12T10:30:39Z</time>
      </trkpt>
      <trkpt lat="42.80392" lon="-7.6161504">
        <time>2022-07-12T10:30:44Z</time>
      </trkpt>
      <trkpt lat="42.80396" lon="-7.616188">
        <time>2022-07-12T10:30:48Z</time>
      </trkpt>
      <trkpt lat="42.804016" lon="-7.6162286">
        <time>2022-07-12T10:30:53Z</time>
      </trkpt>
      <trkpt lat="42.80407" lon="-7.6162763">
        <time>2022-07-12T10:30:57Z</time>
      </trkpt>
      <trkpt lat="42.804115" lon="-7.6163106">
        <time>2022-07-12T10:31:02Z</time>
      </trkpt>
      <trkpt lat="42.804165" lon="-7.6163554">
        <time>2022-07-12T10:31:07Z</time>
      </trkpt>
      <trkpt lat="42.804214" lon="-7.616378">
        <time>2022-07-12T10:31:12Z</time>
      </trkpt>
      <trkpt lat="42.804276" lon="-7.616409">
        <time>2022-07-12T10:31:17Z</time>
      </trkpt>
      <trkpt lat="42.804325" lon="-7.61644">
        <time>2022-07-12T10:31:22Z</time>
      </trkpt>
      <trkpt lat="42.80437" lon="-7.616473">
        <time>2022-07-12T10:31:27Z</time>
      </trkpt>
      <trkpt lat="42.80442" lon="-7.6165185">
        <time>2022-07-12T10:31:32Z</time>
      </trkpt>
      <trkpt lat="42.80447" lon="-7.6165543">
        <time>2022-07-12T10:31:37Z</time>
      </trkpt>
      <trkpt lat="42.804523" lon="-7.616594">
        <time>2022-07-12T10:31:42Z</time>
      </trkpt>
      <trkpt lat="42.804565" lon="-7.616622">
        <time>2022-07-12T10:31:46Z</time>
      </trkpt>
      <trkpt lat="42.804615" lon="-7.6166515">
        <time>2022-07-12T10:31:51Z</time>
      </trkpt>
      <trkpt lat="42.804665" lon="-7.61668">
        <time>2022-07-12T10:31:57Z</time>
      </trkpt>
      <trkpt lat="42.804714" lon="-7.616711">
        <time>2022-07-12T10:32:03Z</time>
      </trkpt>
      <trkpt lat="42.804764" lon="-7.6167417">
        <time>2022-07-12T10:32:09Z</time>
      </trkpt>
      <trkpt lat="42.804806" lon="-7.616792">
        <time>2022-07-12T10:32:15Z</time>
      </trkpt>
      <trkpt lat="42.804848" lon="-7.6168365">
        <time>2022-07-12T10:32:19Z</time>
      </trkpt>
      <trkpt lat="42.804897" lon="-7.6168504">
        <time>2022-07-12T10:32:23Z</time>
      </trkpt>
      <trkpt lat="42.804947" lon="-7.6168437">
        <time>2022-07-12T10:32:27Z</time>
      </trkpt>
      <trkpt lat="42.804996" lon="-7.616814">
        <time>2022-07-12T10:32:33Z</time>
      </trkpt>
      <trkpt lat="42.80506" lon="-7.6168">
        <time>2022-07-12T10:33:50Z</time>
      </trkpt>
      <trkpt lat="42.805027" lon="-7.6168456">
        <time>2022-07-12T10:34:18Z</time>
      </trkpt>
      <trkpt lat="42.805027" lon="-7.6169004">
        <time>2022-07-12T10:34:28Z</time>
      </trkpt>
      <trkpt lat="42.805065" lon="-7.6169467">
        <time>2022-07-12T10:34:42Z</time>
      </trkpt>
      <trkpt lat="42.805115" lon="-7.6169863">
        <time>2022-07-12T10:34:55Z</time>
      </trkpt>
      <trkpt lat="42.80516" lon="-7.6170197">
        <time>2022-07-12T10:35:01Z</time>
      </trkpt>
      <trkpt lat="42.805202" lon="-7.617055">
        <time>2022-07-12T10:35:09Z</time>
      </trkpt>
      <trkpt lat="42.805256" lon="-7.617088">
        <time>2022-07-12T10:35:15Z</time>
      </trkpt>
      <trkpt lat="42.8053" lon="-7.617116">
        <time>2022-07-12T10:35:21Z</time>
      </trkpt>
      <trkpt lat="42.805355" lon="-7.617154">
        <time>2022-07-12T10:35:30Z</time>
      </trkpt>
      <trkpt lat="42.8054" lon="-7.6171775">
        <time>2022-07-12T10:35:36Z</time>
      </trkpt>
      <trkpt lat="42.805454" lon="-7.6171947">
        <time>2022-07-12T10:35:43Z</time>
      </trkpt>
      <trkpt lat="42.805504" lon="-7.617205">
        <time>2022-07-12T10:35:49Z</time>
      </trkpt>
      <trkpt lat="42.805557" lon="-7.6172">
        <time>2022-07-12T10:35:57Z</time>
      </trkpt>
      <trkpt lat="42.805603" lon="-7.617158">
        <time>2022-07-12T10:36:04Z</time>
      </trkpt>
      <trkpt lat="42.805645" lon="-7.6171155">
        <time>2022-07-12T10:36:11Z</time>
      </trkpt>
      <trkpt lat="42.805687" lon="-7.6170654">
        <time>2022-07-12T10:36:21Z</time>
      </trkpt>
      <trkpt lat="42.80572" lon="-7.6170197">
        <time>2022-07-12T10:36:27Z</time>
      </trkpt>
      <trkpt lat="42.805767" lon="-7.616975">
        <time>2022-07-12T10:36:33Z</time>
      </trkpt>
      <trkpt lat="42.80582" lon="-7.616927">
        <time>2022-07-12T10:36:39Z</time>
      </trkpt>
      <trkpt lat="42.80586" lon="-7.616885">
        <time>2022-07-12T10:36:45Z</time>
      </trkpt>
      <trkpt lat="42.80591" lon="-7.6169114">
        <time>2022-07-12T10:36:53Z</time>
      </trkpt>
      <trkpt lat="42.805958" lon="-7.616943">
        <time>2022-07-12T10:37:00Z</time>
      </trkpt>
      <trkpt lat="42.806007" lon="-7.6169605">
        <time>2022-07-12T10:37:07Z</time>
      </trkpt>
      <trkpt lat="42.806065" lon="-7.616974">
        <time>2022-07-12T10:37:15Z</time>
      </trkpt>
      <trkpt lat="42.8061" lon="-7.617015">
        <time>2022-07-12T10:37:23Z</time>
      </trkpt>
      <trkpt lat="42.8061" lon="-7.6170907">
        <time>2022-07-12T10:37:29Z</time>
      </trkpt>
      <trkpt lat="42.806084" lon="-7.617153">
        <time>2022-07-12T10:37:34Z</time>
      </trkpt>
      <trkpt lat="42.80604" lon="-7.6171865">
        <time>2022-07-12T10:37:42Z</time>
      </trkpt>
      <trkpt lat="42.806" lon="-7.6171665">
        <time>2022-07-12T10:37:52Z</time>
      </trkpt>
      <trkpt lat="42.807465" lon="-7.6184735">
        <time>2022-07-13T04:40:14Z</time>
      </trkpt>
      <trkpt lat="42.807465" lon="-7.6184616">
        <time>2022-07-13T04:40:15Z</time>
      </trkpt>
      <trkpt lat="42.80746" lon="-7.618458">
        <time>2022-07-13T04:40:16Z</time>
      </trkpt>
      <trkpt lat="42.80746" lon="-7.6184497">
        <time>2022-07-13T04:40:17Z</time>
      </trkpt>
      <trkpt lat="42.80746" lon="-7.61844">
        <time>2022-07-13T04:40:18Z</time>
      </trkpt>
      <trkpt lat="42.80746" lon="-7.6184297">
        <time>2022-07-13T04:40:19Z</time>
      </trkpt>
      <trkpt lat="42.807457" lon="-7.618416">
        <time>2022-07-13T04:40:20Z</time>
      </trkpt>
      <trkpt lat="42.807453" lon="-7.618402">
        <time>2022-07-13T04:40:21Z</time>
      </trkpt>
      <trkpt lat="42.80745" lon="-7.6183887">
        <time>2022-07-13T04:40:22Z</time>
      </trkpt>
      <trkpt lat="42.807446" lon="-7.618373">
        <time>2022-07-13T04:40:23Z</time>
      </trkpt>
      <trkpt lat="42.807446" lon="-7.6183596">
        <time>2022-07-13T04:40:24Z</time>
      </trkpt>
      <trkpt lat="42.807438" lon="-7.6183467">
        <time>2022-07-13T04:40:25Z</time>
      </trkpt>
      <trkpt lat="42.807434" lon="-7.61833">
        <time>2022-07-13T04:40:26Z</time>
      </trkpt>
      <trkpt lat="42.807415" lon="-7.6182675">
        <time>2022-07-13T04:40:30Z</time>
      </trkpt>
      <trkpt lat="42.807392" lon="-7.618204">
        <time>2022-07-13T04:40:34Z</time>
      </trkpt>
      <trkpt lat="42.807377" lon="-7.618128">
        <time>2022-07-13T04:40:39Z</time>
      </trkpt>
      <trkpt lat="42.807354" lon="-7.618067">
        <time>2022-07-13T04:40:43Z</time>
      </trkpt>
      <trkpt lat="42.807323" lon="-7.6179905">
        <time>2022-07-13T04:40:48Z</time>
      </trkpt>
      <trkpt lat="42.807285" lon="-7.6179333">
        <time>2022-07-13T04:40:52Z</time>
      </trkpt>
      <trkpt lat="42.80725" lon="-7.617878">
        <time>2022-07-13T04:40:57Z</time>
      </trkpt>
      <trkpt lat="42.80721" lon="-7.617823">
        <time>2022-07-13T04:41:02Z</time>
      </trkpt>
      <trkpt lat="42.807167" lon="-7.6177683">
        <time>2022-07-13T04:41:06Z</time>
      </trkpt>
      <trkpt lat="42.807117" lon="-7.6177177">
        <time>2022-07-13T04:41:11Z</time>
      </trkpt>
      <trkpt lat="42.80707" lon="-7.617673">
        <time>2022-07-13T04:41:17Z</time>
      </trkpt>
      <trkpt lat="42.80703" lon="-7.617633">
        <time>2022-07-13T04:41:21Z</time>
      </trkpt>
      <trkpt lat="42.80695" lon="-7.6175666">
        <time>2022-07-13T04:41:25Z</time>
      </trkpt>
      <trkpt lat="42.806946" lon="-7.617564">
        <time>2022-07-13T04:41:26Z</time>
      </trkpt>
      <trkpt lat="42.806892" lon="-7.617505">
        <time>2022-07-13T04:41:34Z</time>
      </trkpt>
      <trkpt lat="42.80686" lon="-7.6174664">
        <time>2022-07-13T04:41:39Z</time>
      </trkpt>
      <trkpt lat="42.806816" lon="-7.617414">
        <time>2022-07-13T04:41:50Z</time>
      </trkpt>
      <trkpt lat="42.80677" lon="-7.6173534">
        <time>2022-07-13T04:41:55Z</time>
      </trkpt>
      <trkpt lat="42.806732" lon="-7.617291">
        <time>2022-07-13T04:42:00Z</time>
      </trkpt>
      <trkpt lat="42.806686" lon="-7.6172366">
        <time>2022-07-13T04:42:05Z</time>
      </trkpt>
      <trkpt lat="42.806644" lon="-7.6171713">
        <time>2022-07-13T04:42:10Z</time>
      </trkpt>
      <trkpt lat="42.80661" lon="-7.617118">
        <time>2022-07-13T04:42:14Z</time>
      </trkpt>
      <trkpt lat="42.80657" lon="-7.617074">
        <time>2022-07-13T04:42:18Z</time>
      </trkpt>
      <trkpt lat="42.806522" lon="-7.6170373">
        <time>2022-07-13T04:42:22Z</time>
      </trkpt>
      <trkpt lat="42.806465" lon="-7.617063">
        <time>2022-07-13T04:42:27Z</time>
      </trkpt>
      <trkpt lat="42.806423" lon="-7.6171308">
        <time>2022-07-13T04:42:32Z</time>
      </trkpt>
      <trkpt lat="42.806396" lon="-7.6171885">
        <time>2022-07-13T04:42:36Z</time>
      </trkpt>
      <trkpt lat="42.80637" lon="-7.617259">
        <time>2022-07-13T04:42:40Z</time>
      </trkpt>
      <trkpt lat="42.806347" lon="-7.617332">
        <time>2022-07-13T04:42:44Z</time>
      </trkpt>
      <trkpt lat="42.806324" lon="-7.617398">
        <time>2022-07-13T04:42:48Z</time>
      </trkpt>
      <trkpt lat="42.8063" lon="-7.6174564">
        <time>2022-07-13T04:42:52Z</time>
      </trkpt>
      <trkpt lat="42.80629" lon="-7.617543">
        <time>2022-07-13T04:42:57Z</time>
      </trkpt>
      <trkpt lat="42.80627" lon="-7.617618">
        <time>2022-07-13T04:43:01Z</time>
      </trkpt>
      <trkpt lat="42.806248" lon="-7.617692">
        <time>2022-07-13T04:43:05Z</time>
      </trkpt>
      <trkpt lat="42.80624" lon="-7.617759">
        <time>2022-07-13T04:43:08Z</time>
      </trkpt>
      <trkpt lat="42.80624" lon="-7.617849">
        <time>2022-07-13T04:43:12Z</time>
      </trkpt>
      <trkpt lat="42.80625" lon="-7.617936">
        <time>2022-07-13T04:43:16Z</time>
      </trkpt>
      <trkpt lat="42.806267" lon="-7.618013">
        <time>2022-07-13T04:43:20Z</time>
      </trkpt>
      <trkpt lat="42.806282" lon="-7.618093">
        <time>2022-07-13T04:43:24Z</time>
      </trkpt>
      <trkpt lat="42.806297" lon="-7.6181555">
        <time>2022-07-13T04:43:27Z</time>
      </trkpt>
      <trkpt lat="42.806324" lon="-7.618236">
        <time>2022-07-13T04:43:31Z</time>
      </trkpt>
      <trkpt lat="42.806347" lon="-7.6182976">
        <time>2022-07-13T04:43:34Z</time>
      </trkpt>
      <trkpt lat="42.806362" lon="-7.61838">
        <time>2022-07-13T04:43:38Z</time>
      </trkpt>
      <trkpt lat="42.80639" lon="-7.6184545">
        <time>2022-07-13T04:43:42Z</time>
      </trkpt>
      <trkpt lat="42.806423" lon="-7.618528">
        <time>2022-07-13T04:43:46Z</time>
      </trkpt>
      <trkpt lat="42.806446" lon="-7.618602">
        <time>2022-07-13T04:43:50Z</time>
      </trkpt>
      <trkpt lat="42.80646" lon="-7.618677">
        <time>2022-07-13T04:43:55Z</time>
      </trkpt>
      <trkpt lat="42.80647" lon="-7.6187477">
        <time>2022-07-13T04:44:00Z</time>
      </trkpt>
      <trkpt lat="42.806477" lon="-7.61883">
        <time>2022-07-13T04:44:05Z</time>
      </trkpt>
      <trkpt lat="42.80649" lon="-7.618902">
        <time>2022-07-13T04:44:09Z</time>
      </trkpt>
      <trkpt lat="42.80651" lon="-7.6189785">
        <time>2022-07-13T04:44:13Z</time>
      </trkpt>
      <trkpt lat="42.806522" lon="-7.6190543">
        <time>2022-07-13T04:44:17Z</time>
      </trkpt>
      <trkpt lat="42.806526" lon="-7.619125">
        <time>2022-07-13T04:44:21Z</time>
      </trkpt>
      <trkpt lat="42.80654" lon="-7.619202">
        <time>2022-07-13T04:44:26Z</time>
      </trkpt>
      <trkpt lat="42.80655" lon="-7.619275">
        <time>2022-07-13T04:44:31Z</time>
      </trkpt>
      <trkpt lat="42.806534" lon="-7.619353">
        <time>2022-07-13T04:44:36Z</time>
      </trkpt>
      <trkpt lat="42.806526" lon="-7.6194277">
        <time>2022-07-13T04:44:40Z</time>
      </trkpt>
      <trkpt lat="42.806526" lon="-7.6195183">
        <time>2022-07-13T04:44:44Z</time>
      </trkpt>
      <trkpt lat="42.80653" lon="-7.619599">
        <time>2022-07-13T04:44:48Z</time>
      </trkpt>
      <trkpt lat="42.80653" lon="-7.6196685">
        <time>2022-07-13T04:44:52Z</time>
      </trkpt>
      <trkpt lat="42.80653" lon="-7.619747">
        <time>2022-07-13T04:44:57Z</time>
      </trkpt>
      <trkpt lat="42.806526" lon="-7.6198106">
        <time>2022-07-13T04:45:01Z</time>
      </trkpt>
      <trkpt lat="42.806522" lon="-7.619893">
        <time>2022-07-13T04:45:06Z</time>
      </trkpt>
      <trkpt lat="42.80652" lon="-7.619962">
        <time>2022-07-13T04:45:10Z</time>
      </trkpt>
      <trkpt lat="42.806515" lon="-7.620028">
        <time>2022-07-13T04:45:14Z</time>
      </trkpt>
      <trkpt lat="42.806503" lon="-7.6201525">
        <time>2022-07-13T04:45:20Z</time>
      </trkpt>
      <trkpt lat="42.8065" lon="-7.6202426">
        <time>2022-07-13T04:45:25Z</time>
      </trkpt>
      <trkpt lat="42.80649" lon="-7.6203094">
        <time>2022-07-13T04:45:29Z</time>
      </trkpt>
      <trkpt lat="42.806484" lon="-7.620385">
        <time>2022-07-13T04:45:34Z</time>
      </trkpt>
      <trkpt lat="42.806477" lon="-7.6204715">
        <time>2022-07-13T04:45:39Z</time>
      </trkpt>
      <trkpt lat="42.806473" lon="-7.6205544">
        <time>2022-07-13T04:45:43Z</time>
      </trkpt>
      <trkpt lat="42.806477" lon="-7.620628">
        <time>2022-07-13T04:45:47Z</time>
      </trkpt>
      <trkpt lat="42.80647" lon="-7.620701">
        <time>2022-07-13T04:45:52Z</time>
      </trkpt>
      <trkpt lat="42.80647" lon="-7.620794">
        <time>2022-07-13T04:45:57Z</time>
      </trkpt>
      <trkpt lat="42.806465" lon="-7.620867">
        <time>2022-07-13T04:46:01Z</time>
      </trkpt>
      <trkpt lat="42.80642" lon="-7.6209016">
        <time>2022-07-13T04:46:05Z</time>
      </trkpt>
      <trkpt lat="42.806366" lon="-7.620898">
        <time>2022-07-13T04:46:09Z</time>
      </trkpt>
      <trkpt lat="42.80633" lon="-7.62085">
        <time>2022-07-13T04:46:14Z</time>
      </trkpt>
      <trkpt lat="42.806324" lon="-7.6207705">
        <time>2022-07-13T04:46:19Z</time>
      </trkpt>
      <trkpt lat="42.806316" lon="-7.6206884">
        <time>2022-07-13T04:46:23Z</time>
      </trkpt>
      <trkpt lat="42.806316" lon="-7.620605">
        <time>2022-07-13T04:46:27Z</time>
      </trkpt>
      <trkpt lat="42.806313" lon="-7.6205387">
        <time>2022-07-13T04:46:30Z</time>
      </trkpt>
      <trkpt lat="42.806316" lon="-7.620464">
        <time>2022-07-13T04:46:34Z</time>
      </trkpt>
      <trkpt lat="42.80632" lon="-7.6203923">
        <time>2022-07-13T04:46:38Z</time>
      </trkpt>
      <trkpt lat="42.80633" lon="-7.6203256">
        <time>2022-07-13T04:46:43Z</time>
      </trkpt>
      <trkpt lat="42.80633" lon="-7.620246">
        <time>2022-07-13T04:46:48Z</time>
      </trkpt>
      <trkpt lat="42.806328" lon="-7.6201644">
        <time>2022-07-13T04:46:51Z</time>
      </trkpt>
      <trkpt lat="42.806328" lon="-7.620074">
        <time>2022-07-13T04:46:57Z</time>
      </trkpt>
      <trkpt lat="42.806335" lon="-7.619997">
        <time>2022-07-13T04:47:02Z</time>
      </trkpt>
      <trkpt lat="42.806328" lon="-7.6198983">
        <time>2022-07-13T04:47:07Z</time>
      </trkpt>
      <trkpt lat="42.806316" lon="-7.6198363">
        <time>2022-07-13T04:47:10Z</time>
      </trkpt>
      <trkpt lat="42.806293" lon="-7.6197543">
        <time>2022-07-13T04:47:14Z</time>
      </trkpt>
      <trkpt lat="42.806274" lon="-7.619683">
        <time>2022-07-13T04:47:18Z</time>
      </trkpt>
      <trkpt lat="42.80625" lon="-7.61961">
        <time>2022-07-13T04:47:22Z</time>
      </trkpt>
      <trkpt lat="42.806225" lon="-7.6195354">
        <time>2022-07-13T04:47:27Z</time>
      </trkpt>
      <trkpt lat="42.806202" lon="-7.619465">
        <time>2022-07-13T04:47:31Z</time>
      </trkpt>
      <trkpt lat="42.806183" lon="-7.6193976">
        <time>2022-07-13T04:47:35Z</time>
      </trkpt>
      <trkpt lat="42.806164" lon="-7.619342">
        <time>2022-07-13T04:47:38Z</time>
      </trkpt>
      <trkpt lat="42.80613" lon="-7.6192565">
        <time>2022-07-13T04:47:44Z</time>
      </trkpt>
      <trkpt lat="42.80609" lon="-7.6191864">
        <time>2022-07-13T04:47:49Z</time>
      </trkpt>
      <trkpt lat="42.806046" lon="-7.6191397">
        <time>2022-07-13T04:47:53Z</time>
      </trkpt>
      <trkpt lat="42.805996" lon="-7.619095">
        <time>2022-07-13T04:47:57Z</time>
      </trkpt>
      <trkpt lat="42.805943" lon="-7.619056">
        <time>2022-07-13T04:48:01Z</time>
      </trkpt>
      <trkpt lat="42.805893" lon="-7.6190248">
        <time>2022-07-13T04:48:05Z</time>
      </trkpt>
      <trkpt lat="42.805847" lon="-7.6190004">
        <time>2022-07-13T04:48:09Z</time>
      </trkpt>
      <trkpt lat="42.805786" lon="-7.618979">
        <time>2022-07-13T04:48:14Z</time>
      </trkpt>
      <trkpt lat="42.805737" lon="-7.6190004">
        <time>2022-07-13T04:48:18Z</time>
      </trkpt>
      <trkpt lat="42.805695" lon="-7.6190605">
        <time>2022-07-13T04:48:23Z</time>
      </trkpt>
      <trkpt lat="42.805668" lon="-7.619133">
        <time>2022-07-13T04:48:27Z</time>
      </trkpt>
      <trkpt lat="42.80564" lon="-7.6192045">
        <time>2022-07-13T04:48:31Z</time>
      </trkpt>
      <trkpt lat="42.80561" lon="-7.6192837">
        <time>2022-07-13T04:48:35Z</time>
      </trkpt>
      <trkpt lat="42.805576" lon="-7.619353">
        <time>2022-07-13T04:48:41Z</time>
      </trkpt>
      <trkpt lat="42.805553" lon="-7.619419">
        <time>2022-07-13T04:48:45Z</time>
      </trkpt>
      <trkpt lat="42.805527" lon="-7.6194906">
        <time>2022-07-13T04:48:50Z</time>
      </trkpt>
      <trkpt lat="42.805496" lon="-7.619577">
        <time>2022-07-13T04:48:55Z</time>
      </trkpt>
      <trkpt lat="42.80547" lon="-7.6196446">
        <time>2022-07-13T04:48:59Z</time>
      </trkpt>
      <trkpt lat="42.805435" lon="-7.61973">
        <time>2022-07-13T04:49:03Z</time>
      </trkpt>
      <trkpt lat="42.80542" lon="-7.619769">
        <time>2022-07-13T04:49:07Z</time>
      </trkpt>
      <trkpt lat="42.80539" lon="-7.619838">
        <time>2022-07-13T04:49:11Z</time>
      </trkpt>
      <trkpt lat="42.80536" lon="-7.6199117">
        <time>2022-07-13T04:49:16Z</time>
      </trkpt>
      <trkpt lat="42.805332" lon="-7.619977">
        <time>2022-07-13T04:49:21Z</time>
      </trkpt>
      <trkpt lat="42.80526" lon="-7.61997">
        <time>2022-07-13T04:49:37Z</time>
      </trkpt>
      <trkpt lat="42.805225" lon="-7.619899">
        <time>2022-07-13T04:49:43Z</time>
      </trkpt>
      <trkpt lat="42.805214" lon="-7.6198273">
        <time>2022-07-13T04:49:48Z</time>
      </trkpt>
      <trkpt lat="42.805164" lon="-7.6197896">
        <time>2022-07-13T04:49:54Z</time>
      </trkpt>
      <trkpt lat="42.80511" lon="-7.6197596">
        <time>2022-07-13T04:49:59Z</time>
      </trkpt>
      <trkpt lat="42.80505" lon="-7.6197333">
        <time>2022-07-13T04:50:04Z</time>
      </trkpt>
      <trkpt lat="42.804993" lon="-7.619721">
        <time>2022-07-13T04:50:09Z</time>
      </trkpt>
      <trkpt lat="42.804935" lon="-7.619691">
        <time>2022-07-13T04:50:14Z</time>
      </trkpt>
      <trkpt lat="42.804886" lon="-7.6196737">
        <time>2022-07-13T04:50:18Z</time>
      </trkpt>
      <trkpt lat="42.804825" lon="-7.6196704">
        <time>2022-07-13T04:50:24Z</time>
      </trkpt>
      <trkpt lat="42.80477" lon="-7.619653">
        <time>2022-07-13T04:50:28Z</time>
      </trkpt>
      <trkpt lat="42.804726" lon="-7.61963">
        <time>2022-07-13T04:50:33Z</time>
      </trkpt>
      <trkpt lat="42.80467" lon="-7.619597">
        <time>2022-07-13T04:50:38Z</time>
      </trkpt>
      <trkpt lat="42.80462" lon="-7.6195617">
        <time>2022-07-13T04:50:42Z</time>
      </trkpt>
      <trkpt lat="42.804573" lon="-7.6195335">
        <time>2022-07-13T04:50:46Z</time>
      </trkpt>
      <trkpt lat="42.804516" lon="-7.6195035">
        <time>2022-07-13T04:50:51Z</time>
      </trkpt>
      <trkpt lat="42.804478" lon="-7.6194615">
        <time>2022-07-13T04:50:55Z</time>
      </trkpt>
      <trkpt lat="42.80443" lon="-7.6194005">
        <time>2022-07-13T04:51:01Z</time>
      </trkpt>
      <trkpt lat="42.804382" lon="-7.619348">
        <time>2022-07-13T04:51:05Z</time>
      </trkpt>
      <trkpt lat="42.804344" lon="-7.6192966">
        <time>2022-07-13T04:51:09Z</time>
      </trkpt>
      <trkpt lat="42.804302" lon="-7.6192474">
        <time>2022-07-13T04:51:13Z</time>
      </trkpt>
      <trkpt lat="42.804264" lon="-7.619206">
        <time>2022-07-13T04:51:17Z</time>
      </trkpt>
      <trkpt lat="42.804214" lon="-7.6191545">
        <time>2022-07-13T04:51:22Z</time>
      </trkpt>
      <trkpt lat="42.80417" lon="-7.6191206">
        <time>2022-07-13T04:51:26Z</time>
      </trkpt>
      <trkpt lat="42.80411" lon="-7.619102">
        <time>2022-07-13T04:51:31Z</time>
      </trkpt>
      <trkpt lat="42.80405" lon="-7.6190925">
        <time>2022-07-13T04:51:36Z</time>
      </trkpt>
      <trkpt lat="42.80399" lon="-7.6191006">
        <time>2022-07-13T04:51:41Z</time>
      </trkpt>
      <trkpt lat="42.803936" lon="-7.619115">
        <time>2022-07-13T04:51:45Z</time>
      </trkpt>
      <trkpt lat="42.80388" lon="-7.619139">
        <time>2022-07-13T04:51:50Z</time>
      </trkpt>
      <trkpt lat="42.803833" lon="-7.619178">
        <time>2022-07-13T04:51:54Z</time>
      </trkpt>
      <trkpt lat="42.803795" lon="-7.61922">
        <time>2022-07-13T04:51:58Z</time>
      </trkpt>
      <trkpt lat="42.80374" lon="-7.619272">
        <time>2022-07-13T04:52:03Z</time>
      </trkpt>
      <trkpt lat="42.803703" lon="-7.6193237">
        <time>2022-07-13T04:52:07Z</time>
      </trkpt>
      <trkpt lat="42.80366" lon="-7.6193676">
        <time>2022-07-13T04:52:11Z</time>
      </trkpt>
      <trkpt lat="42.80362" lon="-7.6194296">
        <time>2022-07-13T04:52:16Z</time>
      </trkpt>
      <trkpt lat="42.80358" lon="-7.619488">
        <time>2022-07-13T04:52:20Z</time>
      </trkpt>
      <trkpt lat="42.80355" lon="-7.6195483">
        <time>2022-07-13T04:52:24Z</time>
      </trkpt>
      <trkpt lat="42.80351" lon="-7.6196036">
        <time>2022-07-13T04:52:29Z</time>
      </trkpt>
      <trkpt lat="42.803467" lon="-7.619676">
        <time>2022-07-13T04:52:34Z</time>
      </trkpt>
      <trkpt lat="42.803448" lon="-7.619747">
        <time>2022-07-13T04:52:39Z</time>
      </trkpt>
      <trkpt lat="42.80341" lon="-7.619817">
        <time>2022-07-13T04:52:44Z</time>
      </trkpt>
      <trkpt lat="42.80338" lon="-7.619874">
        <time>2022-07-13T04:52:48Z</time>
      </trkpt>
      <trkpt lat="42.803345" lon="-7.619929">
        <time>2022-07-13T04:52:53Z</time>
      </trkpt>
      <trkpt lat="42.803307" lon="-7.619984">
        <time>2022-07-13T04:52:57Z</time>
      </trkpt>
      <trkpt lat="42.803276" lon="-7.6200337">
        <time>2022-07-13T04:53:01Z</time>
      </trkpt>
      <trkpt lat="42.803234" lon="-7.620095">
        <time>2022-07-13T04:53:06Z</time>
      </trkpt>
      <trkpt lat="42.803204" lon="-7.6201515">
        <time>2022-07-13T04:53:10Z</time>
      </trkpt>
      <trkpt lat="42.80316" lon="-7.6202087">
        <time>2022-07-13T04:53:15Z</time>
      </trkpt>
      <trkpt lat="42.80313" lon="-7.6202655">
        <time>2022-07-13T04:53:19Z</time>
      </trkpt>
      <trkpt lat="42.803093" lon="-7.620329">
        <time>2022-07-13T04:53:24Z</time>
      </trkpt>
      <trkpt lat="42.80306" lon="-7.6203923">
        <time>2022-07-13T04:53:29Z</time>
      </trkpt>
      <trkpt lat="42.80302" lon="-7.620443">
        <time>2022-07-13T04:53:34Z</time>
      </trkpt>
      <trkpt lat="42.80298" lon="-7.6205006">
        <time>2022-07-13T04:53:39Z</time>
      </trkpt>
      <trkpt lat="42.802933" lon="-7.620549">
        <time>2022-07-13T04:53:44Z</time>
      </trkpt>
      <trkpt lat="42.802887" lon="-7.620613">
        <time>2022-07-13T04:53:49Z</time>
      </trkpt>
      <trkpt lat="42.80284" lon="-7.6206713">
        <time>2022-07-13T04:53:54Z</time>
      </trkpt>
      <trkpt lat="42.802803" lon="-7.620734">
        <time>2022-07-13T04:53:59Z</time>
      </trkpt>
      <trkpt lat="42.80276" lon="-7.620792">
        <time>2022-07-13T04:54:04Z</time>
      </trkpt>
      <trkpt lat="42.80273" lon="-7.6208453">
        <time>2022-07-13T04:54:08Z</time>
      </trkpt>
      <trkpt lat="42.802696" lon="-7.6209035">
        <time>2022-07-13T04:54:13Z</time>
      </trkpt>
      <trkpt lat="42.80266" lon="-7.6209717">
        <time>2022-07-13T04:54:18Z</time>
      </trkpt>
      <trkpt lat="42.802624" lon="-7.621029">
        <time>2022-07-13T04:54:23Z</time>
      </trkpt>
      <trkpt lat="42.80259" lon="-7.6210995">
        <time>2022-07-13T04:54:28Z</time>
      </trkpt>
      <trkpt lat="42.802555" lon="-7.6211586">
        <time>2022-07-13T04:54:33Z</time>
      </trkpt>
      <trkpt lat="42.802517" lon="-7.621211">
        <time>2022-07-13T04:54:37Z</time>
      </trkpt>
      <trkpt lat="42.802483" lon="-7.621272">
        <time>2022-07-13T04:54:41Z</time>
      </trkpt>
      <trkpt lat="42.80245" lon="-7.6213145">
        <time>2022-07-13T04:54:45Z</time>
      </trkpt>
      <trkpt lat="42.8024" lon="-7.621359">
        <time>2022-07-13T04:54:50Z</time>
      </trkpt>
      <trkpt lat="42.80236" lon="-7.6214123">
        <time>2022-07-13T04:54:54Z</time>
      </trkpt>
      <trkpt lat="42.80232" lon="-7.621467">
        <time>2022-07-13T04:54:59Z</time>
      </trkpt>
      <trkpt lat="42.802277" lon="-7.6215115">
        <time>2022-07-13T04:55:03Z</time>
      </trkpt>
      <trkpt lat="42.802227" lon="-7.621562">
        <time>2022-07-13T04:55:08Z</time>
      </trkpt>
      <trkpt lat="42.80219" lon="-7.621607">
        <time>2022-07-13T04:55:12Z</time>
      </trkpt>
      <trkpt lat="42.802143" lon="-7.6216555">
        <time>2022-07-13T04:55:17Z</time>
      </trkpt>
      <trkpt lat="42.80211" lon="-7.6216965">
        <time>2022-07-13T04:55:21Z</time>
      </trkpt>
      <trkpt lat="42.80206" lon="-7.6217356">
        <time>2022-07-13T04:55:26Z</time>
      </trkpt>
      <trkpt lat="42.802013" lon="-7.6217723">
        <time>2022-07-13T04:55:30Z</time>
      </trkpt>
      <trkpt lat="42.801956" lon="-7.621806">
        <time>2022-07-13T04:55:35Z</time>
      </trkpt>
      <trkpt lat="42.801903" lon="-7.6218514">
        <time>2022-07-13T04:55:40Z</time>
      </trkpt>
      <trkpt lat="42.801853" lon="-7.621895">
        <time>2022-07-13T04:55:45Z</time>
      </trkpt>
      <trkpt lat="42.801807" lon="-7.621939">
        <time>2022-07-13T04:55:49Z</time>
      </trkpt>
      <trkpt lat="42.801765" lon="-7.6219716">
        <time>2022-07-13T04:55:53Z</time>
      </trkpt>
      <trkpt lat="42.801716" lon="-7.6220264">
        <time>2022-07-13T04:55:58Z</time>
      </trkpt>
      <trkpt lat="42.801674" lon="-7.62207">
        <time>2022-07-13T04:56:02Z</time>
      </trkpt>
      <trkpt lat="42.80163" lon="-7.62212">
        <time>2022-07-13T04:56:06Z</time>
      </trkpt>
      <trkpt lat="42.801582" lon="-7.6221585">
        <time>2022-07-13T04:56:10Z</time>
      </trkpt>
      <trkpt lat="42.801537" lon="-7.6222034">
        <time>2022-07-13T04:56:15Z</time>
      </trkpt>
      <trkpt lat="42.8015" lon="-7.622244">
        <time>2022-07-13T04:56:19Z</time>
      </trkpt>
      <trkpt lat="42.801464" lon="-7.6223145">
        <time>2022-07-13T04:56:24Z</time>
      </trkpt>
      <trkpt lat="42.801437" lon="-7.6223793">
        <time>2022-07-13T04:56:29Z</time>
      </trkpt>
      <trkpt lat="42.801414" lon="-7.6224484">
        <time>2022-07-13T04:56:34Z</time>
      </trkpt>
      <trkpt lat="42.80138" lon="-7.622517">
        <time>2022-07-13T04:56:39Z</time>
      </trkpt>
      <trkpt lat="42.80135" lon="-7.622577">
        <time>2022-07-13T04:56:43Z</time>
      </trkpt>
      <trkpt lat="42.80131" lon="-7.622629">
        <time>2022-07-13T04:56:47Z</time>
      </trkpt>
      <trkpt lat="42.801277" lon="-7.622684">
        <time>2022-07-13T04:56:51Z</time>
      </trkpt>
      <trkpt lat="42.80123" lon="-7.6227503">
        <time>2022-07-13T04:56:56Z</time>
      </trkpt>
      <trkpt lat="42.801197" lon="-7.622799">
        <time>2022-07-13T04:57:00Z</time>
      </trkpt>
      <trkpt lat="42.80116" lon="-7.6228557">
        <time>2022-07-13T04:57:04Z</time>
      </trkpt>
      <trkpt lat="42.80114" lon="-7.6229167">
        <time>2022-07-13T04:57:08Z</time>
      </trkpt>
      <trkpt lat="42.80112" lon="-7.6229954">
        <time>2022-07-13T04:57:14Z</time>
      </trkpt>
      <trkpt lat="42.8011" lon="-7.6230726">
        <time>2022-07-13T04:57:19Z</time>
      </trkpt>
      <trkpt lat="42.80109" lon="-7.6231413">
        <time>2022-07-13T04:57:24Z</time>
      </trkpt>
      <trkpt lat="42.80106" lon="-7.6231976">
        <time>2022-07-13T04:57:29Z</time>
      </trkpt>
      <trkpt lat="42.80102" lon="-7.623246">
        <time>2022-07-13T04:57:34Z</time>
      </trkpt>
      <trkpt lat="42.800983" lon="-7.623299">
        <time>2022-07-13T04:57:39Z</time>
      </trkpt>
      <trkpt lat="42.800953" lon="-7.623363">
        <time>2022-07-13T04:57:44Z</time>
      </trkpt>
      <trkpt lat="42.80092" lon="-7.6234136">
        <time>2022-07-13T04:57:48Z</time>
      </trkpt>
      <trkpt lat="42.80089" lon="-7.6234765">
        <time>2022-07-13T04:57:53Z</time>
      </trkpt>
      <trkpt lat="42.800865" lon="-7.6235414">
        <time>2022-07-13T04:57:58Z</time>
      </trkpt>
      <trkpt lat="42.800842" lon="-7.623612">
        <time>2022-07-13T04:58:03Z</time>
      </trkpt>
      <trkpt lat="42.80082" lon="-7.6236844">
        <time>2022-07-13T04:58:08Z</time>
      </trkpt>
      <trkpt lat="42.800793" lon="-7.623738">
        <time>2022-07-13T04:58:12Z</time>
      </trkpt>
      <trkpt lat="42.800766" lon="-7.6238055">
        <time>2022-07-13T04:58:17Z</time>
      </trkpt>
      <trkpt lat="42.800743" lon="-7.6238775">
        <time>2022-07-13T04:58:22Z</time>
      </trkpt>
      <trkpt lat="42.800728" lon="-7.6239476">
        <time>2022-07-13T04:58:27Z</time>
      </trkpt>
      <trkpt lat="42.800705" lon="-7.624012">
        <time>2022-07-13T04:58:32Z</time>
      </trkpt>
      <trkpt lat="42.80068" lon="-7.6240764">
        <time>2022-07-13T04:58:37Z</time>
      </trkpt>
      <trkpt lat="42.800655" lon="-7.6241345">
        <time>2022-07-13T04:58:42Z</time>
      </trkpt>
      <trkpt lat="42.80062" lon="-7.624198">
        <time>2022-07-13T04:58:48Z</time>
      </trkpt>
      <trkpt lat="42.80059" lon="-7.6242514">
        <time>2022-07-13T04:58:53Z</time>
      </trkpt>
      <trkpt lat="42.800568" lon="-7.6243157">
        <time>2022-07-13T04:58:58Z</time>
      </trkpt>
      <trkpt lat="42.800545" lon="-7.6243844">
        <time>2022-07-13T04:59:03Z</time>
      </trkpt>
      <trkpt lat="42.800518" lon="-7.6244545">
        <time>2022-07-13T04:59:08Z</time>
      </trkpt>
      <trkpt lat="42.800484" lon="-7.6245084">
        <time>2022-07-13T04:59:13Z</time>
      </trkpt>
      <trkpt lat="42.80045" lon="-7.624565">
        <time>2022-07-13T04:59:18Z</time>
      </trkpt>
      <trkpt lat="42.800407" lon="-7.6246114">
        <time>2022-07-13T04:59:23Z</time>
      </trkpt>
      <trkpt lat="42.800365" lon="-7.624658">
        <time>2022-07-13T04:59:28Z</time>
      </trkpt>
      <trkpt lat="42.800327" lon="-7.6246996">
        <time>2022-07-13T04:59:33Z</time>
      </trkpt>
      <trkpt lat="42.800278" lon="-7.6247454">
        <time>2022-07-13T04:59:39Z</time>
      </trkpt>
      <trkpt lat="42.800232" lon="-7.62479">
        <time>2022-07-13T04:59:45Z</time>
      </trkpt>
      <trkpt lat="42.800194" lon="-7.624847">
        <time>2022-07-13T04:59:51Z</time>
      </trkpt>
      <trkpt lat="42.800156" lon="-7.6248975">
        <time>2022-07-13T04:59:56Z</time>
      </trkpt>
      <trkpt lat="42.800102" lon="-7.624921">
        <time>2022-07-13T05:00:01Z</time>
      </trkpt>
      <trkpt lat="42.800053" lon="-7.6249423">
        <time>2022-07-13T05:00:06Z</time>
      </trkpt>
      <trkpt lat="42.799995" lon="-7.6249657">
        <time>2022-07-13T05:00:12Z</time>
      </trkpt>
      <trkpt lat="42.799946" lon="-7.624992">
        <time>2022-07-13T05:00:18Z</time>
      </trkpt>
      <trkpt lat="42.7999" lon="-7.6250305">
        <time>2022-07-13T05:00:23Z</time>
      </trkpt>
      <trkpt lat="42.799862" lon="-7.625088">
        <time>2022-07-13T05:00:28Z</time>
      </trkpt>
      <trkpt lat="42.79984" lon="-7.625158">
        <time>2022-07-13T05:00:33Z</time>
      </trkpt>
      <trkpt lat="42.799843" lon="-7.6252303">
        <time>2022-07-13T05:00:38Z</time>
      </trkpt>
      <trkpt lat="42.79985" lon="-7.625305">
        <time>2022-07-13T05:00:43Z</time>
      </trkpt>
      <trkpt lat="42.799862" lon="-7.6253653">
        <time>2022-07-13T05:00:48Z</time>
      </trkpt>
      <trkpt lat="42.79988" lon="-7.625435">
        <time>2022-07-13T05:00:54Z</time>
      </trkpt>
      <trkpt lat="42.79987" lon="-7.625514">
        <time>2022-07-13T05:01:00Z</time>
      </trkpt>
      <trkpt lat="42.799862" lon="-7.625587">
        <time>2022-07-13T05:01:05Z</time>
      </trkpt>
      <trkpt lat="42.799854" lon="-7.625661">
        <time>2022-07-13T05:01:10Z</time>
      </trkpt>
      <trkpt lat="42.79985" lon="-7.625729">
        <time>2022-07-13T05:01:15Z</time>
      </trkpt>
      <trkpt lat="42.799843" lon="-7.625796">
        <time>2022-07-13T05:01:20Z</time>
      </trkpt>
      <trkpt lat="42.79983" lon="-7.6258683">
        <time>2022-07-13T05:01:25Z</time>
      </trkpt>
      <trkpt lat="42.79982" lon="-7.62594">
        <time>2022-07-13T05:01:30Z</time>
      </trkpt>
      <trkpt lat="42.799805" lon="-7.6260133">
        <time>2022-07-13T05:01:35Z</time>
      </trkpt>
      <trkpt lat="42.799793" lon="-7.626088">
        <time>2022-07-13T05:01:40Z</time>
      </trkpt>
      <trkpt lat="42.799778" lon="-7.6261683">
        <time>2022-07-13T05:01:45Z</time>
      </trkpt>
      <trkpt lat="42.799767" lon="-7.626247">
        <time>2022-07-13T05:01:50Z</time>
      </trkpt>
      <trkpt lat="42.799763" lon="-7.626333">
        <time>2022-07-13T05:01:55Z</time>
      </trkpt>
      <trkpt lat="42.79976" lon="-7.6264052">
        <time>2022-07-13T05:01:59Z</time>
      </trkpt>
      <trkpt lat="42.799763" lon="-7.626473">
        <time>2022-07-13T05:02:03Z</time>
      </trkpt>
      <trkpt lat="42.799793" lon="-7.6265345">
        <time>2022-07-13T05:02:07Z</time>
      </trkpt>
      <trkpt lat="42.799828" lon="-7.626595">
        <time>2022-07-13T05:02:12Z</time>
      </trkpt>
      <trkpt lat="42.79987" lon="-7.6266546">
        <time>2022-07-13T05:02:17Z</time>
      </trkpt>
      <trkpt lat="42.799915" lon="-7.6266975">
        <time>2022-07-13T05:02:21Z</time>
      </trkpt>
      <trkpt lat="42.799965" lon="-7.626733">
        <time>2022-07-13T05:02:26Z</time>
      </trkpt>
      <trkpt lat="42.800014" lon="-7.6267724">
        <time>2022-07-13T05:02:31Z</time>
      </trkpt>
      <trkpt lat="42.800068" lon="-7.626802">
        <time>2022-07-13T05:02:36Z</time>
      </trkpt>
      <trkpt lat="42.80012" lon="-7.6268344">
        <time>2022-07-13T05:02:42Z</time>
      </trkpt>
      <trkpt lat="42.800167" lon="-7.6268578">
        <time>2022-07-13T05:02:47Z</time>
      </trkpt>
      <trkpt lat="42.800217" lon="-7.6268773">
        <time>2022-07-13T05:02:52Z</time>
      </trkpt>
      <trkpt lat="42.80027" lon="-7.6269035">
        <time>2022-07-13T05:02:57Z</time>
      </trkpt>
      <trkpt lat="42.800316" lon="-7.6269336">
        <time>2022-07-13T05:03:02Z</time>
      </trkpt>
      <trkpt lat="42.800354" lon="-7.6269813">
        <time>2022-07-13T05:03:07Z</time>
      </trkpt>
      <trkpt lat="42.800392" lon="-7.6270533">
        <time>2022-07-13T05:03:13Z</time>
      </trkpt>
      <trkpt lat="42.80043" lon="-7.6271076">
        <time>2022-07-13T05:03:18Z</time>
      </trkpt>
      <trkpt lat="42.80047" lon="-7.6271544">
        <time>2022-07-13T05:03:23Z</time>
      </trkpt>
      <trkpt lat="42.800507" lon="-7.62721">
        <time>2022-07-13T05:03:28Z</time>
      </trkpt>
      <trkpt lat="42.800537" lon="-7.627274">
        <time>2022-07-13T05:03:33Z</time>
      </trkpt>
      <trkpt lat="42.80055" lon="-7.627349">
        <time>2022-07-13T05:03:38Z</time>
      </trkpt>
      <trkpt lat="42.800556" lon="-7.627433">
        <time>2022-07-13T05:03:44Z</time>
      </trkpt>
      <trkpt lat="42.80058" lon="-7.6275034">
        <time>2022-07-13T05:03:50Z</time>
      </trkpt>
      <trkpt lat="42.800606" lon="-7.6275897">
        <time>2022-07-13T05:03:57Z</time>
      </trkpt>
      <trkpt lat="42.800655" lon="-7.627668">
        <time>2022-07-13T05:04:03Z</time>
      </trkpt>
      <trkpt lat="42.8007" lon="-7.6277237">
        <time>2022-07-13T05:04:08Z</time>
      </trkpt>
      <trkpt lat="42.800743" lon="-7.627779">
        <time>2022-07-13T05:04:13Z</time>
      </trkpt>
      <trkpt lat="42.800785" lon="-7.6278296">
        <time>2022-07-13T05:04:18Z</time>
      </trkpt>
      <trkpt lat="42.800827" lon="-7.627897">
        <time>2022-07-13T05:04:23Z</time>
      </trkpt>
      <trkpt lat="42.800865" lon="-7.627965">
        <time>2022-07-13T05:04:28Z</time>
      </trkpt>
      <trkpt lat="42.800896" lon="-7.6280236">
        <time>2022-07-13T05:04:33Z</time>
      </trkpt>
      <trkpt lat="42.80093" lon="-7.6280866">
        <time>2022-07-13T05:04:38Z</time>
      </trkpt>
      <trkpt lat="42.800957" lon="-7.628147">
        <time>2022-07-13T05:04:42Z</time>
      </trkpt>
      <trkpt lat="42.80099" lon="-7.628205">
        <time>2022-07-13T05:04:46Z</time>
      </trkpt>
      <trkpt lat="42.801025" lon="-7.628255">
        <time>2022-07-13T05:04:51Z</time>
      </trkpt>
      <trkpt lat="42.801075" lon="-7.6283054">
        <time>2022-07-13T05:04:56Z</time>
      </trkpt>
      <trkpt lat="42.80112" lon="-7.628355">
        <time>2022-07-13T05:05:01Z</time>
      </trkpt>
      <trkpt lat="42.80115" lon="-7.628405">
        <time>2022-07-13T05:05:05Z</time>
      </trkpt>
      <trkpt lat="42.801155" lon="-7.628534">
        <time>2022-07-13T05:05:14Z</time>
      </trkpt>
      <trkpt lat="42.801144" lon="-7.6286035">
        <time>2022-07-13T05:05:18Z</time>
      </trkpt>
      <trkpt lat="42.801144" lon="-7.628687">
        <time>2022-07-13T05:05:23Z</time>
      </trkpt>
      <trkpt lat="42.80115" lon="-7.6287622">
        <time>2022-07-13T05:05:27Z</time>
      </trkpt>
      <trkpt lat="42.801155" lon="-7.6288347">
        <time>2022-07-13T05:05:31Z</time>
      </trkpt>
      <trkpt lat="42.80116" lon="-7.6289196">
        <time>2022-07-13T05:05:36Z</time>
      </trkpt>
      <trkpt lat="42.801167" lon="-7.6289825">
        <time>2022-07-13T05:05:41Z</time>
      </trkpt>
      <trkpt lat="42.80118" lon="-7.629062">
        <time>2022-07-13T05:05:50Z</time>
      </trkpt>
      <trkpt lat="42.80119" lon="-7.6291385">
        <time>2022-07-13T05:05:55Z</time>
      </trkpt>
      <trkpt lat="42.801205" lon="-7.629216">
        <time>2022-07-13T05:06:00Z</time>
      </trkpt>
      <trkpt lat="42.801235" lon="-7.629288">
        <time>2022-07-13T05:06:04Z</time>
      </trkpt>
      <trkpt lat="42.801247" lon="-7.629364">
        <time>2022-07-13T05:06:07Z</time>
      </trkpt>
      <trkpt lat="42.80126" lon="-7.629432">
        <time>2022-07-13T05:06:10Z</time>
      </trkpt>
      <trkpt lat="42.801277" lon="-7.629494">
        <time>2022-07-13T05:06:13Z</time>
      </trkpt>
      <trkpt lat="42.80131" lon="-7.6295633">
        <time>2022-07-13T05:06:17Z</time>
      </trkpt>
      <trkpt lat="42.801346" lon="-7.629616">
        <time>2022-07-13T05:06:21Z</time>
      </trkpt>
      <trkpt lat="42.80136" lon="-7.629685">
        <time>2022-07-13T05:06:26Z</time>
      </trkpt>
      <trkpt lat="42.80136" lon="-7.629763">
        <time>2022-07-13T05:06:31Z</time>
      </trkpt>
      <trkpt lat="42.80137" lon="-7.6298347">
        <time>2022-07-13T05:06:36Z</time>
      </trkpt>
      <trkpt lat="42.801388" lon="-7.6298943">
        <time>2022-07-13T05:06:40Z</time>
      </trkpt>
      <trkpt lat="42.80141" lon="-7.6299644">
        <time>2022-07-13T05:06:45Z</time>
      </trkpt>
      <trkpt lat="42.80143" lon="-7.6300282">
        <time>2022-07-13T05:06:50Z</time>
      </trkpt>
      <trkpt lat="42.801453" lon="-7.6301026">
        <time>2022-07-13T05:06:55Z</time>
      </trkpt>
      <trkpt lat="42.801464" lon="-7.6301837">
        <time>2022-07-13T05:07:00Z</time>
      </trkpt>
      <trkpt lat="42.8015" lon="-7.6302485">
        <time>2022-07-13T05:07:04Z</time>
      </trkpt>
      <trkpt lat="42.801525" lon="-7.6303077">
        <time>2022-07-13T05:07:08Z</time>
      </trkpt>
      <trkpt lat="42.801556" lon="-7.6303744">
        <time>2022-07-13T05:07:12Z</time>
      </trkpt>
      <trkpt lat="42.801594" lon="-7.6304345">
        <time>2022-07-13T05:07:16Z</time>
      </trkpt>
      <trkpt lat="42.801624" lon="-7.630494">
        <time>2022-07-13T05:07:20Z</time>
      </trkpt>
      <trkpt lat="42.801655" lon="-7.6305556">
        <time>2022-07-13T05:07:25Z</time>
      </trkpt>
      <trkpt lat="42.80168" lon="-7.6306276">
        <time>2022-07-13T05:07:31Z</time>
      </trkpt>
      <trkpt lat="42.80171" lon="-7.6306825">
        <time>2022-07-13T05:07:35Z</time>
      </trkpt>
      <trkpt lat="42.801743" lon="-7.6307373">
        <time>2022-07-13T05:07:39Z</time>
      </trkpt>
      <trkpt lat="42.801773" lon="-7.6308084">
        <time>2022-07-13T05:07:44Z</time>
      </trkpt>
      <trkpt lat="42.801792" lon="-7.630862">
        <time>2022-07-13T05:07:48Z</time>
      </trkpt>
      <trkpt lat="42.801815" lon="-7.6309333">
        <time>2022-07-13T05:07:54Z</time>
      </trkpt>
      <trkpt lat="42.80183" lon="-7.6310034">
        <time>2022-07-13T05:07:59Z</time>
      </trkpt>
      <trkpt lat="42.80186" lon="-7.631081">
        <time>2022-07-13T05:08:05Z</time>
      </trkpt>
      <trkpt lat="42.801895" lon="-7.6311464">
        <time>2022-07-13T05:08:09Z</time>
      </trkpt>
      <trkpt lat="42.801926" lon="-7.631203">
        <time>2022-07-13T05:08:13Z</time>
      </trkpt>
      <trkpt lat="42.801952" lon="-7.6312556">
        <time>2022-07-13T05:08:17Z</time>
      </trkpt>
      <trkpt lat="42.80198" lon="-7.631321">
        <time>2022-07-13T05:08:22Z</time>
      </trkpt>
      <trkpt lat="42.802017" lon="-7.6313825">
        <time>2022-07-13T05:08:27Z</time>
      </trkpt>
      <trkpt lat="42.80205" lon="-7.631455">
        <time>2022-07-13T05:08:33Z</time>
      </trkpt>
      <trkpt lat="42.80208" lon="-7.6315207">
        <time>2022-07-13T05:08:39Z</time>
      </trkpt>
      <trkpt lat="42.8021" lon="-7.63159">
        <time>2022-07-13T05:08:43Z</time>
      </trkpt>
      <trkpt lat="42.802128" lon="-7.6316557">
        <time>2022-07-13T05:08:47Z</time>
      </trkpt>
      <trkpt lat="42.802155" lon="-7.6317124">
        <time>2022-07-13T05:08:51Z</time>
      </trkpt>
      <trkpt lat="42.802185" lon="-7.631783">
        <time>2022-07-13T05:08:56Z</time>
      </trkpt>
      <trkpt lat="42.80221" lon="-7.6318526">
        <time>2022-07-13T05:09:01Z</time>
      </trkpt>
      <trkpt lat="42.80222" lon="-7.631944">
        <time>2022-07-13T05:09:06Z</time>
      </trkpt>
      <trkpt lat="42.80224" lon="-7.6320143">
        <time>2022-07-13T05:09:10Z</time>
      </trkpt>
      <trkpt lat="42.802246" lon="-7.632084">
        <time>2022-07-13T05:09:15Z</time>
      </trkpt>
      <trkpt lat="42.80225" lon="-7.6321583">
        <time>2022-07-13T05:09:20Z</time>
      </trkpt>
      <trkpt lat="42.802273" lon="-7.6322255">
        <time>2022-07-13T05:09:25Z</time>
      </trkpt>
      <trkpt lat="42.802296" lon="-7.632293">
        <time>2022-07-13T05:09:30Z</time>
      </trkpt>
      <trkpt lat="42.80232" lon="-7.6323547">
        <time>2022-07-13T05:09:35Z</time>
      </trkpt>
      <trkpt lat="42.802338" lon="-7.6324296">
        <time>2022-07-13T05:09:40Z</time>
      </trkpt>
      <trkpt lat="42.80236" lon="-7.6324997">
        <time>2022-07-13T05:09:45Z</time>
      </trkpt>
      <trkpt lat="42.802383" lon="-7.6325665">
        <time>2022-07-13T05:09:50Z</time>
      </trkpt>
      <trkpt lat="42.802402" lon="-7.6326413">
        <time>2022-07-13T05:09:55Z</time>
      </trkpt>
      <trkpt lat="42.80241" lon="-7.63271">
        <time>2022-07-13T05:09:59Z</time>
      </trkpt>
      <trkpt lat="42.802437" lon="-7.6327815">
        <time>2022-07-13T05:10:04Z</time>
      </trkpt>
      <trkpt lat="42.80245" lon="-7.6328597">
        <time>2022-07-13T05:10:09Z</time>
      </trkpt>
      <trkpt lat="42.802452" lon="-7.632922">
        <time>2022-07-13T05:10:13Z</time>
      </trkpt>
      <trkpt lat="42.802464" lon="-7.633002">
        <time>2022-07-13T05:10:19Z</time>
      </trkpt>
      <trkpt lat="42.80247" lon="-7.633081">
        <time>2022-07-13T05:10:24Z</time>
      </trkpt>
      <trkpt lat="42.802467" lon="-7.6331573">
        <time>2022-07-13T05:10:28Z</time>
      </trkpt>
      <trkpt lat="42.80246" lon="-7.633231">
        <time>2022-07-13T05:10:33Z</time>
      </trkpt>
      <trkpt lat="42.80247" lon="-7.633306">
        <time>2022-07-13T05:10:38Z</time>
      </trkpt>
      <trkpt lat="42.802475" lon="-7.633384">
        <time>2022-07-13T05:10:43Z</time>
      </trkpt>
      <trkpt lat="42.80247" lon="-7.6334567">
        <time>2022-07-13T05:10:47Z</time>
      </trkpt>
      <trkpt lat="42.802486" lon="-7.63353">
        <time>2022-07-13T05:10:52Z</time>
      </trkpt>
      <trkpt lat="42.8025" lon="-7.633598">
        <time>2022-07-13T05:10:57Z</time>
      </trkpt>
      <trkpt lat="42.80252" lon="-7.633667">
        <time>2022-07-13T05:11:02Z</time>
      </trkpt>
      <trkpt lat="42.802544" lon="-7.63373">
        <time>2022-07-13T05:11:07Z</time>
      </trkpt>
      <trkpt lat="42.802555" lon="-7.6337986">
        <time>2022-07-13T05:11:12Z</time>
      </trkpt>
      <trkpt lat="42.802567" lon="-7.633868">
        <time>2022-07-13T05:11:17Z</time>
      </trkpt>
      <trkpt lat="42.802578" lon="-7.633939">
        <time>2022-07-13T05:11:23Z</time>
      </trkpt>
      <trkpt lat="42.802593" lon="-7.6340218">
        <time>2022-07-13T05:11:29Z</time>
      </trkpt>
      <trkpt lat="42.802605" lon="-7.634099">
        <time>2022-07-13T05:11:34Z</time>
      </trkpt>
      <trkpt lat="42.80261" lon="-7.634164">
        <time>2022-07-13T05:11:38Z</time>
      </trkpt>
      <trkpt lat="42.802616" lon="-7.6342363">
        <time>2022-07-13T05:11:43Z</time>
      </trkpt>
      <trkpt lat="42.80264" lon="-7.6343064">
        <time>2022-07-13T05:11:49Z</time>
      </trkpt>
      <trkpt lat="42.80266" lon="-7.6343646">
        <time>2022-07-13T05:11:55Z</time>
      </trkpt>
      <trkpt lat="42.802696" lon="-7.63442">
        <time>2022-07-13T05:12:01Z</time>
      </trkpt>
      <trkpt lat="42.80273" lon="-7.6344776">
        <time>2022-07-13T05:12:07Z</time>
      </trkpt>
      <trkpt lat="42.802742" lon="-7.6345587">
        <time>2022-07-13T05:12:13Z</time>
      </trkpt>
      <trkpt lat="42.802753" lon="-7.6346407">
        <time>2022-07-13T05:12:18Z</time>
      </trkpt>
      <trkpt lat="42.80278" lon="-7.63471">
        <time>2022-07-13T05:12:23Z</time>
      </trkpt>
      <trkpt lat="42.802807" lon="-7.6347823">
        <time>2022-07-13T05:12:29Z</time>
      </trkpt>
      <trkpt lat="42.802826" lon="-7.634847">
        <time>2022-07-13T05:12:34Z</time>
      </trkpt>
      <trkpt lat="42.802845" lon="-7.6349173">
        <time>2022-07-13T05:12:39Z</time>
      </trkpt>
      <trkpt lat="42.802864" lon="-7.6349826">
        <time>2022-07-13T05:12:44Z</time>
      </trkpt>
      <trkpt lat="42.80289" lon="-7.6350536">
        <time>2022-07-13T05:12:49Z</time>
      </trkpt>
      <trkpt lat="42.802906" lon="-7.635116">
        <time>2022-07-13T05:12:53Z</time>
      </trkpt>
      <trkpt lat="42.802925" lon="-7.635196">
        <time>2022-07-13T05:12:58Z</time>
      </trkpt>
      <trkpt lat="42.80294" lon="-7.6352763">
        <time>2022-07-13T05:13:03Z</time>
      </trkpt>
      <trkpt lat="42.80296" lon="-7.6353474">
        <time>2022-07-13T05:13:08Z</time>
      </trkpt>
      <trkpt lat="42.802986" lon="-7.635408">
        <time>2022-07-13T05:13:13Z</time>
      </trkpt>
      <trkpt lat="42.803005" lon="-7.6354775">
        <time>2022-07-13T05:13:18Z</time>
      </trkpt>
      <trkpt lat="42.80303" lon="-7.6355495">
        <time>2022-07-13T05:13:23Z</time>
      </trkpt>
      <trkpt lat="42.80305" lon="-7.6356196">
        <time>2022-07-13T05:13:28Z</time>
      </trkpt>
      <trkpt lat="42.80308" lon="-7.6356807">
        <time>2022-07-13T05:13:33Z</time>
      </trkpt>
      <trkpt lat="42.803097" lon="-7.6357536">
        <time>2022-07-13T05:13:38Z</time>
      </trkpt>
      <trkpt lat="42.803123" lon="-7.6358223">
        <time>2022-07-13T05:13:43Z</time>
      </trkpt>
      <trkpt lat="42.803143" lon="-7.6358814">
        <time>2022-07-13T05:13:47Z</time>
      </trkpt>
      <trkpt lat="42.80317" lon="-7.6359525">
        <time>2022-07-13T05:13:52Z</time>
      </trkpt>
      <trkpt lat="42.803192" lon="-7.6360226">
        <time>2022-07-13T05:13:57Z</time>
      </trkpt>
      <trkpt lat="42.80321" lon="-7.6360817">
        <time>2022-07-13T05:14:01Z</time>
      </trkpt>
      <trkpt lat="42.803238" lon="-7.636154">
        <time>2022-07-13T05:14:06Z</time>
      </trkpt>
      <trkpt lat="42.803253" lon="-7.636223">
        <time>2022-07-13T05:14:11Z</time>
      </trkpt>
      <trkpt lat="42.803265" lon="-7.63629">
        <time>2022-07-13T05:14:15Z</time>
      </trkpt>
      <trkpt lat="42.803276" lon="-7.636374">
        <time>2022-07-13T05:14:20Z</time>
      </trkpt>
      <trkpt lat="42.803288" lon="-7.6364403">
        <time>2022-07-13T05:14:24Z</time>
      </trkpt>
      <trkpt lat="42.803307" lon="-7.636513">
        <time>2022-07-13T05:14:29Z</time>
      </trkpt>
      <trkpt lat="42.803326" lon="-7.6365805">
        <time>2022-07-13T05:14:33Z</time>
      </trkpt>
      <trkpt lat="42.80335" lon="-7.636651">
        <time>2022-07-13T05:14:38Z</time>
      </trkpt>
      <trkpt lat="42.80337" lon="-7.63673">
        <time>2022-07-13T05:14:43Z</time>
      </trkpt>
      <trkpt lat="42.80339" lon="-7.6367993">
        <time>2022-07-13T05:14:47Z</time>
      </trkpt>
      <trkpt lat="42.803413" lon="-7.6368585">
        <time>2022-07-13T05:14:51Z</time>
      </trkpt>
      <trkpt lat="42.803444" lon="-7.636937">
        <time>2022-07-13T05:14:56Z</time>
      </trkpt>
      <trkpt lat="42.80347" lon="-7.637">
        <time>2022-07-13T05:15:00Z</time>
      </trkpt>
      <trkpt lat="42.803493" lon="-7.6370735">
        <time>2022-07-13T05:15:05Z</time>
      </trkpt>
      <trkpt lat="42.803516" lon="-7.637152">
        <time>2022-07-13T05:15:10Z</time>
      </trkpt>
      <trkpt lat="42.80354" lon="-7.637217">
        <time>2022-07-13T05:15:14Z</time>
      </trkpt>
      <trkpt lat="42.803566" lon="-7.637285">
        <time>2022-07-13T05:15:19Z</time>
      </trkpt>
      <trkpt lat="42.803596" lon="-7.6373653">
        <time>2022-07-13T05:15:24Z</time>
      </trkpt>
      <trkpt lat="42.803623" lon="-7.63743">
        <time>2022-07-13T05:15:28Z</time>
      </trkpt>
      <trkpt lat="42.803646" lon="-7.6374993">
        <time>2022-07-13T05:15:33Z</time>
      </trkpt>
      <trkpt lat="42.803677" lon="-7.6375675">
        <time>2022-07-13T05:15:37Z</time>
      </trkpt>
      <trkpt lat="42.803703" lon="-7.637635">
        <time>2022-07-13T05:15:41Z</time>
      </trkpt>
      <trkpt lat="42.80373" lon="-7.637701">
        <time>2022-07-13T05:15:46Z</time>
      </trkpt>
      <trkpt lat="42.80376" lon="-7.6377707">
        <time>2022-07-13T05:15:51Z</time>
      </trkpt>
      <trkpt lat="42.803802" lon="-7.637833">
        <time>2022-07-13T05:15:55Z</time>
      </trkpt>
      <trkpt lat="42.80383" lon="-7.637878">
        <time>2022-07-13T05:15:58Z</time>
      </trkpt>
      <trkpt lat="42.803867" lon="-7.637941">
        <time>2022-07-13T05:16:03Z</time>
      </trkpt>
      <trkpt lat="42.803898" lon="-7.6379905">
        <time>2022-07-13T05:16:07Z</time>
      </trkpt>
      <trkpt lat="42.80394" lon="-7.6380444">
        <time>2022-07-13T05:16:11Z</time>
      </trkpt>
      <trkpt lat="42.803978" lon="-7.638093">
        <time>2022-07-13T05:16:15Z</time>
      </trkpt>
      <trkpt lat="42.80402" lon="-7.6381445">
        <time>2022-07-13T05:16:20Z</time>
      </trkpt>
      <trkpt lat="42.804066" lon="-7.6382">
        <time>2022-07-13T05:16:25Z</time>
      </trkpt>
      <trkpt lat="42.80411" lon="-7.6382446">
        <time>2022-07-13T05:16:29Z</time>
      </trkpt>
      <trkpt lat="42.804157" lon="-7.6382904">
        <time>2022-07-13T05:16:33Z</time>
      </trkpt>
      <trkpt lat="42.804195" lon="-7.638335">
        <time>2022-07-13T05:16:37Z</time>
      </trkpt>
      <trkpt lat="42.80423" lon="-7.638378">
        <time>2022-07-13T05:16:41Z</time>
      </trkpt>
      <trkpt lat="42.804283" lon="-7.638426">
        <time>2022-07-13T05:16:46Z</time>
      </trkpt>
      <trkpt lat="42.804337" lon="-7.638466">
        <time>2022-07-13T05:16:50Z</time>
      </trkpt>
      <trkpt lat="42.804382" lon="-7.6385045">
        <time>2022-07-13T05:16:54Z</time>
      </trkpt>
      <trkpt lat="42.804417" lon="-7.6385493">
        <time>2022-07-13T05:16:58Z</time>
      </trkpt>
      <trkpt lat="42.804455" lon="-7.6386">
        <time>2022-07-13T05:17:02Z</time>
      </trkpt>
      <trkpt lat="42.804497" lon="-7.638654">
        <time>2022-07-13T05:17:06Z</time>
      </trkpt>
      <trkpt lat="42.804543" lon="-7.6387076">
        <time>2022-07-13T05:17:10Z</time>
      </trkpt>
      <trkpt lat="42.80459" lon="-7.6387525">
        <time>2022-07-13T05:17:14Z</time>
      </trkpt>
      <trkpt lat="42.80463" lon="-7.638804">
        <time>2022-07-13T05:17:19Z</time>
      </trkpt>
      <trkpt lat="42.80468" lon="-7.638842">
        <time>2022-07-13T05:17:23Z</time>
      </trkpt>
      <trkpt lat="42.80472" lon="-7.6388817">
        <time>2022-07-13T05:17:27Z</time>
      </trkpt>
      <trkpt lat="42.804768" lon="-7.6389313">
        <time>2022-07-13T05:17:31Z</time>
      </trkpt>
      <trkpt lat="42.804802" lon="-7.638985">
        <time>2022-07-13T05:17:35Z</time>
      </trkpt>
      <trkpt lat="42.80484" lon="-7.639028">
        <time>2022-07-13T05:17:39Z</time>
      </trkpt>
      <trkpt lat="42.804886" lon="-7.6390815">
        <time>2022-07-13T05:17:44Z</time>
      </trkpt>
      <trkpt lat="42.80492" lon="-7.6391253">
        <time>2022-07-13T05:17:48Z</time>
      </trkpt>
      <trkpt lat="42.80497" lon="-7.639174">
        <time>2022-07-13T05:17:53Z</time>
      </trkpt>
      <trkpt lat="42.805016" lon="-7.6392164">
        <time>2022-07-13T05:17:57Z</time>
      </trkpt>
      <trkpt lat="42.80506" lon="-7.639263">
        <time>2022-07-13T05:18:01Z</time>
      </trkpt>
      <trkpt lat="42.805103" lon="-7.639302">
        <time>2022-07-13T05:18:05Z</time>
      </trkpt>
      <trkpt lat="42.805145" lon="-7.639351">
        <time>2022-07-13T05:18:09Z</time>
      </trkpt>
      <trkpt lat="42.80519" lon="-7.639395">
        <time>2022-07-13T05:18:13Z</time>
      </trkpt>
      <trkpt lat="42.805233" lon="-7.6394353">
        <time>2022-07-13T05:18:17Z</time>
      </trkpt>
      <trkpt lat="42.805283" lon="-7.6394715">
        <time>2022-07-13T05:18:21Z</time>
      </trkpt>
      <trkpt lat="42.80533" lon="-7.6395073">
        <time>2022-07-13T05:18:25Z</time>
      </trkpt>
      <trkpt lat="42.80538" lon="-7.639541">
        <time>2022-07-13T05:18:29Z</time>
      </trkpt>
      <trkpt lat="42.80543" lon="-7.639573">
        <time>2022-07-13T05:18:31Z</time>
      </trkpt>
      <trkpt lat="42.805485" lon="-7.6396165">
        <time>2022-07-13T05:18:37Z</time>
      </trkpt>
      <trkpt lat="42.805527" lon="-7.639657">
        <time>2022-07-13T05:18:42Z</time>
      </trkpt>
      <trkpt lat="42.805576" lon="-7.6396985">
        <time>2022-07-13T05:18:47Z</time>
      </trkpt>
      <trkpt lat="42.805622" lon="-7.639745">
        <time>2022-07-13T05:18:51Z</time>
      </trkpt>
      <trkpt lat="42.805664" lon="-7.639785">
        <time>2022-07-13T05:18:54Z</time>
      </trkpt>
      <trkpt lat="42.805706" lon="-7.639826">
        <time>2022-07-13T05:18:57Z</time>
      </trkpt>
      <trkpt lat="42.805748" lon="-7.6398735">
        <time>2022-07-13T05:19:01Z</time>
      </trkpt>
      <trkpt lat="42.805786" lon="-7.6399355">
        <time>2022-07-13T05:19:06Z</time>
      </trkpt>
      <trkpt lat="42.805813" lon="-7.63999">
        <time>2022-07-13T05:19:10Z</time>
      </trkpt>
      <trkpt lat="42.80585" lon="-7.640046">
        <time>2022-07-13T05:19:14Z</time>
      </trkpt>
      <trkpt lat="42.80589" lon="-7.6400924">
        <time>2022-07-13T05:19:18Z</time>
      </trkpt>
      <trkpt lat="42.80592" lon="-7.6401415">
        <time>2022-07-13T05:19:22Z</time>
      </trkpt>
      <trkpt lat="42.80595" lon="-7.6402106">
        <time>2022-07-13T05:19:26Z</time>
      </trkpt>
      <trkpt lat="42.805977" lon="-7.6402764">
        <time>2022-07-13T05:19:30Z</time>
      </trkpt>
      <trkpt lat="42.806015" lon="-7.6403356">
        <time>2022-07-13T05:19:35Z</time>
      </trkpt>
      <trkpt lat="42.806046" lon="-7.640413">
        <time>2022-07-13T05:19:40Z</time>
      </trkpt>
      <trkpt lat="42.806084" lon="-7.640456">
        <time>2022-07-13T05:19:44Z</time>
      </trkpt>
      <trkpt lat="42.80614" lon="-7.640502">
        <time>2022-07-13T05:19:49Z</time>
      </trkpt>
      <trkpt lat="42.806194" lon="-7.6405444">
        <time>2022-07-13T05:19:53Z</time>
      </trkpt>
      <trkpt lat="42.80624" lon="-7.6405973">
        <time>2022-07-13T05:19:57Z</time>
      </trkpt>
      <trkpt lat="42.806282" lon="-7.640652">
        <time>2022-07-13T05:20:02Z</time>
      </trkpt>
      <trkpt lat="42.806335" lon="-7.6407003">
        <time>2022-07-13T05:20:07Z</time>
      </trkpt>
      <trkpt lat="42.806385" lon="-7.640748">
        <time>2022-07-13T05:20:11Z</time>
      </trkpt>
      <trkpt lat="42.806427" lon="-7.6407857">
        <time>2022-07-13T05:20:15Z</time>
      </trkpt>
      <trkpt lat="42.806477" lon="-7.6408286">
        <time>2022-07-13T05:20:20Z</time>
      </trkpt>
      <trkpt lat="42.806526" lon="-7.6408725">
        <time>2022-07-13T05:20:24Z</time>
      </trkpt>
      <trkpt lat="42.806572" lon="-7.64092">
        <time>2022-07-13T05:20:29Z</time>
      </trkpt>
      <trkpt lat="42.806618" lon="-7.640959">
        <time>2022-07-13T05:20:33Z</time>
      </trkpt>
      <trkpt lat="42.806664" lon="-7.6410055">
        <time>2022-07-13T05:20:37Z</time>
      </trkpt>
      <trkpt lat="42.80671" lon="-7.6410475">
        <time>2022-07-13T05:20:41Z</time>
      </trkpt>
      <trkpt lat="42.806755" lon="-7.6410975">
        <time>2022-07-13T05:20:46Z</time>
      </trkpt>
      <trkpt lat="42.806797" lon="-7.641144">
        <time>2022-07-13T05:20:50Z</time>
      </trkpt>
      <trkpt lat="42.80684" lon="-7.6411967">
        <time>2022-07-13T05:20:54Z</time>
      </trkpt>
      <trkpt lat="42.806877" lon="-7.641255">
        <time>2022-07-13T05:20:59Z</time>
      </trkpt>
      <trkpt lat="42.806915" lon="-7.6413045">
        <time>2022-07-13T05:21:03Z</time>
      </trkpt>
      <trkpt lat="42.80696" lon="-7.641356">
        <time>2022-07-13T05:21:07Z</time>
      </trkpt>
      <trkpt lat="42.807" lon="-7.641404">
        <time>2022-07-13T05:21:11Z</time>
      </trkpt>
      <trkpt lat="42.807053" lon="-7.6414585">
        <time>2022-07-13T05:21:16Z</time>
      </trkpt>
      <trkpt lat="42.8071" lon="-7.6415014">
        <time>2022-07-13T05:21:20Z</time>
      </trkpt>
      <trkpt lat="42.807144" lon="-7.641529">
        <time>2022-07-13T05:21:24Z</time>
      </trkpt>
      <trkpt lat="42.8072" lon="-7.641535">
        <time>2022-07-13T05:21:29Z</time>
      </trkpt>
      <trkpt lat="42.80726" lon="-7.641526">
        <time>2022-07-13T05:21:33Z</time>
      </trkpt>
      <trkpt lat="42.807316" lon="-7.641516">
        <time>2022-07-13T05:21:38Z</time>
      </trkpt>
      <trkpt lat="42.807365" lon="-7.641537">
        <time>2022-07-13T05:21:43Z</time>
      </trkpt>
      <trkpt lat="42.807358" lon="-7.6416245">
        <time>2022-07-13T05:21:49Z</time>
      </trkpt>
      <trkpt lat="42.80735" lon="-7.641704">
        <time>2022-07-13T05:21:53Z</time>
      </trkpt>
      <trkpt lat="42.80734" lon="-7.641782">
        <time>2022-07-13T05:21:58Z</time>
      </trkpt>
      <trkpt lat="42.807335" lon="-7.641853">
        <time>2022-07-13T05:22:02Z</time>
      </trkpt>
      <trkpt lat="42.80733" lon="-7.641921">
        <time>2022-07-13T05:22:06Z</time>
      </trkpt>
      <trkpt lat="42.807323" lon="-7.64199">
        <time>2022-07-13T05:22:10Z</time>
      </trkpt>
      <trkpt lat="42.807316" lon="-7.6420665">
        <time>2022-07-13T05:22:15Z</time>
      </trkpt>
      <trkpt lat="42.807312" lon="-7.642146">
        <time>2022-07-13T05:22:19Z</time>
      </trkpt>
      <trkpt lat="42.80731" lon="-7.642214">
        <time>2022-07-13T05:22:22Z</time>
      </trkpt>
      <trkpt lat="42.807297" lon="-7.6422906">
        <time>2022-07-13T05:22:26Z</time>
      </trkpt>
      <trkpt lat="42.80729" lon="-7.6423526">
        <time>2022-07-13T05:22:30Z</time>
      </trkpt>
      <trkpt lat="42.80729" lon="-7.6424427">
        <time>2022-07-13T05:22:35Z</time>
      </trkpt>
      <trkpt lat="42.80728" lon="-7.642517">
        <time>2022-07-13T05:22:39Z</time>
      </trkpt>
      <trkpt lat="42.807274" lon="-7.6425943">
        <time>2022-07-13T05:22:43Z</time>
      </trkpt>
      <trkpt lat="42.807274" lon="-7.642667">
        <time>2022-07-13T05:22:47Z</time>
      </trkpt>
      <trkpt lat="42.80729" lon="-7.6427226">
        <time>2022-07-13T05:22:51Z</time>
      </trkpt>
      <trkpt lat="42.807343" lon="-7.642775">
        <time>2022-07-13T05:22:56Z</time>
      </trkpt>
      <trkpt lat="42.807396" lon="-7.6428213">
        <time>2022-07-13T05:23:01Z</time>
      </trkpt>
      <trkpt lat="42.807446" lon="-7.642854">
        <time>2022-07-13T05:23:05Z</time>
      </trkpt>
      <trkpt lat="42.807503" lon="-7.642882">
        <time>2022-07-13T05:23:09Z</time>
      </trkpt>
      <trkpt lat="42.80755" lon="-7.6429086">
        <time>2022-07-13T05:23:12Z</time>
      </trkpt>
      <trkpt lat="42.807594" lon="-7.6429415">
        <time>2022-07-13T05:23:16Z</time>
      </trkpt>
      <trkpt lat="42.80765" lon="-7.6429677">
        <time>2022-07-13T05:23:21Z</time>
      </trkpt>
      <trkpt lat="42.8077" lon="-7.642988">
        <time>2022-07-13T05:23:25Z</time>
      </trkpt>
      <trkpt lat="42.807755" lon="-7.64302">
        <time>2022-07-13T05:23:30Z</time>
      </trkpt>
      <trkpt lat="42.8078" lon="-7.643057">
        <time>2022-07-13T05:23:34Z</time>
      </trkpt>
      <trkpt lat="42.807858" lon="-7.6430926">
        <time>2022-07-13T05:23:38Z</time>
      </trkpt>
      <trkpt lat="42.807903" lon="-7.6431217">
        <time>2022-07-13T05:23:42Z</time>
      </trkpt>
      <trkpt lat="42.807953" lon="-7.643159">
        <time>2022-07-13T05:23:47Z</time>
      </trkpt>
      <trkpt lat="42.808002" lon="-7.643186">
        <time>2022-07-13T05:23:51Z</time>
      </trkpt>
      <trkpt lat="42.808056" lon="-7.6432095">
        <time>2022-07-13T05:23:54Z</time>
      </trkpt>
      <trkpt lat="42.808105" lon="-7.643231">
        <time>2022-07-13T05:23:57Z</time>
      </trkpt>
      <trkpt lat="42.80816" lon="-7.643254">
        <time>2022-07-13T05:24:01Z</time>
      </trkpt>
      <trkpt lat="42.808212" lon="-7.6432796">
        <time>2022-07-13T05:24:05Z</time>
      </trkpt>
      <trkpt lat="42.80827" lon="-7.643304">
        <time>2022-07-13T05:24:08Z</time>
      </trkpt>
      <trkpt lat="42.808327" lon="-7.643332">
        <time>2022-07-13T05:24:12Z</time>
      </trkpt>
      <trkpt lat="42.80838" lon="-7.6433544">
        <time>2022-07-13T05:24:16Z</time>
      </trkpt>
      <trkpt lat="42.80843" lon="-7.643391">
        <time>2022-07-13T05:24:20Z</time>
      </trkpt>
      <trkpt lat="42.80848" lon="-7.6434216">
        <time>2022-07-13T05:24:24Z</time>
      </trkpt>
      <trkpt lat="42.808537" lon="-7.6434546">
        <time>2022-07-13T05:24:29Z</time>
      </trkpt>
      <trkpt lat="42.80859" lon="-7.6434865">
        <time>2022-07-13T05:24:33Z</time>
      </trkpt>
      <trkpt lat="42.80864" lon="-7.6435122">
        <time>2022-07-13T05:24:37Z</time>
      </trkpt>
      <trkpt lat="42.808693" lon="-7.643549">
        <time>2022-07-13T05:24:42Z</time>
      </trkpt>
      <trkpt lat="42.808746" lon="-7.6435795">
        <time>2022-07-13T05:24:46Z</time>
      </trkpt>
      <trkpt lat="42.8088" lon="-7.643605">
        <time>2022-07-13T05:24:50Z</time>
      </trkpt>
      <trkpt lat="42.808857" lon="-7.6436405">
        <time>2022-07-13T05:24:55Z</time>
      </trkpt>
      <trkpt lat="42.80891" lon="-7.6436667">
        <time>2022-07-13T05:24:59Z</time>
      </trkpt>
      <trkpt lat="42.808956" lon="-7.643695">
        <time>2022-07-13T05:25:03Z</time>
      </trkpt>
      <trkpt lat="42.809013" lon="-7.6437273">
        <time>2022-07-13T05:25:08Z</time>
      </trkpt>
      <trkpt lat="42.80907" lon="-7.6437483">
        <time>2022-07-13T05:25:12Z</time>
      </trkpt>
      <trkpt lat="42.809128" lon="-7.6437807">
        <time>2022-07-13T05:25:17Z</time>
      </trkpt>
      <trkpt lat="42.80917" lon="-7.64381">
        <time>2022-07-13T05:25:21Z</time>
      </trkpt>
      <trkpt lat="42.80922" lon="-7.643851">
        <time>2022-07-13T05:25:26Z</time>
      </trkpt>
      <trkpt lat="42.80928" lon="-7.643881">
        <time>2022-07-13T05:25:31Z</time>
      </trkpt>
      <trkpt lat="42.80933" lon="-7.643906">
        <time>2022-07-13T05:25:35Z</time>
      </trkpt>
      <trkpt lat="42.80938" lon="-7.643935">
        <time>2022-07-13T05:25:39Z</time>
      </trkpt>
      <trkpt lat="42.809433" lon="-7.6439557">
        <time>2022-07-13T05:25:43Z</time>
      </trkpt>
      <trkpt lat="42.809486" lon="-7.643985">
        <time>2022-07-13T05:25:47Z</time>
      </trkpt>
      <trkpt lat="42.80953" lon="-7.6440306">
        <time>2022-07-13T05:25:51Z</time>
      </trkpt>
      <trkpt lat="42.80959" lon="-7.644056">
        <time>2022-07-13T05:25:56Z</time>
      </trkpt>
      <trkpt lat="42.809647" lon="-7.644083">
        <time>2022-07-13T05:26:00Z</time>
      </trkpt>
      <trkpt lat="42.809692" lon="-7.6441026">
        <time>2022-07-13T05:26:03Z</time>
      </trkpt>
      <trkpt lat="42.80975" lon="-7.644128">
        <time>2022-07-13T05:26:08Z</time>
      </trkpt>
      <trkpt lat="42.80981" lon="-7.64416">
        <time>2022-07-13T05:26:13Z</time>
      </trkpt>
      <trkpt lat="42.809868" lon="-7.644184">
        <time>2022-07-13T05:26:17Z</time>
      </trkpt>
      <trkpt lat="42.809914" lon="-7.64421">
        <time>2022-07-13T05:26:21Z</time>
      </trkpt>
      <trkpt lat="42.809963" lon="-7.644232">
        <time>2022-07-13T05:26:25Z</time>
      </trkpt>
      <trkpt lat="42.810017" lon="-7.644256">
        <time>2022-07-13T05:26:29Z</time>
      </trkpt>
      <trkpt lat="42.810074" lon="-7.6442833">
        <time>2022-07-13T05:26:33Z</time>
      </trkpt>
      <trkpt lat="42.810123" lon="-7.64431">
        <time>2022-07-13T05:26:37Z</time>
      </trkpt>
      <trkpt lat="42.810173" lon="-7.6443405">
        <time>2022-07-13T05:26:42Z</time>
      </trkpt>
      <trkpt lat="42.810226" lon="-7.6443615">
        <time>2022-07-13T05:26:46Z</time>
      </trkpt>
      <trkpt lat="42.810303" lon="-7.6443934">
        <time>2022-07-13T05:26:51Z</time>
      </trkpt>
      <trkpt lat="42.810352" lon="-7.644423">
        <time>2022-07-13T05:26:55Z</time>
      </trkpt>
      <trkpt lat="42.8104" lon="-7.6444497">
        <time>2022-07-13T05:26:59Z</time>
      </trkpt>
      <trkpt lat="42.810448" lon="-7.6444793">
        <time>2022-07-13T05:27:03Z</time>
      </trkpt>
      <trkpt lat="42.81051" lon="-7.644511">
        <time>2022-07-13T05:27:07Z</time>
      </trkpt>
      <trkpt lat="42.81055" lon="-7.6445355">
        <time>2022-07-13T05:27:10Z</time>
      </trkpt>
      <trkpt lat="42.8106" lon="-7.644563">
        <time>2022-07-13T05:27:14Z</time>
      </trkpt>
      <trkpt lat="42.810646" lon="-7.644592">
        <time>2022-07-13T05:27:18Z</time>
      </trkpt>
      <trkpt lat="42.810703" lon="-7.644616">
        <time>2022-07-13T05:27:22Z</time>
      </trkpt>
      <trkpt lat="42.810753" lon="-7.644625">
        <time>2022-07-13T05:27:25Z</time>
      </trkpt>
      <trkpt lat="42.810806" lon="-7.6446357">
        <time>2022-07-13T05:27:29Z</time>
      </trkpt>
      <trkpt lat="42.810856" lon="-7.644647">
        <time>2022-07-13T05:27:33Z</time>
      </trkpt>
      <trkpt lat="42.810917" lon="-7.64466">
        <time>2022-07-13T05:27:37Z</time>
      </trkpt>
      <trkpt lat="42.810963" lon="-7.6446843">
        <time>2022-07-13T05:27:41Z</time>
      </trkpt>
      <trkpt lat="42.811012" lon="-7.6447377">
        <time>2022-07-13T05:27:47Z</time>
      </trkpt>
      <trkpt lat="42.81105" lon="-7.6448">
        <time>2022-07-13T05:27:51Z</time>
      </trkpt>
      <trkpt lat="42.81109" lon="-7.6448593">
        <time>2022-07-13T05:27:55Z</time>
      </trkpt>
      <trkpt lat="42.81112" lon="-7.644918">
        <time>2022-07-13T05:27:59Z</time>
      </trkpt>
      <trkpt lat="42.811153" lon="-7.6449804">
        <time>2022-07-13T05:28:04Z</time>
      </trkpt>
      <trkpt lat="42.81119" lon="-7.64505">
        <time>2022-07-13T05:28:09Z</time>
      </trkpt>
      <trkpt lat="42.811234" lon="-7.6451106">
        <time>2022-07-13T05:28:13Z</time>
      </trkpt>
      <trkpt lat="42.81126" lon="-7.6451592">
        <time>2022-07-13T05:28:17Z</time>
      </trkpt>
      <trkpt lat="42.81129" lon="-7.6452274">
        <time>2022-07-13T05:28:22Z</time>
      </trkpt>
      <trkpt lat="42.811325" lon="-7.645293">
        <time>2022-07-13T05:28:26Z</time>
      </trkpt>
      <trkpt lat="42.81135" lon="-7.6453457">
        <time>2022-07-13T05:28:29Z</time>
      </trkpt>
      <trkpt lat="42.811375" lon="-7.6454086">
        <time>2022-07-13T05:28:33Z</time>
      </trkpt>
      <trkpt lat="42.81141" lon="-7.645487">
        <time>2022-07-13T05:28:38Z</time>
      </trkpt>
      <trkpt lat="42.811443" lon="-7.6455483">
        <time>2022-07-13T05:28:42Z</time>
      </trkpt>
      <trkpt lat="42.811478" lon="-7.6456">
        <time>2022-07-13T05:28:46Z</time>
      </trkpt>
      <trkpt lat="42.81151" lon="-7.645654">
        <time>2022-07-13T05:28:50Z</time>
      </trkpt>
      <trkpt lat="42.81153" lon="-7.6457243">
        <time>2022-07-13T05:28:54Z</time>
      </trkpt>
      <trkpt lat="42.81155" lon="-7.6457925">
        <time>2022-07-13T05:28:58Z</time>
      </trkpt>
      <trkpt lat="42.811577" lon="-7.645867">
        <time>2022-07-13T05:29:03Z</time>
      </trkpt>
      <trkpt lat="42.81161" lon="-7.6459336">
        <time>2022-07-13T05:29:07Z</time>
      </trkpt>
      <trkpt lat="42.81163" lon="-7.645996">
        <time>2022-07-13T05:29:11Z</time>
      </trkpt>
      <trkpt lat="42.811653" lon="-7.646069">
        <time>2022-07-13T05:29:16Z</time>
      </trkpt>
      <trkpt lat="42.811672" lon="-7.646136">
        <time>2022-07-13T05:29:20Z</time>
      </trkpt>
      <trkpt lat="42.811687" lon="-7.6462145">
        <time>2022-07-13T05:29:25Z</time>
      </trkpt>
      <trkpt lat="42.8117" lon="-7.6462955">
        <time>2022-07-13T05:29:29Z</time>
      </trkpt>
      <trkpt lat="42.811703" lon="-7.646366">
        <time>2022-07-13T05:29:33Z</time>
      </trkpt>
      <trkpt lat="42.811714" lon="-7.646445">
        <time>2022-07-13T05:29:38Z</time>
      </trkpt>
      <trkpt lat="42.81172" lon="-7.6465163">
        <time>2022-07-13T05:29:42Z</time>
      </trkpt>
      <trkpt lat="42.81173" lon="-7.6465797">
        <time>2022-07-13T05:29:46Z</time>
      </trkpt>
      <trkpt lat="42.81174" lon="-7.6466618">
        <time>2022-07-13T05:29:51Z</time>
      </trkpt>
      <trkpt lat="42.81175" lon="-7.646735">
        <time>2022-07-13T05:29:55Z</time>
      </trkpt>
      <trkpt lat="42.81175" lon="-7.646798">
        <time>2022-07-13T05:29:59Z</time>
      </trkpt>
      <trkpt lat="42.811752" lon="-7.6468863">
        <time>2022-07-13T05:30:04Z</time>
      </trkpt>
      <trkpt lat="42.811756" lon="-7.646957">
        <time>2022-07-13T05:30:08Z</time>
      </trkpt>
      <trkpt lat="42.811764" lon="-7.6470447">
        <time>2022-07-13T05:30:13Z</time>
      </trkpt>
      <trkpt lat="42.811768" lon="-7.6471233">
        <time>2022-07-13T05:30:17Z</time>
      </trkpt>
      <trkpt lat="42.811768" lon="-7.6471896">
        <time>2022-07-13T05:30:21Z</time>
      </trkpt>
      <trkpt lat="42.811768" lon="-7.6472754">
        <time>2022-07-13T05:30:26Z</time>
      </trkpt>
      <trkpt lat="42.81177" lon="-7.647358">
        <time>2022-07-13T05:30:30Z</time>
      </trkpt>
      <trkpt lat="42.81177" lon="-7.647428">
        <time>2022-07-13T05:30:34Z</time>
      </trkpt>
      <trkpt lat="42.81177" lon="-7.647493">
        <time>2022-07-13T05:30:38Z</time>
      </trkpt>
      <trkpt lat="42.81178" lon="-7.64757">
        <time>2022-07-13T05:30:42Z</time>
      </trkpt>
      <trkpt lat="42.811783" lon="-7.6476398">
        <time>2022-07-13T05:30:46Z</time>
      </trkpt>
      <trkpt lat="42.811783" lon="-7.6477284">
        <time>2022-07-13T05:30:51Z</time>
      </trkpt>
      <trkpt lat="42.811787" lon="-7.6478047">
        <time>2022-07-13T05:30:55Z</time>
      </trkpt>
      <trkpt lat="42.81179" lon="-7.6478686">
        <time>2022-07-13T05:30:59Z</time>
      </trkpt>
      <trkpt lat="42.811794" lon="-7.647949">
        <time>2022-07-13T05:31:04Z</time>
      </trkpt>
      <trkpt lat="42.81179" lon="-7.648018">
        <time>2022-07-13T05:31:08Z</time>
      </trkpt>
      <trkpt lat="42.81179" lon="-7.6480975">
        <time>2022-07-13T05:31:13Z</time>
      </trkpt>
      <trkpt lat="42.81179" lon="-7.648178">
        <time>2022-07-13T05:31:17Z</time>
      </trkpt>
      <trkpt lat="42.811787" lon="-7.648244">
        <time>2022-07-13T05:31:21Z</time>
      </trkpt>
      <trkpt lat="42.811775" lon="-7.648332">
        <time>2022-07-13T05:31:26Z</time>
      </trkpt>
      <trkpt lat="42.81178" lon="-7.6484036">
        <time>2022-07-13T05:31:30Z</time>
      </trkpt>
      <trkpt lat="42.81178" lon="-7.648501">
        <time>2022-07-13T05:31:36Z</time>
      </trkpt>
      <trkpt lat="42.81177" lon="-7.648577">
        <time>2022-07-13T05:31:40Z</time>
      </trkpt>
      <trkpt lat="42.811775" lon="-7.648655">
        <time>2022-07-13T05:31:45Z</time>
      </trkpt>
      <trkpt lat="42.81178" lon="-7.648732">
        <time>2022-07-13T05:31:49Z</time>
      </trkpt>
      <trkpt lat="42.811783" lon="-7.648801">
        <time>2022-07-13T05:31:53Z</time>
      </trkpt>
      <trkpt lat="42.811787" lon="-7.648867">
        <time>2022-07-13T05:31:57Z</time>
      </trkpt>
      <trkpt lat="42.81179" lon="-7.648943">
        <time>2022-07-13T05:32:01Z</time>
      </trkpt>
      <trkpt lat="42.811802" lon="-7.6490216">
        <time>2022-07-13T05:32:06Z</time>
      </trkpt>
      <trkpt lat="42.81181" lon="-7.6490927">
        <time>2022-07-13T05:32:10Z</time>
      </trkpt>
      <trkpt lat="42.811813" lon="-7.649164">
        <time>2022-07-13T05:32:14Z</time>
      </trkpt>
      <trkpt lat="42.811817" lon="-7.6492314">
        <time>2022-07-13T05:32:18Z</time>
      </trkpt>
      <trkpt lat="42.81182" lon="-7.649306">
        <time>2022-07-13T05:32:22Z</time>
      </trkpt>
      <trkpt lat="42.811825" lon="-7.649387">
        <time>2022-07-13T05:32:27Z</time>
      </trkpt>
      <trkpt lat="42.81183" lon="-7.649462">
        <time>2022-07-13T05:32:31Z</time>
      </trkpt>
      <trkpt lat="42.81183" lon="-7.6495314">
        <time>2022-07-13T05:32:35Z</time>
      </trkpt>
      <trkpt lat="42.811836" lon="-7.649616">
        <time>2022-07-13T05:32:40Z</time>
      </trkpt>
      <trkpt lat="42.81184" lon="-7.6496825">
        <time>2022-07-13T05:32:44Z</time>
      </trkpt>
      <trkpt lat="42.811844" lon="-7.649769">
        <time>2022-07-13T05:32:49Z</time>
      </trkpt>
      <trkpt lat="42.811848" lon="-7.649834">
        <time>2022-07-13T05:32:53Z</time>
      </trkpt>
      <trkpt lat="42.811848" lon="-7.6499195">
        <time>2022-07-13T05:32:58Z</time>
      </trkpt>
      <trkpt lat="42.81185" lon="-7.6499887">
        <time>2022-07-13T05:33:02Z</time>
      </trkpt>
      <trkpt lat="42.811855" lon="-7.6500597">
        <time>2022-07-13T05:33:06Z</time>
      </trkpt>
      <trkpt lat="42.81186" lon="-7.650128">
        <time>2022-07-13T05:33:10Z</time>
      </trkpt>
      <trkpt lat="42.81186" lon="-7.650212">
        <time>2022-07-13T05:33:15Z</time>
      </trkpt>
      <trkpt lat="42.81186" lon="-7.650286">
        <time>2022-07-13T05:33:20Z</time>
      </trkpt>
      <trkpt lat="42.811863" lon="-7.6503725">
        <time>2022-07-13T05:33:25Z</time>
      </trkpt>
      <trkpt lat="42.811863" lon="-7.6504474">
        <time>2022-07-13T05:33:30Z</time>
      </trkpt>
      <trkpt lat="42.811863" lon="-7.65053">
        <time>2022-07-13T05:33:35Z</time>
      </trkpt>
      <trkpt lat="42.81186" lon="-7.650615">
        <time>2022-07-13T05:33:40Z</time>
      </trkpt>
      <trkpt lat="42.811855" lon="-7.6506815">
        <time>2022-07-13T05:33:44Z</time>
      </trkpt>
      <trkpt lat="42.81186" lon="-7.6507554">
        <time>2022-07-13T05:33:48Z</time>
      </trkpt>
      <trkpt lat="42.81186" lon="-7.6508245">
        <time>2022-07-13T05:33:52Z</time>
      </trkpt>
      <trkpt lat="42.811867" lon="-7.6509132">
        <time>2022-07-13T05:33:57Z</time>
      </trkpt>
      <trkpt lat="42.811874" lon="-7.6509976">
        <time>2022-07-13T05:34:02Z</time>
      </trkpt>
      <trkpt lat="42.811882" lon="-7.6510816">
        <time>2022-07-13T05:34:07Z</time>
      </trkpt>
      <trkpt lat="42.811886" lon="-7.651165">
        <time>2022-07-13T05:34:12Z</time>
      </trkpt>
      <trkpt lat="42.811886" lon="-7.651252">
        <time>2022-07-13T05:34:17Z</time>
      </trkpt>
      <trkpt lat="42.811886" lon="-7.6513305">
        <time>2022-07-13T05:34:22Z</time>
      </trkpt>
      <trkpt lat="42.811882" lon="-7.6514">
        <time>2022-07-13T05:34:26Z</time>
      </trkpt>
      <trkpt lat="42.811882" lon="-7.651481">
        <time>2022-07-13T05:34:31Z</time>
      </trkpt>
      <trkpt lat="42.811886" lon="-7.651551">
        <time>2022-07-13T05:34:35Z</time>
      </trkpt>
      <trkpt lat="42.81189" lon="-7.6516366">
        <time>2022-07-13T05:34:40Z</time>
      </trkpt>
      <trkpt lat="42.811893" lon="-7.651705">
        <time>2022-07-13T05:34:44Z</time>
      </trkpt>
      <trkpt lat="42.8119" lon="-7.6517777">
        <time>2022-07-13T05:34:48Z</time>
      </trkpt>
      <trkpt lat="42.8119" lon="-7.6518536">
        <time>2022-07-13T05:34:53Z</time>
      </trkpt>
      <trkpt lat="42.8119" lon="-7.651925">
        <time>2022-07-13T05:34:57Z</time>
      </trkpt>
      <trkpt lat="42.811905" lon="-7.651992">
        <time>2022-07-13T05:35:01Z</time>
      </trkpt>
      <trkpt lat="42.811905" lon="-7.6520715">
        <time>2022-07-13T05:35:06Z</time>
      </trkpt>
      <trkpt lat="42.81191" lon="-7.6521387">
        <time>2022-07-13T05:35:10Z</time>
      </trkpt>
      <trkpt lat="42.811916" lon="-7.6522193">
        <time>2022-07-13T05:35:15Z</time>
      </trkpt>
      <trkpt lat="42.811916" lon="-7.6522965">
        <time>2022-07-13T05:35:19Z</time>
      </trkpt>
      <trkpt lat="42.81192" lon="-7.6523647">
        <time>2022-07-13T05:35:23Z</time>
      </trkpt>
      <trkpt lat="42.81192" lon="-7.6524315">
        <time>2022-07-13T05:35:27Z</time>
      </trkpt>
      <trkpt lat="42.81192" lon="-7.652523">
        <time>2022-07-13T05:35:32Z</time>
      </trkpt>
      <trkpt lat="42.81192" lon="-7.6525884">
        <time>2022-07-13T05:35:36Z</time>
      </trkpt>
      <trkpt lat="42.811928" lon="-7.6526775">
        <time>2022-07-13T05:35:41Z</time>
      </trkpt>
      <trkpt lat="42.811928" lon="-7.6527514">
        <time>2022-07-13T05:35:45Z</time>
      </trkpt>
      <trkpt lat="42.811928" lon="-7.6528316">
        <time>2022-07-13T05:35:50Z</time>
      </trkpt>
      <trkpt lat="42.81193" lon="-7.652907">
        <time>2022-07-13T05:35:54Z</time>
      </trkpt>
      <trkpt lat="42.811935" lon="-7.652985">
        <time>2022-07-13T05:35:59Z</time>
      </trkpt>
      <trkpt lat="42.81194" lon="-7.653064">
        <time>2022-07-13T05:36:03Z</time>
      </trkpt>
      <trkpt lat="42.811943" lon="-7.6531315">
        <time>2022-07-13T05:36:07Z</time>
      </trkpt>
      <trkpt lat="42.811943" lon="-7.653217">
        <time>2022-07-13T05:36:12Z</time>
      </trkpt>
      <trkpt lat="42.811947" lon="-7.6532965">
        <time>2022-07-13T05:36:16Z</time>
      </trkpt>
      <trkpt lat="42.811947" lon="-7.6533637">
        <time>2022-07-13T05:36:20Z</time>
      </trkpt>
      <trkpt lat="42.811947" lon="-7.65345">
        <time>2022-07-13T05:36:25Z</time>
      </trkpt>
      <trkpt lat="42.81195" lon="-7.6535273">
        <time>2022-07-13T05:36:29Z</time>
      </trkpt>
      <trkpt lat="42.81195" lon="-7.6535873">
        <time>2022-07-13T05:36:33Z</time>
      </trkpt>
      <trkpt lat="42.811954" lon="-7.6536775">
        <time>2022-07-13T05:36:38Z</time>
      </trkpt>
      <trkpt lat="42.81196" lon="-7.6537547">
        <time>2022-07-13T05:36:42Z</time>
      </trkpt>
      <trkpt lat="42.811962" lon="-7.6538196">
        <time>2022-07-13T05:36:46Z</time>
      </trkpt>
      <trkpt lat="42.811962" lon="-7.6539097">
        <time>2022-07-13T05:36:51Z</time>
      </trkpt>
      <trkpt lat="42.811962" lon="-7.6539884">
        <time>2022-07-13T05:36:55Z</time>
      </trkpt>
      <trkpt lat="42.811962" lon="-7.6540513">
        <time>2022-07-13T05:36:59Z</time>
      </trkpt>
      <trkpt lat="42.811974" lon="-7.654137">
        <time>2022-07-13T05:37:04Z</time>
      </trkpt>
      <trkpt lat="42.811977" lon="-7.654212">
        <time>2022-07-13T05:37:08Z</time>
      </trkpt>
      <trkpt lat="42.81198" lon="-7.6542907">
        <time>2022-07-13T05:37:13Z</time>
      </trkpt>
      <trkpt lat="42.811985" lon="-7.654371">
        <time>2022-07-13T05:37:17Z</time>
      </trkpt>
      <trkpt lat="42.81199" lon="-7.6544456">
        <time>2022-07-13T05:37:21Z</time>
      </trkpt>
      <trkpt lat="42.81199" lon="-7.6545243">
        <time>2022-07-13T05:37:26Z</time>
      </trkpt>
      <trkpt lat="42.811996" lon="-7.6546016">
        <time>2022-07-13T05:37:30Z</time>
      </trkpt>
      <trkpt lat="42.811996" lon="-7.654677">
        <time>2022-07-13T05:37:34Z</time>
      </trkpt>
      <trkpt lat="42.811993" lon="-7.654745">
        <time>2022-07-13T05:37:38Z</time>
      </trkpt>
      <trkpt lat="42.81199" lon="-7.6548386">
        <time>2022-07-13T05:37:43Z</time>
      </trkpt>
      <trkpt lat="42.811993" lon="-7.6549077">
        <time>2022-07-13T05:37:47Z</time>
      </trkpt>
      <trkpt lat="42.811993" lon="-7.654991">
        <time>2022-07-13T05:37:52Z</time>
      </trkpt>
      <trkpt lat="42.811996" lon="-7.655072">
        <time>2022-07-13T05:37:56Z</time>
      </trkpt>
      <trkpt lat="42.811996" lon="-7.655139">
        <time>2022-07-13T05:38:00Z</time>
      </trkpt>
      <trkpt lat="42.811996" lon="-7.655226">
        <time>2022-07-13T05:38:05Z</time>
      </trkpt>
      <trkpt lat="42.812004" lon="-7.655295">
        <time>2022-07-13T05:38:09Z</time>
      </trkpt>
      <trkpt lat="42.812008" lon="-7.6553745">
        <time>2022-07-13T05:38:14Z</time>
      </trkpt>
      <trkpt lat="42.812008" lon="-7.6554494">
        <time>2022-07-13T05:38:18Z</time>
      </trkpt>
      <trkpt lat="42.812008" lon="-7.6555147">
        <time>2022-07-13T05:38:22Z</time>
      </trkpt>
      <trkpt lat="42.812016" lon="-7.6555867">
        <time>2022-07-13T05:38:26Z</time>
      </trkpt>
      <trkpt lat="42.812016" lon="-7.6556635">
        <time>2022-07-13T05:38:31Z</time>
      </trkpt>
      <trkpt lat="42.812023" lon="-7.655742">
        <time>2022-07-13T05:38:36Z</time>
      </trkpt>
      <trkpt lat="42.812023" lon="-7.6558056">
        <time>2022-07-13T05:38:40Z</time>
      </trkpt>
      <trkpt lat="42.81202" lon="-7.6558914">
        <time>2022-07-13T05:38:45Z</time>
      </trkpt>
      <trkpt lat="42.81202" lon="-7.6559663">
        <time>2022-07-13T05:38:49Z</time>
      </trkpt>
      <trkpt lat="42.81202" lon="-7.6560516">
        <time>2022-07-13T05:38:54Z</time>
      </trkpt>
      <trkpt lat="42.812023" lon="-7.6561265">
        <time>2022-07-13T05:38:58Z</time>
      </trkpt>
      <trkpt lat="42.812023" lon="-7.6562085">
        <time>2022-07-13T05:39:03Z</time>
      </trkpt>
      <trkpt lat="42.812023" lon="-7.656283">
        <time>2022-07-13T05:39:07Z</time>
      </trkpt>
      <trkpt lat="42.812027" lon="-7.656368">
        <time>2022-07-13T05:39:12Z</time>
      </trkpt>
      <trkpt lat="42.81203" lon="-7.656449">
        <time>2022-07-13T05:39:16Z</time>
      </trkpt>
      <trkpt lat="42.812035" lon="-7.6565166">
        <time>2022-07-13T05:39:20Z</time>
      </trkpt>
      <trkpt lat="42.812042" lon="-7.6565895">
        <time>2022-07-13T05:39:24Z</time>
      </trkpt>
      <trkpt lat="42.812046" lon="-7.656659">
        <time>2022-07-13T05:39:28Z</time>
      </trkpt>
      <trkpt lat="42.812046" lon="-7.6567426">
        <time>2022-07-13T05:39:33Z</time>
      </trkpt>
      <trkpt lat="42.81205" lon="-7.656814">
        <time>2022-07-13T05:39:37Z</time>
      </trkpt>
      <trkpt lat="42.81205" lon="-7.656882">
        <time>2022-07-13T05:39:41Z</time>
      </trkpt>
      <trkpt lat="42.81205" lon="-7.6569576">
        <time>2022-07-13T05:39:45Z</time>
      </trkpt>
      <trkpt lat="42.81205" lon="-7.657037">
        <time>2022-07-13T05:39:50Z</time>
      </trkpt>
      <trkpt lat="42.812054" lon="-7.6571097">
        <time>2022-07-13T05:39:54Z</time>
      </trkpt>
      <trkpt lat="42.812054" lon="-7.657184">
        <time>2022-07-13T05:39:59Z</time>
      </trkpt>
      <trkpt lat="42.81206" lon="-7.657274">
        <time>2022-07-13T05:40:04Z</time>
      </trkpt>
      <trkpt lat="42.812065" lon="-7.657349">
        <time>2022-07-13T05:40:09Z</time>
      </trkpt>
      <trkpt lat="42.81207" lon="-7.65742">
        <time>2022-07-13T05:40:13Z</time>
      </trkpt>
      <trkpt lat="42.81207" lon="-7.657489">
        <time>2022-07-13T05:40:17Z</time>
      </trkpt>
      <trkpt lat="42.812077" lon="-7.657576">
        <time>2022-07-13T05:40:22Z</time>
      </trkpt>
      <trkpt lat="42.81208" lon="-7.6576533">
        <time>2022-07-13T05:40:27Z</time>
      </trkpt>
      <trkpt lat="42.812084" lon="-7.6577163">
        <time>2022-07-13T05:40:31Z</time>
      </trkpt>
      <trkpt lat="42.812088" lon="-7.657798">
        <time>2022-07-13T05:40:36Z</time>
      </trkpt>
      <trkpt lat="42.812096" lon="-7.657865">
        <time>2022-07-13T05:40:40Z</time>
      </trkpt>
      <trkpt lat="42.812103" lon="-7.657951">
        <time>2022-07-13T05:40:45Z</time>
      </trkpt>
      <trkpt lat="42.81211" lon="-7.658023">
        <time>2022-07-13T05:40:50Z</time>
      </trkpt>
      <trkpt lat="42.812122" lon="-7.6581025">
        <time>2022-07-13T05:40:55Z</time>
      </trkpt>
      <trkpt lat="42.812134" lon="-7.6581807">
        <time>2022-07-13T05:41:00Z</time>
      </trkpt>
      <trkpt lat="42.81215" lon="-7.6582565">
        <time>2022-07-13T05:41:05Z</time>
      </trkpt>
      <trkpt lat="42.81216" lon="-7.6583304">
        <time>2022-07-13T05:41:10Z</time>
      </trkpt>
      <trkpt lat="42.81217" lon="-7.6584063">
        <time>2022-07-13T05:41:15Z</time>
      </trkpt>
      <trkpt lat="42.812176" lon="-7.6584744">
        <time>2022-07-13T05:41:19Z</time>
      </trkpt>
      <trkpt lat="42.81218" lon="-7.658556">
        <time>2022-07-13T05:41:24Z</time>
      </trkpt>
      <trkpt lat="42.812187" lon="-7.6586165">
        <time>2022-07-13T05:41:28Z</time>
      </trkpt>
      <trkpt lat="42.8122" lon="-7.658704">
        <time>2022-07-13T05:41:33Z</time>
      </trkpt>
      <trkpt lat="42.812202" lon="-7.658785">
        <time>2022-07-13T05:41:38Z</time>
      </trkpt>
      <trkpt lat="42.812206" lon="-7.658844">
        <time>2022-07-13T05:41:42Z</time>
      </trkpt>
      <trkpt lat="42.812153" lon="-7.6588955">
        <time>2022-07-13T05:41:48Z</time>
      </trkpt>
      <trkpt lat="42.812115" lon="-7.658939">
        <time>2022-07-13T05:41:52Z</time>
      </trkpt>
      <trkpt lat="42.812096" lon="-7.659003">
        <time>2022-07-13T05:41:56Z</time>
      </trkpt>
      <trkpt lat="42.812103" lon="-7.6590734">
        <time>2022-07-13T05:42:00Z</time>
      </trkpt>
      <trkpt lat="42.81211" lon="-7.659159">
        <time>2022-07-13T05:42:05Z</time>
      </trkpt>
      <trkpt lat="42.81213" lon="-7.6592307">
        <time>2022-07-13T05:42:09Z</time>
      </trkpt>
      <trkpt lat="42.81214" lon="-7.6592956">
        <time>2022-07-13T05:42:13Z</time>
      </trkpt>
      <trkpt lat="42.812153" lon="-7.659371">
        <time>2022-07-13T05:42:18Z</time>
      </trkpt>
      <trkpt lat="42.81217" lon="-7.6594443">
        <time>2022-07-13T05:42:22Z</time>
      </trkpt>
      <trkpt lat="42.81218" lon="-7.659511">
        <time>2022-07-13T05:42:26Z</time>
      </trkpt>
      <trkpt lat="42.812195" lon="-7.659596">
        <time>2022-07-13T05:42:31Z</time>
      </trkpt>
      <trkpt lat="42.812206" lon="-7.6596684">
        <time>2022-07-13T05:42:35Z</time>
      </trkpt>
      <trkpt lat="42.812218" lon="-7.659748">
        <time>2022-07-13T05:42:40Z</time>
      </trkpt>
      <trkpt lat="42.81224" lon="-7.6598315">
        <time>2022-07-13T05:42:45Z</time>
      </trkpt>
      <trkpt lat="42.812267" lon="-7.659898">
        <time>2022-07-13T05:42:49Z</time>
      </trkpt>
      <trkpt lat="42.812283" lon="-7.6599746">
        <time>2022-07-13T05:42:54Z</time>
      </trkpt>
      <trkpt lat="42.812283" lon="-7.6600623">
        <time>2022-07-13T05:42:59Z</time>
      </trkpt>
      <trkpt lat="42.81227" lon="-7.66013">
        <time>2022-07-13T05:43:03Z</time>
      </trkpt>
      <trkpt lat="42.812275" lon="-7.6602144">
        <time>2022-07-13T05:43:08Z</time>
      </trkpt>
      <trkpt lat="42.81229" lon="-7.660283">
        <time>2022-07-13T05:43:12Z</time>
      </trkpt>
      <trkpt lat="42.812298" lon="-7.660358">
        <time>2022-07-13T05:43:17Z</time>
      </trkpt>
      <trkpt lat="42.81231" lon="-7.660431">
        <time>2022-07-13T05:43:21Z</time>
      </trkpt>
      <trkpt lat="42.812325" lon="-7.660506">
        <time>2022-07-13T05:43:25Z</time>
      </trkpt>
      <trkpt lat="42.812332" lon="-7.6605716">
        <time>2022-07-13T05:43:29Z</time>
      </trkpt>
      <trkpt lat="42.812344" lon="-7.6606526">
        <time>2022-07-13T05:43:34Z</time>
      </trkpt>
      <trkpt lat="42.812355" lon="-7.6607256">
        <time>2022-07-13T05:43:39Z</time>
      </trkpt>
      <trkpt lat="42.812366" lon="-7.6608024">
        <time>2022-07-13T05:43:44Z</time>
      </trkpt>
      <trkpt lat="42.81238" lon="-7.660881">
        <time>2022-07-13T05:43:49Z</time>
      </trkpt>
      <trkpt lat="42.8124" lon="-7.660952">
        <time>2022-07-13T05:43:53Z</time>
      </trkpt>
      <trkpt lat="42.812424" lon="-7.661013">
        <time>2022-07-13T05:43:57Z</time>
      </trkpt>
      <trkpt lat="42.812443" lon="-7.661084">
        <time>2022-07-13T05:44:02Z</time>
      </trkpt>
      <trkpt lat="42.812458" lon="-7.661165">
        <time>2022-07-13T05:44:06Z</time>
      </trkpt>
      <trkpt lat="42.812466" lon="-7.6612344">
        <time>2022-07-13T05:44:10Z</time>
      </trkpt>
      <trkpt lat="42.812473" lon="-7.6613007">
        <time>2022-07-13T05:44:14Z</time>
      </trkpt>
      <trkpt lat="42.812485" lon="-7.6613836">
        <time>2022-07-13T05:44:18Z</time>
      </trkpt>
      <trkpt lat="42.812492" lon="-7.661453">
        <time>2022-07-13T05:44:22Z</time>
      </trkpt>
      <trkpt lat="42.812508" lon="-7.661533">
        <time>2022-07-13T05:44:27Z</time>
      </trkpt>
      <trkpt lat="42.812523" lon="-7.661615">
        <time>2022-07-13T05:44:31Z</time>
      </trkpt>
      <trkpt lat="42.812534" lon="-7.6616907">
        <time>2022-07-13T05:44:35Z</time>
      </trkpt>
      <trkpt lat="42.81254" lon="-7.661752">
        <time>2022-07-13T05:44:39Z</time>
      </trkpt>
      <trkpt lat="42.812553" lon="-7.6618285">
        <time>2022-07-13T05:44:44Z</time>
      </trkpt>
      <trkpt lat="42.81257" lon="-7.6619067">
        <time>2022-07-13T05:44:48Z</time>
      </trkpt>
      <trkpt lat="42.81258" lon="-7.66198">
        <time>2022-07-13T05:44:52Z</time>
      </trkpt>
      <trkpt lat="42.812588" lon="-7.6620574">
        <time>2022-07-13T05:44:57Z</time>
      </trkpt>
      <trkpt lat="42.812595" lon="-7.6621313">
        <time>2022-07-13T05:45:01Z</time>
      </trkpt>
      <trkpt lat="42.812603" lon="-7.6622133">
        <time>2022-07-13T05:45:05Z</time>
      </trkpt>
      <trkpt lat="42.812607" lon="-7.6622815">
        <time>2022-07-13T05:45:09Z</time>
      </trkpt>
      <trkpt lat="42.81262" lon="-7.6623535">
        <time>2022-07-13T05:45:13Z</time>
      </trkpt>
      <trkpt lat="42.81263" lon="-7.6624327">
        <time>2022-07-13T05:45:17Z</time>
      </trkpt>
      <trkpt lat="42.812637" lon="-7.6624985">
        <time>2022-07-13T05:45:21Z</time>
      </trkpt>
      <trkpt lat="42.81264" lon="-7.6625724">
        <time>2022-07-13T05:45:25Z</time>
      </trkpt>
      <trkpt lat="42.81265" lon="-7.662646">
        <time>2022-07-13T05:45:29Z</time>
      </trkpt>
      <trkpt lat="42.812653" lon="-7.6627245">
        <time>2022-07-13T05:45:34Z</time>
      </trkpt>
      <trkpt lat="42.81266" lon="-7.662792">
        <time>2022-07-13T05:45:38Z</time>
      </trkpt>
      <trkpt lat="42.81268" lon="-7.66287">
        <time>2022-07-13T05:45:43Z</time>
      </trkpt>
      <trkpt lat="42.8127" lon="-7.662942">
        <time>2022-07-13T05:45:48Z</time>
      </trkpt>
      <trkpt lat="42.812717" lon="-7.663016">
        <time>2022-07-13T05:45:53Z</time>
      </trkpt>
      <trkpt lat="42.81274" lon="-7.6630936">
        <time>2022-07-13T05:45:59Z</time>
      </trkpt>
      <trkpt lat="42.81276" lon="-7.66317">
        <time>2022-07-13T05:46:04Z</time>
      </trkpt>
      <trkpt lat="42.812767" lon="-7.6632476">
        <time>2022-07-13T05:46:09Z</time>
      </trkpt>
      <trkpt lat="42.812756" lon="-7.6633344">
        <time>2022-07-13T05:46:14Z</time>
      </trkpt>
      <trkpt lat="42.812748" lon="-7.6634135">
        <time>2022-07-13T05:46:19Z</time>
      </trkpt>
      <trkpt lat="42.81274" lon="-7.663486">
        <time>2022-07-13T05:46:24Z</time>
      </trkpt>
      <trkpt lat="42.812733" lon="-7.6635675">
        <time>2022-07-13T05:46:29Z</time>
      </trkpt>
      <trkpt lat="42.812733" lon="-7.663645">
        <time>2022-07-13T05:46:34Z</time>
      </trkpt>
      <trkpt lat="42.81274" lon="-7.663708">
        <time>2022-07-13T05:46:38Z</time>
      </trkpt>
      <trkpt lat="42.812748" lon="-7.663787">
        <time>2022-07-13T05:46:43Z</time>
      </trkpt>
      <trkpt lat="42.812767" lon="-7.6638603">
        <time>2022-07-13T05:46:48Z</time>
      </trkpt>
      <trkpt lat="42.812794" lon="-7.663923">
        <time>2022-07-13T05:46:53Z</time>
      </trkpt>
      <trkpt lat="42.812828" lon="-7.663972">
        <time>2022-07-13T05:46:58Z</time>
      </trkpt>
      <trkpt lat="42.812874" lon="-7.664014">
        <time>2022-07-13T05:47:03Z</time>
      </trkpt>
      <trkpt lat="42.812912" lon="-7.6640525">
        <time>2022-07-13T05:47:07Z</time>
      </trkpt>
      <trkpt lat="42.812958" lon="-7.6640987">
        <time>2022-07-13T05:47:12Z</time>
      </trkpt>
      <trkpt lat="42.813" lon="-7.6641345">
        <time>2022-07-13T05:47:16Z</time>
      </trkpt>
      <trkpt lat="42.813046" lon="-7.6641726">
        <time>2022-07-13T05:47:21Z</time>
      </trkpt>
      <trkpt lat="42.81309" lon="-7.664225">
        <time>2022-07-13T05:47:27Z</time>
      </trkpt>
      <trkpt lat="42.81313" lon="-7.664275">
        <time>2022-07-13T05:47:32Z</time>
      </trkpt>
      <trkpt lat="42.813168" lon="-7.6643243">
        <time>2022-07-13T05:47:37Z</time>
      </trkpt>
      <trkpt lat="42.813206" lon="-7.6643686">
        <time>2022-07-13T05:47:42Z</time>
      </trkpt>
      <trkpt lat="42.81325" lon="-7.664409">
        <time>2022-07-13T05:47:47Z</time>
      </trkpt>
      <trkpt lat="42.813293" lon="-7.664458">
        <time>2022-07-13T05:47:53Z</time>
      </trkpt>
      <trkpt lat="42.813328" lon="-7.6645074">
        <time>2022-07-13T05:47:58Z</time>
      </trkpt>
      <trkpt lat="42.81337" lon="-7.6645637">
        <time>2022-07-13T05:48:03Z</time>
      </trkpt>
      <trkpt lat="42.813404" lon="-7.664624">
        <time>2022-07-13T05:48:08Z</time>
      </trkpt>
      <trkpt lat="42.81344" lon="-7.6646795">
        <time>2022-07-13T05:48:13Z</time>
      </trkpt>
      <trkpt lat="42.813477" lon="-7.664731">
        <time>2022-07-13T05:48:18Z</time>
      </trkpt>
      <trkpt lat="42.813503" lon="-7.6647983">
        <time>2022-07-13T05:48:23Z</time>
      </trkpt>
      <trkpt lat="42.81354" lon="-7.6648655">
        <time>2022-07-13T05:48:28Z</time>
      </trkpt>
      <trkpt lat="42.813576" lon="-7.6649284">
        <time>2022-07-13T05:48:33Z</time>
      </trkpt>
      <trkpt lat="42.81361" lon="-7.664977">
        <time>2022-07-13T05:48:37Z</time>
      </trkpt>
      <trkpt lat="42.813644" lon="-7.6650453">
        <time>2022-07-13T05:48:42Z</time>
      </trkpt>
      <trkpt lat="42.813667" lon="-7.665115">
        <time>2022-07-13T05:48:47Z</time>
      </trkpt>
      <trkpt lat="42.81369" lon="-7.665182">
        <time>2022-07-13T05:48:52Z</time>
      </trkpt>
      <trkpt lat="42.81372" lon="-7.6652527">
        <time>2022-07-13T05:48:57Z</time>
      </trkpt>
      <trkpt lat="42.81375" lon="-7.665321">
        <time>2022-07-13T05:49:02Z</time>
      </trkpt>
      <trkpt lat="42.813778" lon="-7.665383">
        <time>2022-07-13T05:49:07Z</time>
      </trkpt>
      <trkpt lat="42.813805" lon="-7.665442">
        <time>2022-07-13T05:49:11Z</time>
      </trkpt>
      <trkpt lat="42.813828" lon="-7.66551">
        <time>2022-07-13T05:49:16Z</time>
      </trkpt>
      <trkpt lat="42.81385" lon="-7.665581">
        <time>2022-07-13T05:49:21Z</time>
      </trkpt>
      <trkpt lat="42.81387" lon="-7.6656437">
        <time>2022-07-13T05:49:25Z</time>
      </trkpt>
      <trkpt lat="42.813896" lon="-7.6657176">
        <time>2022-07-13T05:49:30Z</time>
      </trkpt>
      <trkpt lat="42.81392" lon="-7.6657786">
        <time>2022-07-13T05:49:34Z</time>
      </trkpt>
      <trkpt lat="42.813942" lon="-7.6658487">
        <time>2022-07-13T05:49:39Z</time>
      </trkpt>
      <trkpt lat="42.81396" lon="-7.665906">
        <time>2022-07-13T05:49:43Z</time>
      </trkpt>
      <trkpt lat="42.813988" lon="-7.6659756">
        <time>2022-07-13T05:49:48Z</time>
      </trkpt>
      <trkpt lat="42.814014" lon="-7.6660395">
        <time>2022-07-13T05:49:53Z</time>
      </trkpt>
      <trkpt lat="42.81404" lon="-7.6661086">
        <time>2022-07-13T05:49:58Z</time>
      </trkpt>
      <trkpt lat="42.81406" lon="-7.6661654">
        <time>2022-07-13T05:50:02Z</time>
      </trkpt>
      <trkpt lat="42.814087" lon="-7.666232">
        <time>2022-07-13T05:50:07Z</time>
      </trkpt>
      <trkpt lat="42.814114" lon="-7.6662936">
        <time>2022-07-13T05:50:12Z</time>
      </trkpt>
      <trkpt lat="42.814144" lon="-7.66635">
        <time>2022-07-13T05:50:17Z</time>
      </trkpt>
      <trkpt lat="42.81418" lon="-7.666413">
        <time>2022-07-13T05:50:22Z</time>
      </trkpt>
      <trkpt lat="42.814205" lon="-7.6664753">
        <time>2022-07-13T05:50:27Z</time>
      </trkpt>
      <trkpt lat="42.814236" lon="-7.666532">
        <time>2022-07-13T05:50:32Z</time>
      </trkpt>
      <trkpt lat="42.814262" lon="-7.6665945">
        <time>2022-07-13T05:50:37Z</time>
      </trkpt>
      <trkpt lat="42.814297" lon="-7.6666555">
        <time>2022-07-13T05:50:42Z</time>
      </trkpt>
      <trkpt lat="42.814327" lon="-7.6667166">
        <time>2022-07-13T05:50:47Z</time>
      </trkpt>
      <trkpt lat="42.814354" lon="-7.666772">
        <time>2022-07-13T05:50:52Z</time>
      </trkpt>
      <trkpt lat="42.814392" lon="-7.666838">
        <time>2022-07-13T05:50:58Z</time>
      </trkpt>
      <trkpt lat="42.814423" lon="-7.6669064">
        <time>2022-07-13T05:51:03Z</time>
      </trkpt>
      <trkpt lat="42.814453" lon="-7.666974">
        <time>2022-07-13T05:51:08Z</time>
      </trkpt>
      <trkpt lat="42.81448" lon="-7.667042">
        <time>2022-07-13T05:51:13Z</time>
      </trkpt>
      <trkpt lat="42.81451" lon="-7.667105">
        <time>2022-07-13T05:51:18Z</time>
      </trkpt>
      <trkpt lat="42.81454" lon="-7.6671586">
        <time>2022-07-13T05:51:23Z</time>
      </trkpt>
      <trkpt lat="42.81457" lon="-7.6672153">
        <time>2022-07-13T05:51:39Z</time>
      </trkpt>
      <trkpt lat="42.81459" lon="-7.667282">
        <time>2022-07-13T05:51:44Z</time>
      </trkpt>
      <trkpt lat="42.814613" lon="-7.667358">
        <time>2022-07-13T05:51:49Z</time>
      </trkpt>
      <trkpt lat="42.81463" lon="-7.6674223">
        <time>2022-07-13T05:51:53Z</time>
      </trkpt>
      <trkpt lat="42.814648" lon="-7.6674833">
        <time>2022-07-13T05:51:57Z</time>
      </trkpt>
      <trkpt lat="42.81468" lon="-7.6675544">
        <time>2022-07-13T05:52:02Z</time>
      </trkpt>
      <trkpt lat="42.814705" lon="-7.667621">
        <time>2022-07-13T05:52:07Z</time>
      </trkpt>
      <trkpt lat="42.81474" lon="-7.6676974">
        <time>2022-07-13T05:52:12Z</time>
      </trkpt>
      <trkpt lat="42.814774" lon="-7.6677694">
        <time>2022-07-13T05:52:17Z</time>
      </trkpt>
      <trkpt lat="42.814796" lon="-7.667834">
        <time>2022-07-13T05:52:21Z</time>
      </trkpt>
      <trkpt lat="42.814823" lon="-7.6679125">
        <time>2022-07-13T05:52:26Z</time>
      </trkpt>
      <trkpt lat="42.814846" lon="-7.667991">
        <time>2022-07-13T05:52:31Z</time>
      </trkpt>
      <trkpt lat="42.81487" lon="-7.668065">
        <time>2022-07-13T05:52:36Z</time>
      </trkpt>
      <trkpt lat="42.81488" lon="-7.6681294">
        <time>2022-07-13T05:52:40Z</time>
      </trkpt>
      <trkpt lat="42.814896" lon="-7.6681995">
        <time>2022-07-13T05:52:44Z</time>
      </trkpt>
      <trkpt lat="42.81491" lon="-7.6682763">
        <time>2022-07-13T05:52:49Z</time>
      </trkpt>
      <trkpt lat="42.81492" lon="-7.668339">
        <time>2022-07-13T05:52:53Z</time>
      </trkpt>
      <trkpt lat="42.814934" lon="-7.6684165">
        <time>2022-07-13T05:52:58Z</time>
      </trkpt>
      <trkpt lat="42.814953" lon="-7.6684933">
        <time>2022-07-13T05:53:03Z</time>
      </trkpt>
      <trkpt lat="42.814976" lon="-7.668574">
        <time>2022-07-13T05:53:08Z</time>
      </trkpt>
      <trkpt lat="42.815002" lon="-7.6686444">
        <time>2022-07-13T05:53:13Z</time>
      </trkpt>
      <trkpt lat="42.815033" lon="-7.6687016">
        <time>2022-07-13T05:53:17Z</time>
      </trkpt>
      <trkpt lat="42.815063" lon="-7.668759">
        <time>2022-07-13T05:53:21Z</time>
      </trkpt>
      <trkpt lat="42.81509" lon="-7.66882">
        <time>2022-07-13T05:53:25Z</time>
      </trkpt>
      <trkpt lat="42.81512" lon="-7.6688905">
        <time>2022-07-13T05:53:30Z</time>
      </trkpt>
      <trkpt lat="42.815147" lon="-7.668959">
        <time>2022-07-13T05:53:35Z</time>
      </trkpt>
      <trkpt lat="42.81517" lon="-7.6690364">
        <time>2022-07-13T05:53:40Z</time>
      </trkpt>
      <trkpt lat="42.81518" lon="-7.669117">
        <time>2022-07-13T05:53:45Z</time>
      </trkpt>
      <trkpt lat="42.81521" lon="-7.6691966">
        <time>2022-07-13T05:53:50Z</time>
      </trkpt>
      <trkpt lat="42.815228" lon="-7.669278">
        <time>2022-07-13T05:53:55Z</time>
      </trkpt>
      <trkpt lat="42.81525" lon="-7.6693463">
        <time>2022-07-13T05:53:59Z</time>
      </trkpt>
      <trkpt lat="42.815277" lon="-7.669409">
        <time>2022-07-13T05:54:03Z</time>
      </trkpt>
      <trkpt lat="42.815304" lon="-7.6694903">
        <time>2022-07-13T05:54:08Z</time>
      </trkpt>
      <trkpt lat="42.81533" lon="-7.6695666">
        <time>2022-07-13T05:54:12Z</time>
      </trkpt>
      <trkpt lat="42.81535" lon="-7.669625">
        <time>2022-07-13T05:54:16Z</time>
      </trkpt>
      <trkpt lat="42.815372" lon="-7.669699">
        <time>2022-07-13T05:54:21Z</time>
      </trkpt>
      <trkpt lat="42.8154" lon="-7.6697726">
        <time>2022-07-13T05:54:25Z</time>
      </trkpt>
      <trkpt lat="42.81542" lon="-7.669827">
        <time>2022-07-13T05:54:29Z</time>
      </trkpt>
      <trkpt lat="42.815456" lon="-7.6698856">
        <time>2022-07-13T05:54:34Z</time>
      </trkpt>
      <trkpt lat="42.815495" lon="-7.669938">
        <time>2022-07-13T05:54:38Z</time>
      </trkpt>
      <trkpt lat="42.81553" lon="-7.6700053">
        <time>2022-07-13T05:54:43Z</time>
      </trkpt>
      <trkpt lat="42.81556" lon="-7.6700864">
        <time>2022-07-13T05:54:48Z</time>
      </trkpt>
      <trkpt lat="42.815582" lon="-7.670151">
        <time>2022-07-13T05:54:52Z</time>
      </trkpt>
      <trkpt lat="42.815598" lon="-7.6702123">
        <time>2022-07-13T05:54:56Z</time>
      </trkpt>
      <trkpt lat="42.815624" lon="-7.670287">
        <time>2022-07-13T05:55:01Z</time>
      </trkpt>
      <trkpt lat="42.81565" lon="-7.6703506">
        <time>2022-07-13T05:55:06Z</time>
      </trkpt>
      <trkpt lat="42.815666" lon="-7.6704373">
        <time>2022-07-13T05:55:11Z</time>
      </trkpt>
      <trkpt lat="42.81569" lon="-7.670518">
        <time>2022-07-13T05:55:16Z</time>
      </trkpt>
      <trkpt lat="42.815697" lon="-7.670587">
        <time>2022-07-13T05:55:21Z</time>
      </trkpt>
      <trkpt lat="42.815712" lon="-7.6706676">
        <time>2022-07-13T05:55:26Z</time>
      </trkpt>
      <trkpt lat="42.815723" lon="-7.670724">
        <time>2022-07-13T05:55:30Z</time>
      </trkpt>
      <trkpt lat="42.81575" lon="-7.670792">
        <time>2022-07-13T05:55:35Z</time>
      </trkpt>
      <trkpt lat="42.815777" lon="-7.6708684">
        <time>2022-07-13T05:55:40Z</time>
      </trkpt>
      <trkpt lat="42.815804" lon="-7.670935">
        <time>2022-07-13T05:55:45Z</time>
      </trkpt>
      <trkpt lat="42.815838" lon="-7.671006">
        <time>2022-07-13T05:55:50Z</time>
      </trkpt>
      <trkpt lat="42.815865" lon="-7.67109">
        <time>2022-07-13T05:55:55Z</time>
      </trkpt>
      <trkpt lat="42.81588" lon="-7.6711783">
        <time>2022-07-13T05:55:59Z</time>
      </trkpt>
      <trkpt lat="42.81589" lon="-7.671239">
        <time>2022-07-13T05:56:02Z</time>
      </trkpt>
      <trkpt lat="42.815926" lon="-7.6713033">
        <time>2022-07-13T05:56:07Z</time>
      </trkpt>
      <trkpt lat="42.815956" lon="-7.6713614">
        <time>2022-07-13T05:56:11Z</time>
      </trkpt>
      <trkpt lat="42.815994" lon="-7.6714253">
        <time>2022-07-13T05:56:15Z</time>
      </trkpt>
      <trkpt lat="42.816013" lon="-7.6714916">
        <time>2022-07-13T05:56:19Z</time>
      </trkpt>
      <trkpt lat="42.81604" lon="-7.671553">
        <time>2022-07-13T05:56:24Z</time>
      </trkpt>
      <trkpt lat="42.816063" lon="-7.671632">
        <time>2022-07-13T05:56:30Z</time>
      </trkpt>
      <trkpt lat="42.816074" lon="-7.671696">
        <time>2022-07-13T05:56:33Z</time>
      </trkpt>
      <trkpt lat="42.816086" lon="-7.671759">
        <time>2022-07-13T05:56:37Z</time>
      </trkpt>
      <trkpt lat="42.816113" lon="-7.671839">
        <time>2022-07-13T05:56:42Z</time>
      </trkpt>
      <trkpt lat="42.81614" lon="-7.6719217">
        <time>2022-07-13T05:56:47Z</time>
      </trkpt>
      <trkpt lat="42.81616" lon="-7.671994">
        <time>2022-07-13T05:56:51Z</time>
      </trkpt>
      <trkpt lat="42.81618" lon="-7.6720614">
        <time>2022-07-13T05:56:55Z</time>
      </trkpt>
      <trkpt lat="42.816193" lon="-7.6721444">
        <time>2022-07-13T05:57:00Z</time>
      </trkpt>
      <trkpt lat="42.8162" lon="-7.672209">
        <time>2022-07-13T05:57:04Z</time>
      </trkpt>
      <trkpt lat="42.8162" lon="-7.672284">
        <time>2022-07-13T05:57:09Z</time>
      </trkpt>
      <trkpt lat="42.8162" lon="-7.672363">
        <time>2022-07-13T05:57:14Z</time>
      </trkpt>
      <trkpt lat="42.816196" lon="-7.6724367">
        <time>2022-07-13T05:57:19Z</time>
      </trkpt>
      <trkpt lat="42.816196" lon="-7.672519">
        <time>2022-07-13T05:57:24Z</time>
      </trkpt>
      <trkpt lat="42.8162" lon="-7.6725893">
        <time>2022-07-13T05:57:29Z</time>
      </trkpt>
      <trkpt lat="42.81621" lon="-7.672662">
        <time>2022-07-13T05:57:34Z</time>
      </trkpt>
      <trkpt lat="42.816216" lon="-7.6727304">
        <time>2022-07-13T05:57:38Z</time>
      </trkpt>
      <trkpt lat="42.816223" lon="-7.6728177">
        <time>2022-07-13T05:57:42Z</time>
      </trkpt>
      <trkpt lat="42.81623" lon="-7.672885">
        <time>2022-07-13T05:57:46Z</time>
      </trkpt>
      <trkpt lat="42.816227" lon="-7.67297">
        <time>2022-07-13T05:57:50Z</time>
      </trkpt>
      <trkpt lat="42.816235" lon="-7.6730347">
        <time>2022-07-13T05:57:54Z</time>
      </trkpt>
      <trkpt lat="42.816246" lon="-7.673107">
        <time>2022-07-13T05:57:59Z</time>
      </trkpt>
      <trkpt lat="42.816246" lon="-7.673197">
        <time>2022-07-13T05:58:03Z</time>
      </trkpt>
      <trkpt lat="42.81626" lon="-7.6732583">
        <time>2022-07-13T05:58:07Z</time>
      </trkpt>
      <trkpt lat="42.81627" lon="-7.6733394">
        <time>2022-07-13T05:58:11Z</time>
      </trkpt>
      <trkpt lat="42.81628" lon="-7.6734114">
        <time>2022-07-13T05:58:15Z</time>
      </trkpt>
      <trkpt lat="42.816284" lon="-7.673486">
        <time>2022-07-13T05:58:19Z</time>
      </trkpt>
      <trkpt lat="42.8163" lon="-7.673568">
        <time>2022-07-13T05:58:23Z</time>
      </trkpt>
      <trkpt lat="42.81631" lon="-7.673647">
        <time>2022-07-13T05:58:27Z</time>
      </trkpt>
      <trkpt lat="42.816326" lon="-7.673711">
        <time>2022-07-13T05:58:31Z</time>
      </trkpt>
      <trkpt lat="42.816353" lon="-7.6737986">
        <time>2022-07-13T05:58:36Z</time>
      </trkpt>
      <trkpt lat="42.816372" lon="-7.6738667">
        <time>2022-07-13T05:58:40Z</time>
      </trkpt>
      <trkpt lat="42.816395" lon="-7.6739287">
        <time>2022-07-13T05:58:44Z</time>
      </trkpt>
      <trkpt lat="42.81643" lon="-7.6739893">
        <time>2022-07-13T05:58:48Z</time>
      </trkpt>
      <trkpt lat="42.816456" lon="-7.674055">
        <time>2022-07-13T05:58:53Z</time>
      </trkpt>
      <trkpt lat="42.816494" lon="-7.6741138">
        <time>2022-07-13T05:58:57Z</time>
      </trkpt>
      <trkpt lat="42.81653" lon="-7.6741695">
        <time>2022-07-13T05:59:01Z</time>
      </trkpt>
      <trkpt lat="42.81656" lon="-7.674229">
        <time>2022-07-13T05:59:05Z</time>
      </trkpt>
      <trkpt lat="42.816597" lon="-7.674281">
        <time>2022-07-13T05:59:09Z</time>
      </trkpt>
      <trkpt lat="42.816643" lon="-7.6743326">
        <time>2022-07-13T05:59:14Z</time>
      </trkpt>
      <trkpt lat="42.81669" lon="-7.6743846">
        <time>2022-07-13T05:59:18Z</time>
      </trkpt>
      <trkpt lat="42.81673" lon="-7.6744313">
        <time>2022-07-13T05:59:22Z</time>
      </trkpt>
      <trkpt lat="42.81677" lon="-7.6744766">
        <time>2022-07-13T05:59:26Z</time>
      </trkpt>
      <trkpt lat="42.81681" lon="-7.674526">
        <time>2022-07-13T05:59:30Z</time>
      </trkpt>
      <trkpt lat="42.81685" lon="-7.674571">
        <time>2022-07-13T05:59:34Z</time>
      </trkpt>
      <trkpt lat="42.816895" lon="-7.67463">
        <time>2022-07-13T05:59:39Z</time>
      </trkpt>
      <trkpt lat="42.816936" lon="-7.674677">
        <time>2022-07-13T05:59:43Z</time>
      </trkpt>
      <trkpt lat="42.81698" lon="-7.6747384">
        <time>2022-07-13T05:59:48Z</time>
      </trkpt>
      <trkpt lat="42.81702" lon="-7.674792">
        <time>2022-07-13T05:59:52Z</time>
      </trkpt>
      <trkpt lat="42.817066" lon="-7.6748405">
        <time>2022-07-13T05:59:56Z</time>
      </trkpt>
      <trkpt lat="42.8171" lon="-7.674878">
        <time>2022-07-13T06:00:00Z</time>
      </trkpt>
      <trkpt lat="42.817135" lon="-7.6749434">
        <time>2022-07-13T06:00:04Z</time>
      </trkpt>
      <trkpt lat="42.817177" lon="-7.674994">
        <time>2022-07-13T06:00:08Z</time>
      </trkpt>
      <trkpt lat="42.817223" lon="-7.6750464">
        <time>2022-07-13T06:00:13Z</time>
      </trkpt>
      <trkpt lat="42.817276" lon="-7.675086">
        <time>2022-07-13T06:00:17Z</time>
      </trkpt>
      <trkpt lat="42.817326" lon="-7.675121">
        <time>2022-07-13T06:00:21Z</time>
      </trkpt>
      <trkpt lat="42.817375" lon="-7.675153">
        <time>2022-07-13T06:00:25Z</time>
      </trkpt>
      <trkpt lat="42.817417" lon="-7.6751885">
        <time>2022-07-13T06:00:29Z</time>
      </trkpt>
      <trkpt lat="42.817463" lon="-7.6752324">
        <time>2022-07-13T06:00:34Z</time>
      </trkpt>
      <trkpt lat="42.817516" lon="-7.6752715">
        <time>2022-07-13T06:00:39Z</time>
      </trkpt>
      <trkpt lat="42.81757" lon="-7.6753025">
        <time>2022-07-13T06:00:43Z</time>
      </trkpt>
      <trkpt lat="42.817616" lon="-7.6753306">
        <time>2022-07-13T06:00:47Z</time>
      </trkpt>
      <trkpt lat="42.817665" lon="-7.6753764">
        <time>2022-07-13T06:00:52Z</time>
      </trkpt>
      <trkpt lat="42.81771" lon="-7.675417">
        <time>2022-07-13T06:00:56Z</time>
      </trkpt>
      <trkpt lat="42.81776" lon="-7.6754546">
        <time>2022-07-13T06:01:01Z</time>
      </trkpt>
      <trkpt lat="42.817814" lon="-7.675476">
        <time>2022-07-13T06:01:05Z</time>
      </trkpt>
      <trkpt lat="42.81786" lon="-7.67551">
        <time>2022-07-13T06:01:09Z</time>
      </trkpt>
      <trkpt lat="42.817924" lon="-7.6755295">
        <time>2022-07-13T06:01:14Z</time>
      </trkpt>
      <trkpt lat="42.817974" lon="-7.675544">
        <time>2022-07-13T06:01:17Z</time>
      </trkpt>
      <trkpt lat="42.81802" lon="-7.675563">
        <time>2022-07-13T06:01:21Z</time>
      </trkpt>
      <trkpt lat="42.81807" lon="-7.675587">
        <time>2022-07-13T06:01:26Z</time>
      </trkpt>
      <trkpt lat="42.81812" lon="-7.675622">
        <time>2022-07-13T06:01:31Z</time>
      </trkpt>
      <trkpt lat="42.818176" lon="-7.6756587">
        <time>2022-07-13T06:01:36Z</time>
      </trkpt>
      <trkpt lat="42.818226" lon="-7.6756988">
        <time>2022-07-13T06:01:41Z</time>
      </trkpt>
      <trkpt lat="42.81827" lon="-7.6757436">
        <time>2022-07-13T06:01:46Z</time>
      </trkpt>
      <trkpt lat="42.818314" lon="-7.6757913">
        <time>2022-07-13T06:01:50Z</time>
      </trkpt>
      <trkpt lat="42.81836" lon="-7.675849">
        <time>2022-07-13T06:01:55Z</time>
      </trkpt>
      <trkpt lat="42.81841" lon="-7.67589">
        <time>2022-07-13T06:01:59Z</time>
      </trkpt>
      <trkpt lat="42.81847" lon="-7.6759343">
        <time>2022-07-13T06:02:03Z</time>
      </trkpt>
      <trkpt lat="42.818512" lon="-7.6759663">
        <time>2022-07-13T06:02:06Z</time>
      </trkpt>
      <trkpt lat="42.818554" lon="-7.6759953">
        <time>2022-07-13T06:02:10Z</time>
      </trkpt>
      <trkpt lat="42.818604" lon="-7.676039">
        <time>2022-07-13T06:02:14Z</time>
      </trkpt>
      <trkpt lat="42.818657" lon="-7.6760664">
        <time>2022-07-13T06:02:18Z</time>
      </trkpt>
      <trkpt lat="42.818707" lon="-7.6760917">
        <time>2022-07-13T06:02:22Z</time>
      </trkpt>
      <trkpt lat="42.81875" lon="-7.6761208">
        <time>2022-07-13T06:02:26Z</time>
      </trkpt>
      <trkpt lat="42.818806" lon="-7.676169">
        <time>2022-07-13T06:02:31Z</time>
      </trkpt>
      <trkpt lat="42.818855" lon="-7.6762094">
        <time>2022-07-13T06:02:35Z</time>
      </trkpt>
      <trkpt lat="42.818897" lon="-7.676247">
        <time>2022-07-13T06:02:39Z</time>
      </trkpt>
      <trkpt lat="42.818935" lon="-7.6762853">
        <time>2022-07-13T06:02:43Z</time>
      </trkpt>
      <trkpt lat="42.81899" lon="-7.676327">
        <time>2022-07-13T06:02:48Z</time>
      </trkpt>
      <trkpt lat="42.81903" lon="-7.676376">
        <time>2022-07-13T06:02:52Z</time>
      </trkpt>
      <trkpt lat="42.81907" lon="-7.676438">
        <time>2022-07-13T06:02:56Z</time>
      </trkpt>
      <trkpt lat="42.819103" lon="-7.6765003">
        <time>2022-07-13T06:03:00Z</time>
      </trkpt>
      <trkpt lat="42.81914" lon="-7.676556">
        <time>2022-07-13T06:03:04Z</time>
      </trkpt>
      <trkpt lat="42.819183" lon="-7.6766005">
        <time>2022-07-13T06:03:08Z</time>
      </trkpt>
      <trkpt lat="42.819225" lon="-7.6766453">
        <time>2022-07-13T06:03:12Z</time>
      </trkpt>
      <trkpt lat="42.819283" lon="-7.6766825">
        <time>2022-07-13T06:03:17Z</time>
      </trkpt>
      <trkpt lat="42.81934" lon="-7.676685">
        <time>2022-07-13T06:03:21Z</time>
      </trkpt>
      <trkpt lat="42.81938" lon="-7.6766534">
        <time>2022-07-13T06:03:25Z</time>
      </trkpt>
      <trkpt lat="42.81943" lon="-7.676616">
        <time>2022-07-13T06:03:29Z</time>
      </trkpt>
      <trkpt lat="42.819504" lon="-7.6765723">
        <time>2022-07-13T06:03:33Z</time>
      </trkpt>
      <trkpt lat="42.819527" lon="-7.6765647">
        <time>2022-07-13T06:03:37Z</time>
      </trkpt>
      <trkpt lat="42.819576" lon="-7.676571">
        <time>2022-07-13T06:03:42Z</time>
      </trkpt>
      <trkpt lat="42.81963" lon="-7.6765895">
        <time>2022-07-13T06:03:47Z</time>
      </trkpt>
      <trkpt lat="42.81967" lon="-7.6766405">
        <time>2022-07-13T06:03:52Z</time>
      </trkpt>
      <trkpt lat="42.819706" lon="-7.676707">
        <time>2022-07-13T06:03:57Z</time>
      </trkpt>
      <trkpt lat="42.819744" lon="-7.6767745">
        <time>2022-07-13T06:04:02Z</time>
      </trkpt>
      <trkpt lat="42.819782" lon="-7.6768446">
        <time>2022-07-13T06:04:07Z</time>
      </trkpt>
      <trkpt lat="42.819813" lon="-7.676907">
        <time>2022-07-13T06:04:11Z</time>
      </trkpt>
      <trkpt lat="42.819843" lon="-7.676964">
        <time>2022-07-13T06:04:15Z</time>
      </trkpt>
      <trkpt lat="42.819878" lon="-7.6770334">
        <time>2022-07-13T06:04:20Z</time>
      </trkpt>
      <trkpt lat="42.819912" lon="-7.6771016">
        <time>2022-07-13T06:04:25Z</time>
      </trkpt>
      <trkpt lat="42.819942" lon="-7.677159">
        <time>2022-07-13T06:04:29Z</time>
      </trkpt>
      <trkpt lat="42.819973" lon="-7.6772203">
        <time>2022-07-13T06:04:33Z</time>
      </trkpt>
      <trkpt lat="42.820004" lon="-7.6772766">
        <time>2022-07-13T06:04:37Z</time>
      </trkpt>
      <trkpt lat="42.820034" lon="-7.6773343">
        <time>2022-07-13T06:04:41Z</time>
      </trkpt>
      <trkpt lat="42.820072" lon="-7.677404">
        <time>2022-07-13T06:04:46Z</time>
      </trkpt>
      <trkpt lat="42.820107" lon="-7.6774654">
        <time>2022-07-13T06:04:50Z</time>
      </trkpt>
      <trkpt lat="42.820133" lon="-7.677528">
        <time>2022-07-13T06:04:54Z</time>
      </trkpt>
      <trkpt lat="42.82016" lon="-7.67759">
        <time>2022-07-13T06:04:58Z</time>
      </trkpt>
      <trkpt lat="42.820175" lon="-7.677657">
        <time>2022-07-13T06:05:02Z</time>
      </trkpt>
      <trkpt lat="42.82019" lon="-7.677735">
        <time>2022-07-13T06:05:07Z</time>
      </trkpt>
      <trkpt lat="42.820198" lon="-7.677828">
        <time>2022-07-13T06:05:12Z</time>
      </trkpt>
      <trkpt lat="42.82021" lon="-7.677911">
        <time>2022-07-13T06:05:15Z</time>
      </trkpt>
      <trkpt lat="42.820232" lon="-7.6779966">
        <time>2022-07-13T06:05:21Z</time>
      </trkpt>
      <trkpt lat="42.82026" lon="-7.6780686">
        <time>2022-07-13T06:05:26Z</time>
      </trkpt>
      <trkpt lat="42.82028" lon="-7.678126">
        <time>2022-07-13T06:05:30Z</time>
      </trkpt>
      <trkpt lat="42.820305" lon="-7.678195">
        <time>2022-07-13T06:05:35Z</time>
      </trkpt>
      <trkpt lat="42.820347" lon="-7.67824">
        <time>2022-07-13T06:05:39Z</time>
      </trkpt>
      <trkpt lat="42.82039" lon="-7.678282">
        <time>2022-07-13T06:05:43Z</time>
      </trkpt>
      <trkpt lat="42.820435" lon="-7.6783323">
        <time>2022-07-13T06:05:47Z</time>
      </trkpt>
      <trkpt lat="42.820473" lon="-7.678376">
        <time>2022-07-13T06:05:51Z</time>
      </trkpt>
      <trkpt lat="42.820522" lon="-7.6784296">
        <time>2022-07-13T06:05:56Z</time>
      </trkpt>
      <trkpt lat="42.820568" lon="-7.678479">
        <time>2022-07-13T06:06:01Z</time>
      </trkpt>
      <trkpt lat="42.820602" lon="-7.678522">
        <time>2022-07-13T06:06:05Z</time>
      </trkpt>
      <trkpt lat="42.820644" lon="-7.678578">
        <time>2022-07-13T06:06:10Z</time>
      </trkpt>
      <trkpt lat="42.820675" lon="-7.6786304">
        <time>2022-07-13T06:06:14Z</time>
      </trkpt>
      <trkpt lat="42.82071" lon="-7.6786904">
        <time>2022-07-13T06:06:18Z</time>
      </trkpt>
      <trkpt lat="42.82075" lon="-7.6787477">
        <time>2022-07-13T06:06:22Z</time>
      </trkpt>
      <trkpt lat="42.82079" lon="-7.6787987">
        <time>2022-07-13T06:06:26Z</time>
      </trkpt>
      <trkpt lat="42.82082" lon="-7.6788545">
        <time>2022-07-13T06:06:30Z</time>
      </trkpt>
      <trkpt lat="42.820854" lon="-7.6789064">
        <time>2022-07-13T06:06:34Z</time>
      </trkpt>
      <trkpt lat="42.82089" lon="-7.6789713">
        <time>2022-07-13T06:06:39Z</time>
      </trkpt>
      <trkpt lat="42.82094" lon="-7.6790514">
        <time>2022-07-13T06:06:44Z</time>
      </trkpt>
      <trkpt lat="42.820965" lon="-7.67912">
        <time>2022-07-13T06:06:50Z</time>
      </trkpt>
      <trkpt lat="42.820995" lon="-7.6791906">
        <time>2022-07-13T06:06:55Z</time>
      </trkpt>
      <trkpt lat="42.82102" lon="-7.6792517">
        <time>2022-07-13T06:06:59Z</time>
      </trkpt>
      <trkpt lat="42.821037" lon="-7.6793294">
        <time>2022-07-13T06:07:04Z</time>
      </trkpt>
      <trkpt lat="42.821056" lon="-7.6794114">
        <time>2022-07-13T06:07:09Z</time>
      </trkpt>
      <trkpt lat="42.821075" lon="-7.679497">
        <time>2022-07-13T06:07:14Z</time>
      </trkpt>
      <trkpt lat="42.82109" lon="-7.679563">
        <time>2022-07-13T06:07:18Z</time>
      </trkpt>
      <trkpt lat="42.821102" lon="-7.6796436">
        <time>2022-07-13T06:07:23Z</time>
      </trkpt>
      <trkpt lat="42.821117" lon="-7.679704">
        <time>2022-07-13T06:07:27Z</time>
      </trkpt>
      <trkpt lat="42.821136" lon="-7.679784">
        <time>2022-07-13T06:07:32Z</time>
      </trkpt>
      <trkpt lat="42.821156" lon="-7.679866">
        <time>2022-07-13T06:07:37Z</time>
      </trkpt>
      <trkpt lat="42.821175" lon="-7.6799445">
        <time>2022-07-13T06:07:42Z</time>
      </trkpt>
      <trkpt lat="42.821186" lon="-7.6800094">
        <time>2022-07-13T06:07:46Z</time>
      </trkpt>
      <trkpt lat="42.821194" lon="-7.6800923">
        <time>2022-07-13T06:07:51Z</time>
      </trkpt>
      <trkpt lat="42.82121" lon="-7.680176">
        <time>2022-07-13T06:07:56Z</time>
      </trkpt>
      <trkpt lat="42.821217" lon="-7.6802607">
        <time>2022-07-13T06:08:01Z</time>
      </trkpt>
      <trkpt lat="42.82123" lon="-7.680342">
        <time>2022-07-13T06:08:06Z</time>
      </trkpt>
      <trkpt lat="42.821247" lon="-7.680429">
        <time>2022-07-13T06:08:11Z</time>
      </trkpt>
      <trkpt lat="42.82125" lon="-7.680504">
        <time>2022-07-13T06:08:15Z</time>
      </trkpt>
      <trkpt lat="42.821262" lon="-7.6805754">
        <time>2022-07-13T06:08:19Z</time>
      </trkpt>
      <trkpt lat="42.821274" lon="-7.680646">
        <time>2022-07-13T06:08:23Z</time>
      </trkpt>
      <trkpt lat="42.82129" lon="-7.680717">
        <time>2022-07-13T06:08:27Z</time>
      </trkpt>
      <trkpt lat="42.821304" lon="-7.680778">
        <time>2022-07-13T06:08:31Z</time>
      </trkpt>
      <trkpt lat="42.821327" lon="-7.680843">
        <time>2022-07-13T06:08:37Z</time>
      </trkpt>
      <trkpt lat="42.82135" lon="-7.6809144">
        <time>2022-07-13T06:08:43Z</time>
      </trkpt>
      <trkpt lat="42.82137" lon="-7.6809845">
        <time>2022-07-13T06:08:48Z</time>
      </trkpt>
      <trkpt lat="42.821373" lon="-7.681062">
        <time>2022-07-13T06:08:53Z</time>
      </trkpt>
      <trkpt lat="42.82138" lon="-7.681135">
        <time>2022-07-13T06:08:57Z</time>
      </trkpt>
      <trkpt lat="42.821392" lon="-7.68121">
        <time>2022-07-13T06:09:01Z</time>
      </trkpt>
      <trkpt lat="42.8214" lon="-7.681286">
        <time>2022-07-13T06:09:05Z</time>
      </trkpt>
      <trkpt lat="42.82141" lon="-7.681331">
        <time>2022-07-13T06:09:33Z</time>
      </trkpt>
      <trkpt lat="42.821423" lon="-7.681419">
        <time>2022-07-13T06:09:38Z</time>
      </trkpt>
      <trkpt lat="42.821434" lon="-7.6814923">
        <time>2022-07-13T06:09:41Z</time>
      </trkpt>
      <trkpt lat="42.821445" lon="-7.68155">
        <time>2022-07-13T06:09:44Z</time>
      </trkpt>
      <trkpt lat="42.821453" lon="-7.6816335">
        <time>2022-07-13T06:09:49Z</time>
      </trkpt>
      <trkpt lat="42.821457" lon="-7.6817107">
        <time>2022-07-13T06:09:53Z</time>
      </trkpt>
      <trkpt lat="42.82147" lon="-7.681789">
        <time>2022-07-13T06:09:57Z</time>
      </trkpt>
      <trkpt lat="42.821476" lon="-7.6818666">
        <time>2022-07-13T06:10:01Z</time>
      </trkpt>
      <trkpt lat="42.821487" lon="-7.681935">
        <time>2022-07-13T06:10:05Z</time>
      </trkpt>
      <trkpt lat="42.821503" lon="-7.6820107">
        <time>2022-07-13T06:10:09Z</time>
      </trkpt>
      <trkpt lat="42.821518" lon="-7.6820846">
        <time>2022-07-13T06:10:13Z</time>
      </trkpt>
      <trkpt lat="42.821526" lon="-7.682159">
        <time>2022-07-13T06:10:17Z</time>
      </trkpt>
      <trkpt lat="42.821537" lon="-7.6822305">
        <time>2022-07-13T06:10:21Z</time>
      </trkpt>
      <trkpt lat="42.82154" lon="-7.6823087">
        <time>2022-07-13T06:10:26Z</time>
      </trkpt>
      <trkpt lat="42.821556" lon="-7.6823936">
        <time>2022-07-13T06:10:31Z</time>
      </trkpt>
      <trkpt lat="42.821564" lon="-7.682469">
        <time>2022-07-13T06:10:35Z</time>
      </trkpt>
      <trkpt lat="42.821575" lon="-7.682542">
        <time>2022-07-13T06:10:39Z</time>
      </trkpt>
      <trkpt lat="42.82159" lon="-7.682614">
        <time>2022-07-13T06:10:43Z</time>
      </trkpt>
      <trkpt lat="42.82161" lon="-7.682684">
        <time>2022-07-13T06:10:47Z</time>
      </trkpt>
      <trkpt lat="42.821617" lon="-7.682761">
        <time>2022-07-13T06:10:51Z</time>
      </trkpt>
      <trkpt lat="42.821632" lon="-7.682833">
        <time>2022-07-13T06:10:55Z</time>
      </trkpt>
      <trkpt lat="42.82165" lon="-7.682905">
        <time>2022-07-13T06:10:59Z</time>
      </trkpt>
      <trkpt lat="42.821663" lon="-7.682968">
        <time>2022-07-13T06:11:02Z</time>
      </trkpt>
      <trkpt lat="42.82168" lon="-7.683039">
        <time>2022-07-13T06:11:06Z</time>
      </trkpt>
      <trkpt lat="42.821697" lon="-7.6831045">
        <time>2022-07-13T06:11:10Z</time>
      </trkpt>
      <trkpt lat="42.821712" lon="-7.683173">
        <time>2022-07-13T06:11:14Z</time>
      </trkpt>
      <trkpt lat="42.821724" lon="-7.683257">
        <time>2022-07-13T06:11:19Z</time>
      </trkpt>
      <trkpt lat="42.82173" lon="-7.6833487">
        <time>2022-07-13T06:11:24Z</time>
      </trkpt>
      <trkpt lat="42.82175" lon="-7.6834273">
        <time>2022-07-13T06:11:28Z</time>
      </trkpt>
      <trkpt lat="42.82176" lon="-7.683501">
        <time>2022-07-13T06:11:32Z</time>
      </trkpt>
      <trkpt lat="42.821766" lon="-7.6835685">
        <time>2022-07-13T06:11:36Z</time>
      </trkpt>
      <trkpt lat="42.821777" lon="-7.6836452">
        <time>2022-07-13T06:11:41Z</time>
      </trkpt>
      <trkpt lat="42.82178" lon="-7.6837096">
        <time>2022-07-13T06:11:45Z</time>
      </trkpt>
      <trkpt lat="42.8218" lon="-7.6837893">
        <time>2022-07-13T06:11:50Z</time>
      </trkpt>
      <trkpt lat="42.82181" lon="-7.6838536">
        <time>2022-07-13T06:11:54Z</time>
      </trkpt>
      <trkpt lat="42.821827" lon="-7.683936">
        <time>2022-07-13T06:11:59Z</time>
      </trkpt>
      <trkpt lat="42.821842" lon="-7.6840096">
        <time>2022-07-13T06:12:03Z</time>
      </trkpt>
      <trkpt lat="42.821846" lon="-7.684093">
        <time>2022-07-13T06:12:07Z</time>
      </trkpt>
      <trkpt lat="42.821846" lon="-7.684152">
        <time>2022-07-13T06:12:10Z</time>
      </trkpt>
      <trkpt lat="42.821865" lon="-7.68424">
        <time>2022-07-13T06:12:15Z</time>
      </trkpt>
      <trkpt lat="42.821877" lon="-7.684316">
        <time>2022-07-13T06:12:19Z</time>
      </trkpt>
      <trkpt lat="42.821888" lon="-7.684387">
        <time>2022-07-13T06:12:23Z</time>
      </trkpt>
      <trkpt lat="42.82189" lon="-7.6844597">
        <time>2022-07-13T06:12:27Z</time>
      </trkpt>
      <trkpt lat="42.821903" lon="-7.684539">
        <time>2022-07-13T06:12:32Z</time>
      </trkpt>
      <trkpt lat="42.821907" lon="-7.684615">
        <time>2022-07-13T06:12:37Z</time>
      </trkpt>
      <trkpt lat="42.821903" lon="-7.6846924">
        <time>2022-07-13T06:12:42Z</time>
      </trkpt>
      <trkpt lat="42.82192" lon="-7.6847644">
        <time>2022-07-13T06:12:46Z</time>
      </trkpt>
      <trkpt lat="42.821926" lon="-7.6848392">
        <time>2022-07-13T06:12:50Z</time>
      </trkpt>
      <trkpt lat="42.82194" lon="-7.6849084">
        <time>2022-07-13T06:12:54Z</time>
      </trkpt>
      <trkpt lat="42.82196" lon="-7.684987">
        <time>2022-07-13T06:12:59Z</time>
      </trkpt>
      <trkpt lat="42.821968" lon="-7.6850715">
        <time>2022-07-13T06:13:04Z</time>
      </trkpt>
      <trkpt lat="42.821987" lon="-7.6851535">
        <time>2022-07-13T06:13:09Z</time>
      </trkpt>
      <trkpt lat="42.822006" lon="-7.6852245">
        <time>2022-07-13T06:13:13Z</time>
      </trkpt>
      <trkpt lat="42.822014" lon="-7.685303">
        <time>2022-07-13T06:13:17Z</time>
      </trkpt>
      <trkpt lat="42.822033" lon="-7.685367">
        <time>2022-07-13T06:13:21Z</time>
      </trkpt>
      <trkpt lat="42.822044" lon="-7.6854296">
        <time>2022-07-13T06:13:25Z</time>
      </trkpt>
      <trkpt lat="42.82206" lon="-7.6855106">
        <time>2022-07-13T06:13:30Z</time>
      </trkpt>
      <trkpt lat="42.82207" lon="-7.6855717">
        <time>2022-07-13T06:13:34Z</time>
      </trkpt>
      <trkpt lat="42.822086" lon="-7.685659">
        <time>2022-07-13T06:13:39Z</time>
      </trkpt>
      <trkpt lat="42.822105" lon="-7.6857285">
        <time>2022-07-13T06:13:43Z</time>
      </trkpt>
      <trkpt lat="42.82212" lon="-7.685792">
        <time>2022-07-13T06:13:47Z</time>
      </trkpt>
      <trkpt lat="42.822136" lon="-7.685874">
        <time>2022-07-13T06:13:52Z</time>
      </trkpt>
      <trkpt lat="42.82215" lon="-7.685956">
        <time>2022-07-13T06:13:57Z</time>
      </trkpt>
      <trkpt lat="42.822166" lon="-7.6860476">
        <time>2022-07-13T06:14:02Z</time>
      </trkpt>
      <trkpt lat="42.82217" lon="-7.686119">
        <time>2022-07-13T06:14:06Z</time>
      </trkpt>
      <trkpt lat="42.82219" lon="-7.6861825">
        <time>2022-07-13T06:14:10Z</time>
      </trkpt>
      <trkpt lat="42.822216" lon="-7.6862535">
        <time>2022-07-13T06:14:15Z</time>
      </trkpt>
      <trkpt lat="42.822247" lon="-7.6863217">
        <time>2022-07-13T06:14:19Z</time>
      </trkpt>
      <trkpt lat="42.822277" lon="-7.6863885">
        <time>2022-07-13T06:14:23Z</time>
      </trkpt>
      <trkpt lat="42.8223" lon="-7.6864448">
        <time>2022-07-13T06:14:27Z</time>
      </trkpt>
      <trkpt lat="42.82233" lon="-7.686506">
        <time>2022-07-13T06:14:31Z</time>
      </trkpt>
      <trkpt lat="42.822365" lon="-7.686576">
        <time>2022-07-13T06:14:36Z</time>
      </trkpt>
      <trkpt lat="42.8224" lon="-7.68664">
        <time>2022-07-13T06:14:41Z</time>
      </trkpt>
      <trkpt lat="42.822426" lon="-7.6866965">
        <time>2022-07-13T06:14:45Z</time>
      </trkpt>
      <trkpt lat="42.822468" lon="-7.6867533">
        <time>2022-07-13T06:14:50Z</time>
      </trkpt>
      <trkpt lat="42.822506" lon="-7.6868114">
        <time>2022-07-13T06:14:55Z</time>
      </trkpt>
      <trkpt lat="42.822533" lon="-7.6868825">
        <time>2022-07-13T06:14:59Z</time>
      </trkpt>
      <trkpt lat="42.822563" lon="-7.6869397">
        <time>2022-07-13T06:15:03Z</time>
      </trkpt>
      <trkpt lat="42.822598" lon="-7.6869903">
        <time>2022-07-13T06:15:07Z</time>
      </trkpt>
      <trkpt lat="42.822624" lon="-7.687063">
        <time>2022-07-13T06:15:12Z</time>
      </trkpt>
      <trkpt lat="42.822655" lon="-7.68714">
        <time>2022-07-13T06:15:17Z</time>
      </trkpt>
      <trkpt lat="42.822693" lon="-7.6872044">
        <time>2022-07-13T06:15:21Z</time>
      </trkpt>
      <trkpt lat="42.82273" lon="-7.687258">
        <time>2022-07-13T06:15:25Z</time>
      </trkpt>
      <trkpt lat="42.82277" lon="-7.687314">
        <time>2022-07-13T06:15:29Z</time>
      </trkpt>
      <trkpt lat="42.822803" lon="-7.68737">
        <time>2022-07-13T06:15:33Z</time>
      </trkpt>
      <trkpt lat="42.822834" lon="-7.687426">
        <time>2022-07-13T06:15:37Z</time>
      </trkpt>
      <trkpt lat="42.82287" lon="-7.6874933">
        <time>2022-07-13T06:15:42Z</time>
      </trkpt>
      <trkpt lat="42.822903" lon="-7.6875486">
        <time>2022-07-13T06:15:47Z</time>
      </trkpt>
      <trkpt lat="42.822933" lon="-7.687613">
        <time>2022-07-13T06:15:52Z</time>
      </trkpt>
      <trkpt lat="42.822964" lon="-7.687672">
        <time>2022-07-13T06:15:57Z</time>
      </trkpt>
      <trkpt lat="42.823006" lon="-7.6877346">
        <time>2022-07-13T06:16:02Z</time>
      </trkpt>
      <trkpt lat="42.82304" lon="-7.687792">
        <time>2022-07-13T06:16:06Z</time>
      </trkpt>
      <trkpt lat="42.82308" lon="-7.687844">
        <time>2022-07-13T06:16:10Z</time>
      </trkpt>
      <trkpt lat="42.82312" lon="-7.6879067">
        <time>2022-07-13T06:16:15Z</time>
      </trkpt>
      <trkpt lat="42.823166" lon="-7.6879787">
        <time>2022-07-13T06:16:20Z</time>
      </trkpt>
      <trkpt lat="42.823208" lon="-7.688031">
        <time>2022-07-13T06:16:24Z</time>
      </trkpt>
      <trkpt lat="42.82324" lon="-7.6880865">
        <time>2022-07-13T06:16:28Z</time>
      </trkpt>
      <trkpt lat="42.82326" lon="-7.688156">
        <time>2022-07-13T06:16:33Z</time>
      </trkpt>
      <trkpt lat="42.823284" lon="-7.688223">
        <time>2022-07-13T06:16:38Z</time>
      </trkpt>
      <trkpt lat="42.823303" lon="-7.68829">
        <time>2022-07-13T06:16:43Z</time>
      </trkpt>
      <trkpt lat="42.82333" lon="-7.68836">
        <time>2022-07-13T06:16:48Z</time>
      </trkpt>
      <trkpt lat="42.823353" lon="-7.6884203">
        <time>2022-07-13T06:16:52Z</time>
      </trkpt>
      <trkpt lat="42.823387" lon="-7.688476">
        <time>2022-07-13T06:16:56Z</time>
      </trkpt>
      <trkpt lat="42.82341" lon="-7.688549">
        <time>2022-07-13T06:17:01Z</time>
      </trkpt>
      <trkpt lat="42.82344" lon="-7.6886163">
        <time>2022-07-13T06:17:05Z</time>
      </trkpt>
      <trkpt lat="42.823475" lon="-7.688669">
        <time>2022-07-13T06:17:09Z</time>
      </trkpt>
      <trkpt lat="42.823505" lon="-7.6887336">
        <time>2022-07-13T06:17:14Z</time>
      </trkpt>
      <trkpt lat="42.823536" lon="-7.688792">
        <time>2022-07-13T06:17:18Z</time>
      </trkpt>
      <trkpt lat="42.823566" lon="-7.6888595">
        <time>2022-07-13T06:17:23Z</time>
      </trkpt>
      <trkpt lat="42.82361" lon="-7.688929">
        <time>2022-07-13T06:17:27Z</time>
      </trkpt>
      <trkpt lat="42.82364" lon="-7.688979">
        <time>2022-07-13T06:17:31Z</time>
      </trkpt>
      <trkpt lat="42.823673" lon="-7.6890364">
        <time>2022-07-13T06:17:36Z</time>
      </trkpt>
      <trkpt lat="42.823715" lon="-7.6890783">
        <time>2022-07-13T06:17:39Z</time>
      </trkpt>
      <trkpt lat="42.823753" lon="-7.6891403">
        <time>2022-07-13T06:17:43Z</time>
      </trkpt>
      <trkpt lat="42.823784" lon="-7.689191">
        <time>2022-07-13T06:17:47Z</time>
      </trkpt>
      <trkpt lat="42.823803" lon="-7.68925">
        <time>2022-07-13T06:17:52Z</time>
      </trkpt>
      <trkpt lat="42.823826" lon="-7.6893244">
        <time>2022-07-13T06:17:57Z</time>
      </trkpt>
      <trkpt lat="42.82386" lon="-7.689387">
        <time>2022-07-13T06:18:01Z</time>
      </trkpt>
      <trkpt lat="42.823902" lon="-7.689448">
        <time>2022-07-13T06:18:05Z</time>
      </trkpt>
      <trkpt lat="42.82394" lon="-7.689491">
        <time>2022-07-13T06:18:09Z</time>
      </trkpt>
      <trkpt lat="42.82397" lon="-7.689561">
        <time>2022-07-13T06:18:14Z</time>
      </trkpt>
      <trkpt lat="42.824005" lon="-7.6896257">
        <time>2022-07-13T06:18:20Z</time>
      </trkpt>
      <trkpt lat="42.82405" lon="-7.6896825">
        <time>2022-07-13T06:18:25Z</time>
      </trkpt>
      <trkpt lat="42.824085" lon="-7.6897416">
        <time>2022-07-13T06:18:29Z</time>
      </trkpt>
      <trkpt lat="42.824116" lon="-7.6897807">
        <time>2022-07-13T06:18:33Z</time>
      </trkpt>
      <trkpt lat="42.82416" lon="-7.6898313">
        <time>2022-07-13T06:18:40Z</time>
      </trkpt>
      <trkpt lat="42.8242" lon="-7.6898856">
        <time>2022-07-13T06:18:45Z</time>
      </trkpt>
      <trkpt lat="42.82423" lon="-7.689941">
        <time>2022-07-13T06:18:49Z</time>
      </trkpt>
      <trkpt lat="42.824272" lon="-7.6900005">
        <time>2022-07-13T06:18:54Z</time>
      </trkpt>
      <trkpt lat="42.82431" lon="-7.690044">
        <time>2022-07-13T06:18:58Z</time>
      </trkpt>
      <trkpt lat="42.82435" lon="-7.6901064">
        <time>2022-07-13T06:19:03Z</time>
      </trkpt>
      <trkpt lat="42.824387" lon="-7.6901646">
        <time>2022-07-13T06:19:08Z</time>
      </trkpt>
      <trkpt lat="42.82443" lon="-7.6902122">
        <time>2022-07-13T06:19:13Z</time>
      </trkpt>
      <trkpt lat="42.82449" lon="-7.6902833">
        <time>2022-07-13T06:19:18Z</time>
      </trkpt>
      <trkpt lat="42.824512" lon="-7.6903214">
        <time>2022-07-13T06:19:23Z</time>
      </trkpt>
      <trkpt lat="42.82454" lon="-7.690389">
        <time>2022-07-13T06:19:28Z</time>
      </trkpt>
      <trkpt lat="42.82457" lon="-7.690458">
        <time>2022-07-13T06:19:33Z</time>
      </trkpt>
      <trkpt lat="42.824596" lon="-7.6905255">
        <time>2022-07-13T06:19:38Z</time>
      </trkpt>
      <trkpt lat="42.824615" lon="-7.6905837">
        <time>2022-07-13T06:19:42Z</time>
      </trkpt>
      <trkpt lat="42.824642" lon="-7.690661">
        <time>2022-07-13T06:19:47Z</time>
      </trkpt>
      <trkpt lat="42.82467" lon="-7.690726">
        <time>2022-07-13T06:19:51Z</time>
      </trkpt>
      <trkpt lat="42.824696" lon="-7.690803">
        <time>2022-07-13T06:19:56Z</time>
      </trkpt>
      <trkpt lat="42.82472" lon="-7.690883">
        <time>2022-07-13T06:20:01Z</time>
      </trkpt>
      <trkpt lat="42.82474" lon="-7.6909523">
        <time>2022-07-13T06:20:06Z</time>
      </trkpt>
      <trkpt lat="42.824768" lon="-7.691023">
        <time>2022-07-13T06:20:11Z</time>
      </trkpt>
      <trkpt lat="42.824787" lon="-7.6910944">
        <time>2022-07-13T06:20:16Z</time>
      </trkpt>
      <trkpt lat="42.824806" lon="-7.6911716">
        <time>2022-07-13T06:20:21Z</time>
      </trkpt>
      <trkpt lat="42.82482" lon="-7.6912446">
        <time>2022-07-13T06:20:26Z</time>
      </trkpt>
      <trkpt lat="42.82485" lon="-7.691306">
        <time>2022-07-13T06:20:31Z</time>
      </trkpt>
      <trkpt lat="42.824875" lon="-7.691373">
        <time>2022-07-13T06:20:37Z</time>
      </trkpt>
      <trkpt lat="42.824898" lon="-7.6914444">
        <time>2022-07-13T06:20:42Z</time>
      </trkpt>
      <trkpt lat="42.82493" lon="-7.691567">
        <time>2022-07-13T06:20:48Z</time>
      </trkpt>
      <trkpt lat="42.824932" lon="-7.691587">
        <time>2022-07-13T06:20:51Z</time>
      </trkpt>
      <trkpt lat="42.824955" lon="-7.69165">
        <time>2022-07-13T06:20:56Z</time>
      </trkpt>
      <trkpt lat="42.82498" lon="-7.6917214">
        <time>2022-07-13T06:21:01Z</time>
      </trkpt>
      <trkpt lat="42.82501" lon="-7.6917973">
        <time>2022-07-13T06:21:06Z</time>
      </trkpt>
      <trkpt lat="42.82503" lon="-7.691871">
        <time>2022-07-13T06:21:11Z</time>
      </trkpt>
      <trkpt lat="42.82505" lon="-7.69193">
        <time>2022-07-13T06:21:15Z</time>
      </trkpt>
      <trkpt lat="42.82507" lon="-7.692001">
        <time>2022-07-13T06:21:20Z</time>
      </trkpt>
      <trkpt lat="42.825092" lon="-7.692065">
        <time>2022-07-13T06:21:25Z</time>
      </trkpt>
      <trkpt lat="42.825115" lon="-7.692136">
        <time>2022-07-13T06:21:30Z</time>
      </trkpt>
      <trkpt lat="42.82514" lon="-7.6922135">
        <time>2022-07-13T06:21:35Z</time>
      </trkpt>
      <trkpt lat="42.82516" lon="-7.6922765">
        <time>2022-07-13T06:21:39Z</time>
      </trkpt>
      <trkpt lat="42.825184" lon="-7.6923537">
        <time>2022-07-13T06:21:44Z</time>
      </trkpt>
      <trkpt lat="42.82521" lon="-7.6924267">
        <time>2022-07-13T06:21:49Z</time>
      </trkpt>
      <trkpt lat="42.825226" lon="-7.6924996">
        <time>2022-07-13T06:21:54Z</time>
      </trkpt>
      <trkpt lat="42.825245" lon="-7.6925564">
        <time>2022-07-13T06:21:58Z</time>
      </trkpt>
      <trkpt lat="42.825268" lon="-7.6926293">
        <time>2022-07-13T06:22:03Z</time>
      </trkpt>
      <trkpt lat="42.82529" lon="-7.692706">
        <time>2022-07-13T06:22:08Z</time>
      </trkpt>
      <trkpt lat="42.825314" lon="-7.692785">
        <time>2022-07-13T06:22:13Z</time>
      </trkpt>
      <trkpt lat="42.82534" lon="-7.6928587">
        <time>2022-07-13T06:22:18Z</time>
      </trkpt>
      <trkpt lat="42.82536" lon="-7.692916">
        <time>2022-07-13T06:22:22Z</time>
      </trkpt>
      <trkpt lat="42.825382" lon="-7.692985">
        <time>2022-07-13T06:22:27Z</time>
      </trkpt>
      <trkpt lat="42.8254" lon="-7.6930485">
        <time>2022-07-13T06:22:32Z</time>
      </trkpt>
      <trkpt lat="42.825424" lon="-7.6931186">
        <time>2022-07-13T06:22:37Z</time>
      </trkpt>
      <trkpt lat="42.825436" lon="-7.693189">
        <time>2022-07-13T06:22:42Z</time>
      </trkpt>
      <trkpt lat="42.825413" lon="-7.693248">
        <time>2022-07-13T06:22:47Z</time>
      </trkpt>
      <trkpt lat="42.825363" lon="-7.6932755">
        <time>2022-07-13T06:22:52Z</time>
      </trkpt>
      <trkpt lat="42.82531" lon="-7.6932974">
        <time>2022-07-13T06:22:57Z</time>
      </trkpt>
      <trkpt lat="42.82527" lon="-7.693327">
        <time>2022-07-13T06:23:04Z</time>
      </trkpt>
      <trkpt lat="42.825226" lon="-7.6932883">
        <time>2022-07-13T06:31:40Z</time>
      </trkpt>
      <trkpt lat="42.825138" lon="-7.6932497">
        <time>2022-07-13T06:57:02Z</time>
      </trkpt>
      <trkpt lat="42.82519" lon="-7.6932645">
        <time>2022-07-13T06:57:12Z</time>
      </trkpt>
      <trkpt lat="42.825237" lon="-7.6932955">
        <time>2022-07-13T06:57:17Z</time>
      </trkpt>
      <trkpt lat="42.82528" lon="-7.693339">
        <time>2022-07-13T06:57:24Z</time>
      </trkpt>
      <trkpt lat="42.825344" lon="-7.6933665">
        <time>2022-07-13T06:58:41Z</time>
      </trkpt>
      <trkpt lat="42.825424" lon="-7.6933465">
        <time>2022-07-13T06:58:46Z</time>
      </trkpt>
      <trkpt lat="42.825466" lon="-7.693363">
        <time>2022-07-13T06:58:50Z</time>
      </trkpt>
      <trkpt lat="42.825493" lon="-7.6934123">
        <time>2022-07-13T06:58:55Z</time>
      </trkpt>
      <trkpt lat="42.825512" lon="-7.6934905">
        <time>2022-07-13T06:59:00Z</time>
      </trkpt>
      <trkpt lat="42.825535" lon="-7.693566">
        <time>2022-07-13T06:59:05Z</time>
      </trkpt>
      <trkpt lat="42.82556" lon="-7.693643">
        <time>2022-07-13T06:59:10Z</time>
      </trkpt>
      <trkpt lat="42.825584" lon="-7.6937184">
        <time>2022-07-13T06:59:15Z</time>
      </trkpt>
      <trkpt lat="42.825607" lon="-7.693787">
        <time>2022-07-13T06:59:19Z</time>
      </trkpt>
      <trkpt lat="42.825623" lon="-7.6938477">
        <time>2022-07-13T06:59:23Z</time>
      </trkpt>
      <trkpt lat="42.82564" lon="-7.693915">
        <time>2022-07-13T06:59:27Z</time>
      </trkpt>
      <trkpt lat="42.825665" lon="-7.693988">
        <time>2022-07-13T06:59:32Z</time>
      </trkpt>
      <trkpt lat="42.825687" lon="-7.6940584">
        <time>2022-07-13T06:59:37Z</time>
      </trkpt>
      <trkpt lat="42.825706" lon="-7.6941333">
        <time>2022-07-13T06:59:42Z</time>
      </trkpt>
      <trkpt lat="42.825726" lon="-7.6941996">
        <time>2022-07-13T06:59:46Z</time>
      </trkpt>
      <trkpt lat="42.825752" lon="-7.6942697">
        <time>2022-07-13T06:59:51Z</time>
      </trkpt>
      <trkpt lat="42.825775" lon="-7.6943364">
        <time>2022-07-13T06:59:56Z</time>
      </trkpt>
      <trkpt lat="42.825806" lon="-7.6944036">
        <time>2022-07-13T07:00:02Z</time>
      </trkpt>
      <trkpt lat="42.82583" lon="-7.69448">
        <time>2022-07-13T07:00:07Z</time>
      </trkpt>
      <trkpt lat="42.82585" lon="-7.6945567">
        <time>2022-07-13T07:00:12Z</time>
      </trkpt>
      <trkpt lat="42.82587" lon="-7.6946177">
        <time>2022-07-13T07:00:16Z</time>
      </trkpt>
      <trkpt lat="42.825893" lon="-7.6946898">
        <time>2022-07-13T07:00:21Z</time>
      </trkpt>
      <trkpt lat="42.825912" lon="-7.6947603">
        <time>2022-07-13T07:00:26Z</time>
      </trkpt>
      <trkpt lat="42.825935" lon="-7.6948338">
        <time>2022-07-13T07:00:31Z</time>
      </trkpt>
      <trkpt lat="42.825954" lon="-7.694914">
        <time>2022-07-13T07:00:36Z</time>
      </trkpt>
      <trkpt lat="42.825974" lon="-7.694987">
        <time>2022-07-13T07:00:41Z</time>
      </trkpt>
      <trkpt lat="42.826" lon="-7.6950545">
        <time>2022-07-13T07:00:46Z</time>
      </trkpt>
      <trkpt lat="42.826023" lon="-7.6951227">
        <time>2022-07-13T07:00:51Z</time>
      </trkpt>
      <trkpt lat="42.82605" lon="-7.6951947">
        <time>2022-07-13T07:00:56Z</time>
      </trkpt>
      <trkpt lat="42.826065" lon="-7.6952577">
        <time>2022-07-13T07:01:00Z</time>
      </trkpt>
      <trkpt lat="42.826088" lon="-7.695328">
        <time>2022-07-13T07:01:05Z</time>
      </trkpt>
      <trkpt lat="42.826107" lon="-7.695392">
        <time>2022-07-13T07:01:10Z</time>
      </trkpt>
      <trkpt lat="42.82613" lon="-7.6954603">
        <time>2022-07-13T07:01:15Z</time>
      </trkpt>
      <trkpt lat="42.826145" lon="-7.6955276">
        <time>2022-07-13T07:01:19Z</time>
      </trkpt>
      <trkpt lat="42.82616" lon="-7.6956058">
        <time>2022-07-13T07:01:25Z</time>
      </trkpt>
      <trkpt lat="42.82619" lon="-7.6956716">
        <time>2022-07-13T07:01:30Z</time>
      </trkpt>
      <trkpt lat="42.826218" lon="-7.6957355">
        <time>2022-07-13T07:01:34Z</time>
      </trkpt>
      <trkpt lat="42.82624" lon="-7.695799">
        <time>2022-07-13T07:01:38Z</time>
      </trkpt>
      <trkpt lat="42.826267" lon="-7.69587">
        <time>2022-07-13T07:01:43Z</time>
      </trkpt>
      <trkpt lat="42.826298" lon="-7.695942">
        <time>2022-07-13T07:01:48Z</time>
      </trkpt>
      <trkpt lat="42.826324" lon="-7.6959953">
        <time>2022-07-13T07:01:52Z</time>
      </trkpt>
      <trkpt lat="42.826363" lon="-7.69607">
        <time>2022-07-13T07:01:57Z</time>
      </trkpt>
      <trkpt lat="42.8264" lon="-7.6961412">
        <time>2022-07-13T07:02:02Z</time>
      </trkpt>
      <trkpt lat="42.826427" lon="-7.696197">
        <time>2022-07-13T07:02:06Z</time>
      </trkpt>
      <trkpt lat="42.82646" lon="-7.6962667">
        <time>2022-07-13T07:02:11Z</time>
      </trkpt>
      <trkpt lat="42.82649" lon="-7.696328">
        <time>2022-07-13T07:02:15Z</time>
      </trkpt>
      <trkpt lat="42.82652" lon="-7.6963844">
        <time>2022-07-13T07:02:19Z</time>
      </trkpt>
      <trkpt lat="42.826546" lon="-7.696443">
        <time>2022-07-13T07:02:23Z</time>
      </trkpt>
      <trkpt lat="42.826588" lon="-7.696511">
        <time>2022-07-13T07:02:28Z</time>
      </trkpt>
      <trkpt lat="42.826626" lon="-7.696563">
        <time>2022-07-13T07:02:32Z</time>
      </trkpt>
      <trkpt lat="42.826664" lon="-7.696634">
        <time>2022-07-13T07:02:37Z</time>
      </trkpt>
      <trkpt lat="42.826694" lon="-7.6966906">
        <time>2022-07-13T07:02:41Z</time>
      </trkpt>
      <trkpt lat="42.826733" lon="-7.696754">
        <time>2022-07-13T07:02:46Z</time>
      </trkpt>
      <trkpt lat="42.82677" lon="-7.6968107">
        <time>2022-07-13T07:02:51Z</time>
      </trkpt>
      <trkpt lat="42.82681" lon="-7.696874">
        <time>2022-07-13T07:02:56Z</time>
      </trkpt>
      <trkpt lat="42.826847" lon="-7.696943">
        <time>2022-07-13T07:03:01Z</time>
      </trkpt>
      <trkpt lat="42.826885" lon="-7.6970043">
        <time>2022-07-13T07:03:06Z</time>
      </trkpt>
      <trkpt lat="42.82692" lon="-7.6970553">
        <time>2022-07-13T07:03:10Z</time>
      </trkpt>
      <trkpt lat="42.82695" lon="-7.697117">
        <time>2022-07-13T07:03:15Z</time>
      </trkpt>
      <trkpt lat="42.826954" lon="-7.6971807">
        <time>2022-07-13T07:03:19Z</time>
      </trkpt>
      <trkpt lat="42.826954" lon="-7.697265">
        <time>2022-07-13T07:03:24Z</time>
      </trkpt>
      <trkpt lat="42.82695" lon="-7.6973267">
        <time>2022-07-13T07:03:28Z</time>
      </trkpt>
      <trkpt lat="42.82695" lon="-7.697413">
        <time>2022-07-13T07:03:33Z</time>
      </trkpt>
      <trkpt lat="42.826942" lon="-7.697473">
        <time>2022-07-13T07:03:37Z</time>
      </trkpt>
      <trkpt lat="42.826935" lon="-7.697556">
        <time>2022-07-13T07:03:42Z</time>
      </trkpt>
      <trkpt lat="42.826923" lon="-7.6976233">
        <time>2022-07-13T07:03:46Z</time>
      </trkpt>
      <trkpt lat="42.82691" lon="-7.69769">
        <time>2022-07-13T07:03:50Z</time>
      </trkpt>
      <trkpt lat="42.82689" lon="-7.69776">
        <time>2022-07-13T07:03:55Z</time>
      </trkpt>
      <trkpt lat="42.82686" lon="-7.69783">
        <time>2022-07-13T07:04:00Z</time>
      </trkpt>
      <trkpt lat="42.826836" lon="-7.6979046">
        <time>2022-07-13T07:04:05Z</time>
      </trkpt>
      <trkpt lat="42.826813" lon="-7.697966">
        <time>2022-07-13T07:04:09Z</time>
      </trkpt>
      <trkpt lat="42.826786" lon="-7.698053">
        <time>2022-07-13T07:04:15Z</time>
      </trkpt>
      <trkpt lat="42.826775" lon="-7.6981287">
        <time>2022-07-13T07:04:20Z</time>
      </trkpt>
      <trkpt lat="42.82678" lon="-7.69821">
        <time>2022-07-13T07:04:25Z</time>
      </trkpt>
      <trkpt lat="42.826794" lon="-7.698275">
        <time>2022-07-13T07:04:29Z</time>
      </trkpt>
      <trkpt lat="42.82681" lon="-7.698337">
        <time>2022-07-13T07:04:33Z</time>
      </trkpt>
      <trkpt lat="42.82684" lon="-7.698404">
        <time>2022-07-13T07:04:38Z</time>
      </trkpt>
      <trkpt lat="42.82687" lon="-7.6984677">
        <time>2022-07-13T07:04:43Z</time>
      </trkpt>
      <trkpt lat="42.826893" lon="-7.698524">
        <time>2022-07-13T07:04:47Z</time>
      </trkpt>
      <trkpt lat="42.82692" lon="-7.698596">
        <time>2022-07-13T07:04:52Z</time>
      </trkpt>
      <trkpt lat="42.82695" lon="-7.698664">
        <time>2022-07-13T07:04:57Z</time>
      </trkpt>
      <trkpt lat="42.826977" lon="-7.698736">
        <time>2022-07-13T07:05:02Z</time>
      </trkpt>
      <trkpt lat="42.827003" lon="-7.6987934">
        <time>2022-07-13T07:05:07Z</time>
      </trkpt>
      <trkpt lat="42.827038" lon="-7.6988544">
        <time>2022-07-13T07:05:12Z</time>
      </trkpt>
      <trkpt lat="42.827076" lon="-7.698911">
        <time>2022-07-13T07:05:17Z</time>
      </trkpt>
      <trkpt lat="42.82712" lon="-7.69896">
        <time>2022-07-13T07:05:22Z</time>
      </trkpt>
      <trkpt lat="42.827168" lon="-7.6990123">
        <time>2022-07-13T07:05:27Z</time>
      </trkpt>
      <trkpt lat="42.827217" lon="-7.699064">
        <time>2022-07-13T07:05:32Z</time>
      </trkpt>
      <trkpt lat="42.827263" lon="-7.6991115">
        <time>2022-07-13T07:05:37Z</time>
      </trkpt>
      <trkpt lat="42.827305" lon="-7.699154">
        <time>2022-07-13T07:05:41Z</time>
      </trkpt>
      <trkpt lat="42.827354" lon="-7.699204">
        <time>2022-07-13T07:05:46Z</time>
      </trkpt>
      <trkpt lat="42.827393" lon="-7.6992517">
        <time>2022-07-13T07:05:50Z</time>
      </trkpt>
      <trkpt lat="42.82743" lon="-7.6993103">
        <time>2022-07-13T07:05:55Z</time>
      </trkpt>
      <trkpt lat="42.827473" lon="-7.699365">
        <time>2022-07-13T07:06:00Z</time>
      </trkpt>
      <trkpt lat="42.82751" lon="-7.699418">
        <time>2022-07-13T07:06:05Z</time>
      </trkpt>
      <trkpt lat="42.827545" lon="-7.6994824">
        <time>2022-07-13T07:06:10Z</time>
      </trkpt>
      <trkpt lat="42.827583" lon="-7.699539">
        <time>2022-07-13T07:06:15Z</time>
      </trkpt>
      <trkpt lat="42.827614" lon="-7.699582">
        <time>2022-07-13T07:06:19Z</time>
      </trkpt>
      <trkpt lat="42.827652" lon="-7.699637">
        <time>2022-07-13T07:06:24Z</time>
      </trkpt>
      <trkpt lat="42.82769" lon="-7.6997004">
        <time>2022-07-13T07:06:29Z</time>
      </trkpt>
      <trkpt lat="42.82772" lon="-7.699751">
        <time>2022-07-13T07:06:33Z</time>
      </trkpt>
      <trkpt lat="42.82776" lon="-7.699814">
        <time>2022-07-13T07:06:38Z</time>
      </trkpt>
      <trkpt lat="42.82779" lon="-7.6998625">
        <time>2022-07-13T07:06:42Z</time>
      </trkpt>
      <trkpt lat="42.82783" lon="-7.699922">
        <time>2022-07-13T07:06:47Z</time>
      </trkpt>
      <trkpt lat="42.827866" lon="-7.6999655">
        <time>2022-07-13T07:06:51Z</time>
      </trkpt>
      <trkpt lat="42.827904" lon="-7.700022">
        <time>2022-07-13T07:06:56Z</time>
      </trkpt>
      <trkpt lat="42.827934" lon="-7.7000737">
        <time>2022-07-13T07:07:01Z</time>
      </trkpt>
      <trkpt lat="42.827976" lon="-7.7001476">
        <time>2022-07-13T07:07:07Z</time>
      </trkpt>
      <trkpt lat="42.82801" lon="-7.700208">
        <time>2022-07-13T07:07:12Z</time>
      </trkpt>
      <trkpt lat="42.82805" lon="-7.700257">
        <time>2022-07-13T07:07:17Z</time>
      </trkpt>
      <trkpt lat="42.828094" lon="-7.7003045">
        <time>2022-07-13T07:07:22Z</time>
      </trkpt>
      <trkpt lat="42.828144" lon="-7.7003655">
        <time>2022-07-13T07:07:27Z</time>
      </trkpt>
      <trkpt lat="42.828186" lon="-7.700422">
        <time>2022-07-13T07:07:32Z</time>
      </trkpt>
      <trkpt lat="42.82822" lon="-7.7004843">
        <time>2022-07-13T07:07:37Z</time>
      </trkpt>
      <trkpt lat="42.828262" lon="-7.70054">
        <time>2022-07-13T07:07:42Z</time>
      </trkpt>
      <trkpt lat="42.82829" lon="-7.700612">
        <time>2022-07-13T07:07:47Z</time>
      </trkpt>
      <trkpt lat="42.828312" lon="-7.7006702">
        <time>2022-07-13T07:07:51Z</time>
      </trkpt>
      <trkpt lat="42.828342" lon="-7.700753">
        <time>2022-07-13T07:07:56Z</time>
      </trkpt>
      <trkpt lat="42.828373" lon="-7.700811">
        <time>2022-07-13T07:08:00Z</time>
      </trkpt>
      <trkpt lat="42.828407" lon="-7.700863">
        <time>2022-07-13T07:08:04Z</time>
      </trkpt>
      <trkpt lat="42.828438" lon="-7.700925">
        <time>2022-07-13T07:08:08Z</time>
      </trkpt>
      <trkpt lat="42.82847" lon="-7.7009926">
        <time>2022-07-13T07:08:12Z</time>
      </trkpt>
      <trkpt lat="42.8285" lon="-7.7010517">
        <time>2022-07-13T07:08:16Z</time>
      </trkpt>
      <trkpt lat="42.82854" lon="-7.7011023">
        <time>2022-07-13T07:08:21Z</time>
      </trkpt>
      <trkpt lat="42.828583" lon="-7.7011495">
        <time>2022-07-13T07:08:26Z</time>
      </trkpt>
      <trkpt lat="42.82863" lon="-7.7011957">
        <time>2022-07-13T07:08:31Z</time>
      </trkpt>
      <trkpt lat="42.82868" lon="-7.7012467">
        <time>2022-07-13T07:08:37Z</time>
      </trkpt>
      <trkpt lat="42.828724" lon="-7.7013035">
        <time>2022-07-13T07:08:42Z</time>
      </trkpt>
      <trkpt lat="42.828762" lon="-7.7013445">
        <time>2022-07-13T07:08:46Z</time>
      </trkpt>
      <trkpt lat="42.828808" lon="-7.701394">
        <time>2022-07-13T07:08:52Z</time>
      </trkpt>
      <trkpt lat="42.828854" lon="-7.7014413">
        <time>2022-07-13T07:08:57Z</time>
      </trkpt>
      <trkpt lat="42.8289" lon="-7.7014756">
        <time>2022-07-13T07:09:02Z</time>
      </trkpt>
      <trkpt lat="42.82895" lon="-7.7015157">
        <time>2022-07-13T07:09:07Z</time>
      </trkpt>
      <trkpt lat="42.82899" lon="-7.701568">
        <time>2022-07-13T07:09:12Z</time>
      </trkpt>
      <trkpt lat="42.829033" lon="-7.701606">
        <time>2022-07-13T07:09:16Z</time>
      </trkpt>
      <trkpt lat="42.829082" lon="-7.7016454">
        <time>2022-07-13T07:09:21Z</time>
      </trkpt>
      <trkpt lat="42.82913" lon="-7.701686">
        <time>2022-07-13T07:09:26Z</time>
      </trkpt>
      <trkpt lat="42.829185" lon="-7.701725">
        <time>2022-07-13T07:09:31Z</time>
      </trkpt>
      <trkpt lat="42.829227" lon="-7.7017617">
        <time>2022-07-13T07:09:35Z</time>
      </trkpt>
      <trkpt lat="42.829273" lon="-7.7018075">
        <time>2022-07-13T07:09:39Z</time>
      </trkpt>
      <trkpt lat="42.829315" lon="-7.7018504">
        <time>2022-07-13T07:09:43Z</time>
      </trkpt>
      <trkpt lat="42.829357" lon="-7.701888">
        <time>2022-07-13T07:09:47Z</time>
      </trkpt>
      <trkpt lat="42.829403" lon="-7.7019234">
        <time>2022-07-13T07:09:51Z</time>
      </trkpt>
      <trkpt lat="42.82945" lon="-7.701959">
        <time>2022-07-13T07:09:55Z</time>
      </trkpt>
      <trkpt lat="42.829494" lon="-7.701999">
        <time>2022-07-13T07:09:59Z</time>
      </trkpt>
      <trkpt lat="42.829544" lon="-7.7020497">
        <time>2022-07-13T07:10:04Z</time>
      </trkpt>
      <trkpt lat="42.829582" lon="-7.7020974">
        <time>2022-07-13T07:10:08Z</time>
      </trkpt>
      <trkpt lat="42.82963" lon="-7.702152">
        <time>2022-07-13T07:10:13Z</time>
      </trkpt>
      <trkpt lat="42.82966" lon="-7.7022114">
        <time>2022-07-13T07:10:18Z</time>
      </trkpt>
      <trkpt lat="42.829662" lon="-7.702295">
        <time>2022-07-13T07:10:23Z</time>
      </trkpt>
      <trkpt lat="42.82966" lon="-7.702374">
        <time>2022-07-13T07:10:27Z</time>
      </trkpt>
      <trkpt lat="42.82966" lon="-7.7024536">
        <time>2022-07-13T07:10:31Z</time>
      </trkpt>
      <trkpt lat="42.829655" lon="-7.7025256">
        <time>2022-07-13T07:10:34Z</time>
      </trkpt>
      <trkpt lat="42.82965" lon="-7.702605">
        <time>2022-07-13T07:10:38Z</time>
      </trkpt>
      <trkpt lat="42.829655" lon="-7.702688">
        <time>2022-07-13T07:10:43Z</time>
      </trkpt>
      <trkpt lat="42.829662" lon="-7.702755">
        <time>2022-07-13T07:10:48Z</time>
      </trkpt>
      <trkpt lat="42.829693" lon="-7.702824">
        <time>2022-07-13T07:10:55Z</time>
      </trkpt>
      <trkpt lat="42.82972" lon="-7.7028885">
        <time>2022-07-13T07:11:01Z</time>
      </trkpt>
      <trkpt lat="42.829754" lon="-7.702954">
        <time>2022-07-13T07:11:06Z</time>
      </trkpt>
      <trkpt lat="42.829784" lon="-7.7030177">
        <time>2022-07-13T07:11:11Z</time>
      </trkpt>
      <trkpt lat="42.829807" lon="-7.7030797">
        <time>2022-07-13T07:11:16Z</time>
      </trkpt>
      <trkpt lat="42.829834" lon="-7.70314">
        <time>2022-07-13T07:11:22Z</time>
      </trkpt>
      <trkpt lat="42.829845" lon="-7.7032113">
        <time>2022-07-13T07:11:27Z</time>
      </trkpt>
      <trkpt lat="42.82985" lon="-7.703295">
        <time>2022-07-13T07:11:32Z</time>
      </trkpt>
      <trkpt lat="42.829857" lon="-7.703372">
        <time>2022-07-13T07:11:37Z</time>
      </trkpt>
      <trkpt lat="42.82987" lon="-7.7034507">
        <time>2022-07-13T07:11:42Z</time>
      </trkpt>
      <trkpt lat="42.82989" lon="-7.703511">
        <time>2022-07-13T07:11:47Z</time>
      </trkpt>
      <trkpt lat="42.829918" lon="-7.70357">
        <time>2022-07-13T07:11:52Z</time>
      </trkpt>
      <trkpt lat="42.82994" lon="-7.7036386">
        <time>2022-07-13T07:11:57Z</time>
      </trkpt>
      <trkpt lat="42.829964" lon="-7.703721">
        <time>2022-07-13T07:12:02Z</time>
      </trkpt>
      <trkpt lat="42.829983" lon="-7.703798">
        <time>2022-07-13T07:12:07Z</time>
      </trkpt>
      <trkpt lat="42.83" lon="-7.703869">
        <time>2022-07-13T07:12:12Z</time>
      </trkpt>
      <trkpt lat="42.83003" lon="-7.703947">
        <time>2022-07-13T07:12:17Z</time>
      </trkpt>
      <trkpt lat="42.830055" lon="-7.70402">
        <time>2022-07-13T07:12:22Z</time>
      </trkpt>
      <trkpt lat="42.830082" lon="-7.704086">
        <time>2022-07-13T07:12:27Z</time>
      </trkpt>
      <trkpt lat="42.8301" lon="-7.704156">
        <time>2022-07-13T07:12:31Z</time>
      </trkpt>
      <trkpt lat="42.83013" lon="-7.70423">
        <time>2022-07-13T07:12:36Z</time>
      </trkpt>
      <trkpt lat="42.830154" lon="-7.704295">
        <time>2022-07-13T07:12:40Z</time>
      </trkpt>
      <trkpt lat="42.830185" lon="-7.7043567">
        <time>2022-07-13T07:12:45Z</time>
      </trkpt>
      <trkpt lat="42.83021" lon="-7.704426">
        <time>2022-07-13T07:12:50Z</time>
      </trkpt>
      <trkpt lat="42.830235" lon="-7.704484">
        <time>2022-07-13T07:12:55Z</time>
      </trkpt>
      <trkpt lat="42.830265" lon="-7.704553">
        <time>2022-07-13T07:13:00Z</time>
      </trkpt>
      <trkpt lat="42.83029" lon="-7.7046084">
        <time>2022-07-13T07:13:04Z</time>
      </trkpt>
      <trkpt lat="42.83033" lon="-7.704669">
        <time>2022-07-13T07:13:09Z</time>
      </trkpt>
      <trkpt lat="42.83036" lon="-7.7047234">
        <time>2022-07-13T07:13:13Z</time>
      </trkpt>
      <trkpt lat="42.83039" lon="-7.7047906">
        <time>2022-07-13T07:13:17Z</time>
      </trkpt>
      <trkpt lat="42.83042" lon="-7.7048454">
        <time>2022-07-13T07:13:21Z</time>
      </trkpt>
      <trkpt lat="42.83046" lon="-7.704912">
        <time>2022-07-13T07:13:26Z</time>
      </trkpt>
      <trkpt lat="42.830486" lon="-7.7049685">
        <time>2022-07-13T07:13:30Z</time>
      </trkpt>
      <trkpt lat="42.83052" lon="-7.7050476">
        <time>2022-07-13T07:13:35Z</time>
      </trkpt>
      <trkpt lat="42.83055" lon="-7.705115">
        <time>2022-07-13T07:13:39Z</time>
      </trkpt>
      <trkpt lat="42.830578" lon="-7.705169">
        <time>2022-07-13T07:13:43Z</time>
      </trkpt>
      <trkpt lat="42.830612" lon="-7.705233">
        <time>2022-07-13T07:13:48Z</time>
      </trkpt>
      <trkpt lat="42.830635" lon="-7.7052965">
        <time>2022-07-13T07:13:52Z</time>
      </trkpt>
      <trkpt lat="42.830666" lon="-7.7053547">
        <time>2022-07-13T07:13:56Z</time>
      </trkpt>
      <trkpt lat="42.83071" lon="-7.705406">
        <time>2022-07-13T07:14:01Z</time>
      </trkpt>
      <trkpt lat="42.830757" lon="-7.7054496">
        <time>2022-07-13T07:14:06Z</time>
      </trkpt>
      <trkpt lat="42.830803" lon="-7.7054963">
        <time>2022-07-13T07:14:11Z</time>
      </trkpt>
      <trkpt lat="42.83084" lon="-7.7055426">
        <time>2022-07-13T07:14:15Z</time>
      </trkpt>
      <trkpt lat="42.83086" lon="-7.705604">
        <time>2022-07-13T07:14:19Z</time>
      </trkpt>
      <trkpt lat="42.83087" lon="-7.705685">
        <time>2022-07-13T07:14:24Z</time>
      </trkpt>
      <trkpt lat="42.830883" lon="-7.70575">
        <time>2022-07-13T07:14:28Z</time>
      </trkpt>
      <trkpt lat="42.830894" lon="-7.705821">
        <time>2022-07-13T07:14:32Z</time>
      </trkpt>
      <trkpt lat="42.83091" lon="-7.705888">
        <time>2022-07-13T07:14:36Z</time>
      </trkpt>
      <trkpt lat="42.83093" lon="-7.70597">
        <time>2022-07-13T07:14:41Z</time>
      </trkpt>
      <trkpt lat="42.830948" lon="-7.706048">
        <time>2022-07-13T07:14:46Z</time>
      </trkpt>
      <trkpt lat="42.830963" lon="-7.706111">
        <time>2022-07-13T07:14:50Z</time>
      </trkpt>
      <trkpt lat="42.83098" lon="-7.706179">
        <time>2022-07-13T07:14:54Z</time>
      </trkpt>
      <trkpt lat="42.831" lon="-7.706259">
        <time>2022-07-13T07:14:59Z</time>
      </trkpt>
      <trkpt lat="42.831028" lon="-7.7063394">
        <time>2022-07-13T07:15:04Z</time>
      </trkpt>
      <trkpt lat="42.831047" lon="-7.7064085">
        <time>2022-07-13T07:15:08Z</time>
      </trkpt>
      <trkpt lat="42.831074" lon="-7.7064652">
        <time>2022-07-13T07:15:12Z</time>
      </trkpt>
      <trkpt lat="42.83111" lon="-7.7065406">
        <time>2022-07-13T07:15:17Z</time>
      </trkpt>
      <trkpt lat="42.831127" lon="-7.706611">
        <time>2022-07-13T07:15:21Z</time>
      </trkpt>
      <trkpt lat="42.83114" lon="-7.7066827">
        <time>2022-07-13T07:15:25Z</time>
      </trkpt>
      <trkpt lat="42.831158" lon="-7.7067475">
        <time>2022-07-13T07:15:29Z</time>
      </trkpt>
      <trkpt lat="42.831184" lon="-7.706825">
        <time>2022-07-13T07:15:34Z</time>
      </trkpt>
      <trkpt lat="42.8312" lon="-7.7069035">
        <time>2022-07-13T07:15:39Z</time>
      </trkpt>
      <trkpt lat="42.831215" lon="-7.7069707">
        <time>2022-07-13T07:15:43Z</time>
      </trkpt>
      <trkpt lat="42.831234" lon="-7.7070394">
        <time>2022-07-13T07:15:47Z</time>
      </trkpt>
      <trkpt lat="42.831257" lon="-7.707098">
        <time>2022-07-13T07:15:51Z</time>
      </trkpt>
      <trkpt lat="42.83128" lon="-7.707171">
        <time>2022-07-13T07:15:56Z</time>
      </trkpt>
      <trkpt lat="42.8313" lon="-7.7072334">
        <time>2022-07-13T07:16:00Z</time>
      </trkpt>
      <trkpt lat="42.83132" lon="-7.7073054">
        <time>2022-07-13T07:16:04Z</time>
      </trkpt>
      <trkpt lat="42.831345" lon="-7.7073765">
        <time>2022-07-13T07:16:08Z</time>
      </trkpt>
      <trkpt lat="42.831367" lon="-7.707441">
        <time>2022-07-13T07:16:12Z</time>
      </trkpt>
      <trkpt lat="42.83139" lon="-7.707512">
        <time>2022-07-13T07:16:17Z</time>
      </trkpt>
      <trkpt lat="42.831413" lon="-7.707593">
        <time>2022-07-13T07:16:22Z</time>
      </trkpt>
      <trkpt lat="42.831436" lon="-7.707679">
        <time>2022-07-13T07:16:27Z</time>
      </trkpt>
      <trkpt lat="42.83145" lon="-7.707749">
        <time>2022-07-13T07:16:31Z</time>
      </trkpt>
      <trkpt lat="42.831467" lon="-7.7078123">
        <time>2022-07-13T07:16:35Z</time>
      </trkpt>
      <trkpt lat="42.83148" lon="-7.707885">
        <time>2022-07-13T07:16:39Z</time>
      </trkpt>
      <trkpt lat="42.83149" lon="-7.707958">
        <time>2022-07-13T07:16:43Z</time>
      </trkpt>
      <trkpt lat="42.831497" lon="-7.7080398">
        <time>2022-07-13T07:16:47Z</time>
      </trkpt>
      <trkpt lat="42.83151" lon="-7.708112">
        <time>2022-07-13T07:16:51Z</time>
      </trkpt>
      <trkpt lat="42.831512" lon="-7.708193">
        <time>2022-07-13T07:16:56Z</time>
      </trkpt>
      <trkpt lat="42.831524" lon="-7.7082644">
        <time>2022-07-13T07:17:01Z</time>
      </trkpt>
      <trkpt lat="42.83153" lon="-7.708347">
        <time>2022-07-13T07:17:06Z</time>
      </trkpt>
      <trkpt lat="42.83154" lon="-7.708414">
        <time>2022-07-13T07:17:10Z</time>
      </trkpt>
      <trkpt lat="42.831562" lon="-7.708495">
        <time>2022-07-13T07:17:15Z</time>
      </trkpt>
      <trkpt lat="42.8316" lon="-7.708552">
        <time>2022-07-13T07:17:20Z</time>
      </trkpt>
      <trkpt lat="42.83164" lon="-7.7085896">
        <time>2022-07-13T07:17:24Z</time>
      </trkpt>
      <trkpt lat="42.831688" lon="-7.708637">
        <time>2022-07-13T07:17:29Z</time>
      </trkpt>
      <trkpt lat="42.83172" lon="-7.708682">
        <time>2022-07-13T07:17:33Z</time>
      </trkpt>
      <trkpt lat="42.83174" lon="-7.708751">
        <time>2022-07-13T07:17:38Z</time>
      </trkpt>
      <trkpt lat="42.831734" lon="-7.708842">
        <time>2022-07-13T07:17:43Z</time>
      </trkpt>
      <trkpt lat="42.831726" lon="-7.708917">
        <time>2022-07-13T07:17:47Z</time>
      </trkpt>
      <trkpt lat="42.83173" lon="-7.708988">
        <time>2022-07-13T07:17:51Z</time>
      </trkpt>
      <trkpt lat="42.83174" lon="-7.709055">
        <time>2022-07-13T07:17:55Z</time>
      </trkpt>
      <trkpt lat="42.83176" lon="-7.7091236">
        <time>2022-07-13T07:18:00Z</time>
      </trkpt>
      <trkpt lat="42.831783" lon="-7.7091975">
        <time>2022-07-13T07:18:05Z</time>
      </trkpt>
      <trkpt lat="42.831806" lon="-7.709278">
        <time>2022-07-13T07:18:10Z</time>
      </trkpt>
      <trkpt lat="42.83183" lon="-7.709347">
        <time>2022-07-13T07:18:13Z</time>
      </trkpt>
      <trkpt lat="42.83185" lon="-7.709407">
        <time>2022-07-13T07:18:17Z</time>
      </trkpt>
      <trkpt lat="42.831875" lon="-7.709482">
        <time>2022-07-13T07:18:22Z</time>
      </trkpt>
      <trkpt lat="42.831894" lon="-7.7095585">
        <time>2022-07-13T07:18:26Z</time>
      </trkpt>
      <trkpt lat="42.83193" lon="-7.709624">
        <time>2022-07-13T07:18:31Z</time>
      </trkpt>
      <trkpt lat="42.83196" lon="-7.7096825">
        <time>2022-07-13T07:18:35Z</time>
      </trkpt>
      <trkpt lat="42.831993" lon="-7.709732">
        <time>2022-07-13T07:18:39Z</time>
      </trkpt>
      <trkpt lat="42.83203" lon="-7.709764">
        <time>2022-07-13T07:18:45Z</time>
      </trkpt>
      <trkpt lat="42.83208" lon="-7.7098165">
        <time>2022-07-13T07:18:52Z</time>
      </trkpt>
      <trkpt lat="42.83211" lon="-7.709881">
        <time>2022-07-13T07:18:58Z</time>
      </trkpt>
      <trkpt lat="42.832123" lon="-7.709953">
        <time>2022-07-13T07:19:03Z</time>
      </trkpt>
      <trkpt lat="42.83213" lon="-7.710022">
        <time>2022-07-13T07:19:08Z</time>
      </trkpt>
      <trkpt lat="42.83214" lon="-7.710093">
        <time>2022-07-13T07:19:13Z</time>
      </trkpt>
      <trkpt lat="42.83216" lon="-7.7101617">
        <time>2022-07-13T07:19:18Z</time>
      </trkpt>
      <trkpt lat="42.832188" lon="-7.7102222">
        <time>2022-07-13T07:19:23Z</time>
      </trkpt>
      <trkpt lat="42.832222" lon="-7.7102795">
        <time>2022-07-13T07:19:28Z</time>
      </trkpt>
      <trkpt lat="42.832256" lon="-7.710336">
        <time>2022-07-13T07:19:33Z</time>
      </trkpt>
      <trkpt lat="42.832294" lon="-7.7103915">
        <time>2022-07-13T07:19:38Z</time>
      </trkpt>
      <trkpt lat="42.832333" lon="-7.7104487">
        <time>2022-07-13T07:19:43Z</time>
      </trkpt>
      <trkpt lat="42.832367" lon="-7.710505">
        <time>2022-07-13T07:19:48Z</time>
      </trkpt>
      <trkpt lat="42.8324" lon="-7.7105775">
        <time>2022-07-13T07:19:54Z</time>
      </trkpt>
      <trkpt lat="42.832436" lon="-7.7106466">
        <time>2022-07-13T07:20:00Z</time>
      </trkpt>
      <trkpt lat="42.83247" lon="-7.710711">
        <time>2022-07-13T07:20:06Z</time>
      </trkpt>
      <trkpt lat="42.8325" lon="-7.7107725">
        <time>2022-07-13T07:20:11Z</time>
      </trkpt>
      <trkpt lat="42.832535" lon="-7.710825">
        <time>2022-07-13T07:20:15Z</time>
      </trkpt>
      <trkpt lat="42.832573" lon="-7.710881">
        <time>2022-07-13T07:20:20Z</time>
      </trkpt>
      <trkpt lat="42.832607" lon="-7.7109375">
        <time>2022-07-13T07:20:25Z</time>
      </trkpt>
      <trkpt lat="42.832645" lon="-7.7109985">
        <time>2022-07-13T07:20:30Z</time>
      </trkpt>
      <trkpt lat="42.83268" lon="-7.711058">
        <time>2022-07-13T07:20:35Z</time>
      </trkpt>
      <trkpt lat="42.83271" lon="-7.7111144">
        <time>2022-07-13T07:20:39Z</time>
      </trkpt>
      <trkpt lat="42.83275" lon="-7.7111735">
        <time>2022-07-13T07:20:44Z</time>
      </trkpt>
      <trkpt lat="42.83278" lon="-7.711229">
        <time>2022-07-13T07:20:48Z</time>
      </trkpt>
      <trkpt lat="42.832817" lon="-7.711294">
        <time>2022-07-13T07:20:53Z</time>
      </trkpt>
      <trkpt lat="42.832855" lon="-7.7113547">
        <time>2022-07-13T07:20:58Z</time>
      </trkpt>
      <trkpt lat="42.832886" lon="-7.7114086">
        <time>2022-07-13T07:21:02Z</time>
      </trkpt>
      <trkpt lat="42.832924" lon="-7.71147">
        <time>2022-07-13T07:21:07Z</time>
      </trkpt>
      <trkpt lat="42.832954" lon="-7.71152">
        <time>2022-07-13T07:21:11Z</time>
      </trkpt>
      <trkpt lat="42.83299" lon="-7.7115846">
        <time>2022-07-13T07:21:16Z</time>
      </trkpt>
      <trkpt lat="42.833015" lon="-7.711638">
        <time>2022-07-13T07:21:20Z</time>
      </trkpt>
      <trkpt lat="42.833054" lon="-7.711695">
        <time>2022-07-13T07:21:25Z</time>
      </trkpt>
      <trkpt lat="42.833088" lon="-7.7117577">
        <time>2022-07-13T07:21:30Z</time>
      </trkpt>
      <trkpt lat="42.833126" lon="-7.7118263">
        <time>2022-07-13T07:21:35Z</time>
      </trkpt>
      <trkpt lat="42.833153" lon="-7.711891">
        <time>2022-07-13T07:21:40Z</time>
      </trkpt>
      <trkpt lat="42.83317" lon="-7.711951">
        <time>2022-07-13T07:21:44Z</time>
      </trkpt>
      <trkpt lat="42.83319" lon="-7.7120237">
        <time>2022-07-13T07:21:49Z</time>
      </trkpt>
      <trkpt lat="42.833206" lon="-7.7120914">
        <time>2022-07-13T07:21:53Z</time>
      </trkpt>
      <trkpt lat="42.833225" lon="-7.712176">
        <time>2022-07-13T07:21:58Z</time>
      </trkpt>
      <trkpt lat="42.833244" lon="-7.7122507">
        <time>2022-07-13T07:22:02Z</time>
      </trkpt>
      <trkpt lat="42.833263" lon="-7.712321">
        <time>2022-07-13T07:22:06Z</time>
      </trkpt>
      <trkpt lat="42.83329" lon="-7.712385">
        <time>2022-07-13T07:22:10Z</time>
      </trkpt>
      <trkpt lat="42.833317" lon="-7.712453">
        <time>2022-07-13T07:22:15Z</time>
      </trkpt>
      <trkpt lat="42.833344" lon="-7.71252">
        <time>2022-07-13T07:22:19Z</time>
      </trkpt>
      <trkpt lat="42.833366" lon="-7.7125754">
        <time>2022-07-13T07:22:23Z</time>
      </trkpt>
      <trkpt lat="42.833397" lon="-7.712638">
        <time>2022-07-13T07:22:27Z</time>
      </trkpt>
      <trkpt lat="42.83342" lon="-7.712712">
        <time>2022-07-13T07:22:32Z</time>
      </trkpt>
      <trkpt lat="42.833443" lon="-7.712772">
        <time>2022-07-13T07:22:36Z</time>
      </trkpt>
      <trkpt lat="42.83346" lon="-7.7128363">
        <time>2022-07-13T07:22:41Z</time>
      </trkpt>
      <trkpt lat="42.833485" lon="-7.712911">
        <time>2022-07-13T07:22:45Z</time>
      </trkpt>
      <trkpt lat="42.833508" lon="-7.7129755">
        <time>2022-07-13T07:22:49Z</time>
      </trkpt>
      <trkpt lat="42.833523" lon="-7.713039">
        <time>2022-07-13T07:22:53Z</time>
      </trkpt>
      <trkpt lat="42.83355" lon="-7.7131186">
        <time>2022-07-13T07:22:58Z</time>
      </trkpt>
      <trkpt lat="42.833572" lon="-7.713185">
        <time>2022-07-13T07:23:02Z</time>
      </trkpt>
      <trkpt lat="42.8336" lon="-7.713247">
        <time>2022-07-13T07:23:06Z</time>
      </trkpt>
      <trkpt lat="42.83362" lon="-7.713318">
        <time>2022-07-13T07:23:11Z</time>
      </trkpt>
      <trkpt lat="42.83364" lon="-7.713388">
        <time>2022-07-13T07:23:15Z</time>
      </trkpt>
      <trkpt lat="42.833652" lon="-7.713468">
        <time>2022-07-13T07:23:20Z</time>
      </trkpt>
      <trkpt lat="42.833664" lon="-7.7135377">
        <time>2022-07-13T07:23:24Z</time>
      </trkpt>
      <trkpt lat="42.833687" lon="-7.7136087">
        <time>2022-07-13T07:23:29Z</time>
      </trkpt>
      <trkpt lat="42.83372" lon="-7.7136717">
        <time>2022-07-13T07:23:34Z</time>
      </trkpt>
      <trkpt lat="42.833748" lon="-7.713744">
        <time>2022-07-13T07:23:40Z</time>
      </trkpt>
      <trkpt lat="42.833767" lon="-7.7138133">
        <time>2022-07-13T07:23:45Z</time>
      </trkpt>
      <trkpt lat="42.833775" lon="-7.713876">
        <time>2022-07-13T07:23:49Z</time>
      </trkpt>
      <trkpt lat="42.83378" lon="-7.7139473">
        <time>2022-07-13T07:23:54Z</time>
      </trkpt>
      <trkpt lat="42.83378" lon="-7.7140303">
        <time>2022-07-13T07:23:59Z</time>
      </trkpt>
      <trkpt lat="42.833767" lon="-7.7141075">
        <time>2022-07-13T07:24:04Z</time>
      </trkpt>
      <trkpt lat="42.833755" lon="-7.714165">
        <time>2022-07-13T07:24:08Z</time>
      </trkpt>
      <trkpt lat="42.833736" lon="-7.7142406">
        <time>2022-07-13T07:24:13Z</time>
      </trkpt>
      <trkpt lat="42.833714" lon="-7.714311">
        <time>2022-07-13T07:24:18Z</time>
      </trkpt>
      <trkpt lat="42.833702" lon="-7.714394">
        <time>2022-07-13T07:24:24Z</time>
      </trkpt>
      <trkpt lat="42.833694" lon="-7.7144604">
        <time>2022-07-13T07:24:29Z</time>
      </trkpt>
      <trkpt lat="42.833687" lon="-7.7145414">
        <time>2022-07-13T07:24:34Z</time>
      </trkpt>
      <trkpt lat="42.83367" lon="-7.714617">
        <time>2022-07-13T07:24:39Z</time>
      </trkpt>
      <trkpt lat="42.833652" lon="-7.7146916">
        <time>2022-07-13T07:24:44Z</time>
      </trkpt>
      <trkpt lat="42.833637" lon="-7.7147627">
        <time>2022-07-13T07:24:48Z</time>
      </trkpt>
      <trkpt lat="42.83363" lon="-7.714831">
        <time>2022-07-13T07:24:53Z</time>
      </trkpt>
      <trkpt lat="42.83362" lon="-7.714908">
        <time>2022-07-13T07:24:58Z</time>
      </trkpt>
      <trkpt lat="42.833603" lon="-7.714983">
        <time>2022-07-13T07:25:03Z</time>
      </trkpt>
      <trkpt lat="42.83359" lon="-7.7150526">
        <time>2022-07-13T07:25:08Z</time>
      </trkpt>
      <trkpt lat="42.833572" lon="-7.715129">
        <time>2022-07-13T07:25:13Z</time>
      </trkpt>
      <trkpt lat="42.83356" lon="-7.7151995">
        <time>2022-07-13T07:25:18Z</time>
      </trkpt>
      <trkpt lat="42.833553" lon="-7.715271">
        <time>2022-07-13T07:25:23Z</time>
      </trkpt>
      <trkpt lat="42.83354" lon="-7.71534">
        <time>2022-07-13T07:25:28Z</time>
      </trkpt>
      <trkpt lat="42.833538" lon="-7.7154074">
        <time>2022-07-13T07:25:33Z</time>
      </trkpt>
      <trkpt lat="42.83353" lon="-7.7154922">
        <time>2022-07-13T07:25:39Z</time>
      </trkpt>
      <trkpt lat="42.833523" lon="-7.715575">
        <time>2022-07-13T07:25:45Z</time>
      </trkpt>
      <trkpt lat="42.83351" lon="-7.7156415">
        <time>2022-07-13T07:25:50Z</time>
      </trkpt>
      <trkpt lat="42.8335" lon="-7.715721">
        <time>2022-07-13T07:25:56Z</time>
      </trkpt>
      <trkpt lat="42.833496" lon="-7.715795">
        <time>2022-07-13T07:26:01Z</time>
      </trkpt>
      <trkpt lat="42.8335" lon="-7.715875">
        <time>2022-07-13T07:26:06Z</time>
      </trkpt>
      <trkpt lat="42.8335" lon="-7.7159505">
        <time>2022-07-13T07:26:11Z</time>
      </trkpt>
      <trkpt lat="42.8335" lon="-7.7160177">
        <time>2022-07-13T07:26:15Z</time>
      </trkpt>
      <trkpt lat="42.8335" lon="-7.716087">
        <time>2022-07-13T07:26:20Z</time>
      </trkpt>
      <trkpt lat="42.8335" lon="-7.716163">
        <time>2022-07-13T07:26:25Z</time>
      </trkpt>
      <trkpt lat="42.8335" lon="-7.7162366">
        <time>2022-07-13T07:26:30Z</time>
      </trkpt>
      <trkpt lat="42.833496" lon="-7.7163095">
        <time>2022-07-13T07:26:35Z</time>
      </trkpt>
      <trkpt lat="42.833492" lon="-7.716384">
        <time>2022-07-13T07:26:40Z</time>
      </trkpt>
      <trkpt lat="42.83349" lon="-7.7164626">
        <time>2022-07-13T07:26:45Z</time>
      </trkpt>
      <trkpt lat="42.833485" lon="-7.716533">
        <time>2022-07-13T07:26:50Z</time>
      </trkpt>
      <trkpt lat="42.83348" lon="-7.716597">
        <time>2022-07-13T07:26:55Z</time>
      </trkpt>
      <trkpt lat="42.833477" lon="-7.7166667">
        <time>2022-07-13T07:27:00Z</time>
      </trkpt>
      <trkpt lat="42.833477" lon="-7.7167573">
        <time>2022-07-13T07:27:06Z</time>
      </trkpt>
      <trkpt lat="42.833477" lon="-7.716835">
        <time>2022-07-13T07:27:11Z</time>
      </trkpt>
      <trkpt lat="42.833477" lon="-7.716913">
        <time>2022-07-13T07:27:16Z</time>
      </trkpt>
      <trkpt lat="42.83348" lon="-7.716993">
        <time>2022-07-13T07:27:21Z</time>
      </trkpt>
      <trkpt lat="42.833492" lon="-7.7170706">
        <time>2022-07-13T07:27:26Z</time>
      </trkpt>
      <trkpt lat="42.833515" lon="-7.717153">
        <time>2022-07-13T07:27:31Z</time>
      </trkpt>
      <trkpt lat="42.833546" lon="-7.7172184">
        <time>2022-07-13T07:27:36Z</time>
      </trkpt>
      <trkpt lat="42.833584" lon="-7.7172627">
        <time>2022-07-13T07:27:40Z</time>
      </trkpt>
      <trkpt lat="42.833622" lon="-7.7173295">
        <time>2022-07-13T07:27:46Z</time>
      </trkpt>
      <trkpt lat="42.83366" lon="-7.717384">
        <time>2022-07-13T07:27:51Z</time>
      </trkpt>
      <trkpt lat="42.8337" lon="-7.7174306">
        <time>2022-07-13T07:27:55Z</time>
      </trkpt>
      <trkpt lat="42.833736" lon="-7.7174816">
        <time>2022-07-13T07:28:00Z</time>
      </trkpt>
      <trkpt lat="42.83377" lon="-7.7175403">
        <time>2022-07-13T07:28:05Z</time>
      </trkpt>
      <trkpt lat="42.83381" lon="-7.717603">
        <time>2022-07-13T07:28:10Z</time>
      </trkpt>
      <trkpt lat="42.83384" lon="-7.7176633">
        <time>2022-07-13T07:28:15Z</time>
      </trkpt>
      <trkpt lat="42.833866" lon="-7.717739">
        <time>2022-07-13T07:28:21Z</time>
      </trkpt>
      <trkpt lat="42.83389" lon="-7.7178197">
        <time>2022-07-13T07:28:27Z</time>
      </trkpt>
      <trkpt lat="42.833908" lon="-7.7178926">
        <time>2022-07-13T07:28:32Z</time>
      </trkpt>
      <trkpt lat="42.83393" lon="-7.717972">
        <time>2022-07-13T07:28:37Z</time>
      </trkpt>
      <trkpt lat="42.83395" lon="-7.7180395">
        <time>2022-07-13T07:28:41Z</time>
      </trkpt>
      <trkpt lat="42.833973" lon="-7.718116">
        <time>2022-07-13T07:28:46Z</time>
      </trkpt>
      <trkpt lat="42.833996" lon="-7.7181892">
        <time>2022-07-13T07:28:51Z</time>
      </trkpt>
      <trkpt lat="42.834023" lon="-7.7182536">
        <time>2022-07-13T07:28:55Z</time>
      </trkpt>
      <trkpt lat="42.834053" lon="-7.7183247">
        <time>2022-07-13T07:29:00Z</time>
      </trkpt>
      <trkpt lat="42.83408" lon="-7.7183857">
        <time>2022-07-13T07:29:04Z</time>
      </trkpt>
      <trkpt lat="42.834103" lon="-7.7184587">
        <time>2022-07-13T07:29:09Z</time>
      </trkpt>
      <trkpt lat="42.83412" lon="-7.7185287">
        <time>2022-07-13T07:29:13Z</time>
      </trkpt>
      <trkpt lat="42.83413" lon="-7.7185903">
        <time>2022-07-13T07:29:17Z</time>
      </trkpt>
      <trkpt lat="42.83414" lon="-7.718679">
        <time>2022-07-13T07:29:22Z</time>
      </trkpt>
      <trkpt lat="42.834145" lon="-7.718753">
        <time>2022-07-13T07:29:26Z</time>
      </trkpt>
      <trkpt lat="42.834152" lon="-7.718838">
        <time>2022-07-13T07:29:31Z</time>
      </trkpt>
      <trkpt lat="42.83416" lon="-7.718911">
        <time>2022-07-13T07:29:35Z</time>
      </trkpt>
      <trkpt lat="42.83417" lon="-7.7189894">
        <time>2022-07-13T07:29:40Z</time>
      </trkpt>
      <trkpt lat="42.834187" lon="-7.7190747">
        <time>2022-07-13T07:29:45Z</time>
      </trkpt>
      <trkpt lat="42.834198" lon="-7.7191486">
        <time>2022-07-13T07:29:50Z</time>
      </trkpt>
      <trkpt lat="42.834206" lon="-7.7192245">
        <time>2022-07-13T07:29:54Z</time>
      </trkpt>
      <trkpt lat="42.834213" lon="-7.7192993">
        <time>2022-07-13T07:29:58Z</time>
      </trkpt>
      <trkpt lat="42.83422" lon="-7.71936">
        <time>2022-07-13T07:30:02Z</time>
      </trkpt>
      <trkpt lat="42.834225" lon="-7.719446">
        <time>2022-07-13T07:30:07Z</time>
      </trkpt>
      <trkpt lat="42.834225" lon="-7.719521">
        <time>2022-07-13T07:30:11Z</time>
      </trkpt>
      <trkpt lat="42.83423" lon="-7.719607">
        <time>2022-07-13T07:30:16Z</time>
      </trkpt>
      <trkpt lat="42.834236" lon="-7.7196856">
        <time>2022-07-13T07:30:20Z</time>
      </trkpt>
      <trkpt lat="42.834236" lon="-7.7197537">
        <time>2022-07-13T07:30:24Z</time>
      </trkpt>
      <trkpt lat="42.834236" lon="-7.7198296">
        <time>2022-07-13T07:30:29Z</time>
      </trkpt>
      <trkpt lat="42.834236" lon="-7.7199006">
        <time>2022-07-13T07:30:33Z</time>
      </trkpt>
      <trkpt lat="42.834236" lon="-7.719979">
        <time>2022-07-13T07:30:38Z</time>
      </trkpt>
      <trkpt lat="42.834236" lon="-7.7200546">
        <time>2022-07-13T07:30:42Z</time>
      </trkpt>
      <trkpt lat="42.834236" lon="-7.7201195">
        <time>2022-07-13T07:30:46Z</time>
      </trkpt>
      <trkpt lat="42.834225" lon="-7.7202044">
        <time>2022-07-13T07:30:51Z</time>
      </trkpt>
      <trkpt lat="42.83422" lon="-7.720286">
        <time>2022-07-13T07:30:56Z</time>
      </trkpt>
      <trkpt lat="42.834217" lon="-7.7203784">
        <time>2022-07-13T07:31:01Z</time>
      </trkpt>
      <trkpt lat="42.834213" lon="-7.7204485">
        <time>2022-07-13T07:31:05Z</time>
      </trkpt>
      <trkpt lat="42.834206" lon="-7.720529">
        <time>2022-07-13T07:31:10Z</time>
      </trkpt>
      <trkpt lat="42.834198" lon="-7.720606">
        <time>2022-07-13T07:31:14Z</time>
      </trkpt>
      <trkpt lat="42.834194" lon="-7.7206855">
        <time>2022-07-13T07:31:19Z</time>
      </trkpt>
      <trkpt lat="42.834183" lon="-7.7207565">
        <time>2022-07-13T07:31:23Z</time>
      </trkpt>
      <trkpt lat="42.83417" lon="-7.720831">
        <time>2022-07-13T07:31:28Z</time>
      </trkpt>
      <trkpt lat="42.83415" lon="-7.720896">
        <time>2022-07-13T07:31:32Z</time>
      </trkpt>
      <trkpt lat="42.834126" lon="-7.7209697">
        <time>2022-07-13T07:31:37Z</time>
      </trkpt>
      <trkpt lat="42.8341" lon="-7.72104">
        <time>2022-07-13T07:31:42Z</time>
      </trkpt>
      <trkpt lat="42.834076" lon="-7.721105">
        <time>2022-07-13T07:31:46Z</time>
      </trkpt>
      <trkpt lat="42.834057" lon="-7.7211666">
        <time>2022-07-13T07:31:50Z</time>
      </trkpt>
      <trkpt lat="42.83404" lon="-7.7212524">
        <time>2022-07-13T07:31:55Z</time>
      </trkpt>
      <trkpt lat="42.834034" lon="-7.721326">
        <time>2022-07-13T07:31:59Z</time>
      </trkpt>
      <trkpt lat="42.834038" lon="-7.7213902">
        <time>2022-07-13T07:32:03Z</time>
      </trkpt>
      <trkpt lat="42.83407" lon="-7.721454">
        <time>2022-07-13T07:32:08Z</time>
      </trkpt>
      <trkpt lat="42.834114" lon="-7.7215195">
        <time>2022-07-13T07:32:13Z</time>
      </trkpt>
      <trkpt lat="42.834156" lon="-7.721566">
        <time>2022-07-13T07:32:17Z</time>
      </trkpt>
      <trkpt lat="42.834198" lon="-7.7216024">
        <time>2022-07-13T07:32:21Z</time>
      </trkpt>
      <trkpt lat="42.834255" lon="-7.721642">
        <time>2022-07-13T07:32:26Z</time>
      </trkpt>
      <trkpt lat="42.834312" lon="-7.721679">
        <time>2022-07-13T07:32:31Z</time>
      </trkpt>
      <trkpt lat="42.834366" lon="-7.721715">
        <time>2022-07-13T07:32:36Z</time>
      </trkpt>
      <trkpt lat="42.834423" lon="-7.721766">
        <time>2022-07-13T07:32:40Z</time>
      </trkpt>
      <trkpt lat="42.834473" lon="-7.7218137">
        <time>2022-07-13T07:32:46Z</time>
      </trkpt>
      <trkpt lat="42.83451" lon="-7.721865">
        <time>2022-07-13T07:32:50Z</time>
      </trkpt>
      <trkpt lat="42.834545" lon="-7.721914">
        <time>2022-07-13T07:32:54Z</time>
      </trkpt>
      <trkpt lat="42.834587" lon="-7.7219725">
        <time>2022-07-13T07:32:59Z</time>
      </trkpt>
      <trkpt lat="42.834614" lon="-7.7220283">
        <time>2022-07-13T07:33:03Z</time>
      </trkpt>
      <trkpt lat="42.834652" lon="-7.72209">
        <time>2022-07-13T07:33:08Z</time>
      </trkpt>
      <trkpt lat="42.834698" lon="-7.722143">
        <time>2022-07-13T07:33:13Z</time>
      </trkpt>
      <trkpt lat="42.83474" lon="-7.722188">
        <time>2022-07-13T07:33:17Z</time>
      </trkpt>
      <trkpt lat="42.83478" lon="-7.7222304">
        <time>2022-07-13T07:33:21Z</time>
      </trkpt>
      <trkpt lat="42.83483" lon="-7.7222776">
        <time>2022-07-13T07:33:26Z</time>
      </trkpt>
      <trkpt lat="42.834885" lon="-7.7223334">
        <time>2022-07-13T07:33:31Z</time>
      </trkpt>
      <trkpt lat="42.834927" lon="-7.7223797">
        <time>2022-07-13T07:33:35Z</time>
      </trkpt>
      <trkpt lat="42.834965" lon="-7.722431">
        <time>2022-07-13T07:33:39Z</time>
      </trkpt>
      <trkpt lat="42.834995" lon="-7.7224855">
        <time>2022-07-13T07:33:43Z</time>
      </trkpt>
      <trkpt lat="42.835026" lon="-7.722541">
        <time>2022-07-13T07:33:47Z</time>
      </trkpt>
      <trkpt lat="42.835064" lon="-7.7226114">
        <time>2022-07-13T07:33:52Z</time>
      </trkpt>
      <trkpt lat="42.835094" lon="-7.7226715">
        <time>2022-07-13T07:33:56Z</time>
      </trkpt>
      <trkpt lat="42.835125" lon="-7.722725">
        <time>2022-07-13T07:34:00Z</time>
      </trkpt>
      <trkpt lat="42.83516" lon="-7.722788">
        <time>2022-07-13T07:34:05Z</time>
      </trkpt>
      <trkpt lat="42.835197" lon="-7.7228503">
        <time>2022-07-13T07:34:10Z</time>
      </trkpt>
      <trkpt lat="42.835228" lon="-7.7229013">
        <time>2022-07-13T07:34:14Z</time>
      </trkpt>
      <trkpt lat="42.835266" lon="-7.7229624">
        <time>2022-07-13T07:34:19Z</time>
      </trkpt>
      <trkpt lat="42.835297" lon="-7.7230167">
        <time>2022-07-13T07:34:23Z</time>
      </trkpt>
      <trkpt lat="42.83533" lon="-7.7230725">
        <time>2022-07-13T07:34:27Z</time>
      </trkpt>
      <trkpt lat="42.835365" lon="-7.7231245">
        <time>2022-07-13T07:34:31Z</time>
      </trkpt>
      <trkpt lat="42.835415" lon="-7.723187">
        <time>2022-07-13T07:34:36Z</time>
      </trkpt>
      <trkpt lat="42.835453" lon="-7.723244">
        <time>2022-07-13T07:34:40Z</time>
      </trkpt>
      <trkpt lat="42.835487" lon="-7.7232943">
        <time>2022-07-13T07:34:44Z</time>
      </trkpt>
      <trkpt lat="42.83553" lon="-7.7233353">
        <time>2022-07-13T07:34:48Z</time>
      </trkpt>
      <trkpt lat="42.835583" lon="-7.723384">
        <time>2022-07-13T07:34:53Z</time>
      </trkpt>
      <trkpt lat="42.835625" lon="-7.7234225">
        <time>2022-07-13T07:34:57Z</time>
      </trkpt>
      <trkpt lat="42.835682" lon="-7.7234726">
        <time>2022-07-13T07:35:03Z</time>
      </trkpt>
      <trkpt lat="42.83573" lon="-7.723532">
        <time>2022-07-13T07:35:09Z</time>
      </trkpt>
      <trkpt lat="42.835773" lon="-7.723586">
        <time>2022-07-13T07:35:14Z</time>
      </trkpt>
      <trkpt lat="42.835808" lon="-7.723633">
        <time>2022-07-13T07:35:18Z</time>
      </trkpt>
      <trkpt lat="42.835842" lon="-7.723697">
        <time>2022-07-13T07:35:23Z</time>
      </trkpt>
      <trkpt lat="42.835873" lon="-7.7237563">
        <time>2022-07-13T07:35:27Z</time>
      </trkpt>
      <trkpt lat="42.8359" lon="-7.723818">
        <time>2022-07-13T07:35:31Z</time>
      </trkpt>
      <trkpt lat="42.83593" lon="-7.723893">
        <time>2022-07-13T07:35:36Z</time>
      </trkpt>
      <trkpt lat="42.83595" lon="-7.7239604">
        <time>2022-07-13T07:35:40Z</time>
      </trkpt>
      <trkpt lat="42.835968" lon="-7.7240295">
        <time>2022-07-13T07:35:44Z</time>
      </trkpt>
      <trkpt lat="42.835995" lon="-7.724116">
        <time>2022-07-13T07:35:49Z</time>
      </trkpt>
      <trkpt lat="42.836018" lon="-7.7241845">
        <time>2022-07-13T07:35:53Z</time>
      </trkpt>
      <trkpt lat="42.836037" lon="-7.724265">
        <time>2022-07-13T07:35:58Z</time>
      </trkpt>
      <trkpt lat="42.836067" lon="-7.724341">
        <time>2022-07-13T07:36:03Z</time>
      </trkpt>
      <trkpt lat="42.836113" lon="-7.724377">
        <time>2022-07-13T07:36:07Z</time>
      </trkpt>
      <trkpt lat="42.836174" lon="-7.724382">
        <time>2022-07-13T07:36:11Z</time>
      </trkpt>
      <trkpt lat="42.836227" lon="-7.7243905">
        <time>2022-07-13T07:36:15Z</time>
      </trkpt>
      <trkpt lat="42.83628" lon="-7.7244287">
        <time>2022-07-13T07:36:20Z</time>
      </trkpt>
      <trkpt lat="42.83632" lon="-7.724499">
        <time>2022-07-13T07:36:25Z</time>
      </trkpt>
      <trkpt lat="42.836346" lon="-7.7245736">
        <time>2022-07-13T07:36:30Z</time>
      </trkpt>
      <trkpt lat="42.83637" lon="-7.7246504">
        <time>2022-07-13T07:36:35Z</time>
      </trkpt>
      <trkpt lat="42.83639" lon="-7.7247186">
        <time>2022-07-13T07:36:39Z</time>
      </trkpt>
      <trkpt lat="42.836414" lon="-7.7247815">
        <time>2022-07-13T07:36:43Z</time>
      </trkpt>
      <trkpt lat="42.83644" lon="-7.724839">
        <time>2022-07-13T07:36:47Z</time>
      </trkpt>
      <trkpt lat="42.836464" lon="-7.7249064">
        <time>2022-07-13T07:36:51Z</time>
      </trkpt>
      <trkpt lat="42.836483" lon="-7.7249713">
        <time>2022-07-13T07:36:55Z</time>
      </trkpt>
      <trkpt lat="42.836506" lon="-7.725056">
        <time>2022-07-13T07:37:00Z</time>
      </trkpt>
      <trkpt lat="42.83653" lon="-7.7251205">
        <time>2022-07-13T07:37:04Z</time>
      </trkpt>
      <trkpt lat="42.836555" lon="-7.725182">
        <time>2022-07-13T07:37:08Z</time>
      </trkpt>
      <trkpt lat="42.836586" lon="-7.725261">
        <time>2022-07-13T07:37:13Z</time>
      </trkpt>
      <trkpt lat="42.83661" lon="-7.7253284">
        <time>2022-07-13T07:37:17Z</time>
      </trkpt>
      <trkpt lat="42.83663" lon="-7.7253957">
        <time>2022-07-13T07:37:21Z</time>
      </trkpt>
      <trkpt lat="42.83665" lon="-7.725464">
        <time>2022-07-13T07:37:25Z</time>
      </trkpt>
      <trkpt lat="42.836674" lon="-7.725533">
        <time>2022-07-13T07:37:29Z</time>
      </trkpt>
      <trkpt lat="42.83669" lon="-7.725602">
        <time>2022-07-13T07:37:33Z</time>
      </trkpt>
      <trkpt lat="42.836704" lon="-7.7256737">
        <time>2022-07-13T07:37:37Z</time>
      </trkpt>
      <trkpt lat="42.83672" lon="-7.725745">
        <time>2022-07-13T07:37:41Z</time>
      </trkpt>
      <trkpt lat="42.83674" lon="-7.725815">
        <time>2022-07-13T07:37:45Z</time>
      </trkpt>
      <trkpt lat="42.83676" lon="-7.7258835">
        <time>2022-07-13T07:37:49Z</time>
      </trkpt>
      <trkpt lat="42.83679" lon="-7.7259502">
        <time>2022-07-13T07:37:53Z</time>
      </trkpt>
      <trkpt lat="42.836815" lon="-7.726023">
        <time>2022-07-13T07:37:57Z</time>
      </trkpt>
      <trkpt lat="42.83684" lon="-7.7260847">
        <time>2022-07-13T07:38:01Z</time>
      </trkpt>
      <trkpt lat="42.836864" lon="-7.7261515">
        <time>2022-07-13T07:38:05Z</time>
      </trkpt>
      <trkpt lat="42.836884" lon="-7.72622">
        <time>2022-07-13T07:38:09Z</time>
      </trkpt>
      <trkpt lat="42.836918" lon="-7.726285">
        <time>2022-07-13T07:38:13Z</time>
      </trkpt>
      <trkpt lat="42.83694" lon="-7.726358">
        <time>2022-07-13T07:38:17Z</time>
      </trkpt>
      <trkpt lat="42.836956" lon="-7.726422">
        <time>2022-07-13T07:38:20Z</time>
      </trkpt>
      <trkpt lat="42.83698" lon="-7.726492">
        <time>2022-07-13T07:38:24Z</time>
      </trkpt>
      <trkpt lat="42.837" lon="-7.7265553">
        <time>2022-07-13T07:38:28Z</time>
      </trkpt>
      <trkpt lat="42.83702" lon="-7.7266264">
        <time>2022-07-13T07:38:32Z</time>
      </trkpt>
      <trkpt lat="42.83704" lon="-7.7266994">
        <time>2022-07-13T07:38:36Z</time>
      </trkpt>
      <trkpt lat="42.837063" lon="-7.726768">
        <time>2022-07-13T07:38:40Z</time>
      </trkpt>
      <trkpt lat="42.83709" lon="-7.7268314">
        <time>2022-07-13T07:38:44Z</time>
      </trkpt>
      <trkpt lat="42.83711" lon="-7.726894">
        <time>2022-07-13T07:38:48Z</time>
      </trkpt>
      <trkpt lat="42.83713" lon="-7.7269607">
        <time>2022-07-13T07:38:52Z</time>
      </trkpt>
      <trkpt lat="42.83716" lon="-7.727032">
        <time>2022-07-13T07:38:56Z</time>
      </trkpt>
      <trkpt lat="42.837177" lon="-7.727104">
        <time>2022-07-13T07:39:00Z</time>
      </trkpt>
      <trkpt lat="42.837196" lon="-7.7271705">
        <time>2022-07-13T07:39:04Z</time>
      </trkpt>
      <trkpt lat="42.83722" lon="-7.7272305">
        <time>2022-07-13T07:39:08Z</time>
      </trkpt>
      <trkpt lat="42.837246" lon="-7.727296">
        <time>2022-07-13T07:39:12Z</time>
      </trkpt>
      <trkpt lat="42.83727" lon="-7.727362">
        <time>2022-07-13T07:39:16Z</time>
      </trkpt>
      <trkpt lat="42.83729" lon="-7.727427">
        <time>2022-07-13T07:39:20Z</time>
      </trkpt>
      <trkpt lat="42.83732" lon="-7.727494">
        <time>2022-07-13T07:39:24Z</time>
      </trkpt>
      <trkpt lat="42.83734" lon="-7.727559">
        <time>2022-07-13T07:39:28Z</time>
      </trkpt>
      <trkpt lat="42.83736" lon="-7.7276225">
        <time>2022-07-13T07:39:32Z</time>
      </trkpt>
      <trkpt lat="42.83739" lon="-7.7276936">
        <time>2022-07-13T07:39:37Z</time>
      </trkpt>
      <trkpt lat="42.837414" lon="-7.7277656">
        <time>2022-07-13T07:39:41Z</time>
      </trkpt>
      <trkpt lat="42.83743" lon="-7.7278357">
        <time>2022-07-13T07:39:45Z</time>
      </trkpt>
      <trkpt lat="42.83745" lon="-7.7279077">
        <time>2022-07-13T07:39:49Z</time>
      </trkpt>
      <trkpt lat="42.837467" lon="-7.727978">
        <time>2022-07-13T07:39:53Z</time>
      </trkpt>
      <trkpt lat="42.83749" lon="-7.728049">
        <time>2022-07-13T07:39:57Z</time>
      </trkpt>
      <trkpt lat="42.83751" lon="-7.7281165">
        <time>2022-07-13T07:40:01Z</time>
      </trkpt>
      <trkpt lat="42.837532" lon="-7.728186">
        <time>2022-07-13T07:40:05Z</time>
      </trkpt>
      <trkpt lat="42.83756" lon="-7.72825">
        <time>2022-07-13T07:40:09Z</time>
      </trkpt>
      <trkpt lat="42.837585" lon="-7.7283144">
        <time>2022-07-13T07:40:13Z</time>
      </trkpt>
      <trkpt lat="42.83761" lon="-7.728379">
        <time>2022-07-13T07:40:17Z</time>
      </trkpt>
      <trkpt lat="42.83763" lon="-7.728446">
        <time>2022-07-13T07:40:21Z</time>
      </trkpt>
      <trkpt lat="42.83765" lon="-7.7285137">
        <time>2022-07-13T07:40:25Z</time>
      </trkpt>
      <trkpt lat="42.83767" lon="-7.7285905">
        <time>2022-07-13T07:40:29Z</time>
      </trkpt>
      <trkpt lat="42.83769" lon="-7.7286634">
        <time>2022-07-13T07:40:33Z</time>
      </trkpt>
      <trkpt lat="42.837723" lon="-7.7287693">
        <time>2022-07-13T07:40:39Z</time>
      </trkpt>
      <trkpt lat="42.83775" lon="-7.728841">
        <time>2022-07-13T07:40:44Z</time>
      </trkpt>
      <trkpt lat="42.837772" lon="-7.728909">
        <time>2022-07-13T07:40:48Z</time>
      </trkpt>
      <trkpt lat="42.837795" lon="-7.7289805">
        <time>2022-07-13T07:40:52Z</time>
      </trkpt>
      <trkpt lat="42.83782" lon="-7.729047">
        <time>2022-07-13T07:40:56Z</time>
      </trkpt>
      <trkpt lat="42.83785" lon="-7.72911">
        <time>2022-07-13T07:41:00Z</time>
      </trkpt>
      <trkpt lat="42.837875" lon="-7.7291765">
        <time>2022-07-13T07:41:04Z</time>
      </trkpt>
      <trkpt lat="42.837902" lon="-7.7292376">
        <time>2022-07-13T07:41:08Z</time>
      </trkpt>
      <trkpt lat="42.837933" lon="-7.7293067">
        <time>2022-07-13T07:41:13Z</time>
      </trkpt>
      <trkpt lat="42.83795" lon="-7.7293715">
        <time>2022-07-13T07:41:17Z</time>
      </trkpt>
      <trkpt lat="42.837967" lon="-7.729435">
        <time>2022-07-13T07:41:21Z</time>
      </trkpt>
      <trkpt lat="42.837955" lon="-7.7295065">
        <time>2022-07-13T07:41:26Z</time>
      </trkpt>
      <trkpt lat="42.83794" lon="-7.729592">
        <time>2022-07-13T07:41:31Z</time>
      </trkpt>
      <trkpt lat="42.837948" lon="-7.7296677">
        <time>2022-07-13T07:41:35Z</time>
      </trkpt>
      <trkpt lat="42.837967" lon="-7.729736">
        <time>2022-07-13T07:41:39Z</time>
      </trkpt>
      <trkpt lat="42.837986" lon="-7.729803">
        <time>2022-07-13T07:41:44Z</time>
      </trkpt>
      <trkpt lat="42.838013" lon="-7.729869">
        <time>2022-07-13T07:41:49Z</time>
      </trkpt>
      <trkpt lat="42.83804" lon="-7.729937">
        <time>2022-07-13T07:41:54Z</time>
      </trkpt>
      <trkpt lat="42.838074" lon="-7.730007">
        <time>2022-07-13T07:41:58Z</time>
      </trkpt>
      <trkpt lat="42.838116" lon="-7.730067">
        <time>2022-07-13T07:42:02Z</time>
      </trkpt>
      <trkpt lat="42.838146" lon="-7.730121">
        <time>2022-07-13T07:42:06Z</time>
      </trkpt>
      <trkpt lat="42.83816" lon="-7.7301893">
        <time>2022-07-13T07:42:10Z</time>
      </trkpt>
      <trkpt lat="42.838173" lon="-7.730265">
        <time>2022-07-13T07:42:14Z</time>
      </trkpt>
      <trkpt lat="42.838192" lon="-7.730333">
        <time>2022-07-13T07:42:18Z</time>
      </trkpt>
      <trkpt lat="42.83822" lon="-7.730395">
        <time>2022-07-13T07:42:22Z</time>
      </trkpt>
      <trkpt lat="42.83825" lon="-7.730456">
        <time>2022-07-13T07:42:26Z</time>
      </trkpt>
      <trkpt lat="42.83828" lon="-7.730516">
        <time>2022-07-13T07:42:30Z</time>
      </trkpt>
      <trkpt lat="42.838306" lon="-7.730582">
        <time>2022-07-13T07:42:34Z</time>
      </trkpt>
      <trkpt lat="42.838337" lon="-7.7306447">
        <time>2022-07-13T07:42:38Z</time>
      </trkpt>
      <trkpt lat="42.838367" lon="-7.7307057">
        <time>2022-07-13T07:42:42Z</time>
      </trkpt>
      <trkpt lat="42.8384" lon="-7.730765">
        <time>2022-07-13T07:42:46Z</time>
      </trkpt>
      <trkpt lat="42.838436" lon="-7.7308273">
        <time>2022-07-13T07:42:50Z</time>
      </trkpt>
      <trkpt lat="42.83847" lon="-7.730888">
        <time>2022-07-13T07:42:54Z</time>
      </trkpt>
      <trkpt lat="42.838512" lon="-7.7309365">
        <time>2022-07-13T07:42:58Z</time>
      </trkpt>
      <trkpt lat="42.838554" lon="-7.730979">
        <time>2022-07-13T07:43:03Z</time>
      </trkpt>
      <trkpt lat="42.838593" lon="-7.731018">
        <time>2022-07-13T07:43:07Z</time>
      </trkpt>
      <trkpt lat="42.838634" lon="-7.731085">
        <time>2022-07-13T07:43:12Z</time>
      </trkpt>
      <trkpt lat="42.83867" lon="-7.7311425">
        <time>2022-07-13T07:43:16Z</time>
      </trkpt>
      <trkpt lat="42.8387" lon="-7.7311993">
        <time>2022-07-13T07:43:20Z</time>
      </trkpt>
      <trkpt lat="42.83875" lon="-7.73125">
        <time>2022-07-13T07:43:25Z</time>
      </trkpt>
      <trkpt lat="42.83881" lon="-7.731309">
        <time>2022-07-13T07:43:37Z</time>
      </trkpt>
      <trkpt lat="42.838863" lon="-7.7313595">
        <time>2022-07-13T07:43:42Z</time>
      </trkpt>
      <trkpt lat="42.838913" lon="-7.731394">
        <time>2022-07-13T07:43:46Z</time>
      </trkpt>
      <trkpt lat="42.838955" lon="-7.7314415">
        <time>2022-07-13T07:43:50Z</time>
      </trkpt>
      <trkpt lat="42.839005" lon="-7.7314987">
        <time>2022-07-13T07:43:54Z</time>
      </trkpt>
      <trkpt lat="42.839043" lon="-7.7315354">
        <time>2022-07-13T07:43:57Z</time>
      </trkpt>
      <trkpt lat="42.83909" lon="-7.731591">
        <time>2022-07-13T07:44:02Z</time>
      </trkpt>
      <trkpt lat="42.839134" lon="-7.731652">
        <time>2022-07-13T07:44:07Z</time>
      </trkpt>
      <trkpt lat="42.839184" lon="-7.731703">
        <time>2022-07-13T07:44:11Z</time>
      </trkpt>
      <trkpt lat="42.839222" lon="-7.731739">
        <time>2022-07-13T07:44:14Z</time>
      </trkpt>
      <trkpt lat="42.839264" lon="-7.7317824">
        <time>2022-07-13T07:44:18Z</time>
      </trkpt>
      <trkpt lat="42.839302" lon="-7.7318234">
        <time>2022-07-13T07:44:22Z</time>
      </trkpt>
      <trkpt lat="42.839355" lon="-7.7318726">
        <time>2022-07-13T07:44:27Z</time>
      </trkpt>
      <trkpt lat="42.839405" lon="-7.731926">
        <time>2022-07-13T07:44:31Z</time>
      </trkpt>
      <trkpt lat="42.83945" lon="-7.7319803">
        <time>2022-07-13T07:44:35Z</time>
      </trkpt>
      <trkpt lat="42.839485" lon="-7.732022">
        <time>2022-07-13T07:44:39Z</time>
      </trkpt>
      <trkpt lat="42.83953" lon="-7.7320786">
        <time>2022-07-13T07:44:44Z</time>
      </trkpt>
      <trkpt lat="42.83958" lon="-7.732131">
        <time>2022-07-13T07:44:48Z</time>
      </trkpt>
      <trkpt lat="42.83963" lon="-7.7321796">
        <time>2022-07-13T07:44:52Z</time>
      </trkpt>
      <trkpt lat="42.83967" lon="-7.7322187">
        <time>2022-07-13T07:44:56Z</time>
      </trkpt>
      <trkpt lat="42.83971" lon="-7.7322702">
        <time>2022-07-13T07:45:01Z</time>
      </trkpt>
      <trkpt lat="42.839752" lon="-7.7323294">
        <time>2022-07-13T07:45:06Z</time>
      </trkpt>
      <trkpt lat="42.83978" lon="-7.732376">
        <time>2022-07-13T07:45:10Z</time>
      </trkpt>
      <trkpt lat="42.839813" lon="-7.7324414">
        <time>2022-07-13T07:45:15Z</time>
      </trkpt>
      <trkpt lat="42.839848" lon="-7.732508">
        <time>2022-07-13T07:45:19Z</time>
      </trkpt>
      <trkpt lat="42.839886" lon="-7.732561">
        <time>2022-07-13T07:45:23Z</time>
      </trkpt>
      <trkpt lat="42.839912" lon="-7.7326202">
        <time>2022-07-13T07:45:28Z</time>
      </trkpt>
      <trkpt lat="42.839943" lon="-7.7326965">
        <time>2022-07-13T07:45:33Z</time>
      </trkpt>
      <trkpt lat="42.839973" lon="-7.732759">
        <time>2022-07-13T07:45:37Z</time>
      </trkpt>
      <trkpt lat="42.840004" lon="-7.732822">
        <time>2022-07-13T07:45:41Z</time>
      </trkpt>
      <trkpt lat="42.840027" lon="-7.732893">
        <time>2022-07-13T07:45:46Z</time>
      </trkpt>
      <trkpt lat="42.84007" lon="-7.732964">
        <time>2022-07-13T07:45:52Z</time>
      </trkpt>
      <trkpt lat="42.8401" lon="-7.73303">
        <time>2022-07-13T07:45:57Z</time>
      </trkpt>
      <trkpt lat="42.84013" lon="-7.733102">
        <time>2022-07-13T07:46:03Z</time>
      </trkpt>
      <trkpt lat="42.84015" lon="-7.733167">
        <time>2022-07-13T07:46:07Z</time>
      </trkpt>
      <trkpt lat="42.84017" lon="-7.73323">
        <time>2022-07-13T07:46:11Z</time>
      </trkpt>
      <trkpt lat="42.84021" lon="-7.733282">
        <time>2022-07-13T07:46:16Z</time>
      </trkpt>
      <trkpt lat="42.840267" lon="-7.7333164">
        <time>2022-07-13T07:46:21Z</time>
      </trkpt>
      <trkpt lat="42.840313" lon="-7.733369">
        <time>2022-07-13T07:46:26Z</time>
      </trkpt>
      <trkpt lat="42.84034" lon="-7.7334394">
        <time>2022-07-13T07:46:31Z</time>
      </trkpt>
      <trkpt lat="42.84037" lon="-7.733497">
        <time>2022-07-13T07:46:36Z</time>
      </trkpt>
      <trkpt lat="42.8404" lon="-7.733565">
        <time>2022-07-13T07:46:44Z</time>
      </trkpt>
      <trkpt lat="42.840443" lon="-7.733619">
        <time>2022-07-13T07:46:48Z</time>
      </trkpt>
      <trkpt lat="42.840485" lon="-7.73367">
        <time>2022-07-13T07:46:52Z</time>
      </trkpt>
      <trkpt lat="42.840523" lon="-7.733731">
        <time>2022-07-13T07:46:57Z</time>
      </trkpt>
      <trkpt lat="42.840553" lon="-7.733791">
        <time>2022-07-13T07:47:01Z</time>
      </trkpt>
      <trkpt lat="42.84058" lon="-7.7338624">
        <time>2022-07-13T07:47:06Z</time>
      </trkpt>
      <trkpt lat="42.840626" lon="-7.733917">
        <time>2022-07-13T07:47:10Z</time>
      </trkpt>
      <trkpt lat="42.84066" lon="-7.7339635">
        <time>2022-07-13T07:47:14Z</time>
      </trkpt>
      <trkpt lat="42.84071" lon="-7.7340217">
        <time>2022-07-13T07:47:19Z</time>
      </trkpt>
      <trkpt lat="42.840748" lon="-7.734065">
        <time>2022-07-13T07:47:23Z</time>
      </trkpt>
      <trkpt lat="42.840786" lon="-7.734112">
        <time>2022-07-13T07:47:28Z</time>
      </trkpt>
      <trkpt lat="42.840824" lon="-7.7341547">
        <time>2022-07-13T07:47:33Z</time>
      </trkpt>
      <trkpt lat="42.84087" lon="-7.734193">
        <time>2022-07-13T07:47:38Z</time>
      </trkpt>
      <trkpt lat="42.840908" lon="-7.734231">
        <time>2022-07-13T07:47:43Z</time>
      </trkpt>
      <trkpt lat="42.84095" lon="-7.7343">
        <time>2022-07-13T07:47:49Z</time>
      </trkpt>
      <trkpt lat="42.840984" lon="-7.734373">
        <time>2022-07-13T07:47:54Z</time>
      </trkpt>
      <trkpt lat="42.841015" lon="-7.734431">
        <time>2022-07-13T07:47:58Z</time>
      </trkpt>
      <trkpt lat="42.841064" lon="-7.734485">
        <time>2022-07-13T07:48:03Z</time>
      </trkpt>
      <trkpt lat="42.841103" lon="-7.7345204">
        <time>2022-07-13T07:48:07Z</time>
      </trkpt>
      <trkpt lat="42.841152" lon="-7.7345695">
        <time>2022-07-13T07:48:12Z</time>
      </trkpt>
      <trkpt lat="42.8412" lon="-7.73462">
        <time>2022-07-13T07:48:17Z</time>
      </trkpt>
      <trkpt lat="42.841248" lon="-7.734657">
        <time>2022-07-13T07:48:21Z</time>
      </trkpt>
      <trkpt lat="42.8413" lon="-7.7346926">
        <time>2022-07-13T07:48:26Z</time>
      </trkpt>
      <trkpt lat="42.841347" lon="-7.734712">
        <time>2022-07-13T07:48:30Z</time>
      </trkpt>
      <trkpt lat="42.8414" lon="-7.7347317">
        <time>2022-07-13T07:48:35Z</time>
      </trkpt>
      <trkpt lat="42.841454" lon="-7.734754">
        <time>2022-07-13T07:48:40Z</time>
      </trkpt>
      <trkpt lat="42.84151" lon="-7.7347465">
        <time>2022-07-13T07:48:45Z</time>
      </trkpt>
      <trkpt lat="42.84156" lon="-7.7346926">
        <time>2022-07-13T07:48:51Z</time>
      </trkpt>
      <trkpt lat="42.84159" lon="-7.7346234">
        <time>2022-07-13T07:48:56Z</time>
      </trkpt>
      <trkpt lat="42.841606" lon="-7.7345614">
        <time>2022-07-13T07:49:00Z</time>
      </trkpt>
      <trkpt lat="42.841625" lon="-7.7344913">
        <time>2022-07-13T07:49:05Z</time>
      </trkpt>
      <trkpt lat="42.841637" lon="-7.734408">
        <time>2022-07-13T07:49:10Z</time>
      </trkpt>
      <trkpt lat="42.841644" lon="-7.734321">
        <time>2022-07-13T07:49:15Z</time>
      </trkpt>
      <trkpt lat="42.84165" lon="-7.7342443">
        <time>2022-07-13T07:49:20Z</time>
      </trkpt>
      <trkpt lat="42.84166" lon="-7.734176">
        <time>2022-07-13T07:49:24Z</time>
      </trkpt>
      <trkpt lat="42.84167" lon="-7.734108">
        <time>2022-07-13T07:49:28Z</time>
      </trkpt>
      <trkpt lat="42.841682" lon="-7.7340207">
        <time>2022-07-13T07:49:34Z</time>
      </trkpt>
      <trkpt lat="42.841682" lon="-7.7339396">
        <time>2022-07-13T07:49:39Z</time>
      </trkpt>
      <trkpt lat="42.841675" lon="-7.733862">
        <time>2022-07-13T07:49:44Z</time>
      </trkpt>
      <trkpt lat="42.841667" lon="-7.7337875">
        <time>2022-07-13T07:49:49Z</time>
      </trkpt>
      <trkpt lat="42.841652" lon="-7.733731">
        <time>2022-07-13T07:49:53Z</time>
      </trkpt>
      <trkpt lat="42.84175" lon="-7.7331567">
        <time>2022-07-13T07:53:12Z</time>
      </trkpt>
      <trkpt lat="42.84202" lon="-7.733505">
        <time>2022-07-13T07:53:22Z</time>
      </trkpt>
      <trkpt lat="42.841835" lon="-7.7334785">
        <time>2022-07-13T07:53:30Z</time>
      </trkpt>
      <trkpt lat="42.841457" lon="-7.7336607">
        <time>2022-07-13T07:53:54Z</time>
      </trkpt>
      <trkpt lat="42.841465" lon="-7.733705">
        <time>2022-07-13T07:54:04Z</time>
      </trkpt>
      <trkpt lat="42.84152" lon="-7.7337527">
        <time>2022-07-13T07:54:13Z</time>
      </trkpt>
      <trkpt lat="42.841564" lon="-7.733785">
        <time>2022-07-13T07:54:18Z</time>
      </trkpt>
      <trkpt lat="42.84158" lon="-7.733749">
        <time>2022-07-13T07:54:29Z</time>
      </trkpt>
      <trkpt lat="42.841537" lon="-7.733765">
        <time>2022-07-13T07:54:44Z</time>
      </trkpt>
      <trkpt lat="42.841496" lon="-7.7337527">
        <time>2022-07-13T07:54:53Z</time>
      </trkpt>
      <trkpt lat="42.84158" lon="-7.7337065">
        <time>2022-07-13T07:55:36Z</time>
      </trkpt>
      <trkpt lat="42.841625" lon="-7.7336984">
        <time>2022-07-13T07:55:59Z</time>
      </trkpt>
      <trkpt lat="42.84164" lon="-7.7337003">
        <time>2022-07-13T07:56:09Z</time>
      </trkpt>
      <trkpt lat="42.841568" lon="-7.733747">
        <time>2022-07-13T07:58:47Z</time>
      </trkpt>
      <trkpt lat="42.84161" lon="-7.7338076">
        <time>2022-07-13T07:58:51Z</time>
      </trkpt>
      <trkpt lat="42.84164" lon="-7.7338686">
        <time>2022-07-13T07:58:55Z</time>
      </trkpt>
      <trkpt lat="42.841663" lon="-7.7339234">
        <time>2022-07-13T07:58:59Z</time>
      </trkpt>
      <trkpt lat="42.8417" lon="-7.733975">
        <time>2022-07-13T07:59:05Z</time>
      </trkpt>
      <trkpt lat="42.841763" lon="-7.733945">
        <time>2022-07-13T07:59:10Z</time>
      </trkpt>
      <trkpt lat="42.841797" lon="-7.733883">
        <time>2022-07-13T07:59:14Z</time>
      </trkpt>
      <trkpt lat="42.84182" lon="-7.733814">
        <time>2022-07-13T07:59:20Z</time>
      </trkpt>
      <trkpt lat="42.84185" lon="-7.733763">
        <time>2022-07-13T07:59:25Z</time>
      </trkpt>
      <trkpt lat="42.841908" lon="-7.733733">
        <time>2022-07-13T07:59:31Z</time>
      </trkpt>
      <trkpt lat="42.841957" lon="-7.7337284">
        <time>2022-07-13T07:59:36Z</time>
      </trkpt>
      <trkpt lat="42.84201" lon="-7.7337694">
        <time>2022-07-13T07:59:41Z</time>
      </trkpt>
      <trkpt lat="42.84205" lon="-7.733827">
        <time>2022-07-13T07:59:46Z</time>
      </trkpt>
      <trkpt lat="42.84208" lon="-7.733885">
        <time>2022-07-13T07:59:50Z</time>
      </trkpt>
      <trkpt lat="42.842113" lon="-7.7339435">
        <time>2022-07-13T07:59:55Z</time>
      </trkpt>
      <trkpt lat="42.842144" lon="-7.733999">
        <time>2022-07-13T07:59:59Z</time>
      </trkpt>
      <trkpt lat="42.842182" lon="-7.734067">
        <time>2022-07-13T08:00:04Z</time>
      </trkpt>
      <trkpt lat="42.842213" lon="-7.734122">
        <time>2022-07-13T08:00:08Z</time>
      </trkpt>
      <trkpt lat="42.84226" lon="-7.7341847">
        <time>2022-07-13T08:00:13Z</time>
      </trkpt>
      <trkpt lat="42.842297" lon="-7.7342315">
        <time>2022-07-13T08:00:17Z</time>
      </trkpt>
      <trkpt lat="42.842342" lon="-7.7342906">
        <time>2022-07-13T08:00:22Z</time>
      </trkpt>
      <trkpt lat="42.84235" lon="-7.7343616">
        <time>2022-07-13T08:00:27Z</time>
      </trkpt>
      <trkpt lat="42.842316" lon="-7.734435">
        <time>2022-07-13T08:00:33Z</time>
      </trkpt>
      <trkpt lat="42.842278" lon="-7.734489">
        <time>2022-07-13T08:00:37Z</time>
      </trkpt>
      <trkpt lat="42.84223" lon="-7.73454">
        <time>2022-07-13T08:00:41Z</time>
      </trkpt>
      <trkpt lat="42.842197" lon="-7.734584">
        <time>2022-07-13T08:00:47Z</time>
      </trkpt>
      <trkpt lat="42.842155" lon="-7.7346497">
        <time>2022-07-13T08:00:51Z</time>
      </trkpt>
      <trkpt lat="42.84212" lon="-7.734712">
        <time>2022-07-13T08:00:56Z</time>
      </trkpt>
      <trkpt lat="42.842083" lon="-7.734773">
        <time>2022-07-13T08:01:00Z</time>
      </trkpt>
      <trkpt lat="42.842045" lon="-7.734842">
        <time>2022-07-13T08:01:05Z</time>
      </trkpt>
      <trkpt lat="42.842014" lon="-7.734913">
        <time>2022-07-13T08:01:10Z</time>
      </trkpt>
      <trkpt lat="42.841988" lon="-7.7349796">
        <time>2022-07-13T08:01:13Z</time>
      </trkpt>
      <trkpt lat="42.841965" lon="-7.7350483">
        <time>2022-07-13T08:01:18Z</time>
      </trkpt>
      <trkpt lat="42.841938" lon="-7.7351193">
        <time>2022-07-13T08:01:22Z</time>
      </trkpt>
      <trkpt lat="42.841938" lon="-7.735188">
        <time>2022-07-13T08:01:26Z</time>
      </trkpt>
      <trkpt lat="42.84194" lon="-7.7352614">
        <time>2022-07-13T08:01:31Z</time>
      </trkpt>
      <trkpt lat="42.841946" lon="-7.7353363">
        <time>2022-07-13T08:01:36Z</time>
      </trkpt>
      <trkpt lat="42.84194" lon="-7.735405">
        <time>2022-07-13T08:01:40Z</time>
      </trkpt>
      <trkpt lat="42.841946" lon="-7.7354875">
        <time>2022-07-13T08:01:44Z</time>
      </trkpt>
      <trkpt lat="42.84195" lon="-7.735553">
        <time>2022-07-13T08:01:48Z</time>
      </trkpt>
      <trkpt lat="42.84197" lon="-7.735621">
        <time>2022-07-13T08:01:53Z</time>
      </trkpt>
      <trkpt lat="42.841988" lon="-7.735689">
        <time>2022-07-13T08:01:58Z</time>
      </trkpt>
      <trkpt lat="42.842" lon="-7.7357564">
        <time>2022-07-13T08:02:03Z</time>
      </trkpt>
      <trkpt lat="42.842014" lon="-7.7358294">
        <time>2022-07-13T08:02:08Z</time>
      </trkpt>
      <trkpt lat="42.842045" lon="-7.735894">
        <time>2022-07-13T08:02:13Z</time>
      </trkpt>
      <trkpt lat="42.842056" lon="-7.7359567">
        <time>2022-07-13T08:02:18Z</time>
      </trkpt>
      <trkpt lat="42.842075" lon="-7.7360244">
        <time>2022-07-13T08:02:23Z</time>
      </trkpt>
      <trkpt lat="42.842094" lon="-7.7361054">
        <time>2022-07-13T08:02:28Z</time>
      </trkpt>
      <trkpt lat="42.842102" lon="-7.736174">
        <time>2022-07-13T08:02:32Z</time>
      </trkpt>
      <trkpt lat="42.842113" lon="-7.7362485">
        <time>2022-07-13T08:02:38Z</time>
      </trkpt>
      <trkpt lat="42.842125" lon="-7.736322">
        <time>2022-07-13T08:02:42Z</time>
      </trkpt>
      <trkpt lat="42.842133" lon="-7.7363906">
        <time>2022-07-13T08:02:46Z</time>
      </trkpt>
      <trkpt lat="42.84215" lon="-7.7364645">
        <time>2022-07-13T08:02:51Z</time>
      </trkpt>
      <trkpt lat="42.842175" lon="-7.7365336">
        <time>2022-07-13T08:02:55Z</time>
      </trkpt>
      <trkpt lat="42.84219" lon="-7.7366076">
        <time>2022-07-13T08:03:00Z</time>
      </trkpt>
      <trkpt lat="42.8422" lon="-7.7366767">
        <time>2022-07-13T08:03:04Z</time>
      </trkpt>
      <trkpt lat="42.84221" lon="-7.7367477">
        <time>2022-07-13T08:03:09Z</time>
      </trkpt>
      <trkpt lat="42.842224" lon="-7.7368155">
        <time>2022-07-13T08:03:14Z</time>
      </trkpt>
      <trkpt lat="42.842236" lon="-7.7368975">
        <time>2022-07-13T08:03:19Z</time>
      </trkpt>
      <trkpt lat="42.842262" lon="-7.7369714">
        <time>2022-07-13T08:03:24Z</time>
      </trkpt>
      <trkpt lat="42.84229" lon="-7.737027">
        <time>2022-07-13T08:03:28Z</time>
      </trkpt>
      <trkpt lat="42.84232" lon="-7.737082">
        <time>2022-07-13T08:03:32Z</time>
      </trkpt>
      <trkpt lat="42.842342" lon="-7.737152">
        <time>2022-07-13T08:03:37Z</time>
      </trkpt>
      <trkpt lat="42.84236" lon="-7.7372117">
        <time>2022-07-13T08:03:41Z</time>
      </trkpt>
      <trkpt lat="42.842403" lon="-7.73728">
        <time>2022-07-13T08:03:47Z</time>
      </trkpt>
      <trkpt lat="42.842438" lon="-7.7373557">
        <time>2022-07-13T08:03:53Z</time>
      </trkpt>
      <trkpt lat="42.842464" lon="-7.737424">
        <time>2022-07-13T08:03:58Z</time>
      </trkpt>
      <trkpt lat="42.842476" lon="-7.737497">
        <time>2022-07-13T08:04:02Z</time>
      </trkpt>
      <trkpt lat="42.842487" lon="-7.7375755">
        <time>2022-07-13T08:04:06Z</time>
      </trkpt>
      <trkpt lat="42.842506" lon="-7.7376614">
        <time>2022-07-13T08:04:11Z</time>
      </trkpt>
      <trkpt lat="42.84252" lon="-7.73773">
        <time>2022-07-13T08:04:15Z</time>
      </trkpt>
      <trkpt lat="42.842525" lon="-7.737799">
        <time>2022-07-13T08:04:19Z</time>
      </trkpt>
      <trkpt lat="42.842545" lon="-7.737875">
        <time>2022-07-13T08:04:23Z</time>
      </trkpt>
      <trkpt lat="42.84256" lon="-7.737974">
        <time>2022-07-13T08:04:29Z</time>
      </trkpt>
      <trkpt lat="42.84257" lon="-7.738052">
        <time>2022-07-13T08:04:33Z</time>
      </trkpt>
      <trkpt lat="42.84258" lon="-7.7381487">
        <time>2022-07-13T08:04:39Z</time>
      </trkpt>
      <trkpt lat="42.84259" lon="-7.7382236">
        <time>2022-07-13T08:04:43Z</time>
      </trkpt>
      <trkpt lat="42.842598" lon="-7.7382994">
        <time>2022-07-13T08:04:48Z</time>
      </trkpt>
      <trkpt lat="42.842606" lon="-7.738376">
        <time>2022-07-13T08:04:52Z</time>
      </trkpt>
      <trkpt lat="42.842613" lon="-7.738458">
        <time>2022-07-13T08:04:56Z</time>
      </trkpt>
      <trkpt lat="42.842617" lon="-7.738546">
        <time>2022-07-13T08:05:01Z</time>
      </trkpt>
      <trkpt lat="42.842613" lon="-7.7386274">
        <time>2022-07-13T08:05:05Z</time>
      </trkpt>
      <trkpt lat="42.842613" lon="-7.738694">
        <time>2022-07-13T08:05:09Z</time>
      </trkpt>
      <trkpt lat="42.84262" lon="-7.7387614">
        <time>2022-07-13T08:05:13Z</time>
      </trkpt>
      <trkpt lat="42.84263" lon="-7.7388334">
        <time>2022-07-13T08:05:17Z</time>
      </trkpt>
      <trkpt lat="42.84263" lon="-7.738915">
        <time>2022-07-13T08:05:22Z</time>
      </trkpt>
      <trkpt lat="42.84262" lon="-7.738998">
        <time>2022-07-13T08:05:25Z</time>
      </trkpt>
      <trkpt lat="42.84262" lon="-7.7390738">
        <time>2022-07-13T08:05:30Z</time>
      </trkpt>
      <trkpt lat="42.84262" lon="-7.739138">
        <time>2022-07-13T08:05:34Z</time>
      </trkpt>
      <trkpt lat="42.84263" lon="-7.739216">
        <time>2022-07-13T08:05:38Z</time>
      </trkpt>
      <trkpt lat="42.842632" lon="-7.7392945">
        <time>2022-07-13T08:05:43Z</time>
      </trkpt>
      <trkpt lat="42.842636" lon="-7.739392">
        <time>2022-07-13T08:05:48Z</time>
      </trkpt>
      <trkpt lat="42.842644" lon="-7.739461">
        <time>2022-07-13T08:05:52Z</time>
      </trkpt>
      <trkpt lat="42.84265" lon="-7.739529">
        <time>2022-07-13T08:05:56Z</time>
      </trkpt>
      <trkpt lat="42.84266" lon="-7.739606">
        <time>2022-07-13T08:06:00Z</time>
      </trkpt>
      <trkpt lat="42.842655" lon="-7.739675">
        <time>2022-07-13T08:06:04Z</time>
      </trkpt>
      <trkpt lat="42.842663" lon="-7.739761">
        <time>2022-07-13T08:06:08Z</time>
      </trkpt>
      <trkpt lat="42.842686" lon="-7.739835">
        <time>2022-07-13T08:06:14Z</time>
      </trkpt>
      <trkpt lat="42.842686" lon="-7.739921">
        <time>2022-07-13T08:06:19Z</time>
      </trkpt>
      <trkpt lat="42.84268" lon="-7.740006">
        <time>2022-07-13T08:06:23Z</time>
      </trkpt>
      <trkpt lat="42.84269" lon="-7.740079">
        <time>2022-07-13T08:06:27Z</time>
      </trkpt>
      <trkpt lat="42.84269" lon="-7.740166">
        <time>2022-07-13T08:06:32Z</time>
      </trkpt>
      <trkpt lat="42.842697" lon="-7.740253">
        <time>2022-07-13T08:06:36Z</time>
      </trkpt>
      <trkpt lat="42.842705" lon="-7.740322">
        <time>2022-07-13T08:06:40Z</time>
      </trkpt>
      <trkpt lat="42.842716" lon="-7.7404">
        <time>2022-07-13T08:06:44Z</time>
      </trkpt>
      <trkpt lat="42.842716" lon="-7.7404766">
        <time>2022-07-13T08:06:49Z</time>
      </trkpt>
      <trkpt lat="42.842716" lon="-7.7405467">
        <time>2022-07-13T08:06:52Z</time>
      </trkpt>
      <trkpt lat="42.842728" lon="-7.740626">
        <time>2022-07-13T08:06:56Z</time>
      </trkpt>
      <trkpt lat="42.84273" lon="-7.740712">
        <time>2022-07-13T08:07:01Z</time>
      </trkpt>
      <trkpt lat="42.842747" lon="-7.7407975">
        <time>2022-07-13T08:07:05Z</time>
      </trkpt>
      <trkpt lat="42.842762" lon="-7.740872">
        <time>2022-07-13T08:07:09Z</time>
      </trkpt>
      <trkpt lat="42.842777" lon="-7.740931">
        <time>2022-07-13T08:07:12Z</time>
      </trkpt>
      <trkpt lat="42.842808" lon="-7.741009">
        <time>2022-07-13T08:07:17Z</time>
      </trkpt>
      <trkpt lat="42.84283" lon="-7.741089">
        <time>2022-07-13T08:07:21Z</time>
      </trkpt>
      <trkpt lat="42.842846" lon="-7.7411537">
        <time>2022-07-13T08:07:25Z</time>
      </trkpt>
      <trkpt lat="42.842857" lon="-7.741235">
        <time>2022-07-13T08:07:30Z</time>
      </trkpt>
      <trkpt lat="42.842884" lon="-7.74131">
        <time>2022-07-13T08:07:35Z</time>
      </trkpt>
      <trkpt lat="42.842922" lon="-7.7413845">
        <time>2022-07-13T08:07:38Z</time>
      </trkpt>
      <trkpt lat="42.84295" lon="-7.741454">
        <time>2022-07-13T08:07:43Z</time>
      </trkpt>
      <trkpt lat="42.84297" lon="-7.741525">
        <time>2022-07-13T08:07:48Z</time>
      </trkpt>
      <trkpt lat="42.843006" lon="-7.7415915">
        <time>2022-07-13T08:07:53Z</time>
      </trkpt>
      <trkpt lat="42.843044" lon="-7.741655">
        <time>2022-07-13T08:07:57Z</time>
      </trkpt>
      <trkpt lat="42.84308" lon="-7.7417336">
        <time>2022-07-13T08:08:01Z</time>
      </trkpt>
      <trkpt lat="42.84311" lon="-7.741798">
        <time>2022-07-13T08:08:05Z</time>
      </trkpt>
      <trkpt lat="42.843132" lon="-7.7418737">
        <time>2022-07-13T08:08:10Z</time>
      </trkpt>
      <trkpt lat="42.843155" lon="-7.741943">
        <time>2022-07-13T08:08:13Z</time>
      </trkpt>
      <trkpt lat="42.843178" lon="-7.742015">
        <time>2022-07-13T08:08:18Z</time>
      </trkpt>
      <trkpt lat="42.843185" lon="-7.7420936">
        <time>2022-07-13T08:08:22Z</time>
      </trkpt>
      <trkpt lat="42.843185" lon="-7.7421775">
        <time>2022-07-13T08:08:27Z</time>
      </trkpt>
      <trkpt lat="42.843197" lon="-7.742257">
        <time>2022-07-13T08:08:31Z</time>
      </trkpt>
      <trkpt lat="42.843212" lon="-7.7423444">
        <time>2022-07-13T08:08:35Z</time>
      </trkpt>
      <trkpt lat="42.843227" lon="-7.74241">
        <time>2022-07-13T08:08:38Z</time>
      </trkpt>
      <trkpt lat="42.843235" lon="-7.742494">
        <time>2022-07-13T08:08:42Z</time>
      </trkpt>
      <trkpt lat="42.84324" lon="-7.742577">
        <time>2022-07-13T08:08:47Z</time>
      </trkpt>
      <trkpt lat="42.84324" lon="-7.742658">
        <time>2022-07-13T08:08:52Z</time>
      </trkpt>
      <trkpt lat="42.843235" lon="-7.7427444">
        <time>2022-07-13T08:08:56Z</time>
      </trkpt>
      <trkpt lat="42.84324" lon="-7.7428193">
        <time>2022-07-13T08:08:59Z</time>
      </trkpt>
      <trkpt lat="42.843246" lon="-7.7428904">
        <time>2022-07-13T08:09:02Z</time>
      </trkpt>
      <trkpt lat="42.843258" lon="-7.742968">
        <time>2022-07-13T08:09:06Z</time>
      </trkpt>
      <trkpt lat="42.843266" lon="-7.743039">
        <time>2022-07-13T08:09:10Z</time>
      </trkpt>
      <trkpt lat="42.84327" lon="-7.7431207">
        <time>2022-07-13T08:09:15Z</time>
      </trkpt>
      <trkpt lat="42.84328" lon="-7.743197">
        <time>2022-07-13T08:09:19Z</time>
      </trkpt>
      <trkpt lat="42.843285" lon="-7.7432857">
        <time>2022-07-13T08:09:23Z</time>
      </trkpt>
      <trkpt lat="42.843285" lon="-7.7433615">
        <time>2022-07-13T08:09:27Z</time>
      </trkpt>
      <trkpt lat="42.843292" lon="-7.7434444">
        <time>2022-07-13T08:09:31Z</time>
      </trkpt>
      <trkpt lat="42.843292" lon="-7.743525">
        <time>2022-07-13T08:09:35Z</time>
      </trkpt>
      <trkpt lat="42.8433" lon="-7.743616">
        <time>2022-07-13T08:09:39Z</time>
      </trkpt>
      <trkpt lat="42.843304" lon="-7.743691">
        <time>2022-07-13T08:09:44Z</time>
      </trkpt>
      <trkpt lat="42.843307" lon="-7.7437696">
        <time>2022-07-13T08:09:48Z</time>
      </trkpt>
      <trkpt lat="42.843315" lon="-7.743852">
        <time>2022-07-13T08:09:53Z</time>
      </trkpt>
      <trkpt lat="42.84332" lon="-7.7439356">
        <time>2022-07-13T08:09:57Z</time>
      </trkpt>
      <trkpt lat="42.84333" lon="-7.744007">
        <time>2022-07-13T08:10:02Z</time>
      </trkpt>
      <trkpt lat="42.84334" lon="-7.7441006">
        <time>2022-07-13T08:10:07Z</time>
      </trkpt>
      <trkpt lat="42.84334" lon="-7.7441845">
        <time>2022-07-13T08:10:11Z</time>
      </trkpt>
      <trkpt lat="42.843346" lon="-7.7442565">
        <time>2022-07-13T08:10:14Z</time>
      </trkpt>
      <trkpt lat="42.84335" lon="-7.744327">
        <time>2022-07-13T08:10:18Z</time>
      </trkpt>
      <trkpt lat="42.84335" lon="-7.74441">
        <time>2022-07-13T08:10:23Z</time>
      </trkpt>
      <trkpt lat="42.843357" lon="-7.744486">
        <time>2022-07-13T08:10:26Z</time>
      </trkpt>
      <trkpt lat="42.84335" lon="-7.744562">
        <time>2022-07-13T08:10:31Z</time>
      </trkpt>
      <trkpt lat="42.843338" lon="-7.744645">
        <time>2022-07-13T08:10:35Z</time>
      </trkpt>
      <trkpt lat="42.843334" lon="-7.74471">
        <time>2022-07-13T08:10:38Z</time>
      </trkpt>
      <trkpt lat="42.84334" lon="-7.744789">
        <time>2022-07-13T08:10:43Z</time>
      </trkpt>
      <trkpt lat="42.84336" lon="-7.7448626">
        <time>2022-07-13T08:10:49Z</time>
      </trkpt>
      <trkpt lat="42.843376" lon="-7.744924">
        <time>2022-07-13T08:10:53Z</time>
      </trkpt>
      <trkpt lat="42.843376" lon="-7.7450213">
        <time>2022-07-13T08:10:59Z</time>
      </trkpt>
      <trkpt lat="42.843376" lon="-7.7451158">
        <time>2022-07-13T08:11:03Z</time>
      </trkpt>
      <trkpt lat="42.843384" lon="-7.7451706">
        <time>2022-07-13T08:11:06Z</time>
      </trkpt>
      <trkpt lat="42.843388" lon="-7.7452474">
        <time>2022-07-13T08:11:11Z</time>
      </trkpt>
      <trkpt lat="42.843395" lon="-7.745316">
        <time>2022-07-13T08:11:16Z</time>
      </trkpt>
      <trkpt lat="42.84341" lon="-7.745397">
        <time>2022-07-13T08:11:21Z</time>
      </trkpt>
      <trkpt lat="42.84342" lon="-7.745468">
        <time>2022-07-13T08:11:24Z</time>
      </trkpt>
      <trkpt lat="42.84343" lon="-7.7455516">
        <time>2022-07-13T08:11:28Z</time>
      </trkpt>
      <trkpt lat="42.84344" lon="-7.7456136">
        <time>2022-07-13T08:11:32Z</time>
      </trkpt>
      <trkpt lat="42.843445" lon="-7.7456865">
        <time>2022-07-13T08:11:36Z</time>
      </trkpt>
      <trkpt lat="42.843452" lon="-7.7457643">
        <time>2022-07-13T08:11:41Z</time>
      </trkpt>
      <trkpt lat="42.84347" lon="-7.745846">
        <time>2022-07-13T08:11:45Z</time>
      </trkpt>
      <trkpt lat="42.84349" lon="-7.745917">
        <time>2022-07-13T08:11:48Z</time>
      </trkpt>
      <trkpt lat="42.84351" lon="-7.7459874">
        <time>2022-07-13T08:11:53Z</time>
      </trkpt>
      <trkpt lat="42.843544" lon="-7.7460485">
        <time>2022-07-13T08:11:58Z</time>
      </trkpt>
      <trkpt lat="42.843567" lon="-7.7461314">
        <time>2022-07-13T08:12:04Z</time>
      </trkpt>
      <trkpt lat="42.84358" lon="-7.746196">
        <time>2022-07-13T08:12:08Z</time>
      </trkpt>
      <trkpt lat="42.843597" lon="-7.7462726">
        <time>2022-07-13T08:12:12Z</time>
      </trkpt>
      <trkpt lat="42.84361" lon="-7.7463326">
        <time>2022-07-13T08:12:17Z</time>
      </trkpt>
      <trkpt lat="42.84362" lon="-7.746391">
        <time>2022-07-13T08:12:29Z</time>
      </trkpt>
      <trkpt lat="42.84365" lon="-7.746462">
        <time>2022-07-13T08:12:35Z</time>
      </trkpt>
      <trkpt lat="42.84368" lon="-7.746525">
        <time>2022-07-13T08:12:38Z</time>
      </trkpt>
      <trkpt lat="42.843716" lon="-7.7465906">
        <time>2022-07-13T08:12:42Z</time>
      </trkpt>
      <trkpt lat="42.843742" lon="-7.74665">
        <time>2022-07-13T08:12:46Z</time>
      </trkpt>
      <trkpt lat="42.84377" lon="-7.746705">
        <time>2022-07-13T08:12:48Z</time>
      </trkpt>
      <trkpt lat="42.843796" lon="-7.746779">
        <time>2022-07-13T08:12:52Z</time>
      </trkpt>
      <trkpt lat="42.84382" lon="-7.7468524">
        <time>2022-07-13T08:12:57Z</time>
      </trkpt>
      <trkpt lat="42.843826" lon="-7.746929">
        <time>2022-07-13T08:13:01Z</time>
      </trkpt>
      <trkpt lat="42.84384" lon="-7.746995">
        <time>2022-07-13T08:13:04Z</time>
      </trkpt>
      <trkpt lat="42.84386" lon="-7.7470765">
        <time>2022-07-13T08:13:09Z</time>
      </trkpt>
      <trkpt lat="42.843887" lon="-7.7471538">
        <time>2022-07-13T08:13:12Z</time>
      </trkpt>
      <trkpt lat="42.843906" lon="-7.7472167">
        <time>2022-07-13T08:13:17Z</time>
      </trkpt>
      <trkpt lat="42.843945" lon="-7.747279">
        <time>2022-07-13T08:13:22Z</time>
      </trkpt>
      <trkpt lat="42.843967" lon="-7.74735">
        <time>2022-07-13T08:13:26Z</time>
      </trkpt>
      <trkpt lat="42.843994" lon="-7.747409">
        <time>2022-07-13T08:13:28Z</time>
      </trkpt>
      <trkpt lat="42.84403" lon="-7.747481">
        <time>2022-07-13T08:13:32Z</time>
      </trkpt>
      <trkpt lat="42.844048" lon="-7.747544">
        <time>2022-07-13T08:13:36Z</time>
      </trkpt>
      <trkpt lat="42.844067" lon="-7.747608">
        <time>2022-07-13T08:13:40Z</time>
      </trkpt>
      <trkpt lat="42.844093" lon="-7.747679">
        <time>2022-07-13T08:13:45Z</time>
      </trkpt>
      <trkpt lat="42.84412" lon="-7.747739">
        <time>2022-07-13T08:13:49Z</time>
      </trkpt>
      <trkpt lat="42.84416" lon="-7.7478056">
        <time>2022-07-13T08:13:53Z</time>
      </trkpt>
      <trkpt lat="42.84419" lon="-7.7478776">
        <time>2022-07-13T08:13:57Z</time>
      </trkpt>
      <trkpt lat="42.844204" lon="-7.7479315">
        <time>2022-07-13T08:14:01Z</time>
      </trkpt>
      <trkpt lat="42.84424" lon="-7.7479925">
        <time>2022-07-13T08:14:05Z</time>
      </trkpt>
      <trkpt lat="42.844273" lon="-7.7480497">
        <time>2022-07-13T08:14:09Z</time>
      </trkpt>
      <trkpt lat="42.84428" lon="-7.748128">
        <time>2022-07-13T08:14:13Z</time>
      </trkpt>
      <trkpt lat="42.844284" lon="-7.748189">
        <time>2022-07-13T08:14:18Z</time>
      </trkpt>
      <trkpt lat="42.84427" lon="-7.748262">
        <time>2022-07-13T08:14:23Z</time>
      </trkpt>
      <trkpt lat="42.84424" lon="-7.748333">
        <time>2022-07-13T08:14:27Z</time>
      </trkpt>
      <trkpt lat="42.844215" lon="-7.748404">
        <time>2022-07-13T08:14:30Z</time>
      </trkpt>
      <trkpt lat="42.8442" lon="-7.748472">
        <time>2022-07-13T08:14:35Z</time>
      </trkpt>
      <trkpt lat="42.844204" lon="-7.74855">
        <time>2022-07-13T08:14:40Z</time>
      </trkpt>
      <trkpt lat="42.8442" lon="-7.7486277">
        <time>2022-07-13T08:14:44Z</time>
      </trkpt>
      <trkpt lat="42.844204" lon="-7.748695">
        <time>2022-07-13T08:14:48Z</time>
      </trkpt>
      <trkpt lat="42.844215" lon="-7.7487774">
        <time>2022-07-13T08:14:53Z</time>
      </trkpt>
      <trkpt lat="42.844234" lon="-7.7488556">
        <time>2022-07-13T08:14:58Z</time>
      </trkpt>
      <trkpt lat="42.844254" lon="-7.7489214">
        <time>2022-07-13T08:15:03Z</time>
      </trkpt>
      <trkpt lat="42.844257" lon="-7.7489824">
        <time>2022-07-13T08:15:07Z</time>
      </trkpt>
      <trkpt lat="42.844246" lon="-7.749051">
        <time>2022-07-13T08:15:17Z</time>
      </trkpt>
      <trkpt lat="42.844257" lon="-7.7490897">
        <time>2022-07-13T08:16:07Z</time>
      </trkpt>
      <trkpt lat="42.844284" lon="-7.7491665">
        <time>2022-07-13T08:16:11Z</time>
      </trkpt>
      <trkpt lat="42.844307" lon="-7.749246">
        <time>2022-07-13T08:16:16Z</time>
      </trkpt>
      <trkpt lat="42.84433" lon="-7.749306">
        <time>2022-07-13T08:16:20Z</time>
      </trkpt>
      <trkpt lat="42.844357" lon="-7.749386">
        <time>2022-07-13T08:16:25Z</time>
      </trkpt>
      <trkpt lat="42.84438" lon="-7.7494507">
        <time>2022-07-13T08:16:29Z</time>
      </trkpt>
      <trkpt lat="42.844402" lon="-7.749521">
        <time>2022-07-13T08:16:34Z</time>
      </trkpt>
      <trkpt lat="42.844444" lon="-7.7496204">
        <time>2022-07-13T08:16:40Z</time>
      </trkpt>
      <trkpt lat="42.84448" lon="-7.749687">
        <time>2022-07-13T08:16:45Z</time>
      </trkpt>
      <trkpt lat="42.84451" lon="-7.7497525">
        <time>2022-07-13T08:16:49Z</time>
      </trkpt>
      <trkpt lat="42.844536" lon="-7.749813">
        <time>2022-07-13T08:16:53Z</time>
      </trkpt>
      <trkpt lat="42.844574" lon="-7.749876">
        <time>2022-07-13T08:16:58Z</time>
      </trkpt>
      <trkpt lat="42.8446" lon="-7.74994">
        <time>2022-07-13T08:17:03Z</time>
      </trkpt>
      <trkpt lat="42.844616" lon="-7.7500296">
        <time>2022-07-13T08:17:08Z</time>
      </trkpt>
      <trkpt lat="42.84464" lon="-7.750088">
        <time>2022-07-13T08:17:12Z</time>
      </trkpt>
      <trkpt lat="42.844666" lon="-7.750169">
        <time>2022-07-13T08:17:17Z</time>
      </trkpt>
      <trkpt lat="42.84468" lon="-7.7502465">
        <time>2022-07-13T08:17:22Z</time>
      </trkpt>
      <trkpt lat="42.844707" lon="-7.7503295">
        <time>2022-07-13T08:17:26Z</time>
      </trkpt>
      <trkpt lat="42.84473" lon="-7.7504025">
        <time>2022-07-13T08:17:32Z</time>
      </trkpt>
      <trkpt lat="42.844746" lon="-7.7504644">
        <time>2022-07-13T08:17:36Z</time>
      </trkpt>
      <trkpt lat="42.84476" lon="-7.7505474">
        <time>2022-07-13T08:17:40Z</time>
      </trkpt>
      <trkpt lat="42.844776" lon="-7.7506223">
        <time>2022-07-13T08:17:45Z</time>
      </trkpt>
      <trkpt lat="42.844795" lon="-7.7506843">
        <time>2022-07-13T08:17:49Z</time>
      </trkpt>
      <trkpt lat="42.84482" lon="-7.750758">
        <time>2022-07-13T08:17:54Z</time>
      </trkpt>
      <trkpt lat="42.84484" lon="-7.7508173">
        <time>2022-07-13T08:17:57Z</time>
      </trkpt>
      <trkpt lat="42.844868" lon="-7.750888">
        <time>2022-07-13T08:18:02Z</time>
      </trkpt>
      <trkpt lat="42.844894" lon="-7.75095">
        <time>2022-07-13T08:18:06Z</time>
      </trkpt>
      <trkpt lat="42.844925" lon="-7.7510214">
        <time>2022-07-13T08:18:12Z</time>
      </trkpt>
      <trkpt lat="42.84494" lon="-7.751096">
        <time>2022-07-13T08:18:17Z</time>
      </trkpt>
      <trkpt lat="42.844955" lon="-7.751162">
        <time>2022-07-13T08:18:21Z</time>
      </trkpt>
      <trkpt lat="42.844975" lon="-7.7512364">
        <time>2022-07-13T08:18:26Z</time>
      </trkpt>
      <trkpt lat="42.845" lon="-7.7513185">
        <time>2022-07-13T08:18:33Z</time>
      </trkpt>
      <trkpt lat="42.845005" lon="-7.7513995">
        <time>2022-07-13T08:18:37Z</time>
      </trkpt>
      <trkpt lat="42.845013" lon="-7.7514715">
        <time>2022-07-13T08:18:41Z</time>
      </trkpt>
      <trkpt lat="42.845036" lon="-7.751537">
        <time>2022-07-13T08:18:45Z</time>
      </trkpt>
      <trkpt lat="42.845047" lon="-7.751605">
        <time>2022-07-13T08:18:49Z</time>
      </trkpt>
      <trkpt lat="42.845062" lon="-7.751682">
        <time>2022-07-13T08:18:54Z</time>
      </trkpt>
      <trkpt lat="42.84508" lon="-7.751756">
        <time>2022-07-13T08:18:58Z</time>
      </trkpt>
      <trkpt lat="42.845093" lon="-7.7518215">
        <time>2022-07-13T08:19:04Z</time>
      </trkpt>
      <trkpt lat="42.845116" lon="-7.751889">
        <time>2022-07-13T08:19:09Z</time>
      </trkpt>
      <trkpt lat="42.84514" lon="-7.751957">
        <time>2022-07-13T08:19:15Z</time>
      </trkpt>
      <trkpt lat="42.84516" lon="-7.7520294">
        <time>2022-07-13T08:19:20Z</time>
      </trkpt>
      <trkpt lat="42.845173" lon="-7.752091">
        <time>2022-07-13T08:19:24Z</time>
      </trkpt>
      <trkpt lat="42.8452" lon="-7.752162">
        <time>2022-07-13T08:19:28Z</time>
      </trkpt>
      <trkpt lat="42.845222" lon="-7.7522283">
        <time>2022-07-13T08:19:34Z</time>
      </trkpt>
      <trkpt lat="42.845238" lon="-7.7522974">
        <time>2022-07-13T08:19:39Z</time>
      </trkpt>
      <trkpt lat="42.84526" lon="-7.752362">
        <time>2022-07-13T08:19:44Z</time>
      </trkpt>
      <trkpt lat="42.845276" lon="-7.75243">
        <time>2022-07-13T08:19:49Z</time>
      </trkpt>
      <trkpt lat="42.845303" lon="-7.75249">
        <time>2022-07-13T08:19:55Z</time>
      </trkpt>
      <trkpt lat="42.845325" lon="-7.752568">
        <time>2022-07-13T08:20:00Z</time>
      </trkpt>
      <trkpt lat="42.84535" lon="-7.752628">
        <time>2022-07-13T08:20:03Z</time>
      </trkpt>
      <trkpt lat="42.84536" lon="-7.7526946">
        <time>2022-07-13T08:20:07Z</time>
      </trkpt>
      <trkpt lat="42.84536" lon="-7.7527714">
        <time>2022-07-13T08:20:13Z</time>
      </trkpt>
      <trkpt lat="42.845375" lon="-7.7528315">
        <time>2022-07-13T08:20:18Z</time>
      </trkpt>
      <trkpt lat="42.845383" lon="-7.7529235">
        <time>2022-07-13T08:20:23Z</time>
      </trkpt>
      <trkpt lat="42.845387" lon="-7.752995">
        <time>2022-07-13T08:20:29Z</time>
      </trkpt>
      <trkpt lat="42.84539" lon="-7.753073">
        <time>2022-07-13T08:20:34Z</time>
      </trkpt>
      <trkpt lat="42.845387" lon="-7.7531476">
        <time>2022-07-13T08:20:38Z</time>
      </trkpt>
      <trkpt lat="42.84539" lon="-7.753224">
        <time>2022-07-13T08:20:43Z</time>
      </trkpt>
      <trkpt lat="42.845387" lon="-7.753313">
        <time>2022-07-13T08:20:49Z</time>
      </trkpt>
      <trkpt lat="42.84538" lon="-7.7533913">
        <time>2022-07-13T08:20:55Z</time>
      </trkpt>
      <trkpt lat="42.845383" lon="-7.753467">
        <time>2022-07-13T08:20:58Z</time>
      </trkpt>
      <trkpt lat="42.84538" lon="-7.7535295">
        <time>2022-07-13T08:21:02Z</time>
      </trkpt>
      <trkpt lat="42.845383" lon="-7.753609">
        <time>2022-07-13T08:21:06Z</time>
      </trkpt>
      <trkpt lat="42.845383" lon="-7.7536826">
        <time>2022-07-13T08:21:11Z</time>
      </trkpt>
      <trkpt lat="42.845383" lon="-7.753759">
        <time>2022-07-13T08:21:15Z</time>
      </trkpt>
      <trkpt lat="42.845383" lon="-7.7538424">
        <time>2022-07-13T08:21:20Z</time>
      </trkpt>
      <trkpt lat="42.845387" lon="-7.7539134">
        <time>2022-07-13T08:21:24Z</time>
      </trkpt>
      <trkpt lat="42.8454" lon="-7.753991">
        <time>2022-07-13T08:21:28Z</time>
      </trkpt>
      <trkpt lat="42.845413" lon="-7.754063">
        <time>2022-07-13T08:21:32Z</time>
      </trkpt>
      <trkpt lat="42.845425" lon="-7.75413">
        <time>2022-07-13T08:21:36Z</time>
      </trkpt>
      <trkpt lat="42.84544" lon="-7.754192">
        <time>2022-07-13T08:21:40Z</time>
      </trkpt>
      <trkpt lat="42.845448" lon="-7.7542696">
        <time>2022-07-13T08:21:43Z</time>
      </trkpt>
      <trkpt lat="42.845455" lon="-7.7543445">
        <time>2022-07-13T08:21:48Z</time>
      </trkpt>
      <trkpt lat="42.845467" lon="-7.754416">
        <time>2022-07-13T08:21:51Z</time>
      </trkpt>
      <trkpt lat="42.84548" lon="-7.75448">
        <time>2022-07-13T08:21:56Z</time>
      </trkpt>
      <trkpt lat="42.845505" lon="-7.7545614">
        <time>2022-07-13T08:22:01Z</time>
      </trkpt>
      <trkpt lat="42.845528" lon="-7.7546315">
        <time>2022-07-13T08:22:04Z</time>
      </trkpt>
      <trkpt lat="42.845543" lon="-7.754698">
        <time>2022-07-13T08:22:08Z</time>
      </trkpt>
      <trkpt lat="42.845554" lon="-7.7547655">
        <time>2022-07-13T08:22:13Z</time>
      </trkpt>
      <trkpt lat="42.845573" lon="-7.7548523">
        <time>2022-07-13T08:22:19Z</time>
      </trkpt>
      <trkpt lat="42.84559" lon="-7.7549286">
        <time>2022-07-13T08:22:23Z</time>
      </trkpt>
      <trkpt lat="42.845604" lon="-7.7550015">
        <time>2022-07-13T08:22:27Z</time>
      </trkpt>
      <trkpt lat="42.84562" lon="-7.755091">
        <time>2022-07-13T08:22:32Z</time>
      </trkpt>
      <trkpt lat="42.845634" lon="-7.7551746">
        <time>2022-07-13T08:22:36Z</time>
      </trkpt>
      <trkpt lat="42.845642" lon="-7.755235">
        <time>2022-07-13T08:22:41Z</time>
      </trkpt>
      <trkpt lat="42.845654" lon="-7.755316">
        <time>2022-07-13T08:22:46Z</time>
      </trkpt>
      <trkpt lat="42.84567" lon="-7.755389">
        <time>2022-07-13T08:22:49Z</time>
      </trkpt>
      <trkpt lat="42.84569" lon="-7.755463">
        <time>2022-07-13T08:22:54Z</time>
      </trkpt>
      <trkpt lat="42.845715" lon="-7.755534">
        <time>2022-07-13T08:22:58Z</time>
      </trkpt>
      <trkpt lat="42.845737" lon="-7.7556">
        <time>2022-07-13T08:23:02Z</time>
      </trkpt>
      <trkpt lat="42.84576" lon="-7.755675">
        <time>2022-07-13T08:23:07Z</time>
      </trkpt>
      <trkpt lat="42.84578" lon="-7.75574">
        <time>2022-07-13T08:23:12Z</time>
      </trkpt>
      <trkpt lat="42.845802" lon="-7.755807">
        <time>2022-07-13T08:23:15Z</time>
      </trkpt>
      <trkpt lat="42.845833" lon="-7.755881">
        <time>2022-07-13T08:23:19Z</time>
      </trkpt>
      <trkpt lat="42.84586" lon="-7.7559342">
        <time>2022-07-13T08:23:22Z</time>
      </trkpt>
      <trkpt lat="42.84589" lon="-7.7559977">
        <time>2022-07-13T08:23:26Z</time>
      </trkpt>
      <trkpt lat="42.84592" lon="-7.7560472">
        <time>2022-07-13T08:23:30Z</time>
      </trkpt>
      <trkpt lat="42.845955" lon="-7.756112">
        <time>2022-07-13T08:23:35Z</time>
      </trkpt>
      <trkpt lat="42.845993" lon="-7.756168">
        <time>2022-07-13T08:23:39Z</time>
      </trkpt>
      <trkpt lat="42.846035" lon="-7.756219">
        <time>2022-07-13T08:23:43Z</time>
      </trkpt>
      <trkpt lat="42.846085" lon="-7.7562876">
        <time>2022-07-13T08:23:49Z</time>
      </trkpt>
      <trkpt lat="42.846127" lon="-7.756341">
        <time>2022-07-13T08:23:54Z</time>
      </trkpt>
      <trkpt lat="42.846165" lon="-7.7564">
        <time>2022-07-13T08:23:58Z</time>
      </trkpt>
      <trkpt lat="42.846203" lon="-7.756449">
        <time>2022-07-13T08:24:02Z</time>
      </trkpt>
      <trkpt lat="42.846245" lon="-7.756503">
        <time>2022-07-13T08:24:08Z</time>
      </trkpt>
      <trkpt lat="42.846294" lon="-7.756553">
        <time>2022-07-13T08:24:12Z</time>
      </trkpt>
      <trkpt lat="42.84633" lon="-7.756588">
        <time>2022-07-13T08:24:14Z</time>
      </trkpt>
      <trkpt lat="42.846367" lon="-7.7566423">
        <time>2022-07-13T08:24:21Z</time>
      </trkpt>
      <trkpt lat="42.846424" lon="-7.756705">
        <time>2022-07-13T08:24:27Z</time>
      </trkpt>
      <trkpt lat="42.84647" lon="-7.756748">
        <time>2022-07-13T08:24:31Z</time>
      </trkpt>
      <trkpt lat="42.846516" lon="-7.7567964">
        <time>2022-07-13T08:24:36Z</time>
      </trkpt>
      <trkpt lat="42.84656" lon="-7.7568645">
        <time>2022-07-13T08:24:41Z</time>
      </trkpt>
      <trkpt lat="42.8466" lon="-7.756919">
        <time>2022-07-13T08:24:45Z</time>
      </trkpt>
      <trkpt lat="42.84664" lon="-7.7569695">
        <time>2022-07-13T08:24:50Z</time>
      </trkpt>
      <trkpt lat="42.846684" lon="-7.7570195">
        <time>2022-07-13T08:24:54Z</time>
      </trkpt>
      <trkpt lat="42.84673" lon="-7.757065">
        <time>2022-07-13T08:24:58Z</time>
      </trkpt>
      <trkpt lat="42.846775" lon="-7.757117">
        <time>2022-07-13T08:25:04Z</time>
      </trkpt>
      <trkpt lat="42.846825" lon="-7.757159">
        <time>2022-07-13T08:25:08Z</time>
      </trkpt>
      <trkpt lat="42.846874" lon="-7.757191">
        <time>2022-07-13T08:25:11Z</time>
      </trkpt>
      <trkpt lat="42.84691" lon="-7.757224">
        <time>2022-07-13T08:25:15Z</time>
      </trkpt>
      <trkpt lat="42.84696" lon="-7.7572737">
        <time>2022-07-13T08:25:20Z</time>
      </trkpt>
      <trkpt lat="42.847004" lon="-7.757312">
        <time>2022-07-13T08:25:24Z</time>
      </trkpt>
      <trkpt lat="42.847046" lon="-7.757342">
        <time>2022-07-13T08:25:28Z</time>
      </trkpt>
      <trkpt lat="42.847107" lon="-7.7573867">
        <time>2022-07-13T08:25:33Z</time>
      </trkpt>
      <trkpt lat="42.847153" lon="-7.757429">
        <time>2022-07-13T08:25:37Z</time>
      </trkpt>
      <trkpt lat="42.84719" lon="-7.7574596">
        <time>2022-07-13T08:25:41Z</time>
      </trkpt>
      <trkpt lat="42.84725" lon="-7.7575064">
        <time>2022-07-13T08:25:47Z</time>
      </trkpt>
      <trkpt lat="42.8473" lon="-7.7575426">
        <time>2022-07-13T08:25:50Z</time>
      </trkpt>
      <trkpt lat="42.847343" lon="-7.7575693">
        <time>2022-07-13T08:25:54Z</time>
      </trkpt>
      <trkpt lat="42.847393" lon="-7.7576184">
        <time>2022-07-13T08:25:59Z</time>
      </trkpt>
      <trkpt lat="42.847443" lon="-7.7576623">
        <time>2022-07-13T08:26:03Z</time>
      </trkpt>
      <trkpt lat="42.84749" lon="-7.757701">
        <time>2022-07-13T08:26:07Z</time>
      </trkpt>
      <trkpt lat="42.847546" lon="-7.7577415">
        <time>2022-07-13T08:26:12Z</time>
      </trkpt>
      <trkpt lat="42.84759" lon="-7.757785">
        <time>2022-07-13T08:26:16Z</time>
      </trkpt>
      <trkpt lat="42.847637" lon="-7.7578363">
        <time>2022-07-13T08:26:21Z</time>
      </trkpt>
      <trkpt lat="42.847687" lon="-7.7578783">
        <time>2022-07-13T08:26:25Z</time>
      </trkpt>
      <trkpt lat="42.84773" lon="-7.757912">
        <time>2022-07-13T08:26:29Z</time>
      </trkpt>
      <trkpt lat="42.84777" lon="-7.7579494">
        <time>2022-07-13T08:26:33Z</time>
      </trkpt>
      <trkpt lat="42.847813" lon="-7.7580066">
        <time>2022-07-13T08:26:38Z</time>
      </trkpt>
      <trkpt lat="42.847855" lon="-7.758058">
        <time>2022-07-13T08:26:43Z</time>
      </trkpt>
      <trkpt lat="42.847897" lon="-7.758102">
        <time>2022-07-13T08:26:49Z</time>
      </trkpt>
      <trkpt lat="42.847942" lon="-7.7581515">
        <time>2022-07-13T08:26:53Z</time>
      </trkpt>
      <trkpt lat="42.84798" lon="-7.758202">
        <time>2022-07-13T08:26:58Z</time>
      </trkpt>
      <trkpt lat="42.84802" lon="-7.7582498">
        <time>2022-07-13T08:27:03Z</time>
      </trkpt>
      <trkpt lat="42.848057" lon="-7.7583013">
        <time>2022-07-13T08:27:08Z</time>
      </trkpt>
      <trkpt lat="42.84809" lon="-7.7583566">
        <time>2022-07-13T08:27:13Z</time>
      </trkpt>
      <trkpt lat="42.848137" lon="-7.758413">
        <time>2022-07-13T08:27:19Z</time>
      </trkpt>
      <trkpt lat="42.848175" lon="-7.758467">
        <time>2022-07-13T08:27:23Z</time>
      </trkpt>
      <trkpt lat="42.84821" lon="-7.7585177">
        <time>2022-07-13T08:27:27Z</time>
      </trkpt>
      <trkpt lat="42.848248" lon="-7.7585773">
        <time>2022-07-13T08:27:32Z</time>
      </trkpt>
      <trkpt lat="42.8483" lon="-7.758628">
        <time>2022-07-13T08:27:36Z</time>
      </trkpt>
      <trkpt lat="42.848343" lon="-7.758675">
        <time>2022-07-13T08:27:40Z</time>
      </trkpt>
      <trkpt lat="42.848377" lon="-7.758718">
        <time>2022-07-13T08:27:44Z</time>
      </trkpt>
      <trkpt lat="42.848427" lon="-7.7587795">
        <time>2022-07-13T08:27:49Z</time>
      </trkpt>
      <trkpt lat="42.848465" lon="-7.7588344">
        <time>2022-07-13T08:27:54Z</time>
      </trkpt>
      <trkpt lat="42.848515" lon="-7.758892">
        <time>2022-07-13T08:27:59Z</time>
      </trkpt>
      <trkpt lat="42.84855" lon="-7.7589464">
        <time>2022-07-13T08:28:03Z</time>
      </trkpt>
      <trkpt lat="42.848587" lon="-7.7590213">
        <time>2022-07-13T08:28:09Z</time>
      </trkpt>
      <trkpt lat="42.84863" lon="-7.7590837">
        <time>2022-07-13T08:28:14Z</time>
      </trkpt>
      <trkpt lat="42.84867" lon="-7.759148">
        <time>2022-07-13T08:28:18Z</time>
      </trkpt>
      <trkpt lat="42.8487" lon="-7.7592034">
        <time>2022-07-13T08:28:22Z</time>
      </trkpt>
      <trkpt lat="42.848736" lon="-7.7592664">
        <time>2022-07-13T08:28:27Z</time>
      </trkpt>
      <trkpt lat="42.848778" lon="-7.7593164">
        <time>2022-07-13T08:28:32Z</time>
      </trkpt>
      <trkpt lat="42.848824" lon="-7.7593694">
        <time>2022-07-13T08:28:35Z</time>
      </trkpt>
      <trkpt lat="42.848866" lon="-7.759417">
        <time>2022-07-13T08:28:39Z</time>
      </trkpt>
      <trkpt lat="42.848904" lon="-7.759459">
        <time>2022-07-13T08:28:43Z</time>
      </trkpt>
      <trkpt lat="42.84894" lon="-7.759522">
        <time>2022-07-13T08:28:47Z</time>
      </trkpt>
      <trkpt lat="42.848984" lon="-7.7595744">
        <time>2022-07-13T08:28:51Z</time>
      </trkpt>
      <trkpt lat="42.849014" lon="-7.759629">
        <time>2022-07-13T08:28:56Z</time>
      </trkpt>
      <trkpt lat="42.849052" lon="-7.7596955">
        <time>2022-07-13T08:29:01Z</time>
      </trkpt>
      <trkpt lat="42.8491" lon="-7.759747">
        <time>2022-07-13T08:29:06Z</time>
      </trkpt>
      <trkpt lat="42.849144" lon="-7.759805">
        <time>2022-07-13T08:29:11Z</time>
      </trkpt>
      <trkpt lat="42.84919" lon="-7.759859">
        <time>2022-07-13T08:29:15Z</time>
      </trkpt>
      <trkpt lat="42.849236" lon="-7.7599106">
        <time>2022-07-13T08:29:19Z</time>
      </trkpt>
      <trkpt lat="42.849277" lon="-7.75996">
        <time>2022-07-13T08:29:24Z</time>
      </trkpt>
      <trkpt lat="42.849323" lon="-7.7600183">
        <time>2022-07-13T08:29:29Z</time>
      </trkpt>
      <trkpt lat="42.84936" lon="-7.7600703">
        <time>2022-07-13T08:29:34Z</time>
      </trkpt>
      <trkpt lat="42.8494" lon="-7.76014">
        <time>2022-07-13T08:29:39Z</time>
      </trkpt>
      <trkpt lat="42.849445" lon="-7.760199">
        <time>2022-07-13T08:29:43Z</time>
      </trkpt>
      <trkpt lat="42.849476" lon="-7.760261">
        <time>2022-07-13T08:29:47Z</time>
      </trkpt>
      <trkpt lat="42.84951" lon="-7.760329">
        <time>2022-07-13T08:29:53Z</time>
      </trkpt>
      <trkpt lat="42.84955" lon="-7.760396">
        <time>2022-07-13T08:29:57Z</time>
      </trkpt>
      <trkpt lat="42.849583" lon="-7.7604504">
        <time>2022-07-13T08:30:01Z</time>
      </trkpt>
      <trkpt lat="42.84962" lon="-7.7605214">
        <time>2022-07-13T08:30:06Z</time>
      </trkpt>
      <trkpt lat="42.849648" lon="-7.760582">
        <time>2022-07-13T08:30:11Z</time>
      </trkpt>
      <trkpt lat="42.84967" lon="-7.7606645">
        <time>2022-07-13T08:30:15Z</time>
      </trkpt>
      <trkpt lat="42.849693" lon="-7.760746">
        <time>2022-07-13T08:30:20Z</time>
      </trkpt>
      <trkpt lat="42.849705" lon="-7.7608194">
        <time>2022-07-13T08:30:24Z</time>
      </trkpt>
      <trkpt lat="42.849716" lon="-7.7608857">
        <time>2022-07-13T08:30:28Z</time>
      </trkpt>
      <trkpt lat="42.84974" lon="-7.760966">
        <time>2022-07-13T08:30:33Z</time>
      </trkpt>
      <trkpt lat="42.849762" lon="-7.761028">
        <time>2022-07-13T08:30:37Z</time>
      </trkpt>
      <trkpt lat="42.849785" lon="-7.761107">
        <time>2022-07-13T08:30:42Z</time>
      </trkpt>
      <trkpt lat="42.849808" lon="-7.761183">
        <time>2022-07-13T08:30:48Z</time>
      </trkpt>
      <trkpt lat="42.84982" lon="-7.7612505">
        <time>2022-07-13T08:30:51Z</time>
      </trkpt>
      <trkpt lat="42.84984" lon="-7.761331">
        <time>2022-07-13T08:30:56Z</time>
      </trkpt>
      <trkpt lat="42.84986" lon="-7.761396">
        <time>2022-07-13T08:31:00Z</time>
      </trkpt>
      <trkpt lat="42.849888" lon="-7.761473">
        <time>2022-07-13T08:31:05Z</time>
      </trkpt>
      <trkpt lat="42.84991" lon="-7.7615495">
        <time>2022-07-13T08:31:10Z</time>
      </trkpt>
      <trkpt lat="42.84994" lon="-7.7616286">
        <time>2022-07-13T08:31:15Z</time>
      </trkpt>
      <trkpt lat="42.84996" lon="-7.7617154">
        <time>2022-07-13T08:31:20Z</time>
      </trkpt>
      <trkpt lat="42.84999" lon="-7.7617793">
        <time>2022-07-13T08:31:24Z</time>
      </trkpt>
      <trkpt lat="42.850014" lon="-7.761839">
        <time>2022-07-13T08:31:28Z</time>
      </trkpt>
      <trkpt lat="42.850033" lon="-7.7619014">
        <time>2022-07-13T08:31:32Z</time>
      </trkpt>
      <trkpt lat="42.850067" lon="-7.761974">
        <time>2022-07-13T08:31:37Z</time>
      </trkpt>
      <trkpt lat="42.850086" lon="-7.76204">
        <time>2022-07-13T08:31:41Z</time>
      </trkpt>
      <trkpt lat="42.850117" lon="-7.76212">
        <time>2022-07-13T08:31:46Z</time>
      </trkpt>
      <trkpt lat="42.85014" lon="-7.762183">
        <time>2022-07-13T08:31:50Z</time>
      </trkpt>
      <trkpt lat="42.850166" lon="-7.7622466">
        <time>2022-07-13T08:31:54Z</time>
      </trkpt>
      <trkpt lat="42.8502" lon="-7.7623215">
        <time>2022-07-13T08:31:59Z</time>
      </trkpt>
      <trkpt lat="42.85023" lon="-7.762389">
        <time>2022-07-13T08:32:04Z</time>
      </trkpt>
      <trkpt lat="42.85026" lon="-7.762468">
        <time>2022-07-13T08:32:09Z</time>
      </trkpt>
      <trkpt lat="42.85029" lon="-7.762533">
        <time>2022-07-13T08:32:13Z</time>
      </trkpt>
      <trkpt lat="42.850315" lon="-7.7625976">
        <time>2022-07-13T08:32:17Z</time>
      </trkpt>
      <trkpt lat="42.850338" lon="-7.762662">
        <time>2022-07-13T08:32:21Z</time>
      </trkpt>
      <trkpt lat="42.85037" lon="-7.7627397">
        <time>2022-07-13T08:32:26Z</time>
      </trkpt>
      <trkpt lat="42.8504" lon="-7.762803">
        <time>2022-07-13T08:32:31Z</time>
      </trkpt>
      <trkpt lat="42.850418" lon="-7.7628775">
        <time>2022-07-13T08:32:36Z</time>
      </trkpt>
      <trkpt lat="42.850437" lon="-7.762945">
        <time>2022-07-13T08:32:40Z</time>
      </trkpt>
      <trkpt lat="42.850464" lon="-7.763008">
        <time>2022-07-13T08:32:44Z</time>
      </trkpt>
      <trkpt lat="42.850483" lon="-7.763081">
        <time>2022-07-13T08:32:48Z</time>
      </trkpt>
      <trkpt lat="42.850513" lon="-7.763152">
        <time>2022-07-13T08:32:52Z</time>
      </trkpt>
      <trkpt lat="42.85054" lon="-7.7632155">
        <time>2022-07-13T08:32:56Z</time>
      </trkpt>
      <trkpt lat="42.850567" lon="-7.76328">
        <time>2022-07-13T08:33:01Z</time>
      </trkpt>
      <trkpt lat="42.850594" lon="-7.763343">
        <time>2022-07-13T08:33:04Z</time>
      </trkpt>
      <trkpt lat="42.850616" lon="-7.763408">
        <time>2022-07-13T08:33:08Z</time>
      </trkpt>
      <trkpt lat="42.850636" lon="-7.763484">
        <time>2022-07-13T08:33:12Z</time>
      </trkpt>
      <trkpt lat="42.850655" lon="-7.763552">
        <time>2022-07-13T08:33:16Z</time>
      </trkpt>
      <trkpt lat="42.850677" lon="-7.763613">
        <time>2022-07-13T08:33:20Z</time>
      </trkpt>
      <trkpt lat="42.850704" lon="-7.763676">
        <time>2022-07-13T08:33:24Z</time>
      </trkpt>
      <trkpt lat="42.850727" lon="-7.763741">
        <time>2022-07-13T08:33:28Z</time>
      </trkpt>
      <trkpt lat="42.85075" lon="-7.763805">
        <time>2022-07-13T08:33:32Z</time>
      </trkpt>
      <trkpt lat="42.850773" lon="-7.763891">
        <time>2022-07-13T08:33:37Z</time>
      </trkpt>
      <trkpt lat="42.850796" lon="-7.7639656">
        <time>2022-07-13T08:33:41Z</time>
      </trkpt>
      <trkpt lat="42.85081" lon="-7.7640367">
        <time>2022-07-13T08:33:45Z</time>
      </trkpt>
      <trkpt lat="42.850826" lon="-7.7641025">
        <time>2022-07-13T08:33:49Z</time>
      </trkpt>
      <trkpt lat="42.85085" lon="-7.7641845">
        <time>2022-07-13T08:33:54Z</time>
      </trkpt>
      <trkpt lat="42.85087" lon="-7.7642546">
        <time>2022-07-13T08:33:58Z</time>
      </trkpt>
      <trkpt lat="42.850887" lon="-7.764339">
        <time>2022-07-13T08:34:03Z</time>
      </trkpt>
      <trkpt lat="42.850906" lon="-7.764408">
        <time>2022-07-13T08:34:07Z</time>
      </trkpt>
      <trkpt lat="42.850918" lon="-7.764473">
        <time>2022-07-13T08:34:12Z</time>
      </trkpt>
      <trkpt lat="42.850937" lon="-7.764557">
        <time>2022-07-13T08:34:16Z</time>
      </trkpt>
      <trkpt lat="42.85095" lon="-7.764629">
        <time>2022-07-13T08:34:20Z</time>
      </trkpt>
      <trkpt lat="42.850964" lon="-7.764701">
        <time>2022-07-13T08:34:24Z</time>
      </trkpt>
      <trkpt lat="42.85098" lon="-7.764768">
        <time>2022-07-13T08:34:28Z</time>
      </trkpt>
      <trkpt lat="42.850994" lon="-7.7648373">
        <time>2022-07-13T08:34:32Z</time>
      </trkpt>
      <trkpt lat="42.851017" lon="-7.76492">
        <time>2022-07-13T08:34:37Z</time>
      </trkpt>
      <trkpt lat="42.851036" lon="-7.764987">
        <time>2022-07-13T08:34:41Z</time>
      </trkpt>
      <trkpt lat="42.85105" lon="-7.765069">
        <time>2022-07-13T08:34:46Z</time>
      </trkpt>
      <trkpt lat="42.851067" lon="-7.765141">
        <time>2022-07-13T08:34:50Z</time>
      </trkpt>
      <trkpt lat="42.851093" lon="-7.765201">
        <time>2022-07-13T08:34:54Z</time>
      </trkpt>
      <trkpt lat="42.851116" lon="-7.76527">
        <time>2022-07-13T08:35:00Z</time>
      </trkpt>
      <trkpt lat="42.851135" lon="-7.765351">
        <time>2022-07-13T08:35:05Z</time>
      </trkpt>
      <trkpt lat="42.85115" lon="-7.765424">
        <time>2022-07-13T08:35:09Z</time>
      </trkpt>
      <trkpt lat="42.851162" lon="-7.7654977">
        <time>2022-07-13T08:35:13Z</time>
      </trkpt>
      <trkpt lat="42.851177" lon="-7.765566">
        <time>2022-07-13T08:35:17Z</time>
      </trkpt>
      <trkpt lat="42.851192" lon="-7.765649">
        <time>2022-07-13T08:35:22Z</time>
      </trkpt>
      <trkpt lat="42.85121" lon="-7.765718">
        <time>2022-07-13T08:35:26Z</time>
      </trkpt>
      <trkpt lat="42.85123" lon="-7.7657895">
        <time>2022-07-13T08:35:30Z</time>
      </trkpt>
      <trkpt lat="42.851254" lon="-7.7658596">
        <time>2022-07-13T08:35:34Z</time>
      </trkpt>
      <trkpt lat="42.851276" lon="-7.765926">
        <time>2022-07-13T08:35:38Z</time>
      </trkpt>
      <trkpt lat="42.8513" lon="-7.7659883">
        <time>2022-07-13T08:35:42Z</time>
      </trkpt>
      <trkpt lat="42.85132" lon="-7.766063">
        <time>2022-07-13T08:35:47Z</time>
      </trkpt>
      <trkpt lat="42.85134" lon="-7.766123">
        <time>2022-07-13T08:35:51Z</time>
      </trkpt>
      <trkpt lat="42.85137" lon="-7.7661996">
        <time>2022-07-13T08:35:56Z</time>
      </trkpt>
      <trkpt lat="42.851383" lon="-7.7662735">
        <time>2022-07-13T08:36:00Z</time>
      </trkpt>
      <trkpt lat="42.851402" lon="-7.7663465">
        <time>2022-07-13T08:36:04Z</time>
      </trkpt>
      <trkpt lat="42.851414" lon="-7.7664113">
        <time>2022-07-13T08:36:08Z</time>
      </trkpt>
      <trkpt lat="42.851444" lon="-7.766469">
        <time>2022-07-13T08:36:13Z</time>
      </trkpt>
      <trkpt lat="42.85148" lon="-7.766533">
        <time>2022-07-13T08:36:19Z</time>
      </trkpt>
      <trkpt lat="42.8515" lon="-7.7665935">
        <time>2022-07-13T08:36:23Z</time>
      </trkpt>
      <trkpt lat="42.851524" lon="-7.7666683">
        <time>2022-07-13T08:36:27Z</time>
      </trkpt>
      <trkpt lat="42.851532" lon="-7.7667565">
        <time>2022-07-13T08:36:31Z</time>
      </trkpt>
      <trkpt lat="42.851543" lon="-7.7668314">
        <time>2022-07-13T08:36:35Z</time>
      </trkpt>
      <trkpt lat="42.851555" lon="-7.7669106">
        <time>2022-07-13T08:36:39Z</time>
      </trkpt>
      <trkpt lat="42.85156" lon="-7.7669797">
        <time>2022-07-13T08:36:42Z</time>
      </trkpt>
      <trkpt lat="42.851574" lon="-7.7670584">
        <time>2022-07-13T08:36:46Z</time>
      </trkpt>
      <trkpt lat="42.85159" lon="-7.7671313">
        <time>2022-07-13T08:36:50Z</time>
      </trkpt>
      <trkpt lat="42.851593" lon="-7.767223">
        <time>2022-07-13T08:36:54Z</time>
      </trkpt>
      <trkpt lat="42.851585" lon="-7.767295">
        <time>2022-07-13T08:36:57Z</time>
      </trkpt>
      <trkpt lat="42.851585" lon="-7.7673826">
        <time>2022-07-13T08:37:01Z</time>
      </trkpt>
      <trkpt lat="42.851597" lon="-7.767451">
        <time>2022-07-13T08:37:05Z</time>
      </trkpt>
      <trkpt lat="42.851612" lon="-7.767516">
        <time>2022-07-13T08:37:09Z</time>
      </trkpt>
      <trkpt lat="42.85163" lon="-7.7676015">
        <time>2022-07-13T08:37:14Z</time>
      </trkpt>
      <trkpt lat="42.851646" lon="-7.7676744">
        <time>2022-07-13T08:37:18Z</time>
      </trkpt>
      <trkpt lat="42.851665" lon="-7.7677393">
        <time>2022-07-13T08:37:22Z</time>
      </trkpt>
      <trkpt lat="42.85168" lon="-7.767802">
        <time>2022-07-13T08:37:26Z</time>
      </trkpt>
      <trkpt lat="42.851704" lon="-7.7678657">
        <time>2022-07-13T08:37:30Z</time>
      </trkpt>
      <trkpt lat="42.851727" lon="-7.767946">
        <time>2022-07-13T08:37:35Z</time>
      </trkpt>
      <trkpt lat="42.851746" lon="-7.7680135">
        <time>2022-07-13T08:37:39Z</time>
      </trkpt>
      <trkpt lat="42.851772" lon="-7.768083">
        <time>2022-07-13T08:37:43Z</time>
      </trkpt>
      <trkpt lat="42.8518" lon="-7.768145">
        <time>2022-07-13T08:37:47Z</time>
      </trkpt>
      <trkpt lat="42.851837" lon="-7.768201">
        <time>2022-07-13T08:37:51Z</time>
      </trkpt>
      <trkpt lat="42.851864" lon="-7.7682605">
        <time>2022-07-13T08:37:55Z</time>
      </trkpt>
      <trkpt lat="42.851887" lon="-7.7683253">
        <time>2022-07-13T08:37:59Z</time>
      </trkpt>
      <trkpt lat="42.85191" lon="-7.7683873">
        <time>2022-07-13T08:38:03Z</time>
      </trkpt>
      <trkpt lat="42.851944" lon="-7.768462">
        <time>2022-07-13T08:38:08Z</time>
      </trkpt>
      <trkpt lat="42.851967" lon="-7.7685304">
        <time>2022-07-13T08:38:13Z</time>
      </trkpt>
      <trkpt lat="42.85199" lon="-7.768591">
        <time>2022-07-13T08:38:17Z</time>
      </trkpt>
      <trkpt lat="42.852016" lon="-7.76866">
        <time>2022-07-13T08:38:21Z</time>
      </trkpt>
      <trkpt lat="42.852043" lon="-7.768727">
        <time>2022-07-13T08:38:25Z</time>
      </trkpt>
      <trkpt lat="42.852062" lon="-7.768803">
        <time>2022-07-13T08:38:29Z</time>
      </trkpt>
      <trkpt lat="42.852085" lon="-7.768877">
        <time>2022-07-13T08:38:34Z</time>
      </trkpt>
      <trkpt lat="42.85211" lon="-7.768951">
        <time>2022-07-13T08:38:39Z</time>
      </trkpt>
      <trkpt lat="42.852135" lon="-7.7690215">
        <time>2022-07-13T08:38:43Z</time>
      </trkpt>
      <trkpt lat="42.85216" lon="-7.769084">
        <time>2022-07-13T08:38:47Z</time>
      </trkpt>
      <trkpt lat="42.852177" lon="-7.769152">
        <time>2022-07-13T08:38:51Z</time>
      </trkpt>
      <trkpt lat="42.8522" lon="-7.7692175">
        <time>2022-07-13T08:38:55Z</time>
      </trkpt>
      <trkpt lat="42.85223" lon="-7.769285">
        <time>2022-07-13T08:38:59Z</time>
      </trkpt>
      <trkpt lat="42.852257" lon="-7.769351">
        <time>2022-07-13T08:39:03Z</time>
      </trkpt>
      <trkpt lat="42.852283" lon="-7.7694364">
        <time>2022-07-13T08:39:08Z</time>
      </trkpt>
      <trkpt lat="42.852303" lon="-7.7695093">
        <time>2022-07-13T08:39:12Z</time>
      </trkpt>
      <trkpt lat="42.85232" lon="-7.7695804">
        <time>2022-07-13T08:39:16Z</time>
      </trkpt>
      <trkpt lat="42.85235" lon="-7.7696486">
        <time>2022-07-13T08:39:20Z</time>
      </trkpt>
      <trkpt lat="42.852383" lon="-7.7697067">
        <time>2022-07-13T08:39:24Z</time>
      </trkpt>
      <trkpt lat="42.852413" lon="-7.769769">
        <time>2022-07-13T08:39:28Z</time>
      </trkpt>
      <trkpt lat="42.852436" lon="-7.769828">
        <time>2022-07-13T08:39:32Z</time>
      </trkpt>
      <trkpt lat="42.852463" lon="-7.7698817">
        <time>2022-07-13T08:39:36Z</time>
      </trkpt>
      <trkpt lat="42.85248" lon="-7.769962">
        <time>2022-07-13T08:39:41Z</time>
      </trkpt>
      <trkpt lat="42.852493" lon="-7.7700324">
        <time>2022-07-13T08:39:45Z</time>
      </trkpt>
      <trkpt lat="42.8525" lon="-7.770096">
        <time>2022-07-13T08:39:49Z</time>
      </trkpt>
      <trkpt lat="42.852512" lon="-7.7701707">
        <time>2022-07-13T08:39:54Z</time>
      </trkpt>
      <trkpt lat="42.85252" lon="-7.7702503">
        <time>2022-07-13T08:39:59Z</time>
      </trkpt>
      <trkpt lat="42.852528" lon="-7.770333">
        <time>2022-07-13T08:40:04Z</time>
      </trkpt>
      <trkpt lat="42.85253" lon="-7.770396">
        <time>2022-07-13T08:40:08Z</time>
      </trkpt>
      <trkpt lat="42.852528" lon="-7.7704725">
        <time>2022-07-13T08:40:14Z</time>
      </trkpt>
      <trkpt lat="42.852524" lon="-7.770552">
        <time>2022-07-13T08:40:19Z</time>
      </trkpt>
      <trkpt lat="42.852528" lon="-7.7706094">
        <time>2022-07-13T08:40:23Z</time>
      </trkpt>
      <trkpt lat="42.852528" lon="-7.7706895">
        <time>2022-07-13T08:40:29Z</time>
      </trkpt>
      <trkpt lat="42.85253" lon="-7.7707725">
        <time>2022-07-13T08:40:34Z</time>
      </trkpt>
      <trkpt lat="42.852535" lon="-7.77084">
        <time>2022-07-13T08:40:38Z</time>
      </trkpt>
      <trkpt lat="42.85253" lon="-7.770919">
        <time>2022-07-13T08:40:42Z</time>
      </trkpt>
      <trkpt lat="42.852528" lon="-7.770993">
        <time>2022-07-13T08:40:46Z</time>
      </trkpt>
      <trkpt lat="42.85252" lon="-7.7710767">
        <time>2022-07-13T08:40:51Z</time>
      </trkpt>
      <trkpt lat="42.852512" lon="-7.7711496">
        <time>2022-07-13T08:40:55Z</time>
      </trkpt>
      <trkpt lat="42.8525" lon="-7.77123">
        <time>2022-07-13T08:40:59Z</time>
      </trkpt>
      <trkpt lat="42.852497" lon="-7.7713003">
        <time>2022-07-13T08:41:03Z</time>
      </trkpt>
      <trkpt lat="42.852486" lon="-7.7713723">
        <time>2022-07-13T08:41:07Z</time>
      </trkpt>
      <trkpt lat="42.852478" lon="-7.7714434">
        <time>2022-07-13T08:41:11Z</time>
      </trkpt>
      <trkpt lat="42.852474" lon="-7.7715244">
        <time>2022-07-13T08:41:16Z</time>
      </trkpt>
      <trkpt lat="42.852474" lon="-7.771597">
        <time>2022-07-13T08:41:21Z</time>
      </trkpt>
      <trkpt lat="42.852467" lon="-7.7716875">
        <time>2022-07-13T08:41:26Z</time>
      </trkpt>
      <trkpt lat="42.852455" lon="-7.7717714">
        <time>2022-07-13T08:41:30Z</time>
      </trkpt>
      <trkpt lat="42.85244" lon="-7.7718463">
        <time>2022-07-13T08:41:34Z</time>
      </trkpt>
      <trkpt lat="42.852444" lon="-7.7719154">
        <time>2022-07-13T08:41:38Z</time>
      </trkpt>
      <trkpt lat="42.85245" lon="-7.7719903">
        <time>2022-07-13T08:41:43Z</time>
      </trkpt>
      <trkpt lat="42.85245" lon="-7.7720685">
        <time>2022-07-13T08:41:48Z</time>
      </trkpt>
      <trkpt lat="42.852444" lon="-7.772136">
        <time>2022-07-13T08:41:52Z</time>
      </trkpt>
      <trkpt lat="42.85246" lon="-7.772207">
        <time>2022-07-13T08:41:57Z</time>
      </trkpt>
      <trkpt lat="42.852474" lon="-7.7722874">
        <time>2022-07-13T08:42:02Z</time>
      </trkpt>
      <trkpt lat="42.8525" lon="-7.7723584">
        <time>2022-07-13T08:42:07Z</time>
      </trkpt>
      <trkpt lat="42.852524" lon="-7.772428">
        <time>2022-07-13T08:42:11Z</time>
      </trkpt>
      <trkpt lat="42.852547" lon="-7.772498">
        <time>2022-07-13T08:42:16Z</time>
      </trkpt>
      <trkpt lat="42.852577" lon="-7.772566">
        <time>2022-07-13T08:42:21Z</time>
      </trkpt>
      <trkpt lat="42.85262" lon="-7.7726283">
        <time>2022-07-13T08:42:25Z</time>
      </trkpt>
      <trkpt lat="42.85264" lon="-7.772682">
        <time>2022-07-13T08:42:28Z</time>
      </trkpt>
      <trkpt lat="42.85267" lon="-7.7727413">
        <time>2022-07-13T08:42:32Z</time>
      </trkpt>
      <trkpt lat="42.85271" lon="-7.772796">
        <time>2022-07-13T08:42:36Z</time>
      </trkpt>
      <trkpt lat="42.852757" lon="-7.7728524">
        <time>2022-07-13T08:42:40Z</time>
      </trkpt>
      <trkpt lat="42.8528" lon="-7.7729115">
        <time>2022-07-13T08:42:44Z</time>
      </trkpt>
      <trkpt lat="42.85284" lon="-7.7729664">
        <time>2022-07-13T08:42:49Z</time>
      </trkpt>
      <trkpt lat="42.852886" lon="-7.7730303">
        <time>2022-07-13T08:42:54Z</time>
      </trkpt>
      <trkpt lat="42.852932" lon="-7.773082">
        <time>2022-07-13T08:42:59Z</time>
      </trkpt>
      <trkpt lat="42.85297" lon="-7.7731266">
        <time>2022-07-13T08:43:03Z</time>
      </trkpt>
      <trkpt lat="42.853004" lon="-7.7731924">
        <time>2022-07-13T08:43:07Z</time>
      </trkpt>
      <trkpt lat="42.853035" lon="-7.773256">
        <time>2022-07-13T08:43:11Z</time>
      </trkpt>
      <trkpt lat="42.853077" lon="-7.7732973">
        <time>2022-07-13T08:43:15Z</time>
      </trkpt>
      <trkpt lat="42.853123" lon="-7.77334">
        <time>2022-07-13T08:43:19Z</time>
      </trkpt>
      <trkpt lat="42.85316" lon="-7.773389">
        <time>2022-07-13T08:43:23Z</time>
      </trkpt>
      <trkpt lat="42.853207" lon="-7.7734485">
        <time>2022-07-13T08:43:28Z</time>
      </trkpt>
      <trkpt lat="42.85325" lon="-7.7734823">
        <time>2022-07-13T08:43:32Z</time>
      </trkpt>
      <trkpt lat="42.8533" lon="-7.7735186">
        <time>2022-07-13T08:43:37Z</time>
      </trkpt>
      <trkpt lat="42.85335" lon="-7.773568">
        <time>2022-07-13T08:43:42Z</time>
      </trkpt>
      <trkpt lat="42.853397" lon="-7.7736096">
        <time>2022-07-13T08:43:46Z</time>
      </trkpt>
      <trkpt lat="42.85344" lon="-7.773656">
        <time>2022-07-13T08:43:50Z</time>
      </trkpt>
      <trkpt lat="42.853474" lon="-7.773707">
        <time>2022-07-13T08:43:54Z</time>
      </trkpt>
      <trkpt lat="42.85351" lon="-7.773752">
        <time>2022-07-13T08:43:58Z</time>
      </trkpt>
      <trkpt lat="42.85356" lon="-7.7738075">
        <time>2022-07-13T08:44:03Z</time>
      </trkpt>
      <trkpt lat="42.8536" lon="-7.7738504">
        <time>2022-07-13T08:44:07Z</time>
      </trkpt>
      <trkpt lat="42.853638" lon="-7.773901">
        <time>2022-07-13T08:44:11Z</time>
      </trkpt>
      <trkpt lat="42.853672" lon="-7.7739525">
        <time>2022-07-13T08:44:15Z</time>
      </trkpt>
      <trkpt lat="42.853703" lon="-7.7740126">
        <time>2022-07-13T08:44:19Z</time>
      </trkpt>
      <trkpt lat="42.85374" lon="-7.7740684">
        <time>2022-07-13T08:44:23Z</time>
      </trkpt>
      <trkpt lat="42.85378" lon="-7.774118">
        <time>2022-07-13T08:44:27Z</time>
      </trkpt>
      <trkpt lat="42.853817" lon="-7.774184">
        <time>2022-07-13T08:44:32Z</time>
      </trkpt>
      <trkpt lat="42.853844" lon="-7.774249">
        <time>2022-07-13T08:44:36Z</time>
      </trkpt>
      <trkpt lat="42.853874" lon="-7.7743115">
        <time>2022-07-13T08:44:40Z</time>
      </trkpt>
      <trkpt lat="42.85391" lon="-7.7743673">
        <time>2022-07-13T08:44:44Z</time>
      </trkpt>
      <trkpt lat="42.85394" lon="-7.7744255">
        <time>2022-07-13T08:44:48Z</time>
      </trkpt>
      <trkpt lat="42.853966" lon="-7.774481">
        <time>2022-07-13T08:44:52Z</time>
      </trkpt>
      <trkpt lat="42.854008" lon="-7.774553">
        <time>2022-07-13T08:44:57Z</time>
      </trkpt>
      <trkpt lat="42.854034" lon="-7.774614">
        <time>2022-07-13T08:45:01Z</time>
      </trkpt>
      <trkpt lat="42.854076" lon="-7.774682">
        <time>2022-07-13T08:45:06Z</time>
      </trkpt>
      <trkpt lat="42.85411" lon="-7.7747407">
        <time>2022-07-13T08:45:10Z</time>
      </trkpt>
      <trkpt lat="42.85414" lon="-7.7747936">
        <time>2022-07-13T08:45:14Z</time>
      </trkpt>
      <trkpt lat="42.854183" lon="-7.774846">
        <time>2022-07-13T08:45:18Z</time>
      </trkpt>
      <trkpt lat="42.854214" lon="-7.774896">
        <time>2022-07-13T08:45:22Z</time>
      </trkpt>
      <trkpt lat="42.854248" lon="-7.774958">
        <time>2022-07-13T08:45:27Z</time>
      </trkpt>
      <trkpt lat="42.85428" lon="-7.7750216">
        <time>2022-07-13T08:45:32Z</time>
      </trkpt>
      <trkpt lat="42.854317" lon="-7.7750754">
        <time>2022-07-13T08:45:37Z</time>
      </trkpt>
      <trkpt lat="42.854362" lon="-7.7751265">
        <time>2022-07-13T08:45:42Z</time>
      </trkpt>
      <trkpt lat="42.8544" lon="-7.775181">
        <time>2022-07-13T08:45:46Z</time>
      </trkpt>
      <trkpt lat="42.85443" lon="-7.77525">
        <time>2022-07-13T08:45:51Z</time>
      </trkpt>
      <trkpt lat="42.854465" lon="-7.7753153">
        <time>2022-07-13T08:45:55Z</time>
      </trkpt>
      <trkpt lat="42.8545" lon="-7.77539">
        <time>2022-07-13T08:45:59Z</time>
      </trkpt>
      <trkpt lat="42.854523" lon="-7.7754536">
        <time>2022-07-13T08:46:03Z</time>
      </trkpt>
      <trkpt lat="42.85455" lon="-7.775531">
        <time>2022-07-13T08:46:07Z</time>
      </trkpt>
      <trkpt lat="42.85458" lon="-7.775594">
        <time>2022-07-13T08:46:11Z</time>
      </trkpt>
      <trkpt lat="42.85461" lon="-7.7756433">
        <time>2022-07-13T08:46:15Z</time>
      </trkpt>
      <trkpt lat="42.854645" lon="-7.775704">
        <time>2022-07-13T08:46:20Z</time>
      </trkpt>
      <trkpt lat="42.85467" lon="-7.775759">
        <time>2022-07-13T08:46:24Z</time>
      </trkpt>
      <trkpt lat="42.85471" lon="-7.7758255">
        <time>2022-07-13T08:46:29Z</time>
      </trkpt>
      <trkpt lat="42.854733" lon="-7.77589">
        <time>2022-07-13T08:46:33Z</time>
      </trkpt>
      <trkpt lat="42.854767" lon="-7.77594">
        <time>2022-07-13T08:46:37Z</time>
      </trkpt>
      <trkpt lat="42.85481" lon="-7.7759995">
        <time>2022-07-13T08:46:42Z</time>
      </trkpt>
      <trkpt lat="42.854824" lon="-7.7760687">
        <time>2022-07-13T08:46:46Z</time>
      </trkpt>
      <trkpt lat="42.85485" lon="-7.7761354">
        <time>2022-07-13T08:46:50Z</time>
      </trkpt>
      <trkpt lat="42.854866" lon="-7.776219">
        <time>2022-07-13T08:46:54Z</time>
      </trkpt>
      <trkpt lat="42.85488" lon="-7.776295">
        <time>2022-07-13T08:46:58Z</time>
      </trkpt>
      <trkpt lat="42.854897" lon="-7.776375">
        <time>2022-07-13T08:47:03Z</time>
      </trkpt>
      <trkpt lat="42.854923" lon="-7.7764435">
        <time>2022-07-13T08:47:07Z</time>
      </trkpt>
      <trkpt lat="42.85495" lon="-7.7765107">
        <time>2022-07-13T08:47:11Z</time>
      </trkpt>
      <trkpt lat="42.85498" lon="-7.776576">
        <time>2022-07-13T08:47:15Z</time>
      </trkpt>
      <trkpt lat="42.855007" lon="-7.776657">
        <time>2022-07-13T08:47:19Z</time>
      </trkpt>
      <trkpt lat="42.855026" lon="-7.7767205">
        <time>2022-07-13T08:47:23Z</time>
      </trkpt>
      <trkpt lat="42.85505" lon="-7.7767963">
        <time>2022-07-13T08:47:28Z</time>
      </trkpt>
      <trkpt lat="42.85507" lon="-7.7768693">
        <time>2022-07-13T08:47:32Z</time>
      </trkpt>
      <trkpt lat="42.855095" lon="-7.776941">
        <time>2022-07-13T08:47:37Z</time>
      </trkpt>
      <trkpt lat="42.855118" lon="-7.7770114">
        <time>2022-07-13T08:47:41Z</time>
      </trkpt>
      <trkpt lat="42.85514" lon="-7.777076">
        <time>2022-07-13T08:47:45Z</time>
      </trkpt>
      <trkpt lat="42.855164" lon="-7.7771444">
        <time>2022-07-13T08:47:49Z</time>
      </trkpt>
      <trkpt lat="42.855183" lon="-7.777204">
        <time>2022-07-13T08:47:53Z</time>
      </trkpt>
      <trkpt lat="42.85521" lon="-7.777278">
        <time>2022-07-13T08:47:58Z</time>
      </trkpt>
      <trkpt lat="42.855236" lon="-7.777326">
        <time>2022-07-13T08:48:02Z</time>
      </trkpt>
      <trkpt lat="42.855263" lon="-7.7774024">
        <time>2022-07-13T08:48:08Z</time>
      </trkpt>
      <trkpt lat="42.8553" lon="-7.777465">
        <time>2022-07-13T08:48:12Z</time>
      </trkpt>
      <trkpt lat="42.855343" lon="-7.777524">
        <time>2022-07-13T08:48:16Z</time>
      </trkpt>
      <trkpt lat="42.855377" lon="-7.777563">
        <time>2022-07-13T08:48:20Z</time>
      </trkpt>
      <trkpt lat="42.85543" lon="-7.777603">
        <time>2022-07-13T08:48:25Z</time>
      </trkpt>
      <trkpt lat="42.855473" lon="-7.7776294">
        <time>2022-07-13T08:48:29Z</time>
      </trkpt>
      <trkpt lat="42.85552" lon="-7.777664">
        <time>2022-07-13T08:48:34Z</time>
      </trkpt>
      <trkpt lat="42.85558" lon="-7.777704">
        <time>2022-07-13T08:48:39Z</time>
      </trkpt>
      <trkpt lat="42.85564" lon="-7.7777233">
        <time>2022-07-13T08:48:43Z</time>
      </trkpt>
      <trkpt lat="42.855686" lon="-7.7777476">
        <time>2022-07-13T08:48:47Z</time>
      </trkpt>
      <trkpt lat="42.855736" lon="-7.777779">
        <time>2022-07-13T08:48:52Z</time>
      </trkpt>
      <trkpt lat="42.855793" lon="-7.777798">
        <time>2022-07-13T08:48:56Z</time>
      </trkpt>
      <trkpt lat="42.85585" lon="-7.777812">
        <time>2022-07-13T08:49:00Z</time>
      </trkpt>
      <trkpt lat="42.85591" lon="-7.7778234">
        <time>2022-07-13T08:49:05Z</time>
      </trkpt>
      <trkpt lat="42.855972" lon="-7.777837">
        <time>2022-07-13T08:49:09Z</time>
      </trkpt>
      <trkpt lat="42.85602" lon="-7.777845">
        <time>2022-07-13T08:49:12Z</time>
      </trkpt>
      <trkpt lat="42.85608" lon="-7.7778635">
        <time>2022-07-13T08:49:16Z</time>
      </trkpt>
      <trkpt lat="42.856125" lon="-7.777881">
        <time>2022-07-13T08:49:19Z</time>
      </trkpt>
      <trkpt lat="42.856182" lon="-7.7779026">
        <time>2022-07-13T08:49:23Z</time>
      </trkpt>
      <trkpt lat="42.856236" lon="-7.777932">
        <time>2022-07-13T08:49:28Z</time>
      </trkpt>
      <trkpt lat="42.856293" lon="-7.777961">
        <time>2022-07-13T08:49:32Z</time>
      </trkpt>
      <trkpt lat="42.856335" lon="-7.7779903">
        <time>2022-07-13T08:49:36Z</time>
      </trkpt>
      <trkpt lat="42.85638" lon="-7.7780194">
        <time>2022-07-13T08:49:40Z</time>
      </trkpt>
      <trkpt lat="42.856426" lon="-7.778052">
        <time>2022-07-13T08:49:44Z</time>
      </trkpt>
      <trkpt lat="42.856476" lon="-7.778091">
        <time>2022-07-13T08:49:49Z</time>
      </trkpt>
      <trkpt lat="42.856525" lon="-7.778143">
        <time>2022-07-13T08:49:54Z</time>
      </trkpt>
      <trkpt lat="42.85658" lon="-7.7781796">
        <time>2022-07-13T08:49:58Z</time>
      </trkpt>
      <trkpt lat="42.85663" lon="-7.778215">
        <time>2022-07-13T08:50:03Z</time>
      </trkpt>
      <trkpt lat="42.85668" lon="-7.7782364">
        <time>2022-07-13T08:50:07Z</time>
      </trkpt>
      <trkpt lat="42.85674" lon="-7.778273">
        <time>2022-07-13T08:50:11Z</time>
      </trkpt>
      <trkpt lat="42.856773" lon="-7.778313">
        <time>2022-07-13T08:50:15Z</time>
      </trkpt>
      <trkpt lat="42.856827" lon="-7.778356">
        <time>2022-07-13T08:50:20Z</time>
      </trkpt>
      <trkpt lat="42.856876" lon="-7.7783985">
        <time>2022-07-13T08:50:24Z</time>
      </trkpt>
      <trkpt lat="42.856922" lon="-7.7784414">
        <time>2022-07-13T08:50:29Z</time>
      </trkpt>
      <trkpt lat="42.85697" lon="-7.7784824">
        <time>2022-07-13T08:50:34Z</time>
      </trkpt>
      <trkpt lat="42.85702" lon="-7.778521">
        <time>2022-07-13T08:50:38Z</time>
      </trkpt>
      <trkpt lat="42.857067" lon="-7.778555">
        <time>2022-07-13T08:50:42Z</time>
      </trkpt>
      <trkpt lat="42.857113" lon="-7.7785964">
        <time>2022-07-13T08:50:46Z</time>
      </trkpt>
      <trkpt lat="42.85717" lon="-7.778632">
        <time>2022-07-13T08:50:50Z</time>
      </trkpt>
      <trkpt lat="42.85722" lon="-7.778671">
        <time>2022-07-13T08:50:54Z</time>
      </trkpt>
      <trkpt lat="42.85726" lon="-7.778704">
        <time>2022-07-13T08:50:58Z</time>
      </trkpt>
      <trkpt lat="42.85732" lon="-7.778749">
        <time>2022-07-13T08:51:03Z</time>
      </trkpt>
      <trkpt lat="42.857365" lon="-7.7787976">
        <time>2022-07-13T08:51:07Z</time>
      </trkpt>
      <trkpt lat="42.857418" lon="-7.7788343">
        <time>2022-07-13T08:51:11Z</time>
      </trkpt>
      <trkpt lat="42.857452" lon="-7.7788773">
        <time>2022-07-13T08:51:15Z</time>
      </trkpt>
      <trkpt lat="42.857487" lon="-7.778955">
        <time>2022-07-13T08:51:20Z</time>
      </trkpt>
      <trkpt lat="42.857525" lon="-7.779011">
        <time>2022-07-13T08:51:24Z</time>
      </trkpt>
      <trkpt lat="42.85756" lon="-7.7790575">
        <time>2022-07-13T08:51:28Z</time>
      </trkpt>
      <trkpt lat="42.857597" lon="-7.7791033">
        <time>2022-07-13T08:51:33Z</time>
      </trkpt>
      <trkpt lat="42.85766" lon="-7.7791305">
        <time>2022-07-13T08:51:38Z</time>
      </trkpt>
      <trkpt lat="42.857704" lon="-7.779155">
        <time>2022-07-13T08:51:43Z</time>
      </trkpt>
      <trkpt lat="42.857758" lon="-7.779174">
        <time>2022-07-13T08:51:47Z</time>
      </trkpt>
      <trkpt lat="42.857815" lon="-7.7791915">
        <time>2022-07-13T08:51:51Z</time>
      </trkpt>
      <trkpt lat="42.85787" lon="-7.779212">
        <time>2022-07-13T08:51:56Z</time>
      </trkpt>
      <trkpt lat="42.857925" lon="-7.779223">
        <time>2022-07-13T08:52:00Z</time>
      </trkpt>
      <trkpt lat="42.857983" lon="-7.7792354">
        <time>2022-07-13T08:52:04Z</time>
      </trkpt>
      <trkpt lat="42.858044" lon="-7.779247">
        <time>2022-07-13T08:52:08Z</time>
      </trkpt>
      <trkpt lat="42.858097" lon="-7.7792625">
        <time>2022-07-13T08:52:12Z</time>
      </trkpt>
      <trkpt lat="42.85815" lon="-7.779292">
        <time>2022-07-13T08:52:16Z</time>
      </trkpt>
      <trkpt lat="42.8582" lon="-7.779315">
        <time>2022-07-13T08:52:20Z</time>
      </trkpt>
      <trkpt lat="42.858257" lon="-7.7793374">
        <time>2022-07-13T08:52:25Z</time>
      </trkpt>
      <trkpt lat="42.85831" lon="-7.7793636">
        <time>2022-07-13T08:52:30Z</time>
      </trkpt>
      <trkpt lat="42.858364" lon="-7.7794023">
        <time>2022-07-13T08:52:35Z</time>
      </trkpt>
      <trkpt lat="42.858414" lon="-7.779429">
        <time>2022-07-13T08:52:39Z</time>
      </trkpt>
      <trkpt lat="42.858467" lon="-7.7794695">
        <time>2022-07-13T08:52:44Z</time>
      </trkpt>
      <trkpt lat="42.858513" lon="-7.7795076">
        <time>2022-07-13T08:52:48Z</time>
      </trkpt>
      <trkpt lat="42.858562" lon="-7.7795506">
        <time>2022-07-13T08:52:53Z</time>
      </trkpt>
      <trkpt lat="42.85861" lon="-7.7795906">
        <time>2022-07-13T08:52:57Z</time>
      </trkpt>
      <trkpt lat="42.85865" lon="-7.7796354">
        <time>2022-07-13T08:53:02Z</time>
      </trkpt>
      <trkpt lat="42.8587" lon="-7.7796946">
        <time>2022-07-13T08:53:07Z</time>
      </trkpt>
      <trkpt lat="42.85875" lon="-7.779733">
        <time>2022-07-13T08:53:11Z</time>
      </trkpt>
      <trkpt lat="42.85879" lon="-7.7797647">
        <time>2022-07-13T08:53:15Z</time>
      </trkpt>
      <trkpt lat="42.85885" lon="-7.7798266">
        <time>2022-07-13T08:53:20Z</time>
      </trkpt>
      <trkpt lat="42.85889" lon="-7.779862">
        <time>2022-07-13T08:53:23Z</time>
      </trkpt>
      <trkpt lat="42.85893" lon="-7.7798986">
        <time>2022-07-13T08:53:27Z</time>
      </trkpt>
      <trkpt lat="42.85897" lon="-7.779959">
        <time>2022-07-13T08:53:32Z</time>
      </trkpt>
      <trkpt lat="42.85901" lon="-7.7800207">
        <time>2022-07-13T08:53:36Z</time>
      </trkpt>
      <trkpt lat="42.859047" lon="-7.7800756">
        <time>2022-07-13T08:53:41Z</time>
      </trkpt>
      <trkpt lat="42.85909" lon="-7.780138">
        <time>2022-07-13T08:53:46Z</time>
      </trkpt>
      <trkpt lat="42.859127" lon="-7.7801957">
        <time>2022-07-13T08:53:50Z</time>
      </trkpt>
      <trkpt lat="42.859173" lon="-7.7802415">
        <time>2022-07-13T08:53:55Z</time>
      </trkpt>
      <trkpt lat="42.85922" lon="-7.780315">
        <time>2022-07-13T08:54:00Z</time>
      </trkpt>
      <trkpt lat="42.85925" lon="-7.780362">
        <time>2022-07-13T08:54:03Z</time>
      </trkpt>
      <trkpt lat="42.85929" lon="-7.780422">
        <time>2022-07-13T08:54:08Z</time>
      </trkpt>
      <trkpt lat="42.859325" lon="-7.780491">
        <time>2022-07-13T08:54:13Z</time>
      </trkpt>
      <trkpt lat="42.85936" lon="-7.7805476">
        <time>2022-07-13T08:54:17Z</time>
      </trkpt>
      <trkpt lat="42.85939" lon="-7.7805924">
        <time>2022-07-13T08:54:21Z</time>
      </trkpt>
      <trkpt lat="42.85944" lon="-7.7806625">
        <time>2022-07-13T08:54:26Z</time>
      </trkpt>
      <trkpt lat="42.859478" lon="-7.780722">
        <time>2022-07-13T08:54:30Z</time>
      </trkpt>
      <trkpt lat="42.85952" lon="-7.7807784">
        <time>2022-07-13T08:54:35Z</time>
      </trkpt>
      <trkpt lat="42.859562" lon="-7.780832">
        <time>2022-07-13T08:54:39Z</time>
      </trkpt>
      <trkpt lat="42.859596" lon="-7.780889">
        <time>2022-07-13T08:54:43Z</time>
      </trkpt>
      <trkpt lat="42.859634" lon="-7.780949">
        <time>2022-07-13T08:54:48Z</time>
      </trkpt>
      <trkpt lat="42.859676" lon="-7.781002">
        <time>2022-07-13T08:54:52Z</time>
      </trkpt>
      <trkpt lat="42.859722" lon="-7.7810626">
        <time>2022-07-13T08:54:56Z</time>
      </trkpt>
      <trkpt lat="42.85976" lon="-7.781117">
        <time>2022-07-13T08:55:01Z</time>
      </trkpt>
      <trkpt lat="42.859806" lon="-7.7811785">
        <time>2022-07-13T08:55:06Z</time>
      </trkpt>
      <trkpt lat="42.85984" lon="-7.781233">
        <time>2022-07-13T08:55:10Z</time>
      </trkpt>
      <trkpt lat="42.859875" lon="-7.781288">
        <time>2022-07-13T08:55:15Z</time>
      </trkpt>
      <trkpt lat="42.859917" lon="-7.78134">
        <time>2022-07-13T08:55:19Z</time>
      </trkpt>
      <trkpt lat="42.859955" lon="-7.7813907">
        <time>2022-07-13T08:55:23Z</time>
      </trkpt>
      <trkpt lat="42.859997" lon="-7.781446">
        <time>2022-07-13T08:55:28Z</time>
      </trkpt>
      <trkpt lat="42.860046" lon="-7.7814827">
        <time>2022-07-13T08:55:32Z</time>
      </trkpt>
      <trkpt lat="42.860092" lon="-7.7814965">
        <time>2022-07-13T08:55:36Z</time>
      </trkpt>
      <trkpt lat="42.860157" lon="-7.7814913">
        <time>2022-07-13T08:55:42Z</time>
      </trkpt>
      <trkpt lat="42.860207" lon="-7.7814918">
        <time>2022-07-13T08:55:45Z</time>
      </trkpt>
      <trkpt lat="42.86026" lon="-7.781499">
        <time>2022-07-13T08:55:49Z</time>
      </trkpt>
      <trkpt lat="42.860302" lon="-7.7815537">
        <time>2022-07-13T08:55:54Z</time>
      </trkpt>
      <trkpt lat="42.860355" lon="-7.781584">
        <time>2022-07-13T08:55:58Z</time>
      </trkpt>
      <trkpt lat="42.86041" lon="-7.7815857">
        <time>2022-07-13T08:56:01Z</time>
      </trkpt>
      <trkpt lat="42.860462" lon="-7.781608">
        <time>2022-07-13T08:56:05Z</time>
      </trkpt>
      <trkpt lat="42.860504" lon="-7.7816615">
        <time>2022-07-13T08:56:10Z</time>
      </trkpt>
      <trkpt lat="42.86055" lon="-7.7817144">
        <time>2022-07-13T08:56:14Z</time>
      </trkpt>
      <trkpt lat="42.86059" lon="-7.7817717">
        <time>2022-07-13T08:56:18Z</time>
      </trkpt>
      <trkpt lat="42.860634" lon="-7.7818155">
        <time>2022-07-13T08:56:22Z</time>
      </trkpt>
      <trkpt lat="42.860672" lon="-7.7818556">
        <time>2022-07-13T08:56:26Z</time>
      </trkpt>
      <trkpt lat="42.86071" lon="-7.781903">
        <time>2022-07-13T08:56:30Z</time>
      </trkpt>
      <trkpt lat="42.860756" lon="-7.781955">
        <time>2022-07-13T08:56:34Z</time>
      </trkpt>
      <trkpt lat="42.860806" lon="-7.781997">
        <time>2022-07-13T08:56:38Z</time>
      </trkpt>
      <trkpt lat="42.860847" lon="-7.782042">
        <time>2022-07-13T08:56:42Z</time>
      </trkpt>
      <trkpt lat="42.86089" lon="-7.782088">
        <time>2022-07-13T08:56:47Z</time>
      </trkpt>
      <trkpt lat="42.860935" lon="-7.7821293">
        <time>2022-07-13T08:56:51Z</time>
      </trkpt>
      <trkpt lat="42.86098" lon="-7.782182">
        <time>2022-07-13T08:56:55Z</time>
      </trkpt>
      <trkpt lat="42.861023" lon="-7.7822337">
        <time>2022-07-13T08:56:59Z</time>
      </trkpt>
      <trkpt lat="42.861065" lon="-7.7822866">
        <time>2022-07-13T08:57:04Z</time>
      </trkpt>
      <trkpt lat="42.86111" lon="-7.782342">
        <time>2022-07-13T08:57:09Z</time>
      </trkpt>
      <trkpt lat="42.861156" lon="-7.782404">
        <time>2022-07-13T08:57:13Z</time>
      </trkpt>
      <trkpt lat="42.861206" lon="-7.782459">
        <time>2022-07-13T08:57:17Z</time>
      </trkpt>
      <trkpt lat="42.861244" lon="-7.7825003">
        <time>2022-07-13T08:57:21Z</time>
      </trkpt>
      <trkpt lat="42.86129" lon="-7.7825427">
        <time>2022-07-13T08:57:26Z</time>
      </trkpt>
      <trkpt lat="42.86134" lon="-7.782585">
        <time>2022-07-13T08:57:30Z</time>
      </trkpt>
      <trkpt lat="42.861378" lon="-7.7826266">
        <time>2022-07-13T08:57:34Z</time>
      </trkpt>
      <trkpt lat="42.861416" lon="-7.782668">
        <time>2022-07-13T08:57:39Z</time>
      </trkpt>
      <trkpt lat="42.861443" lon="-7.7827263">
        <time>2022-07-13T08:57:45Z</time>
      </trkpt>
      <trkpt lat="42.86145" lon="-7.782805">
        <time>2022-07-13T08:57:51Z</time>
      </trkpt>
      <trkpt lat="42.861465" lon="-7.7828674">
        <time>2022-07-13T08:57:57Z</time>
      </trkpt>
      <trkpt lat="42.8615" lon="-7.782933">
        <time>2022-07-13T08:58:04Z</time>
      </trkpt>
      <trkpt lat="42.861538" lon="-7.782979">
        <time>2022-07-13T08:58:09Z</time>
      </trkpt>
      <trkpt lat="42.861572" lon="-7.783033">
        <time>2022-07-13T08:58:14Z</time>
      </trkpt>
      <trkpt lat="42.86161" lon="-7.7830715">
        <time>2022-07-13T08:58:20Z</time>
      </trkpt>
      <trkpt lat="42.861664" lon="-7.7831044">
        <time>2022-07-13T08:58:26Z</time>
      </trkpt>
      <trkpt lat="42.861713" lon="-7.7831335">
        <time>2022-07-13T08:58:32Z</time>
      </trkpt>
      <trkpt lat="42.86176" lon="-7.783167">
        <time>2022-07-13T08:58:38Z</time>
      </trkpt>
      <trkpt lat="42.86181" lon="-7.7831955">
        <time>2022-07-13T08:58:45Z</time>
      </trkpt>
      <trkpt lat="42.861862" lon="-7.783231">
        <time>2022-07-13T08:58:50Z</time>
      </trkpt>
      <trkpt lat="42.861904" lon="-7.7832575">
        <time>2022-07-13T08:58:55Z</time>
      </trkpt>
      <trkpt lat="42.861954" lon="-7.7832775">
        <time>2022-07-13T08:59:02Z</time>
      </trkpt>
      <trkpt lat="42.862003" lon="-7.783298">
        <time>2022-07-13T08:59:11Z</time>
      </trkpt>
      <trkpt lat="42.86206" lon="-7.7833524">
        <time>2022-07-13T08:59:18Z</time>
      </trkpt>
      <trkpt lat="42.86211" lon="-7.783379">
        <time>2022-07-13T08:59:23Z</time>
      </trkpt>
      <trkpt lat="42.86216" lon="-7.7833996">
        <time>2022-07-13T08:59:27Z</time>
      </trkpt>
      <trkpt lat="42.862198" lon="-7.7834597">
        <time>2022-07-13T08:59:32Z</time>
      </trkpt>
      <trkpt lat="42.862225" lon="-7.783524">
        <time>2022-07-13T08:59:36Z</time>
      </trkpt>
      <trkpt lat="42.862247" lon="-7.783593">
        <time>2022-07-13T08:59:40Z</time>
      </trkpt>
      <trkpt lat="42.862278" lon="-7.783657">
        <time>2022-07-13T08:59:44Z</time>
      </trkpt>
      <trkpt lat="42.862297" lon="-7.7837234">
        <time>2022-07-13T08:59:48Z</time>
      </trkpt>
      <trkpt lat="42.862316" lon="-7.7837963">
        <time>2022-07-13T08:59:52Z</time>
      </trkpt>
      <trkpt lat="42.86234" lon="-7.7838674">
        <time>2022-07-13T08:59:56Z</time>
      </trkpt>
      <trkpt lat="42.862354" lon="-7.78394">
        <time>2022-07-13T09:00:00Z</time>
      </trkpt>
      <trkpt lat="42.86237" lon="-7.7840066">
        <time>2022-07-13T09:00:04Z</time>
      </trkpt>
      <trkpt lat="42.86239" lon="-7.7840705">
        <time>2022-07-13T09:00:08Z</time>
      </trkpt>
      <trkpt lat="42.862408" lon="-7.784135">
        <time>2022-07-13T09:00:12Z</time>
      </trkpt>
      <trkpt lat="42.86242" lon="-7.7842145">
        <time>2022-07-13T09:00:17Z</time>
      </trkpt>
      <trkpt lat="42.862434" lon="-7.784279">
        <time>2022-07-13T09:00:21Z</time>
      </trkpt>
      <trkpt lat="42.862457" lon="-7.78435">
        <time>2022-07-13T09:00:26Z</time>
      </trkpt>
      <trkpt lat="42.862476" lon="-7.784416">
        <time>2022-07-13T09:00:31Z</time>
      </trkpt>
      <trkpt lat="42.8625" lon="-7.7844825">
        <time>2022-07-13T09:00:36Z</time>
      </trkpt>
      <trkpt lat="42.86252" lon="-7.7845535">
        <time>2022-07-13T09:00:41Z</time>
      </trkpt>
      <trkpt lat="42.86254" lon="-7.784625">
        <time>2022-07-13T09:00:46Z</time>
      </trkpt>
      <trkpt lat="42.862568" lon="-7.7846975">
        <time>2022-07-13T09:00:51Z</time>
      </trkpt>
      <trkpt lat="42.862587" lon="-7.7847614">
        <time>2022-07-13T09:00:55Z</time>
      </trkpt>
      <trkpt lat="42.862602" lon="-7.7848296">
        <time>2022-07-13T09:00:59Z</time>
      </trkpt>
      <trkpt lat="42.86263" lon="-7.7848916">
        <time>2022-07-13T09:01:03Z</time>
      </trkpt>
      <trkpt lat="42.862663" lon="-7.784953">
        <time>2022-07-13T09:01:07Z</time>
      </trkpt>
      <trkpt lat="42.862694" lon="-7.7850037">
        <time>2022-07-13T09:01:11Z</time>
      </trkpt>
      <trkpt lat="42.862766" lon="-7.7850804">
        <time>2022-07-13T09:01:17Z</time>
      </trkpt>
      <trkpt lat="42.86282" lon="-7.785114">
        <time>2022-07-13T09:01:22Z</time>
      </trkpt>
      <trkpt lat="42.862865" lon="-7.7851353">
        <time>2022-07-13T09:01:26Z</time>
      </trkpt>
      <trkpt lat="42.86293" lon="-7.7851524">
        <time>2022-07-13T09:01:31Z</time>
      </trkpt>
      <trkpt lat="42.862988" lon="-7.785178">
        <time>2022-07-13T09:01:36Z</time>
      </trkpt>
      <trkpt lat="42.863045" lon="-7.7851906">
        <time>2022-07-13T09:01:41Z</time>
      </trkpt>
      <trkpt lat="42.8631" lon="-7.7851973">
        <time>2022-07-13T09:01:45Z</time>
      </trkpt>
      <trkpt lat="42.86315" lon="-7.78521">
        <time>2022-07-13T09:01:50Z</time>
      </trkpt>
      <trkpt lat="42.86321" lon="-7.7852316">
        <time>2022-07-13T09:01:55Z</time>
      </trkpt>
      <trkpt lat="42.863262" lon="-7.785247">
        <time>2022-07-13T09:01:59Z</time>
      </trkpt>
      <trkpt lat="42.863316" lon="-7.7852664">
        <time>2022-07-13T09:02:03Z</time>
      </trkpt>
      <trkpt lat="42.863365" lon="-7.7852926">
        <time>2022-07-13T09:02:07Z</time>
      </trkpt>
      <trkpt lat="42.863415" lon="-7.785324">
        <time>2022-07-13T09:02:11Z</time>
      </trkpt>
      <trkpt lat="42.863457" lon="-7.785354">
        <time>2022-07-13T09:02:15Z</time>
      </trkpt>
      <trkpt lat="42.86351" lon="-7.785392">
        <time>2022-07-13T09:02:20Z</time>
      </trkpt>
      <trkpt lat="42.863564" lon="-7.7854285">
        <time>2022-07-13T09:02:25Z</time>
      </trkpt>
      <trkpt lat="42.863613" lon="-7.785473">
        <time>2022-07-13T09:02:30Z</time>
      </trkpt>
      <trkpt lat="42.86365" lon="-7.7855096">
        <time>2022-07-13T09:02:34Z</time>
      </trkpt>
      <trkpt lat="42.8637" lon="-7.78556">
        <time>2022-07-13T09:02:39Z</time>
      </trkpt>
      <trkpt lat="42.863747" lon="-7.7856145">
        <time>2022-07-13T09:02:44Z</time>
      </trkpt>
      <trkpt lat="42.86378" lon="-7.7856607">
        <time>2022-07-13T09:02:48Z</time>
      </trkpt>
      <trkpt lat="42.86382" lon="-7.785713">
        <time>2022-07-13T09:02:53Z</time>
      </trkpt>
      <trkpt lat="42.86387" lon="-7.7857676">
        <time>2022-07-13T09:02:58Z</time>
      </trkpt>
      <trkpt lat="42.863907" lon="-7.7858176">
        <time>2022-07-13T09:03:02Z</time>
      </trkpt>
      <trkpt lat="42.86395" lon="-7.7858644">
        <time>2022-07-13T09:03:06Z</time>
      </trkpt>
      <trkpt lat="42.863983" lon="-7.7859125">
        <time>2022-07-13T09:03:10Z</time>
      </trkpt>
      <trkpt lat="42.864033" lon="-7.785986">
        <time>2022-07-13T09:03:16Z</time>
      </trkpt>
      <trkpt lat="42.86407" lon="-7.7860565">
        <time>2022-07-13T09:03:21Z</time>
      </trkpt>
      <trkpt lat="42.864113" lon="-7.7861176">
        <time>2022-07-13T09:03:26Z</time>
      </trkpt>
      <trkpt lat="42.86415" lon="-7.7861624">
        <time>2022-07-13T09:03:30Z</time>
      </trkpt>
      <trkpt lat="42.864197" lon="-7.7862167">
        <time>2022-07-13T09:03:35Z</time>
      </trkpt>
      <trkpt lat="42.86423" lon="-7.786261">
        <time>2022-07-13T09:03:40Z</time>
      </trkpt>
      <trkpt lat="42.86427" lon="-7.786328">
        <time>2022-07-13T09:03:46Z</time>
      </trkpt>
      <trkpt lat="42.864315" lon="-7.78637">
        <time>2022-07-13T09:03:50Z</time>
      </trkpt>
      <trkpt lat="42.86436" lon="-7.786418">
        <time>2022-07-13T09:03:54Z</time>
      </trkpt>
      <trkpt lat="42.864407" lon="-7.7864523">
        <time>2022-07-13T09:03:58Z</time>
      </trkpt>
      <trkpt lat="42.86446" lon="-7.7864847">
        <time>2022-07-13T09:04:02Z</time>
      </trkpt>
      <trkpt lat="42.8645" lon="-7.7865167">
        <time>2022-07-13T09:04:06Z</time>
      </trkpt>
      <trkpt lat="42.86455" lon="-7.7865496">
        <time>2022-07-13T09:04:11Z</time>
      </trkpt>
      <trkpt lat="42.8646" lon="-7.786583">
        <time>2022-07-13T09:04:16Z</time>
      </trkpt>
      <trkpt lat="42.86464" lon="-7.7866254">
        <time>2022-07-13T09:04:20Z</time>
      </trkpt>
      <trkpt lat="42.86469" lon="-7.7866855">
        <time>2022-07-13T09:04:25Z</time>
      </trkpt>
      <trkpt lat="42.864723" lon="-7.786732">
        <time>2022-07-13T09:04:29Z</time>
      </trkpt>
      <trkpt lat="42.864777" lon="-7.7867785">
        <time>2022-07-13T09:04:34Z</time>
      </trkpt>
      <trkpt lat="42.86483" lon="-7.786825">
        <time>2022-07-13T09:04:39Z</time>
      </trkpt>
      <trkpt lat="42.864876" lon="-7.786857">
        <time>2022-07-13T09:04:43Z</time>
      </trkpt>
      <trkpt lat="42.864937" lon="-7.786899">
        <time>2022-07-13T09:04:48Z</time>
      </trkpt>
      <trkpt lat="42.864986" lon="-7.7869368">
        <time>2022-07-13T09:04:52Z</time>
      </trkpt>
      <trkpt lat="42.865032" lon="-7.7869787">
        <time>2022-07-13T09:04:56Z</time>
      </trkpt>
      <trkpt lat="42.865078" lon="-7.787019">
        <time>2022-07-13T09:05:00Z</time>
      </trkpt>
      <trkpt lat="42.865128" lon="-7.7870703">
        <time>2022-07-13T09:05:05Z</time>
      </trkpt>
      <trkpt lat="42.865177" lon="-7.7871213">
        <time>2022-07-13T09:05:10Z</time>
      </trkpt>
      <trkpt lat="42.86523" lon="-7.7871666">
        <time>2022-07-13T09:05:15Z</time>
      </trkpt>
      <trkpt lat="42.86528" lon="-7.7872167">
        <time>2022-07-13T09:05:20Z</time>
      </trkpt>
      <trkpt lat="42.86532" lon="-7.787248">
        <time>2022-07-13T09:05:24Z</time>
      </trkpt>
      <trkpt lat="42.865368" lon="-7.787287">
        <time>2022-07-13T09:05:29Z</time>
      </trkpt>
      <trkpt lat="42.865406" lon="-7.787352">
        <time>2022-07-13T09:05:34Z</time>
      </trkpt>
      <trkpt lat="42.865437" lon="-7.787421">
        <time>2022-07-13T09:05:38Z</time>
      </trkpt>
      <trkpt lat="42.865463" lon="-7.7874923">
        <time>2022-07-13T09:05:42Z</time>
      </trkpt>
      <trkpt lat="42.865475" lon="-7.7875714">
        <time>2022-07-13T09:05:46Z</time>
      </trkpt>
      <trkpt lat="42.86549" lon="-7.7876396">
        <time>2022-07-13T09:05:50Z</time>
      </trkpt>
      <trkpt lat="42.865498" lon="-7.787707">
        <time>2022-07-13T09:05:54Z</time>
      </trkpt>
      <trkpt lat="42.865513" lon="-7.787774">
        <time>2022-07-13T09:05:58Z</time>
      </trkpt>
      <trkpt lat="42.86553" lon="-7.787859">
        <time>2022-07-13T09:06:03Z</time>
      </trkpt>
      <trkpt lat="42.86554" lon="-7.7879333">
        <time>2022-07-13T09:06:07Z</time>
      </trkpt>
      <trkpt lat="42.865547" lon="-7.788012">
        <time>2022-07-13T09:06:11Z</time>
      </trkpt>
      <trkpt lat="42.86556" lon="-7.7880917">
        <time>2022-07-13T09:06:15Z</time>
      </trkpt>
      <trkpt lat="42.865574" lon="-7.788169">
        <time>2022-07-13T09:06:19Z</time>
      </trkpt>
      <trkpt lat="42.86559" lon="-7.7882404">
        <time>2022-07-13T09:06:23Z</time>
      </trkpt>
      <trkpt lat="42.865604" lon="-7.7883105">
        <time>2022-07-13T09:06:27Z</time>
      </trkpt>
      <trkpt lat="42.865616" lon="-7.7883787">
        <time>2022-07-13T09:06:31Z</time>
      </trkpt>
      <trkpt lat="42.865627" lon="-7.7884674">
        <time>2022-07-13T09:06:36Z</time>
      </trkpt>
      <trkpt lat="42.86564" lon="-7.7885375">
        <time>2022-07-13T09:06:40Z</time>
      </trkpt>
      <trkpt lat="42.865643" lon="-7.788625">
        <time>2022-07-13T09:06:45Z</time>
      </trkpt>
      <trkpt lat="42.865643" lon="-7.788695">
        <time>2022-07-13T09:06:49Z</time>
      </trkpt>
      <trkpt lat="42.865643" lon="-7.788768">
        <time>2022-07-13T09:06:53Z</time>
      </trkpt>
      <trkpt lat="42.86564" lon="-7.788846">
        <time>2022-07-13T09:06:57Z</time>
      </trkpt>
      <trkpt lat="42.865635" lon="-7.7889194">
        <time>2022-07-13T09:07:01Z</time>
      </trkpt>
      <trkpt lat="42.86563" lon="-7.7889915">
        <time>2022-07-13T09:07:05Z</time>
      </trkpt>
      <trkpt lat="42.865623" lon="-7.7890635">
        <time>2022-07-13T09:07:09Z</time>
      </trkpt>
      <trkpt lat="42.865616" lon="-7.7891345">
        <time>2022-07-13T09:07:13Z</time>
      </trkpt>
      <trkpt lat="42.865612" lon="-7.7892084">
        <time>2022-07-13T09:07:17Z</time>
      </trkpt>
      <trkpt lat="42.865604" lon="-7.789278">
        <time>2022-07-13T09:07:21Z</time>
      </trkpt>
      <trkpt lat="42.8656" lon="-7.7893624">
        <time>2022-07-13T09:07:26Z</time>
      </trkpt>
      <trkpt lat="42.865597" lon="-7.7894506">
        <time>2022-07-13T09:07:31Z</time>
      </trkpt>
      <trkpt lat="42.865593" lon="-7.7895336">
        <time>2022-07-13T09:07:36Z</time>
      </trkpt>
      <trkpt lat="42.86559" lon="-7.7896085">
        <time>2022-07-13T09:07:40Z</time>
      </trkpt>
      <trkpt lat="42.865585" lon="-7.7896814">
        <time>2022-07-13T09:07:44Z</time>
      </trkpt>
      <trkpt lat="42.865597" lon="-7.7897625">
        <time>2022-07-13T09:07:49Z</time>
      </trkpt>
      <trkpt lat="42.865585" lon="-7.789849">
        <time>2022-07-13T09:07:54Z</time>
      </trkpt>
      <trkpt lat="42.865574" lon="-7.7899256">
        <time>2022-07-13T09:07:59Z</time>
      </trkpt>
      <trkpt lat="42.865566" lon="-7.789994">
        <time>2022-07-13T09:08:03Z</time>
      </trkpt>
      <trkpt lat="42.865555" lon="-7.7900705">
        <time>2022-07-13T09:08:07Z</time>
      </trkpt>
      <trkpt lat="42.865547" lon="-7.7901464">
        <time>2022-07-13T09:08:11Z</time>
      </trkpt>
      <trkpt lat="42.865543" lon="-7.7902184">
        <time>2022-07-13T09:08:15Z</time>
      </trkpt>
      <trkpt lat="42.865543" lon="-7.7902937">
        <time>2022-07-13T09:08:20Z</time>
      </trkpt>
      <trkpt lat="42.86555" lon="-7.7903547">
        <time>2022-07-13T09:08:23Z</time>
      </trkpt>
      <trkpt lat="42.86557" lon="-7.790426">
        <time>2022-07-13T09:08:27Z</time>
      </trkpt>
      <trkpt lat="42.865597" lon="-7.7904954">
        <time>2022-07-13T09:08:31Z</time>
      </trkpt>
      <trkpt lat="42.865623" lon="-7.7905593">
        <time>2022-07-13T09:08:36Z</time>
      </trkpt>
      <trkpt lat="42.865643" lon="-7.7906327">
        <time>2022-07-13T09:08:41Z</time>
      </trkpt>
      <trkpt lat="42.86567" lon="-7.790698">
        <time>2022-07-13T09:08:47Z</time>
      </trkpt>
      <trkpt lat="42.8657" lon="-7.7907662">
        <time>2022-07-13T09:08:51Z</time>
      </trkpt>
      <trkpt lat="42.865734" lon="-7.7908297">
        <time>2022-07-13T09:08:56Z</time>
      </trkpt>
      <trkpt lat="42.86576" lon="-7.790898">
        <time>2022-07-13T09:09:01Z</time>
      </trkpt>
      <trkpt lat="42.865788" lon="-7.790969">
        <time>2022-07-13T09:09:06Z</time>
      </trkpt>
      <trkpt lat="42.865814" lon="-7.791028">
        <time>2022-07-13T09:09:11Z</time>
      </trkpt>
      <trkpt lat="42.865852" lon="-7.7911015">
        <time>2022-07-13T09:09:16Z</time>
      </trkpt>
      <trkpt lat="42.86588" lon="-7.7911797">
        <time>2022-07-13T09:09:19Z</time>
      </trkpt>
      <trkpt lat="42.865894" lon="-7.7912564">
        <time>2022-07-13T09:09:22Z</time>
      </trkpt>
      <trkpt lat="42.865902" lon="-7.7913346">
        <time>2022-07-13T09:09:26Z</time>
      </trkpt>
      <trkpt lat="42.86593" lon="-7.7914095">
        <time>2022-07-13T09:09:30Z</time>
      </trkpt>
      <trkpt lat="42.865944" lon="-7.791489">
        <time>2022-07-13T09:09:34Z</time>
      </trkpt>
      <trkpt lat="42.86595" lon="-7.7915573">
        <time>2022-07-13T09:09:37Z</time>
      </trkpt>
      <trkpt lat="42.865963" lon="-7.791646">
        <time>2022-07-13T09:09:41Z</time>
      </trkpt>
      <trkpt lat="42.865974" lon="-7.7917256">
        <time>2022-07-13T09:09:45Z</time>
      </trkpt>
      <trkpt lat="42.865982" lon="-7.7917986">
        <time>2022-07-13T09:09:49Z</time>
      </trkpt>
      <trkpt lat="42.86599" lon="-7.79187">
        <time>2022-07-13T09:09:53Z</time>
      </trkpt>
      <trkpt lat="42.865986" lon="-7.791939">
        <time>2022-07-13T09:09:57Z</time>
      </trkpt>
      <trkpt lat="42.865986" lon="-7.792022">
        <time>2022-07-13T09:10:02Z</time>
      </trkpt>
      <trkpt lat="42.865982" lon="-7.792105">
        <time>2022-07-13T09:10:07Z</time>
      </trkpt>
      <trkpt lat="42.865986" lon="-7.7921805">
        <time>2022-07-13T09:10:11Z</time>
      </trkpt>
      <trkpt lat="42.86599" lon="-7.7922673">
        <time>2022-07-13T09:10:16Z</time>
      </trkpt>
      <trkpt lat="42.865997" lon="-7.792354">
        <time>2022-07-13T09:10:21Z</time>
      </trkpt>
      <trkpt lat="42.866005" lon="-7.792422">
        <time>2022-07-13T09:10:25Z</time>
      </trkpt>
      <trkpt lat="42.866016" lon="-7.792505">
        <time>2022-07-13T09:10:30Z</time>
      </trkpt>
      <trkpt lat="42.86602" lon="-7.792576">
        <time>2022-07-13T09:10:34Z</time>
      </trkpt>
      <trkpt lat="42.866028" lon="-7.792639">
        <time>2022-07-13T09:10:38Z</time>
      </trkpt>
      <trkpt lat="42.866035" lon="-7.7927136">
        <time>2022-07-13T09:10:43Z</time>
      </trkpt>
      <trkpt lat="42.866043" lon="-7.792794">
        <time>2022-07-13T09:10:48Z</time>
      </trkpt>
      <trkpt lat="42.866047" lon="-7.7928658">
        <time>2022-07-13T09:10:53Z</time>
      </trkpt>
      <trkpt lat="42.86606" lon="-7.79294">
        <time>2022-07-13T09:10:57Z</time>
      </trkpt>
      <trkpt lat="42.866074" lon="-7.793013">
        <time>2022-07-13T09:11:01Z</time>
      </trkpt>
      <trkpt lat="42.86609" lon="-7.7930946">
        <time>2022-07-13T09:11:06Z</time>
      </trkpt>
      <trkpt lat="42.86611" lon="-7.793172">
        <time>2022-07-13T09:11:11Z</time>
      </trkpt>
      <trkpt lat="42.866123" lon="-7.793254">
        <time>2022-07-13T09:11:16Z</time>
      </trkpt>
      <trkpt lat="42.866135" lon="-7.7933216">
        <time>2022-07-13T09:11:20Z</time>
      </trkpt>
      <trkpt lat="42.86615" lon="-7.7933865">
        <time>2022-07-13T09:11:24Z</time>
      </trkpt>
      <trkpt lat="42.866177" lon="-7.7934613">
        <time>2022-07-13T09:11:29Z</time>
      </trkpt>
      <trkpt lat="42.8662" lon="-7.793533">
        <time>2022-07-13T09:11:34Z</time>
      </trkpt>
      <trkpt lat="42.866226" lon="-7.7936053">
        <time>2022-07-13T09:11:39Z</time>
      </trkpt>
      <trkpt lat="42.866253" lon="-7.7936597">
        <time>2022-07-13T09:11:43Z</time>
      </trkpt>
      <trkpt lat="42.866283" lon="-7.793729">
        <time>2022-07-13T09:11:48Z</time>
      </trkpt>
      <trkpt lat="42.866318" lon="-7.793796">
        <time>2022-07-13T09:11:53Z</time>
      </trkpt>
      <trkpt lat="42.866344" lon="-7.7938623">
        <time>2022-07-13T09:11:58Z</time>
      </trkpt>
      <trkpt lat="42.86637" lon="-7.79392">
        <time>2022-07-13T09:12:02Z</time>
      </trkpt>
      <trkpt lat="42.8664" lon="-7.7939897">
        <time>2022-07-13T09:12:07Z</time>
      </trkpt>
      <trkpt lat="42.866432" lon="-7.7940574">
        <time>2022-07-13T09:12:12Z</time>
      </trkpt>
      <trkpt lat="42.86647" lon="-7.794117">
        <time>2022-07-13T09:12:17Z</time>
      </trkpt>
      <trkpt lat="42.866516" lon="-7.794177">
        <time>2022-07-13T09:12:22Z</time>
      </trkpt>
      <trkpt lat="42.866554" lon="-7.794236">
        <time>2022-07-13T09:12:26Z</time>
      </trkpt>
      <trkpt lat="42.866585" lon="-7.794309">
        <time>2022-07-13T09:12:30Z</time>
      </trkpt>
      <trkpt lat="42.866604" lon="-7.794371">
        <time>2022-07-13T09:12:34Z</time>
      </trkpt>
      <trkpt lat="42.866634" lon="-7.7944365">
        <time>2022-07-13T09:12:38Z</time>
      </trkpt>
      <trkpt lat="42.86666" lon="-7.794506">
        <time>2022-07-13T09:12:43Z</time>
      </trkpt>
      <trkpt lat="42.866703" lon="-7.7945805">
        <time>2022-07-13T09:12:48Z</time>
      </trkpt>
      <trkpt lat="42.866722" lon="-7.7946444">
        <time>2022-07-13T09:12:52Z</time>
      </trkpt>
      <trkpt lat="42.866745" lon="-7.7947183">
        <time>2022-07-13T09:12:57Z</time>
      </trkpt>
      <trkpt lat="42.86677" lon="-7.794765">
        <time>2022-07-13T09:13:01Z</time>
      </trkpt>
      <trkpt lat="42.866817" lon="-7.7948327">
        <time>2022-07-13T09:13:07Z</time>
      </trkpt>
      <trkpt lat="42.866856" lon="-7.794908">
        <time>2022-07-13T09:13:11Z</time>
      </trkpt>
      <trkpt lat="42.866886" lon="-7.794966">
        <time>2022-07-13T09:13:15Z</time>
      </trkpt>
      <trkpt lat="42.866917" lon="-7.795017">
        <time>2022-07-13T09:13:19Z</time>
      </trkpt>
      <trkpt lat="42.866943" lon="-7.795083">
        <time>2022-07-13T09:13:23Z</time>
      </trkpt>
      <trkpt lat="42.866974" lon="-7.795143">
        <time>2022-07-13T09:13:27Z</time>
      </trkpt>
      <trkpt lat="42.867012" lon="-7.7952147">
        <time>2022-07-13T09:13:32Z</time>
      </trkpt>
      <trkpt lat="42.86703" lon="-7.7952905">
        <time>2022-07-13T09:13:36Z</time>
      </trkpt>
      <trkpt lat="42.86706" lon="-7.7953477">
        <time>2022-07-13T09:13:40Z</time>
      </trkpt>
      <trkpt lat="42.867092" lon="-7.795407">
        <time>2022-07-13T09:13:45Z</time>
      </trkpt>
      <trkpt lat="42.86712" lon="-7.795465">
        <time>2022-07-13T09:13:49Z</time>
      </trkpt>
      <trkpt lat="42.867157" lon="-7.7955337">
        <time>2022-07-13T09:13:54Z</time>
      </trkpt>
      <trkpt lat="42.867188" lon="-7.795591">
        <time>2022-07-13T09:13:58Z</time>
      </trkpt>
      <trkpt lat="42.86721" lon="-7.795673">
        <time>2022-07-13T09:14:03Z</time>
      </trkpt>
      <trkpt lat="42.867233" lon="-7.7957506">
        <time>2022-07-13T09:14:07Z</time>
      </trkpt>
      <trkpt lat="42.867264" lon="-7.7958117">
        <time>2022-07-13T09:14:11Z</time>
      </trkpt>
      <trkpt lat="42.867294" lon="-7.795871">
        <time>2022-07-13T09:14:15Z</time>
      </trkpt>
      <trkpt lat="42.867325" lon="-7.795939">
        <time>2022-07-13T09:14:20Z</time>
      </trkpt>
      <trkpt lat="42.867355" lon="-7.796">
        <time>2022-07-13T09:14:24Z</time>
      </trkpt>
      <trkpt lat="42.867397" lon="-7.796078">
        <time>2022-07-13T09:14:29Z</time>
      </trkpt>
      <trkpt lat="42.867424" lon="-7.7961483">
        <time>2022-07-13T09:14:33Z</time>
      </trkpt>
      <trkpt lat="42.86746" lon="-7.7962">
        <time>2022-07-13T09:14:37Z</time>
      </trkpt>
      <trkpt lat="42.867493" lon="-7.7962584">
        <time>2022-07-13T09:14:41Z</time>
      </trkpt>
      <trkpt lat="42.867527" lon="-7.796324">
        <time>2022-07-13T09:14:46Z</time>
      </trkpt>
      <trkpt lat="42.867573" lon="-7.796391">
        <time>2022-07-13T09:14:51Z</time>
      </trkpt>
      <trkpt lat="42.867607" lon="-7.796456">
        <time>2022-07-13T09:14:55Z</time>
      </trkpt>
      <trkpt lat="42.86764" lon="-7.7965083">
        <time>2022-07-13T09:14:59Z</time>
      </trkpt>
      <trkpt lat="42.867676" lon="-7.7965636">
        <time>2022-07-13T09:15:03Z</time>
      </trkpt>
      <trkpt lat="42.86771" lon="-7.7966228">
        <time>2022-07-13T09:15:08Z</time>
      </trkpt>
      <trkpt lat="42.867752" lon="-7.796687">
        <time>2022-07-13T09:15:13Z</time>
      </trkpt>
      <trkpt lat="42.867786" lon="-7.796735">
        <time>2022-07-13T09:15:17Z</time>
      </trkpt>
      <trkpt lat="42.86782" lon="-7.796795">
        <time>2022-07-13T09:15:22Z</time>
      </trkpt>
      <trkpt lat="42.867855" lon="-7.7968516">
        <time>2022-07-13T09:15:26Z</time>
      </trkpt>
      <trkpt lat="42.867886" lon="-7.796904">
        <time>2022-07-13T09:15:30Z</time>
      </trkpt>
      <trkpt lat="42.867916" lon="-7.7969685">
        <time>2022-07-13T09:15:34Z</time>
      </trkpt>
      <trkpt lat="42.86795" lon="-7.797028">
        <time>2022-07-13T09:15:38Z</time>
      </trkpt>
      <trkpt lat="42.86798" lon="-7.7970867">
        <time>2022-07-13T09:15:42Z</time>
      </trkpt>
      <trkpt lat="42.86801" lon="-7.797145">
        <time>2022-07-13T09:15:46Z</time>
      </trkpt>
      <trkpt lat="42.86805" lon="-7.797204">
        <time>2022-07-13T09:15:51Z</time>
      </trkpt>
      <trkpt lat="42.86808" lon="-7.797264">
        <time>2022-07-13T09:15:55Z</time>
      </trkpt>
      <trkpt lat="42.86811" lon="-7.79733">
        <time>2022-07-13T09:16:00Z</time>
      </trkpt>
      <trkpt lat="42.86815" lon="-7.797388">
        <time>2022-07-13T09:16:04Z</time>
      </trkpt>
      <trkpt lat="42.868183" lon="-7.79745">
        <time>2022-07-13T09:16:09Z</time>
      </trkpt>
      <trkpt lat="42.868233" lon="-7.7975163">
        <time>2022-07-13T09:16:14Z</time>
      </trkpt>
      <trkpt lat="42.86826" lon="-7.797569">
        <time>2022-07-13T09:16:18Z</time>
      </trkpt>
      <trkpt lat="42.868294" lon="-7.7976346">
        <time>2022-07-13T09:16:23Z</time>
      </trkpt>
      <trkpt lat="42.868324" lon="-7.7976894">
        <time>2022-07-13T09:16:27Z</time>
      </trkpt>
      <trkpt lat="42.868362" lon="-7.7977457">
        <time>2022-07-13T09:16:32Z</time>
      </trkpt>
      <trkpt lat="42.8684" lon="-7.797811">
        <time>2022-07-13T09:16:36Z</time>
      </trkpt>
      <trkpt lat="42.868435" lon="-7.797887">
        <time>2022-07-13T09:16:40Z</time>
      </trkpt>
      <trkpt lat="42.86846" lon="-7.7979465">
        <time>2022-07-13T09:16:44Z</time>
      </trkpt>
      <trkpt lat="42.8685" lon="-7.7980027">
        <time>2022-07-13T09:16:49Z</time>
      </trkpt>
      <trkpt lat="42.868546" lon="-7.79805">
        <time>2022-07-13T09:16:53Z</time>
      </trkpt>
      <trkpt lat="42.86858" lon="-7.7980886">
        <time>2022-07-13T09:16:56Z</time>
      </trkpt>
      <trkpt lat="42.86862" lon="-7.798141">
        <time>2022-07-13T09:17:01Z</time>
      </trkpt>
      <trkpt lat="42.86867" lon="-7.7981935">
        <time>2022-07-13T09:17:06Z</time>
      </trkpt>
      <trkpt lat="42.868717" lon="-7.798245">
        <time>2022-07-13T09:17:10Z</time>
      </trkpt>
      <trkpt lat="42.868755" lon="-7.798293">
        <time>2022-07-13T09:17:14Z</time>
      </trkpt>
      <trkpt lat="42.868793" lon="-7.798346">
        <time>2022-07-13T09:17:19Z</time>
      </trkpt>
      <trkpt lat="42.868843" lon="-7.798405">
        <time>2022-07-13T09:17:24Z</time>
      </trkpt>
      <trkpt lat="42.86889" lon="-7.798458">
        <time>2022-07-13T09:17:28Z</time>
      </trkpt>
      <trkpt lat="42.868923" lon="-7.7985024">
        <time>2022-07-13T09:17:32Z</time>
      </trkpt>
      <trkpt lat="42.868958" lon="-7.798558">
        <time>2022-07-13T09:17:37Z</time>
      </trkpt>
      <trkpt lat="42.868996" lon="-7.7986174">
        <time>2022-07-13T09:17:41Z</time>
      </trkpt>
      <trkpt lat="42.869034" lon="-7.7986636">
        <time>2022-07-13T09:17:45Z</time>
      </trkpt>
      <trkpt lat="42.869076" lon="-7.7987194">
        <time>2022-07-13T09:17:50Z</time>
      </trkpt>
      <trkpt lat="42.86912" lon="-7.798772">
        <time>2022-07-13T09:17:54Z</time>
      </trkpt>
      <trkpt lat="42.869164" lon="-7.79882">
        <time>2022-07-13T09:17:58Z</time>
      </trkpt>
      <trkpt lat="42.8692" lon="-7.7988734">
        <time>2022-07-13T09:18:03Z</time>
      </trkpt>
      <trkpt lat="42.869255" lon="-7.798934">
        <time>2022-07-13T09:18:08Z</time>
      </trkpt>
      <trkpt lat="42.869293" lon="-7.7989764">
        <time>2022-07-13T09:18:11Z</time>
      </trkpt>
      <trkpt lat="42.86933" lon="-7.7990294">
        <time>2022-07-13T09:18:15Z</time>
      </trkpt>
      <trkpt lat="42.86937" lon="-7.7990837">
        <time>2022-07-13T09:18:20Z</time>
      </trkpt>
      <trkpt lat="42.86941" lon="-7.7991323">
        <time>2022-07-13T09:18:24Z</time>
      </trkpt>
      <trkpt lat="42.86945" lon="-7.7991834">
        <time>2022-07-13T09:18:28Z</time>
      </trkpt>
      <trkpt lat="42.86948" lon="-7.799232">
        <time>2022-07-13T09:18:32Z</time>
      </trkpt>
      <trkpt lat="42.869526" lon="-7.7992926">
        <time>2022-07-13T09:18:37Z</time>
      </trkpt>
      <trkpt lat="42.869576" lon="-7.7993445">
        <time>2022-07-13T09:18:41Z</time>
      </trkpt>
      <trkpt lat="42.86961" lon="-7.7993875">
        <time>2022-07-13T09:18:44Z</time>
      </trkpt>
      <trkpt lat="42.86965" lon="-7.7994347">
        <time>2022-07-13T09:18:48Z</time>
      </trkpt>
      <trkpt lat="42.869686" lon="-7.7994847">
        <time>2022-07-13T09:18:53Z</time>
      </trkpt>
      <trkpt lat="42.86973" lon="-7.799544">
        <time>2022-07-13T09:18:58Z</time>
      </trkpt>
      <trkpt lat="42.869774" lon="-7.799601">
        <time>2022-07-13T09:19:02Z</time>
      </trkpt>
      <trkpt lat="42.869816" lon="-7.7996597">
        <time>2022-07-13T09:19:06Z</time>
      </trkpt>
      <trkpt lat="42.869858" lon="-7.7997074">
        <time>2022-07-13T09:19:10Z</time>
      </trkpt>
      <trkpt lat="42.8699" lon="-7.799755">
        <time>2022-07-13T09:19:15Z</time>
      </trkpt>
      <trkpt lat="42.869946" lon="-7.7998123">
        <time>2022-07-13T09:19:20Z</time>
      </trkpt>
      <trkpt lat="42.86999" lon="-7.799873">
        <time>2022-07-13T09:19:24Z</time>
      </trkpt>
      <trkpt lat="42.870037" lon="-7.7999234">
        <time>2022-07-13T09:19:28Z</time>
      </trkpt>
      <trkpt lat="42.870083" lon="-7.799975">
        <time>2022-07-13T09:19:33Z</time>
      </trkpt>
      <trkpt lat="42.87012" lon="-7.800019">
        <time>2022-07-13T09:19:37Z</time>
      </trkpt>
      <trkpt lat="42.870163" lon="-7.8000712">
        <time>2022-07-13T09:19:41Z</time>
      </trkpt>
      <trkpt lat="42.870213" lon="-7.8001285">
        <time>2022-07-13T09:19:45Z</time>
      </trkpt>
      <trkpt lat="42.870255" lon="-7.800175">
        <time>2022-07-13T09:19:49Z</time>
      </trkpt>
      <trkpt lat="42.870304" lon="-7.800218">
        <time>2022-07-13T09:19:54Z</time>
      </trkpt>
      <trkpt lat="42.870354" lon="-7.8002696">
        <time>2022-07-13T09:19:59Z</time>
      </trkpt>
      <trkpt lat="42.870403" lon="-7.80032">
        <time>2022-07-13T09:20:03Z</time>
      </trkpt>
      <trkpt lat="42.870445" lon="-7.8003798">
        <time>2022-07-13T09:20:07Z</time>
      </trkpt>
      <trkpt lat="42.870476" lon="-7.8004303">
        <time>2022-07-13T09:20:11Z</time>
      </trkpt>
      <trkpt lat="42.870514" lon="-7.8004866">
        <time>2022-07-13T09:20:16Z</time>
      </trkpt>
      <trkpt lat="42.87056" lon="-7.80054">
        <time>2022-07-13T09:20:20Z</time>
      </trkpt>
      <trkpt lat="42.870605" lon="-7.8005967">
        <time>2022-07-13T09:20:24Z</time>
      </trkpt>
      <trkpt lat="42.870644" lon="-7.8006477">
        <time>2022-07-13T09:20:28Z</time>
      </trkpt>
      <trkpt lat="42.870686" lon="-7.8007016">
        <time>2022-07-13T09:20:33Z</time>
      </trkpt>
      <trkpt lat="42.870728" lon="-7.800753">
        <time>2022-07-13T09:20:37Z</time>
      </trkpt>
      <trkpt lat="42.87077" lon="-7.8008065">
        <time>2022-07-13T09:20:41Z</time>
      </trkpt>
      <trkpt lat="42.870804" lon="-7.8008523">
        <time>2022-07-13T09:20:45Z</time>
      </trkpt>
      <trkpt lat="42.870842" lon="-7.8009043">
        <time>2022-07-13T09:20:50Z</time>
      </trkpt>
      <trkpt lat="42.870888" lon="-7.800964">
        <time>2022-07-13T09:20:55Z</time>
      </trkpt>
      <trkpt lat="42.870926" lon="-7.8010225">
        <time>2022-07-13T09:20:59Z</time>
      </trkpt>
      <trkpt lat="42.87096" lon="-7.8010793">
        <time>2022-07-13T09:21:03Z</time>
      </trkpt>
      <trkpt lat="42.871002" lon="-7.801134">
        <time>2022-07-13T09:21:07Z</time>
      </trkpt>
      <trkpt lat="42.871037" lon="-7.8012085">
        <time>2022-07-13T09:21:12Z</time>
      </trkpt>
      <trkpt lat="42.871075" lon="-7.8012657">
        <time>2022-07-13T09:21:16Z</time>
      </trkpt>
      <trkpt lat="42.871105" lon="-7.8013234">
        <time>2022-07-13T09:21:20Z</time>
      </trkpt>
      <trkpt lat="42.871128" lon="-7.801389">
        <time>2022-07-13T09:21:24Z</time>
      </trkpt>
      <trkpt lat="42.87115" lon="-7.801449">
        <time>2022-07-13T09:21:28Z</time>
      </trkpt>
      <trkpt lat="42.87118" lon="-7.8015227">
        <time>2022-07-13T09:21:33Z</time>
      </trkpt>
      <trkpt lat="42.871212" lon="-7.8015957">
        <time>2022-07-13T09:21:38Z</time>
      </trkpt>
      <trkpt lat="42.87124" lon="-7.8016596">
        <time>2022-07-13T09:21:42Z</time>
      </trkpt>
      <trkpt lat="42.871265" lon="-7.801726">
        <time>2022-07-13T09:21:46Z</time>
      </trkpt>
      <trkpt lat="42.871292" lon="-7.8017864">
        <time>2022-07-13T09:21:50Z</time>
      </trkpt>
      <trkpt lat="42.87131" lon="-7.8018465">
        <time>2022-07-13T09:21:54Z</time>
      </trkpt>
      <trkpt lat="42.871338" lon="-7.8019204">
        <time>2022-07-13T09:21:59Z</time>
      </trkpt>
      <trkpt lat="42.871357" lon="-7.8019753">
        <time>2022-07-13T09:22:03Z</time>
      </trkpt>
      <trkpt lat="42.87139" lon="-7.8020463">
        <time>2022-07-13T09:22:08Z</time>
      </trkpt>
      <trkpt lat="42.871414" lon="-7.802111">
        <time>2022-07-13T09:22:12Z</time>
      </trkpt>
      <trkpt lat="42.871437" lon="-7.8021774">
        <time>2022-07-13T09:22:16Z</time>
      </trkpt>
      <trkpt lat="42.871464" lon="-7.8022428">
        <time>2022-07-13T09:22:20Z</time>
      </trkpt>
      <trkpt lat="42.87149" lon="-7.802309">
        <time>2022-07-13T09:22:24Z</time>
      </trkpt>
      <trkpt lat="42.871517" lon="-7.802373">
        <time>2022-07-13T09:22:28Z</time>
      </trkpt>
      <trkpt lat="42.87154" lon="-7.8024383">
        <time>2022-07-13T09:22:32Z</time>
      </trkpt>
      <trkpt lat="42.87157" lon="-7.8025208">
        <time>2022-07-13T09:22:37Z</time>
      </trkpt>
      <trkpt lat="42.871597" lon="-7.802592">
        <time>2022-07-13T09:22:41Z</time>
      </trkpt>
      <trkpt lat="42.87162" lon="-7.8026624">
        <time>2022-07-13T09:22:45Z</time>
      </trkpt>
      <trkpt lat="42.871643" lon="-7.802731">
        <time>2022-07-13T09:22:49Z</time>
      </trkpt>
      <trkpt lat="42.871662" lon="-7.8027916">
        <time>2022-07-13T09:22:53Z</time>
      </trkpt>
      <trkpt lat="42.8717" lon="-7.802853">
        <time>2022-07-13T09:22:58Z</time>
      </trkpt>
      <trkpt lat="42.871723" lon="-7.802915">
        <time>2022-07-13T09:23:02Z</time>
      </trkpt>
      <trkpt lat="42.871746" lon="-7.802979">
        <time>2022-07-13T09:23:06Z</time>
      </trkpt>
      <trkpt lat="42.87176" lon="-7.803046">
        <time>2022-07-13T09:23:10Z</time>
      </trkpt>
      <trkpt lat="42.87178" lon="-7.803117">
        <time>2022-07-13T09:23:14Z</time>
      </trkpt>
      <trkpt lat="42.8718" lon="-7.80319">
        <time>2022-07-13T09:23:18Z</time>
      </trkpt>
      <trkpt lat="42.871826" lon="-7.803268">
        <time>2022-07-13T09:23:22Z</time>
      </trkpt>
      <trkpt lat="42.87186" lon="-7.803336">
        <time>2022-07-13T09:23:26Z</time>
      </trkpt>
      <trkpt lat="42.8719" lon="-7.803399">
        <time>2022-07-13T09:23:30Z</time>
      </trkpt>
      <trkpt lat="42.87193" lon="-7.803459">
        <time>2022-07-13T09:23:34Z</time>
      </trkpt>
      <trkpt lat="42.871952" lon="-7.803526">
        <time>2022-07-13T09:23:39Z</time>
      </trkpt>
      <trkpt lat="42.871986" lon="-7.8035913">
        <time>2022-07-13T09:23:44Z</time>
      </trkpt>
      <trkpt lat="42.872017" lon="-7.8036437">
        <time>2022-07-13T09:23:48Z</time>
      </trkpt>
      <trkpt lat="42.872044" lon="-7.803709">
        <time>2022-07-13T09:23:52Z</time>
      </trkpt>
      <trkpt lat="42.872078" lon="-7.803766">
        <time>2022-07-13T09:23:56Z</time>
      </trkpt>
      <trkpt lat="42.87212" lon="-7.8038187">
        <time>2022-07-13T09:24:00Z</time>
      </trkpt>
      <trkpt lat="42.872158" lon="-7.803871">
        <time>2022-07-13T09:24:04Z</time>
      </trkpt>
      <trkpt lat="42.87221" lon="-7.803925">
        <time>2022-07-13T09:24:09Z</time>
      </trkpt>
      <trkpt lat="42.872253" lon="-7.803975">
        <time>2022-07-13T09:24:14Z</time>
      </trkpt>
      <trkpt lat="42.87229" lon="-7.804016">
        <time>2022-07-13T09:24:19Z</time>
      </trkpt>
      <trkpt lat="42.872334" lon="-7.804072">
        <time>2022-07-13T09:24:24Z</time>
      </trkpt>
      <trkpt lat="42.87238" lon="-7.804123">
        <time>2022-07-13T09:24:28Z</time>
      </trkpt>
      <trkpt lat="42.872417" lon="-7.804168">
        <time>2022-07-13T09:24:32Z</time>
      </trkpt>
      <trkpt lat="42.87246" lon="-7.8042126">
        <time>2022-07-13T09:24:36Z</time>
      </trkpt>
      <trkpt lat="42.8725" lon="-7.804263">
        <time>2022-07-13T09:24:40Z</time>
      </trkpt>
      <trkpt lat="42.872543" lon="-7.804315">
        <time>2022-07-13T09:24:44Z</time>
      </trkpt>
      <trkpt lat="42.872585" lon="-7.8043666">
        <time>2022-07-13T09:24:48Z</time>
      </trkpt>
      <trkpt lat="42.872627" lon="-7.804419">
        <time>2022-07-13T09:24:52Z</time>
      </trkpt>
      <trkpt lat="42.872665" lon="-7.8044705">
        <time>2022-07-13T09:24:56Z</time>
      </trkpt>
      <trkpt lat="42.872704" lon="-7.8045216">
        <time>2022-07-13T09:25:00Z</time>
      </trkpt>
      <trkpt lat="42.872746" lon="-7.8045697">
        <time>2022-07-13T09:25:04Z</time>
      </trkpt>
      <trkpt lat="42.872795" lon="-7.8046165">
        <time>2022-07-13T09:25:09Z</time>
      </trkpt>
      <trkpt lat="42.87284" lon="-7.80467">
        <time>2022-07-13T09:25:14Z</time>
      </trkpt>
      <trkpt lat="42.87287" lon="-7.8047194">
        <time>2022-07-13T09:25:18Z</time>
      </trkpt>
      <trkpt lat="42.87292" lon="-7.80478">
        <time>2022-07-13T09:25:23Z</time>
      </trkpt>
      <trkpt lat="42.872963" lon="-7.804834">
        <time>2022-07-13T09:25:27Z</time>
      </trkpt>
      <trkpt lat="42.873005" lon="-7.8048887">
        <time>2022-07-13T09:25:31Z</time>
      </trkpt>
      <trkpt lat="42.873055" lon="-7.804939">
        <time>2022-07-13T09:25:36Z</time>
      </trkpt>
      <trkpt lat="42.873093" lon="-7.8049836">
        <time>2022-07-13T09:25:41Z</time>
      </trkpt>
      <trkpt lat="42.873135" lon="-7.8050413">
        <time>2022-07-13T09:25:47Z</time>
      </trkpt>
      <trkpt lat="42.873173" lon="-7.8050895">
        <time>2022-07-13T09:25:51Z</time>
      </trkpt>
      <trkpt lat="42.87321" lon="-7.805141">
        <time>2022-07-13T09:25:55Z</time>
      </trkpt>
      <trkpt lat="42.87325" lon="-7.805195">
        <time>2022-07-13T09:26:00Z</time>
      </trkpt>
      <trkpt lat="42.87329" lon="-7.805234">
        <time>2022-07-13T09:26:04Z</time>
      </trkpt>
      <trkpt lat="42.87334" lon="-7.805277">
        <time>2022-07-13T09:26:08Z</time>
      </trkpt>
      <trkpt lat="42.873386" lon="-7.805322">
        <time>2022-07-13T09:26:12Z</time>
      </trkpt>
      <trkpt lat="42.87343" lon="-7.8053665">
        <time>2022-07-13T09:26:16Z</time>
      </trkpt>
      <trkpt lat="42.87347" lon="-7.805423">
        <time>2022-07-13T09:26:20Z</time>
      </trkpt>
      <trkpt lat="42.87351" lon="-7.8054805">
        <time>2022-07-13T09:26:23Z</time>
      </trkpt>
      <trkpt lat="42.87354" lon="-7.80553">
        <time>2022-07-13T09:26:26Z</time>
      </trkpt>
      <trkpt lat="42.873585" lon="-7.805575">
        <time>2022-07-13T09:26:30Z</time>
      </trkpt>
      <trkpt lat="42.873627" lon="-7.8056254">
        <time>2022-07-13T09:26:35Z</time>
      </trkpt>
      <trkpt lat="42.873672" lon="-7.805683">
        <time>2022-07-13T09:26:41Z</time>
      </trkpt>
      <trkpt lat="42.873714" lon="-7.8057423">
        <time>2022-07-13T09:26:46Z</time>
      </trkpt>
      <trkpt lat="42.87374" lon="-7.8058143">
        <time>2022-07-13T09:26:50Z</time>
      </trkpt>
      <trkpt lat="42.873756" lon="-7.805887">
        <time>2022-07-13T09:26:54Z</time>
      </trkpt>
      <trkpt lat="42.873764" lon="-7.8059597">
        <time>2022-07-13T09:26:58Z</time>
      </trkpt>
      <trkpt lat="42.873764" lon="-7.806032">
        <time>2022-07-13T09:27:02Z</time>
      </trkpt>
      <trkpt lat="42.873764" lon="-7.806108">
        <time>2022-07-13T09:27:06Z</time>
      </trkpt>
      <trkpt lat="42.873756" lon="-7.806183">
        <time>2022-07-13T09:27:10Z</time>
      </trkpt>
      <trkpt lat="42.873753" lon="-7.8062587">
        <time>2022-07-13T09:27:14Z</time>
      </trkpt>
      <trkpt lat="42.873745" lon="-7.806334">
        <time>2022-07-13T09:27:18Z</time>
      </trkpt>
      <trkpt lat="42.87373" lon="-7.806411">
        <time>2022-07-13T09:27:22Z</time>
      </trkpt>
      <trkpt lat="42.873722" lon="-7.8064804">
        <time>2022-07-13T09:27:26Z</time>
      </trkpt>
      <trkpt lat="42.87371" lon="-7.806566">
        <time>2022-07-13T09:27:32Z</time>
      </trkpt>
      <trkpt lat="42.873707" lon="-7.806641">
        <time>2022-07-13T09:27:35Z</time>
      </trkpt>
      <trkpt lat="42.8737" lon="-7.806714">
        <time>2022-07-13T09:27:39Z</time>
      </trkpt>
      <trkpt lat="42.873688" lon="-7.8067865">
        <time>2022-07-13T09:27:43Z</time>
      </trkpt>
      <trkpt lat="42.873672" lon="-7.806854">
        <time>2022-07-13T09:27:47Z</time>
      </trkpt>
      <trkpt lat="42.873653" lon="-7.8069167">
        <time>2022-07-13T09:27:51Z</time>
      </trkpt>
      <trkpt lat="42.873615" lon="-7.8069835">
        <time>2022-07-13T09:27:56Z</time>
      </trkpt>
      <trkpt lat="42.87357" lon="-7.807046">
        <time>2022-07-13T09:28:01Z</time>
      </trkpt>
      <trkpt lat="42.87353" lon="-7.807115">
        <time>2022-07-13T09:28:06Z</time>
      </trkpt>
      <trkpt lat="42.873505" lon="-7.807174">
        <time>2022-07-13T09:28:10Z</time>
      </trkpt>
      <trkpt lat="42.873463" lon="-7.807245">
        <time>2022-07-13T09:28:19Z</time>
      </trkpt>
      <trkpt lat="42.87346" lon="-7.807209">
        <time>2022-07-13T09:28:33Z</time>
      </trkpt>
      <trkpt lat="42.873417" lon="-7.8071885">
        <time>2022-07-13T09:34:00Z</time>
      </trkpt>
      <trkpt lat="42.873436" lon="-7.8071294">
        <time>2022-07-13T09:34:13Z</time>
      </trkpt>
      <trkpt lat="42.87343" lon="-7.807188">
        <time>2022-07-13T09:34:59Z</time>
      </trkpt>
      <trkpt lat="42.873417" lon="-7.807175">
        <time>2022-07-13T09:35:11Z</time>
      </trkpt>
      <trkpt lat="42.87341" lon="-7.8071046">
        <time>2022-07-13T09:35:21Z</time>
      </trkpt>
      <trkpt lat="42.87345" lon="-7.8071113">
        <time>2022-07-13T09:35:31Z</time>
      </trkpt>
      <trkpt lat="42.87347" lon="-7.807261">
        <time>2022-07-13T09:35:53Z</time>
      </trkpt>
      <trkpt lat="42.87348" lon="-7.807253">
        <time>2022-07-13T09:36:06Z</time>
      </trkpt>
      <trkpt lat="42.87345" lon="-7.8070993">
        <time>2022-07-13T09:36:31Z</time>
      </trkpt>
      <trkpt lat="42.873478" lon="-7.807073">
        <time>2022-07-13T09:37:22Z</time>
      </trkpt>
      <trkpt lat="42.873486" lon="-7.807134">
        <time>2022-07-13T09:38:20Z</time>
      </trkpt>
      <trkpt lat="42.87347" lon="-7.807184">
        <time>2022-07-13T09:40:05Z</time>
      </trkpt>
      <trkpt lat="42.873493" lon="-7.807243">
        <time>2022-07-13T09:40:19Z</time>
      </trkpt>
      <trkpt lat="42.873505" lon="-7.807222">
        <time>2022-07-13T09:40:30Z</time>
      </trkpt>
      <trkpt lat="42.87348" lon="-7.807174">
        <time>2022-07-13T09:41:08Z</time>
      </trkpt>
      <trkpt lat="42.873497" lon="-7.8072734">
        <time>2022-07-13T09:42:47Z</time>
      </trkpt>
      <trkpt lat="42.87351" lon="-7.8073564">
        <time>2022-07-13T09:42:52Z</time>
      </trkpt>
      <trkpt lat="42.873512" lon="-7.807428">
        <time>2022-07-13T09:42:57Z</time>
      </trkpt>
      <trkpt lat="42.87347" lon="-7.807471">
        <time>2022-07-13T09:43:03Z</time>
      </trkpt>
      <trkpt lat="42.87348" lon="-7.807577">
        <time>2022-07-13T09:43:51Z</time>
      </trkpt>
      <trkpt lat="42.873493" lon="-7.8076487">
        <time>2022-07-13T09:43:57Z</time>
      </trkpt>
      <trkpt lat="42.87351" lon="-7.807724">
        <time>2022-07-13T09:44:04Z</time>
      </trkpt>
      <trkpt lat="42.873528" lon="-7.8077965">
        <time>2022-07-13T09:44:10Z</time>
      </trkpt>
      <trkpt lat="42.87354" lon="-7.807862">
        <time>2022-07-13T09:44:14Z</time>
      </trkpt>
      <trkpt lat="42.873547" lon="-7.807941">
        <time>2022-07-13T09:44:19Z</time>
      </trkpt>
      <trkpt lat="42.873573" lon="-7.8080063">
        <time>2022-07-13T09:44:24Z</time>
      </trkpt>
      <trkpt lat="42.873608" lon="-7.8080697">
        <time>2022-07-13T09:44:29Z</time>
      </trkpt>
      <trkpt lat="42.87363" lon="-7.8081393">
        <time>2022-07-13T09:44:34Z</time>
      </trkpt>
      <trkpt lat="42.873653" lon="-7.808216">
        <time>2022-07-13T09:44:39Z</time>
      </trkpt>
      <trkpt lat="42.873665" lon="-7.8082914">
        <time>2022-07-13T09:44:44Z</time>
      </trkpt>
      <trkpt lat="42.87368" lon="-7.8083644">
        <time>2022-07-13T09:44:49Z</time>
      </trkpt>
      <trkpt lat="42.873707" lon="-7.8084273">
        <time>2022-07-13T09:44:54Z</time>
      </trkpt>
      <trkpt lat="42.87371" lon="-7.8085103">
        <time>2022-07-13T09:45:00Z</time>
      </trkpt>
      <trkpt lat="42.873695" lon="-7.808579">
        <time>2022-07-13T09:45:05Z</time>
      </trkpt>
      <trkpt lat="42.873684" lon="-7.8086543">
        <time>2022-07-13T09:45:11Z</time>
      </trkpt>
      <trkpt lat="42.873684" lon="-7.8087277">
        <time>2022-07-13T09:45:16Z</time>
      </trkpt>
      <trkpt lat="42.873676" lon="-7.8088045">
        <time>2022-07-13T09:45:21Z</time>
      </trkpt>
      <trkpt lat="42.87367" lon="-7.8088756">
        <time>2022-07-13T09:45:26Z</time>
      </trkpt>
      <trkpt lat="42.873657" lon="-7.808946">
        <time>2022-07-13T09:45:31Z</time>
      </trkpt>
      <trkpt lat="42.87364" lon="-7.809023">
        <time>2022-07-13T09:45:36Z</time>
      </trkpt>
      <trkpt lat="42.873615" lon="-7.80908">
        <time>2022-07-13T09:45:40Z</time>
      </trkpt>
      <trkpt lat="42.873596" lon="-7.8091464">
        <time>2022-07-13T09:45:45Z</time>
      </trkpt>
      <trkpt lat="42.87357" lon="-7.809209">
        <time>2022-07-13T09:45:50Z</time>
      </trkpt>
      <trkpt lat="42.873547" lon="-7.8092785">
        <time>2022-07-13T09:45:55Z</time>
      </trkpt>
      <trkpt lat="42.873535" lon="-7.8093514">
        <time>2022-07-13T09:46:00Z</time>
      </trkpt>
      <trkpt lat="42.87352" lon="-7.8094125">
        <time>2022-07-13T09:46:05Z</time>
      </trkpt>
      <trkpt lat="42.873493" lon="-7.809479">
        <time>2022-07-13T09:46:10Z</time>
      </trkpt>
      <trkpt lat="42.87348" lon="-7.809524">
        <time>2022-07-13T09:46:19Z</time>
      </trkpt>
      <trkpt lat="42.873466" lon="-7.809597">
        <time>2022-07-13T09:46:30Z</time>
      </trkpt>
      <trkpt lat="42.873444" lon="-7.80967">
        <time>2022-07-13T09:46:39Z</time>
      </trkpt>
      <trkpt lat="42.87342" lon="-7.8097367">
        <time>2022-07-13T09:46:45Z</time>
      </trkpt>
      <trkpt lat="42.87339" lon="-7.809805">
        <time>2022-07-13T09:46:51Z</time>
      </trkpt>
      <trkpt lat="42.873344" lon="-7.809871">
        <time>2022-07-13T09:46:56Z</time>
      </trkpt>
      <trkpt lat="42.873306" lon="-7.809943">
        <time>2022-07-13T09:47:01Z</time>
      </trkpt>
      <trkpt lat="42.87328" lon="-7.8100047">
        <time>2022-07-13T09:47:05Z</time>
      </trkpt>
      <trkpt lat="42.873253" lon="-7.8100734">
        <time>2022-07-13T09:47:09Z</time>
      </trkpt>
      <trkpt lat="42.873226" lon="-7.810137">
        <time>2022-07-13T09:47:13Z</time>
      </trkpt>
      <trkpt lat="42.87319" lon="-7.810193">
        <time>2022-07-13T09:47:17Z</time>
      </trkpt>
      <trkpt lat="42.873158" lon="-7.810266">
        <time>2022-07-13T09:47:22Z</time>
      </trkpt>
      <trkpt lat="42.873135" lon="-7.8103285">
        <time>2022-07-13T09:47:27Z</time>
      </trkpt>
      <trkpt lat="42.873116" lon="-7.810404">
        <time>2022-07-13T09:47:32Z</time>
      </trkpt>
      <trkpt lat="42.87308" lon="-7.810479">
        <time>2022-07-13T09:47:38Z</time>
      </trkpt>
      <trkpt lat="42.87305" lon="-7.810552">
        <time>2022-07-13T09:47:44Z</time>
      </trkpt>
      <trkpt lat="42.873016" lon="-7.810615">
        <time>2022-07-13T09:47:49Z</time>
      </trkpt>
      <trkpt lat="42.872974" lon="-7.8106785">
        <time>2022-07-13T09:47:54Z</time>
      </trkpt>
      <trkpt lat="42.87294" lon="-7.810731">
        <time>2022-07-13T09:47:59Z</time>
      </trkpt>
      <trkpt lat="42.8729" lon="-7.8107934">
        <time>2022-07-13T09:48:04Z</time>
      </trkpt>
      <trkpt lat="42.87286" lon="-7.8108582">
        <time>2022-07-13T09:48:08Z</time>
      </trkpt>
      <trkpt lat="42.872826" lon="-7.8109107">
        <time>2022-07-13T09:48:12Z</time>
      </trkpt>
      <trkpt lat="42.872795" lon="-7.81097">
        <time>2022-07-13T09:48:16Z</time>
      </trkpt>
      <trkpt lat="42.87276" lon="-7.8110285">
        <time>2022-07-13T09:48:21Z</time>
      </trkpt>
      <trkpt lat="42.872726" lon="-7.811086">
        <time>2022-07-13T09:48:26Z</time>
      </trkpt>
      <trkpt lat="42.87269" lon="-7.8111444">
        <time>2022-07-13T09:48:31Z</time>
      </trkpt>
      <trkpt lat="42.872654" lon="-7.8112044">
        <time>2022-07-13T09:48:36Z</time>
      </trkpt>
      <trkpt lat="42.872616" lon="-7.8112645">
        <time>2022-07-13T09:48:41Z</time>
      </trkpt>
      <trkpt lat="42.872578" lon="-7.8113256">
        <time>2022-07-13T09:48:46Z</time>
      </trkpt>
      <trkpt lat="42.872543" lon="-7.8113832">
        <time>2022-07-13T09:48:51Z</time>
      </trkpt>
      <trkpt lat="42.87251" lon="-7.811456">
        <time>2022-07-13T09:48:56Z</time>
      </trkpt>
      <trkpt lat="42.872475" lon="-7.811526">
        <time>2022-07-13T09:49:01Z</time>
      </trkpt>
      <trkpt lat="42.87244" lon="-7.8116045">
        <time>2022-07-13T09:49:06Z</time>
      </trkpt>
      <trkpt lat="42.872417" lon="-7.811668">
        <time>2022-07-13T09:49:10Z</time>
      </trkpt>
      <trkpt lat="42.872395" lon="-7.8117394">
        <time>2022-07-13T09:49:15Z</time>
      </trkpt>
      <trkpt lat="42.87237" lon="-7.8118033">
        <time>2022-07-13T09:49:19Z</time>
      </trkpt>
      <trkpt lat="42.872353" lon="-7.8118777">
        <time>2022-07-13T09:49:24Z</time>
      </trkpt>
      <trkpt lat="42.872337" lon="-7.8119526">
        <time>2022-07-13T09:49:28Z</time>
      </trkpt>
      <trkpt lat="42.872322" lon="-7.812022">
        <time>2022-07-13T09:49:32Z</time>
      </trkpt>
      <trkpt lat="42.872314" lon="-7.8120923">
        <time>2022-07-13T09:49:36Z</time>
      </trkpt>
      <trkpt lat="42.872303" lon="-7.8121767">
        <time>2022-07-13T09:49:41Z</time>
      </trkpt>
      <trkpt lat="42.87229" lon="-7.8122597">
        <time>2022-07-13T09:49:46Z</time>
      </trkpt>
      <trkpt lat="42.872288" lon="-7.812326">
        <time>2022-07-13T09:49:50Z</time>
      </trkpt>
      <trkpt lat="42.87228" lon="-7.8124094">
        <time>2022-07-13T09:49:55Z</time>
      </trkpt>
      <trkpt lat="42.87228" lon="-7.8124905">
        <time>2022-07-13T09:50:00Z</time>
      </trkpt>
      <trkpt lat="42.87227" lon="-7.812555">
        <time>2022-07-13T09:50:04Z</time>
      </trkpt>
      <trkpt lat="42.87226" lon="-7.812671">
        <time>2022-07-13T09:50:09Z</time>
      </trkpt>
      <trkpt lat="42.87226" lon="-7.8126917">
        <time>2022-07-13T09:50:12Z</time>
      </trkpt>
      <trkpt lat="42.872253" lon="-7.812784">
        <time>2022-07-13T09:50:18Z</time>
      </trkpt>
      <trkpt lat="42.872242" lon="-7.8128715">
        <time>2022-07-13T09:50:23Z</time>
      </trkpt>
      <trkpt lat="42.87224" lon="-7.8129544">
        <time>2022-07-13T09:50:28Z</time>
      </trkpt>
      <trkpt lat="42.87223" lon="-7.813032">
        <time>2022-07-13T09:50:33Z</time>
      </trkpt>
      <trkpt lat="42.872227" lon="-7.813109">
        <time>2022-07-13T09:50:38Z</time>
      </trkpt>
      <trkpt lat="42.872223" lon="-7.813185">
        <time>2022-07-13T09:50:43Z</time>
      </trkpt>
      <trkpt lat="42.87222" lon="-7.813261">
        <time>2022-07-13T09:50:48Z</time>
      </trkpt>
      <trkpt lat="42.872215" lon="-7.813338">
        <time>2022-07-13T09:50:53Z</time>
      </trkpt>
      <trkpt lat="42.872204" lon="-7.8134155">
        <time>2022-07-13T09:50:58Z</time>
      </trkpt>
      <trkpt lat="42.872192" lon="-7.813486">
        <time>2022-07-13T09:51:02Z</time>
      </trkpt>
      <trkpt lat="42.872177" lon="-7.813571">
        <time>2022-07-13T09:51:07Z</time>
      </trkpt>
      <trkpt lat="42.872166" lon="-7.813642">
        <time>2022-07-13T09:51:11Z</time>
      </trkpt>
      <trkpt lat="42.872158" lon="-7.813727">
        <time>2022-07-13T09:51:16Z</time>
      </trkpt>
      <trkpt lat="42.872154" lon="-7.813798">
        <time>2022-07-13T09:51:20Z</time>
      </trkpt>
      <trkpt lat="42.872154" lon="-7.8138795">
        <time>2022-07-13T09:51:25Z</time>
      </trkpt>
      <trkpt lat="42.87215" lon="-7.813948">
        <time>2022-07-13T09:51:29Z</time>
      </trkpt>
      <trkpt lat="42.87215" lon="-7.814018">
        <time>2022-07-13T09:51:33Z</time>
      </trkpt>
      <trkpt lat="42.872158" lon="-7.814101">
        <time>2022-07-13T09:51:38Z</time>
      </trkpt>
      <trkpt lat="42.872177" lon="-7.8141766">
        <time>2022-07-13T09:51:43Z</time>
      </trkpt>
      <trkpt lat="42.8722" lon="-7.8142323">
        <time>2022-07-13T09:51:47Z</time>
      </trkpt>
      <trkpt lat="42.872242" lon="-7.8142924">
        <time>2022-07-13T09:51:52Z</time>
      </trkpt>
      <trkpt lat="42.872288" lon="-7.814333">
        <time>2022-07-13T09:51:56Z</time>
      </trkpt>
      <trkpt lat="42.872326" lon="-7.8143706">
        <time>2022-07-13T09:52:00Z</time>
      </trkpt>
      <trkpt lat="42.872375" lon="-7.8144164">
        <time>2022-07-13T09:52:05Z</time>
      </trkpt>
      <trkpt lat="42.872425" lon="-7.814449">
        <time>2022-07-13T09:52:10Z</time>
      </trkpt>
      <trkpt lat="42.87247" lon="-7.8144956">
        <time>2022-07-13T09:52:15Z</time>
      </trkpt>
      <trkpt lat="42.872524" lon="-7.8145404">
        <time>2022-07-13T09:52:20Z</time>
      </trkpt>
      <trkpt lat="42.87257" lon="-7.814583">
        <time>2022-07-13T09:52:25Z</time>
      </trkpt>
      <trkpt lat="42.8726" lon="-7.8146334">
        <time>2022-07-13T09:52:30Z</time>
      </trkpt>
      <trkpt lat="42.87261" lon="-7.8147125">
        <time>2022-07-13T09:52:37Z</time>
      </trkpt>
      <trkpt lat="42.87261" lon="-7.8147836">
        <time>2022-07-13T09:52:43Z</time>
      </trkpt>
      <trkpt lat="42.872612" lon="-7.8148527">
        <time>2022-07-13T09:52:49Z</time>
      </trkpt>
      <trkpt lat="42.87262" lon="-7.8149285">
        <time>2022-07-13T09:52:54Z</time>
      </trkpt>
      <trkpt lat="42.87263" lon="-7.8150034">
        <time>2022-07-13T09:53:00Z</time>
      </trkpt>
      <trkpt lat="42.872654" lon="-7.8150744">
        <time>2022-07-13T09:53:05Z</time>
      </trkpt>
      <trkpt lat="42.87268" lon="-7.815134">
        <time>2022-07-13T09:53:10Z</time>
      </trkpt>
      <trkpt lat="42.872723" lon="-7.815197">
        <time>2022-07-13T09:53:16Z</time>
      </trkpt>
      <trkpt lat="42.872765" lon="-7.815243">
        <time>2022-07-13T09:53:22Z</time>
      </trkpt>
      <trkpt lat="42.872807" lon="-7.815284">
        <time>2022-07-13T09:53:27Z</time>
      </trkpt>
      <trkpt lat="42.87285" lon="-7.8153234">
        <time>2022-07-13T09:53:33Z</time>
      </trkpt>
      <trkpt lat="42.872887" lon="-7.815366">
        <time>2022-07-13T09:53:38Z</time>
      </trkpt>
      <trkpt lat="42.872925" lon="-7.815417">
        <time>2022-07-13T09:53:44Z</time>
      </trkpt>
      <trkpt lat="42.872974" lon="-7.815469">
        <time>2022-07-13T09:53:50Z</time>
      </trkpt>
      <trkpt lat="42.87302" lon="-7.8155065">
        <time>2022-07-13T09:53:55Z</time>
      </trkpt>
      <trkpt lat="42.873062" lon="-7.815546">
        <time>2022-07-13T09:54:00Z</time>
      </trkpt>
      <trkpt lat="42.873093" lon="-7.8155966">
        <time>2022-07-13T09:54:07Z</time>
      </trkpt>
      <trkpt lat="42.87314" lon="-7.8156414">
        <time>2022-07-13T09:54:15Z</time>
      </trkpt>
      <trkpt lat="42.873173" lon="-7.815698">
        <time>2022-07-13T09:54:20Z</time>
      </trkpt>
      <trkpt lat="42.8732" lon="-7.815762">
        <time>2022-07-13T09:54:25Z</time>
      </trkpt>
      <trkpt lat="42.873215" lon="-7.8158317">
        <time>2022-07-13T09:54:30Z</time>
      </trkpt>
      <trkpt lat="42.873226" lon="-7.815903">
        <time>2022-07-13T09:54:35Z</time>
      </trkpt>
      <trkpt lat="42.873238" lon="-7.8159738">
        <time>2022-07-13T09:54:40Z</time>
      </trkpt>
      <trkpt lat="42.873253" lon="-7.8160434">
        <time>2022-07-13T09:54:45Z</time>
      </trkpt>
      <trkpt lat="42.87327" lon="-7.816118">
        <time>2022-07-13T09:54:50Z</time>
      </trkpt>
      <trkpt lat="42.873283" lon="-7.816192">
        <time>2022-07-13T09:54:55Z</time>
      </trkpt>
      <trkpt lat="42.8733" lon="-7.8162727">
        <time>2022-07-13T09:55:01Z</time>
      </trkpt>
      <trkpt lat="42.87332" lon="-7.816344">
        <time>2022-07-13T09:55:06Z</time>
      </trkpt>
      <trkpt lat="42.87333" lon="-7.8164177">
        <time>2022-07-13T09:55:11Z</time>
      </trkpt>
      <trkpt lat="42.873325" lon="-7.816496">
        <time>2022-07-13T09:55:16Z</time>
      </trkpt>
      <trkpt lat="42.87333" lon="-7.8165574">
        <time>2022-07-13T09:55:20Z</time>
      </trkpt>
      <trkpt lat="42.873333" lon="-7.8166366">
        <time>2022-07-13T09:55:25Z</time>
      </trkpt>
      <trkpt lat="42.873333" lon="-7.816713">
        <time>2022-07-13T09:55:30Z</time>
      </trkpt>
      <trkpt lat="42.873333" lon="-7.8167887">
        <time>2022-07-13T09:55:35Z</time>
      </trkpt>
      <trkpt lat="42.87333" lon="-7.8168497">
        <time>2022-07-13T09:55:39Z</time>
      </trkpt>
      <trkpt lat="42.873287" lon="-7.81689">
        <time>2022-07-13T09:55:46Z</time>
      </trkpt>
      <trkpt lat="42.873234" lon="-7.8168907">
        <time>2022-07-13T09:55:51Z</time>
      </trkpt>
      <trkpt lat="42.8732" lon="-7.8168497">
        <time>2022-07-13T09:56:06Z</time>
      </trkpt>
      <trkpt lat="42.873188" lon="-7.8167744">
        <time>2022-07-13T09:56:14Z</time>
      </trkpt>
      <trkpt lat="42.873184" lon="-7.816703">
        <time>2022-07-13T09:56:21Z</time>
      </trkpt>
      <trkpt lat="42.87322" lon="-7.816874">
        <time>2022-07-13T09:58:36Z</time>
      </trkpt>
      <trkpt lat="42.873257" lon="-7.8169384">
        <time>2022-07-13T09:58:42Z</time>
      </trkpt>
      <trkpt lat="42.87329" lon="-7.817006">
        <time>2022-07-13T09:58:49Z</time>
      </trkpt>
      <trkpt lat="42.873333" lon="-7.8170624">
        <time>2022-07-13T09:58:53Z</time>
      </trkpt>
      <trkpt lat="42.873386" lon="-7.817095">
        <time>2022-07-13T09:58:58Z</time>
      </trkpt>
      <trkpt lat="42.873386" lon="-7.81716">
        <time>2022-07-13T09:59:05Z</time>
      </trkpt>
      <trkpt lat="42.873398" lon="-7.8172326">
        <time>2022-07-13T09:59:10Z</time>
      </trkpt>
      <trkpt lat="42.87343" lon="-7.8172994">
        <time>2022-07-13T09:59:15Z</time>
      </trkpt>
      <trkpt lat="42.873463" lon="-7.817349">
        <time>2022-07-13T09:59:20Z</time>
      </trkpt>
      <trkpt lat="42.873505" lon="-7.817389">
        <time>2022-07-13T09:59:25Z</time>
      </trkpt>
      <trkpt lat="42.873554" lon="-7.8174295">
        <time>2022-07-13T09:59:31Z</time>
      </trkpt>
      <trkpt lat="42.873596" lon="-7.8174744">
        <time>2022-07-13T09:59:36Z</time>
      </trkpt>
      <trkpt lat="42.87365" lon="-7.8175087">
        <time>2022-07-13T09:59:42Z</time>
      </trkpt>
      <trkpt lat="42.873688" lon="-7.8175435">
        <time>2022-07-13T09:59:47Z</time>
      </trkpt>
      <trkpt lat="42.87373" lon="-7.817579">
        <time>2022-07-13T09:59:52Z</time>
      </trkpt>
      <trkpt lat="42.873783" lon="-7.8176203">
        <time>2022-07-13T09:59:59Z</time>
      </trkpt>
      <trkpt lat="42.87383" lon="-7.8176565">
        <time>2022-07-13T10:00:03Z</time>
      </trkpt>
      <trkpt lat="42.873875" lon="-7.8176837">
        <time>2022-07-13T10:00:08Z</time>
      </trkpt>
      <trkpt lat="42.873924" lon="-7.8177176">
        <time>2022-07-13T10:00:13Z</time>
      </trkpt>
      <trkpt lat="42.873974" lon="-7.817744">
        <time>2022-07-13T10:00:19Z</time>
      </trkpt>
      <trkpt lat="42.87402" lon="-7.817778">
        <time>2022-07-13T10:00:25Z</time>
      </trkpt>
      <trkpt lat="42.87406" lon="-7.817825">
        <time>2022-07-13T10:00:31Z</time>
      </trkpt>
      <trkpt lat="42.874096" lon="-7.8178797">
        <time>2022-07-13T10:00:37Z</time>
      </trkpt>
      <trkpt lat="42.874126" lon="-7.8179426">
        <time>2022-07-13T10:00:43Z</time>
      </trkpt>
      <trkpt lat="42.874146" lon="-7.818012">
        <time>2022-07-13T10:00:49Z</time>
      </trkpt>
      <trkpt lat="42.87415" lon="-7.8180866">
        <time>2022-07-13T10:00:55Z</time>
      </trkpt>
      <trkpt lat="42.87414" lon="-7.8181567">
        <time>2022-07-13T10:01:01Z</time>
      </trkpt>
      <trkpt lat="42.874126" lon="-7.8182225">
        <time>2022-07-13T10:01:07Z</time>
      </trkpt>
      <trkpt lat="42.874104" lon="-7.818295">
        <time>2022-07-13T10:01:14Z</time>
      </trkpt>
      <trkpt lat="42.874073" lon="-7.8183656">
        <time>2022-07-13T10:01:21Z</time>
      </trkpt>
      <trkpt lat="42.87405" lon="-7.8184314">
        <time>2022-07-13T10:01:28Z</time>
      </trkpt>
      <trkpt lat="42.874035" lon="-7.818503">
        <time>2022-07-13T10:01:35Z</time>
      </trkpt>
      <trkpt lat="42.874023" lon="-7.818569">
        <time>2022-07-13T10:01:41Z</time>
      </trkpt>
      <trkpt lat="42.87401" lon="-7.818637">
        <time>2022-07-13T10:01:47Z</time>
      </trkpt>
      <trkpt lat="42.87397" lon="-7.818707">
        <time>2022-07-13T10:01:54Z</time>
      </trkpt>
      <trkpt lat="42.87395" lon="-7.818786">
        <time>2022-07-13T10:01:59Z</time>
      </trkpt>
      <trkpt lat="42.87393" lon="-7.818855">
        <time>2022-07-13T10:02:03Z</time>
      </trkpt>
      <trkpt lat="42.87392" lon="-7.818919">
        <time>2022-07-13T10:02:08Z</time>
      </trkpt>
      <trkpt lat="42.873894" lon="-7.8189945">
        <time>2022-07-13T10:02:13Z</time>
      </trkpt>
      <trkpt lat="42.873875" lon="-7.8190637">
        <time>2022-07-13T10:02:18Z</time>
      </trkpt>
      <trkpt lat="42.873863" lon="-7.819134">
        <time>2022-07-13T10:02:24Z</time>
      </trkpt>
      <trkpt lat="42.87384" lon="-7.81921">
        <time>2022-07-13T10:02:30Z</time>
      </trkpt>
      <trkpt lat="42.87383" lon="-7.819286">
        <time>2022-07-13T10:02:35Z</time>
      </trkpt>
      <trkpt lat="42.873817" lon="-7.819363">
        <time>2022-07-13T10:02:40Z</time>
      </trkpt>
      <trkpt lat="42.87381" lon="-7.819439">
        <time>2022-07-13T10:02:45Z</time>
      </trkpt>
      <trkpt lat="42.873795" lon="-7.819514">
        <time>2022-07-13T10:02:50Z</time>
      </trkpt>
      <trkpt lat="42.873783" lon="-7.8195868">
        <time>2022-07-13T10:02:55Z</time>
      </trkpt>
      <trkpt lat="42.87377" lon="-7.8196626">
        <time>2022-07-13T10:03:02Z</time>
      </trkpt>
      <trkpt lat="42.873764" lon="-7.8197346">
        <time>2022-07-13T10:03:06Z</time>
      </trkpt>
      <trkpt lat="42.873745" lon="-7.8198104">
        <time>2022-07-13T10:03:11Z</time>
      </trkpt>
      <trkpt lat="42.873722" lon="-7.8198833">
        <time>2022-07-13T10:03:16Z</time>
      </trkpt>
      <trkpt lat="42.87371" lon="-7.8199525">
        <time>2022-07-13T10:03:20Z</time>
      </trkpt>
      <trkpt lat="42.873714" lon="-7.820035">
        <time>2022-07-13T10:03:26Z</time>
      </trkpt>
      <trkpt lat="42.87368" lon="-7.8201165">
        <time>2022-07-13T10:03:31Z</time>
      </trkpt>
      <trkpt lat="42.873657" lon="-7.8201733">
        <time>2022-07-13T10:03:35Z</time>
      </trkpt>
      <trkpt lat="42.873634" lon="-7.8202534">
        <time>2022-07-13T10:03:40Z</time>
      </trkpt>
      <trkpt lat="42.87361" lon="-7.820323">
        <time>2022-07-13T10:03:45Z</time>
      </trkpt>
      <trkpt lat="42.87358" lon="-7.820398">
        <time>2022-07-13T10:03:50Z</time>
      </trkpt>
      <trkpt lat="42.873554" lon="-7.8204703">
        <time>2022-07-13T10:03:55Z</time>
      </trkpt>
      <trkpt lat="42.87353" lon="-7.8205295">
        <time>2022-07-13T10:03:59Z</time>
      </trkpt>
      <trkpt lat="42.873505" lon="-7.8206043">
        <time>2022-07-13T10:04:04Z</time>
      </trkpt>
      <trkpt lat="42.87349" lon="-7.820681">
        <time>2022-07-13T10:04:10Z</time>
      </trkpt>
      <trkpt lat="42.873463" lon="-7.8207436">
        <time>2022-07-13T10:04:15Z</time>
      </trkpt>
      <trkpt lat="42.873432" lon="-7.8208">
        <time>2022-07-13T10:04:19Z</time>
      </trkpt>
      <trkpt lat="42.873394" lon="-7.82087">
        <time>2022-07-13T10:04:24Z</time>
      </trkpt>
      <trkpt lat="42.873367" lon="-7.82094">
        <time>2022-07-13T10:04:28Z</time>
      </trkpt>
      <trkpt lat="42.873337" lon="-7.8209934">
        <time>2022-07-13T10:04:32Z</time>
      </trkpt>
      <trkpt lat="42.873314" lon="-7.821056">
        <time>2022-07-13T10:04:36Z</time>
      </trkpt>
      <trkpt lat="42.873287" lon="-7.82112">
        <time>2022-07-13T10:04:41Z</time>
      </trkpt>
      <trkpt lat="42.873253" lon="-7.821188">
        <time>2022-07-13T10:04:46Z</time>
      </trkpt>
      <trkpt lat="42.87323" lon="-7.821246">
        <time>2022-07-13T10:04:50Z</time>
      </trkpt>
      <trkpt lat="42.873207" lon="-7.8213067">
        <time>2022-07-13T10:04:55Z</time>
      </trkpt>
      <trkpt lat="42.87318" lon="-7.8213754">
        <time>2022-07-13T10:05:00Z</time>
      </trkpt>
      <trkpt lat="42.873158" lon="-7.821442">
        <time>2022-07-13T10:05:05Z</time>
      </trkpt>
      <trkpt lat="42.87313" lon="-7.821519">
        <time>2022-07-13T10:05:10Z</time>
      </trkpt>
      <trkpt lat="42.873116" lon="-7.8216023">
        <time>2022-07-13T10:05:15Z</time>
      </trkpt>
      <trkpt lat="42.87311" lon="-7.8216977">
        <time>2022-07-13T10:05:20Z</time>
      </trkpt>
      <trkpt lat="42.873108" lon="-7.8217807">
        <time>2022-07-13T10:05:24Z</time>
      </trkpt>
      <trkpt lat="42.873108" lon="-7.8218465">
        <time>2022-07-13T10:05:28Z</time>
      </trkpt>
      <trkpt lat="42.873093" lon="-7.821922">
        <time>2022-07-13T10:05:32Z</time>
      </trkpt>
      <trkpt lat="42.873104" lon="-7.8219957">
        <time>2022-07-13T10:05:36Z</time>
      </trkpt>
      <trkpt lat="42.8731" lon="-7.8220763">
        <time>2022-07-13T10:05:41Z</time>
      </trkpt>
      <trkpt lat="42.87311" lon="-7.8221483">
        <time>2022-07-13T10:05:46Z</time>
      </trkpt>
      <trkpt lat="42.87312" lon="-7.8222213">
        <time>2022-07-13T10:05:51Z</time>
      </trkpt>
      <trkpt lat="42.873116" lon="-7.8222957">
        <time>2022-07-13T10:05:58Z</time>
      </trkpt>
      <trkpt lat="42.873104" lon="-7.8223605">
        <time>2022-07-13T10:06:03Z</time>
      </trkpt>
      <trkpt lat="42.873074" lon="-7.8224373">
        <time>2022-07-13T10:06:09Z</time>
      </trkpt>
      <trkpt lat="42.87304" lon="-7.822501">
        <time>2022-07-13T10:06:14Z</time>
      </trkpt>
      <trkpt lat="42.873013" lon="-7.822557">
        <time>2022-07-13T10:06:18Z</time>
      </trkpt>
      <trkpt lat="42.872986" lon="-7.8226285">
        <time>2022-07-13T10:06:23Z</time>
      </trkpt>
      <trkpt lat="42.87297" lon="-7.822697">
        <time>2022-07-13T10:06:27Z</time>
      </trkpt>
      <trkpt lat="42.872963" lon="-7.8227725">
        <time>2022-07-13T10:06:32Z</time>
      </trkpt>
      <trkpt lat="42.872963" lon="-7.822838">
        <time>2022-07-13T10:06:36Z</time>
      </trkpt>
      <trkpt lat="42.872974" lon="-7.822916">
        <time>2022-07-13T10:06:41Z</time>
      </trkpt>
      <trkpt lat="42.872982" lon="-7.8229814">
        <time>2022-07-13T10:06:45Z</time>
      </trkpt>
      <trkpt lat="42.872986" lon="-7.8230686">
        <time>2022-07-13T10:06:50Z</time>
      </trkpt>
      <trkpt lat="42.87298" lon="-7.823139">
        <time>2022-07-13T10:06:54Z</time>
      </trkpt>
      <trkpt lat="42.872986" lon="-7.823197">
        <time>2022-07-13T10:06:59Z</time>
      </trkpt>
      <trkpt lat="42.87299" lon="-7.823298">
        <time>2022-07-13T10:07:06Z</time>
      </trkpt>
      <trkpt lat="42.872997" lon="-7.8233657">
        <time>2022-07-13T10:07:11Z</time>
      </trkpt>
      <trkpt lat="42.872993" lon="-7.823449">
        <time>2022-07-13T10:07:38Z</time>
      </trkpt>
      <trkpt lat="42.872993" lon="-7.823551">
        <time>2022-07-13T10:07:43Z</time>
      </trkpt>
      <trkpt lat="42.872997" lon="-7.8236313">
        <time>2022-07-13T10:07:47Z</time>
      </trkpt>
      <trkpt lat="42.873" lon="-7.823698">
        <time>2022-07-13T10:07:51Z</time>
      </trkpt>
      <trkpt lat="42.872997" lon="-7.823766">
        <time>2022-07-13T10:07:56Z</time>
      </trkpt>
      <trkpt lat="42.872982" lon="-7.823857">
        <time>2022-07-13T10:08:02Z</time>
      </trkpt>
      <trkpt lat="42.872955" lon="-7.82392">
        <time>2022-07-13T10:08:06Z</time>
      </trkpt>
      <trkpt lat="42.87294" lon="-7.823987">
        <time>2022-07-13T10:08:11Z</time>
      </trkpt>
      <trkpt lat="42.872936" lon="-7.824058">
        <time>2022-07-13T10:08:16Z</time>
      </trkpt>
      <trkpt lat="42.872936" lon="-7.8241343">
        <time>2022-07-13T10:08:23Z</time>
      </trkpt>
      <trkpt lat="42.872932" lon="-7.824231">
        <time>2022-07-13T10:08:43Z</time>
      </trkpt>
      <trkpt lat="42.872913" lon="-7.8243337">
        <time>2022-07-13T10:08:49Z</time>
      </trkpt>
      <trkpt lat="42.87291" lon="-7.8244023">
        <time>2022-07-13T10:08:53Z</time>
      </trkpt>
      <trkpt lat="42.872906" lon="-7.82448">
        <time>2022-07-13T10:08:58Z</time>
      </trkpt>
      <trkpt lat="42.872902" lon="-7.824561">
        <time>2022-07-13T10:09:03Z</time>
      </trkpt>
      <trkpt lat="42.872902" lon="-7.824632">
        <time>2022-07-13T10:09:08Z</time>
      </trkpt>
      <trkpt lat="42.872913" lon="-7.824721">
        <time>2022-07-13T10:09:13Z</time>
      </trkpt>
      <trkpt lat="42.87292" lon="-7.8248005">
        <time>2022-07-13T10:09:17Z</time>
      </trkpt>
      <trkpt lat="42.87293" lon="-7.8248763">
        <time>2022-07-13T10:09:21Z</time>
      </trkpt>
      <trkpt lat="42.872932" lon="-7.824953">
        <time>2022-07-13T10:09:26Z</time>
      </trkpt>
      <trkpt lat="42.872944" lon="-7.825035">
        <time>2022-07-13T10:09:31Z</time>
      </trkpt>
      <trkpt lat="42.872955" lon="-7.8251143">
        <time>2022-07-13T10:09:35Z</time>
      </trkpt>
      <trkpt lat="42.872967" lon="-7.825187">
        <time>2022-07-13T10:09:39Z</time>
      </trkpt>
      <trkpt lat="42.872974" lon="-7.825256">
        <time>2022-07-13T10:09:43Z</time>
      </trkpt>
      <trkpt lat="42.872993" lon="-7.825342">
        <time>2022-07-13T10:09:48Z</time>
      </trkpt>
      <trkpt lat="42.873016" lon="-7.8254204">
        <time>2022-07-13T10:09:52Z</time>
      </trkpt>
      <trkpt lat="42.873047" lon="-7.825496">
        <time>2022-07-13T10:09:56Z</time>
      </trkpt>
      <trkpt lat="42.873066" lon="-7.825556">
        <time>2022-07-13T10:10:00Z</time>
      </trkpt>
      <trkpt lat="42.87308" lon="-7.82563">
        <time>2022-07-13T10:10:06Z</time>
      </trkpt>
      <trkpt lat="42.873096" lon="-7.825715">
        <time>2022-07-13T10:10:11Z</time>
      </trkpt>
      <trkpt lat="42.873123" lon="-7.8257713">
        <time>2022-07-13T10:10:15Z</time>
      </trkpt>
      <trkpt lat="42.873154" lon="-7.8258305">
        <time>2022-07-13T10:10:20Z</time>
      </trkpt>
      <trkpt lat="42.873177" lon="-7.825898">
        <time>2022-07-13T10:10:25Z</time>
      </trkpt>
      <trkpt lat="42.873203" lon="-7.8259726">
        <time>2022-07-13T10:10:29Z</time>
      </trkpt>
      <trkpt lat="42.87323" lon="-7.8260427">
        <time>2022-07-13T10:10:33Z</time>
      </trkpt>
      <trkpt lat="42.873257" lon="-7.8261223">
        <time>2022-07-13T10:10:38Z</time>
      </trkpt>
      <trkpt lat="42.873276" lon="-7.826184">
        <time>2022-07-13T10:10:42Z</time>
      </trkpt>
      <trkpt lat="42.873314" lon="-7.826263">
        <time>2022-07-13T10:10:47Z</time>
      </trkpt>
      <trkpt lat="42.87334" lon="-7.826323">
        <time>2022-07-13T10:10:51Z</time>
      </trkpt>
      <trkpt lat="42.873367" lon="-7.8263707">
        <time>2022-07-13T10:10:57Z</time>
      </trkpt>
      <trkpt lat="42.87341" lon="-7.826444">
        <time>2022-07-13T10:11:03Z</time>
      </trkpt>
      <trkpt lat="42.87345" lon="-7.8264985">
        <time>2022-07-13T10:11:07Z</time>
      </trkpt>
      <trkpt lat="42.873486" lon="-7.8265576">
        <time>2022-07-13T10:11:11Z</time>
      </trkpt>
      <trkpt lat="42.87352" lon="-7.8266187">
        <time>2022-07-13T10:11:15Z</time>
      </trkpt>
      <trkpt lat="42.87355" lon="-7.826679">
        <time>2022-07-13T10:11:19Z</time>
      </trkpt>
      <trkpt lat="42.873573" lon="-7.826745">
        <time>2022-07-13T10:11:23Z</time>
      </trkpt>
      <trkpt lat="42.873604" lon="-7.826815">
        <time>2022-07-13T10:11:27Z</time>
      </trkpt>
      <trkpt lat="42.873642" lon="-7.8268743">
        <time>2022-07-13T10:11:31Z</time>
      </trkpt>
      <trkpt lat="42.873688" lon="-7.826915">
        <time>2022-07-13T10:11:36Z</time>
      </trkpt>
      <trkpt lat="42.87373" lon="-7.8269506">
        <time>2022-07-13T10:11:40Z</time>
      </trkpt>
      <trkpt lat="42.873775" lon="-7.827016">
        <time>2022-07-13T10:11:45Z</time>
      </trkpt>
      <trkpt lat="42.87381" lon="-7.827078">
        <time>2022-07-13T10:11:49Z</time>
      </trkpt>
      <trkpt lat="42.87384" lon="-7.827143">
        <time>2022-07-13T10:11:53Z</time>
      </trkpt>
      <trkpt lat="42.87388" lon="-7.8272047">
        <time>2022-07-13T10:11:57Z</time>
      </trkpt>
      <trkpt lat="42.873913" lon="-7.8272595">
        <time>2022-07-13T10:12:01Z</time>
      </trkpt>
      <trkpt lat="42.873947" lon="-7.8273153">
        <time>2022-07-13T10:12:05Z</time>
      </trkpt>
      <trkpt lat="42.873985" lon="-7.827377">
        <time>2022-07-13T10:12:09Z</time>
      </trkpt>
      <trkpt lat="42.874016" lon="-7.8274393">
        <time>2022-07-13T10:12:13Z</time>
      </trkpt>
      <trkpt lat="42.874046" lon="-7.827507">
        <time>2022-07-13T10:12:17Z</time>
      </trkpt>
      <trkpt lat="42.874073" lon="-7.827574">
        <time>2022-07-13T10:12:21Z</time>
      </trkpt>
      <trkpt lat="42.874104" lon="-7.8276362">
        <time>2022-07-13T10:12:25Z</time>
      </trkpt>
      <trkpt lat="42.874134" lon="-7.8276978">
        <time>2022-07-13T10:12:29Z</time>
      </trkpt>
      <trkpt lat="42.874165" lon="-7.8277707">
        <time>2022-07-13T10:12:34Z</time>
      </trkpt>
      <trkpt lat="42.87419" lon="-7.8278437">
        <time>2022-07-13T10:12:39Z</time>
      </trkpt>
      <trkpt lat="42.874203" lon="-7.827907">
        <time>2022-07-13T10:12:45Z</time>
      </trkpt>
      <trkpt lat="42.874245" lon="-7.8279643">
        <time>2022-07-13T10:12:55Z</time>
      </trkpt>
      <trkpt lat="42.874275" lon="-7.8280563">
        <time>2022-07-13T10:13:04Z</time>
      </trkpt>
      <trkpt lat="42.874306" lon="-7.828129">
        <time>2022-07-13T10:13:09Z</time>
      </trkpt>
      <trkpt lat="42.874336" lon="-7.8282065">
        <time>2022-07-13T10:13:14Z</time>
      </trkpt>
      <trkpt lat="42.87437" lon="-7.8282804">
        <time>2022-07-13T10:13:19Z</time>
      </trkpt>
      <trkpt lat="42.8744" lon="-7.828339">
        <time>2022-07-13T10:13:23Z</time>
      </trkpt>
      <trkpt lat="42.87443" lon="-7.8283987">
        <time>2022-07-13T10:13:27Z</time>
      </trkpt>
      <trkpt lat="42.874462" lon="-7.8284736">
        <time>2022-07-13T10:13:32Z</time>
      </trkpt>
      <trkpt lat="42.874493" lon="-7.828551">
        <time>2022-07-13T10:13:37Z</time>
      </trkpt>
      <trkpt lat="42.874516" lon="-7.8286133">
        <time>2022-07-13T10:13:41Z</time>
      </trkpt>
      <trkpt lat="42.874542" lon="-7.8286757">
        <time>2022-07-13T10:13:45Z</time>
      </trkpt>
      <trkpt lat="42.874577" lon="-7.8287497">
        <time>2022-07-13T10:13:50Z</time>
      </trkpt>
      <trkpt lat="42.87462" lon="-7.8288345">
        <time>2022-07-13T10:13:56Z</time>
      </trkpt>
      <trkpt lat="42.874645" lon="-7.8288965">
        <time>2022-07-13T10:14:00Z</time>
      </trkpt>
      <trkpt lat="42.87467" lon="-7.8289547">
        <time>2022-07-13T10:14:04Z</time>
      </trkpt>
      <trkpt lat="42.8747" lon="-7.829021">
        <time>2022-07-13T10:14:09Z</time>
      </trkpt>
      <trkpt lat="42.874744" lon="-7.82908">
        <time>2022-07-13T10:14:14Z</time>
      </trkpt>
      <trkpt lat="42.874783" lon="-7.829127">
        <time>2022-07-13T10:14:18Z</time>
      </trkpt>
      <trkpt lat="42.87483" lon="-7.8291783">
        <time>2022-07-13T10:14:23Z</time>
      </trkpt>
      <trkpt lat="42.874866" lon="-7.8292303">
        <time>2022-07-13T10:14:27Z</time>
      </trkpt>
      <trkpt lat="42.874916" lon="-7.8292603">
        <time>2022-07-13T10:14:31Z</time>
      </trkpt>
      <trkpt lat="42.87496" lon="-7.829293">
        <time>2022-07-13T10:14:35Z</time>
      </trkpt>
      <trkpt lat="42.875008" lon="-7.8293414">
        <time>2022-07-13T10:14:39Z</time>
      </trkpt>
      <trkpt lat="42.875057" lon="-7.82938">
        <time>2022-07-13T10:14:43Z</time>
      </trkpt>
      <trkpt lat="42.875095" lon="-7.829427">
        <time>2022-07-13T10:14:47Z</time>
      </trkpt>
      <trkpt lat="42.87513" lon="-7.829493">
        <time>2022-07-13T10:14:52Z</time>
      </trkpt>
      <trkpt lat="42.875156" lon="-7.829564">
        <time>2022-07-13T10:14:57Z</time>
      </trkpt>
      <trkpt lat="42.875187" lon="-7.8296356">
        <time>2022-07-13T10:15:02Z</time>
      </trkpt>
      <trkpt lat="42.87521" lon="-7.82971">
        <time>2022-07-13T10:15:07Z</time>
      </trkpt>
      <trkpt lat="42.875233" lon="-7.8297925">
        <time>2022-07-13T10:15:12Z</time>
      </trkpt>
      <trkpt lat="42.87526" lon="-7.8298616">
        <time>2022-07-13T10:15:17Z</time>
      </trkpt>
      <trkpt lat="42.875282" lon="-7.8299336">
        <time>2022-07-13T10:15:22Z</time>
      </trkpt>
      <trkpt lat="42.875298" lon="-7.830003">
        <time>2022-07-13T10:15:26Z</time>
      </trkpt>
      <trkpt lat="42.875324" lon="-7.8300676">
        <time>2022-07-13T10:15:30Z</time>
      </trkpt>
      <trkpt lat="42.87535" lon="-7.830132">
        <time>2022-07-13T10:15:34Z</time>
      </trkpt>
      <trkpt lat="42.875378" lon="-7.8302135">
        <time>2022-07-13T10:15:39Z</time>
      </trkpt>
      <trkpt lat="42.875393" lon="-7.8302836">
        <time>2022-07-13T10:15:44Z</time>
      </trkpt>
      <trkpt lat="42.87541" lon="-7.8303595">
        <time>2022-07-13T10:15:50Z</time>
      </trkpt>
      <trkpt lat="42.875423" lon="-7.8304296">
        <time>2022-07-13T10:15:55Z</time>
      </trkpt>
      <trkpt lat="42.87544" lon="-7.830501">
        <time>2022-07-13T10:16:00Z</time>
      </trkpt>
      <trkpt lat="42.87546" lon="-7.830567">
        <time>2022-07-13T10:16:05Z</time>
      </trkpt>
      <trkpt lat="42.875492" lon="-7.83064">
        <time>2022-07-13T10:16:10Z</time>
      </trkpt>
      <trkpt lat="42.875515" lon="-7.830709">
        <time>2022-07-13T10:16:14Z</time>
      </trkpt>
      <trkpt lat="42.87553" lon="-7.8307776">
        <time>2022-07-13T10:16:17Z</time>
      </trkpt>
      <trkpt lat="42.87554" lon="-7.830856">
        <time>2022-07-13T10:16:21Z</time>
      </trkpt>
      <trkpt lat="42.87556" lon="-7.830929">
        <time>2022-07-13T10:16:25Z</time>
      </trkpt>
      <trkpt lat="42.875576" lon="-7.8310018">
        <time>2022-07-13T10:16:29Z</time>
      </trkpt>
      <trkpt lat="42.875584" lon="-7.831102">
        <time>2022-07-13T10:16:34Z</time>
      </trkpt>
      <trkpt lat="42.87559" lon="-7.8311615">
        <time>2022-07-13T10:16:37Z</time>
      </trkpt>
      <trkpt lat="42.875603" lon="-7.831236">
        <time>2022-07-13T10:16:41Z</time>
      </trkpt>
      <trkpt lat="42.875614" lon="-7.8313146">
        <time>2022-07-13T10:16:45Z</time>
      </trkpt>
      <trkpt lat="42.87562" lon="-7.831378">
        <time>2022-07-13T10:16:48Z</time>
      </trkpt>
      <trkpt lat="42.87563" lon="-7.8314524">
        <time>2022-07-13T10:16:52Z</time>
      </trkpt>
      <trkpt lat="42.87564" lon="-7.8315253">
        <time>2022-07-13T10:16:56Z</time>
      </trkpt>
      <trkpt lat="42.875656" lon="-7.8315973">
        <time>2022-07-13T10:17:00Z</time>
      </trkpt>
      <trkpt lat="42.875668" lon="-7.831671">
        <time>2022-07-13T10:17:04Z</time>
      </trkpt>
      <trkpt lat="42.87568" lon="-7.831741">
        <time>2022-07-13T10:17:08Z</time>
      </trkpt>
      <trkpt lat="42.87569" lon="-7.831809">
        <time>2022-07-13T10:17:12Z</time>
      </trkpt>
      <trkpt lat="42.875706" lon="-7.8318834">
        <time>2022-07-13T10:17:16Z</time>
      </trkpt>
      <trkpt lat="42.87572" lon="-7.8319597">
        <time>2022-07-13T10:17:20Z</time>
      </trkpt>
      <trkpt lat="42.875732" lon="-7.832034">
        <time>2022-07-13T10:17:24Z</time>
      </trkpt>
      <trkpt lat="42.875744" lon="-7.8321075">
        <time>2022-07-13T10:17:28Z</time>
      </trkpt>
      <trkpt lat="42.87576" lon="-7.832179">
        <time>2022-07-13T10:17:32Z</time>
      </trkpt>
      <trkpt lat="42.87577" lon="-7.832248">
        <time>2022-07-13T10:17:36Z</time>
      </trkpt>
      <trkpt lat="42.87578" lon="-7.832319">
        <time>2022-07-13T10:17:40Z</time>
      </trkpt>
      <trkpt lat="42.875793" lon="-7.8323884">
        <time>2022-07-13T10:17:44Z</time>
      </trkpt>
      <trkpt lat="42.875805" lon="-7.832473">
        <time>2022-07-13T10:17:49Z</time>
      </trkpt>
      <trkpt lat="42.875813" lon="-7.8325486">
        <time>2022-07-13T10:17:53Z</time>
      </trkpt>
      <trkpt lat="42.87582" lon="-7.8326225">
        <time>2022-07-13T10:17:57Z</time>
      </trkpt>
      <trkpt lat="42.875828" lon="-7.8326936">
        <time>2022-07-13T10:18:01Z</time>
      </trkpt>
      <trkpt lat="42.875843" lon="-7.8327646">
        <time>2022-07-13T10:18:05Z</time>
      </trkpt>
      <trkpt lat="42.87585" lon="-7.832839">
        <time>2022-07-13T10:18:09Z</time>
      </trkpt>
      <trkpt lat="42.875862" lon="-7.8329124">
        <time>2022-07-13T10:18:13Z</time>
      </trkpt>
      <trkpt lat="42.875874" lon="-7.8329864">
        <time>2022-07-13T10:18:17Z</time>
      </trkpt>
      <trkpt lat="42.87588" lon="-7.8330655">
        <time>2022-07-13T10:18:21Z</time>
      </trkpt>
      <trkpt lat="42.87589" lon="-7.833146">
        <time>2022-07-13T10:18:25Z</time>
      </trkpt>
      <trkpt lat="42.875893" lon="-7.83322">
        <time>2022-07-13T10:18:29Z</time>
      </trkpt>
      <trkpt lat="42.8759" lon="-7.8332934">
        <time>2022-07-13T10:18:33Z</time>
      </trkpt>
      <trkpt lat="42.875904" lon="-7.8333645">
        <time>2022-07-13T10:18:37Z</time>
      </trkpt>
      <trkpt lat="42.875904" lon="-7.8334355">
        <time>2022-07-13T10:18:41Z</time>
      </trkpt>
      <trkpt lat="42.875908" lon="-7.8335247">
        <time>2022-07-13T10:18:46Z</time>
      </trkpt>
      <trkpt lat="42.875916" lon="-7.8335915">
        <time>2022-07-13T10:18:50Z</time>
      </trkpt>
      <trkpt lat="42.875923" lon="-7.8336782">
        <time>2022-07-13T10:18:55Z</time>
      </trkpt>
      <trkpt lat="42.875927" lon="-7.833753">
        <time>2022-07-13T10:18:59Z</time>
      </trkpt>
      <trkpt lat="42.87594" lon="-7.8338284">
        <time>2022-07-13T10:19:03Z</time>
      </trkpt>
      <trkpt lat="42.875946" lon="-7.833894">
        <time>2022-07-13T10:19:07Z</time>
      </trkpt>
      <trkpt lat="42.875957" lon="-7.8339744">
        <time>2022-07-13T10:19:12Z</time>
      </trkpt>
      <trkpt lat="42.87596" lon="-7.834045">
        <time>2022-07-13T10:19:16Z</time>
      </trkpt>
      <trkpt lat="42.875965" lon="-7.834113">
        <time>2022-07-13T10:19:20Z</time>
      </trkpt>
      <trkpt lat="42.87597" lon="-7.83419">
        <time>2022-07-13T10:19:24Z</time>
      </trkpt>
      <trkpt lat="42.875973" lon="-7.8342648">
        <time>2022-07-13T10:19:28Z</time>
      </trkpt>
      <trkpt lat="42.875977" lon="-7.8343368">
        <time>2022-07-13T10:19:32Z</time>
      </trkpt>
      <trkpt lat="42.87598" lon="-7.8344107">
        <time>2022-07-13T10:19:36Z</time>
      </trkpt>
      <trkpt lat="42.875984" lon="-7.8344836">
        <time>2022-07-13T10:19:40Z</time>
      </trkpt>
      <trkpt lat="42.875988" lon="-7.8345566">
        <time>2022-07-13T10:19:44Z</time>
      </trkpt>
      <trkpt lat="42.875984" lon="-7.8346286">
        <time>2022-07-13T10:19:48Z</time>
      </trkpt>
      <trkpt lat="42.875988" lon="-7.8347025">
        <time>2022-07-13T10:19:52Z</time>
      </trkpt>
      <trkpt lat="42.875988" lon="-7.8347735">
        <time>2022-07-13T10:19:56Z</time>
      </trkpt>
      <trkpt lat="42.875984" lon="-7.83485">
        <time>2022-07-13T10:20:00Z</time>
      </trkpt>
      <trkpt lat="42.875984" lon="-7.834926">
        <time>2022-07-13T10:20:04Z</time>
      </trkpt>
      <trkpt lat="42.87598" lon="-7.8350024">
        <time>2022-07-13T10:20:08Z</time>
      </trkpt>
      <trkpt lat="42.875977" lon="-7.835074">
        <time>2022-07-13T10:20:12Z</time>
      </trkpt>
      <trkpt lat="42.87597" lon="-7.835147">
        <time>2022-07-13T10:20:16Z</time>
      </trkpt>
      <trkpt lat="42.875965" lon="-7.8352103">
        <time>2022-07-13T10:20:20Z</time>
      </trkpt>
      <trkpt lat="42.87596" lon="-7.8352876">
        <time>2022-07-13T10:20:25Z</time>
      </trkpt>
      <trkpt lat="42.875946" lon="-7.8353624">
        <time>2022-07-13T10:20:29Z</time>
      </trkpt>
      <trkpt lat="42.875942" lon="-7.8354306">
        <time>2022-07-13T10:20:33Z</time>
      </trkpt>
      <trkpt lat="42.87594" lon="-7.835517">
        <time>2022-07-13T10:20:38Z</time>
      </trkpt>
      <trkpt lat="42.875935" lon="-7.835587">
        <time>2022-07-13T10:20:42Z</time>
      </trkpt>
      <trkpt lat="42.875923" lon="-7.835675">
        <time>2022-07-13T10:20:47Z</time>
      </trkpt>
      <trkpt lat="42.87591" lon="-7.8357477">
        <time>2022-07-13T10:20:52Z</time>
      </trkpt>
      <trkpt lat="42.87589" lon="-7.835824">
        <time>2022-07-13T10:20:57Z</time>
      </trkpt>
      <trkpt lat="42.875866" lon="-7.835904">
        <time>2022-07-13T10:21:02Z</time>
      </trkpt>
      <trkpt lat="42.875843" lon="-7.835987">
        <time>2022-07-13T10:21:07Z</time>
      </trkpt>
      <trkpt lat="42.875828" lon="-7.836058">
        <time>2022-07-13T10:21:12Z</time>
      </trkpt>
      <trkpt lat="42.875816" lon="-7.836126">
        <time>2022-07-13T10:21:17Z</time>
      </trkpt>
      <trkpt lat="42.875805" lon="-7.836207">
        <time>2022-07-13T10:21:22Z</time>
      </trkpt>
      <trkpt lat="42.875797" lon="-7.836273">
        <time>2022-07-13T10:21:26Z</time>
      </trkpt>
      <trkpt lat="42.875793" lon="-7.836353">
        <time>2022-07-13T10:21:31Z</time>
      </trkpt>
      <trkpt lat="42.875797" lon="-7.8364263">
        <time>2022-07-13T10:21:36Z</time>
      </trkpt>
      <trkpt lat="42.8758" lon="-7.836503">
        <time>2022-07-13T10:21:41Z</time>
      </trkpt>
      <trkpt lat="42.875805" lon="-7.836583">
        <time>2022-07-13T10:21:46Z</time>
      </trkpt>
      <trkpt lat="42.8758" lon="-7.8366566">
        <time>2022-07-13T10:21:50Z</time>
      </trkpt>
      <trkpt lat="42.87579" lon="-7.836716">
        <time>2022-07-13T10:21:54Z</time>
      </trkpt>
      <trkpt lat="42.875774" lon="-7.8367944">
        <time>2022-07-13T10:21:59Z</time>
      </trkpt>
      <trkpt lat="42.875763" lon="-7.8368597">
        <time>2022-07-13T10:22:03Z</time>
      </trkpt>
      <trkpt lat="42.87574" lon="-7.836927">
        <time>2022-07-13T10:22:08Z</time>
      </trkpt>
      <trkpt lat="42.875736" lon="-7.8370023">
        <time>2022-07-13T10:22:12Z</time>
      </trkpt>
      <trkpt lat="42.875725" lon="-7.8370814">
        <time>2022-07-13T10:22:16Z</time>
      </trkpt>
      <trkpt lat="42.875717" lon="-7.8371477">
        <time>2022-07-13T10:22:20Z</time>
      </trkpt>
      <trkpt lat="42.875698" lon="-7.8372264">
        <time>2022-07-13T10:22:25Z</time>
      </trkpt>
      <trkpt lat="42.87567" lon="-7.8372984">
        <time>2022-07-13T10:22:30Z</time>
      </trkpt>
      <trkpt lat="42.87565" lon="-7.8373647">
        <time>2022-07-13T10:22:35Z</time>
      </trkpt>
      <trkpt lat="42.875626" lon="-7.83742">
        <time>2022-07-13T10:22:39Z</time>
      </trkpt>
      <trkpt lat="42.8756" lon="-7.837493">
        <time>2022-07-13T10:22:44Z</time>
      </trkpt>
      <trkpt lat="42.87557" lon="-7.8375454">
        <time>2022-07-13T10:22:48Z</time>
      </trkpt>
      <trkpt lat="42.87553" lon="-7.837614">
        <time>2022-07-13T10:22:53Z</time>
      </trkpt>
      <trkpt lat="42.875496" lon="-7.837669">
        <time>2022-07-13T10:22:57Z</time>
      </trkpt>
      <trkpt lat="42.87546" lon="-7.837722">
        <time>2022-07-13T10:23:01Z</time>
      </trkpt>
      <trkpt lat="42.875427" lon="-7.837776">
        <time>2022-07-13T10:23:05Z</time>
      </trkpt>
      <trkpt lat="42.875393" lon="-7.8378353">
        <time>2022-07-13T10:23:09Z</time>
      </trkpt>
      <trkpt lat="42.87536" lon="-7.8378997">
        <time>2022-07-13T10:23:13Z</time>
      </trkpt>
      <trkpt lat="42.875324" lon="-7.837967">
        <time>2022-07-13T10:23:18Z</time>
      </trkpt>
      <trkpt lat="42.875294" lon="-7.8380294">
        <time>2022-07-13T10:23:22Z</time>
      </trkpt>
      <trkpt lat="42.875267" lon="-7.8380885">
        <time>2022-07-13T10:23:26Z</time>
      </trkpt>
      <trkpt lat="42.875237" lon="-7.8381495">
        <time>2022-07-13T10:23:30Z</time>
      </trkpt>
      <trkpt lat="42.87521" lon="-7.8382015">
        <time>2022-07-13T10:23:34Z</time>
      </trkpt>
      <trkpt lat="42.875164" lon="-7.8382654">
        <time>2022-07-13T10:23:39Z</time>
      </trkpt>
      <trkpt lat="42.875134" lon="-7.838317">
        <time>2022-07-13T10:23:44Z</time>
      </trkpt>
      <trkpt lat="42.875103" lon="-7.838385">
        <time>2022-07-13T10:23:50Z</time>
      </trkpt>
      <trkpt lat="42.875076" lon="-7.8384595">
        <time>2022-07-13T10:23:55Z</time>
      </trkpt>
      <trkpt lat="42.87505" lon="-7.838523">
        <time>2022-07-13T10:23:59Z</time>
      </trkpt>
      <trkpt lat="42.87501" lon="-7.83859">
        <time>2022-07-13T10:24:03Z</time>
      </trkpt>
      <trkpt lat="42.874973" lon="-7.838646">
        <time>2022-07-13T10:24:07Z</time>
      </trkpt>
      <trkpt lat="42.874947" lon="-7.838713">
        <time>2022-07-13T10:24:11Z</time>
      </trkpt>
      <trkpt lat="42.874916" lon="-7.838775">
        <time>2022-07-13T10:24:15Z</time>
      </trkpt>
      <trkpt lat="42.874893" lon="-7.8388367">
        <time>2022-07-13T10:24:19Z</time>
      </trkpt>
      <trkpt lat="42.874863" lon="-7.838919">
        <time>2022-07-13T10:24:24Z</time>
      </trkpt>
      <trkpt lat="42.874836" lon="-7.8389773">
        <time>2022-07-13T10:24:28Z</time>
      </trkpt>
      <trkpt lat="42.8748" lon="-7.839039">
        <time>2022-07-13T10:24:32Z</time>
      </trkpt>
      <trkpt lat="42.874767" lon="-7.8391085">
        <time>2022-07-13T10:24:37Z</time>
      </trkpt>
      <trkpt lat="42.87473" lon="-7.839178">
        <time>2022-07-13T10:24:42Z</time>
      </trkpt>
      <trkpt lat="42.8747" lon="-7.8392315">
        <time>2022-07-13T10:24:46Z</time>
      </trkpt>
      <trkpt lat="42.874664" lon="-7.839295">
        <time>2022-07-13T10:24:51Z</time>
      </trkpt>
      <trkpt lat="42.87461" lon="-7.83936">
        <time>2022-07-13T10:24:56Z</time>
      </trkpt>
      <trkpt lat="42.874577" lon="-7.839439">
        <time>2022-07-13T10:25:03Z</time>
      </trkpt>
      <trkpt lat="42.87454" lon="-7.839518">
        <time>2022-07-13T10:25:08Z</time>
      </trkpt>
      <trkpt lat="42.87451" lon="-7.8395886">
        <time>2022-07-13T10:25:12Z</time>
      </trkpt>
      <trkpt lat="42.874493" lon="-7.8396597">
        <time>2022-07-13T10:25:16Z</time>
      </trkpt>
      <trkpt lat="42.87448" lon="-7.83973">
        <time>2022-07-13T10:25:20Z</time>
      </trkpt>
      <trkpt lat="42.87447" lon="-7.8398123">
        <time>2022-07-13T10:25:25Z</time>
      </trkpt>
      <trkpt lat="42.874466" lon="-7.839885">
        <time>2022-07-13T10:25:29Z</time>
      </trkpt>
      <trkpt lat="42.874462" lon="-7.83995">
        <time>2022-07-13T10:25:33Z</time>
      </trkpt>
      <trkpt lat="42.87446" lon="-7.840031">
        <time>2022-07-13T10:25:38Z</time>
      </trkpt>
      <trkpt lat="42.87446" lon="-7.8401074">
        <time>2022-07-13T10:25:43Z</time>
      </trkpt>
      <trkpt lat="42.874462" lon="-7.8401833">
        <time>2022-07-13T10:25:48Z</time>
      </trkpt>
      <trkpt lat="42.874462" lon="-7.840259">
        <time>2022-07-13T10:25:53Z</time>
      </trkpt>
      <trkpt lat="42.874462" lon="-7.8403378">
        <time>2022-07-13T10:25:58Z</time>
      </trkpt>
      <trkpt lat="42.87446" lon="-7.8404183">
        <time>2022-07-13T10:26:03Z</time>
      </trkpt>
      <trkpt lat="42.87446" lon="-7.8404856">
        <time>2022-07-13T10:26:07Z</time>
      </trkpt>
      <trkpt lat="42.874454" lon="-7.8405685">
        <time>2022-07-13T10:26:12Z</time>
      </trkpt>
      <trkpt lat="42.874454" lon="-7.8406343">
        <time>2022-07-13T10:26:16Z</time>
      </trkpt>
      <trkpt lat="42.874454" lon="-7.8407125">
        <time>2022-07-13T10:26:20Z</time>
      </trkpt>
      <trkpt lat="42.874447" lon="-7.8407893">
        <time>2022-07-13T10:26:24Z</time>
      </trkpt>
      <trkpt lat="42.874447" lon="-7.8408566">
        <time>2022-07-13T10:26:28Z</time>
      </trkpt>
      <trkpt lat="42.874447" lon="-7.840936">
        <time>2022-07-13T10:26:33Z</time>
      </trkpt>
      <trkpt lat="42.874435" lon="-7.8410225">
        <time>2022-07-13T10:26:38Z</time>
      </trkpt>
      <trkpt lat="42.874443" lon="-7.841104">
        <time>2022-07-13T10:26:43Z</time>
      </trkpt>
      <trkpt lat="42.87444" lon="-7.8411713">
        <time>2022-07-13T10:26:47Z</time>
      </trkpt>
      <trkpt lat="42.874435" lon="-7.8412476">
        <time>2022-07-13T10:26:51Z</time>
      </trkpt>
      <trkpt lat="42.87442" lon="-7.84133">
        <time>2022-07-13T10:26:55Z</time>
      </trkpt>
      <trkpt lat="42.874416" lon="-7.8414016">
        <time>2022-07-13T10:26:59Z</time>
      </trkpt>
      <trkpt lat="42.87441" lon="-7.841475">
        <time>2022-07-13T10:27:04Z</time>
      </trkpt>
      <trkpt lat="42.874386" lon="-7.841556">
        <time>2022-07-13T10:27:09Z</time>
      </trkpt>
      <trkpt lat="42.87437" lon="-7.841622">
        <time>2022-07-13T10:27:13Z</time>
      </trkpt>
      <trkpt lat="42.87434" lon="-7.8417006">
        <time>2022-07-13T10:27:18Z</time>
      </trkpt>
      <trkpt lat="42.874317" lon="-7.8417606">
        <time>2022-07-13T10:27:22Z</time>
      </trkpt>
      <trkpt lat="42.874313" lon="-7.8418374">
        <time>2022-07-13T10:27:27Z</time>
      </trkpt>
      <trkpt lat="42.874306" lon="-7.8419147">
        <time>2022-07-13T10:27:31Z</time>
      </trkpt>
      <trkpt lat="42.874306" lon="-7.841987">
        <time>2022-07-13T10:27:35Z</time>
      </trkpt>
      <trkpt lat="42.874302" lon="-7.842055">
        <time>2022-07-13T10:27:39Z</time>
      </trkpt>
      <trkpt lat="42.874302" lon="-7.842126">
        <time>2022-07-13T10:27:43Z</time>
      </trkpt>
      <trkpt lat="42.87431" lon="-7.8422055">
        <time>2022-07-13T10:27:48Z</time>
      </trkpt>
      <trkpt lat="42.874313" lon="-7.842288">
        <time>2022-07-13T10:27:53Z</time>
      </trkpt>
      <trkpt lat="42.874317" lon="-7.842369">
        <time>2022-07-13T10:27:58Z</time>
      </trkpt>
      <trkpt lat="42.874317" lon="-7.842452">
        <time>2022-07-13T10:28:03Z</time>
      </trkpt>
      <trkpt lat="42.874336" lon="-7.842528">
        <time>2022-07-13T10:28:10Z</time>
      </trkpt>
      <trkpt lat="42.874336" lon="-7.842598">
        <time>2022-07-13T10:28:15Z</time>
      </trkpt>
      <trkpt lat="42.874344" lon="-7.8426785">
        <time>2022-07-13T10:28:21Z</time>
      </trkpt>
      <trkpt lat="42.874336" lon="-7.842768">
        <time>2022-07-13T10:28:25Z</time>
      </trkpt>
      <trkpt lat="42.874336" lon="-7.842833">
        <time>2022-07-13T10:28:28Z</time>
      </trkpt>
      <trkpt lat="42.874332" lon="-7.842909">
        <time>2022-07-13T10:28:32Z</time>
      </trkpt>
      <trkpt lat="42.874344" lon="-7.8429713">
        <time>2022-07-13T10:28:36Z</time>
      </trkpt>
      <trkpt lat="42.874344" lon="-7.843057">
        <time>2022-07-13T10:28:41Z</time>
      </trkpt>
      <trkpt lat="42.87434" lon="-7.843117">
        <time>2022-07-13T10:28:45Z</time>
      </trkpt>
      <trkpt lat="42.87435" lon="-7.843199">
        <time>2022-07-13T10:28:50Z</time>
      </trkpt>
      <trkpt lat="42.87436" lon="-7.843262">
        <time>2022-07-13T10:28:54Z</time>
      </trkpt>
      <trkpt lat="42.874363" lon="-7.843347">
        <time>2022-07-13T10:28:59Z</time>
      </trkpt>
      <trkpt lat="42.874367" lon="-7.843427">
        <time>2022-07-13T10:29:03Z</time>
      </trkpt>
      <trkpt lat="42.87437" lon="-7.8435063">
        <time>2022-07-13T10:29:07Z</time>
      </trkpt>
      <trkpt lat="42.874374" lon="-7.843586">
        <time>2022-07-13T10:29:12Z</time>
      </trkpt>
      <trkpt lat="42.874382" lon="-7.8436484">
        <time>2022-07-13T10:29:17Z</time>
      </trkpt>
      <trkpt lat="42.87439" lon="-7.843723">
        <time>2022-07-13T10:29:22Z</time>
      </trkpt>
      <trkpt lat="42.874397" lon="-7.843797">
        <time>2022-07-13T10:29:27Z</time>
      </trkpt>
      <trkpt lat="42.87441" lon="-7.8438725">
        <time>2022-07-13T10:29:32Z</time>
      </trkpt>
      <trkpt lat="42.874413" lon="-7.8439465">
        <time>2022-07-13T10:29:37Z</time>
      </trkpt>
      <trkpt lat="42.874416" lon="-7.8440166">
        <time>2022-07-13T10:29:42Z</time>
      </trkpt>
      <trkpt lat="42.87442" lon="-7.844089">
        <time>2022-07-13T10:29:47Z</time>
      </trkpt>
      <trkpt lat="42.874416" lon="-7.8441606">
        <time>2022-07-13T10:29:51Z</time>
      </trkpt>
      <trkpt lat="42.874405" lon="-7.8442373">
        <time>2022-07-13T10:29:55Z</time>
      </trkpt>
      <trkpt lat="42.8744" lon="-7.844314">
        <time>2022-07-13T10:29:59Z</time>
      </trkpt>
      <trkpt lat="42.874393" lon="-7.844393">
        <time>2022-07-13T10:30:03Z</time>
      </trkpt>
      <trkpt lat="42.874386" lon="-7.8444777">
        <time>2022-07-13T10:30:08Z</time>
      </trkpt>
      <trkpt lat="42.874382" lon="-7.844546">
        <time>2022-07-13T10:30:14Z</time>
      </trkpt>
      <trkpt lat="42.874363" lon="-7.844619">
        <time>2022-07-13T10:30:18Z</time>
      </trkpt>
      <trkpt lat="42.87434" lon="-7.8447022">
        <time>2022-07-13T10:30:22Z</time>
      </trkpt>
      <trkpt lat="42.874325" lon="-7.844775">
        <time>2022-07-13T10:30:26Z</time>
      </trkpt>
      <trkpt lat="42.874317" lon="-7.844861">
        <time>2022-07-13T10:30:32Z</time>
      </trkpt>
      <trkpt lat="42.874313" lon="-7.8449397">
        <time>2022-07-13T10:30:37Z</time>
      </trkpt>
      <trkpt lat="42.87431" lon="-7.8450093">
        <time>2022-07-13T10:30:42Z</time>
      </trkpt>
      <trkpt lat="42.874302" lon="-7.845092">
        <time>2022-07-13T10:30:47Z</time>
      </trkpt>
      <trkpt lat="42.8743" lon="-7.845155">
        <time>2022-07-13T10:30:51Z</time>
      </trkpt>
      <trkpt lat="42.8743" lon="-7.84524">
        <time>2022-07-13T10:30:56Z</time>
      </trkpt>
      <trkpt lat="42.874317" lon="-7.8453145">
        <time>2022-07-13T10:31:00Z</time>
      </trkpt>
      <trkpt lat="42.874325" lon="-7.845386">
        <time>2022-07-13T10:31:04Z</time>
      </trkpt>
      <trkpt lat="42.87433" lon="-7.845459">
        <time>2022-07-13T10:31:08Z</time>
      </trkpt>
      <trkpt lat="42.87433" lon="-7.845534">
        <time>2022-07-13T10:31:13Z</time>
      </trkpt>
      <trkpt lat="42.87433" lon="-7.845599">
        <time>2022-07-13T10:31:17Z</time>
      </trkpt>
      <trkpt lat="42.874336" lon="-7.845673">
        <time>2022-07-13T10:31:21Z</time>
      </trkpt>
      <trkpt lat="42.874336" lon="-7.845755">
        <time>2022-07-13T10:31:26Z</time>
      </trkpt>
      <trkpt lat="42.87433" lon="-7.8458385">
        <time>2022-07-13T10:31:31Z</time>
      </trkpt>
      <trkpt lat="42.87433" lon="-7.845919">
        <time>2022-07-13T10:31:36Z</time>
      </trkpt>
      <trkpt lat="42.874317" lon="-7.846002">
        <time>2022-07-13T10:31:41Z</time>
      </trkpt>
      <trkpt lat="42.874313" lon="-7.8460646">
        <time>2022-07-13T10:31:47Z</time>
      </trkpt>
      <trkpt lat="42.87431" lon="-7.846148">
        <time>2022-07-13T10:31:52Z</time>
      </trkpt>
      <trkpt lat="42.87431" lon="-7.846221">
        <time>2022-07-13T10:31:57Z</time>
      </trkpt>
      <trkpt lat="42.87431" lon="-7.8462987">
        <time>2022-07-13T10:32:03Z</time>
      </trkpt>
      <trkpt lat="42.874306" lon="-7.846368">
        <time>2022-07-13T10:32:07Z</time>
      </trkpt>
      <trkpt lat="42.874306" lon="-7.846444">
        <time>2022-07-13T10:32:12Z</time>
      </trkpt>
      <trkpt lat="42.874294" lon="-7.8465257">
        <time>2022-07-13T10:32:17Z</time>
      </trkpt>
      <trkpt lat="42.874283" lon="-7.8465953">
        <time>2022-07-13T10:32:21Z</time>
      </trkpt>
      <trkpt lat="42.87428" lon="-7.8466754">
        <time>2022-07-13T10:32:26Z</time>
      </trkpt>
      <trkpt lat="42.874275" lon="-7.846741">
        <time>2022-07-13T10:32:30Z</time>
      </trkpt>
      <trkpt lat="42.874268" lon="-7.8468194">
        <time>2022-07-13T10:32:35Z</time>
      </trkpt>
      <trkpt lat="42.874275" lon="-7.8468866">
        <time>2022-07-13T10:32:39Z</time>
      </trkpt>
      <trkpt lat="42.874287" lon="-7.846967">
        <time>2022-07-13T10:32:44Z</time>
      </trkpt>
      <trkpt lat="42.8743" lon="-7.847041">
        <time>2022-07-13T10:32:49Z</time>
      </trkpt>
      <trkpt lat="42.874306" lon="-7.847116">
        <time>2022-07-13T10:32:54Z</time>
      </trkpt>
      <trkpt lat="42.874306" lon="-7.8471985">
        <time>2022-07-13T10:32:59Z</time>
      </trkpt>
      <trkpt lat="42.874306" lon="-7.8472757">
        <time>2022-07-13T10:33:04Z</time>
      </trkpt>
      <trkpt lat="42.874302" lon="-7.847361">
        <time>2022-07-13T10:33:09Z</time>
      </trkpt>
      <trkpt lat="42.874294" lon="-7.847435">
        <time>2022-07-13T10:33:13Z</time>
      </trkpt>
      <trkpt lat="42.87429" lon="-7.847507">
        <time>2022-07-13T10:33:17Z</time>
      </trkpt>
      <trkpt lat="42.874287" lon="-7.847577">
        <time>2022-07-13T10:33:21Z</time>
      </trkpt>
      <trkpt lat="42.874283" lon="-7.847655">
        <time>2022-07-13T10:33:26Z</time>
      </trkpt>
      <trkpt lat="42.874287" lon="-7.8477416">
        <time>2022-07-13T10:33:32Z</time>
      </trkpt>
      <trkpt lat="42.874287" lon="-7.847809">
        <time>2022-07-13T10:33:37Z</time>
      </trkpt>
      <trkpt lat="42.874275" lon="-7.8478837">
        <time>2022-07-13T10:33:42Z</time>
      </trkpt>
      <trkpt lat="42.87428" lon="-7.847953">
        <time>2022-07-13T10:33:46Z</time>
      </trkpt>
      <trkpt lat="42.87427" lon="-7.848034">
        <time>2022-07-13T10:33:51Z</time>
      </trkpt>
      <trkpt lat="42.87427" lon="-7.8481045">
        <time>2022-07-13T10:33:56Z</time>
      </trkpt>
      <trkpt lat="42.874275" lon="-7.84818">
        <time>2022-07-13T10:34:03Z</time>
      </trkpt>
      <trkpt lat="42.874275" lon="-7.848259">
        <time>2022-07-13T10:34:08Z</time>
      </trkpt>
      <trkpt lat="42.874264" lon="-7.848345">
        <time>2022-07-13T10:34:13Z</time>
      </trkpt>
      <trkpt lat="42.874264" lon="-7.8484173">
        <time>2022-07-13T10:34:17Z</time>
      </trkpt>
      <trkpt lat="42.87427" lon="-7.8484926">
        <time>2022-07-13T10:34:21Z</time>
      </trkpt>
      <trkpt lat="42.874287" lon="-7.848573">
        <time>2022-07-13T10:34:25Z</time>
      </trkpt>
      <trkpt lat="42.874294" lon="-7.848645">
        <time>2022-07-13T10:34:29Z</time>
      </trkpt>
      <trkpt lat="42.8743" lon="-7.848729">
        <time>2022-07-13T10:34:33Z</time>
      </trkpt>
      <trkpt lat="42.87431" lon="-7.8488083">
        <time>2022-07-13T10:34:37Z</time>
      </trkpt>
      <trkpt lat="42.87432" lon="-7.848871">
        <time>2022-07-13T10:34:41Z</time>
      </trkpt>
      <trkpt lat="42.874336" lon="-7.848948">
        <time>2022-07-13T10:34:46Z</time>
      </trkpt>
      <trkpt lat="42.87434" lon="-7.849033">
        <time>2022-07-13T10:34:51Z</time>
      </trkpt>
      <trkpt lat="42.874355" lon="-7.849107">
        <time>2022-07-13T10:34:55Z</time>
      </trkpt>
      <trkpt lat="42.874367" lon="-7.849168">
        <time>2022-07-13T10:34:59Z</time>
      </trkpt>
      <trkpt lat="42.874374" lon="-7.8492556">
        <time>2022-07-13T10:35:04Z</time>
      </trkpt>
      <trkpt lat="42.87439" lon="-7.84933">
        <time>2022-07-13T10:35:08Z</time>
      </trkpt>
      <trkpt lat="42.8744" lon="-7.849403">
        <time>2022-07-13T10:35:12Z</time>
      </trkpt>
      <trkpt lat="42.874424" lon="-7.8494773">
        <time>2022-07-13T10:35:17Z</time>
      </trkpt>
      <trkpt lat="42.87445" lon="-7.8495336">
        <time>2022-07-13T10:35:21Z</time>
      </trkpt>
      <trkpt lat="42.87448" lon="-7.849614">
        <time>2022-07-13T10:35:26Z</time>
      </trkpt>
      <trkpt lat="42.87451" lon="-7.849682">
        <time>2022-07-13T10:35:30Z</time>
      </trkpt>
      <trkpt lat="42.87455" lon="-7.849741">
        <time>2022-07-13T10:35:34Z</time>
      </trkpt>
      <trkpt lat="42.87458" lon="-7.849814">
        <time>2022-07-13T10:35:39Z</time>
      </trkpt>
      <trkpt lat="42.874596" lon="-7.8498793">
        <time>2022-07-13T10:35:45Z</time>
      </trkpt>
      <trkpt lat="42.87462" lon="-7.8499618">
        <time>2022-07-13T10:35:50Z</time>
      </trkpt>
      <trkpt lat="42.874645" lon="-7.850025">
        <time>2022-07-13T10:35:54Z</time>
      </trkpt>
      <trkpt lat="42.87467" lon="-7.8500943">
        <time>2022-07-13T10:36:00Z</time>
      </trkpt>
      <trkpt lat="42.87469" lon="-7.850155">
        <time>2022-07-13T10:36:03Z</time>
      </trkpt>
      <trkpt lat="42.87471" lon="-7.8502216">
        <time>2022-07-13T10:36:08Z</time>
      </trkpt>
      <trkpt lat="42.87473" lon="-7.8503084">
        <time>2022-07-13T10:36:13Z</time>
      </trkpt>
      <trkpt lat="42.874756" lon="-7.8503795">
        <time>2022-07-13T10:36:17Z</time>
      </trkpt>
      <trkpt lat="42.87477" lon="-7.8504386">
        <time>2022-07-13T10:36:21Z</time>
      </trkpt>
      <trkpt lat="42.874794" lon="-7.85052">
        <time>2022-07-13T10:36:26Z</time>
      </trkpt>
      <trkpt lat="42.874813" lon="-7.85059">
        <time>2022-07-13T10:36:30Z</time>
      </trkpt>
      <trkpt lat="42.874832" lon="-7.8506594">
        <time>2022-07-13T10:36:35Z</time>
      </trkpt>
      <trkpt lat="42.87485" lon="-7.850739">
        <time>2022-07-13T10:36:40Z</time>
      </trkpt>
      <trkpt lat="42.874874" lon="-7.850814">
        <time>2022-07-13T10:36:44Z</time>
      </trkpt>
      <trkpt lat="42.874897" lon="-7.8508754">
        <time>2022-07-13T10:36:48Z</time>
      </trkpt>
      <trkpt lat="42.87492" lon="-7.8509502">
        <time>2022-07-13T10:36:53Z</time>
      </trkpt>
      <trkpt lat="42.874924" lon="-7.8510194">
        <time>2022-07-13T10:36:57Z</time>
      </trkpt>
      <trkpt lat="42.87493" lon="-7.851073">
        <time>2022-07-13T10:37:05Z</time>
      </trkpt>
      <trkpt lat="42.874916" lon="-7.8511505">
        <time>2022-07-13T10:37:44Z</time>
      </trkpt>
      <trkpt lat="42.874905" lon="-7.851221">
        <time>2022-07-13T10:37:47Z</time>
      </trkpt>
      <trkpt lat="42.874863" lon="-7.8513966">
        <time>2022-07-13T10:38:03Z</time>
      </trkpt>
      <trkpt lat="42.874847" lon="-7.8514667">
        <time>2022-07-13T10:38:07Z</time>
      </trkpt>
      <trkpt lat="42.87483" lon="-7.851559">
        <time>2022-07-13T10:38:12Z</time>
      </trkpt>
      <trkpt lat="42.874805" lon="-7.85163">
        <time>2022-07-13T10:38:16Z</time>
      </trkpt>
      <trkpt lat="42.874775" lon="-7.851692">
        <time>2022-07-13T10:38:20Z</time>
      </trkpt>
      <trkpt lat="42.87474" lon="-7.8517656">
        <time>2022-07-13T10:38:24Z</time>
      </trkpt>
      <trkpt lat="42.87471" lon="-7.8518376">
        <time>2022-07-13T10:38:28Z</time>
      </trkpt>
      <trkpt lat="42.874664" lon="-7.851898">
        <time>2022-07-13T10:38:32Z</time>
      </trkpt>
      <trkpt lat="42.874622" lon="-7.8519397">
        <time>2022-07-13T10:38:35Z</time>
      </trkpt>
      <trkpt lat="42.87457" lon="-7.8519897">
        <time>2022-07-13T10:38:39Z</time>
      </trkpt>
      <trkpt lat="42.87454" lon="-7.8520536">
        <time>2022-07-13T10:38:43Z</time>
      </trkpt>
      <trkpt lat="42.874523" lon="-7.852134">
        <time>2022-07-13T10:38:48Z</time>
      </trkpt>
      <trkpt lat="42.874527" lon="-7.852219">
        <time>2022-07-13T10:38:53Z</time>
      </trkpt>
      <trkpt lat="42.874527" lon="-7.852294">
        <time>2022-07-13T10:38:57Z</time>
      </trkpt>
      <trkpt lat="42.874496" lon="-7.852371">
        <time>2022-07-13T10:39:01Z</time>
      </trkpt>
      <trkpt lat="42.87446" lon="-7.85243">
        <time>2022-07-13T10:39:04Z</time>
      </trkpt>
      <trkpt lat="42.87442" lon="-7.852507">
        <time>2022-07-13T10:39:08Z</time>
      </trkpt>
      <trkpt lat="42.874397" lon="-7.8525696">
        <time>2022-07-13T10:39:11Z</time>
      </trkpt>
      <trkpt lat="42.874374" lon="-7.8526373">
        <time>2022-07-13T10:39:15Z</time>
      </trkpt>
      <trkpt lat="42.87435" lon="-7.8527074">
        <time>2022-07-13T10:39:20Z</time>
      </trkpt>
      <trkpt lat="42.87432" lon="-7.8527746">
        <time>2022-07-13T10:39:25Z</time>
      </trkpt>
      <trkpt lat="42.874302" lon="-7.852869">
        <time>2022-07-13T10:39:30Z</time>
      </trkpt>
      <trkpt lat="42.874294" lon="-7.852945">
        <time>2022-07-13T10:39:34Z</time>
      </trkpt>
      <trkpt lat="42.874294" lon="-7.8530164">
        <time>2022-07-13T10:39:39Z</time>
      </trkpt>
      <trkpt lat="42.874294" lon="-7.853119">
        <time>2022-07-13T10:39:44Z</time>
      </trkpt>
      <trkpt lat="42.874287" lon="-7.8531923">
        <time>2022-07-13T10:39:47Z</time>
      </trkpt>
      <trkpt lat="42.874283" lon="-7.853266">
        <time>2022-07-13T10:39:50Z</time>
      </trkpt>
      <trkpt lat="42.874275" lon="-7.8533435">
        <time>2022-07-13T10:39:53Z</time>
      </trkpt>
      <trkpt lat="42.874268" lon="-7.853402">
        <time>2022-07-13T10:39:56Z</time>
      </trkpt>
      <trkpt lat="42.87425" lon="-7.8534784">
        <time>2022-07-13T10:40:01Z</time>
      </trkpt>
      <trkpt lat="42.87424" lon="-7.853541">
        <time>2022-07-13T10:40:06Z</time>
      </trkpt>
      <trkpt lat="42.874226" lon="-7.85361">
        <time>2022-07-13T10:40:22Z</time>
      </trkpt>
      <trkpt lat="42.87422" lon="-7.8536825">
        <time>2022-07-13T10:40:28Z</time>
      </trkpt>
      <trkpt lat="42.87421" lon="-7.85376">
        <time>2022-07-13T10:40:33Z</time>
      </trkpt>
      <trkpt lat="42.874203" lon="-7.85384">
        <time>2022-07-13T10:40:39Z</time>
      </trkpt>
      <trkpt lat="42.874187" lon="-7.85391">
        <time>2022-07-13T10:40:44Z</time>
      </trkpt>
      <trkpt lat="42.87418" lon="-7.853984">
        <time>2022-07-13T10:40:49Z</time>
      </trkpt>
      <trkpt lat="42.874165" lon="-7.854051">
        <time>2022-07-13T10:40:53Z</time>
      </trkpt>
      <trkpt lat="42.874146" lon="-7.85413">
        <time>2022-07-13T10:40:58Z</time>
      </trkpt>
      <trkpt lat="42.874126" lon="-7.854214">
        <time>2022-07-13T10:41:02Z</time>
      </trkpt>
      <trkpt lat="42.874115" lon="-7.8542953">
        <time>2022-07-13T10:41:05Z</time>
      </trkpt>
      <trkpt lat="42.874107" lon="-7.85436">
        <time>2022-07-13T10:41:08Z</time>
      </trkpt>
      <trkpt lat="42.874092" lon="-7.854429">
        <time>2022-07-13T10:41:12Z</time>
      </trkpt>
      <trkpt lat="42.874073" lon="-7.854502">
        <time>2022-07-13T10:41:17Z</time>
      </trkpt>
      <trkpt lat="42.874054" lon="-7.854577">
        <time>2022-07-13T10:41:22Z</time>
      </trkpt>
      <trkpt lat="42.874046" lon="-7.8546667">
        <time>2022-07-13T10:41:27Z</time>
      </trkpt>
      <trkpt lat="42.874043" lon="-7.8547387">
        <time>2022-07-13T10:41:31Z</time>
      </trkpt>
      <trkpt lat="42.87404" lon="-7.8548098">
        <time>2022-07-13T10:41:35Z</time>
      </trkpt>
      <trkpt lat="42.87403" lon="-7.8548846">
        <time>2022-07-13T10:41:39Z</time>
      </trkpt>
      <trkpt lat="42.87402" lon="-7.85495">
        <time>2022-07-13T10:41:43Z</time>
      </trkpt>
      <trkpt lat="42.874012" lon="-7.8550406">
        <time>2022-07-13T10:41:48Z</time>
      </trkpt>
      <trkpt lat="42.874012" lon="-7.8551245">
        <time>2022-07-13T10:41:52Z</time>
      </trkpt>
      <trkpt lat="42.874012" lon="-7.8551955">
        <time>2022-07-13T10:41:56Z</time>
      </trkpt>
      <trkpt lat="42.874012" lon="-7.855266">
        <time>2022-07-13T10:42:01Z</time>
      </trkpt>
      <trkpt lat="42.874012" lon="-7.855347">
        <time>2022-07-13T10:42:06Z</time>
      </trkpt>
      <trkpt lat="42.874004" lon="-7.855427">
        <time>2022-07-13T10:42:10Z</time>
      </trkpt>
      <trkpt lat="42.873993" lon="-7.8555036">
        <time>2022-07-13T10:42:14Z</time>
      </trkpt>
      <trkpt lat="42.87399" lon="-7.855573">
        <time>2022-07-13T10:42:18Z</time>
      </trkpt>
      <trkpt lat="42.873974" lon="-7.855652">
        <time>2022-07-13T10:42:23Z</time>
      </trkpt>
      <trkpt lat="42.873966" lon="-7.855732">
        <time>2022-07-13T10:42:27Z</time>
      </trkpt>
      <trkpt lat="42.873962" lon="-7.8558197">
        <time>2022-07-13T10:42:31Z</time>
      </trkpt>
      <trkpt lat="42.873962" lon="-7.855893">
        <time>2022-07-13T10:42:35Z</time>
      </trkpt>
      <trkpt lat="42.87396" lon="-7.855957">
        <time>2022-07-13T10:42:39Z</time>
      </trkpt>
      <trkpt lat="42.873955" lon="-7.8560386">
        <time>2022-07-13T10:42:44Z</time>
      </trkpt>
      <trkpt lat="42.873955" lon="-7.856112">
        <time>2022-07-13T10:42:48Z</time>
      </trkpt>
      <trkpt lat="42.873955" lon="-7.8562">
        <time>2022-07-13T10:42:52Z</time>
      </trkpt>
      <trkpt lat="42.873955" lon="-7.8562837">
        <time>2022-07-13T10:42:56Z</time>
      </trkpt>
      <trkpt lat="42.873947" lon="-7.8563533">
        <time>2022-07-13T10:43:00Z</time>
      </trkpt>
      <trkpt lat="42.873947" lon="-7.8564205">
        <time>2022-07-13T10:43:04Z</time>
      </trkpt>
      <trkpt lat="42.87394" lon="-7.8565087">
        <time>2022-07-13T10:43:09Z</time>
      </trkpt>
      <trkpt lat="42.87393" lon="-7.856592">
        <time>2022-07-13T10:43:14Z</time>
      </trkpt>
      <trkpt lat="42.87392" lon="-7.8566756">
        <time>2022-07-13T10:43:19Z</time>
      </trkpt>
      <trkpt lat="42.873913" lon="-7.8567505">
        <time>2022-07-13T10:43:24Z</time>
      </trkpt>
      <trkpt lat="42.87391" lon="-7.8568206">
        <time>2022-07-13T10:43:29Z</time>
      </trkpt>
      <trkpt lat="42.8739" lon="-7.856892">
        <time>2022-07-13T10:43:34Z</time>
      </trkpt>
      <trkpt lat="42.873898" lon="-7.856971">
        <time>2022-07-13T10:43:39Z</time>
      </trkpt>
      <trkpt lat="42.8739" lon="-7.8570533">
        <time>2022-07-13T10:43:44Z</time>
      </trkpt>
      <trkpt lat="42.8739" lon="-7.857129">
        <time>2022-07-13T10:43:49Z</time>
      </trkpt>
      <trkpt lat="42.8739" lon="-7.857201">
        <time>2022-07-13T10:43:53Z</time>
      </trkpt>
      <trkpt lat="42.873905" lon="-7.8572845">
        <time>2022-07-13T10:43:58Z</time>
      </trkpt>
      <trkpt lat="42.873917" lon="-7.8573666">
        <time>2022-07-13T10:44:03Z</time>
      </trkpt>
      <trkpt lat="42.873913" lon="-7.857444">
        <time>2022-07-13T10:44:09Z</time>
      </trkpt>
      <trkpt lat="42.873905" lon="-7.8575153">
        <time>2022-07-13T10:44:14Z</time>
      </trkpt>
      <trkpt lat="42.87391" lon="-7.8575873">
        <time>2022-07-13T10:44:19Z</time>
      </trkpt>
      <trkpt lat="42.873898" lon="-7.8576646">
        <time>2022-07-13T10:44:24Z</time>
      </trkpt>
      <trkpt lat="42.873886" lon="-7.85774">
        <time>2022-07-13T10:44:29Z</time>
      </trkpt>
      <trkpt lat="42.873848" lon="-7.857803">
        <time>2022-07-13T10:44:34Z</time>
      </trkpt>
      <trkpt lat="42.87382" lon="-7.857855">
        <time>2022-07-13T10:44:38Z</time>
      </trkpt>
      <trkpt lat="42.87381" lon="-7.857927">
        <time>2022-07-13T10:44:43Z</time>
      </trkpt>
      <trkpt lat="42.8738" lon="-7.858009">
        <time>2022-07-13T10:44:48Z</time>
      </trkpt>
      <trkpt lat="42.8738" lon="-7.8580728">
        <time>2022-07-13T10:44:52Z</time>
      </trkpt>
      <trkpt lat="42.8738" lon="-7.85814">
        <time>2022-07-13T10:44:57Z</time>
      </trkpt>
      <trkpt lat="42.873787" lon="-7.858217">
        <time>2022-07-13T10:45:02Z</time>
      </trkpt>
      <trkpt lat="42.87378" lon="-7.858288">
        <time>2022-07-13T10:45:06Z</time>
      </trkpt>
      <trkpt lat="42.873775" lon="-7.8583727">
        <time>2022-07-13T10:45:11Z</time>
      </trkpt>
      <trkpt lat="42.873775" lon="-7.8584394">
        <time>2022-07-13T10:45:15Z</time>
      </trkpt>
      <trkpt lat="42.87378" lon="-7.858515">
        <time>2022-07-13T10:45:20Z</time>
      </trkpt>
      <trkpt lat="42.87377" lon="-7.858583">
        <time>2022-07-13T10:45:25Z</time>
      </trkpt>
      <trkpt lat="42.873768" lon="-7.8586607">
        <time>2022-07-13T10:45:29Z</time>
      </trkpt>
      <trkpt lat="42.873756" lon="-7.8587356">
        <time>2022-07-13T10:45:33Z</time>
      </trkpt>
      <trkpt lat="42.873745" lon="-7.8588185">
        <time>2022-07-13T10:45:38Z</time>
      </trkpt>
      <trkpt lat="42.87374" lon="-7.8588915">
        <time>2022-07-13T10:45:42Z</time>
      </trkpt>
      <trkpt lat="42.87374" lon="-7.858977">
        <time>2022-07-13T10:45:47Z</time>
      </trkpt>
      <trkpt lat="42.87373" lon="-7.859048">
        <time>2022-07-13T10:45:51Z</time>
      </trkpt>
      <trkpt lat="42.873722" lon="-7.8591247">
        <time>2022-07-13T10:45:56Z</time>
      </trkpt>
      <trkpt lat="42.87371" lon="-7.8592024">
        <time>2022-07-13T10:46:01Z</time>
      </trkpt>
      <trkpt lat="42.8737" lon="-7.859293">
        <time>2022-07-13T10:46:06Z</time>
      </trkpt>
      <trkpt lat="42.873695" lon="-7.8593755">
        <time>2022-07-13T10:46:11Z</time>
      </trkpt>
      <trkpt lat="42.873703" lon="-7.8594456">
        <time>2022-07-13T10:46:15Z</time>
      </trkpt>
      <trkpt lat="42.873726" lon="-7.8595085">
        <time>2022-07-13T10:46:20Z</time>
      </trkpt>
      <trkpt lat="42.873783" lon="-7.859553">
        <time>2022-07-13T10:46:25Z</time>
      </trkpt>
      <trkpt lat="42.87383" lon="-7.859576">
        <time>2022-07-13T10:46:28Z</time>
      </trkpt>
      <trkpt lat="42.873886" lon="-7.859606">
        <time>2022-07-13T10:46:32Z</time>
      </trkpt>
      <trkpt lat="42.873924" lon="-7.859626">
        <time>2022-07-13T10:46:35Z</time>
      </trkpt>
      <trkpt lat="42.873985" lon="-7.859648">
        <time>2022-07-13T10:46:40Z</time>
      </trkpt>
      <trkpt lat="42.874027" lon="-7.859668">
        <time>2022-07-13T10:46:44Z</time>
      </trkpt>
      <trkpt lat="42.87408" lon="-7.8596897">
        <time>2022-07-13T10:46:49Z</time>
      </trkpt>
      <trkpt lat="42.874134" lon="-7.859705">
        <time>2022-07-13T10:46:54Z</time>
      </trkpt>
      <trkpt lat="42.874184" lon="-7.859725">
        <time>2022-07-13T10:46:58Z</time>
      </trkpt>
      <trkpt lat="42.87424" lon="-7.8597484">
        <time>2022-07-13T10:47:03Z</time>
      </trkpt>
      <trkpt lat="42.874294" lon="-7.859768">
        <time>2022-07-13T10:47:09Z</time>
      </trkpt>
      <trkpt lat="42.87436" lon="-7.859788">
        <time>2022-07-13T10:47:14Z</time>
      </trkpt>
      <trkpt lat="42.874413" lon="-7.8598046">
        <time>2022-07-13T10:47:19Z</time>
      </trkpt>
      <trkpt lat="42.874466" lon="-7.859827">
        <time>2022-07-13T10:47:24Z</time>
      </trkpt>
      <trkpt lat="42.87452" lon="-7.8598514">
        <time>2022-07-13T10:47:28Z</time>
      </trkpt>
      <trkpt lat="42.87457" lon="-7.859873">
        <time>2022-07-13T10:47:32Z</time>
      </trkpt>
      <trkpt lat="42.874622" lon="-7.8599195">
        <time>2022-07-13T10:47:37Z</time>
      </trkpt>
      <trkpt lat="42.87467" lon="-7.8599806">
        <time>2022-07-13T10:47:42Z</time>
      </trkpt>
      <trkpt lat="42.8747" lon="-7.8600473">
        <time>2022-07-13T10:47:47Z</time>
      </trkpt>
      <trkpt lat="42.87472" lon="-7.8601146">
        <time>2022-07-13T10:47:51Z</time>
      </trkpt>
      <trkpt lat="42.874737" lon="-7.8601823">
        <time>2022-07-13T10:47:55Z</time>
      </trkpt>
      <trkpt lat="42.87475" lon="-7.860262">
        <time>2022-07-13T10:47:59Z</time>
      </trkpt>
      <trkpt lat="42.87476" lon="-7.8603477">
        <time>2022-07-13T10:48:03Z</time>
      </trkpt>
      <trkpt lat="42.874767" lon="-7.8604164">
        <time>2022-07-13T10:48:07Z</time>
      </trkpt>
      <trkpt lat="42.874775" lon="-7.8604903">
        <time>2022-07-13T10:48:12Z</time>
      </trkpt>
      <trkpt lat="42.874805" lon="-7.860558">
        <time>2022-07-13T10:48:17Z</time>
      </trkpt>
      <trkpt lat="42.87484" lon="-7.8606286">
        <time>2022-07-13T10:48:22Z</time>
      </trkpt>
      <trkpt lat="42.87489" lon="-7.8606753">
        <time>2022-07-13T10:48:27Z</time>
      </trkpt>
      <trkpt lat="42.874943" lon="-7.860668">
        <time>2022-07-13T10:48:31Z</time>
      </trkpt>
      <trkpt lat="42.874996" lon="-7.860666">
        <time>2022-07-13T10:48:34Z</time>
      </trkpt>
      <trkpt lat="42.875053" lon="-7.8606725">
        <time>2022-07-13T10:48:38Z</time>
      </trkpt>
      <trkpt lat="42.875114" lon="-7.8606763">
        <time>2022-07-13T10:48:43Z</time>
      </trkpt>
      <trkpt lat="42.875168" lon="-7.860706">
        <time>2022-07-13T10:48:49Z</time>
      </trkpt>
      <trkpt lat="42.875225" lon="-7.860721">
        <time>2022-07-13T10:48:54Z</time>
      </trkpt>
      <trkpt lat="42.87529" lon="-7.860728">
        <time>2022-07-13T10:48:59Z</time>
      </trkpt>
      <trkpt lat="42.87535" lon="-7.860737">
        <time>2022-07-13T10:49:04Z</time>
      </trkpt>
      <trkpt lat="42.87541" lon="-7.860739">
        <time>2022-07-13T10:49:08Z</time>
      </trkpt>
      <trkpt lat="42.87546" lon="-7.860741">
        <time>2022-07-13T10:49:12Z</time>
      </trkpt>
      <trkpt lat="42.875515" lon="-7.860739">
        <time>2022-07-13T10:49:16Z</time>
      </trkpt>
      <trkpt lat="42.875565" lon="-7.860737">
        <time>2022-07-13T10:49:20Z</time>
      </trkpt>
      <trkpt lat="42.875633" lon="-7.860737">
        <time>2022-07-13T10:49:25Z</time>
      </trkpt>
      <trkpt lat="42.875694" lon="-7.860736">
        <time>2022-07-13T10:49:29Z</time>
      </trkpt>
      <trkpt lat="42.875748" lon="-7.860739">
        <time>2022-07-13T10:49:33Z</time>
      </trkpt>
      <trkpt lat="42.87578" lon="-7.8607903">
        <time>2022-07-13T10:49:39Z</time>
      </trkpt>
      <trkpt lat="42.875786" lon="-7.860867">
        <time>2022-07-13T10:49:44Z</time>
      </trkpt>
      <trkpt lat="42.875786" lon="-7.8609333">
        <time>2022-07-13T10:49:48Z</time>
      </trkpt>
      <trkpt lat="42.87579" lon="-7.861015">
        <time>2022-07-13T10:49:53Z</time>
      </trkpt>
      <trkpt lat="42.875793" lon="-7.8610888">
        <time>2022-07-13T10:49:57Z</time>
      </trkpt>
      <trkpt lat="42.8758" lon="-7.86116">
        <time>2022-07-13T10:50:01Z</time>
      </trkpt>
      <trkpt lat="42.87581" lon="-7.8612356">
        <time>2022-07-13T10:50:05Z</time>
      </trkpt>
      <trkpt lat="42.875816" lon="-7.861312">
        <time>2022-07-13T10:50:09Z</time>
      </trkpt>
      <trkpt lat="42.875835" lon="-7.8613896">
        <time>2022-07-13T10:50:14Z</time>
      </trkpt>
      <trkpt lat="42.875854" lon="-7.8614693">
        <time>2022-07-13T10:50:19Z</time>
      </trkpt>
      <trkpt lat="42.875862" lon="-7.8615413">
        <time>2022-07-13T10:50:23Z</time>
      </trkpt>
      <trkpt lat="42.875877" lon="-7.861623">
        <time>2022-07-13T10:50:28Z</time>
      </trkpt>
      <trkpt lat="42.87589" lon="-7.861688">
        <time>2022-07-13T10:50:32Z</time>
      </trkpt>
      <trkpt lat="42.875896" lon="-7.861789">
        <time>2022-07-13T10:50:38Z</time>
      </trkpt>
      <trkpt lat="42.875908" lon="-7.861864">
        <time>2022-07-13T10:50:42Z</time>
      </trkpt>
      <trkpt lat="42.875916" lon="-7.8619275">
        <time>2022-07-13T10:50:46Z</time>
      </trkpt>
      <trkpt lat="42.875927" lon="-7.862008">
        <time>2022-07-13T10:50:51Z</time>
      </trkpt>
      <trkpt lat="42.87594" lon="-7.862093">
        <time>2022-07-13T10:50:55Z</time>
      </trkpt>
      <trkpt lat="42.87594" lon="-7.86216">
        <time>2022-07-13T10:50:58Z</time>
      </trkpt>
      <trkpt lat="42.87594" lon="-7.862239">
        <time>2022-07-13T10:51:02Z</time>
      </trkpt>
      <trkpt lat="42.87594" lon="-7.862299">
        <time>2022-07-13T10:51:06Z</time>
      </trkpt>
      <trkpt lat="42.87594" lon="-7.862377">
        <time>2022-07-13T10:51:11Z</time>
      </trkpt>
      <trkpt lat="42.87593" lon="-7.8624597">
        <time>2022-07-13T10:51:15Z</time>
      </trkpt>
      <trkpt lat="42.875935" lon="-7.862527">
        <time>2022-07-13T10:51:18Z</time>
      </trkpt>
      <trkpt lat="42.87594" lon="-7.862604">
        <time>2022-07-13T10:51:22Z</time>
      </trkpt>
      <trkpt lat="42.875935" lon="-7.8626747">
        <time>2022-07-13T10:51:26Z</time>
      </trkpt>
      <trkpt lat="42.87594" lon="-7.86274">
        <time>2022-07-13T10:51:30Z</time>
      </trkpt>
      <trkpt lat="42.875957" lon="-7.8628135">
        <time>2022-07-13T10:51:34Z</time>
      </trkpt>
      <trkpt lat="42.875957" lon="-7.8628955">
        <time>2022-07-13T10:51:38Z</time>
      </trkpt>
      <trkpt lat="42.87594" lon="-7.8629694">
        <time>2022-07-13T10:51:42Z</time>
      </trkpt>
      <trkpt lat="42.87593" lon="-7.863036">
        <time>2022-07-13T10:51:46Z</time>
      </trkpt>
      <trkpt lat="42.875916" lon="-7.8631034">
        <time>2022-07-13T10:51:51Z</time>
      </trkpt>
      <trkpt lat="42.8759" lon="-7.8631797">
        <time>2022-07-13T10:51:56Z</time>
      </trkpt>
      <trkpt lat="42.87587" lon="-7.863243">
        <time>2022-07-13T10:52:00Z</time>
      </trkpt>
      <trkpt lat="42.875843" lon="-7.863296">
        <time>2022-07-13T10:52:04Z</time>
      </trkpt>
      <trkpt lat="42.875828" lon="-7.863363">
        <time>2022-07-13T10:52:11Z</time>
      </trkpt>
      <trkpt lat="42.875843" lon="-7.863449">
        <time>2022-07-13T10:52:16Z</time>
      </trkpt>
      <trkpt lat="42.87585" lon="-7.86352">
        <time>2022-07-13T10:52:20Z</time>
      </trkpt>
      <trkpt lat="42.875874" lon="-7.86359">
        <time>2022-07-13T10:52:25Z</time>
      </trkpt>
      <trkpt lat="42.8759" lon="-7.863665">
        <time>2022-07-13T10:52:30Z</time>
      </trkpt>
      <trkpt lat="42.875927" lon="-7.863723">
        <time>2022-07-13T10:52:34Z</time>
      </trkpt>
      <trkpt lat="42.87592" lon="-7.863799">
        <time>2022-07-13T10:52:39Z</time>
      </trkpt>
      <trkpt lat="42.875885" lon="-7.8638687">
        <time>2022-07-13T10:52:43Z</time>
      </trkpt>
      <trkpt lat="42.87585" lon="-7.8639464">
        <time>2022-07-13T10:52:47Z</time>
      </trkpt>
      <trkpt lat="42.875816" lon="-7.8640156">
        <time>2022-07-13T10:52:51Z</time>
      </trkpt>
      <trkpt lat="42.875786" lon="-7.8640704">
        <time>2022-07-13T10:52:55Z</time>
      </trkpt>
      <trkpt lat="42.875763" lon="-7.8641415">
        <time>2022-07-13T10:53:00Z</time>
      </trkpt>
      <trkpt lat="42.875736" lon="-7.864215">
        <time>2022-07-13T10:53:04Z</time>
      </trkpt>
      <trkpt lat="42.875713" lon="-7.864272">
        <time>2022-07-13T10:53:07Z</time>
      </trkpt>
      <trkpt lat="42.875717" lon="-7.864356">
        <time>2022-07-13T10:53:12Z</time>
      </trkpt>
      <trkpt lat="42.875713" lon="-7.8644347">
        <time>2022-07-13T10:53:16Z</time>
      </trkpt>
      <trkpt lat="42.8757" lon="-7.864517">
        <time>2022-07-13T10:53:20Z</time>
      </trkpt>
      <trkpt lat="42.875694" lon="-7.8645945">
        <time>2022-07-13T10:53:24Z</time>
      </trkpt>
      <trkpt lat="42.875687" lon="-7.8646646">
        <time>2022-07-13T10:53:28Z</time>
      </trkpt>
      <trkpt lat="42.87567" lon="-7.8647375">
        <time>2022-07-13T10:53:33Z</time>
      </trkpt>
      <trkpt lat="42.875664" lon="-7.864819">
        <time>2022-07-13T10:53:38Z</time>
      </trkpt>
      <trkpt lat="42.875656" lon="-7.8648863">
        <time>2022-07-13T10:53:41Z</time>
      </trkpt>
      <trkpt lat="42.875645" lon="-7.8649755">
        <time>2022-07-13T10:53:45Z</time>
      </trkpt>
      <trkpt lat="42.87564" lon="-7.865043">
        <time>2022-07-13T10:53:49Z</time>
      </trkpt>
      <trkpt lat="42.87563" lon="-7.865123">
        <time>2022-07-13T10:53:54Z</time>
      </trkpt>
      <trkpt lat="42.875618" lon="-7.865207">
        <time>2022-07-13T10:53:58Z</time>
      </trkpt>
      <trkpt lat="42.875614" lon="-7.865287">
        <time>2022-07-13T10:54:02Z</time>
      </trkpt>
      <trkpt lat="42.875603" lon="-7.8653593">
        <time>2022-07-13T10:54:06Z</time>
      </trkpt>
      <trkpt lat="42.875587" lon="-7.8654304">
        <time>2022-07-13T10:54:11Z</time>
      </trkpt>
      <trkpt lat="42.875576" lon="-7.8655124">
        <time>2022-07-13T10:54:16Z</time>
      </trkpt>
      <trkpt lat="42.875576" lon="-7.8655934">
        <time>2022-07-13T10:54:20Z</time>
      </trkpt>
      <trkpt lat="42.87558" lon="-7.8656645">
        <time>2022-07-13T10:54:24Z</time>
      </trkpt>
      <trkpt lat="42.875565" lon="-7.8657317">
        <time>2022-07-13T10:54:29Z</time>
      </trkpt>
      <trkpt lat="42.87555" lon="-7.8658195">
        <time>2022-07-13T10:54:34Z</time>
      </trkpt>
      <trkpt lat="42.875546" lon="-7.865888">
        <time>2022-07-13T10:54:38Z</time>
      </trkpt>
      <trkpt lat="42.87554" lon="-7.865964">
        <time>2022-07-13T10:54:43Z</time>
      </trkpt>
      <trkpt lat="42.875557" lon="-7.866029">
        <time>2022-07-13T10:54:48Z</time>
      </trkpt>
      <trkpt lat="42.875603" lon="-7.8660674">
        <time>2022-07-13T10:54:53Z</time>
      </trkpt>
      <trkpt lat="42.87562" lon="-7.8661304">
        <time>2022-07-13T10:54:58Z</time>
      </trkpt>
      <trkpt lat="42.87561" lon="-7.8662095">
        <time>2022-07-13T10:55:03Z</time>
      </trkpt>
      <trkpt lat="42.875595" lon="-7.866278">
        <time>2022-07-13T10:55:08Z</time>
      </trkpt>
      <trkpt lat="42.875584" lon="-7.8663554">
        <time>2022-07-13T10:55:13Z</time>
      </trkpt>
      <trkpt lat="42.875584" lon="-7.8664265">
        <time>2022-07-13T10:55:19Z</time>
      </trkpt>
      <trkpt lat="42.87556" lon="-7.8664985">
        <time>2022-07-13T10:55:25Z</time>
      </trkpt>
      <trkpt lat="42.875526" lon="-7.86655">
        <time>2022-07-13T10:55:31Z</time>
      </trkpt>
      <trkpt lat="42.8755" lon="-7.866607">
        <time>2022-07-13T10:55:36Z</time>
      </trkpt>
      <trkpt lat="42.87548" lon="-7.8666763">
        <time>2022-07-13T10:55:43Z</time>
      </trkpt>
      <trkpt lat="42.875446" lon="-7.8666625">
        <time>2022-07-13T10:55:54Z</time>
      </trkpt>
      <trkpt lat="42.875412" lon="-7.866635">
        <time>2022-07-13T10:55:59Z</time>
      </trkpt>
      <trkpt lat="42.875347" lon="-7.8666615">
        <time>2022-07-14T04:52:17Z</time>
      </trkpt>
      <trkpt lat="42.875343" lon="-7.86667">
        <time>2022-07-14T04:52:18Z</time>
      </trkpt>
      <trkpt lat="42.875343" lon="-7.866672">
        <time>2022-07-14T04:52:19Z</time>
      </trkpt>
      <trkpt lat="42.87534" lon="-7.866676">
        <time>2022-07-14T04:52:20Z</time>
      </trkpt>
      <trkpt lat="42.87534" lon="-7.866679">
        <time>2022-07-14T04:52:21Z</time>
      </trkpt>
      <trkpt lat="42.875336" lon="-7.8666835">
        <time>2022-07-14T04:52:22Z</time>
      </trkpt>
      <trkpt lat="42.87533" lon="-7.866688">
        <time>2022-07-14T04:52:23Z</time>
      </trkpt>
      <trkpt lat="42.875328" lon="-7.866693">
        <time>2022-07-14T04:52:24Z</time>
      </trkpt>
      <trkpt lat="42.875324" lon="-7.8666945">
        <time>2022-07-14T04:52:25Z</time>
      </trkpt>
      <trkpt lat="42.875324" lon="-7.866697">
        <time>2022-07-14T04:52:26Z</time>
      </trkpt>
      <trkpt lat="42.87532" lon="-7.8667016">
        <time>2022-07-14T04:52:27Z</time>
      </trkpt>
      <trkpt lat="42.87532" lon="-7.866706">
        <time>2022-07-14T04:52:28Z</time>
      </trkpt>
      <trkpt lat="42.875317" lon="-7.86671">
        <time>2022-07-14T04:52:29Z</time>
      </trkpt>
      <trkpt lat="42.875317" lon="-7.8667145">
        <time>2022-07-14T04:52:30Z</time>
      </trkpt>
      <trkpt lat="42.875313" lon="-7.86672">
        <time>2022-07-14T04:52:31Z</time>
      </trkpt>
      <trkpt lat="42.87531" lon="-7.866725">
        <time>2022-07-14T04:52:32Z</time>
      </trkpt>
      <trkpt lat="42.87531" lon="-7.866732">
        <time>2022-07-14T04:52:33Z</time>
      </trkpt>
      <trkpt lat="42.8753" lon="-7.8667407">
        <time>2022-07-14T04:52:34Z</time>
      </trkpt>
      <trkpt lat="42.875298" lon="-7.866749">
        <time>2022-07-14T04:52:35Z</time>
      </trkpt>
      <trkpt lat="42.875294" lon="-7.866759">
        <time>2022-07-14T04:52:36Z</time>
      </trkpt>
      <trkpt lat="42.87529" lon="-7.8667727">
        <time>2022-07-14T04:52:37Z</time>
      </trkpt>
      <trkpt lat="42.87528" lon="-7.8668666">
        <time>2022-07-14T04:52:42Z</time>
      </trkpt>
      <trkpt lat="42.87526" lon="-7.8669353">
        <time>2022-07-14T04:52:46Z</time>
      </trkpt>
      <trkpt lat="42.87523" lon="-7.8670015">
        <time>2022-07-14T04:52:50Z</time>
      </trkpt>
      <trkpt lat="42.875175" lon="-7.867053">
        <time>2022-07-14T04:52:55Z</time>
      </trkpt>
      <trkpt lat="42.875137" lon="-7.8671093">
        <time>2022-07-14T04:53:00Z</time>
      </trkpt>
      <trkpt lat="42.875084" lon="-7.867153">
        <time>2022-07-14T04:53:05Z</time>
      </trkpt>
      <trkpt lat="42.875034" lon="-7.8671947">
        <time>2022-07-14T04:53:09Z</time>
      </trkpt>
      <trkpt lat="42.875" lon="-7.867243">
        <time>2022-07-14T04:53:14Z</time>
      </trkpt>
      <trkpt lat="42.87496" lon="-7.8672986">
        <time>2022-07-14T04:53:19Z</time>
      </trkpt>
      <trkpt lat="42.874912" lon="-7.867355">
        <time>2022-07-14T04:53:24Z</time>
      </trkpt>
      <trkpt lat="42.874866" lon="-7.867408">
        <time>2022-07-14T04:53:29Z</time>
      </trkpt>
      <trkpt lat="42.874836" lon="-7.8674574">
        <time>2022-07-14T04:53:33Z</time>
      </trkpt>
      <trkpt lat="42.874794" lon="-7.8675103">
        <time>2022-07-14T04:53:39Z</time>
      </trkpt>
      <trkpt lat="42.87477" lon="-7.867568">
        <time>2022-07-14T04:53:44Z</time>
      </trkpt>
      <trkpt lat="42.874744" lon="-7.867641">
        <time>2022-07-14T04:53:50Z</time>
      </trkpt>
      <trkpt lat="42.874725" lon="-7.8677025">
        <time>2022-07-14T04:53:54Z</time>
      </trkpt>
      <trkpt lat="42.874687" lon="-7.867757">
        <time>2022-07-14T04:53:58Z</time>
      </trkpt>
      <trkpt lat="42.874645" lon="-7.8678155">
        <time>2022-07-14T04:54:03Z</time>
      </trkpt>
      <trkpt lat="42.874615" lon="-7.8678885">
        <time>2022-07-14T04:54:08Z</time>
      </trkpt>
      <trkpt lat="42.874596" lon="-7.867951">
        <time>2022-07-14T04:54:11Z</time>
      </trkpt>
      <trkpt lat="42.874588" lon="-7.8680344">
        <time>2022-07-14T04:54:15Z</time>
      </trkpt>
      <trkpt lat="42.874565" lon="-7.868097">
        <time>2022-07-14T04:54:18Z</time>
      </trkpt>
      <trkpt lat="42.874535" lon="-7.868151">
        <time>2022-07-14T04:54:21Z</time>
      </trkpt>
      <trkpt lat="42.874504" lon="-7.8682146">
        <time>2022-07-14T04:54:25Z</time>
      </trkpt>
      <trkpt lat="42.874477" lon="-7.868265">
        <time>2022-07-14T04:54:29Z</time>
      </trkpt>
      <trkpt lat="42.87445" lon="-7.8683314">
        <time>2022-07-14T04:54:34Z</time>
      </trkpt>
      <trkpt lat="42.87443" lon="-7.868398">
        <time>2022-07-14T04:54:39Z</time>
      </trkpt>
      <trkpt lat="42.8744" lon="-7.868466">
        <time>2022-07-14T04:54:44Z</time>
      </trkpt>
      <trkpt lat="42.87437" lon="-7.8685355">
        <time>2022-07-14T04:54:49Z</time>
      </trkpt>
      <trkpt lat="42.87433" lon="-7.868593">
        <time>2022-07-14T04:54:54Z</time>
      </trkpt>
      <trkpt lat="42.874294" lon="-7.8686438">
        <time>2022-07-14T04:54:59Z</time>
      </trkpt>
      <trkpt lat="42.874275" lon="-7.868699">
        <time>2022-07-14T04:55:04Z</time>
      </trkpt>
      <trkpt lat="42.87423" lon="-7.86876">
        <time>2022-07-14T04:55:09Z</time>
      </trkpt>
      <trkpt lat="42.87418" lon="-7.8688283">
        <time>2022-07-14T04:55:13Z</time>
      </trkpt>
      <trkpt lat="42.874134" lon="-7.868876">
        <time>2022-07-14T04:55:17Z</time>
      </trkpt>
      <trkpt lat="42.874077" lon="-7.8689303">
        <time>2022-07-14T04:55:21Z</time>
      </trkpt>
      <trkpt lat="42.87403" lon="-7.868971">
        <time>2022-07-14T04:55:24Z</time>
      </trkpt>
      <trkpt lat="42.873974" lon="-7.86902">
        <time>2022-07-14T04:55:28Z</time>
      </trkpt>
      <trkpt lat="42.873936" lon="-7.869063">
        <time>2022-07-14T04:55:31Z</time>
      </trkpt>
      <trkpt lat="42.8739" lon="-7.86912">
        <time>2022-07-14T04:55:34Z</time>
      </trkpt>
      <trkpt lat="42.873863" lon="-7.8691726">
        <time>2022-07-14T04:55:37Z</time>
      </trkpt>
      <trkpt lat="42.873825" lon="-7.8692265">
        <time>2022-07-14T04:55:41Z</time>
      </trkpt>
      <trkpt lat="42.873775" lon="-7.8692565">
        <time>2022-07-14T04:55:45Z</time>
      </trkpt>
      <trkpt lat="42.87371" lon="-7.869269">
        <time>2022-07-14T04:55:49Z</time>
      </trkpt>
      <trkpt lat="42.87366" lon="-7.869272">
        <time>2022-07-14T04:55:53Z</time>
      </trkpt>
      <trkpt lat="42.87361" lon="-7.8692846">
        <time>2022-07-14T04:55:58Z</time>
      </trkpt>
      <trkpt lat="42.87355" lon="-7.869293">
        <time>2022-07-14T04:56:03Z</time>
      </trkpt>
      <trkpt lat="42.873497" lon="-7.8693132">
        <time>2022-07-14T04:56:08Z</time>
      </trkpt>
      <trkpt lat="42.873444" lon="-7.869323">
        <time>2022-07-14T04:56:12Z</time>
      </trkpt>
      <trkpt lat="42.87339" lon="-7.8693314">
        <time>2022-07-14T04:56:17Z</time>
      </trkpt>
      <trkpt lat="42.873325" lon="-7.8692956">
        <time>2022-07-14T04:56:22Z</time>
      </trkpt>
      <trkpt lat="42.87326" lon="-7.8692594">
        <time>2022-07-14T04:56:26Z</time>
      </trkpt>
      <trkpt lat="42.87321" lon="-7.869231">
        <time>2022-07-14T04:56:30Z</time>
      </trkpt>
      <trkpt lat="42.873257" lon="-7.869281">
        <time>2022-07-14T04:56:38Z</time>
      </trkpt>
      <trkpt lat="42.873302" lon="-7.8693247">
        <time>2022-07-14T04:56:42Z</time>
      </trkpt>
      <trkpt lat="42.873333" lon="-7.8693748">
        <time>2022-07-14T04:56:46Z</time>
      </trkpt>
      <trkpt lat="42.87336" lon="-7.869444">
        <time>2022-07-14T04:56:50Z</time>
      </trkpt>
      <trkpt lat="42.87336" lon="-7.8695164">
        <time>2022-07-14T04:56:54Z</time>
      </trkpt>
      <trkpt lat="42.873352" lon="-7.8695893">
        <time>2022-07-14T04:56:58Z</time>
      </trkpt>
      <trkpt lat="42.873344" lon="-7.8696623">
        <time>2022-07-14T04:57:02Z</time>
      </trkpt>
      <trkpt lat="42.873337" lon="-7.869728">
        <time>2022-07-14T04:57:06Z</time>
      </trkpt>
      <trkpt lat="42.873337" lon="-7.8697915">
        <time>2022-07-14T04:57:11Z</time>
      </trkpt>
      <trkpt lat="42.873352" lon="-7.86988">
        <time>2022-07-14T04:57:17Z</time>
      </trkpt>
      <trkpt lat="42.87336" lon="-7.869954">
        <time>2022-07-14T04:57:21Z</time>
      </trkpt>
      <trkpt lat="42.873344" lon="-7.8700404">
        <time>2022-07-14T04:57:25Z</time>
      </trkpt>
      <trkpt lat="42.87333" lon="-7.8701105">
        <time>2022-07-14T04:57:29Z</time>
      </trkpt>
      <trkpt lat="42.873325" lon="-7.8701854">
        <time>2022-07-14T04:57:33Z</time>
      </trkpt>
      <trkpt lat="42.87333" lon="-7.870258">
        <time>2022-07-14T04:57:37Z</time>
      </trkpt>
      <trkpt lat="42.87333" lon="-7.8703313">
        <time>2022-07-14T04:57:41Z</time>
      </trkpt>
      <trkpt lat="42.873325" lon="-7.870393">
        <time>2022-07-14T04:57:45Z</time>
      </trkpt>
      <trkpt lat="42.873367" lon="-7.870423">
        <time>2022-07-14T04:57:55Z</time>
      </trkpt>
      <trkpt lat="42.873432" lon="-7.8704653">
        <time>2022-07-14T04:57:59Z</time>
      </trkpt>
      <trkpt lat="42.87348" lon="-7.870507">
        <time>2022-07-14T04:58:02Z</time>
      </trkpt>
      <trkpt lat="42.873505" lon="-7.870563">
        <time>2022-07-14T04:58:06Z</time>
      </trkpt>
      <trkpt lat="42.873486" lon="-7.870633">
        <time>2022-07-14T04:58:11Z</time>
      </trkpt>
      <trkpt lat="42.87347" lon="-7.8706994">
        <time>2022-07-14T04:58:16Z</time>
      </trkpt>
      <trkpt lat="42.873455" lon="-7.8707733">
        <time>2022-07-14T04:58:20Z</time>
      </trkpt>
      <trkpt lat="42.873447" lon="-7.8708487">
        <time>2022-07-14T04:58:24Z</time>
      </trkpt>
      <trkpt lat="42.87344" lon="-7.87092">
        <time>2022-07-14T04:58:28Z</time>
      </trkpt>
      <trkpt lat="42.873425" lon="-7.870997">
        <time>2022-07-14T04:58:32Z</time>
      </trkpt>
      <trkpt lat="42.873405" lon="-7.871075">
        <time>2022-07-14T04:58:36Z</time>
      </trkpt>
      <trkpt lat="42.873386" lon="-7.8711467">
        <time>2022-07-14T04:58:40Z</time>
      </trkpt>
      <trkpt lat="42.87337" lon="-7.8712225">
        <time>2022-07-14T04:58:44Z</time>
      </trkpt>
      <trkpt lat="42.873356" lon="-7.871311">
        <time>2022-07-14T04:58:48Z</time>
      </trkpt>
      <trkpt lat="42.873337" lon="-7.871389">
        <time>2022-07-14T04:58:52Z</time>
      </trkpt>
      <trkpt lat="42.87332" lon="-7.871471">
        <time>2022-07-14T04:58:56Z</time>
      </trkpt>
      <trkpt lat="42.87331" lon="-7.871546">
        <time>2022-07-14T04:59:00Z</time>
      </trkpt>
      <trkpt lat="42.873302" lon="-7.8716216">
        <time>2022-07-14T04:59:04Z</time>
      </trkpt>
      <trkpt lat="42.873295" lon="-7.871702">
        <time>2022-07-14T04:59:08Z</time>
      </trkpt>
      <trkpt lat="42.87329" lon="-7.8717723">
        <time>2022-07-14T04:59:12Z</time>
      </trkpt>
      <trkpt lat="42.873287" lon="-7.8718433">
        <time>2022-07-14T04:59:17Z</time>
      </trkpt>
      <trkpt lat="42.873283" lon="-7.871926">
        <time>2022-07-14T04:59:22Z</time>
      </trkpt>
      <trkpt lat="42.87328" lon="-7.872002">
        <time>2022-07-14T04:59:26Z</time>
      </trkpt>
      <trkpt lat="42.873287" lon="-7.872081">
        <time>2022-07-14T04:59:30Z</time>
      </trkpt>
      <trkpt lat="42.87329" lon="-7.87215">
        <time>2022-07-14T04:59:34Z</time>
      </trkpt>
      <trkpt lat="42.87331" lon="-7.872265">
        <time>2022-07-14T04:59:40Z</time>
      </trkpt>
      <trkpt lat="42.873314" lon="-7.87228">
        <time>2022-07-14T04:59:43Z</time>
      </trkpt>
      <trkpt lat="42.87335" lon="-7.8723755">
        <time>2022-07-14T04:59:49Z</time>
      </trkpt>
      <trkpt lat="42.87336" lon="-7.872436">
        <time>2022-07-14T04:59:52Z</time>
      </trkpt>
      <trkpt lat="42.873386" lon="-7.8725038">
        <time>2022-07-14T04:59:56Z</time>
      </trkpt>
      <trkpt lat="42.87341" lon="-7.8725634">
        <time>2022-07-14T05:00:00Z</time>
      </trkpt>
      <trkpt lat="42.873447" lon="-7.8726273">
        <time>2022-07-14T05:00:05Z</time>
      </trkpt>
      <trkpt lat="42.8735" lon="-7.872657">
        <time>2022-07-14T05:00:09Z</time>
      </trkpt>
      <trkpt lat="42.87355" lon="-7.8726764">
        <time>2022-07-14T05:00:13Z</time>
      </trkpt>
      <trkpt lat="42.87361" lon="-7.8727">
        <time>2022-07-14T05:00:18Z</time>
      </trkpt>
      <trkpt lat="42.873665" lon="-7.8727264">
        <time>2022-07-14T05:00:22Z</time>
      </trkpt>
      <trkpt lat="42.873714" lon="-7.8727474">
        <time>2022-07-14T05:00:26Z</time>
      </trkpt>
      <trkpt lat="42.87377" lon="-7.872779">
        <time>2022-07-14T05:00:31Z</time>
      </trkpt>
      <trkpt lat="42.87382" lon="-7.872823">
        <time>2022-07-14T05:00:35Z</time>
      </trkpt>
      <trkpt lat="42.873863" lon="-7.872862">
        <time>2022-07-14T05:00:39Z</time>
      </trkpt>
      <trkpt lat="42.87391" lon="-7.8728914">
        <time>2022-07-14T05:00:43Z</time>
      </trkpt>
      <trkpt lat="42.873966" lon="-7.8729095">
        <time>2022-07-14T05:00:47Z</time>
      </trkpt>
      <trkpt lat="42.87402" lon="-7.8729167">
        <time>2022-07-14T05:00:51Z</time>
      </trkpt>
      <trkpt lat="42.874065" lon="-7.8729324">
        <time>2022-07-14T05:00:55Z</time>
      </trkpt>
      <trkpt lat="42.874123" lon="-7.8729672">
        <time>2022-07-14T05:01:00Z</time>
      </trkpt>
      <trkpt lat="42.87418" lon="-7.8730164">
        <time>2022-07-14T05:01:05Z</time>
      </trkpt>
      <trkpt lat="42.874203" lon="-7.873073">
        <time>2022-07-14T05:01:09Z</time>
      </trkpt>
      <trkpt lat="42.874203" lon="-7.873132">
        <time>2022-07-14T05:01:12Z</time>
      </trkpt>
      <trkpt lat="42.874195" lon="-7.873224">
        <time>2022-07-14T05:01:18Z</time>
      </trkpt>
      <trkpt lat="42.87419" lon="-7.873297">
        <time>2022-07-14T05:01:22Z</time>
      </trkpt>
      <trkpt lat="42.87419" lon="-7.873366">
        <time>2022-07-14T05:01:26Z</time>
      </trkpt>
      <trkpt lat="42.874184" lon="-7.873446">
        <time>2022-07-14T05:01:31Z</time>
      </trkpt>
      <trkpt lat="42.874184" lon="-7.873519">
        <time>2022-07-14T05:01:35Z</time>
      </trkpt>
      <trkpt lat="42.874187" lon="-7.873606">
        <time>2022-07-14T05:01:39Z</time>
      </trkpt>
      <trkpt lat="42.8742" lon="-7.8736863">
        <time>2022-07-14T05:01:43Z</time>
      </trkpt>
      <trkpt lat="42.874203" lon="-7.873757">
        <time>2022-07-14T05:01:47Z</time>
      </trkpt>
      <trkpt lat="42.87421" lon="-7.873842">
        <time>2022-07-14T05:01:52Z</time>
      </trkpt>
      <trkpt lat="42.87422" lon="-7.873914">
        <time>2022-07-14T05:01:56Z</time>
      </trkpt>
      <trkpt lat="42.874233" lon="-7.873997">
        <time>2022-07-14T05:02:00Z</time>
      </trkpt>
      <trkpt lat="42.87425" lon="-7.8740635">
        <time>2022-07-14T05:02:03Z</time>
      </trkpt>
      <trkpt lat="42.87425" lon="-7.8741426">
        <time>2022-07-14T05:02:07Z</time>
      </trkpt>
      <trkpt lat="42.874256" lon="-7.874217">
        <time>2022-07-14T05:02:11Z</time>
      </trkpt>
      <trkpt lat="42.874264" lon="-7.8742814">
        <time>2022-07-14T05:02:15Z</time>
      </trkpt>
      <trkpt lat="42.874264" lon="-7.874373">
        <time>2022-07-14T05:02:20Z</time>
      </trkpt>
      <trkpt lat="42.874268" lon="-7.8744454">
        <time>2022-07-14T05:02:24Z</time>
      </trkpt>
      <trkpt lat="42.874268" lon="-7.874518">
        <time>2022-07-14T05:02:29Z</time>
      </trkpt>
      <trkpt lat="42.87426" lon="-7.874608">
        <time>2022-07-14T05:02:34Z</time>
      </trkpt>
      <trkpt lat="42.874233" lon="-7.8746815">
        <time>2022-07-14T05:02:38Z</time>
      </trkpt>
      <trkpt lat="42.874203" lon="-7.87475">
        <time>2022-07-14T05:02:42Z</time>
      </trkpt>
      <trkpt lat="42.874172" lon="-7.8748164">
        <time>2022-07-14T05:02:46Z</time>
      </trkpt>
      <trkpt lat="42.874146" lon="-7.8748755">
        <time>2022-07-14T05:02:50Z</time>
      </trkpt>
      <trkpt lat="42.874115" lon="-7.874936">
        <time>2022-07-14T05:02:55Z</time>
      </trkpt>
      <trkpt lat="42.87407" lon="-7.8750067">
        <time>2022-07-14T05:03:00Z</time>
      </trkpt>
      <trkpt lat="42.874012" lon="-7.875061">
        <time>2022-07-14T05:03:04Z</time>
      </trkpt>
      <trkpt lat="42.873966" lon="-7.8750978">
        <time>2022-07-14T05:03:07Z</time>
      </trkpt>
      <trkpt lat="42.873928" lon="-7.8751307">
        <time>2022-07-14T05:03:10Z</time>
      </trkpt>
      <trkpt lat="42.873882" lon="-7.8751717">
        <time>2022-07-14T05:03:14Z</time>
      </trkpt>
      <trkpt lat="42.87384" lon="-7.8752174">
        <time>2022-07-14T05:03:18Z</time>
      </trkpt>
      <trkpt lat="42.873802" lon="-7.875281">
        <time>2022-07-14T05:03:23Z</time>
      </trkpt>
      <trkpt lat="42.873775" lon="-7.8753476">
        <time>2022-07-14T05:03:27Z</time>
      </trkpt>
      <trkpt lat="42.87374" lon="-7.8754287">
        <time>2022-07-14T05:03:31Z</time>
      </trkpt>
      <trkpt lat="42.87372" lon="-7.875489">
        <time>2022-07-14T05:03:34Z</time>
      </trkpt>
      <trkpt lat="42.873695" lon="-7.875571">
        <time>2022-07-14T05:03:38Z</time>
      </trkpt>
      <trkpt lat="42.873672" lon="-7.8756356">
        <time>2022-07-14T05:03:42Z</time>
      </trkpt>
      <trkpt lat="42.87363" lon="-7.875672">
        <time>2022-07-14T05:03:47Z</time>
      </trkpt>
      <trkpt lat="42.873577" lon="-7.875684">
        <time>2022-07-14T05:03:52Z</time>
      </trkpt>
      <trkpt lat="42.873512" lon="-7.8756905">
        <time>2022-07-14T05:03:57Z</time>
      </trkpt>
      <trkpt lat="42.873455" lon="-7.875703">
        <time>2022-07-14T05:04:01Z</time>
      </trkpt>
      <trkpt lat="42.87342" lon="-7.875753">
        <time>2022-07-14T05:04:05Z</time>
      </trkpt>
      <trkpt lat="42.8734" lon="-7.8758264">
        <time>2022-07-14T05:04:10Z</time>
      </trkpt>
      <trkpt lat="42.873386" lon="-7.87591">
        <time>2022-07-14T05:04:15Z</time>
      </trkpt>
      <trkpt lat="42.87337" lon="-7.8759885">
        <time>2022-07-14T05:04:19Z</time>
      </trkpt>
      <trkpt lat="42.873356" lon="-7.8760695">
        <time>2022-07-14T05:04:23Z</time>
      </trkpt>
      <trkpt lat="42.873333" lon="-7.8761535">
        <time>2022-07-14T05:04:27Z</time>
      </trkpt>
      <trkpt lat="42.873314" lon="-7.8762317">
        <time>2022-07-14T05:04:31Z</time>
      </trkpt>
      <trkpt lat="42.8733" lon="-7.8762965">
        <time>2022-07-14T05:04:35Z</time>
      </trkpt>
      <trkpt lat="42.873283" lon="-7.8763704">
        <time>2022-07-14T05:04:40Z</time>
      </trkpt>
      <trkpt lat="42.873264" lon="-7.876455">
        <time>2022-07-14T05:04:45Z</time>
      </trkpt>
      <trkpt lat="42.873238" lon="-7.8765345">
        <time>2022-07-14T05:04:49Z</time>
      </trkpt>
      <trkpt lat="42.873215" lon="-7.876613">
        <time>2022-07-14T05:04:53Z</time>
      </trkpt>
      <trkpt lat="42.87319" lon="-7.8766737">
        <time>2022-07-14T05:04:57Z</time>
      </trkpt>
      <trkpt lat="42.873184" lon="-7.8767586">
        <time>2022-07-14T05:05:02Z</time>
      </trkpt>
      <trkpt lat="42.87318" lon="-7.876827">
        <time>2022-07-14T05:05:05Z</time>
      </trkpt>
      <trkpt lat="42.87317" lon="-7.8768954">
        <time>2022-07-14T05:05:08Z</time>
      </trkpt>
      <trkpt lat="42.873158" lon="-7.876968">
        <time>2022-07-14T05:05:12Z</time>
      </trkpt>
      <trkpt lat="42.87315" lon="-7.877031">
        <time>2022-07-14T05:05:16Z</time>
      </trkpt>
      <trkpt lat="42.87313" lon="-7.877109">
        <time>2022-07-14T05:05:21Z</time>
      </trkpt>
      <trkpt lat="42.873123" lon="-7.8771935">
        <time>2022-07-14T05:05:26Z</time>
      </trkpt>
      <trkpt lat="42.87311" lon="-7.87727">
        <time>2022-07-14T05:05:30Z</time>
      </trkpt>
      <trkpt lat="42.873104" lon="-7.8773518">
        <time>2022-07-14T05:05:34Z</time>
      </trkpt>
      <trkpt lat="42.873085" lon="-7.877442">
        <time>2022-07-14T05:05:38Z</time>
      </trkpt>
      <trkpt lat="42.873074" lon="-7.877502">
        <time>2022-07-14T05:05:41Z</time>
      </trkpt>
      <trkpt lat="42.873055" lon="-7.8775744">
        <time>2022-07-14T05:05:45Z</time>
      </trkpt>
      <trkpt lat="42.87304" lon="-7.8776507">
        <time>2022-07-14T05:05:50Z</time>
      </trkpt>
      <trkpt lat="42.873028" lon="-7.8777313">
        <time>2022-07-14T05:05:55Z</time>
      </trkpt>
      <trkpt lat="42.873013" lon="-7.8778105">
        <time>2022-07-14T05:05:59Z</time>
      </trkpt>
      <trkpt lat="42.872993" lon="-7.877893">
        <time>2022-07-14T05:06:03Z</time>
      </trkpt>
      <trkpt lat="42.87298" lon="-7.8779807">
        <time>2022-07-14T05:06:07Z</time>
      </trkpt>
      <trkpt lat="42.87296" lon="-7.8780613">
        <time>2022-07-14T05:06:11Z</time>
      </trkpt>
      <trkpt lat="42.87295" lon="-7.878123">
        <time>2022-07-14T05:06:15Z</time>
      </trkpt>
      <trkpt lat="42.872936" lon="-7.8781986">
        <time>2022-07-14T05:06:20Z</time>
      </trkpt>
      <trkpt lat="42.872917" lon="-7.8782735">
        <time>2022-07-14T05:06:25Z</time>
      </trkpt>
      <trkpt lat="42.87291" lon="-7.8783507">
        <time>2022-07-14T05:06:29Z</time>
      </trkpt>
      <trkpt lat="42.8729" lon="-7.8784194">
        <time>2022-07-14T05:06:32Z</time>
      </trkpt>
      <trkpt lat="42.87289" lon="-7.878487">
        <time>2022-07-14T05:06:35Z</time>
      </trkpt>
      <trkpt lat="42.87288" lon="-7.87857">
        <time>2022-07-14T05:06:39Z</time>
      </trkpt>
      <trkpt lat="42.872856" lon="-7.878643">
        <time>2022-07-14T05:06:43Z</time>
      </trkpt>
      <trkpt lat="42.872833" lon="-7.878713">
        <time>2022-07-14T05:06:47Z</time>
      </trkpt>
      <trkpt lat="42.87281" lon="-7.878794">
        <time>2022-07-14T05:06:52Z</time>
      </trkpt>
      <trkpt lat="42.87278" lon="-7.8788786">
        <time>2022-07-14T05:06:57Z</time>
      </trkpt>
      <trkpt lat="42.87275" lon="-7.8789487">
        <time>2022-07-14T05:07:01Z</time>
      </trkpt>
      <trkpt lat="42.872738" lon="-7.8790226">
        <time>2022-07-14T05:07:06Z</time>
      </trkpt>
      <trkpt lat="42.87273" lon="-7.879121">
        <time>2022-07-14T05:07:11Z</time>
      </trkpt>
      <trkpt lat="42.87272" lon="-7.879184">
        <time>2022-07-14T05:07:14Z</time>
      </trkpt>
      <trkpt lat="42.872704" lon="-7.8792715">
        <time>2022-07-14T05:07:18Z</time>
      </trkpt>
      <trkpt lat="42.872696" lon="-7.879346">
        <time>2022-07-14T05:07:22Z</time>
      </trkpt>
      <trkpt lat="42.872684" lon="-7.8794127">
        <time>2022-07-14T05:07:26Z</time>
      </trkpt>
      <trkpt lat="42.87267" lon="-7.8794875">
        <time>2022-07-14T05:07:31Z</time>
      </trkpt>
      <trkpt lat="42.87266" lon="-7.8795605">
        <time>2022-07-14T05:07:35Z</time>
      </trkpt>
      <trkpt lat="42.872658" lon="-7.8796434">
        <time>2022-07-14T05:07:39Z</time>
      </trkpt>
      <trkpt lat="42.872658" lon="-7.8797317">
        <time>2022-07-14T05:07:43Z</time>
      </trkpt>
      <trkpt lat="42.872654" lon="-7.8798103">
        <time>2022-07-14T05:07:47Z</time>
      </trkpt>
      <trkpt lat="42.87265" lon="-7.8798795">
        <time>2022-07-14T05:07:51Z</time>
      </trkpt>
      <trkpt lat="42.872643" lon="-7.8799624">
        <time>2022-07-14T05:07:56Z</time>
      </trkpt>
      <trkpt lat="42.87264" lon="-7.8800335">
        <time>2022-07-14T05:08:00Z</time>
      </trkpt>
      <trkpt lat="42.87264" lon="-7.8801146">
        <time>2022-07-14T05:08:04Z</time>
      </trkpt>
      <trkpt lat="42.872635" lon="-7.8802023">
        <time>2022-07-14T05:08:08Z</time>
      </trkpt>
      <trkpt lat="42.87263" lon="-7.880285">
        <time>2022-07-14T05:08:12Z</time>
      </trkpt>
      <trkpt lat="42.872627" lon="-7.880354">
        <time>2022-07-14T05:08:16Z</time>
      </trkpt>
      <trkpt lat="42.87262" lon="-7.880433">
        <time>2022-07-14T05:08:21Z</time>
      </trkpt>
      <trkpt lat="42.872616" lon="-7.8805037">
        <time>2022-07-14T05:08:25Z</time>
      </trkpt>
      <trkpt lat="42.872616" lon="-7.8805804">
        <time>2022-07-14T05:08:29Z</time>
      </trkpt>
      <trkpt lat="42.872612" lon="-7.880659">
        <time>2022-07-14T05:08:33Z</time>
      </trkpt>
      <trkpt lat="42.872612" lon="-7.8807297">
        <time>2022-07-14T05:08:37Z</time>
      </trkpt>
      <trkpt lat="42.87261" lon="-7.880804">
        <time>2022-07-14T05:08:41Z</time>
      </trkpt>
      <trkpt lat="42.8726" lon="-7.8808856">
        <time>2022-07-14T05:08:45Z</time>
      </trkpt>
      <trkpt lat="42.872593" lon="-7.88096">
        <time>2022-07-14T05:08:49Z</time>
      </trkpt>
      <trkpt lat="42.87258" lon="-7.881021">
        <time>2022-07-14T05:08:53Z</time>
      </trkpt>
      <trkpt lat="42.87257" lon="-7.8811007">
        <time>2022-07-14T05:08:58Z</time>
      </trkpt>
      <trkpt lat="42.87257" lon="-7.881175">
        <time>2022-07-14T05:09:02Z</time>
      </trkpt>
      <trkpt lat="42.872566" lon="-7.8812504">
        <time>2022-07-14T05:09:06Z</time>
      </trkpt>
      <trkpt lat="42.87257" lon="-7.881331">
        <time>2022-07-14T05:09:10Z</time>
      </trkpt>
      <trkpt lat="42.87258" lon="-7.881416">
        <time>2022-07-14T05:09:14Z</time>
      </trkpt>
      <trkpt lat="42.872597" lon="-7.881491">
        <time>2022-07-14T05:09:18Z</time>
      </trkpt>
      <trkpt lat="42.872612" lon="-7.8815703">
        <time>2022-07-14T05:09:22Z</time>
      </trkpt>
      <trkpt lat="42.87264" lon="-7.881643">
        <time>2022-07-14T05:09:26Z</time>
      </trkpt>
      <trkpt lat="42.87266" lon="-7.8817115">
        <time>2022-07-14T05:09:30Z</time>
      </trkpt>
      <trkpt lat="42.872673" lon="-7.8817787">
        <time>2022-07-14T05:09:34Z</time>
      </trkpt>
      <trkpt lat="42.87268" lon="-7.8818603">
        <time>2022-07-14T05:09:39Z</time>
      </trkpt>
      <trkpt lat="42.872673" lon="-7.8819323">
        <time>2022-07-14T05:09:43Z</time>
      </trkpt>
      <trkpt lat="42.872654" lon="-7.882004">
        <time>2022-07-14T05:09:47Z</time>
      </trkpt>
      <trkpt lat="42.872623" lon="-7.882075">
        <time>2022-07-14T05:09:52Z</time>
      </trkpt>
      <trkpt lat="42.872593" lon="-7.8821387">
        <time>2022-07-14T05:09:56Z</time>
      </trkpt>
      <trkpt lat="42.872547" lon="-7.882193">
        <time>2022-07-14T05:10:00Z</time>
      </trkpt>
      <trkpt lat="42.872498" lon="-7.8822246">
        <time>2022-07-14T05:10:04Z</time>
      </trkpt>
      <trkpt lat="42.872444" lon="-7.8822527">
        <time>2022-07-14T05:10:08Z</time>
      </trkpt>
      <trkpt lat="42.872395" lon="-7.8822865">
        <time>2022-07-14T05:10:12Z</time>
      </trkpt>
      <trkpt lat="42.872345" lon="-7.8823195">
        <time>2022-07-14T05:10:16Z</time>
      </trkpt>
      <trkpt lat="42.87229" lon="-7.882354">
        <time>2022-07-14T05:10:21Z</time>
      </trkpt>
      <trkpt lat="42.87223" lon="-7.8823996">
        <time>2022-07-14T05:10:26Z</time>
      </trkpt>
      <trkpt lat="42.872177" lon="-7.8824463">
        <time>2022-07-14T05:10:30Z</time>
      </trkpt>
      <trkpt lat="42.872128" lon="-7.882478">
        <time>2022-07-14T05:10:34Z</time>
      </trkpt>
      <trkpt lat="42.872086" lon="-7.8825088">
        <time>2022-07-14T05:10:38Z</time>
      </trkpt>
      <trkpt lat="42.872032" lon="-7.882544">
        <time>2022-07-14T05:10:42Z</time>
      </trkpt>
      <trkpt lat="42.871983" lon="-7.882584">
        <time>2022-07-14T05:10:46Z</time>
      </trkpt>
      <trkpt lat="42.871937" lon="-7.882641">
        <time>2022-07-14T05:10:51Z</time>
      </trkpt>
      <trkpt lat="42.871902" lon="-7.8826885">
        <time>2022-07-14T05:10:55Z</time>
      </trkpt>
      <trkpt lat="42.871864" lon="-7.882754">
        <time>2022-07-14T05:11:00Z</time>
      </trkpt>
      <trkpt lat="42.871822" lon="-7.882813">
        <time>2022-07-14T05:11:04Z</time>
      </trkpt>
      <trkpt lat="42.871777" lon="-7.882872">
        <time>2022-07-14T05:11:08Z</time>
      </trkpt>
      <trkpt lat="42.871735" lon="-7.8829226">
        <time>2022-07-14T05:11:12Z</time>
      </trkpt>
      <trkpt lat="42.871685" lon="-7.882983">
        <time>2022-07-14T05:11:17Z</time>
      </trkpt>
      <trkpt lat="42.871643" lon="-7.8830457">
        <time>2022-07-14T05:11:21Z</time>
      </trkpt>
      <trkpt lat="42.871624" lon="-7.8831134">
        <time>2022-07-14T05:11:25Z</time>
      </trkpt>
      <trkpt lat="42.87162" lon="-7.8831854">
        <time>2022-07-14T05:11:29Z</time>
      </trkpt>
      <trkpt lat="42.871628" lon="-7.883249">
        <time>2022-07-14T05:11:33Z</time>
      </trkpt>
      <trkpt lat="42.871624" lon="-7.8833284">
        <time>2022-07-14T05:11:38Z</time>
      </trkpt>
      <trkpt lat="42.87162" lon="-7.8834033">
        <time>2022-07-14T05:11:43Z</time>
      </trkpt>
      <trkpt lat="42.871605" lon="-7.883468">
        <time>2022-07-14T05:11:47Z</time>
      </trkpt>
      <trkpt lat="42.871586" lon="-7.883538">
        <time>2022-07-14T05:11:51Z</time>
      </trkpt>
      <trkpt lat="42.871574" lon="-7.8836246">
        <time>2022-07-14T05:11:56Z</time>
      </trkpt>
      <trkpt lat="42.87157" lon="-7.8836985">
        <time>2022-07-14T05:12:01Z</time>
      </trkpt>
      <trkpt lat="42.871563" lon="-7.8837786">
        <time>2022-07-14T05:12:06Z</time>
      </trkpt>
      <trkpt lat="42.87157" lon="-7.8838696">
        <time>2022-07-14T05:12:11Z</time>
      </trkpt>
      <trkpt lat="42.871574" lon="-7.883943">
        <time>2022-07-14T05:12:15Z</time>
      </trkpt>
      <trkpt lat="42.871567" lon="-7.88402">
        <time>2022-07-14T05:12:20Z</time>
      </trkpt>
      <trkpt lat="42.871563" lon="-7.884101">
        <time>2022-07-14T05:12:25Z</time>
      </trkpt>
      <trkpt lat="42.871555" lon="-7.884172">
        <time>2022-07-14T05:12:30Z</time>
      </trkpt>
      <trkpt lat="42.871563" lon="-7.884245">
        <time>2022-07-14T05:12:35Z</time>
      </trkpt>
      <trkpt lat="42.871544" lon="-7.884314">
        <time>2022-07-14T05:12:40Z</time>
      </trkpt>
      <trkpt lat="42.87152" lon="-7.8843727">
        <time>2022-07-14T05:12:44Z</time>
      </trkpt>
      <trkpt lat="42.871494" lon="-7.8844495">
        <time>2022-07-14T05:12:49Z</time>
      </trkpt>
      <trkpt lat="42.871468" lon="-7.8845243">
        <time>2022-07-14T05:12:54Z</time>
      </trkpt>
      <trkpt lat="42.87145" lon="-7.8845897">
        <time>2022-07-14T05:12:58Z</time>
      </trkpt>
      <trkpt lat="42.871426" lon="-7.8846564">
        <time>2022-07-14T05:13:03Z</time>
      </trkpt>
      <trkpt lat="42.871407" lon="-7.884715">
        <time>2022-07-14T05:13:08Z</time>
      </trkpt>
      <trkpt lat="42.871372" lon="-7.884776">
        <time>2022-07-14T05:13:13Z</time>
      </trkpt>
      <trkpt lat="42.87135" lon="-7.884833">
        <time>2022-07-14T05:13:18Z</time>
      </trkpt>
      <trkpt lat="42.871338" lon="-7.8849235">
        <time>2022-07-14T05:13:24Z</time>
      </trkpt>
      <trkpt lat="42.87134" lon="-7.884995">
        <time>2022-07-14T05:13:29Z</time>
      </trkpt>
      <trkpt lat="42.871346" lon="-7.8850803">
        <time>2022-07-14T05:13:35Z</time>
      </trkpt>
      <trkpt lat="42.87133" lon="-7.8851495">
        <time>2022-07-14T05:13:40Z</time>
      </trkpt>
      <trkpt lat="42.87133" lon="-7.8852277">
        <time>2022-07-14T05:13:45Z</time>
      </trkpt>
      <trkpt lat="42.87134" lon="-7.8853073">
        <time>2022-07-14T05:13:49Z</time>
      </trkpt>
      <trkpt lat="42.871334" lon="-7.885382">
        <time>2022-07-14T05:13:53Z</time>
      </trkpt>
      <trkpt lat="42.87133" lon="-7.8854575">
        <time>2022-07-14T05:13:57Z</time>
      </trkpt>
      <trkpt lat="42.871338" lon="-7.8855333">
        <time>2022-07-14T05:14:02Z</time>
      </trkpt>
      <trkpt lat="42.87135" lon="-7.885611">
        <time>2022-07-14T05:14:07Z</time>
      </trkpt>
      <trkpt lat="42.871346" lon="-7.885689">
        <time>2022-07-14T05:14:12Z</time>
      </trkpt>
      <trkpt lat="42.871357" lon="-7.885757">
        <time>2022-07-14T05:14:16Z</time>
      </trkpt>
      <trkpt lat="42.871372" lon="-7.885828">
        <time>2022-07-14T05:14:20Z</time>
      </trkpt>
      <trkpt lat="42.87139" lon="-7.885897">
        <time>2022-07-14T05:14:24Z</time>
      </trkpt>
      <trkpt lat="42.8714" lon="-7.885976">
        <time>2022-07-14T05:14:29Z</time>
      </trkpt>
      <trkpt lat="42.871403" lon="-7.886045">
        <time>2022-07-14T05:14:33Z</time>
      </trkpt>
      <trkpt lat="42.871395" lon="-7.886124">
        <time>2022-07-14T05:14:38Z</time>
      </trkpt>
      <trkpt lat="42.87138" lon="-7.886192">
        <time>2022-07-14T05:14:42Z</time>
      </trkpt>
      <trkpt lat="42.871365" lon="-7.8862762">
        <time>2022-07-14T05:14:47Z</time>
      </trkpt>
      <trkpt lat="42.87137" lon="-7.8863573">
        <time>2022-07-14T05:14:51Z</time>
      </trkpt>
      <trkpt lat="42.871384" lon="-7.886429">
        <time>2022-07-14T05:14:55Z</time>
      </trkpt>
      <trkpt lat="42.871414" lon="-7.8865113">
        <time>2022-07-14T05:15:01Z</time>
      </trkpt>
      <trkpt lat="42.87144" lon="-7.886588">
        <time>2022-07-14T05:15:06Z</time>
      </trkpt>
      <trkpt lat="42.871468" lon="-7.8866515">
        <time>2022-07-14T05:15:10Z</time>
      </trkpt>
      <trkpt lat="42.871502" lon="-7.8867245">
        <time>2022-07-14T05:15:14Z</time>
      </trkpt>
      <trkpt lat="42.871525" lon="-7.8868074">
        <time>2022-07-14T05:15:18Z</time>
      </trkpt>
      <trkpt lat="42.87154" lon="-7.8868685">
        <time>2022-07-14T05:15:23Z</time>
      </trkpt>
      <trkpt lat="42.871548" lon="-7.886947">
        <time>2022-07-14T05:15:28Z</time>
      </trkpt>
      <trkpt lat="42.87155" lon="-7.8870187">
        <time>2022-07-14T05:15:32Z</time>
      </trkpt>
      <trkpt lat="42.871544" lon="-7.8870926">
        <time>2022-07-14T05:15:36Z</time>
      </trkpt>
      <trkpt lat="42.871548" lon="-7.887171">
        <time>2022-07-14T05:15:40Z</time>
      </trkpt>
      <trkpt lat="42.871544" lon="-7.8872514">
        <time>2022-07-14T05:15:44Z</time>
      </trkpt>
      <trkpt lat="42.871544" lon="-7.887315">
        <time>2022-07-14T05:15:48Z</time>
      </trkpt>
      <trkpt lat="42.87154" lon="-7.887403">
        <time>2022-07-14T05:15:53Z</time>
      </trkpt>
      <trkpt lat="42.87154" lon="-7.887469">
        <time>2022-07-14T05:15:56Z</time>
      </trkpt>
      <trkpt lat="42.871536" lon="-7.88755">
        <time>2022-07-14T05:16:00Z</time>
      </trkpt>
      <trkpt lat="42.87154" lon="-7.887615">
        <time>2022-07-14T05:16:04Z</time>
      </trkpt>
      <trkpt lat="42.871536" lon="-7.8876843">
        <time>2022-07-14T05:16:08Z</time>
      </trkpt>
      <trkpt lat="42.871532" lon="-7.887759">
        <time>2022-07-14T05:16:12Z</time>
      </trkpt>
      <trkpt lat="42.871536" lon="-7.887831">
        <time>2022-07-14T05:16:16Z</time>
      </trkpt>
      <trkpt lat="42.871532" lon="-7.887918">
        <time>2022-07-14T05:16:21Z</time>
      </trkpt>
      <trkpt lat="42.871536" lon="-7.8879976">
        <time>2022-07-14T05:16:25Z</time>
      </trkpt>
      <trkpt lat="42.871532" lon="-7.888066">
        <time>2022-07-14T05:16:29Z</time>
      </trkpt>
      <trkpt lat="42.871525" lon="-7.888139">
        <time>2022-07-14T05:16:33Z</time>
      </trkpt>
      <trkpt lat="42.87154" lon="-7.8882194">
        <time>2022-07-14T05:16:37Z</time>
      </trkpt>
      <trkpt lat="42.871548" lon="-7.8882875">
        <time>2022-07-14T05:16:41Z</time>
      </trkpt>
      <trkpt lat="42.871548" lon="-7.888365">
        <time>2022-07-14T05:16:45Z</time>
      </trkpt>
      <trkpt lat="42.87155" lon="-7.88843">
        <time>2022-07-14T05:16:50Z</time>
      </trkpt>
      <trkpt lat="42.871544" lon="-7.888515">
        <time>2022-07-14T05:16:56Z</time>
      </trkpt>
      <trkpt lat="42.871548" lon="-7.8886027">
        <time>2022-07-14T05:17:01Z</time>
      </trkpt>
      <trkpt lat="42.871548" lon="-7.888667">
        <time>2022-07-14T05:17:04Z</time>
      </trkpt>
      <trkpt lat="42.871555" lon="-7.888739">
        <time>2022-07-14T05:17:08Z</time>
      </trkpt>
      <trkpt lat="42.87157" lon="-7.888817">
        <time>2022-07-14T05:17:13Z</time>
      </trkpt>
      <trkpt lat="42.871586" lon="-7.888888">
        <time>2022-07-14T05:17:18Z</time>
      </trkpt>
      <trkpt lat="42.87159" lon="-7.888973">
        <time>2022-07-14T05:17:23Z</time>
      </trkpt>
      <trkpt lat="42.871593" lon="-7.889063">
        <time>2022-07-14T05:17:28Z</time>
      </trkpt>
      <trkpt lat="42.8716" lon="-7.889137">
        <time>2022-07-14T05:17:33Z</time>
      </trkpt>
      <trkpt lat="42.87161" lon="-7.889225">
        <time>2022-07-14T05:17:39Z</time>
      </trkpt>
      <trkpt lat="42.871616" lon="-7.8893056">
        <time>2022-07-14T05:17:43Z</time>
      </trkpt>
      <trkpt lat="42.871624" lon="-7.889377">
        <time>2022-07-14T05:17:47Z</time>
      </trkpt>
      <trkpt lat="42.871624" lon="-7.889453">
        <time>2022-07-14T05:17:52Z</time>
      </trkpt>
      <trkpt lat="42.87163" lon="-7.8895326">
        <time>2022-07-14T05:17:57Z</time>
      </trkpt>
      <trkpt lat="42.87166" lon="-7.8895936">
        <time>2022-07-14T05:18:02Z</time>
      </trkpt>
      <trkpt lat="42.871696" lon="-7.889663">
        <time>2022-07-14T05:18:07Z</time>
      </trkpt>
      <trkpt lat="42.871708" lon="-7.8897295">
        <time>2022-07-14T05:18:11Z</time>
      </trkpt>
      <trkpt lat="42.87173" lon="-7.8898025">
        <time>2022-07-14T05:18:15Z</time>
      </trkpt>
      <trkpt lat="42.871765" lon="-7.8898625">
        <time>2022-07-14T05:18:19Z</time>
      </trkpt>
      <trkpt lat="42.871803" lon="-7.88992">
        <time>2022-07-14T05:18:23Z</time>
      </trkpt>
      <trkpt lat="42.871838" lon="-7.889983">
        <time>2022-07-14T05:18:27Z</time>
      </trkpt>
      <trkpt lat="42.871857" lon="-7.8900523">
        <time>2022-07-14T05:18:31Z</time>
      </trkpt>
      <trkpt lat="42.871838" lon="-7.890117">
        <time>2022-07-14T05:18:36Z</time>
      </trkpt>
      <trkpt lat="42.871796" lon="-7.890162">
        <time>2022-07-14T05:18:41Z</time>
      </trkpt>
      <trkpt lat="42.87175" lon="-7.890199">
        <time>2022-07-14T05:18:45Z</time>
      </trkpt>
      <trkpt lat="42.871696" lon="-7.890204">
        <time>2022-07-14T05:18:50Z</time>
      </trkpt>
      <trkpt lat="42.87165" lon="-7.890169">
        <time>2022-07-14T05:18:54Z</time>
      </trkpt>
      <trkpt lat="42.871613" lon="-7.890125">
        <time>2022-07-14T05:18:59Z</time>
      </trkpt>
      <trkpt lat="42.87158" lon="-7.890054">
        <time>2022-07-14T05:19:05Z</time>
      </trkpt>
      <trkpt lat="42.871536" lon="-7.8900027">
        <time>2022-07-14T05:19:09Z</time>
      </trkpt>
      <trkpt lat="42.871494" lon="-7.8899527">
        <time>2022-07-14T05:19:13Z</time>
      </trkpt>
      <trkpt lat="42.871452" lon="-7.88991">
        <time>2022-07-14T05:19:17Z</time>
      </trkpt>
      <trkpt lat="42.871403" lon="-7.88987">
        <time>2022-07-14T05:19:21Z</time>
      </trkpt>
      <trkpt lat="42.87135" lon="-7.8898306">
        <time>2022-07-14T05:19:25Z</time>
      </trkpt>
      <trkpt lat="42.871304" lon="-7.889805">
        <time>2022-07-14T05:19:30Z</time>
      </trkpt>
      <trkpt lat="42.87124" lon="-7.8897624">
        <time>2022-07-14T05:19:36Z</time>
      </trkpt>
      <trkpt lat="42.871178" lon="-7.8897166">
        <time>2022-07-14T05:19:41Z</time>
      </trkpt>
      <trkpt lat="42.871113" lon="-7.889671">
        <time>2022-07-14T05:19:45Z</time>
      </trkpt>
      <trkpt lat="42.871067" lon="-7.889624">
        <time>2022-07-14T05:19:48Z</time>
      </trkpt>
      <trkpt lat="42.87103" lon="-7.889562">
        <time>2022-07-14T05:19:51Z</time>
      </trkpt>
      <trkpt lat="42.870987" lon="-7.8895173">
        <time>2022-07-14T05:19:54Z</time>
      </trkpt>
      <trkpt lat="42.870937" lon="-7.889479">
        <time>2022-07-14T05:19:58Z</time>
      </trkpt>
      <trkpt lat="42.87089" lon="-7.889455">
        <time>2022-07-14T05:20:02Z</time>
      </trkpt>
      <trkpt lat="42.87083" lon="-7.889452">
        <time>2022-07-14T05:20:07Z</time>
      </trkpt>
      <trkpt lat="42.870777" lon="-7.889455">
        <time>2022-07-14T05:20:11Z</time>
      </trkpt>
      <trkpt lat="42.870716" lon="-7.889449">
        <time>2022-07-14T05:20:15Z</time>
      </trkpt>
      <trkpt lat="42.870644" lon="-7.889447">
        <time>2022-07-14T05:20:19Z</time>
      </trkpt>
      <trkpt lat="42.870594" lon="-7.889448">
        <time>2022-07-14T05:20:22Z</time>
      </trkpt>
      <trkpt lat="42.870533" lon="-7.8894596">
        <time>2022-07-14T05:20:26Z</time>
      </trkpt>
      <trkpt lat="42.87048" lon="-7.889467">
        <time>2022-07-14T05:20:30Z</time>
      </trkpt>
      <trkpt lat="42.87043" lon="-7.8894687">
        <time>2022-07-14T05:20:34Z</time>
      </trkpt>
      <trkpt lat="42.870373" lon="-7.8894677">
        <time>2022-07-14T05:20:38Z</time>
      </trkpt>
      <trkpt lat="42.87032" lon="-7.889466">
        <time>2022-07-14T05:20:42Z</time>
      </trkpt>
      <trkpt lat="42.870266" lon="-7.889464">
        <time>2022-07-14T05:20:46Z</time>
      </trkpt>
      <trkpt lat="42.87021" lon="-7.8894606">
        <time>2022-07-14T05:20:50Z</time>
      </trkpt>
      <trkpt lat="42.870182" lon="-7.889508">
        <time>2022-07-14T05:20:54Z</time>
      </trkpt>
      <trkpt lat="42.87018" lon="-7.889596">
        <time>2022-07-14T05:21:00Z</time>
      </trkpt>
      <trkpt lat="42.870186" lon="-7.889671">
        <time>2022-07-14T05:21:04Z</time>
      </trkpt>
      <trkpt lat="42.870186" lon="-7.889753">
        <time>2022-07-14T05:21:09Z</time>
      </trkpt>
      <trkpt lat="42.870193" lon="-7.889838">
        <time>2022-07-14T05:21:14Z</time>
      </trkpt>
      <trkpt lat="42.8702" lon="-7.8899136">
        <time>2022-07-14T05:21:18Z</time>
      </trkpt>
      <trkpt lat="42.870213" lon="-7.8899813">
        <time>2022-07-14T05:21:22Z</time>
      </trkpt>
      <trkpt lat="42.870216" lon="-7.890056">
        <time>2022-07-14T05:21:27Z</time>
      </trkpt>
      <trkpt lat="42.87023" lon="-7.890133">
        <time>2022-07-14T05:21:32Z</time>
      </trkpt>
      <trkpt lat="42.870243" lon="-7.8901997">
        <time>2022-07-14T05:21:36Z</time>
      </trkpt>
      <trkpt lat="42.87026" lon="-7.8902726">
        <time>2022-07-14T05:21:40Z</time>
      </trkpt>
      <trkpt lat="42.87026" lon="-7.8903394">
        <time>2022-07-14T05:21:44Z</time>
      </trkpt>
      <trkpt lat="42.870262" lon="-7.890429">
        <time>2022-07-14T05:21:49Z</time>
      </trkpt>
      <trkpt lat="42.87027" lon="-7.890503">
        <time>2022-07-14T05:21:53Z</time>
      </trkpt>
      <trkpt lat="42.87028" lon="-7.8905735">
        <time>2022-07-14T05:21:57Z</time>
      </trkpt>
      <trkpt lat="42.870285" lon="-7.890662">
        <time>2022-07-14T05:22:02Z</time>
      </trkpt>
      <trkpt lat="42.870293" lon="-7.890734">
        <time>2022-07-14T05:22:06Z</time>
      </trkpt>
      <trkpt lat="42.870296" lon="-7.890816">
        <time>2022-07-14T05:22:10Z</time>
      </trkpt>
      <trkpt lat="42.8703" lon="-7.890893">
        <time>2022-07-14T05:22:14Z</time>
      </trkpt>
      <trkpt lat="42.870304" lon="-7.8909707">
        <time>2022-07-14T05:22:18Z</time>
      </trkpt>
      <trkpt lat="42.870304" lon="-7.8910513">
        <time>2022-07-14T05:22:22Z</time>
      </trkpt>
      <trkpt lat="42.870308" lon="-7.8911405">
        <time>2022-07-14T05:22:26Z</time>
      </trkpt>
      <trkpt lat="42.87031" lon="-7.891212">
        <time>2022-07-14T05:22:30Z</time>
      </trkpt>
      <trkpt lat="42.870323" lon="-7.891275">
        <time>2022-07-14T05:22:34Z</time>
      </trkpt>
      <trkpt lat="42.87034" lon="-7.891348">
        <time>2022-07-14T05:22:39Z</time>
      </trkpt>
      <trkpt lat="42.870354" lon="-7.8914266">
        <time>2022-07-14T05:22:42Z</time>
      </trkpt>
      <trkpt lat="42.870373" lon="-7.891495">
        <time>2022-07-14T05:22:46Z</time>
      </trkpt>
      <trkpt lat="42.870388" lon="-7.891572">
        <time>2022-07-14T05:22:50Z</time>
      </trkpt>
      <trkpt lat="42.87039" lon="-7.891648">
        <time>2022-07-14T05:22:54Z</time>
      </trkpt>
      <trkpt lat="42.870388" lon="-7.891716">
        <time>2022-07-14T05:22:58Z</time>
      </trkpt>
      <trkpt lat="42.870403" lon="-7.8917975">
        <time>2022-07-14T05:23:03Z</time>
      </trkpt>
      <trkpt lat="42.87043" lon="-7.8918667">
        <time>2022-07-14T05:23:08Z</time>
      </trkpt>
      <trkpt lat="42.870453" lon="-7.891929">
        <time>2022-07-14T05:23:13Z</time>
      </trkpt>
      <trkpt lat="42.87047" lon="-7.8920116">
        <time>2022-07-14T05:23:18Z</time>
      </trkpt>
      <trkpt lat="42.870483" lon="-7.8920856">
        <time>2022-07-14T05:23:22Z</time>
      </trkpt>
      <trkpt lat="42.87048" lon="-7.892156">
        <time>2022-07-14T05:23:26Z</time>
      </trkpt>
      <trkpt lat="42.87049" lon="-7.892233">
        <time>2022-07-14T05:23:30Z</time>
      </trkpt>
      <trkpt lat="42.870502" lon="-7.8923044">
        <time>2022-07-14T05:23:34Z</time>
      </trkpt>
      <trkpt lat="42.870514" lon="-7.892367">
        <time>2022-07-14T05:23:38Z</time>
      </trkpt>
      <trkpt lat="42.870533" lon="-7.892437">
        <time>2022-07-14T05:23:43Z</time>
      </trkpt>
      <trkpt lat="42.87054" lon="-7.89251">
        <time>2022-07-14T05:23:48Z</time>
      </trkpt>
      <trkpt lat="42.87055" lon="-7.8925867">
        <time>2022-07-14T05:23:53Z</time>
      </trkpt>
      <trkpt lat="42.870556" lon="-7.892655">
        <time>2022-07-14T05:23:57Z</time>
      </trkpt>
      <trkpt lat="42.870564" lon="-7.8927345">
        <time>2022-07-14T05:24:01Z</time>
      </trkpt>
      <trkpt lat="42.87057" lon="-7.8928056">
        <time>2022-07-14T05:24:04Z</time>
      </trkpt>
      <trkpt lat="42.870567" lon="-7.892884">
        <time>2022-07-14T05:24:08Z</time>
      </trkpt>
      <trkpt lat="42.87056" lon="-7.8929625">
        <time>2022-07-14T05:24:12Z</time>
      </trkpt>
      <trkpt lat="42.87056" lon="-7.893037">
        <time>2022-07-14T05:24:16Z</time>
      </trkpt>
      <trkpt lat="42.870567" lon="-7.893103">
        <time>2022-07-14T05:24:19Z</time>
      </trkpt>
      <trkpt lat="42.87058" lon="-7.893183">
        <time>2022-07-14T05:24:23Z</time>
      </trkpt>
      <trkpt lat="42.870605" lon="-7.8932467">
        <time>2022-07-14T05:24:27Z</time>
      </trkpt>
      <trkpt lat="42.87065" lon="-7.893295">
        <time>2022-07-14T05:24:31Z</time>
      </trkpt>
      <trkpt lat="42.870686" lon="-7.8933506">
        <time>2022-07-14T05:24:35Z</time>
      </trkpt>
      <trkpt lat="42.870712" lon="-7.893406">
        <time>2022-07-14T05:24:39Z</time>
      </trkpt>
      <trkpt lat="42.87074" lon="-7.8934884">
        <time>2022-07-14T05:24:44Z</time>
      </trkpt>
      <trkpt lat="42.870773" lon="-7.8935595">
        <time>2022-07-14T05:24:48Z</time>
      </trkpt>
      <trkpt lat="42.870792" lon="-7.893623">
        <time>2022-07-14T05:24:51Z</time>
      </trkpt>
      <trkpt lat="42.870808" lon="-7.893701">
        <time>2022-07-14T05:24:55Z</time>
      </trkpt>
      <trkpt lat="42.870808" lon="-7.893764">
        <time>2022-07-14T05:24:59Z</time>
      </trkpt>
      <trkpt lat="42.87081" lon="-7.8938484">
        <time>2022-07-14T05:25:04Z</time>
      </trkpt>
      <trkpt lat="42.87081" lon="-7.8939266">
        <time>2022-07-14T05:25:08Z</time>
      </trkpt>
      <trkpt lat="42.87081" lon="-7.8940053">
        <time>2022-07-14T05:25:12Z</time>
      </trkpt>
      <trkpt lat="42.870823" lon="-7.894085">
        <time>2022-07-14T05:25:16Z</time>
      </trkpt>
      <trkpt lat="42.87083" lon="-7.8941627">
        <time>2022-07-14T05:25:21Z</time>
      </trkpt>
      <trkpt lat="42.87084" lon="-7.894241">
        <time>2022-07-14T05:25:26Z</time>
      </trkpt>
      <trkpt lat="42.870853" lon="-7.8943295">
        <time>2022-07-14T05:25:31Z</time>
      </trkpt>
      <trkpt lat="42.870865" lon="-7.894406">
        <time>2022-07-14T05:25:35Z</time>
      </trkpt>
      <trkpt lat="42.870872" lon="-7.894486">
        <time>2022-07-14T05:25:39Z</time>
      </trkpt>
      <trkpt lat="42.870884" lon="-7.8945613">
        <time>2022-07-14T05:25:43Z</time>
      </trkpt>
      <trkpt lat="42.870895" lon="-7.8946385">
        <time>2022-07-14T05:25:48Z</time>
      </trkpt>
      <trkpt lat="42.8709" lon="-7.8947215">
        <time>2022-07-14T05:25:53Z</time>
      </trkpt>
      <trkpt lat="42.870903" lon="-7.8947983">
        <time>2022-07-14T05:25:57Z</time>
      </trkpt>
      <trkpt lat="42.870903" lon="-7.894876">
        <time>2022-07-14T05:26:01Z</time>
      </trkpt>
      <trkpt lat="42.87089" lon="-7.894946">
        <time>2022-07-14T05:26:05Z</time>
      </trkpt>
      <trkpt lat="42.870884" lon="-7.895021">
        <time>2022-07-14T05:26:09Z</time>
      </trkpt>
      <trkpt lat="42.870884" lon="-7.8950963">
        <time>2022-07-14T05:26:13Z</time>
      </trkpt>
      <trkpt lat="42.870903" lon="-7.8951735">
        <time>2022-07-14T05:26:17Z</time>
      </trkpt>
      <trkpt lat="42.870934" lon="-7.89524">
        <time>2022-07-14T05:26:21Z</time>
      </trkpt>
      <trkpt lat="42.87096" lon="-7.895297">
        <time>2022-07-14T05:26:25Z</time>
      </trkpt>
      <trkpt lat="42.871002" lon="-7.895356">
        <time>2022-07-14T05:26:30Z</time>
      </trkpt>
      <trkpt lat="42.871037" lon="-7.895405">
        <time>2022-07-14T05:26:34Z</time>
      </trkpt>
      <trkpt lat="42.87106" lon="-7.8954773">
        <time>2022-07-14T05:26:39Z</time>
      </trkpt>
      <trkpt lat="42.87107" lon="-7.895552">
        <time>2022-07-14T05:26:43Z</time>
      </trkpt>
      <trkpt lat="42.871086" lon="-7.8956194">
        <time>2022-07-14T05:26:46Z</time>
      </trkpt>
      <trkpt lat="42.871094" lon="-7.8956904">
        <time>2022-07-14T05:26:50Z</time>
      </trkpt>
      <trkpt lat="42.871113" lon="-7.895775">
        <time>2022-07-14T05:26:55Z</time>
      </trkpt>
      <trkpt lat="42.871155" lon="-7.895843">
        <time>2022-07-14T05:26:59Z</time>
      </trkpt>
      <trkpt lat="42.871174" lon="-7.895911">
        <time>2022-07-14T05:27:03Z</time>
      </trkpt>
      <trkpt lat="42.8712" lon="-7.895989">
        <time>2022-07-14T05:27:08Z</time>
      </trkpt>
      <trkpt lat="42.871227" lon="-7.8960695">
        <time>2022-07-14T05:27:13Z</time>
      </trkpt>
      <trkpt lat="42.87126" lon="-7.896147">
        <time>2022-07-14T05:27:17Z</time>
      </trkpt>
      <trkpt lat="42.87129" lon="-7.896218">
        <time>2022-07-14T05:27:20Z</time>
      </trkpt>
      <trkpt lat="42.87131" lon="-7.896272">
        <time>2022-07-14T05:27:23Z</time>
      </trkpt>
      <trkpt lat="42.871353" lon="-7.896346">
        <time>2022-07-14T05:27:27Z</time>
      </trkpt>
      <trkpt lat="42.871372" lon="-7.8964024">
        <time>2022-07-14T05:27:30Z</time>
      </trkpt>
      <trkpt lat="42.87138" lon="-7.8964877">
        <time>2022-07-14T05:27:34Z</time>
      </trkpt>
      <trkpt lat="42.871376" lon="-7.8965607">
        <time>2022-07-14T05:27:38Z</time>
      </trkpt>
      <trkpt lat="42.87137" lon="-7.8966312">
        <time>2022-07-14T05:27:42Z</time>
      </trkpt>
      <trkpt lat="42.87137" lon="-7.896716">
        <time>2022-07-14T05:27:47Z</time>
      </trkpt>
      <trkpt lat="42.87138" lon="-7.896789">
        <time>2022-07-14T05:27:51Z</time>
      </trkpt>
      <trkpt lat="42.871395" lon="-7.89686">
        <time>2022-07-14T05:27:55Z</time>
      </trkpt>
      <trkpt lat="42.871407" lon="-7.896942">
        <time>2022-07-14T05:27:59Z</time>
      </trkpt>
      <trkpt lat="42.871418" lon="-7.8970027">
        <time>2022-07-14T05:28:02Z</time>
      </trkpt>
      <trkpt lat="42.871437" lon="-7.8970757">
        <time>2022-07-14T05:28:06Z</time>
      </trkpt>
      <trkpt lat="42.87146" lon="-7.897144">
        <time>2022-07-14T05:28:10Z</time>
      </trkpt>
      <trkpt lat="42.871483" lon="-7.89721">
        <time>2022-07-14T05:28:14Z</time>
      </trkpt>
      <trkpt lat="42.8715" lon="-7.8972754">
        <time>2022-07-14T05:28:18Z</time>
      </trkpt>
      <trkpt lat="42.871525" lon="-7.8973365">
        <time>2022-07-14T05:28:22Z</time>
      </trkpt>
      <trkpt lat="42.871555" lon="-7.897402">
        <time>2022-07-14T05:28:26Z</time>
      </trkpt>
      <trkpt lat="42.871574" lon="-7.8974786">
        <time>2022-07-14T05:28:30Z</time>
      </trkpt>
      <trkpt lat="42.871597" lon="-7.8975544">
        <time>2022-07-14T05:28:34Z</time>
      </trkpt>
      <trkpt lat="42.871624" lon="-7.8976216">
        <time>2022-07-14T05:28:38Z</time>
      </trkpt>
      <trkpt lat="42.87166" lon="-7.89768">
        <time>2022-07-14T05:28:42Z</time>
      </trkpt>
      <trkpt lat="42.8717" lon="-7.8977404">
        <time>2022-07-14T05:28:47Z</time>
      </trkpt>
      <trkpt lat="42.871735" lon="-7.8977966">
        <time>2022-07-14T05:28:51Z</time>
      </trkpt>
      <trkpt lat="42.87177" lon="-7.897858">
        <time>2022-07-14T05:28:55Z</time>
      </trkpt>
      <trkpt lat="42.87179" lon="-7.897921">
        <time>2022-07-14T05:28:59Z</time>
      </trkpt>
      <trkpt lat="42.871826" lon="-7.89799">
        <time>2022-07-14T05:29:04Z</time>
      </trkpt>
      <trkpt lat="42.871864" lon="-7.898044">
        <time>2022-07-14T05:29:08Z</time>
      </trkpt>
      <trkpt lat="42.871914" lon="-7.8980975">
        <time>2022-07-14T05:29:12Z</time>
      </trkpt>
      <trkpt lat="42.87196" lon="-7.898153">
        <time>2022-07-14T05:29:16Z</time>
      </trkpt>
      <trkpt lat="42.872005" lon="-7.8981986">
        <time>2022-07-14T05:29:20Z</time>
      </trkpt>
      <trkpt lat="42.872047" lon="-7.898238">
        <time>2022-07-14T05:29:24Z</time>
      </trkpt>
      <trkpt lat="42.8721" lon="-7.89829">
        <time>2022-07-14T05:29:29Z</time>
      </trkpt>
      <trkpt lat="42.87215" lon="-7.898334">
        <time>2022-07-14T05:29:33Z</time>
      </trkpt>
      <trkpt lat="42.872208" lon="-7.898369">
        <time>2022-07-14T05:29:37Z</time>
      </trkpt>
      <trkpt lat="42.872257" lon="-7.8984">
        <time>2022-07-14T05:29:41Z</time>
      </trkpt>
      <trkpt lat="42.8723" lon="-7.8984604">
        <time>2022-07-14T05:29:46Z</time>
      </trkpt>
      <trkpt lat="42.872337" lon="-7.8985214">
        <time>2022-07-14T05:29:51Z</time>
      </trkpt>
      <trkpt lat="42.87237" lon="-7.898588">
        <time>2022-07-14T05:29:56Z</time>
      </trkpt>
      <trkpt lat="42.87241" lon="-7.898643">
        <time>2022-07-14T05:30:00Z</time>
      </trkpt>
      <trkpt lat="42.87246" lon="-7.8986945">
        <time>2022-07-14T05:30:04Z</time>
      </trkpt>
      <trkpt lat="42.872513" lon="-7.8987365">
        <time>2022-07-14T05:30:08Z</time>
      </trkpt>
      <trkpt lat="42.872562" lon="-7.8987794">
        <time>2022-07-14T05:30:13Z</time>
      </trkpt>
      <trkpt lat="42.8726" lon="-7.898813">
        <time>2022-07-14T05:30:17Z</time>
      </trkpt>
      <trkpt lat="42.872665" lon="-7.8988647">
        <time>2022-07-14T05:30:23Z</time>
      </trkpt>
      <trkpt lat="42.872715" lon="-7.898902">
        <time>2022-07-14T05:30:27Z</time>
      </trkpt>
      <trkpt lat="42.87276" lon="-7.8989406">
        <time>2022-07-14T05:30:31Z</time>
      </trkpt>
      <trkpt lat="42.872807" lon="-7.8989797">
        <time>2022-07-14T05:30:35Z</time>
      </trkpt>
      <trkpt lat="42.87286" lon="-7.899017">
        <time>2022-07-14T05:30:39Z</time>
      </trkpt>
      <trkpt lat="42.872902" lon="-7.8990526">
        <time>2022-07-14T05:30:42Z</time>
      </trkpt>
      <trkpt lat="42.87296" lon="-7.8990965">
        <time>2022-07-14T05:30:46Z</time>
      </trkpt>
      <trkpt lat="42.873" lon="-7.8991256">
        <time>2022-07-14T05:30:49Z</time>
      </trkpt>
      <trkpt lat="42.87305" lon="-7.8991675">
        <time>2022-07-14T05:30:53Z</time>
      </trkpt>
      <trkpt lat="42.873085" lon="-7.8992114">
        <time>2022-07-14T05:30:57Z</time>
      </trkpt>
      <trkpt lat="42.873116" lon="-7.899269">
        <time>2022-07-14T05:31:01Z</time>
      </trkpt>
      <trkpt lat="42.873154" lon="-7.899329">
        <time>2022-07-14T05:31:06Z</time>
      </trkpt>
      <trkpt lat="42.8732" lon="-7.899392">
        <time>2022-07-14T05:31:12Z</time>
      </trkpt>
      <trkpt lat="42.873238" lon="-7.89945">
        <time>2022-07-14T05:31:16Z</time>
      </trkpt>
      <trkpt lat="42.873272" lon="-7.899499">
        <time>2022-07-14T05:31:20Z</time>
      </trkpt>
      <trkpt lat="42.873318" lon="-7.899549">
        <time>2022-07-14T05:31:24Z</time>
      </trkpt>
      <trkpt lat="42.873367" lon="-7.8996096">
        <time>2022-07-14T05:31:28Z</time>
      </trkpt>
      <trkpt lat="42.873405" lon="-7.899655">
        <time>2022-07-14T05:31:31Z</time>
      </trkpt>
      <trkpt lat="42.873444" lon="-7.899699">
        <time>2022-07-14T05:31:34Z</time>
      </trkpt>
      <trkpt lat="42.87348" lon="-7.899746">
        <time>2022-07-14T05:31:38Z</time>
      </trkpt>
      <trkpt lat="42.873528" lon="-7.8998165">
        <time>2022-07-14T05:31:43Z</time>
      </trkpt>
      <trkpt lat="42.873573" lon="-7.8998675">
        <time>2022-07-14T05:31:47Z</time>
      </trkpt>
      <trkpt lat="42.873604" lon="-7.899926">
        <time>2022-07-14T05:31:51Z</time>
      </trkpt>
      <trkpt lat="42.873627" lon="-7.899987">
        <time>2022-07-14T05:31:55Z</time>
      </trkpt>
      <trkpt lat="42.87367" lon="-7.900068">
        <time>2022-07-14T05:32:00Z</time>
      </trkpt>
      <trkpt lat="42.873707" lon="-7.900125">
        <time>2022-07-14T05:32:04Z</time>
      </trkpt>
      <trkpt lat="42.87374" lon="-7.9001737">
        <time>2022-07-14T05:32:08Z</time>
      </trkpt>
      <trkpt lat="42.873775" lon="-7.900228">
        <time>2022-07-14T05:32:12Z</time>
      </trkpt>
      <trkpt lat="42.87381" lon="-7.900299">
        <time>2022-07-14T05:32:17Z</time>
      </trkpt>
      <trkpt lat="42.87384" lon="-7.90037">
        <time>2022-07-14T05:32:21Z</time>
      </trkpt>
      <trkpt lat="42.873867" lon="-7.900436">
        <time>2022-07-14T05:32:25Z</time>
      </trkpt>
      <trkpt lat="42.87389" lon="-7.900494">
        <time>2022-07-14T05:32:29Z</time>
      </trkpt>
      <trkpt lat="42.87391" lon="-7.9005566">
        <time>2022-07-14T05:32:33Z</time>
      </trkpt>
      <trkpt lat="42.87391" lon="-7.900632">
        <time>2022-07-14T05:32:37Z</time>
      </trkpt>
      <trkpt lat="42.87394" lon="-7.9007077">
        <time>2022-07-14T05:32:42Z</time>
      </trkpt>
      <trkpt lat="42.873974" lon="-7.900776">
        <time>2022-07-14T05:32:46Z</time>
      </trkpt>
      <trkpt lat="42.87401" lon="-7.900844">
        <time>2022-07-14T05:32:50Z</time>
      </trkpt>
      <trkpt lat="42.87404" lon="-7.9009094">
        <time>2022-07-14T05:32:54Z</time>
      </trkpt>
      <trkpt lat="42.87407" lon="-7.9009786">
        <time>2022-07-14T05:33:00Z</time>
      </trkpt>
      <trkpt lat="42.874104" lon="-7.901049">
        <time>2022-07-14T05:33:05Z</time>
      </trkpt>
      <trkpt lat="42.874138" lon="-7.901119">
        <time>2022-07-14T05:33:08Z</time>
      </trkpt>
      <trkpt lat="42.874165" lon="-7.901191">
        <time>2022-07-14T05:33:11Z</time>
      </trkpt>
      <trkpt lat="42.8742" lon="-7.9012446">
        <time>2022-07-14T05:33:14Z</time>
      </trkpt>
      <trkpt lat="42.87422" lon="-7.901299">
        <time>2022-07-14T05:33:17Z</time>
      </trkpt>
      <trkpt lat="42.874245" lon="-7.9013615">
        <time>2022-07-14T05:33:22Z</time>
      </trkpt>
      <trkpt lat="42.874287" lon="-7.9013963">
        <time>2022-07-14T05:33:28Z</time>
      </trkpt>
      <trkpt lat="42.874344" lon="-7.901445">
        <time>2022-07-14T05:33:33Z</time>
      </trkpt>
      <trkpt lat="42.874382" lon="-7.901502">
        <time>2022-07-14T05:33:37Z</time>
      </trkpt>
      <trkpt lat="42.87443" lon="-7.9015512">
        <time>2022-07-14T05:33:41Z</time>
      </trkpt>
      <trkpt lat="42.874477" lon="-7.9015927">
        <time>2022-07-14T05:33:45Z</time>
      </trkpt>
      <trkpt lat="42.87452" lon="-7.9016294">
        <time>2022-07-14T05:33:49Z</time>
      </trkpt>
      <trkpt lat="42.874542" lon="-7.901691">
        <time>2022-07-14T05:33:54Z</time>
      </trkpt>
      <trkpt lat="42.874554" lon="-7.90176">
        <time>2022-07-14T05:33:59Z</time>
      </trkpt>
      <trkpt lat="42.87453" lon="-7.901849">
        <time>2022-07-14T05:34:04Z</time>
      </trkpt>
      <trkpt lat="42.874496" lon="-7.9019256">
        <time>2022-07-14T05:34:08Z</time>
      </trkpt>
      <trkpt lat="42.874462" lon="-7.901992">
        <time>2022-07-14T05:34:12Z</time>
      </trkpt>
      <trkpt lat="42.874454" lon="-7.902064">
        <time>2022-07-14T05:34:16Z</time>
      </trkpt>
      <trkpt lat="42.87447" lon="-7.902135">
        <time>2022-07-14T05:34:20Z</time>
      </trkpt>
      <trkpt lat="42.87449" lon="-7.9022">
        <time>2022-07-14T05:34:24Z</time>
      </trkpt>
      <trkpt lat="42.874504" lon="-7.9022765">
        <time>2022-07-14T05:34:29Z</time>
      </trkpt>
      <trkpt lat="42.874508" lon="-7.9023614">
        <time>2022-07-14T05:34:34Z</time>
      </trkpt>
      <trkpt lat="42.874508" lon="-7.9024444">
        <time>2022-07-14T05:34:38Z</time>
      </trkpt>
      <trkpt lat="42.874516" lon="-7.9025173">
        <time>2022-07-14T05:34:42Z</time>
      </trkpt>
      <trkpt lat="42.874527" lon="-7.902581">
        <time>2022-07-14T05:34:46Z</time>
      </trkpt>
      <trkpt lat="42.874557" lon="-7.902654">
        <time>2022-07-14T05:34:50Z</time>
      </trkpt>
      <trkpt lat="42.874554" lon="-7.902735">
        <time>2022-07-14T05:34:54Z</time>
      </trkpt>
      <trkpt lat="42.87453" lon="-7.902793">
        <time>2022-07-14T05:34:57Z</time>
      </trkpt>
      <trkpt lat="42.874504" lon="-7.9028587">
        <time>2022-07-14T05:35:01Z</time>
      </trkpt>
      <trkpt lat="42.874474" lon="-7.902917">
        <time>2022-07-14T05:35:05Z</time>
      </trkpt>
      <trkpt lat="42.87445" lon="-7.902988">
        <time>2022-07-14T05:35:10Z</time>
      </trkpt>
      <trkpt lat="42.874435" lon="-7.903063">
        <time>2022-07-14T05:35:14Z</time>
      </trkpt>
      <trkpt lat="42.874428" lon="-7.9031425">
        <time>2022-07-14T05:35:18Z</time>
      </trkpt>
      <trkpt lat="42.874424" lon="-7.903219">
        <time>2022-07-14T05:35:22Z</time>
      </trkpt>
      <trkpt lat="42.874443" lon="-7.90329">
        <time>2022-07-14T05:35:26Z</time>
      </trkpt>
      <trkpt lat="42.874466" lon="-7.903348">
        <time>2022-07-14T05:35:30Z</time>
      </trkpt>
      <trkpt lat="42.8745" lon="-7.9034014">
        <time>2022-07-14T05:35:34Z</time>
      </trkpt>
      <trkpt lat="42.874542" lon="-7.903462">
        <time>2022-07-14T05:35:38Z</time>
      </trkpt>
      <trkpt lat="42.87456" lon="-7.903517">
        <time>2022-07-14T05:35:44Z</time>
      </trkpt>
      <trkpt lat="42.874554" lon="-7.9036155">
        <time>2022-07-14T05:37:38Z</time>
      </trkpt>
      <trkpt lat="42.874516" lon="-7.9036956">
        <time>2022-07-14T05:37:43Z</time>
      </trkpt>
      <trkpt lat="42.87449" lon="-7.9037523">
        <time>2022-07-14T05:37:46Z</time>
      </trkpt>
      <trkpt lat="42.874462" lon="-7.9038157">
        <time>2022-07-14T05:37:50Z</time>
      </trkpt>
      <trkpt lat="42.874443" lon="-7.9038835">
        <time>2022-07-14T05:37:54Z</time>
      </trkpt>
      <trkpt lat="42.87443" lon="-7.9039526">
        <time>2022-07-14T05:37:58Z</time>
      </trkpt>
      <trkpt lat="42.87443" lon="-7.904026">
        <time>2022-07-14T05:38:02Z</time>
      </trkpt>
      <trkpt lat="42.87443" lon="-7.9040966">
        <time>2022-07-14T05:38:06Z</time>
      </trkpt>
      <trkpt lat="42.874443" lon="-7.904168">
        <time>2022-07-14T05:38:10Z</time>
      </trkpt>
      <trkpt lat="42.87447" lon="-7.904249">
        <time>2022-07-14T05:38:15Z</time>
      </trkpt>
      <trkpt lat="42.874504" lon="-7.9042997">
        <time>2022-07-14T05:38:19Z</time>
      </trkpt>
      <trkpt lat="42.87455" lon="-7.9043484">
        <time>2022-07-14T05:38:24Z</time>
      </trkpt>
      <trkpt lat="42.874603" lon="-7.904385">
        <time>2022-07-14T05:38:29Z</time>
      </trkpt>
      <trkpt lat="42.874657" lon="-7.9044194">
        <time>2022-07-14T05:38:34Z</time>
      </trkpt>
      <trkpt lat="42.874702" lon="-7.9044437">
        <time>2022-07-14T05:38:38Z</time>
      </trkpt>
      <trkpt lat="42.874756" lon="-7.904472">
        <time>2022-07-14T05:38:42Z</time>
      </trkpt>
      <trkpt lat="42.87481" lon="-7.904512">
        <time>2022-07-14T05:38:46Z</time>
      </trkpt>
      <trkpt lat="42.87486" lon="-7.9045534">
        <time>2022-07-14T05:38:50Z</time>
      </trkpt>
      <trkpt lat="42.874905" lon="-7.904612">
        <time>2022-07-14T05:38:55Z</time>
      </trkpt>
      <trkpt lat="42.87493" lon="-7.904673">
        <time>2022-07-14T05:39:00Z</time>
      </trkpt>
      <trkpt lat="42.874958" lon="-7.9047413">
        <time>2022-07-14T05:39:04Z</time>
      </trkpt>
      <trkpt lat="42.874985" lon="-7.904811">
        <time>2022-07-14T05:39:08Z</time>
      </trkpt>
      <trkpt lat="42.875004" lon="-7.9048777">
        <time>2022-07-14T05:39:12Z</time>
      </trkpt>
      <trkpt lat="42.87502" lon="-7.9049387">
        <time>2022-07-14T05:39:16Z</time>
      </trkpt>
      <trkpt lat="42.875046" lon="-7.9050207">
        <time>2022-07-14T05:39:21Z</time>
      </trkpt>
      <trkpt lat="42.87507" lon="-7.9050946">
        <time>2022-07-14T05:39:25Z</time>
      </trkpt>
      <trkpt lat="42.875095" lon="-7.905155">
        <time>2022-07-14T05:39:29Z</time>
      </trkpt>
      <trkpt lat="42.875114" lon="-7.9052267">
        <time>2022-07-14T05:39:33Z</time>
      </trkpt>
      <trkpt lat="42.875137" lon="-7.905294">
        <time>2022-07-14T05:39:37Z</time>
      </trkpt>
      <trkpt lat="42.87516" lon="-7.9053698">
        <time>2022-07-14T05:39:41Z</time>
      </trkpt>
      <trkpt lat="42.875175" lon="-7.9054394">
        <time>2022-07-14T05:39:45Z</time>
      </trkpt>
      <trkpt lat="42.875183" lon="-7.9055195">
        <time>2022-07-14T05:39:50Z</time>
      </trkpt>
      <trkpt lat="42.875187" lon="-7.9055996">
        <time>2022-07-14T05:39:54Z</time>
      </trkpt>
      <trkpt lat="42.875187" lon="-7.9056826">
        <time>2022-07-14T05:39:58Z</time>
      </trkpt>
      <trkpt lat="42.87519" lon="-7.90575">
        <time>2022-07-14T05:40:02Z</time>
      </trkpt>
      <trkpt lat="42.8752" lon="-7.9058366">
        <time>2022-07-14T05:40:07Z</time>
      </trkpt>
      <trkpt lat="42.87521" lon="-7.905914">
        <time>2022-07-14T05:40:11Z</time>
      </trkpt>
      <trkpt lat="42.87522" lon="-7.905986">
        <time>2022-07-14T05:40:15Z</time>
      </trkpt>
      <trkpt lat="42.87523" lon="-7.9060507">
        <time>2022-07-14T05:40:19Z</time>
      </trkpt>
      <trkpt lat="42.875244" lon="-7.9061403">
        <time>2022-07-14T05:40:24Z</time>
      </trkpt>
      <trkpt lat="42.875248" lon="-7.9062123">
        <time>2022-07-14T05:40:28Z</time>
      </trkpt>
      <trkpt lat="42.875248" lon="-7.906291">
        <time>2022-07-14T05:40:33Z</time>
      </trkpt>
      <trkpt lat="42.875256" lon="-7.9063826">
        <time>2022-07-14T05:40:38Z</time>
      </trkpt>
      <trkpt lat="42.87527" lon="-7.9064713">
        <time>2022-07-14T05:40:42Z</time>
      </trkpt>
      <trkpt lat="42.875286" lon="-7.9065375">
        <time>2022-07-14T05:40:45Z</time>
      </trkpt>
      <trkpt lat="42.8753" lon="-7.9066105">
        <time>2022-07-14T05:40:48Z</time>
      </trkpt>
      <trkpt lat="42.875317" lon="-7.9066863">
        <time>2022-07-14T05:40:52Z</time>
      </trkpt>
      <trkpt lat="42.875328" lon="-7.9067545">
        <time>2022-07-14T05:40:56Z</time>
      </trkpt>
      <trkpt lat="42.875347" lon="-7.906834">
        <time>2022-07-14T05:41:01Z</time>
      </trkpt>
      <trkpt lat="42.875362" lon="-7.906908">
        <time>2022-07-14T05:41:05Z</time>
      </trkpt>
      <trkpt lat="42.875378" lon="-7.9069943">
        <time>2022-07-14T05:41:09Z</time>
      </trkpt>
      <trkpt lat="42.875393" lon="-7.9070783">
        <time>2022-07-14T05:41:13Z</time>
      </trkpt>
      <trkpt lat="42.8754" lon="-7.907149">
        <time>2022-07-14T05:41:17Z</time>
      </trkpt>
      <trkpt lat="42.87541" lon="-7.907232">
        <time>2022-07-14T05:41:22Z</time>
      </trkpt>
      <trkpt lat="42.875412" lon="-7.907312">
        <time>2022-07-14T05:41:26Z</time>
      </trkpt>
      <trkpt lat="42.875427" lon="-7.907398">
        <time>2022-07-14T05:41:30Z</time>
      </trkpt>
      <trkpt lat="42.87544" lon="-7.9074616">
        <time>2022-07-14T05:41:33Z</time>
      </trkpt>
      <trkpt lat="42.87545" lon="-7.9075327">
        <time>2022-07-14T05:41:37Z</time>
      </trkpt>
      <trkpt lat="42.875458" lon="-7.9076114">
        <time>2022-07-14T05:41:42Z</time>
      </trkpt>
      <trkpt lat="42.87547" lon="-7.9077044">
        <time>2022-07-14T05:41:47Z</time>
      </trkpt>
      <trkpt lat="42.875492" lon="-7.9077806">
        <time>2022-07-14T05:41:51Z</time>
      </trkpt>
      <trkpt lat="42.87551" lon="-7.9078546">
        <time>2022-07-14T05:41:55Z</time>
      </trkpt>
      <trkpt lat="42.875534" lon="-7.9079294">
        <time>2022-07-14T05:41:59Z</time>
      </trkpt>
      <trkpt lat="42.875557" lon="-7.9079995">
        <time>2022-07-14T05:42:03Z</time>
      </trkpt>
      <trkpt lat="42.87557" lon="-7.9080677">
        <time>2022-07-14T05:42:07Z</time>
      </trkpt>
      <trkpt lat="42.875587" lon="-7.908134">
        <time>2022-07-14T05:42:11Z</time>
      </trkpt>
      <trkpt lat="42.87561" lon="-7.9082026">
        <time>2022-07-14T05:42:15Z</time>
      </trkpt>
      <trkpt lat="42.875637" lon="-7.9082766">
        <time>2022-07-14T05:42:19Z</time>
      </trkpt>
      <trkpt lat="42.875668" lon="-7.908338">
        <time>2022-07-14T05:42:23Z</time>
      </trkpt>
      <trkpt lat="42.875694" lon="-7.908412">
        <time>2022-07-14T05:42:28Z</time>
      </trkpt>
      <trkpt lat="42.875713" lon="-7.9084806">
        <time>2022-07-14T05:42:32Z</time>
      </trkpt>
      <trkpt lat="42.875736" lon="-7.9085593">
        <time>2022-07-14T05:42:36Z</time>
      </trkpt>
      <trkpt lat="42.875763" lon="-7.908615">
        <time>2022-07-14T05:42:39Z</time>
      </trkpt>
      <trkpt lat="42.875793" lon="-7.9086833">
        <time>2022-07-14T05:42:43Z</time>
      </trkpt>
      <trkpt lat="42.87583" lon="-7.908732">
        <time>2022-07-14T05:42:47Z</time>
      </trkpt>
      <trkpt lat="42.87587" lon="-7.9088006">
        <time>2022-07-14T05:42:52Z</time>
      </trkpt>
      <trkpt lat="42.8759" lon="-7.9088626">
        <time>2022-07-14T05:42:56Z</time>
      </trkpt>
      <trkpt lat="42.87594" lon="-7.9089246">
        <time>2022-07-14T05:43:01Z</time>
      </trkpt>
      <trkpt lat="42.875984" lon="-7.908986">
        <time>2022-07-14T05:43:06Z</time>
      </trkpt>
      <trkpt lat="42.87603" lon="-7.9090266">
        <time>2022-07-14T05:43:10Z</time>
      </trkpt>
      <trkpt lat="42.876076" lon="-7.909079">
        <time>2022-07-14T05:43:14Z</time>
      </trkpt>
      <trkpt lat="42.87611" lon="-7.909126">
        <time>2022-07-14T05:43:18Z</time>
      </trkpt>
      <trkpt lat="42.876156" lon="-7.9091654">
        <time>2022-07-14T05:43:23Z</time>
      </trkpt>
      <trkpt lat="42.876198" lon="-7.909212">
        <time>2022-07-14T05:43:28Z</time>
      </trkpt>
      <trkpt lat="42.876244" lon="-7.909259">
        <time>2022-07-14T05:43:32Z</time>
      </trkpt>
      <trkpt lat="42.87629" lon="-7.909314">
        <time>2022-07-14T05:43:36Z</time>
      </trkpt>
      <trkpt lat="42.876324" lon="-7.9093633">
        <time>2022-07-14T05:43:40Z</time>
      </trkpt>
      <trkpt lat="42.876366" lon="-7.9094143">
        <time>2022-07-14T05:43:45Z</time>
      </trkpt>
      <trkpt lat="42.87641" lon="-7.9094644">
        <time>2022-07-14T05:43:50Z</time>
      </trkpt>
      <trkpt lat="42.87645" lon="-7.909521">
        <time>2022-07-14T05:43:54Z</time>
      </trkpt>
      <trkpt lat="42.876476" lon="-7.9095755">
        <time>2022-07-14T05:43:57Z</time>
      </trkpt>
      <trkpt lat="42.87652" lon="-7.909627">
        <time>2022-07-14T05:44:01Z</time>
      </trkpt>
      <trkpt lat="42.87656" lon="-7.9096613">
        <time>2022-07-14T05:44:06Z</time>
      </trkpt>
      <trkpt lat="42.876587" lon="-7.9097195">
        <time>2022-07-14T05:44:11Z</time>
      </trkpt>
      <trkpt lat="42.876617" lon="-7.909788">
        <time>2022-07-14T05:44:15Z</time>
      </trkpt>
      <trkpt lat="42.876667" lon="-7.9098454">
        <time>2022-07-14T05:44:19Z</time>
      </trkpt>
      <trkpt lat="42.87671" lon="-7.909888">
        <time>2022-07-14T05:44:22Z</time>
      </trkpt>
      <trkpt lat="42.876747" lon="-7.9099383">
        <time>2022-07-14T05:44:25Z</time>
      </trkpt>
      <trkpt lat="42.876785" lon="-7.910011">
        <time>2022-07-14T05:44:29Z</time>
      </trkpt>
      <trkpt lat="42.876816" lon="-7.9100795">
        <time>2022-07-14T05:44:33Z</time>
      </trkpt>
      <trkpt lat="42.876842" lon="-7.910147">
        <time>2022-07-14T05:44:37Z</time>
      </trkpt>
      <trkpt lat="42.87686" lon="-7.9102263">
        <time>2022-07-14T05:44:41Z</time>
      </trkpt>
      <trkpt lat="42.876884" lon="-7.9103236">
        <time>2022-07-14T05:44:46Z</time>
      </trkpt>
      <trkpt lat="42.876896" lon="-7.9103975">
        <time>2022-07-14T05:44:50Z</time>
      </trkpt>
      <trkpt lat="42.876904" lon="-7.9104757">
        <time>2022-07-14T05:44:55Z</time>
      </trkpt>
      <trkpt lat="42.87692" lon="-7.910535">
        <time>2022-07-14T05:44:59Z</time>
      </trkpt>
      <trkpt lat="42.876945" lon="-7.910615">
        <time>2022-07-14T05:45:04Z</time>
      </trkpt>
      <trkpt lat="42.876976" lon="-7.910689">
        <time>2022-07-14T05:45:09Z</time>
      </trkpt>
      <trkpt lat="42.877" lon="-7.9107556">
        <time>2022-07-14T05:45:13Z</time>
      </trkpt>
      <trkpt lat="42.877026" lon="-7.910818">
        <time>2022-07-14T05:45:17Z</time>
      </trkpt>
      <trkpt lat="42.877045" lon="-7.9108872">
        <time>2022-07-14T05:45:21Z</time>
      </trkpt>
      <trkpt lat="42.87708" lon="-7.91096">
        <time>2022-07-14T05:45:25Z</time>
      </trkpt>
      <trkpt lat="42.877098" lon="-7.911023">
        <time>2022-07-14T05:45:28Z</time>
      </trkpt>
      <trkpt lat="42.8771" lon="-7.9110885">
        <time>2022-07-14T05:45:31Z</time>
      </trkpt>
      <trkpt lat="42.87711" lon="-7.9111586">
        <time>2022-07-14T05:45:35Z</time>
      </trkpt>
      <trkpt lat="42.877132" lon="-7.9112277">
        <time>2022-07-14T05:45:39Z</time>
      </trkpt>
      <trkpt lat="42.87715" lon="-7.911294">
        <time>2022-07-14T05:45:43Z</time>
      </trkpt>
      <trkpt lat="42.877182" lon="-7.911357">
        <time>2022-07-14T05:45:48Z</time>
      </trkpt>
      <trkpt lat="42.8772" lon="-7.9114223">
        <time>2022-07-14T05:45:53Z</time>
      </trkpt>
      <trkpt lat="42.87722" lon="-7.911504">
        <time>2022-07-14T05:45:58Z</time>
      </trkpt>
      <trkpt lat="42.87724" lon="-7.911585">
        <time>2022-07-14T05:46:03Z</time>
      </trkpt>
      <trkpt lat="42.877262" lon="-7.911655">
        <time>2022-07-14T05:46:08Z</time>
      </trkpt>
      <trkpt lat="42.87729" lon="-7.9117312">
        <time>2022-07-14T05:46:12Z</time>
      </trkpt>
      <trkpt lat="42.8773" lon="-7.911812">
        <time>2022-07-14T05:46:16Z</time>
      </trkpt>
      <trkpt lat="42.877308" lon="-7.9118786">
        <time>2022-07-14T05:46:19Z</time>
      </trkpt>
      <trkpt lat="42.877327" lon="-7.911947">
        <time>2022-07-14T05:46:23Z</time>
      </trkpt>
      <trkpt lat="42.877365" lon="-7.912003">
        <time>2022-07-14T05:46:28Z</time>
      </trkpt>
      <trkpt lat="42.877415" lon="-7.9120455">
        <time>2022-07-14T05:46:33Z</time>
      </trkpt>
      <trkpt lat="42.87747" lon="-7.9120965">
        <time>2022-07-14T05:46:38Z</time>
      </trkpt>
      <trkpt lat="42.877506" lon="-7.9121537">
        <time>2022-07-14T05:46:42Z</time>
      </trkpt>
      <trkpt lat="42.87754" lon="-7.912205">
        <time>2022-07-14T05:46:45Z</time>
      </trkpt>
      <trkpt lat="42.877583" lon="-7.912255">
        <time>2022-07-14T05:46:49Z</time>
      </trkpt>
      <trkpt lat="42.87763" lon="-7.9122963">
        <time>2022-07-14T05:46:54Z</time>
      </trkpt>
      <trkpt lat="42.87766" lon="-7.9123545">
        <time>2022-07-14T05:46:58Z</time>
      </trkpt>
      <trkpt lat="42.877705" lon="-7.912408">
        <time>2022-07-14T05:47:03Z</time>
      </trkpt>
      <trkpt lat="42.87774" lon="-7.9124866">
        <time>2022-07-14T05:47:08Z</time>
      </trkpt>
      <trkpt lat="42.877766" lon="-7.9125586">
        <time>2022-07-14T05:47:13Z</time>
      </trkpt>
      <trkpt lat="42.877796" lon="-7.9126325">
        <time>2022-07-14T05:47:18Z</time>
      </trkpt>
      <trkpt lat="42.877823" lon="-7.912698">
        <time>2022-07-14T05:47:23Z</time>
      </trkpt>
      <trkpt lat="42.87785" lon="-7.9127774">
        <time>2022-07-14T05:47:28Z</time>
      </trkpt>
      <trkpt lat="42.87788" lon="-7.9128504">
        <time>2022-07-14T05:47:32Z</time>
      </trkpt>
      <trkpt lat="42.87791" lon="-7.9129148">
        <time>2022-07-14T05:47:36Z</time>
      </trkpt>
      <trkpt lat="42.877926" lon="-7.9129896">
        <time>2022-07-14T05:47:41Z</time>
      </trkpt>
      <trkpt lat="42.877926" lon="-7.9130654">
        <time>2022-07-14T05:47:45Z</time>
      </trkpt>
      <trkpt lat="42.877907" lon="-7.9131374">
        <time>2022-07-14T05:47:49Z</time>
      </trkpt>
      <trkpt lat="42.87788" lon="-7.9132066">
        <time>2022-07-14T05:47:53Z</time>
      </trkpt>
      <trkpt lat="42.877865" lon="-7.91327">
        <time>2022-07-14T05:47:57Z</time>
      </trkpt>
      <trkpt lat="42.87787" lon="-7.9133534">
        <time>2022-07-14T05:48:02Z</time>
      </trkpt>
      <trkpt lat="42.877888" lon="-7.913434">
        <time>2022-07-14T05:48:06Z</time>
      </trkpt>
      <trkpt lat="42.87791" lon="-7.913493">
        <time>2022-07-14T05:48:09Z</time>
      </trkpt>
      <trkpt lat="42.877945" lon="-7.913563">
        <time>2022-07-14T05:48:13Z</time>
      </trkpt>
      <trkpt lat="42.877968" lon="-7.913624">
        <time>2022-07-14T05:48:17Z</time>
      </trkpt>
      <trkpt lat="42.877987" lon="-7.9137144">
        <time>2022-07-14T05:48:22Z</time>
      </trkpt>
      <trkpt lat="42.878017" lon="-7.9137864">
        <time>2022-07-14T05:48:26Z</time>
      </trkpt>
      <trkpt lat="42.878048" lon="-7.913852">
        <time>2022-07-14T05:48:30Z</time>
      </trkpt>
      <trkpt lat="42.878067" lon="-7.913904">
        <time>2022-07-14T05:48:34Z</time>
      </trkpt>
      <trkpt lat="42.878082" lon="-7.913982">
        <time>2022-07-14T05:48:39Z</time>
      </trkpt>
      <trkpt lat="42.87809" lon="-7.914056">
        <time>2022-07-14T05:48:43Z</time>
      </trkpt>
      <trkpt lat="42.878105" lon="-7.9141297">
        <time>2022-07-14T05:48:48Z</time>
      </trkpt>
      <trkpt lat="42.878143" lon="-7.914193">
        <time>2022-07-14T05:48:53Z</time>
      </trkpt>
      <trkpt lat="42.87819" lon="-7.914234">
        <time>2022-07-14T05:48:57Z</time>
      </trkpt>
      <trkpt lat="42.878242" lon="-7.914271">
        <time>2022-07-14T05:49:02Z</time>
      </trkpt>
      <trkpt lat="42.878296" lon="-7.914298">
        <time>2022-07-14T05:49:06Z</time>
      </trkpt>
      <trkpt lat="42.878338" lon="-7.914326">
        <time>2022-07-14T05:49:10Z</time>
      </trkpt>
      <trkpt lat="42.878384" lon="-7.914369">
        <time>2022-07-14T05:49:15Z</time>
      </trkpt>
      <trkpt lat="42.878433" lon="-7.91441">
        <time>2022-07-14T05:49:20Z</time>
      </trkpt>
      <trkpt lat="42.878483" lon="-7.91443">
        <time>2022-07-14T05:49:24Z</time>
      </trkpt>
      <trkpt lat="42.878532" lon="-7.914456">
        <time>2022-07-14T05:49:28Z</time>
      </trkpt>
      <trkpt lat="42.87859" lon="-7.9144826">
        <time>2022-07-14T05:49:33Z</time>
      </trkpt>
      <trkpt lat="42.87864" lon="-7.914513">
        <time>2022-07-14T05:49:38Z</time>
      </trkpt>
      <trkpt lat="42.87869" lon="-7.914539">
        <time>2022-07-14T05:49:43Z</time>
      </trkpt>
      <trkpt lat="42.878735" lon="-7.91458">
        <time>2022-07-14T05:49:48Z</time>
      </trkpt>
      <trkpt lat="42.87877" lon="-7.914632">
        <time>2022-07-14T05:49:53Z</time>
      </trkpt>
      <trkpt lat="42.878796" lon="-7.9146934">
        <time>2022-07-14T05:49:58Z</time>
      </trkpt>
      <trkpt lat="42.878826" lon="-7.914768">
        <time>2022-07-14T05:50:03Z</time>
      </trkpt>
      <trkpt lat="42.878853" lon="-7.9148383">
        <time>2022-07-14T05:50:08Z</time>
      </trkpt>
      <trkpt lat="42.878876" lon="-7.9148965">
        <time>2022-07-14T05:50:13Z</time>
      </trkpt>
      <trkpt lat="42.87891" lon="-7.914967">
        <time>2022-07-14T05:50:19Z</time>
      </trkpt>
      <trkpt lat="42.87894" lon="-7.9150257">
        <time>2022-07-14T05:50:24Z</time>
      </trkpt>
      <trkpt lat="42.87898" lon="-7.915083">
        <time>2022-07-14T05:50:29Z</time>
      </trkpt>
      <trkpt lat="42.878998" lon="-7.9151545">
        <time>2022-07-14T05:50:35Z</time>
      </trkpt>
      <trkpt lat="42.879013" lon="-7.915234">
        <time>2022-07-14T05:50:40Z</time>
      </trkpt>
      <trkpt lat="42.879017" lon="-7.915303">
        <time>2022-07-14T05:50:44Z</time>
      </trkpt>
      <trkpt lat="42.879025" lon="-7.91538">
        <time>2022-07-14T05:50:49Z</time>
      </trkpt>
      <trkpt lat="42.87904" lon="-7.915461">
        <time>2022-07-14T05:50:54Z</time>
      </trkpt>
      <trkpt lat="42.879047" lon="-7.9155426">
        <time>2022-07-14T05:50:59Z</time>
      </trkpt>
      <trkpt lat="42.879047" lon="-7.915624">
        <time>2022-07-14T05:51:03Z</time>
      </trkpt>
      <trkpt lat="42.879044" lon="-7.915691">
        <time>2022-07-14T05:51:07Z</time>
      </trkpt>
      <trkpt lat="42.879047" lon="-7.9157586">
        <time>2022-07-14T05:51:12Z</time>
      </trkpt>
      <trkpt lat="42.879044" lon="-7.915843">
        <time>2022-07-14T05:51:18Z</time>
      </trkpt>
      <trkpt lat="42.879044" lon="-7.915923">
        <time>2022-07-14T05:51:22Z</time>
      </trkpt>
      <trkpt lat="42.87905" lon="-7.915985">
        <time>2022-07-14T05:51:25Z</time>
      </trkpt>
      <trkpt lat="42.879063" lon="-7.9160557">
        <time>2022-07-14T05:51:29Z</time>
      </trkpt>
      <trkpt lat="42.879078" lon="-7.9161363">
        <time>2022-07-14T05:51:34Z</time>
      </trkpt>
      <trkpt lat="42.879093" lon="-7.9162145">
        <time>2022-07-14T05:51:39Z</time>
      </trkpt>
      <trkpt lat="42.879112" lon="-7.9162927">
        <time>2022-07-14T05:51:43Z</time>
      </trkpt>
      <trkpt lat="42.87913" lon="-7.9163694">
        <time>2022-07-14T05:51:47Z</time>
      </trkpt>
      <trkpt lat="42.87915" lon="-7.916435">
        <time>2022-07-14T05:51:51Z</time>
      </trkpt>
      <trkpt lat="42.879166" lon="-7.9165163">
        <time>2022-07-14T05:51:56Z</time>
      </trkpt>
      <trkpt lat="42.87918" lon="-7.9165735">
        <time>2022-07-14T05:52:00Z</time>
      </trkpt>
      <trkpt lat="42.8792" lon="-7.9166536">
        <time>2022-07-14T05:52:06Z</time>
      </trkpt>
      <trkpt lat="42.87922" lon="-7.9167285">
        <time>2022-07-14T05:52:11Z</time>
      </trkpt>
      <trkpt lat="42.879242" lon="-7.916808">
        <time>2022-07-14T05:52:16Z</time>
      </trkpt>
      <trkpt lat="42.879257" lon="-7.916873">
        <time>2022-07-14T05:52:20Z</time>
      </trkpt>
      <trkpt lat="42.879284" lon="-7.9169455">
        <time>2022-07-14T05:52:25Z</time>
      </trkpt>
      <trkpt lat="42.8793" lon="-7.9170265">
        <time>2022-07-14T05:52:29Z</time>
      </trkpt>
      <trkpt lat="42.879314" lon="-7.917079">
        <time>2022-07-14T05:52:32Z</time>
      </trkpt>
      <trkpt lat="42.87935" lon="-7.9171567">
        <time>2022-07-14T05:52:37Z</time>
      </trkpt>
      <trkpt lat="42.87938" lon="-7.917213">
        <time>2022-07-14T05:52:41Z</time>
      </trkpt>
      <trkpt lat="42.879414" lon="-7.917283">
        <time>2022-07-14T05:52:46Z</time>
      </trkpt>
      <trkpt lat="42.87944" lon="-7.9173465">
        <time>2022-07-14T05:52:50Z</time>
      </trkpt>
      <trkpt lat="42.879463" lon="-7.9174175">
        <time>2022-07-14T05:52:55Z</time>
      </trkpt>
      <trkpt lat="42.879494" lon="-7.9174805">
        <time>2022-07-14T05:52:59Z</time>
      </trkpt>
      <trkpt lat="42.879513" lon="-7.9175377">
        <time>2022-07-14T05:53:04Z</time>
      </trkpt>
      <trkpt lat="42.87954" lon="-7.9176106">
        <time>2022-07-14T05:53:09Z</time>
      </trkpt>
      <trkpt lat="42.87956" lon="-7.9176846">
        <time>2022-07-14T05:53:14Z</time>
      </trkpt>
      <trkpt lat="42.879578" lon="-7.9177427">
        <time>2022-07-14T05:53:18Z</time>
      </trkpt>
      <trkpt lat="42.87959" lon="-7.917815">
        <time>2022-07-14T05:53:23Z</time>
      </trkpt>
      <trkpt lat="42.879616" lon="-7.9178863">
        <time>2022-07-14T05:53:28Z</time>
      </trkpt>
      <trkpt lat="42.87963" lon="-7.9179535">
        <time>2022-07-14T05:53:32Z</time>
      </trkpt>
      <trkpt lat="42.879646" lon="-7.9180193">
        <time>2022-07-14T05:53:36Z</time>
      </trkpt>
      <trkpt lat="42.87966" lon="-7.918105">
        <time>2022-07-14T05:53:41Z</time>
      </trkpt>
      <trkpt lat="42.87966" lon="-7.918182">
        <time>2022-07-14T05:53:45Z</time>
      </trkpt>
      <trkpt lat="42.879692" lon="-7.918252">
        <time>2022-07-14T05:53:50Z</time>
      </trkpt>
      <trkpt lat="42.87971" lon="-7.918327">
        <time>2022-07-14T05:53:54Z</time>
      </trkpt>
      <trkpt lat="42.879723" lon="-7.918391">
        <time>2022-07-14T05:53:58Z</time>
      </trkpt>
      <trkpt lat="42.879745" lon="-7.9184604">
        <time>2022-07-14T05:54:03Z</time>
      </trkpt>
      <trkpt lat="42.879765" lon="-7.9185314">
        <time>2022-07-14T05:54:07Z</time>
      </trkpt>
      <trkpt lat="42.879772" lon="-7.9185996">
        <time>2022-07-14T05:54:11Z</time>
      </trkpt>
      <trkpt lat="42.879772" lon="-7.918671">
        <time>2022-07-14T05:54:15Z</time>
      </trkpt>
      <trkpt lat="42.87978" lon="-7.9187403">
        <time>2022-07-14T05:54:19Z</time>
      </trkpt>
      <trkpt lat="42.879787" lon="-7.918816">
        <time>2022-07-14T05:54:23Z</time>
      </trkpt>
      <trkpt lat="42.8798" lon="-7.9189">
        <time>2022-07-14T05:54:27Z</time>
      </trkpt>
      <trkpt lat="42.879803" lon="-7.918974">
        <time>2022-07-14T05:54:31Z</time>
      </trkpt>
      <trkpt lat="42.8798" lon="-7.9190545">
        <time>2022-07-14T05:54:36Z</time>
      </trkpt>
      <trkpt lat="42.879807" lon="-7.9191475">
        <time>2022-07-14T05:54:40Z</time>
      </trkpt>
      <trkpt lat="42.879814" lon="-7.9192123">
        <time>2022-07-14T05:54:43Z</time>
      </trkpt>
      <trkpt lat="42.879837" lon="-7.91928">
        <time>2022-07-14T05:54:47Z</time>
      </trkpt>
      <trkpt lat="42.87985" lon="-7.9193554">
        <time>2022-07-14T05:54:51Z</time>
      </trkpt>
      <trkpt lat="42.879864" lon="-7.9194202">
        <time>2022-07-14T05:54:55Z</time>
      </trkpt>
      <trkpt lat="42.879875" lon="-7.919501">
        <time>2022-07-14T05:54:59Z</time>
      </trkpt>
      <trkpt lat="42.879883" lon="-7.919583">
        <time>2022-07-14T05:55:03Z</time>
      </trkpt>
      <trkpt lat="42.87989" lon="-7.9196568">
        <time>2022-07-14T05:55:07Z</time>
      </trkpt>
      <trkpt lat="42.879913" lon="-7.9197173">
        <time>2022-07-14T05:55:11Z</time>
      </trkpt>
      <trkpt lat="42.87992" lon="-7.919799">
        <time>2022-07-14T05:55:15Z</time>
      </trkpt>
      <trkpt lat="42.87993" lon="-7.9198804">
        <time>2022-07-14T05:55:19Z</time>
      </trkpt>
      <trkpt lat="42.879936" lon="-7.9199476">
        <time>2022-07-14T05:55:23Z</time>
      </trkpt>
      <trkpt lat="42.87994" lon="-7.9200335">
        <time>2022-07-14T05:55:27Z</time>
      </trkpt>
      <trkpt lat="42.879932" lon="-7.920111">
        <time>2022-07-14T05:55:31Z</time>
      </trkpt>
      <trkpt lat="42.879944" lon="-7.920198">
        <time>2022-07-14T05:55:36Z</time>
      </trkpt>
      <trkpt lat="42.87995" lon="-7.9202785">
        <time>2022-07-14T05:55:41Z</time>
      </trkpt>
      <trkpt lat="42.87995" lon="-7.920357">
        <time>2022-07-14T05:55:45Z</time>
      </trkpt>
      <trkpt lat="42.87996" lon="-7.920429">
        <time>2022-07-14T05:55:49Z</time>
      </trkpt>
      <trkpt lat="42.879967" lon="-7.920498">
        <time>2022-07-14T05:55:53Z</time>
      </trkpt>
      <trkpt lat="42.879974" lon="-7.920582">
        <time>2022-07-14T05:55:58Z</time>
      </trkpt>
      <trkpt lat="42.879982" lon="-7.920656">
        <time>2022-07-14T05:56:04Z</time>
      </trkpt>
      <trkpt lat="42.879993" lon="-7.920729">
        <time>2022-07-14T05:56:09Z</time>
      </trkpt>
      <trkpt lat="42.88001" lon="-7.920806">
        <time>2022-07-14T05:56:14Z</time>
      </trkpt>
      <trkpt lat="42.880013" lon="-7.9208894">
        <time>2022-07-14T05:56:18Z</time>
      </trkpt>
      <trkpt lat="42.88001" lon="-7.9209666">
        <time>2022-07-14T05:56:22Z</time>
      </trkpt>
      <trkpt lat="42.88001" lon="-7.9210353">
        <time>2022-07-14T05:56:26Z</time>
      </trkpt>
      <trkpt lat="42.880005" lon="-7.9211082">
        <time>2022-07-14T05:56:31Z</time>
      </trkpt>
      <trkpt lat="42.880013" lon="-7.921196">
        <time>2022-07-14T05:56:38Z</time>
      </trkpt>
      <trkpt lat="42.880005" lon="-7.9212813">
        <time>2022-07-14T05:56:43Z</time>
      </trkpt>
      <trkpt lat="42.879997" lon="-7.921352">
        <time>2022-07-14T05:56:47Z</time>
      </trkpt>
      <trkpt lat="42.88" lon="-7.9214272">
        <time>2022-07-14T05:56:51Z</time>
      </trkpt>
      <trkpt lat="42.879997" lon="-7.9215016">
        <time>2022-07-14T05:56:55Z</time>
      </trkpt>
      <trkpt lat="42.88" lon="-7.921584">
        <time>2022-07-14T05:57:00Z</time>
      </trkpt>
      <trkpt lat="42.880005" lon="-7.921658">
        <time>2022-07-14T05:57:05Z</time>
      </trkpt>
      <trkpt lat="42.88" lon="-7.9217534">
        <time>2022-07-14T05:57:10Z</time>
      </trkpt>
      <trkpt lat="42.879982" lon="-7.921831">
        <time>2022-07-14T05:57:14Z</time>
      </trkpt>
      <trkpt lat="42.87997" lon="-7.9218974">
        <time>2022-07-14T05:57:18Z</time>
      </trkpt>
      <trkpt lat="42.87996" lon="-7.9219723">
        <time>2022-07-14T05:57:23Z</time>
      </trkpt>
      <trkpt lat="42.879944" lon="-7.9220395">
        <time>2022-07-14T05:57:27Z</time>
      </trkpt>
      <trkpt lat="42.879917" lon="-7.922118">
        <time>2022-07-14T05:57:32Z</time>
      </trkpt>
      <trkpt lat="42.87989" lon="-7.922192">
        <time>2022-07-14T05:57:37Z</time>
      </trkpt>
      <trkpt lat="42.879868" lon="-7.922256">
        <time>2022-07-14T05:57:41Z</time>
      </trkpt>
      <trkpt lat="42.879833" lon="-7.9223304">
        <time>2022-07-14T05:57:45Z</time>
      </trkpt>
      <trkpt lat="42.879803" lon="-7.9224024">
        <time>2022-07-14T05:57:49Z</time>
      </trkpt>
      <trkpt lat="42.87978" lon="-7.922461">
        <time>2022-07-14T05:57:53Z</time>
      </trkpt>
      <trkpt lat="42.879753" lon="-7.9225297">
        <time>2022-07-14T05:57:58Z</time>
      </trkpt>
      <trkpt lat="42.879726" lon="-7.922589">
        <time>2022-07-14T05:58:02Z</time>
      </trkpt>
      <trkpt lat="42.879707" lon="-7.9226484">
        <time>2022-07-14T05:58:07Z</time>
      </trkpt>
      <trkpt lat="42.879684" lon="-7.922729">
        <time>2022-07-14T05:58:13Z</time>
      </trkpt>
      <trkpt lat="42.87966" lon="-7.922797">
        <time>2022-07-14T05:58:18Z</time>
      </trkpt>
      <trkpt lat="42.879642" lon="-7.9228663">
        <time>2022-07-14T05:58:23Z</time>
      </trkpt>
      <trkpt lat="42.879623" lon="-7.9229293">
        <time>2022-07-14T05:58:27Z</time>
      </trkpt>
      <trkpt lat="42.879604" lon="-7.9230046">
        <time>2022-07-14T05:58:32Z</time>
      </trkpt>
      <trkpt lat="42.879578" lon="-7.9230914">
        <time>2022-07-14T05:58:37Z</time>
      </trkpt>
      <trkpt lat="42.879555" lon="-7.9231763">
        <time>2022-07-14T05:58:41Z</time>
      </trkpt>
      <trkpt lat="42.87954" lon="-7.923244">
        <time>2022-07-14T05:58:45Z</time>
      </trkpt>
      <trkpt lat="42.87954" lon="-7.923316">
        <time>2022-07-14T05:58:49Z</time>
      </trkpt>
      <trkpt lat="42.87953" lon="-7.9233813">
        <time>2022-07-14T05:58:53Z</time>
      </trkpt>
      <trkpt lat="42.879513" lon="-7.92346">
        <time>2022-07-14T05:58:58Z</time>
      </trkpt>
      <trkpt lat="42.8795" lon="-7.923532">
        <time>2022-07-14T05:59:03Z</time>
      </trkpt>
      <trkpt lat="42.879475" lon="-7.9236045">
        <time>2022-07-14T05:59:07Z</time>
      </trkpt>
      <trkpt lat="42.879448" lon="-7.923679">
        <time>2022-07-14T05:59:11Z</time>
      </trkpt>
      <trkpt lat="42.879414" lon="-7.9237394">
        <time>2022-07-14T05:59:15Z</time>
      </trkpt>
      <trkpt lat="42.879383" lon="-7.9238086">
        <time>2022-07-14T05:59:20Z</time>
      </trkpt>
      <trkpt lat="42.87937" lon="-7.923898">
        <time>2022-07-14T05:59:25Z</time>
      </trkpt>
      <trkpt lat="42.87936" lon="-7.9239693">
        <time>2022-07-14T05:59:29Z</time>
      </trkpt>
      <trkpt lat="42.879345" lon="-7.924036">
        <time>2022-07-14T05:59:33Z</time>
      </trkpt>
      <trkpt lat="42.879337" lon="-7.9241257">
        <time>2022-07-14T05:59:38Z</time>
      </trkpt>
      <trkpt lat="42.87933" lon="-7.9242024">
        <time>2022-07-14T05:59:42Z</time>
      </trkpt>
      <trkpt lat="42.879322" lon="-7.9242773">
        <time>2022-07-14T05:59:46Z</time>
      </trkpt>
      <trkpt lat="42.879322" lon="-7.9243608">
        <time>2022-07-14T05:59:51Z</time>
      </trkpt>
      <trkpt lat="42.879303" lon="-7.92443">
        <time>2022-07-14T05:59:55Z</time>
      </trkpt>
      <trkpt lat="42.8793" lon="-7.924499">
        <time>2022-07-14T05:59:59Z</time>
      </trkpt>
      <trkpt lat="42.879303" lon="-7.9245653">
        <time>2022-07-14T06:00:03Z</time>
      </trkpt>
      <trkpt lat="42.879303" lon="-7.924645">
        <time>2022-07-14T06:00:08Z</time>
      </trkpt>
      <trkpt lat="42.879303" lon="-7.924728">
        <time>2022-07-14T06:00:13Z</time>
      </trkpt>
      <trkpt lat="42.8793" lon="-7.9248066">
        <time>2022-07-14T06:00:18Z</time>
      </trkpt>
      <trkpt lat="42.879307" lon="-7.9248743">
        <time>2022-07-14T06:00:22Z</time>
      </trkpt>
      <trkpt lat="42.879307" lon="-7.9249487">
        <time>2022-07-14T06:00:26Z</time>
      </trkpt>
      <trkpt lat="42.879314" lon="-7.9250164">
        <time>2022-07-14T06:00:30Z</time>
      </trkpt>
      <trkpt lat="42.87932" lon="-7.925091">
        <time>2022-07-14T06:00:34Z</time>
      </trkpt>
      <trkpt lat="42.87932" lon="-7.925166">
        <time>2022-07-14T06:00:39Z</time>
      </trkpt>
      <trkpt lat="42.879314" lon="-7.925248">
        <time>2022-07-14T06:00:44Z</time>
      </trkpt>
      <trkpt lat="42.879307" lon="-7.925342">
        <time>2022-07-14T06:00:48Z</time>
      </trkpt>
      <trkpt lat="42.8793" lon="-7.925413">
        <time>2022-07-14T06:00:51Z</time>
      </trkpt>
      <trkpt lat="42.879295" lon="-7.925495">
        <time>2022-07-14T06:00:55Z</time>
      </trkpt>
      <trkpt lat="42.879284" lon="-7.9255757">
        <time>2022-07-14T06:00:59Z</time>
      </trkpt>
      <trkpt lat="42.879276" lon="-7.925645">
        <time>2022-07-14T06:01:02Z</time>
      </trkpt>
      <trkpt lat="42.87928" lon="-7.925713">
        <time>2022-07-14T06:01:05Z</time>
      </trkpt>
      <trkpt lat="42.879276" lon="-7.9257903">
        <time>2022-07-14T06:01:09Z</time>
      </trkpt>
      <trkpt lat="42.879257" lon="-7.925862">
        <time>2022-07-14T06:01:14Z</time>
      </trkpt>
      <trkpt lat="42.879215" lon="-7.925936">
        <time>2022-07-14T06:01:18Z</time>
      </trkpt>
      <trkpt lat="42.87918" lon="-7.926008">
        <time>2022-07-14T06:01:22Z</time>
      </trkpt>
      <trkpt lat="42.87915" lon="-7.9260826">
        <time>2022-07-14T06:01:26Z</time>
      </trkpt>
      <trkpt lat="42.87912" lon="-7.926149">
        <time>2022-07-14T06:01:30Z</time>
      </trkpt>
      <trkpt lat="42.879097" lon="-7.9262094">
        <time>2022-07-14T06:01:34Z</time>
      </trkpt>
      <trkpt lat="42.879074" lon="-7.9262695">
        <time>2022-07-14T06:01:38Z</time>
      </trkpt>
      <trkpt lat="42.87904" lon="-7.9263387">
        <time>2022-07-14T06:01:42Z</time>
      </trkpt>
      <trkpt lat="42.87901" lon="-7.926399">
        <time>2022-07-14T06:01:45Z</time>
      </trkpt>
      <trkpt lat="42.878983" lon="-7.926472">
        <time>2022-07-14T06:01:49Z</time>
      </trkpt>
      <trkpt lat="42.878956" lon="-7.926544">
        <time>2022-07-14T06:01:53Z</time>
      </trkpt>
      <trkpt lat="42.878956" lon="-7.9266157">
        <time>2022-07-14T06:01:58Z</time>
      </trkpt>
      <trkpt lat="42.87894" lon="-7.9266825">
        <time>2022-07-14T06:02:03Z</time>
      </trkpt>
      <trkpt lat="42.878914" lon="-7.926767">
        <time>2022-07-14T06:02:08Z</time>
      </trkpt>
      <trkpt lat="42.878895" lon="-7.92684">
        <time>2022-07-14T06:02:12Z</time>
      </trkpt>
      <trkpt lat="42.878872" lon="-7.92691">
        <time>2022-07-14T06:02:16Z</time>
      </trkpt>
      <trkpt lat="42.878845" lon="-7.926982">
        <time>2022-07-14T06:02:20Z</time>
      </trkpt>
      <trkpt lat="42.87882" lon="-7.927051">
        <time>2022-07-14T06:02:24Z</time>
      </trkpt>
      <trkpt lat="42.878796" lon="-7.927122">
        <time>2022-07-14T06:02:28Z</time>
      </trkpt>
      <trkpt lat="42.878777" lon="-7.927197">
        <time>2022-07-14T06:02:32Z</time>
      </trkpt>
      <trkpt lat="42.878765" lon="-7.92727">
        <time>2022-07-14T06:02:36Z</time>
      </trkpt>
      <trkpt lat="42.87875" lon="-7.927337">
        <time>2022-07-14T06:02:40Z</time>
      </trkpt>
      <trkpt lat="42.87874" lon="-7.927409">
        <time>2022-07-14T06:02:44Z</time>
      </trkpt>
      <trkpt lat="42.878735" lon="-7.927485">
        <time>2022-07-14T06:02:48Z</time>
      </trkpt>
      <trkpt lat="42.878735" lon="-7.9275565">
        <time>2022-07-14T06:02:52Z</time>
      </trkpt>
      <trkpt lat="42.87874" lon="-7.9276237">
        <time>2022-07-14T06:02:56Z</time>
      </trkpt>
      <trkpt lat="42.878742" lon="-7.927699">
        <time>2022-07-14T06:03:00Z</time>
      </trkpt>
      <trkpt lat="42.878746" lon="-7.927772">
        <time>2022-07-14T06:03:04Z</time>
      </trkpt>
      <trkpt lat="42.878754" lon="-7.927846">
        <time>2022-07-14T06:03:08Z</time>
      </trkpt>
      <trkpt lat="42.87876" lon="-7.927914">
        <time>2022-07-14T06:03:12Z</time>
      </trkpt>
      <trkpt lat="42.878765" lon="-7.927982">
        <time>2022-07-14T06:03:16Z</time>
      </trkpt>
      <trkpt lat="42.878765" lon="-7.9280715">
        <time>2022-07-14T06:03:21Z</time>
      </trkpt>
      <trkpt lat="42.878757" lon="-7.9281573">
        <time>2022-07-14T06:03:26Z</time>
      </trkpt>
      <trkpt lat="42.878754" lon="-7.9282317">
        <time>2022-07-14T06:03:30Z</time>
      </trkpt>
      <trkpt lat="42.878754" lon="-7.9283066">
        <time>2022-07-14T06:03:34Z</time>
      </trkpt>
      <trkpt lat="42.878754" lon="-7.928382">
        <time>2022-07-14T06:03:38Z</time>
      </trkpt>
      <trkpt lat="42.878746" lon="-7.928457">
        <time>2022-07-14T06:03:42Z</time>
      </trkpt>
      <trkpt lat="42.878742" lon="-7.928531">
        <time>2022-07-14T06:03:46Z</time>
      </trkpt>
      <trkpt lat="42.878742" lon="-7.9286194">
        <time>2022-07-14T06:03:51Z</time>
      </trkpt>
      <trkpt lat="42.878746" lon="-7.928704">
        <time>2022-07-14T06:03:56Z</time>
      </trkpt>
      <trkpt lat="42.878742" lon="-7.9287786">
        <time>2022-07-14T06:04:00Z</time>
      </trkpt>
      <trkpt lat="42.878742" lon="-7.9288597">
        <time>2022-07-14T06:04:04Z</time>
      </trkpt>
      <trkpt lat="42.878754" lon="-7.9289336">
        <time>2022-07-14T06:04:08Z</time>
      </trkpt>
      <trkpt lat="42.878777" lon="-7.929003">
        <time>2022-07-14T06:04:13Z</time>
      </trkpt>
      <trkpt lat="42.878788" lon="-7.9290676">
        <time>2022-07-14T06:04:17Z</time>
      </trkpt>
      <trkpt lat="42.878803" lon="-7.9291444">
        <time>2022-07-14T06:04:22Z</time>
      </trkpt>
      <trkpt lat="42.87883" lon="-7.92921">
        <time>2022-07-14T06:04:27Z</time>
      </trkpt>
      <trkpt lat="42.878864" lon="-7.929261">
        <time>2022-07-14T06:04:32Z</time>
      </trkpt>
      <trkpt lat="42.8789" lon="-7.9293127">
        <time>2022-07-14T06:04:37Z</time>
      </trkpt>
      <trkpt lat="42.878933" lon="-7.929381">
        <time>2022-07-14T06:04:43Z</time>
      </trkpt>
      <trkpt lat="42.878952" lon="-7.929455">
        <time>2022-07-14T06:04:48Z</time>
      </trkpt>
      <trkpt lat="42.878963" lon="-7.929521">
        <time>2022-07-14T06:04:52Z</time>
      </trkpt>
      <trkpt lat="42.878975" lon="-7.9296">
        <time>2022-07-14T06:04:58Z</time>
      </trkpt>
      <trkpt lat="42.878994" lon="-7.929663">
        <time>2022-07-14T06:05:02Z</time>
      </trkpt>
      <trkpt lat="42.87901" lon="-7.9297295">
        <time>2022-07-14T06:05:06Z</time>
      </trkpt>
      <trkpt lat="42.879032" lon="-7.9298177">
        <time>2022-07-14T06:05:11Z</time>
      </trkpt>
      <trkpt lat="42.87905" lon="-7.9298773">
        <time>2022-07-14T06:05:15Z</time>
      </trkpt>
      <trkpt lat="42.879078" lon="-7.92995">
        <time>2022-07-14T06:05:21Z</time>
      </trkpt>
      <trkpt lat="42.879086" lon="-7.9300294">
        <time>2022-07-14T06:05:26Z</time>
      </trkpt>
      <trkpt lat="42.879097" lon="-7.930103">
        <time>2022-07-14T06:05:30Z</time>
      </trkpt>
      <trkpt lat="42.87911" lon="-7.930169">
        <time>2022-07-14T06:05:35Z</time>
      </trkpt>
      <trkpt lat="42.879116" lon="-7.930243">
        <time>2022-07-14T06:05:41Z</time>
      </trkpt>
      <trkpt lat="42.879135" lon="-7.9303226">
        <time>2022-07-14T06:05:46Z</time>
      </trkpt>
      <trkpt lat="42.879135" lon="-7.9303975">
        <time>2022-07-14T06:05:51Z</time>
      </trkpt>
      <trkpt lat="42.879147" lon="-7.930478">
        <time>2022-07-14T06:05:56Z</time>
      </trkpt>
      <trkpt lat="42.87914" lon="-7.9305544">
        <time>2022-07-14T06:06:00Z</time>
      </trkpt>
      <trkpt lat="42.879135" lon="-7.9306254">
        <time>2022-07-14T06:06:04Z</time>
      </trkpt>
      <trkpt lat="42.87914" lon="-7.930704">
        <time>2022-07-14T06:06:09Z</time>
      </trkpt>
      <trkpt lat="42.879143" lon="-7.930786">
        <time>2022-07-14T06:06:14Z</time>
      </trkpt>
      <trkpt lat="42.879143" lon="-7.930863">
        <time>2022-07-14T06:06:18Z</time>
      </trkpt>
      <trkpt lat="42.879154" lon="-7.930942">
        <time>2022-07-14T06:06:23Z</time>
      </trkpt>
      <trkpt lat="42.879173" lon="-7.9310145">
        <time>2022-07-14T06:06:28Z</time>
      </trkpt>
      <trkpt lat="42.87921" lon="-7.931069">
        <time>2022-07-14T06:06:33Z</time>
      </trkpt>
      <trkpt lat="42.879246" lon="-7.9311175">
        <time>2022-07-14T06:06:37Z</time>
      </trkpt>
      <trkpt lat="42.87929" lon="-7.931175">
        <time>2022-07-14T06:06:42Z</time>
      </trkpt>
      <trkpt lat="42.879333" lon="-7.931218">
        <time>2022-07-14T06:06:46Z</time>
      </trkpt>
      <trkpt lat="42.87938" lon="-7.9312596">
        <time>2022-07-14T06:06:50Z</time>
      </trkpt>
      <trkpt lat="42.87943" lon="-7.9313135">
        <time>2022-07-14T06:06:55Z</time>
      </trkpt>
      <trkpt lat="42.87947" lon="-7.931368">
        <time>2022-07-14T06:06:59Z</time>
      </trkpt>
      <trkpt lat="42.879505" lon="-7.9314127">
        <time>2022-07-14T06:07:03Z</time>
      </trkpt>
      <trkpt lat="42.879555" lon="-7.931469">
        <time>2022-07-14T06:07:08Z</time>
      </trkpt>
      <trkpt lat="42.879604" lon="-7.9315176">
        <time>2022-07-14T06:07:13Z</time>
      </trkpt>
      <trkpt lat="42.879654" lon="-7.931566">
        <time>2022-07-14T06:07:18Z</time>
      </trkpt>
      <trkpt lat="42.879704" lon="-7.9316077">
        <time>2022-07-14T06:07:23Z</time>
      </trkpt>
      <trkpt lat="42.87974" lon="-7.93166">
        <time>2022-07-14T06:07:28Z</time>
      </trkpt>
      <trkpt lat="42.87978" lon="-7.9316945">
        <time>2022-07-14T06:07:32Z</time>
      </trkpt>
      <trkpt lat="42.87983" lon="-7.9317513">
        <time>2022-07-14T06:07:37Z</time>
      </trkpt>
      <trkpt lat="42.879868" lon="-7.931798">
        <time>2022-07-14T06:07:41Z</time>
      </trkpt>
      <trkpt lat="42.879906" lon="-7.9318604">
        <time>2022-07-14T06:07:46Z</time>
      </trkpt>
      <trkpt lat="42.879948" lon="-7.9319215">
        <time>2022-07-14T06:07:51Z</time>
      </trkpt>
      <trkpt lat="42.879982" lon="-7.9319944">
        <time>2022-07-14T06:07:56Z</time>
      </trkpt>
      <trkpt lat="42.880016" lon="-7.932046">
        <time>2022-07-14T06:07:59Z</time>
      </trkpt>
      <trkpt lat="42.880066" lon="-7.932089">
        <time>2022-07-14T06:08:03Z</time>
      </trkpt>
      <trkpt lat="42.880104" lon="-7.9321523">
        <time>2022-07-14T06:08:07Z</time>
      </trkpt>
      <trkpt lat="42.880135" lon="-7.932214">
        <time>2022-07-14T06:08:11Z</time>
      </trkpt>
      <trkpt lat="42.880165" lon="-7.9322853">
        <time>2022-07-14T06:08:15Z</time>
      </trkpt>
      <trkpt lat="42.88018" lon="-7.9323416">
        <time>2022-07-14T06:08:18Z</time>
      </trkpt>
      <trkpt lat="42.880203" lon="-7.9324107">
        <time>2022-07-14T06:08:23Z</time>
      </trkpt>
      <trkpt lat="42.880222" lon="-7.9324756">
        <time>2022-07-14T06:08:27Z</time>
      </trkpt>
      <trkpt lat="42.880253" lon="-7.93255">
        <time>2022-07-14T06:08:32Z</time>
      </trkpt>
      <trkpt lat="42.880257" lon="-7.9326053">
        <time>2022-07-14T06:08:36Z</time>
      </trkpt>
      <trkpt lat="42.880287" lon="-7.9326725">
        <time>2022-07-14T06:08:41Z</time>
      </trkpt>
      <trkpt lat="42.88031" lon="-7.9327416">
        <time>2022-07-14T06:08:46Z</time>
      </trkpt>
      <trkpt lat="42.880333" lon="-7.932822">
        <time>2022-07-14T06:08:51Z</time>
      </trkpt>
      <trkpt lat="42.880352" lon="-7.932893">
        <time>2022-07-14T06:08:55Z</time>
      </trkpt>
      <trkpt lat="42.880367" lon="-7.932966">
        <time>2022-07-14T06:08:59Z</time>
      </trkpt>
      <trkpt lat="42.880375" lon="-7.9330344">
        <time>2022-07-14T06:09:02Z</time>
      </trkpt>
      <trkpt lat="42.88039" lon="-7.9330907">
        <time>2022-07-14T06:09:06Z</time>
      </trkpt>
      <trkpt lat="42.88042" lon="-7.933156">
        <time>2022-07-14T06:09:12Z</time>
      </trkpt>
      <trkpt lat="42.880436" lon="-7.9332356">
        <time>2022-07-14T06:09:16Z</time>
      </trkpt>
      <trkpt lat="42.880447" lon="-7.9333234">
        <time>2022-07-14T06:09:20Z</time>
      </trkpt>
      <trkpt lat="42.88047" lon="-7.9333825">
        <time>2022-07-14T06:09:23Z</time>
      </trkpt>
      <trkpt lat="42.88049" lon="-7.9334564">
        <time>2022-07-14T06:09:27Z</time>
      </trkpt>
      <trkpt lat="42.8805" lon="-7.9335256">
        <time>2022-07-14T06:09:31Z</time>
      </trkpt>
      <trkpt lat="42.88052" lon="-7.933592">
        <time>2022-07-14T06:09:35Z</time>
      </trkpt>
      <trkpt lat="42.880554" lon="-7.9336553">
        <time>2022-07-14T06:09:39Z</time>
      </trkpt>
      <trkpt lat="42.88057" lon="-7.9337196">
        <time>2022-07-14T06:09:43Z</time>
      </trkpt>
      <trkpt lat="42.88059" lon="-7.933792">
        <time>2022-07-14T06:09:47Z</time>
      </trkpt>
      <trkpt lat="42.880608" lon="-7.9338565">
        <time>2022-07-14T06:09:51Z</time>
      </trkpt>
      <trkpt lat="42.880627" lon="-7.933933">
        <time>2022-07-14T06:09:55Z</time>
      </trkpt>
      <trkpt lat="42.880642" lon="-7.9340014">
        <time>2022-07-14T06:10:00Z</time>
      </trkpt>
      <trkpt lat="42.88067" lon="-7.934078">
        <time>2022-07-14T06:10:04Z</time>
      </trkpt>
      <trkpt lat="42.88069" lon="-7.9341435">
        <time>2022-07-14T06:10:07Z</time>
      </trkpt>
      <trkpt lat="42.880703" lon="-7.934225">
        <time>2022-07-14T06:10:11Z</time>
      </trkpt>
      <trkpt lat="42.880726" lon="-7.934305">
        <time>2022-07-14T06:10:15Z</time>
      </trkpt>
      <trkpt lat="42.880756" lon="-7.9343624">
        <time>2022-07-14T06:10:18Z</time>
      </trkpt>
      <trkpt lat="42.880787" lon="-7.9344225">
        <time>2022-07-14T06:10:22Z</time>
      </trkpt>
      <trkpt lat="42.880817" lon="-7.9344764">
        <time>2022-07-14T06:10:26Z</time>
      </trkpt>
      <trkpt lat="42.880814" lon="-7.934563">
        <time>2022-07-14T06:10:31Z</time>
      </trkpt>
      <trkpt lat="42.880806" lon="-7.9346466">
        <time>2022-07-14T06:10:36Z</time>
      </trkpt>
      <trkpt lat="42.880806" lon="-7.934733">
        <time>2022-07-14T06:10:41Z</time>
      </trkpt>
      <trkpt lat="42.880795" lon="-7.934813">
        <time>2022-07-14T06:10:46Z</time>
      </trkpt>
      <trkpt lat="42.88078" lon="-7.934886">
        <time>2022-07-14T06:10:51Z</time>
      </trkpt>
      <trkpt lat="42.880764" lon="-7.934961">
        <time>2022-07-14T06:10:56Z</time>
      </trkpt>
      <trkpt lat="42.880768" lon="-7.9350343">
        <time>2022-07-14T06:11:01Z</time>
      </trkpt>
      <trkpt lat="42.88076" lon="-7.935103">
        <time>2022-07-14T06:11:05Z</time>
      </trkpt>
      <trkpt lat="42.880745" lon="-7.935266">
        <time>2022-07-14T06:11:22Z</time>
      </trkpt>
      <trkpt lat="42.880753" lon="-7.9353323">
        <time>2022-07-14T06:11:28Z</time>
      </trkpt>
      <trkpt lat="42.880745" lon="-7.935411">
        <time>2022-07-14T06:11:33Z</time>
      </trkpt>
      <trkpt lat="42.880745" lon="-7.935483">
        <time>2022-07-14T06:11:37Z</time>
      </trkpt>
      <trkpt lat="42.880745" lon="-7.93557">
        <time>2022-07-14T06:11:42Z</time>
      </trkpt>
      <trkpt lat="42.880737" lon="-7.935663">
        <time>2022-07-14T06:11:47Z</time>
      </trkpt>
      <trkpt lat="42.880726" lon="-7.935749">
        <time>2022-07-14T06:11:51Z</time>
      </trkpt>
      <trkpt lat="42.880707" lon="-7.9358163">
        <time>2022-07-14T06:11:54Z</time>
      </trkpt>
      <trkpt lat="42.880688" lon="-7.9358764">
        <time>2022-07-14T06:11:57Z</time>
      </trkpt>
      <trkpt lat="42.880684" lon="-7.9359508">
        <time>2022-07-14T06:12:01Z</time>
      </trkpt>
      <trkpt lat="42.880684" lon="-7.936025">
        <time>2022-07-14T06:12:05Z</time>
      </trkpt>
      <trkpt lat="42.880688" lon="-7.9360943">
        <time>2022-07-14T06:12:09Z</time>
      </trkpt>
      <trkpt lat="42.880684" lon="-7.9361672">
        <time>2022-07-14T06:12:13Z</time>
      </trkpt>
      <trkpt lat="42.880665" lon="-7.9362645">
        <time>2022-07-14T06:12:18Z</time>
      </trkpt>
      <trkpt lat="42.88065" lon="-7.9363284">
        <time>2022-07-14T06:12:21Z</time>
      </trkpt>
      <trkpt lat="42.88062" lon="-7.9364133">
        <time>2022-07-14T06:12:25Z</time>
      </trkpt>
      <trkpt lat="42.8806" lon="-7.9364715">
        <time>2022-07-14T06:12:29Z</time>
      </trkpt>
      <trkpt lat="42.88058" lon="-7.9365454">
        <time>2022-07-14T06:12:34Z</time>
      </trkpt>
      <trkpt lat="42.880558" lon="-7.936631">
        <time>2022-07-14T06:12:39Z</time>
      </trkpt>
      <trkpt lat="42.880527" lon="-7.936714">
        <time>2022-07-14T06:12:43Z</time>
      </trkpt>
      <trkpt lat="42.88051" lon="-7.936772">
        <time>2022-07-14T06:12:46Z</time>
      </trkpt>
      <trkpt lat="42.88049" lon="-7.9368463">
        <time>2022-07-14T06:12:50Z</time>
      </trkpt>
      <trkpt lat="42.880474" lon="-7.936916">
        <time>2022-07-14T06:12:54Z</time>
      </trkpt>
      <trkpt lat="42.88047" lon="-7.936987">
        <time>2022-07-14T06:12:58Z</time>
      </trkpt>
      <trkpt lat="42.880486" lon="-7.9370594">
        <time>2022-07-14T06:13:02Z</time>
      </trkpt>
      <trkpt lat="42.8805" lon="-7.9371204">
        <time>2022-07-14T06:13:05Z</time>
      </trkpt>
      <trkpt lat="42.880516" lon="-7.937197">
        <time>2022-07-14T06:13:10Z</time>
      </trkpt>
      <trkpt lat="42.88054" lon="-7.937247">
        <time>2022-07-14T06:13:14Z</time>
      </trkpt>
      <trkpt lat="42.88058" lon="-7.937311">
        <time>2022-07-14T06:13:19Z</time>
      </trkpt>
      <trkpt lat="42.880615" lon="-7.9373755">
        <time>2022-07-14T06:13:23Z</time>
      </trkpt>
      <trkpt lat="42.880642" lon="-7.9374366">
        <time>2022-07-14T06:13:27Z</time>
      </trkpt>
      <trkpt lat="42.88068" lon="-7.9375057">
        <time>2022-07-14T06:13:32Z</time>
      </trkpt>
      <trkpt lat="42.880714" lon="-7.937582">
        <time>2022-07-14T06:13:37Z</time>
      </trkpt>
      <trkpt lat="42.880753" lon="-7.9376497">
        <time>2022-07-14T06:13:41Z</time>
      </trkpt>
      <trkpt lat="42.88079" lon="-7.9377165">
        <time>2022-07-14T06:13:45Z</time>
      </trkpt>
      <trkpt lat="42.88083" lon="-7.9377646">
        <time>2022-07-14T06:13:49Z</time>
      </trkpt>
      <trkpt lat="42.880863" lon="-7.937823">
        <time>2022-07-14T06:13:54Z</time>
      </trkpt>
      <trkpt lat="42.880905" lon="-7.937883">
        <time>2022-07-14T06:13:59Z</time>
      </trkpt>
      <trkpt lat="42.880947" lon="-7.9379497">
        <time>2022-07-14T06:14:04Z</time>
      </trkpt>
      <trkpt lat="42.880985" lon="-7.9380064">
        <time>2022-07-14T06:14:08Z</time>
      </trkpt>
      <trkpt lat="42.881012" lon="-7.9380713">
        <time>2022-07-14T06:14:12Z</time>
      </trkpt>
      <trkpt lat="42.881035" lon="-7.938134">
        <time>2022-07-14T06:14:16Z</time>
      </trkpt>
      <trkpt lat="42.881054" lon="-7.9381976">
        <time>2022-07-14T06:14:21Z</time>
      </trkpt>
      <trkpt lat="42.881077" lon="-7.938268">
        <time>2022-07-14T06:14:26Z</time>
      </trkpt>
      <trkpt lat="42.881104" lon="-7.938335">
        <time>2022-07-14T06:14:30Z</time>
      </trkpt>
      <trkpt lat="42.881126" lon="-7.938409">
        <time>2022-07-14T06:14:33Z</time>
      </trkpt>
      <trkpt lat="42.881138" lon="-7.9384766">
        <time>2022-07-14T06:14:36Z</time>
      </trkpt>
      <trkpt lat="42.88115" lon="-7.93854">
        <time>2022-07-14T06:14:40Z</time>
      </trkpt>
      <trkpt lat="42.881165" lon="-7.9386168">
        <time>2022-07-14T06:14:44Z</time>
      </trkpt>
      <trkpt lat="42.88117" lon="-7.9386945">
        <time>2022-07-14T06:14:48Z</time>
      </trkpt>
      <trkpt lat="42.881165" lon="-7.9387655">
        <time>2022-07-14T06:14:52Z</time>
      </trkpt>
      <trkpt lat="42.881165" lon="-7.938842">
        <time>2022-07-14T06:14:57Z</time>
      </trkpt>
      <trkpt lat="42.881157" lon="-7.9389086">
        <time>2022-07-14T06:15:02Z</time>
      </trkpt>
      <trkpt lat="42.881153" lon="-7.938984">
        <time>2022-07-14T06:15:07Z</time>
      </trkpt>
      <trkpt lat="42.881153" lon="-7.939074">
        <time>2022-07-14T06:15:12Z</time>
      </trkpt>
      <trkpt lat="42.88115" lon="-7.9391394">
        <time>2022-07-14T06:15:16Z</time>
      </trkpt>
      <trkpt lat="42.881123" lon="-7.939227">
        <time>2022-07-14T06:15:21Z</time>
      </trkpt>
      <trkpt lat="42.88111" lon="-7.9393096">
        <time>2022-07-14T06:15:25Z</time>
      </trkpt>
      <trkpt lat="42.881096" lon="-7.939377">
        <time>2022-07-14T06:15:29Z</time>
      </trkpt>
      <trkpt lat="42.881077" lon="-7.939465">
        <time>2022-07-14T06:15:33Z</time>
      </trkpt>
      <trkpt lat="42.88106" lon="-7.9395313">
        <time>2022-07-14T06:15:37Z</time>
      </trkpt>
      <trkpt lat="42.881058" lon="-7.939608">
        <time>2022-07-14T06:15:42Z</time>
      </trkpt>
      <trkpt lat="42.88105" lon="-7.9396996">
        <time>2022-07-14T06:15:46Z</time>
      </trkpt>
      <trkpt lat="42.881035" lon="-7.939765">
        <time>2022-07-14T06:15:49Z</time>
      </trkpt>
      <trkpt lat="42.881027" lon="-7.939824">
        <time>2022-07-14T06:15:53Z</time>
      </trkpt>
      <trkpt lat="42.881023" lon="-7.939903">
        <time>2022-07-14T06:15:58Z</time>
      </trkpt>
      <trkpt lat="42.881004" lon="-7.9399977">
        <time>2022-07-14T06:16:02Z</time>
      </trkpt>
      <trkpt lat="42.880985" lon="-7.940057">
        <time>2022-07-14T06:16:05Z</time>
      </trkpt>
      <trkpt lat="42.88097" lon="-7.940128">
        <time>2022-07-14T06:16:09Z</time>
      </trkpt>
      <trkpt lat="42.880955" lon="-7.9402046">
        <time>2022-07-14T06:16:13Z</time>
      </trkpt>
      <trkpt lat="42.880943" lon="-7.940275">
        <time>2022-07-14T06:16:17Z</time>
      </trkpt>
      <trkpt lat="42.88093" lon="-7.94035">
        <time>2022-07-14T06:16:21Z</time>
      </trkpt>
      <trkpt lat="42.880917" lon="-7.9404325">
        <time>2022-07-14T06:16:25Z</time>
      </trkpt>
      <trkpt lat="42.880898" lon="-7.9405046">
        <time>2022-07-14T06:16:29Z</time>
      </trkpt>
      <trkpt lat="42.880882" lon="-7.940575">
        <time>2022-07-14T06:16:33Z</time>
      </trkpt>
      <trkpt lat="42.88087" lon="-7.9406443">
        <time>2022-07-14T06:16:37Z</time>
      </trkpt>
      <trkpt lat="42.88084" lon="-7.94072">
        <time>2022-07-14T06:16:41Z</time>
      </trkpt>
      <trkpt lat="42.880825" lon="-7.9407873">
        <time>2022-07-14T06:16:45Z</time>
      </trkpt>
      <trkpt lat="42.88081" lon="-7.940859">
        <time>2022-07-14T06:16:50Z</time>
      </trkpt>
      <trkpt lat="42.88079" lon="-7.940932">
        <time>2022-07-14T06:16:55Z</time>
      </trkpt>
      <trkpt lat="42.88077" lon="-7.9409947">
        <time>2022-07-14T06:16:59Z</time>
      </trkpt>
      <trkpt lat="42.880753" lon="-7.941064">
        <time>2022-07-14T06:17:04Z</time>
      </trkpt>
      <trkpt lat="42.88074" lon="-7.941137">
        <time>2022-07-14T06:17:09Z</time>
      </trkpt>
      <trkpt lat="42.88073" lon="-7.941209">
        <time>2022-07-14T06:17:14Z</time>
      </trkpt>
      <trkpt lat="42.88071" lon="-7.9412913">
        <time>2022-07-14T06:17:18Z</time>
      </trkpt>
      <trkpt lat="42.8807" lon="-7.941364">
        <time>2022-07-14T06:17:22Z</time>
      </trkpt>
      <trkpt lat="42.88069" lon="-7.941441">
        <time>2022-07-14T06:17:27Z</time>
      </trkpt>
      <trkpt lat="42.880665" lon="-7.941524">
        <time>2022-07-14T06:17:32Z</time>
      </trkpt>
      <trkpt lat="42.88065" lon="-7.941592">
        <time>2022-07-14T06:17:36Z</time>
      </trkpt>
      <trkpt lat="42.88064" lon="-7.941673">
        <time>2022-07-14T06:17:41Z</time>
      </trkpt>
      <trkpt lat="42.88063" lon="-7.941737">
        <time>2022-07-14T06:17:45Z</time>
      </trkpt>
      <trkpt lat="42.880615" lon="-7.941817">
        <time>2022-07-14T06:17:50Z</time>
      </trkpt>
      <trkpt lat="42.88059" lon="-7.941901">
        <time>2022-07-14T06:17:55Z</time>
      </trkpt>
      <trkpt lat="42.88057" lon="-7.941981">
        <time>2022-07-14T06:18:00Z</time>
      </trkpt>
      <trkpt lat="42.880543" lon="-7.9420414">
        <time>2022-07-14T06:18:04Z</time>
      </trkpt>
      <trkpt lat="42.88052" lon="-7.9421086">
        <time>2022-07-14T06:18:09Z</time>
      </trkpt>
      <trkpt lat="42.880493" lon="-7.942175">
        <time>2022-07-14T06:18:13Z</time>
      </trkpt>
      <trkpt lat="42.88047" lon="-7.9422393">
        <time>2022-07-14T06:18:18Z</time>
      </trkpt>
      <trkpt lat="42.880436" lon="-7.942314">
        <time>2022-07-14T06:18:23Z</time>
      </trkpt>
      <trkpt lat="42.880405" lon="-7.942378">
        <time>2022-07-14T06:18:27Z</time>
      </trkpt>
      <trkpt lat="42.88038" lon="-7.9424415">
        <time>2022-07-14T06:18:31Z</time>
      </trkpt>
      <trkpt lat="42.880352" lon="-7.9424977">
        <time>2022-07-14T06:18:35Z</time>
      </trkpt>
      <trkpt lat="42.880314" lon="-7.9425583">
        <time>2022-07-14T06:18:40Z</time>
      </trkpt>
      <trkpt lat="42.88028" lon="-7.9426165">
        <time>2022-07-14T06:18:44Z</time>
      </trkpt>
      <trkpt lat="42.88025" lon="-7.9426765">
        <time>2022-07-14T06:18:48Z</time>
      </trkpt>
      <trkpt lat="42.88023" lon="-7.9427447">
        <time>2022-07-14T06:18:53Z</time>
      </trkpt>
      <trkpt lat="42.88023" lon="-7.9428186">
        <time>2022-07-14T06:18:59Z</time>
      </trkpt>
      <trkpt lat="42.880238" lon="-7.9428906">
        <time>2022-07-14T06:19:04Z</time>
      </trkpt>
      <trkpt lat="42.880257" lon="-7.942956">
        <time>2022-07-14T06:19:08Z</time>
      </trkpt>
      <trkpt lat="42.880283" lon="-7.9430223">
        <time>2022-07-14T06:19:13Z</time>
      </trkpt>
      <trkpt lat="42.880306" lon="-7.943098">
        <time>2022-07-14T06:19:18Z</time>
      </trkpt>
      <trkpt lat="42.880325" lon="-7.943165">
        <time>2022-07-14T06:19:22Z</time>
      </trkpt>
      <trkpt lat="42.88036" lon="-7.943236">
        <time>2022-07-14T06:19:27Z</time>
      </trkpt>
      <trkpt lat="42.880383" lon="-7.943309">
        <time>2022-07-14T06:19:32Z</time>
      </trkpt>
      <trkpt lat="42.880398" lon="-7.943383">
        <time>2022-07-14T06:19:36Z</time>
      </trkpt>
      <trkpt lat="42.88042" lon="-7.943456">
        <time>2022-07-14T06:19:40Z</time>
      </trkpt>
      <trkpt lat="42.880444" lon="-7.9435253">
        <time>2022-07-14T06:19:44Z</time>
      </trkpt>
      <trkpt lat="42.88046" lon="-7.9435883">
        <time>2022-07-14T06:19:48Z</time>
      </trkpt>
      <trkpt lat="42.88048" lon="-7.94365">
        <time>2022-07-14T06:19:52Z</time>
      </trkpt>
      <trkpt lat="42.880505" lon="-7.943733">
        <time>2022-07-14T06:19:57Z</time>
      </trkpt>
      <trkpt lat="42.880527" lon="-7.943803">
        <time>2022-07-14T06:20:01Z</time>
      </trkpt>
      <trkpt lat="42.880543" lon="-7.9438705">
        <time>2022-07-14T06:20:05Z</time>
      </trkpt>
      <trkpt lat="42.880573" lon="-7.943938">
        <time>2022-07-14T06:20:09Z</time>
      </trkpt>
      <trkpt lat="42.8806" lon="-7.943998">
        <time>2022-07-14T06:20:13Z</time>
      </trkpt>
      <trkpt lat="42.880627" lon="-7.944064">
        <time>2022-07-14T06:20:17Z</time>
      </trkpt>
      <trkpt lat="42.88065" lon="-7.9441323">
        <time>2022-07-14T06:20:20Z</time>
      </trkpt>
      <trkpt lat="42.88065" lon="-7.9442053">
        <time>2022-07-14T06:20:24Z</time>
      </trkpt>
      <trkpt lat="42.88065" lon="-7.944279">
        <time>2022-07-14T06:20:29Z</time>
      </trkpt>
      <trkpt lat="42.880642" lon="-7.944355">
        <time>2022-07-14T06:20:33Z</time>
      </trkpt>
      <trkpt lat="42.880627" lon="-7.9444184">
        <time>2022-07-14T06:20:37Z</time>
      </trkpt>
      <trkpt lat="42.880604" lon="-7.944506">
        <time>2022-07-14T06:20:42Z</time>
      </trkpt>
      <trkpt lat="42.880585" lon="-7.9445877">
        <time>2022-07-14T06:20:46Z</time>
      </trkpt>
      <trkpt lat="42.88057" lon="-7.944658">
        <time>2022-07-14T06:20:50Z</time>
      </trkpt>
      <trkpt lat="42.880573" lon="-7.9447284">
        <time>2022-07-14T06:20:54Z</time>
      </trkpt>
      <trkpt lat="42.880573" lon="-7.944822">
        <time>2022-07-14T06:20:58Z</time>
      </trkpt>
      <trkpt lat="42.880577" lon="-7.944888">
        <time>2022-07-14T06:21:01Z</time>
      </trkpt>
      <trkpt lat="42.880604" lon="-7.944955">
        <time>2022-07-14T06:21:05Z</time>
      </trkpt>
      <trkpt lat="42.880646" lon="-7.9450116">
        <time>2022-07-14T06:21:09Z</time>
      </trkpt>
      <trkpt lat="42.880684" lon="-7.9450583">
        <time>2022-07-14T06:21:13Z</time>
      </trkpt>
      <trkpt lat="42.880726" lon="-7.945101">
        <time>2022-07-14T06:21:17Z</time>
      </trkpt>
      <trkpt lat="42.88077" lon="-7.945148">
        <time>2022-07-14T06:21:22Z</time>
      </trkpt>
      <trkpt lat="42.880806" lon="-7.9451985">
        <time>2022-07-14T06:21:27Z</time>
      </trkpt>
      <trkpt lat="42.880848" lon="-7.945253">
        <time>2022-07-14T06:21:32Z</time>
      </trkpt>
      <trkpt lat="42.88089" lon="-7.9453106">
        <time>2022-07-14T06:21:37Z</time>
      </trkpt>
      <trkpt lat="42.880928" lon="-7.9453735">
        <time>2022-07-14T06:21:42Z</time>
      </trkpt>
      <trkpt lat="42.880966" lon="-7.945436">
        <time>2022-07-14T06:21:46Z</time>
      </trkpt>
      <trkpt lat="42.880997" lon="-7.9455004">
        <time>2022-07-14T06:21:50Z</time>
      </trkpt>
      <trkpt lat="42.88103" lon="-7.945553">
        <time>2022-07-14T06:21:54Z</time>
      </trkpt>
      <trkpt lat="42.88107" lon="-7.945598">
        <time>2022-07-14T06:21:58Z</time>
      </trkpt>
      <trkpt lat="42.881123" lon="-7.9456525">
        <time>2022-07-14T06:22:03Z</time>
      </trkpt>
      <trkpt lat="42.881165" lon="-7.9457054">
        <time>2022-07-14T06:22:07Z</time>
      </trkpt>
      <trkpt lat="42.881207" lon="-7.945758">
        <time>2022-07-14T06:22:11Z</time>
      </trkpt>
      <trkpt lat="42.88125" lon="-7.94581">
        <time>2022-07-14T06:22:16Z</time>
      </trkpt>
      <trkpt lat="42.881283" lon="-7.9458737">
        <time>2022-07-14T06:22:21Z</time>
      </trkpt>
      <trkpt lat="42.881325" lon="-7.9459405">
        <time>2022-07-14T06:22:26Z</time>
      </trkpt>
      <trkpt lat="42.88136" lon="-7.9459906">
        <time>2022-07-14T06:22:30Z</time>
      </trkpt>
      <trkpt lat="42.8814" lon="-7.946046">
        <time>2022-07-14T06:22:35Z</time>
      </trkpt>
      <trkpt lat="42.881435" lon="-7.9461064">
        <time>2022-07-14T06:22:40Z</time>
      </trkpt>
      <trkpt lat="42.881477" lon="-7.9461737">
        <time>2022-07-14T06:22:45Z</time>
      </trkpt>
      <trkpt lat="42.881508" lon="-7.94623">
        <time>2022-07-14T06:22:49Z</time>
      </trkpt>
      <trkpt lat="42.881542" lon="-7.9462953">
        <time>2022-07-14T06:22:54Z</time>
      </trkpt>
      <trkpt lat="42.881584" lon="-7.946346">
        <time>2022-07-14T06:22:59Z</time>
      </trkpt>
      <trkpt lat="42.881626" lon="-7.9464045">
        <time>2022-07-14T06:23:04Z</time>
      </trkpt>
      <trkpt lat="42.881645" lon="-7.9464602">
        <time>2022-07-14T06:23:08Z</time>
      </trkpt>
      <trkpt lat="42.881664" lon="-7.9465346">
        <time>2022-07-14T06:23:13Z</time>
      </trkpt>
      <trkpt lat="42.88169" lon="-7.94661">
        <time>2022-07-14T06:23:18Z</time>
      </trkpt>
      <trkpt lat="42.881714" lon="-7.946691">
        <time>2022-07-14T06:23:23Z</time>
      </trkpt>
      <trkpt lat="42.88172" lon="-7.9467697">
        <time>2022-07-14T06:23:27Z</time>
      </trkpt>
      <trkpt lat="42.881733" lon="-7.946841">
        <time>2022-07-14T06:23:31Z</time>
      </trkpt>
      <trkpt lat="42.881744" lon="-7.946902">
        <time>2022-07-14T06:23:35Z</time>
      </trkpt>
      <trkpt lat="42.881756" lon="-7.946985">
        <time>2022-07-14T06:23:40Z</time>
      </trkpt>
      <trkpt lat="42.881775" lon="-7.947051">
        <time>2022-07-14T06:23:44Z</time>
      </trkpt>
      <trkpt lat="42.88178" lon="-7.9471183">
        <time>2022-07-14T06:23:48Z</time>
      </trkpt>
      <trkpt lat="42.881783" lon="-7.947194">
        <time>2022-07-14T06:23:53Z</time>
      </trkpt>
      <trkpt lat="42.881786" lon="-7.947269">
        <time>2022-07-14T06:23:58Z</time>
      </trkpt>
      <trkpt lat="42.88179" lon="-7.947342">
        <time>2022-07-14T06:24:02Z</time>
      </trkpt>
      <trkpt lat="42.881794" lon="-7.94742">
        <time>2022-07-14T06:24:06Z</time>
      </trkpt>
      <trkpt lat="42.881798" lon="-7.9474955">
        <time>2022-07-14T06:24:10Z</time>
      </trkpt>
      <trkpt lat="42.881794" lon="-7.94757">
        <time>2022-07-14T06:24:14Z</time>
      </trkpt>
      <trkpt lat="42.88179" lon="-7.9476414">
        <time>2022-07-14T06:24:18Z</time>
      </trkpt>
      <trkpt lat="42.881786" lon="-7.9477215">
        <time>2022-07-14T06:24:22Z</time>
      </trkpt>
      <trkpt lat="42.881794" lon="-7.9477835">
        <time>2022-07-14T06:24:26Z</time>
      </trkpt>
      <trkpt lat="42.88181" lon="-7.9478703">
        <time>2022-07-14T06:24:31Z</time>
      </trkpt>
      <trkpt lat="42.881824" lon="-7.94795">
        <time>2022-07-14T06:24:36Z</time>
      </trkpt>
      <trkpt lat="42.88184" lon="-7.9480333">
        <time>2022-07-14T06:24:41Z</time>
      </trkpt>
      <trkpt lat="42.88185" lon="-7.9481096">
        <time>2022-07-14T06:24:46Z</time>
      </trkpt>
      <trkpt lat="42.881855" lon="-7.9481835">
        <time>2022-07-14T06:24:51Z</time>
      </trkpt>
      <trkpt lat="42.881855" lon="-7.9482613">
        <time>2022-07-14T06:24:56Z</time>
      </trkpt>
      <trkpt lat="42.88185" lon="-7.9483314">
        <time>2022-07-14T06:25:01Z</time>
      </trkpt>
      <trkpt lat="42.881855" lon="-7.9484043">
        <time>2022-07-14T06:25:06Z</time>
      </trkpt>
      <trkpt lat="42.881847" lon="-7.948487">
        <time>2022-07-14T06:25:11Z</time>
      </trkpt>
      <trkpt lat="42.88184" lon="-7.9485664">
        <time>2022-07-14T06:25:15Z</time>
      </trkpt>
      <trkpt lat="42.881824" lon="-7.948643">
        <time>2022-07-14T06:25:19Z</time>
      </trkpt>
      <trkpt lat="42.881817" lon="-7.94871">
        <time>2022-07-14T06:25:23Z</time>
      </trkpt>
      <trkpt lat="42.881798" lon="-7.948784">
        <time>2022-07-14T06:25:28Z</time>
      </trkpt>
      <trkpt lat="42.88177" lon="-7.94886">
        <time>2022-07-14T06:25:33Z</time>
      </trkpt>
      <trkpt lat="42.88175" lon="-7.948943">
        <time>2022-07-14T06:25:38Z</time>
      </trkpt>
      <trkpt lat="42.881737" lon="-7.9490213">
        <time>2022-07-14T06:25:42Z</time>
      </trkpt>
      <trkpt lat="42.88172" lon="-7.9490924">
        <time>2022-07-14T06:25:46Z</time>
      </trkpt>
      <trkpt lat="42.881706" lon="-7.949162">
        <time>2022-07-14T06:25:50Z</time>
      </trkpt>
      <trkpt lat="42.881695" lon="-7.949227">
        <time>2022-07-14T06:25:54Z</time>
      </trkpt>
      <trkpt lat="42.88167" lon="-7.9493012">
        <time>2022-07-14T06:25:59Z</time>
      </trkpt>
      <trkpt lat="42.881653" lon="-7.949373">
        <time>2022-07-14T06:26:03Z</time>
      </trkpt>
      <trkpt lat="42.88164" lon="-7.949448">
        <time>2022-07-14T06:26:08Z</time>
      </trkpt>
      <trkpt lat="42.881626" lon="-7.9495153">
        <time>2022-07-14T06:26:12Z</time>
      </trkpt>
      <trkpt lat="42.881603" lon="-7.949596">
        <time>2022-07-14T06:26:17Z</time>
      </trkpt>
      <trkpt lat="42.881584" lon="-7.9496665">
        <time>2022-07-14T06:26:21Z</time>
      </trkpt>
      <trkpt lat="42.881557" lon="-7.949732">
        <time>2022-07-14T06:26:25Z</time>
      </trkpt>
      <trkpt lat="42.881527" lon="-7.9497967">
        <time>2022-07-14T06:26:29Z</time>
      </trkpt>
      <trkpt lat="42.881508" lon="-7.949856">
        <time>2022-07-14T06:26:33Z</time>
      </trkpt>
      <trkpt lat="42.881485" lon="-7.9499335">
        <time>2022-07-14T06:26:38Z</time>
      </trkpt>
      <trkpt lat="42.881462" lon="-7.9500017">
        <time>2022-07-14T06:26:42Z</time>
      </trkpt>
      <trkpt lat="42.881454" lon="-7.950073">
        <time>2022-07-14T06:26:47Z</time>
      </trkpt>
      <trkpt lat="42.88146" lon="-7.950154">
        <time>2022-07-14T06:26:52Z</time>
      </trkpt>
      <trkpt lat="42.881466" lon="-7.9502296">
        <time>2022-07-14T06:26:56Z</time>
      </trkpt>
      <trkpt lat="42.881462" lon="-7.9502935">
        <time>2022-07-14T06:27:00Z</time>
      </trkpt>
      <trkpt lat="42.88147" lon="-7.9503784">
        <time>2022-07-14T06:27:05Z</time>
      </trkpt>
      <trkpt lat="42.881477" lon="-7.950456">
        <time>2022-07-14T06:27:10Z</time>
      </trkpt>
      <trkpt lat="42.881485" lon="-7.9505343">
        <time>2022-07-14T06:27:14Z</time>
      </trkpt>
      <trkpt lat="42.881485" lon="-7.950604">
        <time>2022-07-14T06:27:18Z</time>
      </trkpt>
      <trkpt lat="42.88148" lon="-7.9506855">
        <time>2022-07-14T06:27:22Z</time>
      </trkpt>
      <trkpt lat="42.881485" lon="-7.95076">
        <time>2022-07-14T06:27:26Z</time>
      </trkpt>
      <trkpt lat="42.881496" lon="-7.9508247">
        <time>2022-07-14T06:27:30Z</time>
      </trkpt>
      <trkpt lat="42.88151" lon="-7.9509077">
        <time>2022-07-14T06:27:35Z</time>
      </trkpt>
      <trkpt lat="42.881527" lon="-7.9509873">
        <time>2022-07-14T06:27:41Z</time>
      </trkpt>
      <trkpt lat="42.88154" lon="-7.951063">
        <time>2022-07-14T06:27:46Z</time>
      </trkpt>
      <trkpt lat="42.881546" lon="-7.951146">
        <time>2022-07-14T06:27:51Z</time>
      </trkpt>
      <trkpt lat="42.881554" lon="-7.9512143">
        <time>2022-07-14T06:27:54Z</time>
      </trkpt>
      <trkpt lat="42.88155" lon="-7.951285">
        <time>2022-07-14T06:27:59Z</time>
      </trkpt>
      <trkpt lat="42.881546" lon="-7.951362">
        <time>2022-07-14T06:28:03Z</time>
      </trkpt>
      <trkpt lat="42.88155" lon="-7.951439">
        <time>2022-07-14T06:28:09Z</time>
      </trkpt>
      <trkpt lat="42.88154" lon="-7.9515147">
        <time>2022-07-14T06:28:14Z</time>
      </trkpt>
      <trkpt lat="42.88153" lon="-7.951591">
        <time>2022-07-14T06:28:19Z</time>
      </trkpt>
      <trkpt lat="42.881527" lon="-7.9516764">
        <time>2022-07-14T06:28:24Z</time>
      </trkpt>
      <trkpt lat="42.881527" lon="-7.951751">
        <time>2022-07-14T06:28:28Z</time>
      </trkpt>
      <trkpt lat="42.881523" lon="-7.951841">
        <time>2022-07-14T06:28:33Z</time>
      </trkpt>
      <trkpt lat="42.88152" lon="-7.9519167">
        <time>2022-07-14T06:28:38Z</time>
      </trkpt>
      <trkpt lat="42.88153" lon="-7.9519963">
        <time>2022-07-14T06:28:44Z</time>
      </trkpt>
      <trkpt lat="42.881546" lon="-7.9520655">
        <time>2022-07-14T06:28:49Z</time>
      </trkpt>
      <trkpt lat="42.881546" lon="-7.952119">
        <time>2022-07-14T06:28:58Z</time>
      </trkpt>
      <trkpt lat="42.881535" lon="-7.9521527">
        <time>2022-07-14T06:32:47Z</time>
      </trkpt>
      <trkpt lat="42.881542" lon="-7.9521813">
        <time>2022-07-14T06:33:00Z</time>
      </trkpt>
      <trkpt lat="42.881573" lon="-7.9522405">
        <time>2022-07-14T06:33:08Z</time>
      </trkpt>
      <trkpt lat="42.881577" lon="-7.9523096">
        <time>2022-07-14T06:33:16Z</time>
      </trkpt>
      <trkpt lat="42.881565" lon="-7.9523954">
        <time>2022-07-14T06:33:22Z</time>
      </trkpt>
      <trkpt lat="42.88155" lon="-7.9524956">
        <time>2022-07-14T06:33:27Z</time>
      </trkpt>
      <trkpt lat="42.881542" lon="-7.9525666">
        <time>2022-07-14T06:33:31Z</time>
      </trkpt>
      <trkpt lat="42.88154" lon="-7.952648">
        <time>2022-07-14T06:33:35Z</time>
      </trkpt>
      <trkpt lat="42.881535" lon="-7.9527307">
        <time>2022-07-14T06:33:39Z</time>
      </trkpt>
      <trkpt lat="42.881546" lon="-7.9527893">
        <time>2022-07-14T06:33:43Z</time>
      </trkpt>
      <trkpt lat="42.88157" lon="-7.952872">
        <time>2022-07-14T06:33:48Z</time>
      </trkpt>
      <trkpt lat="42.881588" lon="-7.952945">
        <time>2022-07-14T06:33:53Z</time>
      </trkpt>
      <trkpt lat="42.881615" lon="-7.95301">
        <time>2022-07-14T06:33:57Z</time>
      </trkpt>
      <trkpt lat="42.881653" lon="-7.9530654">
        <time>2022-07-14T06:34:01Z</time>
      </trkpt>
      <trkpt lat="42.881687" lon="-7.953127">
        <time>2022-07-14T06:34:05Z</time>
      </trkpt>
      <trkpt lat="42.881725" lon="-7.9531693">
        <time>2022-07-14T06:34:08Z</time>
      </trkpt>
      <trkpt lat="42.881763" lon="-7.9532213">
        <time>2022-07-14T06:34:12Z</time>
      </trkpt>
      <trkpt lat="42.881798" lon="-7.9532804">
        <time>2022-07-14T06:34:16Z</time>
      </trkpt>
      <trkpt lat="42.881824" lon="-7.953341">
        <time>2022-07-14T06:34:20Z</time>
      </trkpt>
      <trkpt lat="42.881855" lon="-7.9533916">
        <time>2022-07-14T06:34:24Z</time>
      </trkpt>
      <trkpt lat="42.8819" lon="-7.953454">
        <time>2022-07-14T06:34:29Z</time>
      </trkpt>
      <trkpt lat="42.881947" lon="-7.953497">
        <time>2022-07-14T06:34:33Z</time>
      </trkpt>
      <trkpt lat="42.88198" lon="-7.9535565">
        <time>2022-07-14T06:34:37Z</time>
      </trkpt>
      <trkpt lat="42.88201" lon="-7.953619">
        <time>2022-07-14T06:34:41Z</time>
      </trkpt>
      <trkpt lat="42.882053" lon="-7.9536633">
        <time>2022-07-14T06:34:45Z</time>
      </trkpt>
      <trkpt lat="42.88209" lon="-7.953703">
        <time>2022-07-14T06:34:49Z</time>
      </trkpt>
      <trkpt lat="42.882133" lon="-7.9537582">
        <time>2022-07-14T06:34:54Z</time>
      </trkpt>
      <trkpt lat="42.882175" lon="-7.9538174">
        <time>2022-07-14T06:34:59Z</time>
      </trkpt>
      <trkpt lat="42.88221" lon="-7.953872">
        <time>2022-07-14T06:35:03Z</time>
      </trkpt>
      <trkpt lat="42.882248" lon="-7.953919">
        <time>2022-07-14T06:35:07Z</time>
      </trkpt>
      <trkpt lat="42.88228" lon="-7.953994">
        <time>2022-07-14T06:35:12Z</time>
      </trkpt>
      <trkpt lat="42.882305" lon="-7.954063">
        <time>2022-07-14T06:35:16Z</time>
      </trkpt>
      <trkpt lat="42.88232" lon="-7.954134">
        <time>2022-07-14T06:35:20Z</time>
      </trkpt>
      <trkpt lat="42.882336" lon="-7.954198">
        <time>2022-07-14T06:35:24Z</time>
      </trkpt>
      <trkpt lat="42.882362" lon="-7.9542613">
        <time>2022-07-14T06:35:28Z</time>
      </trkpt>
      <trkpt lat="42.88239" lon="-7.9543333">
        <time>2022-07-14T06:35:32Z</time>
      </trkpt>
      <trkpt lat="42.882416" lon="-7.954389">
        <time>2022-07-14T06:35:36Z</time>
      </trkpt>
      <trkpt lat="42.88245" lon="-7.9544644">
        <time>2022-07-14T06:35:41Z</time>
      </trkpt>
      <trkpt lat="42.882477" lon="-7.9545374">
        <time>2022-07-14T06:35:45Z</time>
      </trkpt>
      <trkpt lat="42.882507" lon="-7.954602">
        <time>2022-07-14T06:35:49Z</time>
      </trkpt>
      <trkpt lat="42.882534" lon="-7.954655">
        <time>2022-07-14T06:35:53Z</time>
      </trkpt>
      <trkpt lat="42.882576" lon="-7.9547243">
        <time>2022-07-14T06:35:58Z</time>
      </trkpt>
      <trkpt lat="42.882595" lon="-7.9547954">
        <time>2022-07-14T06:36:02Z</time>
      </trkpt>
      <trkpt lat="42.882614" lon="-7.9548683">
        <time>2022-07-14T06:36:06Z</time>
      </trkpt>
      <trkpt lat="42.882645" lon="-7.954937">
        <time>2022-07-14T06:36:10Z</time>
      </trkpt>
      <trkpt lat="42.882675" lon="-7.954992">
        <time>2022-07-14T06:36:14Z</time>
      </trkpt>
      <trkpt lat="42.882713" lon="-7.9550548">
        <time>2022-07-14T06:36:19Z</time>
      </trkpt>
      <trkpt lat="42.88274" lon="-7.9551153">
        <time>2022-07-14T06:36:23Z</time>
      </trkpt>
      <trkpt lat="42.882767" lon="-7.9551797">
        <time>2022-07-14T06:36:27Z</time>
      </trkpt>
      <trkpt lat="42.88279" lon="-7.955245">
        <time>2022-07-14T06:36:31Z</time>
      </trkpt>
      <trkpt lat="42.882812" lon="-7.955312">
        <time>2022-07-14T06:36:35Z</time>
      </trkpt>
      <trkpt lat="42.88284" lon="-7.9553723">
        <time>2022-07-14T06:36:39Z</time>
      </trkpt>
      <trkpt lat="42.882877" lon="-7.9554377">
        <time>2022-07-14T06:36:43Z</time>
      </trkpt>
      <trkpt lat="42.882915" lon="-7.95549">
        <time>2022-07-14T06:36:47Z</time>
      </trkpt>
      <trkpt lat="42.88296" lon="-7.9555473">
        <time>2022-07-14T06:36:51Z</time>
      </trkpt>
      <trkpt lat="42.88299" lon="-7.955594">
        <time>2022-07-14T06:36:54Z</time>
      </trkpt>
      <trkpt lat="42.88303" lon="-7.9556584">
        <time>2022-07-14T06:36:58Z</time>
      </trkpt>
      <trkpt lat="42.883068" lon="-7.955709">
        <time>2022-07-14T06:37:02Z</time>
      </trkpt>
      <trkpt lat="42.883114" lon="-7.955775">
        <time>2022-07-14T06:37:07Z</time>
      </trkpt>
      <trkpt lat="42.883156" lon="-7.9558315">
        <time>2022-07-14T06:37:12Z</time>
      </trkpt>
      <trkpt lat="42.883205" lon="-7.9558816">
        <time>2022-07-14T06:37:17Z</time>
      </trkpt>
      <trkpt lat="42.883247" lon="-7.9559364">
        <time>2022-07-14T06:37:22Z</time>
      </trkpt>
      <trkpt lat="42.883286" lon="-7.95599">
        <time>2022-07-14T06:37:26Z</time>
      </trkpt>
      <trkpt lat="42.88332" lon="-7.9560475">
        <time>2022-07-14T06:37:30Z</time>
      </trkpt>
      <trkpt lat="42.883354" lon="-7.956104">
        <time>2022-07-14T06:37:34Z</time>
      </trkpt>
      <trkpt lat="42.883392" lon="-7.9561515">
        <time>2022-07-14T06:37:38Z</time>
      </trkpt>
      <trkpt lat="42.88343" lon="-7.956211">
        <time>2022-07-14T06:37:42Z</time>
      </trkpt>
      <trkpt lat="42.883472" lon="-7.9562654">
        <time>2022-07-14T06:37:46Z</time>
      </trkpt>
      <trkpt lat="42.883514" lon="-7.9563284">
        <time>2022-07-14T06:37:51Z</time>
      </trkpt>
      <trkpt lat="42.883556" lon="-7.956381">
        <time>2022-07-14T06:37:55Z</time>
      </trkpt>
      <trkpt lat="42.88359" lon="-7.956431">
        <time>2022-07-14T06:37:59Z</time>
      </trkpt>
      <trkpt lat="42.883625" lon="-7.956482">
        <time>2022-07-14T06:38:03Z</time>
      </trkpt>
      <trkpt lat="42.88367" lon="-7.9565387">
        <time>2022-07-14T06:38:07Z</time>
      </trkpt>
      <trkpt lat="42.88371" lon="-7.956579">
        <time>2022-07-14T06:38:11Z</time>
      </trkpt>
      <trkpt lat="42.883747" lon="-7.9566236">
        <time>2022-07-14T06:38:16Z</time>
      </trkpt>
      <trkpt lat="42.883793" lon="-7.956684">
        <time>2022-07-14T06:38:21Z</time>
      </trkpt>
      <trkpt lat="42.883827" lon="-7.95675">
        <time>2022-07-14T06:38:26Z</time>
      </trkpt>
      <trkpt lat="42.883865" lon="-7.9568043">
        <time>2022-07-14T06:38:31Z</time>
      </trkpt>
      <trkpt lat="42.883915" lon="-7.9568734">
        <time>2022-07-14T06:38:36Z</time>
      </trkpt>
      <trkpt lat="42.883953" lon="-7.956932">
        <time>2022-07-14T06:38:40Z</time>
      </trkpt>
      <trkpt lat="42.883995" lon="-7.9569845">
        <time>2022-07-14T06:38:44Z</time>
      </trkpt>
      <trkpt lat="42.88403" lon="-7.9570274">
        <time>2022-07-14T06:38:48Z</time>
      </trkpt>
      <trkpt lat="42.884064" lon="-7.9570823">
        <time>2022-07-14T06:38:53Z</time>
      </trkpt>
      <trkpt lat="42.88411" lon="-7.9571466">
        <time>2022-07-14T06:38:58Z</time>
      </trkpt>
      <trkpt lat="42.884144" lon="-7.95721">
        <time>2022-07-14T06:39:02Z</time>
      </trkpt>
      <trkpt lat="42.884182" lon="-7.9572783">
        <time>2022-07-14T06:39:06Z</time>
      </trkpt>
      <trkpt lat="42.884212" lon="-7.9573336">
        <time>2022-07-14T06:39:10Z</time>
      </trkpt>
      <trkpt lat="42.884247" lon="-7.9574056">
        <time>2022-07-14T06:39:15Z</time>
      </trkpt>
      <trkpt lat="42.884277" lon="-7.957473">
        <time>2022-07-14T06:39:19Z</time>
      </trkpt>
      <trkpt lat="42.884308" lon="-7.957542">
        <time>2022-07-14T06:39:23Z</time>
      </trkpt>
      <trkpt lat="42.88434" lon="-7.957609">
        <time>2022-07-14T06:39:27Z</time>
      </trkpt>
      <trkpt lat="42.88437" lon="-7.95767">
        <time>2022-07-14T06:39:31Z</time>
      </trkpt>
      <trkpt lat="42.884396" lon="-7.9577355">
        <time>2022-07-14T06:39:35Z</time>
      </trkpt>
      <trkpt lat="42.884426" lon="-7.9578056">
        <time>2022-07-14T06:39:39Z</time>
      </trkpt>
      <trkpt lat="42.88445" lon="-7.957868">
        <time>2022-07-14T06:39:43Z</time>
      </trkpt>
      <trkpt lat="42.88447" lon="-7.957934">
        <time>2022-07-14T06:39:47Z</time>
      </trkpt>
      <trkpt lat="42.884506" lon="-7.9579973">
        <time>2022-07-14T06:39:51Z</time>
      </trkpt>
      <trkpt lat="42.884533" lon="-7.9580584">
        <time>2022-07-14T06:39:55Z</time>
      </trkpt>
      <trkpt lat="42.884556" lon="-7.95812">
        <time>2022-07-14T06:39:59Z</time>
      </trkpt>
      <trkpt lat="42.884586" lon="-7.958182">
        <time>2022-07-14T06:40:03Z</time>
      </trkpt>
      <trkpt lat="42.884617" lon="-7.9582324">
        <time>2022-07-14T06:40:07Z</time>
      </trkpt>
      <trkpt lat="42.884655" lon="-7.9582996">
        <time>2022-07-14T06:40:12Z</time>
      </trkpt>
      <trkpt lat="42.884678" lon="-7.958353">
        <time>2022-07-14T06:40:16Z</time>
      </trkpt>
      <trkpt lat="42.88471" lon="-7.9584146">
        <time>2022-07-14T06:40:21Z</time>
      </trkpt>
      <trkpt lat="42.884747" lon="-7.958477">
        <time>2022-07-14T06:40:26Z</time>
      </trkpt>
      <trkpt lat="42.884777" lon="-7.9585185">
        <time>2022-07-14T06:40:31Z</time>
      </trkpt>
      <trkpt lat="42.884792" lon="-7.9585967">
        <time>2022-07-14T06:40:48Z</time>
      </trkpt>
      <trkpt lat="42.884796" lon="-7.9586816">
        <time>2022-07-14T06:40:54Z</time>
      </trkpt>
      <trkpt lat="42.884804" lon="-7.9587507">
        <time>2022-07-14T06:40:58Z</time>
      </trkpt>
      <trkpt lat="42.88481" lon="-7.958826">
        <time>2022-07-14T06:41:03Z</time>
      </trkpt>
      <trkpt lat="42.88484" lon="-7.958896">
        <time>2022-07-14T06:41:07Z</time>
      </trkpt>
      <trkpt lat="42.88486" lon="-7.9589524">
        <time>2022-07-14T06:41:10Z</time>
      </trkpt>
      <trkpt lat="42.884884" lon="-7.959017">
        <time>2022-07-14T06:41:14Z</time>
      </trkpt>
      <trkpt lat="42.884888" lon="-7.959095">
        <time>2022-07-14T06:41:19Z</time>
      </trkpt>
      <trkpt lat="42.884895" lon="-7.9591756">
        <time>2022-07-14T06:41:23Z</time>
      </trkpt>
      <trkpt lat="42.88492" lon="-7.959245">
        <time>2022-07-14T06:41:27Z</time>
      </trkpt>
      <trkpt lat="42.88494" lon="-7.959316">
        <time>2022-07-14T06:41:32Z</time>
      </trkpt>
      <trkpt lat="42.88496" lon="-7.9593906">
        <time>2022-07-14T06:41:37Z</time>
      </trkpt>
      <trkpt lat="42.88497" lon="-7.9594617">
        <time>2022-07-14T06:41:41Z</time>
      </trkpt>
      <trkpt lat="42.884983" lon="-7.9595375">
        <time>2022-07-14T06:41:46Z</time>
      </trkpt>
      <trkpt lat="42.885006" lon="-7.959605">
        <time>2022-07-14T06:41:51Z</time>
      </trkpt>
      <trkpt lat="42.88503" lon="-7.9596734">
        <time>2022-07-14T06:41:55Z</time>
      </trkpt>
      <trkpt lat="42.885048" lon="-7.9597425">
        <time>2022-07-14T06:41:59Z</time>
      </trkpt>
      <trkpt lat="42.885067" lon="-7.959813">
        <time>2022-07-14T06:42:04Z</time>
      </trkpt>
      <trkpt lat="42.8851" lon="-7.95988">
        <time>2022-07-14T06:42:09Z</time>
      </trkpt>
      <trkpt lat="42.88514" lon="-7.959946">
        <time>2022-07-14T06:42:14Z</time>
      </trkpt>
      <trkpt lat="42.885174" lon="-7.9600053">
        <time>2022-07-14T06:42:19Z</time>
      </trkpt>
      <trkpt lat="42.885204" lon="-7.9600825">
        <time>2022-07-14T06:42:24Z</time>
      </trkpt>
      <trkpt lat="42.885227" lon="-7.960155">
        <time>2022-07-14T06:42:28Z</time>
      </trkpt>
      <trkpt lat="42.88526" lon="-7.960221">
        <time>2022-07-14T06:42:32Z</time>
      </trkpt>
      <trkpt lat="42.88529" lon="-7.9602814">
        <time>2022-07-14T06:42:36Z</time>
      </trkpt>
      <trkpt lat="42.885315" lon="-7.9603467">
        <time>2022-07-14T06:42:41Z</time>
      </trkpt>
      <trkpt lat="42.88534" lon="-7.960427">
        <time>2022-07-14T06:42:45Z</time>
      </trkpt>
      <trkpt lat="42.885372" lon="-7.9605">
        <time>2022-07-14T06:42:49Z</time>
      </trkpt>
      <trkpt lat="42.8854" lon="-7.960561">
        <time>2022-07-14T06:42:53Z</time>
      </trkpt>
      <trkpt lat="42.88543" lon="-7.96063">
        <time>2022-07-14T06:42:58Z</time>
      </trkpt>
      <trkpt lat="42.88546" lon="-7.9606905">
        <time>2022-07-14T06:43:02Z</time>
      </trkpt>
      <trkpt lat="42.885487" lon="-7.9607596">
        <time>2022-07-14T06:43:06Z</time>
      </trkpt>
      <trkpt lat="42.88553" lon="-7.9608517">
        <time>2022-07-14T06:43:11Z</time>
      </trkpt>
      <trkpt lat="42.88556" lon="-7.9609227">
        <time>2022-07-14T06:43:15Z</time>
      </trkpt>
      <trkpt lat="42.885586" lon="-7.960989">
        <time>2022-07-14T06:43:20Z</time>
      </trkpt>
      <trkpt lat="42.88562" lon="-7.9610715">
        <time>2022-07-14T06:43:25Z</time>
      </trkpt>
      <trkpt lat="42.885654" lon="-7.9611354">
        <time>2022-07-14T06:43:29Z</time>
      </trkpt>
      <trkpt lat="42.885685" lon="-7.9612045">
        <time>2022-07-14T06:43:33Z</time>
      </trkpt>
      <trkpt lat="42.885708" lon="-7.961263">
        <time>2022-07-14T06:43:37Z</time>
      </trkpt>
      <trkpt lat="42.88573" lon="-7.961341">
        <time>2022-07-14T06:43:42Z</time>
      </trkpt>
      <trkpt lat="42.88576" lon="-7.9614105">
        <time>2022-07-14T06:43:46Z</time>
      </trkpt>
      <trkpt lat="42.885788" lon="-7.9614697">
        <time>2022-07-14T06:43:49Z</time>
      </trkpt>
      <trkpt lat="42.885822" lon="-7.9615507">
        <time>2022-07-14T06:43:53Z</time>
      </trkpt>
      <trkpt lat="42.88584" lon="-7.9616055">
        <time>2022-07-14T06:43:56Z</time>
      </trkpt>
      <trkpt lat="42.885857" lon="-7.9616747">
        <time>2022-07-14T06:44:00Z</time>
      </trkpt>
      <trkpt lat="42.88587" lon="-7.9617457">
        <time>2022-07-14T06:44:05Z</time>
      </trkpt>
      <trkpt lat="42.8859" lon="-7.9618263">
        <time>2022-07-14T06:44:10Z</time>
      </trkpt>
      <trkpt lat="42.88593" lon="-7.9619026">
        <time>2022-07-14T06:44:14Z</time>
      </trkpt>
      <trkpt lat="42.88596" lon="-7.9619784">
        <time>2022-07-14T06:44:18Z</time>
      </trkpt>
      <trkpt lat="42.885986" lon="-7.962057">
        <time>2022-07-14T06:44:22Z</time>
      </trkpt>
      <trkpt lat="42.886013" lon="-7.962131">
        <time>2022-07-14T06:44:26Z</time>
      </trkpt>
      <trkpt lat="42.886036" lon="-7.962207">
        <time>2022-07-14T06:44:30Z</time>
      </trkpt>
      <trkpt lat="42.886055" lon="-7.962278">
        <time>2022-07-14T06:44:34Z</time>
      </trkpt>
      <trkpt lat="42.886078" lon="-7.96234">
        <time>2022-07-14T06:44:38Z</time>
      </trkpt>
      <trkpt lat="42.8861" lon="-7.9624186">
        <time>2022-07-14T06:44:43Z</time>
      </trkpt>
      <trkpt lat="42.886127" lon="-7.962487">
        <time>2022-07-14T06:44:48Z</time>
      </trkpt>
      <trkpt lat="42.88615" lon="-7.9625607">
        <time>2022-07-14T06:44:53Z</time>
      </trkpt>
      <trkpt lat="42.886177" lon="-7.9626265">
        <time>2022-07-14T06:44:57Z</time>
      </trkpt>
      <trkpt lat="42.88621" lon="-7.9626985">
        <time>2022-07-14T06:45:01Z</time>
      </trkpt>
      <trkpt lat="42.886234" lon="-7.962755">
        <time>2022-07-14T06:45:04Z</time>
      </trkpt>
      <trkpt lat="42.88626" lon="-7.962824">
        <time>2022-07-14T06:45:08Z</time>
      </trkpt>
      <trkpt lat="42.88629" lon="-7.962877">
        <time>2022-07-14T06:45:12Z</time>
      </trkpt>
      <trkpt lat="42.88632" lon="-7.9629455">
        <time>2022-07-14T06:45:17Z</time>
      </trkpt>
      <trkpt lat="42.886337" lon="-7.9630075">
        <time>2022-07-14T06:45:21Z</time>
      </trkpt>
      <trkpt lat="42.886368" lon="-7.9630795">
        <time>2022-07-14T06:45:26Z</time>
      </trkpt>
      <trkpt lat="42.88641" lon="-7.963131">
        <time>2022-07-14T06:45:30Z</time>
      </trkpt>
      <trkpt lat="42.88645" lon="-7.963206">
        <time>2022-07-14T06:45:34Z</time>
      </trkpt>
      <trkpt lat="42.886482" lon="-7.9632626">
        <time>2022-07-14T06:45:37Z</time>
      </trkpt>
      <trkpt lat="42.886517" lon="-7.9633307">
        <time>2022-07-14T06:45:41Z</time>
      </trkpt>
      <trkpt lat="42.886543" lon="-7.96339">
        <time>2022-07-14T06:45:45Z</time>
      </trkpt>
      <trkpt lat="42.88658" lon="-7.9634547">
        <time>2022-07-14T06:45:50Z</time>
      </trkpt>
      <trkpt lat="42.88661" lon="-7.9635253">
        <time>2022-07-14T06:45:55Z</time>
      </trkpt>
      <trkpt lat="42.886616" lon="-7.9635935">
        <time>2022-07-14T06:45:59Z</time>
      </trkpt>
      <trkpt lat="42.886623" lon="-7.9636626">
        <time>2022-07-14T06:46:03Z</time>
      </trkpt>
      <trkpt lat="42.886635" lon="-7.963737">
        <time>2022-07-14T06:46:07Z</time>
      </trkpt>
      <trkpt lat="42.886646" lon="-7.9638095">
        <time>2022-07-14T06:46:11Z</time>
      </trkpt>
      <trkpt lat="42.88666" lon="-7.9638743">
        <time>2022-07-14T06:46:15Z</time>
      </trkpt>
      <trkpt lat="42.886677" lon="-7.9639535">
        <time>2022-07-14T06:46:20Z</time>
      </trkpt>
      <trkpt lat="42.88669" lon="-7.96402">
        <time>2022-07-14T06:46:24Z</time>
      </trkpt>
      <trkpt lat="42.88671" lon="-7.9640837">
        <time>2022-07-14T06:46:28Z</time>
      </trkpt>
      <trkpt lat="42.886734" lon="-7.964152">
        <time>2022-07-14T06:46:32Z</time>
      </trkpt>
      <trkpt lat="42.88677" lon="-7.9642177">
        <time>2022-07-14T06:46:36Z</time>
      </trkpt>
      <trkpt lat="42.886803" lon="-7.9642773">
        <time>2022-07-14T06:46:40Z</time>
      </trkpt>
      <trkpt lat="42.88684" lon="-7.9643426">
        <time>2022-07-14T06:46:44Z</time>
      </trkpt>
      <trkpt lat="42.88688" lon="-7.9644017">
        <time>2022-07-14T06:46:48Z</time>
      </trkpt>
      <trkpt lat="42.88691" lon="-7.964459">
        <time>2022-07-14T06:46:52Z</time>
      </trkpt>
      <trkpt lat="42.886955" lon="-7.964517">
        <time>2022-07-14T06:46:57Z</time>
      </trkpt>
      <trkpt lat="42.887" lon="-7.964562">
        <time>2022-07-14T06:47:02Z</time>
      </trkpt>
      <trkpt lat="42.88704" lon="-7.9646187">
        <time>2022-07-14T06:47:06Z</time>
      </trkpt>
      <trkpt lat="42.88708" lon="-7.9646764">
        <time>2022-07-14T06:47:10Z</time>
      </trkpt>
      <trkpt lat="42.887115" lon="-7.964722">
        <time>2022-07-14T06:47:14Z</time>
      </trkpt>
      <trkpt lat="42.887157" lon="-7.964785">
        <time>2022-07-14T06:47:19Z</time>
      </trkpt>
      <trkpt lat="42.88719" lon="-7.964839">
        <time>2022-07-14T06:47:23Z</time>
      </trkpt>
      <trkpt lat="42.887234" lon="-7.964887">
        <time>2022-07-14T06:47:27Z</time>
      </trkpt>
      <trkpt lat="42.887276" lon="-7.964929">
        <time>2022-07-14T06:47:31Z</time>
      </trkpt>
      <trkpt lat="42.887318" lon="-7.9649696">
        <time>2022-07-14T06:47:35Z</time>
      </trkpt>
      <trkpt lat="42.88736" lon="-7.9650106">
        <time>2022-07-14T06:47:39Z</time>
      </trkpt>
      <trkpt lat="42.887405" lon="-7.9650664">
        <time>2022-07-14T06:47:44Z</time>
      </trkpt>
      <trkpt lat="42.887444" lon="-7.965121">
        <time>2022-07-14T06:47:48Z</time>
      </trkpt>
      <trkpt lat="42.88748" lon="-7.965191">
        <time>2022-07-14T06:47:53Z</time>
      </trkpt>
      <trkpt lat="42.887516" lon="-7.9652534">
        <time>2022-07-14T06:47:57Z</time>
      </trkpt>
      <trkpt lat="42.88755" lon="-7.965306">
        <time>2022-07-14T06:48:01Z</time>
      </trkpt>
      <trkpt lat="42.88758" lon="-7.965366">
        <time>2022-07-14T06:48:05Z</time>
      </trkpt>
      <trkpt lat="42.887608" lon="-7.9654245">
        <time>2022-07-14T06:48:09Z</time>
      </trkpt>
      <trkpt lat="42.88764" lon="-7.9654865">
        <time>2022-07-14T06:48:14Z</time>
      </trkpt>
      <trkpt lat="42.88768" lon="-7.965549">
        <time>2022-07-14T06:48:19Z</time>
      </trkpt>
      <trkpt lat="42.887714" lon="-7.9656076">
        <time>2022-07-14T06:48:23Z</time>
      </trkpt>
      <trkpt lat="42.887756" lon="-7.9656525">
        <time>2022-07-14T06:48:27Z</time>
      </trkpt>
      <trkpt lat="42.8878" lon="-7.965695">
        <time>2022-07-14T06:48:31Z</time>
      </trkpt>
      <trkpt lat="42.88784" lon="-7.9657607">
        <time>2022-07-14T06:48:36Z</time>
      </trkpt>
      <trkpt lat="42.887875" lon="-7.9658194">
        <time>2022-07-14T06:48:40Z</time>
      </trkpt>
      <trkpt lat="42.887917" lon="-7.965869">
        <time>2022-07-14T06:48:44Z</time>
      </trkpt>
      <trkpt lat="42.88796" lon="-7.965903">
        <time>2022-07-14T06:48:48Z</time>
      </trkpt>
      <trkpt lat="42.888004" lon="-7.965886">
        <time>2022-07-14T06:48:53Z</time>
      </trkpt>
      <trkpt lat="42.888042" lon="-7.965831">
        <time>2022-07-14T06:48:59Z</time>
      </trkpt>
      <trkpt lat="42.888073" lon="-7.9657764">
        <time>2022-07-14T06:49:07Z</time>
      </trkpt>
      <trkpt lat="42.88806" lon="-7.965739">
        <time>2022-07-14T06:49:24Z</time>
      </trkpt>
      <trkpt lat="42.88804" lon="-7.9658036">
        <time>2022-07-14T06:51:32Z</time>
      </trkpt>
      <trkpt lat="42.888012" lon="-7.965871">
        <time>2022-07-14T06:51:36Z</time>
      </trkpt>
      <trkpt lat="42.888016" lon="-7.965936">
        <time>2022-07-14T06:51:40Z</time>
      </trkpt>
      <trkpt lat="42.888042" lon="-7.9660053">
        <time>2022-07-14T06:51:46Z</time>
      </trkpt>
      <trkpt lat="42.888073" lon="-7.9660635">
        <time>2022-07-14T06:51:50Z</time>
      </trkpt>
      <trkpt lat="42.8881" lon="-7.9661355">
        <time>2022-07-14T06:51:55Z</time>
      </trkpt>
      <trkpt lat="42.888134" lon="-7.9662056">
        <time>2022-07-14T06:52:00Z</time>
      </trkpt>
      <trkpt lat="42.888195" lon="-7.966299">
        <time>2022-07-14T06:52:15Z</time>
      </trkpt>
      <trkpt lat="42.888233" lon="-7.9663496">
        <time>2022-07-14T06:52:20Z</time>
      </trkpt>
      <trkpt lat="42.888283" lon="-7.9663906">
        <time>2022-07-14T06:52:25Z</time>
      </trkpt>
      <trkpt lat="42.888336" lon="-7.9664173">
        <time>2022-07-14T06:52:29Z</time>
      </trkpt>
      <trkpt lat="42.88839" lon="-7.966447">
        <time>2022-07-14T06:52:33Z</time>
      </trkpt>
      <trkpt lat="42.888447" lon="-7.9664693">
        <time>2022-07-14T06:52:37Z</time>
      </trkpt>
      <trkpt lat="42.8885" lon="-7.966489">
        <time>2022-07-14T06:52:41Z</time>
      </trkpt>
      <trkpt lat="42.88856" lon="-7.9665112">
        <time>2022-07-14T06:52:46Z</time>
      </trkpt>
      <trkpt lat="42.888615" lon="-7.966539">
        <time>2022-07-14T06:52:50Z</time>
      </trkpt>
      <trkpt lat="42.88866" lon="-7.96656">
        <time>2022-07-14T06:52:54Z</time>
      </trkpt>
      <trkpt lat="42.888714" lon="-7.966584">
        <time>2022-07-14T06:52:58Z</time>
      </trkpt>
      <trkpt lat="42.88876" lon="-7.9666047">
        <time>2022-07-14T06:53:02Z</time>
      </trkpt>
      <trkpt lat="42.888817" lon="-7.9666386">
        <time>2022-07-14T06:53:07Z</time>
      </trkpt>
      <trkpt lat="42.88886" lon="-7.966662">
        <time>2022-07-14T06:53:11Z</time>
      </trkpt>
      <trkpt lat="42.88891" lon="-7.966691">
        <time>2022-07-14T06:53:16Z</time>
      </trkpt>
      <trkpt lat="42.888966" lon="-7.9667172">
        <time>2022-07-14T06:53:21Z</time>
      </trkpt>
      <trkpt lat="42.889008" lon="-7.966741">
        <time>2022-07-14T06:53:25Z</time>
      </trkpt>
      <trkpt lat="42.88906" lon="-7.966768">
        <time>2022-07-14T06:53:30Z</time>
      </trkpt>
      <trkpt lat="42.88911" lon="-7.9667897">
        <time>2022-07-14T06:53:35Z</time>
      </trkpt>
      <trkpt lat="42.889156" lon="-7.9668155">
        <time>2022-07-14T06:53:40Z</time>
      </trkpt>
      <trkpt lat="42.88921" lon="-7.96685">
        <time>2022-07-14T06:53:49Z</time>
      </trkpt>
      <trkpt lat="42.88926" lon="-7.966879">
        <time>2022-07-14T06:53:54Z</time>
      </trkpt>
      <trkpt lat="42.88931" lon="-7.96691">
        <time>2022-07-14T06:53:59Z</time>
      </trkpt>
      <trkpt lat="42.88936" lon="-7.966939">
        <time>2022-07-14T06:54:03Z</time>
      </trkpt>
      <trkpt lat="42.889412" lon="-7.966975">
        <time>2022-07-14T06:54:07Z</time>
      </trkpt>
      <trkpt lat="42.889454" lon="-7.967005">
        <time>2022-07-14T06:54:10Z</time>
      </trkpt>
      <trkpt lat="42.8895" lon="-7.9670444">
        <time>2022-07-14T06:54:14Z</time>
      </trkpt>
      <trkpt lat="42.88955" lon="-7.967087">
        <time>2022-07-14T06:54:19Z</time>
      </trkpt>
      <trkpt lat="42.88959" lon="-7.9671307">
        <time>2022-07-14T06:54:24Z</time>
      </trkpt>
      <trkpt lat="42.889614" lon="-7.9671745">
        <time>2022-07-14T06:54:59Z</time>
      </trkpt>
      <trkpt lat="42.889664" lon="-7.9672217">
        <time>2022-07-14T06:55:05Z</time>
      </trkpt>
      <trkpt lat="42.889698" lon="-7.967254">
        <time>2022-07-14T06:55:10Z</time>
      </trkpt>
      <trkpt lat="42.889736" lon="-7.9673195">
        <time>2022-07-14T06:55:18Z</time>
      </trkpt>
      <trkpt lat="42.889767" lon="-7.9673805">
        <time>2022-07-14T06:55:22Z</time>
      </trkpt>
      <trkpt lat="42.889797" lon="-7.967445">
        <time>2022-07-14T06:55:27Z</time>
      </trkpt>
      <trkpt lat="42.889828" lon="-7.967517">
        <time>2022-07-14T06:55:32Z</time>
      </trkpt>
      <trkpt lat="42.889854" lon="-7.9675813">
        <time>2022-07-14T06:55:36Z</time>
      </trkpt>
      <trkpt lat="42.889877" lon="-7.9676437">
        <time>2022-07-14T06:55:40Z</time>
      </trkpt>
      <trkpt lat="42.889904" lon="-7.9677243">
        <time>2022-07-14T06:55:45Z</time>
      </trkpt>
      <trkpt lat="42.889915" lon="-7.967802">
        <time>2022-07-14T06:55:50Z</time>
      </trkpt>
      <trkpt lat="42.889927" lon="-7.967883">
        <time>2022-07-14T06:55:55Z</time>
      </trkpt>
      <trkpt lat="42.889935" lon="-7.9679546">
        <time>2022-07-14T06:55:59Z</time>
      </trkpt>
      <trkpt lat="42.889942" lon="-7.9680314">
        <time>2022-07-14T06:56:03Z</time>
      </trkpt>
      <trkpt lat="42.889954" lon="-7.9681005">
        <time>2022-07-14T06:56:07Z</time>
      </trkpt>
      <trkpt lat="42.88997" lon="-7.9681697">
        <time>2022-07-14T06:56:11Z</time>
      </trkpt>
      <trkpt lat="42.889977" lon="-7.9682465">
        <time>2022-07-14T06:56:15Z</time>
      </trkpt>
      <trkpt lat="42.889988" lon="-7.968322">
        <time>2022-07-14T06:56:19Z</time>
      </trkpt>
      <trkpt lat="42.890003" lon="-7.9684043">
        <time>2022-07-14T06:56:24Z</time>
      </trkpt>
      <trkpt lat="42.89001" lon="-7.968491">
        <time>2022-07-14T06:56:29Z</time>
      </trkpt>
      <trkpt lat="42.890007" lon="-7.96856">
        <time>2022-07-14T06:56:33Z</time>
      </trkpt>
      <trkpt lat="42.89001" lon="-7.968647">
        <time>2022-07-14T06:56:38Z</time>
      </trkpt>
      <trkpt lat="42.890026" lon="-7.968716">
        <time>2022-07-14T06:56:42Z</time>
      </trkpt>
      <trkpt lat="42.89006" lon="-7.9687896">
        <time>2022-07-14T06:56:47Z</time>
      </trkpt>
      <trkpt lat="42.8901" lon="-7.9688587">
        <time>2022-07-14T06:56:52Z</time>
      </trkpt>
      <trkpt lat="42.890125" lon="-7.9689193">
        <time>2022-07-14T06:56:56Z</time>
      </trkpt>
      <trkpt lat="42.890167" lon="-7.968986">
        <time>2022-07-14T06:57:01Z</time>
      </trkpt>
      <trkpt lat="42.890213" lon="-7.969045">
        <time>2022-07-14T06:57:06Z</time>
      </trkpt>
      <trkpt lat="42.89025" lon="-7.9690914">
        <time>2022-07-14T06:57:10Z</time>
      </trkpt>
      <trkpt lat="42.890293" lon="-7.969134">
        <time>2022-07-14T06:57:14Z</time>
      </trkpt>
      <trkpt lat="42.890347" lon="-7.969182">
        <time>2022-07-14T06:57:19Z</time>
      </trkpt>
      <trkpt lat="42.890392" lon="-7.9692264">
        <time>2022-07-14T06:57:23Z</time>
      </trkpt>
      <trkpt lat="42.890427" lon="-7.969281">
        <time>2022-07-14T06:57:27Z</time>
      </trkpt>
      <trkpt lat="42.89046" lon="-7.9693356">
        <time>2022-07-14T06:57:31Z</time>
      </trkpt>
      <trkpt lat="42.890503" lon="-7.96939">
        <time>2022-07-14T06:57:36Z</time>
      </trkpt>
      <trkpt lat="42.89054" lon="-7.9694366">
        <time>2022-07-14T06:57:40Z</time>
      </trkpt>
      <trkpt lat="42.89059" lon="-7.9694834">
        <time>2022-07-14T06:57:45Z</time>
      </trkpt>
      <trkpt lat="42.890644" lon="-7.969535">
        <time>2022-07-14T06:57:50Z</time>
      </trkpt>
      <trkpt lat="42.890697" lon="-7.969575">
        <time>2022-07-14T06:57:55Z</time>
      </trkpt>
      <trkpt lat="42.890747" lon="-7.969606">
        <time>2022-07-14T06:58:00Z</time>
      </trkpt>
      <trkpt lat="42.8908" lon="-7.969638">
        <time>2022-07-14T06:58:05Z</time>
      </trkpt>
      <trkpt lat="42.890842" lon="-7.969662">
        <time>2022-07-14T06:58:09Z</time>
      </trkpt>
      <trkpt lat="42.890892" lon="-7.9697127">
        <time>2022-07-14T06:58:14Z</time>
      </trkpt>
      <trkpt lat="42.890926" lon="-7.9697595">
        <time>2022-07-14T06:58:18Z</time>
      </trkpt>
      <trkpt lat="42.89096" lon="-7.969811">
        <time>2022-07-14T06:58:22Z</time>
      </trkpt>
      <trkpt lat="42.891003" lon="-7.969862">
        <time>2022-07-14T06:58:27Z</time>
      </trkpt>
      <trkpt lat="42.891056" lon="-7.9699163">
        <time>2022-07-14T06:58:32Z</time>
      </trkpt>
      <trkpt lat="42.891094" lon="-7.9699616">
        <time>2022-07-14T06:58:36Z</time>
      </trkpt>
      <trkpt lat="42.89114" lon="-7.970031">
        <time>2022-07-14T06:58:41Z</time>
      </trkpt>
      <trkpt lat="42.891174" lon="-7.9700747">
        <time>2022-07-14T06:58:44Z</time>
      </trkpt>
      <trkpt lat="42.891212" lon="-7.9701333">
        <time>2022-07-14T06:58:49Z</time>
      </trkpt>
      <trkpt lat="42.891247" lon="-7.9701786">
        <time>2022-07-14T06:58:53Z</time>
      </trkpt>
      <trkpt lat="42.891285" lon="-7.9702353">
        <time>2022-07-14T06:58:58Z</time>
      </trkpt>
      <trkpt lat="42.891327" lon="-7.970281">
        <time>2022-07-14T06:59:02Z</time>
      </trkpt>
      <trkpt lat="42.891365" lon="-7.9703355">
        <time>2022-07-14T06:59:07Z</time>
      </trkpt>
      <trkpt lat="42.8914" lon="-7.970387">
        <time>2022-07-14T06:59:11Z</time>
      </trkpt>
      <trkpt lat="42.89144" lon="-7.9704423">
        <time>2022-07-14T06:59:16Z</time>
      </trkpt>
      <trkpt lat="42.89148" lon="-7.9704885">
        <time>2022-07-14T06:59:20Z</time>
      </trkpt>
      <trkpt lat="42.891518" lon="-7.970538">
        <time>2022-07-14T06:59:24Z</time>
      </trkpt>
      <trkpt lat="42.89156" lon="-7.9705925">
        <time>2022-07-14T06:59:28Z</time>
      </trkpt>
      <trkpt lat="42.891594" lon="-7.970645">
        <time>2022-07-14T06:59:32Z</time>
      </trkpt>
      <trkpt lat="42.89163" lon="-7.970699">
        <time>2022-07-14T06:59:36Z</time>
      </trkpt>
      <trkpt lat="42.89167" lon="-7.9707475">
        <time>2022-07-14T06:59:40Z</time>
      </trkpt>
      <trkpt lat="42.891712" lon="-7.970803">
        <time>2022-07-14T06:59:45Z</time>
      </trkpt>
      <trkpt lat="42.891758" lon="-7.970852">
        <time>2022-07-14T06:59:49Z</time>
      </trkpt>
      <trkpt lat="42.891796" lon="-7.970894">
        <time>2022-07-14T06:59:53Z</time>
      </trkpt>
      <trkpt lat="42.891838" lon="-7.9709544">
        <time>2022-07-14T06:59:58Z</time>
      </trkpt>
      <trkpt lat="42.89187" lon="-7.9710093">
        <time>2022-07-14T07:00:02Z</time>
      </trkpt>
      <trkpt lat="42.891907" lon="-7.971064">
        <time>2022-07-14T07:00:07Z</time>
      </trkpt>
      <trkpt lat="42.89195" lon="-7.971117">
        <time>2022-07-14T07:00:11Z</time>
      </trkpt>
      <trkpt lat="42.891987" lon="-7.971166">
        <time>2022-07-14T07:00:15Z</time>
      </trkpt>
      <trkpt lat="42.892036" lon="-7.9712243">
        <time>2022-07-14T07:00:20Z</time>
      </trkpt>
      <trkpt lat="42.892075" lon="-7.9712696">
        <time>2022-07-14T07:00:24Z</time>
      </trkpt>
      <trkpt lat="42.892117" lon="-7.971325">
        <time>2022-07-14T07:00:29Z</time>
      </trkpt>
      <trkpt lat="42.89216" lon="-7.9713764">
        <time>2022-07-14T07:00:33Z</time>
      </trkpt>
      <trkpt lat="42.8922" lon="-7.9714155">
        <time>2022-07-14T07:00:37Z</time>
      </trkpt>
      <trkpt lat="42.892242" lon="-7.9714513">
        <time>2022-07-14T07:00:41Z</time>
      </trkpt>
      <trkpt lat="42.892284" lon="-7.971498">
        <time>2022-07-14T07:00:46Z</time>
      </trkpt>
      <trkpt lat="42.892334" lon="-7.9715443">
        <time>2022-07-14T07:00:51Z</time>
      </trkpt>
      <trkpt lat="42.89238" lon="-7.971589">
        <time>2022-07-14T07:00:56Z</time>
      </trkpt>
      <trkpt lat="42.892418" lon="-7.9716296">
        <time>2022-07-14T07:01:00Z</time>
      </trkpt>
      <trkpt lat="42.892467" lon="-7.971675">
        <time>2022-07-14T07:01:05Z</time>
      </trkpt>
      <trkpt lat="42.89251" lon="-7.971731">
        <time>2022-07-14T07:01:10Z</time>
      </trkpt>
      <trkpt lat="42.892544" lon="-7.9717817">
        <time>2022-07-14T07:01:14Z</time>
      </trkpt>
      <trkpt lat="42.89258" lon="-7.9718323">
        <time>2022-07-14T07:01:19Z</time>
      </trkpt>
      <trkpt lat="42.892612" lon="-7.9718914">
        <time>2022-07-14T07:01:25Z</time>
      </trkpt>
      <trkpt lat="42.892673" lon="-7.9719467">
        <time>2022-07-14T07:03:07Z</time>
      </trkpt>
      <trkpt lat="42.89272" lon="-7.9720073">
        <time>2022-07-14T07:03:12Z</time>
      </trkpt>
      <trkpt lat="42.892757" lon="-7.9720564">
        <time>2022-07-14T07:03:16Z</time>
      </trkpt>
      <trkpt lat="42.89279" lon="-7.97213">
        <time>2022-07-14T07:03:22Z</time>
      </trkpt>
      <trkpt lat="42.892838" lon="-7.972185">
        <time>2022-07-14T07:03:27Z</time>
      </trkpt>
      <trkpt lat="42.89288" lon="-7.9722385">
        <time>2022-07-14T07:03:32Z</time>
      </trkpt>
      <trkpt lat="42.892918" lon="-7.972291">
        <time>2022-07-14T07:03:37Z</time>
      </trkpt>
      <trkpt lat="42.892952" lon="-7.9723377">
        <time>2022-07-14T07:03:41Z</time>
      </trkpt>
      <trkpt lat="42.892994" lon="-7.972393">
        <time>2022-07-14T07:03:46Z</time>
      </trkpt>
      <trkpt lat="42.893032" lon="-7.972437">
        <time>2022-07-14T07:03:51Z</time>
      </trkpt>
      <trkpt lat="42.893066" lon="-7.9724994">
        <time>2022-07-14T07:03:56Z</time>
      </trkpt>
      <trkpt lat="42.893105" lon="-7.9725633">
        <time>2022-07-14T07:04:01Z</time>
      </trkpt>
      <trkpt lat="42.893147" lon="-7.9726267">
        <time>2022-07-14T07:04:06Z</time>
      </trkpt>
      <trkpt lat="42.89319" lon="-7.9726872">
        <time>2022-07-14T07:04:11Z</time>
      </trkpt>
      <trkpt lat="42.89322" lon="-7.972741">
        <time>2022-07-14T07:04:15Z</time>
      </trkpt>
      <trkpt lat="42.893253" lon="-7.972797">
        <time>2022-07-14T07:04:19Z</time>
      </trkpt>
      <trkpt lat="42.893288" lon="-7.9728556">
        <time>2022-07-14T07:04:23Z</time>
      </trkpt>
      <trkpt lat="42.89332" lon="-7.9729095">
        <time>2022-07-14T07:04:27Z</time>
      </trkpt>
      <trkpt lat="42.89336" lon="-7.972981">
        <time>2022-07-14T07:04:32Z</time>
      </trkpt>
      <trkpt lat="42.893394" lon="-7.973025">
        <time>2022-07-14T07:04:36Z</time>
      </trkpt>
      <trkpt lat="42.893433" lon="-7.973088">
        <time>2022-07-14T07:04:41Z</time>
      </trkpt>
      <trkpt lat="42.893467" lon="-7.973149">
        <time>2022-07-14T07:04:45Z</time>
      </trkpt>
      <trkpt lat="42.893505" lon="-7.9732056">
        <time>2022-07-14T07:04:50Z</time>
      </trkpt>
      <trkpt lat="42.893547" lon="-7.973252">
        <time>2022-07-14T07:04:54Z</time>
      </trkpt>
      <trkpt lat="42.893597" lon="-7.9732943">
        <time>2022-07-14T07:04:58Z</time>
      </trkpt>
      <trkpt lat="42.893642" lon="-7.973317">
        <time>2022-07-14T07:05:02Z</time>
      </trkpt>
      <trkpt lat="42.8937" lon="-7.973311">
        <time>2022-07-14T07:05:06Z</time>
      </trkpt>
      <trkpt lat="42.893764" lon="-7.9733243">
        <time>2022-07-14T07:05:40Z</time>
      </trkpt>
      <trkpt lat="42.89381" lon="-7.973372">
        <time>2022-07-14T07:05:44Z</time>
      </trkpt>
      <trkpt lat="42.89384" lon="-7.9734273">
        <time>2022-07-14T07:05:48Z</time>
      </trkpt>
      <trkpt lat="42.893875" lon="-7.973489">
        <time>2022-07-14T07:05:52Z</time>
      </trkpt>
      <trkpt lat="42.89391" lon="-7.973552">
        <time>2022-07-14T07:05:56Z</time>
      </trkpt>
      <trkpt lat="42.89395" lon="-7.973619">
        <time>2022-07-14T07:06:00Z</time>
      </trkpt>
      <trkpt lat="42.893993" lon="-7.9736853">
        <time>2022-07-14T07:06:04Z</time>
      </trkpt>
      <trkpt lat="42.894024" lon="-7.9737487">
        <time>2022-07-14T07:06:08Z</time>
      </trkpt>
      <trkpt lat="42.89404" lon="-7.973811">
        <time>2022-07-14T07:06:12Z</time>
      </trkpt>
      <trkpt lat="42.894073" lon="-7.973891">
        <time>2022-07-14T07:06:17Z</time>
      </trkpt>
      <trkpt lat="42.8941" lon="-7.9739475">
        <time>2022-07-14T07:06:20Z</time>
      </trkpt>
      <trkpt lat="42.89414" lon="-7.974021">
        <time>2022-07-14T07:06:24Z</time>
      </trkpt>
      <trkpt lat="42.894165" lon="-7.974097">
        <time>2022-07-14T07:06:28Z</time>
      </trkpt>
      <trkpt lat="42.894184" lon="-7.974161">
        <time>2022-07-14T07:06:32Z</time>
      </trkpt>
      <trkpt lat="42.894207" lon="-7.9742417">
        <time>2022-07-14T07:06:37Z</time>
      </trkpt>
      <trkpt lat="42.894226" lon="-7.974323">
        <time>2022-07-14T07:06:41Z</time>
      </trkpt>
      <trkpt lat="42.894234" lon="-7.9743886">
        <time>2022-07-14T07:06:44Z</time>
      </trkpt>
      <trkpt lat="42.89423" lon="-7.9744654">
        <time>2022-07-14T07:06:48Z</time>
      </trkpt>
      <trkpt lat="42.89421" lon="-7.974539">
        <time>2022-07-14T07:06:53Z</time>
      </trkpt>
      <trkpt lat="42.89418" lon="-7.9746065">
        <time>2022-07-14T07:06:58Z</time>
      </trkpt>
      <trkpt lat="42.894142" lon="-7.97467">
        <time>2022-07-14T07:07:02Z</time>
      </trkpt>
      <trkpt lat="42.894104" lon="-7.974726">
        <time>2022-07-14T07:07:06Z</time>
      </trkpt>
      <trkpt lat="42.89407" lon="-7.9747853">
        <time>2022-07-14T07:07:10Z</time>
      </trkpt>
      <trkpt lat="42.894028" lon="-7.974849">
        <time>2022-07-14T07:07:15Z</time>
      </trkpt>
      <trkpt lat="42.893982" lon="-7.9749103">
        <time>2022-07-14T07:07:20Z</time>
      </trkpt>
      <trkpt lat="42.893948" lon="-7.9749684">
        <time>2022-07-14T07:07:24Z</time>
      </trkpt>
      <trkpt lat="42.893913" lon="-7.9750266">
        <time>2022-07-14T07:07:28Z</time>
      </trkpt>
      <trkpt lat="42.89388" lon="-7.975085">
        <time>2022-07-14T07:07:32Z</time>
      </trkpt>
      <trkpt lat="42.89385" lon="-7.9751396">
        <time>2022-07-14T07:07:36Z</time>
      </trkpt>
      <trkpt lat="42.893818" lon="-7.9752">
        <time>2022-07-14T07:07:40Z</time>
      </trkpt>
      <trkpt lat="42.893787" lon="-7.975266">
        <time>2022-07-14T07:07:44Z</time>
      </trkpt>
      <trkpt lat="42.893764" lon="-7.9753385">
        <time>2022-07-14T07:07:48Z</time>
      </trkpt>
      <trkpt lat="42.893738" lon="-7.9754124">
        <time>2022-07-14T07:07:52Z</time>
      </trkpt>
      <trkpt lat="42.89372" lon="-7.9754844">
        <time>2022-07-14T07:07:56Z</time>
      </trkpt>
      <trkpt lat="42.893696" lon="-7.975558">
        <time>2022-07-14T07:08:00Z</time>
      </trkpt>
      <trkpt lat="42.89367" lon="-7.9756284">
        <time>2022-07-14T07:08:04Z</time>
      </trkpt>
      <trkpt lat="42.893646" lon="-7.9756994">
        <time>2022-07-14T07:08:08Z</time>
      </trkpt>
      <trkpt lat="42.893623" lon="-7.975756">
        <time>2022-07-14T07:08:11Z</time>
      </trkpt>
      <trkpt lat="42.8936" lon="-7.9758296">
        <time>2022-07-14T07:08:15Z</time>
      </trkpt>
      <trkpt lat="42.89358" lon="-7.975894">
        <time>2022-07-14T07:08:18Z</time>
      </trkpt>
      <trkpt lat="42.893555" lon="-7.975999">
        <time>2022-07-14T07:08:23Z</time>
      </trkpt>
      <trkpt lat="42.89355" lon="-7.976082">
        <time>2022-07-14T07:08:27Z</time>
      </trkpt>
      <trkpt lat="42.893566" lon="-7.976158">
        <time>2022-07-14T07:08:31Z</time>
      </trkpt>
      <trkpt lat="42.893597" lon="-7.9762187">
        <time>2022-07-14T07:08:35Z</time>
      </trkpt>
      <trkpt lat="42.893635" lon="-7.9762707">
        <time>2022-07-14T07:08:39Z</time>
      </trkpt>
      <trkpt lat="42.893677" lon="-7.976323">
        <time>2022-07-14T07:08:43Z</time>
      </trkpt>
      <trkpt lat="42.893723" lon="-7.976377">
        <time>2022-07-14T07:08:47Z</time>
      </trkpt>
      <trkpt lat="42.893772" lon="-7.9764223">
        <time>2022-07-14T07:08:51Z</time>
      </trkpt>
      <trkpt lat="42.893818" lon="-7.976473">
        <time>2022-07-14T07:08:55Z</time>
      </trkpt>
      <trkpt lat="42.893856" lon="-7.976527">
        <time>2022-07-14T07:08:59Z</time>
      </trkpt>
      <trkpt lat="42.893898" lon="-7.976574">
        <time>2022-07-14T07:09:03Z</time>
      </trkpt>
      <trkpt lat="42.89394" lon="-7.9766216">
        <time>2022-07-14T07:09:07Z</time>
      </trkpt>
      <trkpt lat="42.89398" lon="-7.9766707">
        <time>2022-07-14T07:09:11Z</time>
      </trkpt>
      <trkpt lat="42.89402" lon="-7.976717">
        <time>2022-07-14T07:09:15Z</time>
      </trkpt>
      <trkpt lat="42.894062" lon="-7.9767623">
        <time>2022-07-14T07:09:19Z</time>
      </trkpt>
      <trkpt lat="42.894104" lon="-7.9768105">
        <time>2022-07-14T07:09:23Z</time>
      </trkpt>
      <trkpt lat="42.894146" lon="-7.976861">
        <time>2022-07-14T07:09:27Z</time>
      </trkpt>
      <trkpt lat="42.894184" lon="-7.9769096">
        <time>2022-07-14T07:09:31Z</time>
      </trkpt>
      <trkpt lat="42.894222" lon="-7.9769564">
        <time>2022-07-14T07:09:35Z</time>
      </trkpt>
      <trkpt lat="42.894264" lon="-7.9769983">
        <time>2022-07-14T07:09:39Z</time>
      </trkpt>
      <trkpt lat="42.89431" lon="-7.9770546">
        <time>2022-07-14T07:09:44Z</time>
      </trkpt>
      <trkpt lat="42.89436" lon="-7.977111">
        <time>2022-07-14T07:09:49Z</time>
      </trkpt>
      <trkpt lat="42.8944" lon="-7.9771605">
        <time>2022-07-14T07:09:53Z</time>
      </trkpt>
      <trkpt lat="42.894444" lon="-7.977207">
        <time>2022-07-14T07:09:57Z</time>
      </trkpt>
      <trkpt lat="42.894485" lon="-7.977255">
        <time>2022-07-14T07:10:01Z</time>
      </trkpt>
      <trkpt lat="42.89453" lon="-7.9773054">
        <time>2022-07-14T07:10:05Z</time>
      </trkpt>
      <trkpt lat="42.894573" lon="-7.977362">
        <time>2022-07-14T07:10:09Z</time>
      </trkpt>
      <trkpt lat="42.894615" lon="-7.9774127">
        <time>2022-07-14T07:10:13Z</time>
      </trkpt>
      <trkpt lat="42.894653" lon="-7.9774613">
        <time>2022-07-14T07:10:17Z</time>
      </trkpt>
      <trkpt lat="42.894695" lon="-7.977512">
        <time>2022-07-14T07:10:21Z</time>
      </trkpt>
      <trkpt lat="42.894737" lon="-7.9775643">
        <time>2022-07-14T07:10:25Z</time>
      </trkpt>
      <trkpt lat="42.89478" lon="-7.9776225">
        <time>2022-07-14T07:10:29Z</time>
      </trkpt>
      <trkpt lat="42.894814" lon="-7.97767">
        <time>2022-07-14T07:10:32Z</time>
      </trkpt>
      <trkpt lat="42.894867" lon="-7.9777207">
        <time>2022-07-14T07:10:36Z</time>
      </trkpt>
      <trkpt lat="42.8949" lon="-7.9777637">
        <time>2022-07-14T07:10:39Z</time>
      </trkpt>
      <trkpt lat="42.89494" lon="-7.977815">
        <time>2022-07-14T07:10:43Z</time>
      </trkpt>
      <trkpt lat="42.89498" lon="-7.977869">
        <time>2022-07-14T07:10:48Z</time>
      </trkpt>
      <trkpt lat="42.895016" lon="-7.977911">
        <time>2022-07-14T07:10:52Z</time>
      </trkpt>
      <trkpt lat="42.895065" lon="-7.9779687">
        <time>2022-07-14T07:10:57Z</time>
      </trkpt>
      <trkpt lat="42.89511" lon="-7.9780173">
        <time>2022-07-14T07:11:01Z</time>
      </trkpt>
      <trkpt lat="42.895153" lon="-7.9780564">
        <time>2022-07-14T07:11:05Z</time>
      </trkpt>
      <trkpt lat="42.895206" lon="-7.978108">
        <time>2022-07-14T07:11:10Z</time>
      </trkpt>
      <trkpt lat="42.89525" lon="-7.9781594">
        <time>2022-07-14T07:11:14Z</time>
      </trkpt>
      <trkpt lat="42.895298" lon="-7.9782095">
        <time>2022-07-14T07:11:18Z</time>
      </trkpt>
      <trkpt lat="42.89534" lon="-7.97826">
        <time>2022-07-14T07:11:22Z</time>
      </trkpt>
      <trkpt lat="42.895386" lon="-7.978298">
        <time>2022-07-14T07:11:26Z</time>
      </trkpt>
      <trkpt lat="42.895428" lon="-7.9783335">
        <time>2022-07-14T07:11:30Z</time>
      </trkpt>
      <trkpt lat="42.895473" lon="-7.978388">
        <time>2022-07-14T07:11:34Z</time>
      </trkpt>
      <trkpt lat="42.895508" lon="-7.978433">
        <time>2022-07-14T07:11:37Z</time>
      </trkpt>
      <trkpt lat="42.895554" lon="-7.978493">
        <time>2022-07-14T07:11:41Z</time>
      </trkpt>
      <trkpt lat="42.8956" lon="-7.9785414">
        <time>2022-07-14T07:11:45Z</time>
      </trkpt>
      <trkpt lat="42.89565" lon="-7.978586">
        <time>2022-07-14T07:11:50Z</time>
      </trkpt>
      <trkpt lat="42.895695" lon="-7.978623">
        <time>2022-07-14T07:11:54Z</time>
      </trkpt>
      <trkpt lat="42.895744" lon="-7.9786754">
        <time>2022-07-14T07:11:58Z</time>
      </trkpt>
      <trkpt lat="42.895794" lon="-7.978724">
        <time>2022-07-14T07:12:02Z</time>
      </trkpt>
      <trkpt lat="42.89584" lon="-7.978769">
        <time>2022-07-14T07:12:06Z</time>
      </trkpt>
      <trkpt lat="42.895885" lon="-7.978809">
        <time>2022-07-14T07:12:10Z</time>
      </trkpt>
      <trkpt lat="42.89593" lon="-7.9788523">
        <time>2022-07-14T07:12:14Z</time>
      </trkpt>
      <trkpt lat="42.89597" lon="-7.978891">
        <time>2022-07-14T07:12:17Z</time>
      </trkpt>
      <trkpt lat="42.896015" lon="-7.9789414">
        <time>2022-07-14T07:12:21Z</time>
      </trkpt>
      <trkpt lat="42.896053" lon="-7.9789944">
        <time>2022-07-14T07:12:25Z</time>
      </trkpt>
      <trkpt lat="42.8961" lon="-7.9790535">
        <time>2022-07-14T07:12:30Z</time>
      </trkpt>
      <trkpt lat="42.89614" lon="-7.979112">
        <time>2022-07-14T07:12:34Z</time>
      </trkpt>
      <trkpt lat="42.896175" lon="-7.979159">
        <time>2022-07-14T07:12:37Z</time>
      </trkpt>
      <trkpt lat="42.89622" lon="-7.979213">
        <time>2022-07-14T07:12:41Z</time>
      </trkpt>
      <trkpt lat="42.89626" lon="-7.979262">
        <time>2022-07-14T07:12:45Z</time>
      </trkpt>
      <trkpt lat="42.89631" lon="-7.9793196">
        <time>2022-07-14T07:12:50Z</time>
      </trkpt>
      <trkpt lat="42.89635" lon="-7.979373">
        <time>2022-07-14T07:12:54Z</time>
      </trkpt>
      <trkpt lat="42.896397" lon="-7.9794335">
        <time>2022-07-14T07:12:58Z</time>
      </trkpt>
      <trkpt lat="42.896435" lon="-7.979479">
        <time>2022-07-14T07:13:02Z</time>
      </trkpt>
      <trkpt lat="42.896477" lon="-7.9795256">
        <time>2022-07-14T07:13:07Z</time>
      </trkpt>
      <trkpt lat="42.89652" lon="-7.9795938">
        <time>2022-07-14T07:13:12Z</time>
      </trkpt>
      <trkpt lat="42.89656" lon="-7.979656">
        <time>2022-07-14T07:13:16Z</time>
      </trkpt>
      <trkpt lat="42.896603" lon="-7.979712">
        <time>2022-07-14T07:13:20Z</time>
      </trkpt>
      <trkpt lat="42.896645" lon="-7.979766">
        <time>2022-07-14T07:13:25Z</time>
      </trkpt>
      <trkpt lat="42.896675" lon="-7.979815">
        <time>2022-07-14T07:13:29Z</time>
      </trkpt>
      <trkpt lat="42.89673" lon="-7.979877">
        <time>2022-07-14T07:13:34Z</time>
      </trkpt>
      <trkpt lat="42.89678" lon="-7.979934">
        <time>2022-07-14T07:13:38Z</time>
      </trkpt>
      <trkpt lat="42.896816" lon="-7.979976">
        <time>2022-07-14T07:13:41Z</time>
      </trkpt>
      <trkpt lat="42.896866" lon="-7.980022">
        <time>2022-07-14T07:13:45Z</time>
      </trkpt>
      <trkpt lat="42.89691" lon="-7.9800715">
        <time>2022-07-14T07:13:50Z</time>
      </trkpt>
      <trkpt lat="42.89695" lon="-7.9801145">
        <time>2022-07-14T07:13:54Z</time>
      </trkpt>
      <trkpt lat="42.896996" lon="-7.9801645">
        <time>2022-07-14T07:13:58Z</time>
      </trkpt>
      <trkpt lat="42.897038" lon="-7.980204">
        <time>2022-07-14T07:14:01Z</time>
      </trkpt>
      <trkpt lat="42.89709" lon="-7.980253">
        <time>2022-07-14T07:14:05Z</time>
      </trkpt>
      <trkpt lat="42.89714" lon="-7.980298">
        <time>2022-07-14T07:14:09Z</time>
      </trkpt>
      <trkpt lat="42.89718" lon="-7.980346">
        <time>2022-07-14T07:14:13Z</time>
      </trkpt>
      <trkpt lat="42.89722" lon="-7.980399">
        <time>2022-07-14T07:14:18Z</time>
      </trkpt>
      <trkpt lat="42.89727" lon="-7.9804373">
        <time>2022-07-14T07:14:22Z</time>
      </trkpt>
      <trkpt lat="42.897327" lon="-7.980483">
        <time>2022-07-14T07:14:26Z</time>
      </trkpt>
      <trkpt lat="42.897373" lon="-7.980519">
        <time>2022-07-14T07:14:29Z</time>
      </trkpt>
      <trkpt lat="42.897415" lon="-7.980555">
        <time>2022-07-14T07:14:32Z</time>
      </trkpt>
      <trkpt lat="42.89747" lon="-7.9805984">
        <time>2022-07-14T07:14:36Z</time>
      </trkpt>
      <trkpt lat="42.89751" lon="-7.9806366">
        <time>2022-07-14T07:14:40Z</time>
      </trkpt>
      <trkpt lat="42.897552" lon="-7.9806767">
        <time>2022-07-14T07:14:44Z</time>
      </trkpt>
      <trkpt lat="42.897594" lon="-7.980742">
        <time>2022-07-14T07:14:49Z</time>
      </trkpt>
      <trkpt lat="42.897636" lon="-7.9807982">
        <time>2022-07-14T07:14:53Z</time>
      </trkpt>
      <trkpt lat="42.897675" lon="-7.9808664">
        <time>2022-07-14T07:14:57Z</time>
      </trkpt>
      <trkpt lat="42.897717" lon="-7.9809384">
        <time>2022-07-14T07:15:01Z</time>
      </trkpt>
      <trkpt lat="42.897743" lon="-7.9809914">
        <time>2022-07-14T07:15:04Z</time>
      </trkpt>
      <trkpt lat="42.897778" lon="-7.981057">
        <time>2022-07-14T07:15:08Z</time>
      </trkpt>
      <trkpt lat="42.89782" lon="-7.981137">
        <time>2022-07-14T07:15:14Z</time>
      </trkpt>
      <trkpt lat="42.897846" lon="-7.9812045">
        <time>2022-07-14T07:15:18Z</time>
      </trkpt>
      <trkpt lat="42.897877" lon="-7.981279">
        <time>2022-07-14T07:15:22Z</time>
      </trkpt>
      <trkpt lat="42.897923" lon="-7.981364">
        <time>2022-07-14T07:15:27Z</time>
      </trkpt>
      <trkpt lat="42.897957" lon="-7.981424">
        <time>2022-07-14T07:15:31Z</time>
      </trkpt>
      <trkpt lat="42.897995" lon="-7.981482">
        <time>2022-07-14T07:15:36Z</time>
      </trkpt>
      <trkpt lat="42.898026" lon="-7.9815416">
        <time>2022-07-14T07:15:40Z</time>
      </trkpt>
      <trkpt lat="42.898056" lon="-7.981609">
        <time>2022-07-14T07:15:44Z</time>
      </trkpt>
      <trkpt lat="42.898083" lon="-7.981682">
        <time>2022-07-14T07:15:49Z</time>
      </trkpt>
      <trkpt lat="42.898125" lon="-7.981744">
        <time>2022-07-14T07:15:55Z</time>
      </trkpt>
      <trkpt lat="42.898167" lon="-7.981813">
        <time>2022-07-14T07:15:59Z</time>
      </trkpt>
      <trkpt lat="42.89819" lon="-7.9818683">
        <time>2022-07-14T07:16:02Z</time>
      </trkpt>
      <trkpt lat="42.898224" lon="-7.9819384">
        <time>2022-07-14T07:16:06Z</time>
      </trkpt>
      <trkpt lat="42.898247" lon="-7.982005">
        <time>2022-07-14T07:16:11Z</time>
      </trkpt>
      <trkpt lat="42.898273" lon="-7.9820805">
        <time>2022-07-14T07:16:16Z</time>
      </trkpt>
      <trkpt lat="42.898304" lon="-7.982151">
        <time>2022-07-14T07:16:20Z</time>
      </trkpt>
      <trkpt lat="42.898327" lon="-7.982218">
        <time>2022-07-14T07:16:24Z</time>
      </trkpt>
      <trkpt lat="42.89835" lon="-7.982275">
        <time>2022-07-14T07:16:28Z</time>
      </trkpt>
      <trkpt lat="42.89838" lon="-7.982359">
        <time>2022-07-14T07:16:33Z</time>
      </trkpt>
      <trkpt lat="42.898403" lon="-7.9824367">
        <time>2022-07-14T07:16:37Z</time>
      </trkpt>
      <trkpt lat="42.898426" lon="-7.982496">
        <time>2022-07-14T07:16:41Z</time>
      </trkpt>
      <trkpt lat="42.89846" lon="-7.982567">
        <time>2022-07-14T07:16:46Z</time>
      </trkpt>
      <trkpt lat="42.898495" lon="-7.982617">
        <time>2022-07-14T07:16:50Z</time>
      </trkpt>
      <trkpt lat="42.898533" lon="-7.9826865">
        <time>2022-07-14T07:16:56Z</time>
      </trkpt>
      <trkpt lat="42.898563" lon="-7.98275">
        <time>2022-07-14T07:17:00Z</time>
      </trkpt>
      <trkpt lat="42.89861" lon="-7.982815">
        <time>2022-07-14T07:17:04Z</time>
      </trkpt>
      <trkpt lat="42.89864" lon="-7.9828715">
        <time>2022-07-14T07:17:08Z</time>
      </trkpt>
      <trkpt lat="42.89868" lon="-7.982953">
        <time>2022-07-14T07:17:14Z</time>
      </trkpt>
      <trkpt lat="42.898716" lon="-7.983029">
        <time>2022-07-14T07:17:18Z</time>
      </trkpt>
      <trkpt lat="42.898746" lon="-7.983082">
        <time>2022-07-14T07:17:21Z</time>
      </trkpt>
      <trkpt lat="42.89879" lon="-7.983141">
        <time>2022-07-14T07:17:25Z</time>
      </trkpt>
      <trkpt lat="42.89882" lon="-7.9832006">
        <time>2022-07-14T07:17:30Z</time>
      </trkpt>
      <trkpt lat="42.89887" lon="-7.983271">
        <time>2022-07-14T07:17:35Z</time>
      </trkpt>
      <trkpt lat="42.898903" lon="-7.9833374">
        <time>2022-07-14T07:17:39Z</time>
      </trkpt>
      <trkpt lat="42.898933" lon="-7.983393">
        <time>2022-07-14T07:17:43Z</time>
      </trkpt>
      <trkpt lat="42.898964" lon="-7.9834642">
        <time>2022-07-14T07:17:48Z</time>
      </trkpt>
      <trkpt lat="42.899002" lon="-7.983532">
        <time>2022-07-14T07:17:52Z</time>
      </trkpt>
      <trkpt lat="42.899033" lon="-7.983601">
        <time>2022-07-14T07:17:56Z</time>
      </trkpt>
      <trkpt lat="42.899055" lon="-7.9836626">
        <time>2022-07-14T07:18:00Z</time>
      </trkpt>
      <trkpt lat="42.899086" lon="-7.9837327">
        <time>2022-07-14T07:18:05Z</time>
      </trkpt>
      <trkpt lat="42.89912" lon="-7.983795">
        <time>2022-07-14T07:18:09Z</time>
      </trkpt>
      <trkpt lat="42.89915" lon="-7.98386">
        <time>2022-07-14T07:18:13Z</time>
      </trkpt>
      <trkpt lat="42.899178" lon="-7.983909">
        <time>2022-07-14T07:18:17Z</time>
      </trkpt>
      <trkpt lat="42.89921" lon="-7.983975">
        <time>2022-07-14T07:18:22Z</time>
      </trkpt>
      <trkpt lat="42.89925" lon="-7.9840455">
        <time>2022-07-14T07:18:26Z</time>
      </trkpt>
      <trkpt lat="42.899284" lon="-7.984111">
        <time>2022-07-14T07:18:30Z</time>
      </trkpt>
      <trkpt lat="42.89931" lon="-7.984179">
        <time>2022-07-14T07:18:35Z</time>
      </trkpt>
      <trkpt lat="42.89934" lon="-7.9842396">
        <time>2022-07-14T07:18:39Z</time>
      </trkpt>
      <trkpt lat="42.899376" lon="-7.984308">
        <time>2022-07-14T07:18:43Z</time>
      </trkpt>
      <trkpt lat="42.89941" lon="-7.984373">
        <time>2022-07-14T07:18:47Z</time>
      </trkpt>
      <trkpt lat="42.899437" lon="-7.984426">
        <time>2022-07-14T07:18:51Z</time>
      </trkpt>
      <trkpt lat="42.899475" lon="-7.984499">
        <time>2022-07-14T07:18:56Z</time>
      </trkpt>
      <trkpt lat="42.899513" lon="-7.9845614">
        <time>2022-07-14T07:19:00Z</time>
      </trkpt>
      <trkpt lat="42.89955" lon="-7.984623">
        <time>2022-07-14T07:19:05Z</time>
      </trkpt>
      <trkpt lat="42.899582" lon="-7.984676">
        <time>2022-07-14T07:19:09Z</time>
      </trkpt>
      <trkpt lat="42.899616" lon="-7.9847445">
        <time>2022-07-14T07:19:13Z</time>
      </trkpt>
      <trkpt lat="42.89964" lon="-7.984802">
        <time>2022-07-14T07:19:17Z</time>
      </trkpt>
      <trkpt lat="42.899677" lon="-7.984868">
        <time>2022-07-14T07:19:22Z</time>
      </trkpt>
      <trkpt lat="42.899708" lon="-7.984929">
        <time>2022-07-14T07:19:26Z</time>
      </trkpt>
      <trkpt lat="42.89973" lon="-7.985">
        <time>2022-07-14T07:19:31Z</time>
      </trkpt>
      <trkpt lat="42.899765" lon="-7.985073">
        <time>2022-07-14T07:19:36Z</time>
      </trkpt>
      <trkpt lat="42.8998" lon="-7.9851274">
        <time>2022-07-14T07:19:39Z</time>
      </trkpt>
      <trkpt lat="42.899837" lon="-7.985192">
        <time>2022-07-14T07:19:43Z</time>
      </trkpt>
      <trkpt lat="42.89987" lon="-7.9852514">
        <time>2022-07-14T07:19:47Z</time>
      </trkpt>
      <trkpt lat="42.8999" lon="-7.9853077">
        <time>2022-07-14T07:19:51Z</time>
      </trkpt>
      <trkpt lat="42.899937" lon="-7.9853826">
        <time>2022-07-14T07:19:56Z</time>
      </trkpt>
      <trkpt lat="42.899963" lon="-7.985436">
        <time>2022-07-14T07:20:00Z</time>
      </trkpt>
      <trkpt lat="42.899998" lon="-7.985501">
        <time>2022-07-14T07:20:05Z</time>
      </trkpt>
      <trkpt lat="42.900032" lon="-7.985561">
        <time>2022-07-14T07:20:09Z</time>
      </trkpt>
      <trkpt lat="42.900066" lon="-7.985618">
        <time>2022-07-14T07:20:13Z</time>
      </trkpt>
      <trkpt lat="42.900097" lon="-7.9856706">
        <time>2022-07-14T07:20:17Z</time>
      </trkpt>
      <trkpt lat="42.900124" lon="-7.985738">
        <time>2022-07-14T07:20:21Z</time>
      </trkpt>
      <trkpt lat="42.90015" lon="-7.9858027">
        <time>2022-07-14T07:20:25Z</time>
      </trkpt>
      <trkpt lat="42.90018" lon="-7.9858594">
        <time>2022-07-14T07:20:29Z</time>
      </trkpt>
      <trkpt lat="42.90021" lon="-7.9859147">
        <time>2022-07-14T07:20:33Z</time>
      </trkpt>
      <trkpt lat="42.90025" lon="-7.985981">
        <time>2022-07-14T07:20:37Z</time>
      </trkpt>
      <trkpt lat="42.90028" lon="-7.986042">
        <time>2022-07-14T07:20:41Z</time>
      </trkpt>
      <trkpt lat="42.90032" lon="-7.986099">
        <time>2022-07-14T07:20:46Z</time>
      </trkpt>
      <trkpt lat="42.900364" lon="-7.986142">
        <time>2022-07-14T07:20:50Z</time>
      </trkpt>
      <trkpt lat="42.900417" lon="-7.9861894">
        <time>2022-07-14T07:20:54Z</time>
      </trkpt>
      <trkpt lat="42.900463" lon="-7.9862204">
        <time>2022-07-14T07:20:58Z</time>
      </trkpt>
      <trkpt lat="42.90051" lon="-7.986251">
        <time>2022-07-14T07:21:02Z</time>
      </trkpt>
      <trkpt lat="42.900562" lon="-7.9862933">
        <time>2022-07-14T07:21:06Z</time>
      </trkpt>
      <trkpt lat="42.90061" lon="-7.9863386">
        <time>2022-07-14T07:21:10Z</time>
      </trkpt>
      <trkpt lat="42.90065" lon="-7.9863877">
        <time>2022-07-14T07:21:14Z</time>
      </trkpt>
      <trkpt lat="42.90069" lon="-7.986439">
        <time>2022-07-14T07:21:18Z</time>
      </trkpt>
      <trkpt lat="42.900723" lon="-7.9865003">
        <time>2022-07-14T07:21:22Z</time>
      </trkpt>
      <trkpt lat="42.900745" lon="-7.986551">
        <time>2022-07-14T07:21:26Z</time>
      </trkpt>
      <trkpt lat="42.90078" lon="-7.986616">
        <time>2022-07-14T07:21:31Z</time>
      </trkpt>
      <trkpt lat="42.900818" lon="-7.9866753">
        <time>2022-07-14T07:21:35Z</time>
      </trkpt>
      <trkpt lat="42.90084" lon="-7.986729">
        <time>2022-07-14T07:21:39Z</time>
      </trkpt>
      <trkpt lat="42.900867" lon="-7.986804">
        <time>2022-07-14T07:21:44Z</time>
      </trkpt>
      <trkpt lat="42.900894" lon="-7.986873">
        <time>2022-07-14T07:21:48Z</time>
      </trkpt>
      <trkpt lat="42.90093" lon="-7.986922">
        <time>2022-07-14T07:21:51Z</time>
      </trkpt>
      <trkpt lat="42.900967" lon="-7.9869695">
        <time>2022-07-14T07:21:55Z</time>
      </trkpt>
      <trkpt lat="42.901" lon="-7.9870296">
        <time>2022-07-14T07:22:00Z</time>
      </trkpt>
      <trkpt lat="42.901035" lon="-7.987092">
        <time>2022-07-14T07:22:04Z</time>
      </trkpt>
      <trkpt lat="42.901077" lon="-7.987153">
        <time>2022-07-14T07:22:08Z</time>
      </trkpt>
      <trkpt lat="42.901115" lon="-7.9872155">
        <time>2022-07-14T07:22:12Z</time>
      </trkpt>
      <trkpt lat="42.901142" lon="-7.987274">
        <time>2022-07-14T07:22:16Z</time>
      </trkpt>
      <trkpt lat="42.901173" lon="-7.987342">
        <time>2022-07-14T07:22:21Z</time>
      </trkpt>
      <trkpt lat="42.90121" lon="-7.9873986">
        <time>2022-07-14T07:22:25Z</time>
      </trkpt>
      <trkpt lat="42.901257" lon="-7.987456">
        <time>2022-07-14T07:22:29Z</time>
      </trkpt>
      <trkpt lat="42.90129" lon="-7.9875135">
        <time>2022-07-14T07:22:33Z</time>
      </trkpt>
      <trkpt lat="42.901314" lon="-7.98757">
        <time>2022-07-14T07:22:37Z</time>
      </trkpt>
      <trkpt lat="42.90135" lon="-7.9876337">
        <time>2022-07-14T07:22:42Z</time>
      </trkpt>
      <trkpt lat="42.90138" lon="-7.9876986">
        <time>2022-07-14T07:22:46Z</time>
      </trkpt>
      <trkpt lat="42.90141" lon="-7.987767">
        <time>2022-07-14T07:22:50Z</time>
      </trkpt>
      <trkpt lat="42.901432" lon="-7.9878345">
        <time>2022-07-14T07:22:54Z</time>
      </trkpt>
      <trkpt lat="42.901455" lon="-7.9878945">
        <time>2022-07-14T07:22:58Z</time>
      </trkpt>
      <trkpt lat="42.90149" lon="-7.9879627">
        <time>2022-07-14T07:23:03Z</time>
      </trkpt>
      <trkpt lat="42.901527" lon="-7.988026">
        <time>2022-07-14T07:23:07Z</time>
      </trkpt>
      <trkpt lat="42.901566" lon="-7.988104">
        <time>2022-07-14T07:23:11Z</time>
      </trkpt>
      <trkpt lat="42.901592" lon="-7.988153">
        <time>2022-07-14T07:23:14Z</time>
      </trkpt>
      <trkpt lat="42.901623" lon="-7.988209">
        <time>2022-07-14T07:23:18Z</time>
      </trkpt>
      <trkpt lat="42.901657" lon="-7.988276">
        <time>2022-07-14T07:23:23Z</time>
      </trkpt>
      <trkpt lat="42.901684" lon="-7.988336">
        <time>2022-07-14T07:23:27Z</time>
      </trkpt>
      <trkpt lat="42.901722" lon="-7.9884005">
        <time>2022-07-14T07:23:31Z</time>
      </trkpt>
      <trkpt lat="42.90175" lon="-7.9884667">
        <time>2022-07-14T07:23:35Z</time>
      </trkpt>
      <trkpt lat="42.90178" lon="-7.988536">
        <time>2022-07-14T07:23:40Z</time>
      </trkpt>
      <trkpt lat="42.90181" lon="-7.988593">
        <time>2022-07-14T07:23:44Z</time>
      </trkpt>
      <trkpt lat="42.901848" lon="-7.988672">
        <time>2022-07-14T07:23:49Z</time>
      </trkpt>
      <trkpt lat="42.901882" lon="-7.988743">
        <time>2022-07-14T07:23:53Z</time>
      </trkpt>
      <trkpt lat="42.901917" lon="-7.988811">
        <time>2022-07-14T07:23:57Z</time>
      </trkpt>
      <trkpt lat="42.901947" lon="-7.9888735">
        <time>2022-07-14T07:24:01Z</time>
      </trkpt>
      <trkpt lat="42.90197" lon="-7.9889307">
        <time>2022-07-14T07:24:05Z</time>
      </trkpt>
      <trkpt lat="42.902" lon="-7.9890065">
        <time>2022-07-14T07:24:10Z</time>
      </trkpt>
      <trkpt lat="42.902027" lon="-7.9890747">
        <time>2022-07-14T07:24:14Z</time>
      </trkpt>
      <trkpt lat="42.90207" lon="-7.989148">
        <time>2022-07-14T07:24:18Z</time>
      </trkpt>
      <trkpt lat="42.902103" lon="-7.989209">
        <time>2022-07-14T07:24:22Z</time>
      </trkpt>
      <trkpt lat="42.90214" lon="-7.989272">
        <time>2022-07-14T07:24:26Z</time>
      </trkpt>
      <trkpt lat="42.90218" lon="-7.9893146">
        <time>2022-07-14T07:24:29Z</time>
      </trkpt>
      <trkpt lat="42.90221" lon="-7.989386">
        <time>2022-07-14T07:24:33Z</time>
      </trkpt>
      <trkpt lat="42.90223" lon="-7.9894624">
        <time>2022-07-14T07:24:38Z</time>
      </trkpt>
      <trkpt lat="42.902264" lon="-7.989541">
        <time>2022-07-14T07:24:43Z</time>
      </trkpt>
      <trkpt lat="42.902294" lon="-7.9895945">
        <time>2022-07-14T07:24:47Z</time>
      </trkpt>
      <trkpt lat="42.90233" lon="-7.9896536">
        <time>2022-07-14T07:24:51Z</time>
      </trkpt>
      <trkpt lat="42.90236" lon="-7.9897275">
        <time>2022-07-14T07:24:56Z</time>
      </trkpt>
      <trkpt lat="42.90241" lon="-7.9897976">
        <time>2022-07-14T07:25:01Z</time>
      </trkpt>
      <trkpt lat="42.902443" lon="-7.989862">
        <time>2022-07-14T07:25:05Z</time>
      </trkpt>
      <trkpt lat="42.902477" lon="-7.98992">
        <time>2022-07-14T07:25:09Z</time>
      </trkpt>
      <trkpt lat="42.902515" lon="-7.9899797">
        <time>2022-07-14T07:25:14Z</time>
      </trkpt>
      <trkpt lat="42.902554" lon="-7.9900484">
        <time>2022-07-14T07:25:19Z</time>
      </trkpt>
      <trkpt lat="42.902584" lon="-7.9901323">
        <time>2022-07-14T07:25:23Z</time>
      </trkpt>
      <trkpt lat="42.90261" lon="-7.9902043">
        <time>2022-07-14T07:25:27Z</time>
      </trkpt>
      <trkpt lat="42.902637" lon="-7.990265">
        <time>2022-07-14T07:25:31Z</time>
      </trkpt>
      <trkpt lat="42.902664" lon="-7.990338">
        <time>2022-07-14T07:25:36Z</time>
      </trkpt>
      <trkpt lat="42.902687" lon="-7.9903994">
        <time>2022-07-14T07:25:40Z</time>
      </trkpt>
      <trkpt lat="42.902706" lon="-7.990474">
        <time>2022-07-14T07:25:44Z</time>
      </trkpt>
      <trkpt lat="42.902718" lon="-7.9905477">
        <time>2022-07-14T07:25:48Z</time>
      </trkpt>
      <trkpt lat="42.902725" lon="-7.9906254">
        <time>2022-07-14T07:25:52Z</time>
      </trkpt>
      <trkpt lat="42.902737" lon="-7.9907103">
        <time>2022-07-14T07:25:56Z</time>
      </trkpt>
      <trkpt lat="42.902752" lon="-7.990784">
        <time>2022-07-14T07:26:00Z</time>
      </trkpt>
      <trkpt lat="42.90276" lon="-7.9908514">
        <time>2022-07-14T07:26:04Z</time>
      </trkpt>
      <trkpt lat="42.90276" lon="-7.990921">
        <time>2022-07-14T07:26:08Z</time>
      </trkpt>
      <trkpt lat="42.90275" lon="-7.9909954">
        <time>2022-07-14T07:26:13Z</time>
      </trkpt>
      <trkpt lat="42.902725" lon="-7.9910564">
        <time>2022-07-14T07:26:17Z</time>
      </trkpt>
      <trkpt lat="42.902714" lon="-7.9911313">
        <time>2022-07-14T07:26:21Z</time>
      </trkpt>
      <trkpt lat="42.902714" lon="-7.991209">
        <time>2022-07-14T07:26:25Z</time>
      </trkpt>
      <trkpt lat="42.902733" lon="-7.9912815">
        <time>2022-07-14T07:26:29Z</time>
      </trkpt>
      <trkpt lat="42.902756" lon="-7.991355">
        <time>2022-07-14T07:26:33Z</time>
      </trkpt>
      <trkpt lat="42.902786" lon="-7.991423">
        <time>2022-07-14T07:26:37Z</time>
      </trkpt>
      <trkpt lat="42.90282" lon="-7.9914865">
        <time>2022-07-14T07:26:41Z</time>
      </trkpt>
      <trkpt lat="42.902847" lon="-7.991551">
        <time>2022-07-14T07:26:45Z</time>
      </trkpt>
      <trkpt lat="42.902866" lon="-7.9916115">
        <time>2022-07-14T07:26:49Z</time>
      </trkpt>
      <trkpt lat="42.902897" lon="-7.991686">
        <time>2022-07-14T07:26:54Z</time>
      </trkpt>
      <trkpt lat="42.90293" lon="-7.991753">
        <time>2022-07-14T07:26:59Z</time>
      </trkpt>
      <trkpt lat="42.90296" lon="-7.9918184">
        <time>2022-07-14T07:27:04Z</time>
      </trkpt>
      <trkpt lat="42.902992" lon="-7.9918823">
        <time>2022-07-14T07:27:09Z</time>
      </trkpt>
      <trkpt lat="42.903034" lon="-7.991954">
        <time>2022-07-14T07:27:14Z</time>
      </trkpt>
      <trkpt lat="42.90307" lon="-7.992017">
        <time>2022-07-14T07:27:18Z</time>
      </trkpt>
      <trkpt lat="42.903103" lon="-7.992088">
        <time>2022-07-14T07:27:22Z</time>
      </trkpt>
      <trkpt lat="42.903133" lon="-7.992153">
        <time>2022-07-14T07:27:26Z</time>
      </trkpt>
      <trkpt lat="42.903168" lon="-7.992215">
        <time>2022-07-14T07:27:30Z</time>
      </trkpt>
      <trkpt lat="42.903194" lon="-7.9922953">
        <time>2022-07-14T07:27:34Z</time>
      </trkpt>
      <trkpt lat="42.903217" lon="-7.992367">
        <time>2022-07-14T07:27:38Z</time>
      </trkpt>
      <trkpt lat="42.903255" lon="-7.9924216">
        <time>2022-07-14T07:27:42Z</time>
      </trkpt>
      <trkpt lat="42.903294" lon="-7.992473">
        <time>2022-07-14T07:27:46Z</time>
      </trkpt>
      <trkpt lat="42.903328" lon="-7.9925227">
        <time>2022-07-14T07:27:50Z</time>
      </trkpt>
      <trkpt lat="42.90337" lon="-7.9925714">
        <time>2022-07-14T07:27:54Z</time>
      </trkpt>
      <trkpt lat="42.903408" lon="-7.9926376">
        <time>2022-07-14T07:27:59Z</time>
      </trkpt>
      <trkpt lat="42.903446" lon="-7.9926996">
        <time>2022-07-14T07:28:04Z</time>
      </trkpt>
      <trkpt lat="42.90348" lon="-7.9927545">
        <time>2022-07-14T07:28:09Z</time>
      </trkpt>
      <trkpt lat="42.903515" lon="-7.992822">
        <time>2022-07-14T07:28:15Z</time>
      </trkpt>
      <trkpt lat="42.903553" lon="-7.992881">
        <time>2022-07-14T07:28:19Z</time>
      </trkpt>
      <trkpt lat="42.903584" lon="-7.992935">
        <time>2022-07-14T07:28:23Z</time>
      </trkpt>
      <trkpt lat="42.903618" lon="-7.993001">
        <time>2022-07-14T07:28:27Z</time>
      </trkpt>
      <trkpt lat="42.903645" lon="-7.9930744">
        <time>2022-07-14T07:28:31Z</time>
      </trkpt>
      <trkpt lat="42.90367" lon="-7.9931407">
        <time>2022-07-14T07:28:35Z</time>
      </trkpt>
      <trkpt lat="42.903698" lon="-7.9932137">
        <time>2022-07-14T07:28:39Z</time>
      </trkpt>
      <trkpt lat="42.90372" lon="-7.9932866">
        <time>2022-07-14T07:28:43Z</time>
      </trkpt>
      <trkpt lat="42.903744" lon="-7.993345">
        <time>2022-07-14T07:28:47Z</time>
      </trkpt>
      <trkpt lat="42.903774" lon="-7.993407">
        <time>2022-07-14T07:28:52Z</time>
      </trkpt>
      <trkpt lat="42.9038" lon="-7.9934855">
        <time>2022-07-14T07:28:57Z</time>
      </trkpt>
      <trkpt lat="42.903824" lon="-7.993546">
        <time>2022-07-14T07:29:01Z</time>
      </trkpt>
      <trkpt lat="42.903854" lon="-7.9936047">
        <time>2022-07-14T07:29:05Z</time>
      </trkpt>
      <trkpt lat="42.903873" lon="-7.9936743">
        <time>2022-07-14T07:29:09Z</time>
      </trkpt>
      <trkpt lat="42.903893" lon="-7.9937363">
        <time>2022-07-14T07:29:13Z</time>
      </trkpt>
      <trkpt lat="42.903923" lon="-7.9938">
        <time>2022-07-14T07:29:18Z</time>
      </trkpt>
      <trkpt lat="42.90395" lon="-7.993875">
        <time>2022-07-14T07:29:23Z</time>
      </trkpt>
      <trkpt lat="42.90397" lon="-7.993945">
        <time>2022-07-14T07:29:27Z</time>
      </trkpt>
      <trkpt lat="42.903984" lon="-7.994017">
        <time>2022-07-14T07:29:31Z</time>
      </trkpt>
      <trkpt lat="42.903996" lon="-7.99409">
        <time>2022-07-14T07:29:35Z</time>
      </trkpt>
      <trkpt lat="42.90402" lon="-7.9941483">
        <time>2022-07-14T07:29:39Z</time>
      </trkpt>
      <trkpt lat="42.90405" lon="-7.9942117">
        <time>2022-07-14T07:29:44Z</time>
      </trkpt>
      <trkpt lat="42.904087" lon="-7.994274">
        <time>2022-07-14T07:29:49Z</time>
      </trkpt>
      <trkpt lat="42.904114" lon="-7.9943237">
        <time>2022-07-14T07:29:53Z</time>
      </trkpt>
      <trkpt lat="42.90414" lon="-7.994394">
        <time>2022-07-14T07:29:59Z</time>
      </trkpt>
      <trkpt lat="42.90414" lon="-7.9944725">
        <time>2022-07-14T07:30:04Z</time>
      </trkpt>
      <trkpt lat="42.90414" lon="-7.994539">
        <time>2022-07-14T07:30:08Z</time>
      </trkpt>
      <trkpt lat="42.904144" lon="-7.9946146">
        <time>2022-07-14T07:30:12Z</time>
      </trkpt>
      <trkpt lat="42.90417" lon="-7.9946766">
        <time>2022-07-14T07:30:16Z</time>
      </trkpt>
      <trkpt lat="42.90421" lon="-7.994738">
        <time>2022-07-14T07:30:21Z</time>
      </trkpt>
      <trkpt lat="42.904243" lon="-7.9947906">
        <time>2022-07-14T07:30:26Z</time>
      </trkpt>
      <trkpt lat="42.904293" lon="-7.994847">
        <time>2022-07-14T07:30:32Z</time>
      </trkpt>
      <trkpt lat="42.90434" lon="-7.9949083">
        <time>2022-07-14T07:30:37Z</time>
      </trkpt>
      <trkpt lat="42.90438" lon="-7.9949627">
        <time>2022-07-14T07:30:42Z</time>
      </trkpt>
      <trkpt lat="42.90442" lon="-7.9950085">
        <time>2022-07-14T07:30:47Z</time>
      </trkpt>
      <trkpt lat="42.90446" lon="-7.995063">
        <time>2022-07-14T07:30:52Z</time>
      </trkpt>
      <trkpt lat="42.904503" lon="-7.9951205">
        <time>2022-07-14T07:30:56Z</time>
      </trkpt>
      <trkpt lat="42.904545" lon="-7.9951844">
        <time>2022-07-14T07:31:00Z</time>
      </trkpt>
      <trkpt lat="42.904587" lon="-7.995233">
        <time>2022-07-14T07:31:04Z</time>
      </trkpt>
      <trkpt lat="42.90463" lon="-7.9952917">
        <time>2022-07-14T07:31:07Z</time>
      </trkpt>
      <trkpt lat="42.90466" lon="-7.9953403">
        <time>2022-07-14T07:31:10Z</time>
      </trkpt>
      <trkpt lat="42.9047" lon="-7.9953766">
        <time>2022-07-14T07:31:14Z</time>
      </trkpt>
      <trkpt lat="42.904747" lon="-7.995421">
        <time>2022-07-14T07:31:19Z</time>
      </trkpt>
      <trkpt lat="42.904793" lon="-7.99546">
        <time>2022-07-14T07:31:23Z</time>
      </trkpt>
      <trkpt lat="42.90484" lon="-7.9954987">
        <time>2022-07-14T07:31:27Z</time>
      </trkpt>
      <trkpt lat="42.90488" lon="-7.9955378">
        <time>2022-07-14T07:31:31Z</time>
      </trkpt>
      <trkpt lat="42.904915" lon="-7.995584">
        <time>2022-07-14T07:31:35Z</time>
      </trkpt>
      <trkpt lat="42.90496" lon="-7.995636">
        <time>2022-07-14T07:31:40Z</time>
      </trkpt>
      <trkpt lat="42.905014" lon="-7.995676">
        <time>2022-07-14T07:31:45Z</time>
      </trkpt>
      <trkpt lat="42.905067" lon="-7.9957147">
        <time>2022-07-14T07:31:49Z</time>
      </trkpt>
      <trkpt lat="42.90511" lon="-7.99575">
        <time>2022-07-14T07:31:52Z</time>
      </trkpt>
      <trkpt lat="42.905148" lon="-7.995792">
        <time>2022-07-14T07:31:56Z</time>
      </trkpt>
      <trkpt lat="42.905193" lon="-7.9958453">
        <time>2022-07-14T07:32:02Z</time>
      </trkpt>
      <trkpt lat="42.905235" lon="-7.9958835">
        <time>2022-07-14T07:32:06Z</time>
      </trkpt>
      <trkpt lat="42.905277" lon="-7.995923">
        <time>2022-07-14T07:32:10Z</time>
      </trkpt>
      <trkpt lat="42.905334" lon="-7.99597">
        <time>2022-07-14T07:32:15Z</time>
      </trkpt>
      <trkpt lat="42.90538" lon="-7.996012">
        <time>2022-07-14T07:32:18Z</time>
      </trkpt>
      <trkpt lat="42.905426" lon="-7.9960465">
        <time>2022-07-14T07:32:21Z</time>
      </trkpt>
      <trkpt lat="42.905468" lon="-7.996097">
        <time>2022-07-14T07:32:26Z</time>
      </trkpt>
      <trkpt lat="42.905506" lon="-7.9961343">
        <time>2022-07-14T07:32:30Z</time>
      </trkpt>
      <trkpt lat="42.905556" lon="-7.99618">
        <time>2022-07-14T07:32:35Z</time>
      </trkpt>
      <trkpt lat="42.905605" lon="-7.9962034">
        <time>2022-07-14T07:32:39Z</time>
      </trkpt>
      <trkpt lat="42.905655" lon="-7.9962187">
        <time>2022-07-14T07:32:43Z</time>
      </trkpt>
      <trkpt lat="42.90572" lon="-7.9962363">
        <time>2022-07-14T07:32:47Z</time>
      </trkpt>
      <trkpt lat="42.905758" lon="-7.996253">
        <time>2022-07-14T07:32:50Z</time>
      </trkpt>
      <trkpt lat="42.90581" lon="-7.9962754">
        <time>2022-07-14T07:32:55Z</time>
      </trkpt>
      <trkpt lat="42.90586" lon="-7.996318">
        <time>2022-07-14T07:33:00Z</time>
      </trkpt>
      <trkpt lat="42.905914" lon="-7.9963403">
        <time>2022-07-14T07:33:04Z</time>
      </trkpt>
      <trkpt lat="42.90597" lon="-7.996366">
        <time>2022-07-14T07:33:09Z</time>
      </trkpt>
      <trkpt lat="42.906033" lon="-7.996405">
        <time>2022-07-14T07:33:14Z</time>
      </trkpt>
      <trkpt lat="42.90608" lon="-7.99646">
        <time>2022-07-14T07:33:19Z</time>
      </trkpt>
      <trkpt lat="42.90613" lon="-7.996517">
        <time>2022-07-14T07:33:23Z</time>
      </trkpt>
      <trkpt lat="42.906174" lon="-7.9965563">
        <time>2022-07-14T07:33:27Z</time>
      </trkpt>
      <trkpt lat="42.906227" lon="-7.996592">
        <time>2022-07-14T07:33:32Z</time>
      </trkpt>
      <trkpt lat="42.90627" lon="-7.996632">
        <time>2022-07-14T07:33:37Z</time>
      </trkpt>
      <trkpt lat="42.90632" lon="-7.99668">
        <time>2022-07-14T07:33:42Z</time>
      </trkpt>
      <trkpt lat="42.906372" lon="-7.9967012">
        <time>2022-07-14T07:33:45Z</time>
      </trkpt>
      <trkpt lat="42.906414" lon="-7.9967246">
        <time>2022-07-14T07:33:49Z</time>
      </trkpt>
      <trkpt lat="42.90647" lon="-7.996761">
        <time>2022-07-14T07:33:54Z</time>
      </trkpt>
      <trkpt lat="42.906517" lon="-7.996784">
        <time>2022-07-14T07:33:58Z</time>
      </trkpt>
      <trkpt lat="42.90657" lon="-7.9968004">
        <time>2022-07-14T07:34:04Z</time>
      </trkpt>
      <trkpt lat="42.906624" lon="-7.9968085">
        <time>2022-07-14T07:34:09Z</time>
      </trkpt>
      <trkpt lat="42.906693" lon="-7.9968076">
        <time>2022-07-14T07:34:14Z</time>
      </trkpt>
      <trkpt lat="42.906742" lon="-7.996787">
        <time>2022-07-14T07:34:17Z</time>
      </trkpt>
      <trkpt lat="42.90679" lon="-7.9967704">
        <time>2022-07-14T07:34:20Z</time>
      </trkpt>
      <trkpt lat="42.90684" lon="-7.9967637">
        <time>2022-07-14T07:34:24Z</time>
      </trkpt>
      <trkpt lat="42.9069" lon="-7.9967804">
        <time>2022-07-14T07:34:28Z</time>
      </trkpt>
      <trkpt lat="42.906948" lon="-7.9968023">
        <time>2022-07-14T07:34:34Z</time>
      </trkpt>
      <trkpt lat="42.906998" lon="-7.9968257">
        <time>2022-07-14T07:34:39Z</time>
      </trkpt>
      <trkpt lat="42.907055" lon="-7.9968705">
        <time>2022-07-14T07:34:44Z</time>
      </trkpt>
      <trkpt lat="42.907112" lon="-7.9968843">
        <time>2022-07-14T07:34:50Z</time>
      </trkpt>
      <trkpt lat="42.90717" lon="-7.9969163">
        <time>2022-07-14T07:34:55Z</time>
      </trkpt>
      <trkpt lat="42.90721" lon="-7.9969444">
        <time>2022-07-14T07:35:00Z</time>
      </trkpt>
      <trkpt lat="42.90726" lon="-7.9969735">
        <time>2022-07-14T07:35:05Z</time>
      </trkpt>
      <trkpt lat="42.907322" lon="-7.997009">
        <time>2022-07-14T07:35:10Z</time>
      </trkpt>
      <trkpt lat="42.907387" lon="-7.9970336">
        <time>2022-07-14T07:35:15Z</time>
      </trkpt>
      <trkpt lat="42.90745" lon="-7.997078">
        <time>2022-07-14T07:35:18Z</time>
      </trkpt>
      <trkpt lat="42.9075" lon="-7.9971166">
        <time>2022-07-14T07:35:21Z</time>
      </trkpt>
      <trkpt lat="42.90753" lon="-7.997149">
        <time>2022-07-14T07:35:26Z</time>
      </trkpt>
      <trkpt lat="42.9076" lon="-7.997187">
        <time>2022-07-14T07:35:34Z</time>
      </trkpt>
      <trkpt lat="42.90764" lon="-7.997224">
        <time>2022-07-14T07:35:37Z</time>
      </trkpt>
      <trkpt lat="42.90768" lon="-7.997277">
        <time>2022-07-14T07:35:41Z</time>
      </trkpt>
      <trkpt lat="42.907715" lon="-7.997331">
        <time>2022-07-14T07:35:45Z</time>
      </trkpt>
      <trkpt lat="42.907753" lon="-7.9973793">
        <time>2022-07-14T07:35:50Z</time>
      </trkpt>
      <trkpt lat="42.9078" lon="-7.9974174">
        <time>2022-07-14T07:35:55Z</time>
      </trkpt>
      <trkpt lat="42.907845" lon="-7.9974494">
        <time>2022-07-14T07:35:59Z</time>
      </trkpt>
      <trkpt lat="42.907887" lon="-7.997492">
        <time>2022-07-14T07:36:04Z</time>
      </trkpt>
      <trkpt lat="42.907917" lon="-7.9975495">
        <time>2022-07-14T07:36:09Z</time>
      </trkpt>
      <trkpt lat="42.90795" lon="-7.9976096">
        <time>2022-07-14T07:36:15Z</time>
      </trkpt>
      <trkpt lat="42.90799" lon="-7.9976735">
        <time>2022-07-14T07:36:21Z</time>
      </trkpt>
      <trkpt lat="42.90803" lon="-7.9977384">
        <time>2022-07-14T07:36:26Z</time>
      </trkpt>
      <trkpt lat="42.908073" lon="-7.997788">
        <time>2022-07-14T07:36:31Z</time>
      </trkpt>
      <trkpt lat="42.908104" lon="-7.9978495">
        <time>2022-07-14T07:36:37Z</time>
      </trkpt>
      <trkpt lat="42.90813" lon="-7.9979086">
        <time>2022-07-14T07:36:41Z</time>
      </trkpt>
      <trkpt lat="42.90815" lon="-7.9979725">
        <time>2022-07-14T07:36:45Z</time>
      </trkpt>
      <trkpt lat="42.908165" lon="-7.998059">
        <time>2022-07-14T07:36:50Z</time>
      </trkpt>
      <trkpt lat="42.90818" lon="-7.998122">
        <time>2022-07-14T07:36:55Z</time>
      </trkpt>
      <trkpt lat="42.908176" lon="-7.9981875">
        <time>2022-07-14T07:37:02Z</time>
      </trkpt>
      <trkpt lat="42.90819" lon="-7.998247">
        <time>2022-07-14T07:37:23Z</time>
      </trkpt>
      <trkpt lat="42.90817" lon="-7.9983335">
        <time>2022-07-14T07:37:28Z</time>
      </trkpt>
      <trkpt lat="42.908173" lon="-7.998409">
        <time>2022-07-14T07:37:31Z</time>
      </trkpt>
      <trkpt lat="42.90816" lon="-7.998474">
        <time>2022-07-14T07:37:34Z</time>
      </trkpt>
      <trkpt lat="42.908154" lon="-7.998544">
        <time>2022-07-14T07:37:38Z</time>
      </trkpt>
      <trkpt lat="42.90815" lon="-7.9986196">
        <time>2022-07-14T07:37:43Z</time>
      </trkpt>
      <trkpt lat="42.908154" lon="-7.9986835">
        <time>2022-07-14T07:37:47Z</time>
      </trkpt>
      <trkpt lat="42.908173" lon="-7.9987545">
        <time>2022-07-14T07:37:51Z</time>
      </trkpt>
      <trkpt lat="42.908207" lon="-7.998803">
        <time>2022-07-14T07:37:55Z</time>
      </trkpt>
      <trkpt lat="42.908268" lon="-7.9988055">
        <time>2022-07-14T07:38:00Z</time>
      </trkpt>
      <trkpt lat="42.908314" lon="-7.9988017">
        <time>2022-07-14T07:38:06Z</time>
      </trkpt>
      <trkpt lat="42.908367" lon="-7.9988065">
        <time>2022-07-14T07:38:11Z</time>
      </trkpt>
      <trkpt lat="42.90843" lon="-7.998801">
        <time>2022-07-14T07:38:17Z</time>
      </trkpt>
      <trkpt lat="42.908478" lon="-7.9987884">
        <time>2022-07-14T07:38:22Z</time>
      </trkpt>
      <trkpt lat="42.908535" lon="-7.9987845">
        <time>2022-07-14T07:38:26Z</time>
      </trkpt>
      <trkpt lat="42.908585" lon="-7.9987903">
        <time>2022-07-14T07:38:30Z</time>
      </trkpt>
      <trkpt lat="42.90864" lon="-7.9987717">
        <time>2022-07-14T07:38:36Z</time>
      </trkpt>
      <trkpt lat="42.908688" lon="-7.998762">
        <time>2022-07-14T07:38:40Z</time>
      </trkpt>
      <trkpt lat="42.90874" lon="-7.998798">
        <time>2022-07-14T07:38:46Z</time>
      </trkpt>
      <trkpt lat="42.90877" lon="-7.9988513">
        <time>2022-07-14T07:38:50Z</time>
      </trkpt>
      <trkpt lat="42.90881" lon="-7.998912">
        <time>2022-07-14T07:38:55Z</time>
      </trkpt>
      <trkpt lat="42.90886" lon="-7.998964">
        <time>2022-07-14T07:39:09Z</time>
      </trkpt>
      <trkpt lat="42.908894" lon="-7.998945">
        <time>2022-07-14T07:39:21Z</time>
      </trkpt>
      <trkpt lat="42.908928" lon="-7.999087">
        <time>2022-07-14T07:40:17Z</time>
      </trkpt>
      <trkpt lat="42.909042" lon="-7.999156">
        <time>2022-07-14T07:41:08Z</time>
      </trkpt>
      <trkpt lat="42.909042" lon="-7.9992213">
        <time>2022-07-14T07:41:15Z</time>
      </trkpt>
      <trkpt lat="42.90907" lon="-7.999298">
        <time>2022-07-14T07:41:22Z</time>
      </trkpt>
      <trkpt lat="42.90909" lon="-7.9993553">
        <time>2022-07-14T07:41:26Z</time>
      </trkpt>
      <trkpt lat="42.909096" lon="-7.99942">
        <time>2022-07-14T07:41:32Z</time>
      </trkpt>
      <trkpt lat="42.909134" lon="-7.999512">
        <time>2022-07-14T07:41:40Z</time>
      </trkpt>
      <trkpt lat="42.909157" lon="-7.9995775">
        <time>2022-07-14T07:41:44Z</time>
      </trkpt>
      <trkpt lat="42.909164" lon="-7.999657">
        <time>2022-07-14T07:41:49Z</time>
      </trkpt>
      <trkpt lat="42.909187" lon="-7.999737">
        <time>2022-07-14T07:41:53Z</time>
      </trkpt>
      <trkpt lat="42.909206" lon="-7.9998097">
        <time>2022-07-14T07:41:57Z</time>
      </trkpt>
      <trkpt lat="42.90921" lon="-7.999888">
        <time>2022-07-14T07:42:02Z</time>
      </trkpt>
      <trkpt lat="42.90922" lon="-7.9999537">
        <time>2022-07-14T07:42:06Z</time>
      </trkpt>
      <trkpt lat="42.909233" lon="-8.000036">
        <time>2022-07-14T07:42:11Z</time>
      </trkpt>
      <trkpt lat="42.90924" lon="-8.000115">
        <time>2022-07-14T07:42:16Z</time>
      </trkpt>
      <trkpt lat="42.90925" lon="-8.000181">
        <time>2022-07-14T07:42:21Z</time>
      </trkpt>
      <trkpt lat="42.909237" lon="-8.000258">
        <time>2022-07-14T07:42:26Z</time>
      </trkpt>
      <trkpt lat="42.909237" lon="-8.00033">
        <time>2022-07-14T07:42:31Z</time>
      </trkpt>
      <trkpt lat="42.909225" lon="-8.00041">
        <time>2022-07-14T07:42:36Z</time>
      </trkpt>
      <trkpt lat="42.90921" lon="-8.000493">
        <time>2022-07-14T07:42:41Z</time>
      </trkpt>
      <trkpt lat="42.909203" lon="-8.000556">
        <time>2022-07-14T07:42:45Z</time>
      </trkpt>
      <trkpt lat="42.90919" lon="-8.000633">
        <time>2022-07-14T07:42:50Z</time>
      </trkpt>
      <trkpt lat="42.90918" lon="-8.000704">
        <time>2022-07-14T07:42:55Z</time>
      </trkpt>
      <trkpt lat="42.909172" lon="-8.000773">
        <time>2022-07-14T07:43:00Z</time>
      </trkpt>
      <trkpt lat="42.90919" lon="-8.000848">
        <time>2022-07-14T07:43:05Z</time>
      </trkpt>
      <trkpt lat="42.909203" lon="-8.000932">
        <time>2022-07-14T07:43:10Z</time>
      </trkpt>
      <trkpt lat="42.909218" lon="-8.00099">
        <time>2022-07-14T07:43:14Z</time>
      </trkpt>
      <trkpt lat="42.909233" lon="-8.001065">
        <time>2022-07-14T07:43:19Z</time>
      </trkpt>
      <trkpt lat="42.909245" lon="-8.00115">
        <time>2022-07-14T07:43:24Z</time>
      </trkpt>
      <trkpt lat="42.909256" lon="-8.001225">
        <time>2022-07-14T07:43:29Z</time>
      </trkpt>
      <trkpt lat="42.909252" lon="-8.001303">
        <time>2022-07-14T07:43:34Z</time>
      </trkpt>
      <trkpt lat="42.909237" lon="-8.00137">
        <time>2022-07-14T07:43:40Z</time>
      </trkpt>
      <trkpt lat="42.909214" lon="-8.001451">
        <time>2022-07-14T07:43:46Z</time>
      </trkpt>
      <trkpt lat="42.9092" lon="-8.001518">
        <time>2022-07-14T07:43:51Z</time>
      </trkpt>
      <trkpt lat="42.909184" lon="-8.001588">
        <time>2022-07-14T07:43:55Z</time>
      </trkpt>
      <trkpt lat="42.909153" lon="-8.001656">
        <time>2022-07-14T07:43:59Z</time>
      </trkpt>
      <trkpt lat="42.909122" lon="-8.001721">
        <time>2022-07-14T07:44:03Z</time>
      </trkpt>
      <trkpt lat="42.909092" lon="-8.001798">
        <time>2022-07-14T07:44:07Z</time>
      </trkpt>
      <trkpt lat="42.90907" lon="-8.001869">
        <time>2022-07-14T07:44:11Z</time>
      </trkpt>
      <trkpt lat="42.909054" lon="-8.001936">
        <time>2022-07-14T07:44:15Z</time>
      </trkpt>
      <trkpt lat="42.90904" lon="-8.002016">
        <time>2022-07-14T07:44:20Z</time>
      </trkpt>
      <trkpt lat="42.909042" lon="-8.0021">
        <time>2022-07-14T07:44:25Z</time>
      </trkpt>
      <trkpt lat="42.90905" lon="-8.002174">
        <time>2022-07-14T07:44:29Z</time>
      </trkpt>
      <trkpt lat="42.90906" lon="-8.002245">
        <time>2022-07-14T07:44:33Z</time>
      </trkpt>
      <trkpt lat="42.909084" lon="-8.002328">
        <time>2022-07-14T07:44:38Z</time>
      </trkpt>
      <trkpt lat="42.909107" lon="-8.002397">
        <time>2022-07-14T07:44:42Z</time>
      </trkpt>
      <trkpt lat="42.909126" lon="-8.002456">
        <time>2022-07-14T07:44:46Z</time>
      </trkpt>
      <trkpt lat="42.909157" lon="-8.002543">
        <time>2022-07-14T07:44:51Z</time>
      </trkpt>
      <trkpt lat="42.90918" lon="-8.002615">
        <time>2022-07-14T07:44:55Z</time>
      </trkpt>
      <trkpt lat="42.909214" lon="-8.002674">
        <time>2022-07-14T07:44:59Z</time>
      </trkpt>
      <trkpt lat="42.90926" lon="-8.002722">
        <time>2022-07-14T07:45:03Z</time>
      </trkpt>
      <trkpt lat="42.9093" lon="-8.002759">
        <time>2022-07-14T07:45:07Z</time>
      </trkpt>
      <trkpt lat="42.90934" lon="-8.002801">
        <time>2022-07-14T07:45:11Z</time>
      </trkpt>
      <trkpt lat="42.909393" lon="-8.002848">
        <time>2022-07-14T07:45:16Z</time>
      </trkpt>
      <trkpt lat="42.909443" lon="-8.002894">
        <time>2022-07-14T07:45:21Z</time>
      </trkpt>
      <trkpt lat="42.90949" lon="-8.002931">
        <time>2022-07-14T07:45:25Z</time>
      </trkpt>
      <trkpt lat="42.909534" lon="-8.002965">
        <time>2022-07-14T07:45:29Z</time>
      </trkpt>
      <trkpt lat="42.909565" lon="-8.003015">
        <time>2022-07-14T07:45:33Z</time>
      </trkpt>
      <trkpt lat="42.9096" lon="-8.003075">
        <time>2022-07-14T07:45:37Z</time>
      </trkpt>
      <trkpt lat="42.90964" lon="-8.00312">
        <time>2022-07-14T07:45:41Z</time>
      </trkpt>
      <trkpt lat="42.909687" lon="-8.003178">
        <time>2022-07-14T07:45:46Z</time>
      </trkpt>
      <trkpt lat="42.909733" lon="-8.003229">
        <time>2022-07-14T07:45:51Z</time>
      </trkpt>
      <trkpt lat="42.909767" lon="-8.003268">
        <time>2022-07-14T07:45:55Z</time>
      </trkpt>
      <trkpt lat="42.90981" lon="-8.003324">
        <time>2022-07-14T07:46:00Z</time>
      </trkpt>
      <trkpt lat="42.909847" lon="-8.003382">
        <time>2022-07-14T07:46:05Z</time>
      </trkpt>
      <trkpt lat="42.90988" lon="-8.003437">
        <time>2022-07-14T07:46:10Z</time>
      </trkpt>
      <trkpt lat="42.909924" lon="-8.00349">
        <time>2022-07-14T07:46:15Z</time>
      </trkpt>
      <trkpt lat="42.909958" lon="-8.003553">
        <time>2022-07-14T07:46:20Z</time>
      </trkpt>
      <trkpt lat="42.909985" lon="-8.003608">
        <time>2022-07-14T07:46:24Z</time>
      </trkpt>
      <trkpt lat="42.910015" lon="-8.00367">
        <time>2022-07-14T07:46:29Z</time>
      </trkpt>
      <trkpt lat="42.910053" lon="-8.003736">
        <time>2022-07-14T07:46:34Z</time>
      </trkpt>
      <trkpt lat="42.91008" lon="-8.003795">
        <time>2022-07-14T07:46:38Z</time>
      </trkpt>
      <trkpt lat="42.910103" lon="-8.003853">
        <time>2022-07-14T07:46:42Z</time>
      </trkpt>
      <trkpt lat="42.910137" lon="-8.003922">
        <time>2022-07-14T07:46:47Z</time>
      </trkpt>
      <trkpt lat="42.910168" lon="-8.003971">
        <time>2022-07-14T07:46:51Z</time>
      </trkpt>
      <trkpt lat="42.9102" lon="-8.00404">
        <time>2022-07-14T07:46:56Z</time>
      </trkpt>
      <trkpt lat="42.910225" lon="-8.004097">
        <time>2022-07-14T07:47:00Z</time>
      </trkpt>
      <trkpt lat="42.91026" lon="-8.004163">
        <time>2022-07-14T07:47:05Z</time>
      </trkpt>
      <trkpt lat="42.910294" lon="-8.004226">
        <time>2022-07-14T07:47:10Z</time>
      </trkpt>
      <trkpt lat="42.910328" lon="-8.004283">
        <time>2022-07-14T07:47:15Z</time>
      </trkpt>
      <trkpt lat="42.910355" lon="-8.004341">
        <time>2022-07-14T07:47:19Z</time>
      </trkpt>
      <trkpt lat="42.910404" lon="-8.004403">
        <time>2022-07-14T07:47:24Z</time>
      </trkpt>
      <trkpt lat="42.910435" lon="-8.0044565">
        <time>2022-07-14T07:47:28Z</time>
      </trkpt>
      <trkpt lat="42.910454" lon="-8.004523">
        <time>2022-07-14T07:47:32Z</time>
      </trkpt>
      <trkpt lat="42.910473" lon="-8.0046">
        <time>2022-07-14T07:47:37Z</time>
      </trkpt>
      <trkpt lat="42.910496" lon="-8.004658">
        <time>2022-07-14T07:47:41Z</time>
      </trkpt>
      <trkpt lat="42.91053" lon="-8.004725">
        <time>2022-07-14T07:47:46Z</time>
      </trkpt>
      <trkpt lat="42.910553" lon="-8.004782">
        <time>2022-07-14T07:47:50Z</time>
      </trkpt>
      <trkpt lat="42.910576" lon="-8.004859">
        <time>2022-07-14T07:47:55Z</time>
      </trkpt>
      <trkpt lat="42.910603" lon="-8.00493">
        <time>2022-07-14T07:48:00Z</time>
      </trkpt>
      <trkpt lat="42.910637" lon="-8.004994">
        <time>2022-07-14T07:48:05Z</time>
      </trkpt>
      <trkpt lat="42.910664" lon="-8.005073">
        <time>2022-07-14T07:48:10Z</time>
      </trkpt>
      <trkpt lat="42.91069" lon="-8.005148">
        <time>2022-07-14T07:48:15Z</time>
      </trkpt>
      <trkpt lat="42.910706" lon="-8.005203">
        <time>2022-07-14T07:48:19Z</time>
      </trkpt>
      <trkpt lat="42.910736" lon="-8.005276">
        <time>2022-07-14T07:48:24Z</time>
      </trkpt>
      <trkpt lat="42.910763" lon="-8.005325">
        <time>2022-07-14T07:48:28Z</time>
      </trkpt>
      <trkpt lat="42.910793" lon="-8.00539">
        <time>2022-07-14T07:48:34Z</time>
      </trkpt>
      <trkpt lat="42.91082" lon="-8.005451">
        <time>2022-07-14T07:48:39Z</time>
      </trkpt>
      <trkpt lat="42.91086" lon="-8.005514">
        <time>2022-07-14T07:48:44Z</time>
      </trkpt>
      <trkpt lat="42.910885" lon="-8.005589">
        <time>2022-07-14T07:48:49Z</time>
      </trkpt>
      <trkpt lat="42.91091" lon="-8.005646">
        <time>2022-07-14T07:48:53Z</time>
      </trkpt>
      <trkpt lat="42.91094" lon="-8.005718">
        <time>2022-07-14T07:48:58Z</time>
      </trkpt>
      <trkpt lat="42.91097" lon="-8.005776">
        <time>2022-07-14T07:49:03Z</time>
      </trkpt>
      <trkpt lat="42.911003" lon="-8.005837">
        <time>2022-07-14T07:49:08Z</time>
      </trkpt>
      <trkpt lat="42.911022" lon="-8.005893">
        <time>2022-07-14T07:49:12Z</time>
      </trkpt>
      <trkpt lat="42.911045" lon="-8.005968">
        <time>2022-07-14T07:49:17Z</time>
      </trkpt>
      <trkpt lat="42.911064" lon="-8.006025">
        <time>2022-07-14T07:49:21Z</time>
      </trkpt>
      <trkpt lat="42.91109" lon="-8.006096">
        <time>2022-07-14T07:49:26Z</time>
      </trkpt>
      <trkpt lat="42.911114" lon="-8.006163">
        <time>2022-07-14T07:49:31Z</time>
      </trkpt>
      <trkpt lat="42.911137" lon="-8.006228">
        <time>2022-07-14T07:49:35Z</time>
      </trkpt>
      <trkpt lat="42.91116" lon="-8.006304">
        <time>2022-07-14T07:49:40Z</time>
      </trkpt>
      <trkpt lat="42.911186" lon="-8.006369">
        <time>2022-07-14T07:49:45Z</time>
      </trkpt>
      <trkpt lat="42.911217" lon="-8.006427">
        <time>2022-07-14T07:49:49Z</time>
      </trkpt>
      <trkpt lat="42.911243" lon="-8.006491">
        <time>2022-07-14T07:49:54Z</time>
      </trkpt>
      <trkpt lat="42.911263" lon="-8.006553">
        <time>2022-07-14T07:50:00Z</time>
      </trkpt>
      <trkpt lat="42.911274" lon="-8.006638">
        <time>2022-07-14T07:50:07Z</time>
      </trkpt>
      <trkpt lat="42.911293" lon="-8.006704">
        <time>2022-07-14T07:50:12Z</time>
      </trkpt>
      <trkpt lat="42.9113" lon="-8.00678">
        <time>2022-07-14T07:50:17Z</time>
      </trkpt>
      <trkpt lat="42.911312" lon="-8.006861">
        <time>2022-07-14T07:50:23Z</time>
      </trkpt>
      <trkpt lat="42.91134" lon="-8.006939">
        <time>2022-07-14T07:50:29Z</time>
      </trkpt>
      <trkpt lat="42.911358" lon="-8.00701">
        <time>2022-07-14T07:50:34Z</time>
      </trkpt>
      <trkpt lat="42.911373" lon="-8.007092">
        <time>2022-07-14T07:50:39Z</time>
      </trkpt>
      <trkpt lat="42.911392" lon="-8.007153">
        <time>2022-07-14T07:50:43Z</time>
      </trkpt>
      <trkpt lat="42.911423" lon="-8.007216">
        <time>2022-07-14T07:50:47Z</time>
      </trkpt>
      <trkpt lat="42.91144" lon="-8.00729">
        <time>2022-07-14T07:50:52Z</time>
      </trkpt>
      <trkpt lat="42.91147" lon="-8.007355">
        <time>2022-07-14T07:50:57Z</time>
      </trkpt>
      <trkpt lat="42.9115" lon="-8.007437">
        <time>2022-07-14T07:51:02Z</time>
      </trkpt>
      <trkpt lat="42.91152" lon="-8.0075">
        <time>2022-07-14T07:51:06Z</time>
      </trkpt>
      <trkpt lat="42.911552" lon="-8.007575">
        <time>2022-07-14T07:51:11Z</time>
      </trkpt>
      <trkpt lat="42.911575" lon="-8.007648">
        <time>2022-07-14T07:51:16Z</time>
      </trkpt>
      <trkpt lat="42.911602" lon="-8.007732">
        <time>2022-07-14T07:51:21Z</time>
      </trkpt>
      <trkpt lat="42.911625" lon="-8.007793">
        <time>2022-07-14T07:51:25Z</time>
      </trkpt>
      <trkpt lat="42.91166" lon="-8.007864">
        <time>2022-07-14T07:51:30Z</time>
      </trkpt>
      <trkpt lat="42.91169" lon="-8.007925">
        <time>2022-07-14T07:51:35Z</time>
      </trkpt>
      <trkpt lat="42.91174" lon="-8.007971">
        <time>2022-07-14T07:51:40Z</time>
      </trkpt>
      <trkpt lat="42.91178" lon="-8.008002">
        <time>2022-07-14T07:51:44Z</time>
      </trkpt>
      <trkpt lat="42.911842" lon="-8.008043">
        <time>2022-07-14T07:51:50Z</time>
      </trkpt>
      <trkpt lat="42.91184" lon="-8.008084">
        <time>2022-07-14T07:52:00Z</time>
      </trkpt>
      <trkpt lat="42.911858" lon="-8.008161">
        <time>2022-07-14T07:52:05Z</time>
      </trkpt>
      <trkpt lat="42.911865" lon="-8.008232">
        <time>2022-07-14T07:52:09Z</time>
      </trkpt>
      <trkpt lat="42.911877" lon="-8.008319">
        <time>2022-07-14T07:52:13Z</time>
      </trkpt>
      <trkpt lat="42.91189" lon="-8.008382">
        <time>2022-07-14T07:52:16Z</time>
      </trkpt>
      <trkpt lat="42.911892" lon="-8.008475">
        <time>2022-07-14T07:52:21Z</time>
      </trkpt>
      <trkpt lat="42.911903" lon="-8.008555">
        <time>2022-07-14T07:52:25Z</time>
      </trkpt>
      <trkpt lat="42.911922" lon="-8.008623">
        <time>2022-07-14T07:52:29Z</time>
      </trkpt>
      <trkpt lat="42.911934" lon="-8.008692">
        <time>2022-07-14T07:52:34Z</time>
      </trkpt>
      <trkpt lat="42.91194" lon="-8.008761">
        <time>2022-07-14T07:52:39Z</time>
      </trkpt>
      <trkpt lat="42.91196" lon="-8.008839">
        <time>2022-07-14T07:52:44Z</time>
      </trkpt>
      <trkpt lat="42.91198" lon="-8.008896">
        <time>2022-07-14T07:52:48Z</time>
      </trkpt>
      <trkpt lat="42.911995" lon="-8.008981">
        <time>2022-07-14T07:52:53Z</time>
      </trkpt>
      <trkpt lat="42.912006" lon="-8.00906">
        <time>2022-07-14T07:52:58Z</time>
      </trkpt>
      <trkpt lat="42.912014" lon="-8.009126">
        <time>2022-07-14T07:53:02Z</time>
      </trkpt>
      <trkpt lat="42.912025" lon="-8.009193">
        <time>2022-07-14T07:53:07Z</time>
      </trkpt>
      <trkpt lat="42.91203" lon="-8.009271">
        <time>2022-07-14T07:53:12Z</time>
      </trkpt>
      <trkpt lat="42.912037" lon="-8.009351">
        <time>2022-07-14T07:53:17Z</time>
      </trkpt>
      <trkpt lat="42.91206" lon="-8.009414">
        <time>2022-07-14T07:53:22Z</time>
      </trkpt>
      <trkpt lat="42.91209" lon="-8.009495">
        <time>2022-07-14T07:53:28Z</time>
      </trkpt>
      <trkpt lat="42.91211" lon="-8.009567">
        <time>2022-07-14T07:53:33Z</time>
      </trkpt>
      <trkpt lat="42.912136" lon="-8.009636">
        <time>2022-07-14T07:53:38Z</time>
      </trkpt>
      <trkpt lat="42.91217" lon="-8.009705">
        <time>2022-07-14T07:53:43Z</time>
      </trkpt>
      <trkpt lat="42.912193" lon="-8.009759">
        <time>2022-07-14T07:53:47Z</time>
      </trkpt>
      <trkpt lat="42.91223" lon="-8.009839">
        <time>2022-07-14T07:53:52Z</time>
      </trkpt>
      <trkpt lat="42.91226" lon="-8.009906">
        <time>2022-07-14T07:53:57Z</time>
      </trkpt>
      <trkpt lat="42.912285" lon="-8.009985">
        <time>2022-07-14T07:54:03Z</time>
      </trkpt>
      <trkpt lat="42.912308" lon="-8.010065">
        <time>2022-07-14T07:54:08Z</time>
      </trkpt>
      <trkpt lat="42.91233" lon="-8.010138">
        <time>2022-07-14T07:54:13Z</time>
      </trkpt>
      <trkpt lat="42.912365" lon="-8.010202">
        <time>2022-07-14T07:54:18Z</time>
      </trkpt>
      <trkpt lat="42.912403" lon="-8.010275">
        <time>2022-07-14T07:54:23Z</time>
      </trkpt>
      <trkpt lat="42.912422" lon="-8.010344">
        <time>2022-07-14T07:54:27Z</time>
      </trkpt>
      <trkpt lat="42.91245" lon="-8.010412">
        <time>2022-07-14T07:54:32Z</time>
      </trkpt>
      <trkpt lat="42.91247" lon="-8.010472">
        <time>2022-07-14T07:54:36Z</time>
      </trkpt>
      <trkpt lat="42.9125" lon="-8.010533">
        <time>2022-07-14T07:54:41Z</time>
      </trkpt>
      <trkpt lat="42.91252" lon="-8.010611">
        <time>2022-07-14T07:54:46Z</time>
      </trkpt>
      <trkpt lat="42.91254" lon="-8.010682">
        <time>2022-07-14T07:54:50Z</time>
      </trkpt>
      <trkpt lat="42.912556" lon="-8.010756">
        <time>2022-07-14T07:54:54Z</time>
      </trkpt>
      <trkpt lat="42.91258" lon="-8.010828">
        <time>2022-07-14T07:54:58Z</time>
      </trkpt>
      <trkpt lat="42.912617" lon="-8.010893">
        <time>2022-07-14T07:55:03Z</time>
      </trkpt>
      <trkpt lat="42.912655" lon="-8.010959">
        <time>2022-07-14T07:55:08Z</time>
      </trkpt>
      <trkpt lat="42.912685" lon="-8.011009">
        <time>2022-07-14T07:55:12Z</time>
      </trkpt>
      <trkpt lat="42.912727" lon="-8.011063">
        <time>2022-07-14T07:55:17Z</time>
      </trkpt>
      <trkpt lat="42.91277" lon="-8.011087">
        <time>2022-07-14T07:55:21Z</time>
      </trkpt>
      <trkpt lat="42.91283" lon="-8.011113">
        <time>2022-07-14T07:55:26Z</time>
      </trkpt>
      <trkpt lat="42.912872" lon="-8.011163">
        <time>2022-07-14T07:55:32Z</time>
      </trkpt>
      <trkpt lat="42.91291" lon="-8.011207">
        <time>2022-07-14T07:55:37Z</time>
      </trkpt>
      <trkpt lat="42.91296" lon="-8.011248">
        <time>2022-07-14T07:55:43Z</time>
      </trkpt>
      <trkpt lat="42.913017" lon="-8.01129">
        <time>2022-07-14T07:55:48Z</time>
      </trkpt>
      <trkpt lat="42.91306" lon="-8.01132">
        <time>2022-07-14T07:55:52Z</time>
      </trkpt>
      <trkpt lat="42.913116" lon="-8.011349">
        <time>2022-07-14T07:55:57Z</time>
      </trkpt>
      <trkpt lat="42.913162" lon="-8.011358">
        <time>2022-07-14T07:56:01Z</time>
      </trkpt>
      <trkpt lat="42.91321" lon="-8.011393">
        <time>2022-07-14T07:56:06Z</time>
      </trkpt>
      <trkpt lat="42.913265" lon="-8.011438">
        <time>2022-07-14T07:56:11Z</time>
      </trkpt>
      <trkpt lat="42.913307" lon="-8.011497">
        <time>2022-07-14T07:56:16Z</time>
      </trkpt>
      <trkpt lat="42.913334" lon="-8.011578">
        <time>2022-07-14T07:56:21Z</time>
      </trkpt>
      <trkpt lat="42.913345" lon="-8.011658">
        <time>2022-07-14T07:56:26Z</time>
      </trkpt>
      <trkpt lat="42.91337" lon="-8.011734">
        <time>2022-07-14T07:56:31Z</time>
      </trkpt>
      <trkpt lat="42.913383" lon="-8.011798">
        <time>2022-07-14T07:56:35Z</time>
      </trkpt>
      <trkpt lat="42.913376" lon="-8.011845">
        <time>2022-07-14T07:57:54Z</time>
      </trkpt>
      <trkpt lat="42.91341" lon="-8.011959">
        <time>2022-07-14T07:58:11Z</time>
      </trkpt>
      <trkpt lat="42.913452" lon="-8.012001">
        <time>2022-07-14T07:58:16Z</time>
      </trkpt>
      <trkpt lat="42.913467" lon="-8.012061">
        <time>2022-07-14T07:58:21Z</time>
      </trkpt>
      <trkpt lat="42.913456" lon="-8.012136">
        <time>2022-07-14T07:58:26Z</time>
      </trkpt>
      <trkpt lat="42.91343" lon="-8.012213">
        <time>2022-07-14T07:58:31Z</time>
      </trkpt>
      <trkpt lat="42.913433" lon="-8.012278">
        <time>2022-07-14T07:58:38Z</time>
      </trkpt>
      <trkpt lat="42.913414" lon="-8.012372">
        <time>2022-07-14T07:59:42Z</time>
      </trkpt>
      <trkpt lat="42.913364" lon="-8.012401">
        <time>2022-07-14T08:01:13Z</time>
      </trkpt>
      <trkpt lat="42.913357" lon="-8.012395">
        <time>2022-07-14T08:01:25Z</time>
      </trkpt>
      <trkpt lat="42.91338" lon="-8.012319">
        <time>2022-07-14T08:01:51Z</time>
      </trkpt>
      <trkpt lat="42.913372" lon="-8.012369">
        <time>2022-07-14T08:02:04Z</time>
      </trkpt>
      <trkpt lat="42.913403" lon="-8.012465">
        <time>2022-07-14T08:02:08Z</time>
      </trkpt>
      <trkpt lat="42.913418" lon="-8.012542">
        <time>2022-07-14T08:02:11Z</time>
      </trkpt>
      <trkpt lat="42.913418" lon="-8.012597">
        <time>2022-07-14T08:02:14Z</time>
      </trkpt>
      <trkpt lat="42.91343" lon="-8.012686">
        <time>2022-07-14T08:02:19Z</time>
      </trkpt>
      <trkpt lat="42.91345" lon="-8.012747">
        <time>2022-07-14T08:02:22Z</time>
      </trkpt>
      <trkpt lat="42.913483" lon="-8.012815">
        <time>2022-07-14T08:02:26Z</time>
      </trkpt>
      <trkpt lat="42.913498" lon="-8.012879">
        <time>2022-07-14T08:02:30Z</time>
      </trkpt>
      <trkpt lat="42.91353" lon="-8.01295">
        <time>2022-07-14T08:02:34Z</time>
      </trkpt>
      <trkpt lat="42.913555" lon="-8.0130205">
        <time>2022-07-14T08:02:37Z</time>
      </trkpt>
      <trkpt lat="42.913563" lon="-8.013085">
        <time>2022-07-14T08:02:40Z</time>
      </trkpt>
      <trkpt lat="42.91359" lon="-8.013131">
        <time>2022-07-14T08:02:45Z</time>
      </trkpt>
      <trkpt lat="42.91362" lon="-8.013175">
        <time>2022-07-14T08:02:51Z</time>
      </trkpt>
      <trkpt lat="42.913612" lon="-8.013274">
        <time>2022-07-14T08:02:58Z</time>
      </trkpt>
      <trkpt lat="42.91362" lon="-8.013351">
        <time>2022-07-14T08:03:02Z</time>
      </trkpt>
      <trkpt lat="42.913647" lon="-8.013414">
        <time>2022-07-14T08:03:07Z</time>
      </trkpt>
      <trkpt lat="42.913696" lon="-8.013407">
        <time>2022-07-14T08:03:13Z</time>
      </trkpt>
      <trkpt lat="42.913742" lon="-8.013403">
        <time>2022-07-14T08:03:18Z</time>
      </trkpt>
      <trkpt lat="42.913765" lon="-8.013474">
        <time>2022-07-14T08:03:23Z</time>
      </trkpt>
      <trkpt lat="42.91377" lon="-8.013554">
        <time>2022-07-14T08:03:27Z</time>
      </trkpt>
      <trkpt lat="42.913776" lon="-8.013634">
        <time>2022-07-14T08:03:31Z</time>
      </trkpt>
      <trkpt lat="42.913784" lon="-8.013695">
        <time>2022-07-14T08:03:34Z</time>
      </trkpt>
      <trkpt lat="42.913784" lon="-8.013779">
        <time>2022-07-14T08:03:39Z</time>
      </trkpt>
      <trkpt lat="42.91378" lon="-8.013857">
        <time>2022-07-14T08:03:43Z</time>
      </trkpt>
      <trkpt lat="42.913776" lon="-8.013932">
        <time>2022-07-14T08:03:47Z</time>
      </trkpt>
      <trkpt lat="42.913765" lon="-8.014">
        <time>2022-07-14T08:03:50Z</time>
      </trkpt>
      <trkpt lat="42.913757" lon="-8.014082">
        <time>2022-07-14T08:03:54Z</time>
      </trkpt>
      <trkpt lat="42.913746" lon="-8.014154">
        <time>2022-07-14T08:03:58Z</time>
      </trkpt>
      <trkpt lat="42.913727" lon="-8.014223">
        <time>2022-07-14T08:04:02Z</time>
      </trkpt>
      <trkpt lat="42.913708" lon="-8.014293">
        <time>2022-07-14T08:04:06Z</time>
      </trkpt>
      <trkpt lat="42.91373" lon="-8.014357">
        <time>2022-07-14T08:04:11Z</time>
      </trkpt>
      <trkpt lat="42.913754" lon="-8.014416">
        <time>2022-07-14T08:04:15Z</time>
      </trkpt>
      <trkpt lat="42.913757" lon="-8.014488">
        <time>2022-07-14T08:04:20Z</time>
      </trkpt>
      <trkpt lat="42.91378" lon="-8.014568">
        <time>2022-07-14T08:04:25Z</time>
      </trkpt>
      <trkpt lat="42.913822" lon="-8.0146265">
        <time>2022-07-14T08:04:30Z</time>
      </trkpt>
      <trkpt lat="42.913876" lon="-8.01467">
        <time>2022-07-14T08:04:34Z</time>
      </trkpt>
      <trkpt lat="42.91392" lon="-8.014701">
        <time>2022-07-14T08:04:37Z</time>
      </trkpt>
      <trkpt lat="42.913956" lon="-8.014757">
        <time>2022-07-14T08:04:41Z</time>
      </trkpt>
      <trkpt lat="42.913956" lon="-8.014848">
        <time>2022-07-14T08:04:46Z</time>
      </trkpt>
      <trkpt lat="42.91395" lon="-8.014902">
        <time>2022-07-14T08:04:49Z</time>
      </trkpt>
      <trkpt lat="42.914005" lon="-8.014957">
        <time>2022-07-14T08:04:54Z</time>
      </trkpt>
      <trkpt lat="42.914062" lon="-8.014971">
        <time>2022-07-14T08:04:57Z</time>
      </trkpt>
      <trkpt lat="42.91411" lon="-8.014986">
        <time>2022-07-14T08:05:00Z</time>
      </trkpt>
      <trkpt lat="42.914154" lon="-8.015009">
        <time>2022-07-14T08:05:04Z</time>
      </trkpt>
      <trkpt lat="42.914192" lon="-8.015071">
        <time>2022-07-14T08:05:09Z</time>
      </trkpt>
      <trkpt lat="42.914234" lon="-8.015104">
        <time>2022-07-14T08:05:13Z</time>
      </trkpt>
      <trkpt lat="42.91429" lon="-8.015124">
        <time>2022-07-14T08:05:17Z</time>
      </trkpt>
      <trkpt lat="42.91435" lon="-8.01515">
        <time>2022-07-14T08:05:21Z</time>
      </trkpt>
      <trkpt lat="42.91438" lon="-8.015198">
        <time>2022-07-14T08:05:29Z</time>
      </trkpt>
      <trkpt lat="42.914383" lon="-8.015266">
        <time>2022-07-14T08:05:36Z</time>
      </trkpt>
      <trkpt lat="42.91439" lon="-8.015346">
        <time>2022-07-14T08:05:42Z</time>
      </trkpt>
      <trkpt lat="42.91437" lon="-8.015404">
        <time>2022-07-14T08:05:48Z</time>
      </trkpt>
      <trkpt lat="42.914345" lon="-8.015476">
        <time>2022-07-14T08:05:55Z</time>
      </trkpt>
      <trkpt lat="42.914314" lon="-8.015549">
        <time>2022-07-14T08:06:00Z</time>
      </trkpt>
      <trkpt lat="42.914318" lon="-8.015626">
        <time>2022-07-14T08:06:05Z</time>
      </trkpt>
      <trkpt lat="42.914318" lon="-8.015696">
        <time>2022-07-14T08:06:11Z</time>
      </trkpt>
      <trkpt lat="42.91429" lon="-8.01578">
        <time>2022-07-14T08:06:16Z</time>
      </trkpt>
      <trkpt lat="42.914272" lon="-8.015845">
        <time>2022-07-14T08:06:19Z</time>
      </trkpt>
      <trkpt lat="42.914272" lon="-8.015925">
        <time>2022-07-14T08:06:23Z</time>
      </trkpt>
      <trkpt lat="42.91427" lon="-8.016002">
        <time>2022-07-14T08:06:28Z</time>
      </trkpt>
      <trkpt lat="42.91429" lon="-8.016083">
        <time>2022-07-14T08:06:33Z</time>
      </trkpt>
      <trkpt lat="42.9143" lon="-8.016159">
        <time>2022-07-14T08:06:37Z</time>
      </trkpt>
      <trkpt lat="42.91431" lon="-8.01623">
        <time>2022-07-14T08:06:41Z</time>
      </trkpt>
      <trkpt lat="42.914307" lon="-8.016289">
        <time>2022-07-14T08:06:45Z</time>
      </trkpt>
      <trkpt lat="42.91428" lon="-8.01638">
        <time>2022-07-14T08:06:50Z</time>
      </trkpt>
      <trkpt lat="42.914272" lon="-8.016451">
        <time>2022-07-14T08:06:53Z</time>
      </trkpt>
      <trkpt lat="42.91427" lon="-8.016522">
        <time>2022-07-14T08:06:57Z</time>
      </trkpt>
      <trkpt lat="42.91424" lon="-8.016593">
        <time>2022-07-14T08:07:02Z</time>
      </trkpt>
      <trkpt lat="42.91423" lon="-8.016661">
        <time>2022-07-14T08:07:07Z</time>
      </trkpt>
      <trkpt lat="42.914196" lon="-8.016739">
        <time>2022-07-14T08:07:13Z</time>
      </trkpt>
      <trkpt lat="42.914173" lon="-8.016813">
        <time>2022-07-14T08:07:18Z</time>
      </trkpt>
      <trkpt lat="42.91417" lon="-8.016892">
        <time>2022-07-14T08:07:23Z</time>
      </trkpt>
      <trkpt lat="42.91414" lon="-8.016955">
        <time>2022-07-14T08:07:30Z</time>
      </trkpt>
      <trkpt lat="42.91411" lon="-8.017157">
        <time>2022-07-14T08:07:47Z</time>
      </trkpt>
      <trkpt lat="42.9141" lon="-8.017228">
        <time>2022-07-14T08:07:51Z</time>
      </trkpt>
      <trkpt lat="42.9141" lon="-8.017285">
        <time>2022-07-14T08:07:55Z</time>
      </trkpt>
      <trkpt lat="42.914097" lon="-8.017356">
        <time>2022-07-14T08:08:01Z</time>
      </trkpt>
      <trkpt lat="42.91408" lon="-8.017454">
        <time>2022-07-14T08:08:09Z</time>
      </trkpt>
      <trkpt lat="42.91407" lon="-8.017545">
        <time>2022-07-14T08:08:14Z</time>
      </trkpt>
      <trkpt lat="42.914055" lon="-8.017628">
        <time>2022-07-14T08:08:18Z</time>
      </trkpt>
      <trkpt lat="42.914047" lon="-8.017698">
        <time>2022-07-14T08:08:22Z</time>
      </trkpt>
      <trkpt lat="42.91403" lon="-8.017763">
        <time>2022-07-14T08:08:26Z</time>
      </trkpt>
      <trkpt lat="42.914017" lon="-8.017838">
        <time>2022-07-14T08:08:30Z</time>
      </trkpt>
      <trkpt lat="42.913986" lon="-8.017898">
        <time>2022-07-14T08:08:34Z</time>
      </trkpt>
      <trkpt lat="42.913986" lon="-8.017964">
        <time>2022-07-14T08:08:38Z</time>
      </trkpt>
      <trkpt lat="42.913986" lon="-8.01803">
        <time>2022-07-14T08:08:43Z</time>
      </trkpt>
      <trkpt lat="42.913963" lon="-8.018101">
        <time>2022-07-14T08:08:50Z</time>
      </trkpt>
      <trkpt lat="42.91394" lon="-8.018164">
        <time>2022-07-14T08:08:55Z</time>
      </trkpt>
      <trkpt lat="42.913918" lon="-8.018242">
        <time>2022-07-14T08:09:01Z</time>
      </trkpt>
      <trkpt lat="42.9139" lon="-8.018297">
        <time>2022-07-14T08:09:06Z</time>
      </trkpt>
      <trkpt lat="42.913883" lon="-8.01837">
        <time>2022-07-14T08:09:13Z</time>
      </trkpt>
      <trkpt lat="42.913868" lon="-8.018444">
        <time>2022-07-14T08:09:19Z</time>
      </trkpt>
      <trkpt lat="42.913857" lon="-8.01851">
        <time>2022-07-14T08:09:24Z</time>
      </trkpt>
      <trkpt lat="42.91385" lon="-8.018581">
        <time>2022-07-14T08:09:30Z</time>
      </trkpt>
      <trkpt lat="42.913837" lon="-8.01865">
        <time>2022-07-14T08:09:36Z</time>
      </trkpt>
      <trkpt lat="42.91381" lon="-8.018721">
        <time>2022-07-14T08:09:42Z</time>
      </trkpt>
      <trkpt lat="42.913784" lon="-8.018794">
        <time>2022-07-14T08:09:48Z</time>
      </trkpt>
      <trkpt lat="42.91377" lon="-8.018875">
        <time>2022-07-14T08:09:54Z</time>
      </trkpt>
      <trkpt lat="42.913754" lon="-8.018946">
        <time>2022-07-14T08:09:59Z</time>
      </trkpt>
      <trkpt lat="42.913746" lon="-8.01902">
        <time>2022-07-14T08:10:05Z</time>
      </trkpt>
      <trkpt lat="42.913734" lon="-8.019095">
        <time>2022-07-14T08:10:11Z</time>
      </trkpt>
      <trkpt lat="42.913727" lon="-8.019168">
        <time>2022-07-14T08:10:16Z</time>
      </trkpt>
      <trkpt lat="42.91374" lon="-8.019223">
        <time>2022-07-14T08:10:27Z</time>
      </trkpt>
      <trkpt lat="42.91371" lon="-8.019291">
        <time>2022-07-14T08:10:38Z</time>
      </trkpt>
      <trkpt lat="42.91369" lon="-8.019372">
        <time>2022-07-14T08:10:47Z</time>
      </trkpt>
      <trkpt lat="42.913662" lon="-8.019447">
        <time>2022-07-14T08:10:52Z</time>
      </trkpt>
      <trkpt lat="42.913624" lon="-8.019517">
        <time>2022-07-14T08:10:59Z</time>
      </trkpt>
      <trkpt lat="42.913597" lon="-8.019572">
        <time>2022-07-14T08:11:03Z</time>
      </trkpt>
      <trkpt lat="42.913574" lon="-8.01964">
        <time>2022-07-14T08:11:11Z</time>
      </trkpt>
      <trkpt lat="42.9136" lon="-8.019749">
        <time>2022-07-14T08:11:50Z</time>
      </trkpt>
      <trkpt lat="42.913563" lon="-8.019799">
        <time>2022-07-14T08:11:53Z</time>
      </trkpt>
      <trkpt lat="42.913513" lon="-8.01986">
        <time>2022-07-14T08:11:58Z</time>
      </trkpt>
      <trkpt lat="42.91348" lon="-8.019911">
        <time>2022-07-14T08:12:02Z</time>
      </trkpt>
      <trkpt lat="42.913433" lon="-8.019958">
        <time>2022-07-14T08:12:07Z</time>
      </trkpt>
      <trkpt lat="42.913376" lon="-8.019987">
        <time>2022-07-14T08:12:13Z</time>
      </trkpt>
      <trkpt lat="42.913334" lon="-8.02004">
        <time>2022-07-14T08:12:18Z</time>
      </trkpt>
      <trkpt lat="42.913315" lon="-8.020116">
        <time>2022-07-14T08:12:24Z</time>
      </trkpt>
      <trkpt lat="42.913292" lon="-8.020185">
        <time>2022-07-14T08:12:32Z</time>
      </trkpt>
      <trkpt lat="42.913273" lon="-8.020256">
        <time>2022-07-14T08:12:39Z</time>
      </trkpt>
      <trkpt lat="42.913227" lon="-8.02032">
        <time>2022-07-14T08:12:44Z</time>
      </trkpt>
      <trkpt lat="42.9132" lon="-8.020377">
        <time>2022-07-14T08:12:48Z</time>
      </trkpt>
      <trkpt lat="42.913177" lon="-8.020445">
        <time>2022-07-14T08:12:53Z</time>
      </trkpt>
      <trkpt lat="42.91315" lon="-8.020499">
        <time>2022-07-14T08:12:57Z</time>
      </trkpt>
      <trkpt lat="42.91312" lon="-8.020558">
        <time>2022-07-14T08:13:05Z</time>
      </trkpt>
      <trkpt lat="42.913082" lon="-8.020621">
        <time>2022-07-14T08:13:12Z</time>
      </trkpt>
      <trkpt lat="42.913044" lon="-8.020668">
        <time>2022-07-14T08:13:16Z</time>
      </trkpt>
      <trkpt lat="42.913013" lon="-8.020732">
        <time>2022-07-14T08:13:21Z</time>
      </trkpt>
      <trkpt lat="42.912994" lon="-8.020795">
        <time>2022-07-14T08:13:26Z</time>
      </trkpt>
      <trkpt lat="42.912968" lon="-8.020849">
        <time>2022-07-14T08:13:31Z</time>
      </trkpt>
      <trkpt lat="42.912956" lon="-8.020916">
        <time>2022-07-14T08:13:42Z</time>
      </trkpt>
      <trkpt lat="42.91291" lon="-8.020979">
        <time>2022-07-14T08:13:49Z</time>
      </trkpt>
      <trkpt lat="42.912876" lon="-8.021026">
        <time>2022-07-14T08:13:53Z</time>
      </trkpt>
      <trkpt lat="42.91285" lon="-8.021085">
        <time>2022-07-14T08:13:59Z</time>
      </trkpt>
      <trkpt lat="42.91284" lon="-8.021152">
        <time>2022-07-14T08:14:07Z</time>
      </trkpt>
      <trkpt lat="42.91285" lon="-8.021216">
        <time>2022-07-14T08:14:17Z</time>
      </trkpt>
      <trkpt lat="42.912815" lon="-8.02129">
        <time>2022-07-14T08:14:22Z</time>
      </trkpt>
      <trkpt lat="42.912804" lon="-8.021337">
        <time>2022-07-14T08:14:29Z</time>
      </trkpt>
      <trkpt lat="42.912766" lon="-8.021392">
        <time>2022-07-14T08:14:37Z</time>
      </trkpt>
      <trkpt lat="42.912727" lon="-8.021456">
        <time>2022-07-14T08:14:43Z</time>
      </trkpt>
      <trkpt lat="42.912704" lon="-8.021526">
        <time>2022-07-14T08:14:48Z</time>
      </trkpt>
      <trkpt lat="42.9127" lon="-8.021592">
        <time>2022-07-14T08:14:52Z</time>
      </trkpt>
      <trkpt lat="42.91268" lon="-8.021665">
        <time>2022-07-14T08:14:56Z</time>
      </trkpt>
      <trkpt lat="42.91266" lon="-8.021723">
        <time>2022-07-14T08:15:00Z</time>
      </trkpt>
      <trkpt lat="42.912636" lon="-8.021785">
        <time>2022-07-14T08:15:05Z</time>
      </trkpt>
      <trkpt lat="42.912636" lon="-8.021871">
        <time>2022-07-14T08:15:13Z</time>
      </trkpt>
      <trkpt lat="42.9126" lon="-8.021939">
        <time>2022-07-14T08:15:18Z</time>
      </trkpt>
      <trkpt lat="42.91256" lon="-8.021999">
        <time>2022-07-14T08:15:22Z</time>
      </trkpt>
      <trkpt lat="42.91253" lon="-8.022064">
        <time>2022-07-14T08:15:26Z</time>
      </trkpt>
      <trkpt lat="42.912514" lon="-8.022128">
        <time>2022-07-14T08:15:30Z</time>
      </trkpt>
      <trkpt lat="42.91248" lon="-8.0221815">
        <time>2022-07-14T08:15:36Z</time>
      </trkpt>
      <trkpt lat="42.91243" lon="-8.022235">
        <time>2022-07-14T08:15:41Z</time>
      </trkpt>
      <trkpt lat="42.91241" lon="-8.022308">
        <time>2022-07-14T08:15:47Z</time>
      </trkpt>
      <trkpt lat="42.9124" lon="-8.0223675">
        <time>2022-07-14T08:15:52Z</time>
      </trkpt>
      <trkpt lat="42.912365" lon="-8.022444">
        <time>2022-07-14T08:15:58Z</time>
      </trkpt>
      <trkpt lat="42.912327" lon="-8.022516">
        <time>2022-07-14T08:16:03Z</time>
      </trkpt>
      <trkpt lat="42.912292" lon="-8.022569">
        <time>2022-07-14T08:16:08Z</time>
      </trkpt>
      <trkpt lat="42.91225" lon="-8.022619">
        <time>2022-07-14T08:16:12Z</time>
      </trkpt>
      <trkpt lat="42.912212" lon="-8.022676">
        <time>2022-07-14T08:16:17Z</time>
      </trkpt>
      <trkpt lat="42.912174" lon="-8.022735">
        <time>2022-07-14T08:16:22Z</time>
      </trkpt>
      <trkpt lat="42.912132" lon="-8.0227995">
        <time>2022-07-14T08:16:27Z</time>
      </trkpt>
      <trkpt lat="42.912098" lon="-8.022854">
        <time>2022-07-14T08:16:31Z</time>
      </trkpt>
      <trkpt lat="42.912064" lon="-8.022903">
        <time>2022-07-14T08:16:35Z</time>
      </trkpt>
      <trkpt lat="42.91202" lon="-8.022968">
        <time>2022-07-14T08:16:40Z</time>
      </trkpt>
      <trkpt lat="42.911983" lon="-8.023025">
        <time>2022-07-14T08:16:45Z</time>
      </trkpt>
      <trkpt lat="42.91195" lon="-8.023084">
        <time>2022-07-14T08:16:49Z</time>
      </trkpt>
      <trkpt lat="42.91191" lon="-8.023148">
        <time>2022-07-14T08:16:53Z</time>
      </trkpt>
      <trkpt lat="42.911877" lon="-8.023202">
        <time>2022-07-14T08:16:57Z</time>
      </trkpt>
      <trkpt lat="42.91184" lon="-8.02325">
        <time>2022-07-14T08:17:01Z</time>
      </trkpt>
      <trkpt lat="42.911793" lon="-8.0233135">
        <time>2022-07-14T08:17:06Z</time>
      </trkpt>
      <trkpt lat="42.91176" lon="-8.023363">
        <time>2022-07-14T08:17:10Z</time>
      </trkpt>
      <trkpt lat="42.911716" lon="-8.023422">
        <time>2022-07-14T08:17:15Z</time>
      </trkpt>
      <trkpt lat="42.91167" lon="-8.023491">
        <time>2022-07-14T08:17:20Z</time>
      </trkpt>
      <trkpt lat="42.911633" lon="-8.02355">
        <time>2022-07-14T08:17:24Z</time>
      </trkpt>
      <trkpt lat="42.911602" lon="-8.023596">
        <time>2022-07-14T08:17:28Z</time>
      </trkpt>
      <trkpt lat="42.911556" lon="-8.023662">
        <time>2022-07-14T08:17:33Z</time>
      </trkpt>
      <trkpt lat="42.911514" lon="-8.023725">
        <time>2022-07-14T08:17:38Z</time>
      </trkpt>
      <trkpt lat="42.911472" lon="-8.023784">
        <time>2022-07-14T08:17:43Z</time>
      </trkpt>
      <trkpt lat="42.911438" lon="-8.023846">
        <time>2022-07-14T08:17:47Z</time>
      </trkpt>
      <trkpt lat="42.911404" lon="-8.023907">
        <time>2022-07-14T08:17:51Z</time>
      </trkpt>
      <trkpt lat="42.91137" lon="-8.023962">
        <time>2022-07-14T08:17:56Z</time>
      </trkpt>
      <trkpt lat="42.911335" lon="-8.024022">
        <time>2022-07-14T08:18:00Z</time>
      </trkpt>
      <trkpt lat="42.9113" lon="-8.024086">
        <time>2022-07-14T08:18:05Z</time>
      </trkpt>
      <trkpt lat="42.911266" lon="-8.024139">
        <time>2022-07-14T08:18:10Z</time>
      </trkpt>
      <trkpt lat="42.91122" lon="-8.024198">
        <time>2022-07-14T08:18:15Z</time>
      </trkpt>
      <trkpt lat="42.91119" lon="-8.024246">
        <time>2022-07-14T08:18:19Z</time>
      </trkpt>
      <trkpt lat="42.91116" lon="-8.024314">
        <time>2022-07-14T08:18:24Z</time>
      </trkpt>
      <trkpt lat="42.911167" lon="-8.0243845">
        <time>2022-07-14T08:18:30Z</time>
      </trkpt>
      <trkpt lat="42.911163" lon="-8.024469">
        <time>2022-07-14T08:18:35Z</time>
      </trkpt>
      <trkpt lat="42.911167" lon="-8.024546">
        <time>2022-07-14T08:18:39Z</time>
      </trkpt>
      <trkpt lat="42.91117" lon="-8.024622">
        <time>2022-07-14T08:18:43Z</time>
      </trkpt>
      <trkpt lat="42.91119" lon="-8.024693">
        <time>2022-07-14T08:18:48Z</time>
      </trkpt>
      <trkpt lat="42.9112" lon="-8.024768">
        <time>2022-07-14T08:18:53Z</time>
      </trkpt>
      <trkpt lat="42.911194" lon="-8.024752">
        <time>2022-07-14T08:19:03Z</time>
      </trkpt>
      <trkpt lat="42.911213" lon="-8.024816">
        <time>2022-07-14T08:19:17Z</time>
      </trkpt>
      <trkpt lat="42.911247" lon="-8.024897">
        <time>2022-07-14T08:19:21Z</time>
      </trkpt>
      <trkpt lat="42.91127" lon="-8.024962">
        <time>2022-07-14T08:19:25Z</time>
      </trkpt>
      <trkpt lat="42.9113" lon="-8.025027">
        <time>2022-07-14T08:19:29Z</time>
      </trkpt>
      <trkpt lat="42.91134" lon="-8.025086">
        <time>2022-07-14T08:19:33Z</time>
      </trkpt>
      <trkpt lat="42.911377" lon="-8.025129">
        <time>2022-07-14T08:19:37Z</time>
      </trkpt>
      <trkpt lat="42.911377" lon="-8.025211">
        <time>2022-07-14T08:19:43Z</time>
      </trkpt>
      <trkpt lat="42.91138" lon="-8.025287">
        <time>2022-07-14T08:19:47Z</time>
      </trkpt>
      <trkpt lat="42.911385" lon="-8.025364">
        <time>2022-07-14T08:19:51Z</time>
      </trkpt>
      <trkpt lat="42.9114" lon="-8.025429">
        <time>2022-07-14T08:19:55Z</time>
      </trkpt>
      <trkpt lat="42.91141" lon="-8.025498">
        <time>2022-07-14T08:19:59Z</time>
      </trkpt>
      <trkpt lat="42.911427" lon="-8.025571">
        <time>2022-07-14T08:20:03Z</time>
      </trkpt>
      <trkpt lat="42.911438" lon="-8.025651">
        <time>2022-07-14T08:20:08Z</time>
      </trkpt>
      <trkpt lat="42.91148" lon="-8.025722">
        <time>2022-07-14T08:20:13Z</time>
      </trkpt>
      <trkpt lat="42.911503" lon="-8.025787">
        <time>2022-07-14T08:20:18Z</time>
      </trkpt>
      <trkpt lat="42.911526" lon="-8.02586">
        <time>2022-07-14T08:20:23Z</time>
      </trkpt>
      <trkpt lat="42.911545" lon="-8.0259285">
        <time>2022-07-14T08:20:27Z</time>
      </trkpt>
      <trkpt lat="42.911564" lon="-8.026">
        <time>2022-07-14T08:20:32Z</time>
      </trkpt>
      <trkpt lat="42.91157" lon="-8.026076">
        <time>2022-07-14T08:20:38Z</time>
      </trkpt>
      <trkpt lat="42.911587" lon="-8.026145">
        <time>2022-07-14T08:20:43Z</time>
      </trkpt>
      <trkpt lat="42.9116" lon="-8.026215">
        <time>2022-07-14T08:20:47Z</time>
      </trkpt>
      <trkpt lat="42.911606" lon="-8.026294">
        <time>2022-07-14T08:20:51Z</time>
      </trkpt>
      <trkpt lat="42.91161" lon="-8.026365">
        <time>2022-07-14T08:20:55Z</time>
      </trkpt>
      <trkpt lat="42.911625" lon="-8.026438">
        <time>2022-07-14T08:20:59Z</time>
      </trkpt>
      <trkpt lat="42.911648" lon="-8.026499">
        <time>2022-07-14T08:21:02Z</time>
      </trkpt>
      <trkpt lat="42.911682" lon="-8.026559">
        <time>2022-07-14T08:21:06Z</time>
      </trkpt>
      <trkpt lat="42.911716" lon="-8.026608">
        <time>2022-07-14T08:21:10Z</time>
      </trkpt>
      <trkpt lat="42.91174" lon="-8.026681">
        <time>2022-07-14T08:21:14Z</time>
      </trkpt>
      <trkpt lat="42.911762" lon="-8.02674">
        <time>2022-07-14T08:21:17Z</time>
      </trkpt>
      <trkpt lat="42.9118" lon="-8.026806">
        <time>2022-07-14T08:21:21Z</time>
      </trkpt>
      <trkpt lat="42.91183" lon="-8.026865">
        <time>2022-07-14T08:21:25Z</time>
      </trkpt>
      <trkpt lat="42.91186" lon="-8.026925">
        <time>2022-07-14T08:21:29Z</time>
      </trkpt>
      <trkpt lat="42.911884" lon="-8.026988">
        <time>2022-07-14T08:21:33Z</time>
      </trkpt>
      <trkpt lat="42.91191" lon="-8.027066">
        <time>2022-07-14T08:21:38Z</time>
      </trkpt>
      <trkpt lat="42.911934" lon="-8.027134">
        <time>2022-07-14T08:21:42Z</time>
      </trkpt>
      <trkpt lat="42.911957" lon="-8.0272045">
        <time>2022-07-14T08:21:46Z</time>
      </trkpt>
      <trkpt lat="42.911964" lon="-8.027268">
        <time>2022-07-14T08:21:50Z</time>
      </trkpt>
      <trkpt lat="42.91198" lon="-8.027341">
        <time>2022-07-14T08:21:55Z</time>
      </trkpt>
      <trkpt lat="42.91198" lon="-8.027413">
        <time>2022-07-14T08:21:59Z</time>
      </trkpt>
      <trkpt lat="42.911964" lon="-8.027497">
        <time>2022-07-14T08:22:03Z</time>
      </trkpt>
      <trkpt lat="42.911976" lon="-8.027565">
        <time>2022-07-14T08:22:07Z</time>
      </trkpt>
      <trkpt lat="42.911983" lon="-8.027635">
        <time>2022-07-14T08:22:11Z</time>
      </trkpt>
      <trkpt lat="42.911972" lon="-8.027719">
        <time>2022-07-14T08:22:15Z</time>
      </trkpt>
      <trkpt lat="42.91197" lon="-8.027796">
        <time>2022-07-14T08:22:19Z</time>
      </trkpt>
      <trkpt lat="42.911972" lon="-8.027868">
        <time>2022-07-14T08:22:23Z</time>
      </trkpt>
      <trkpt lat="42.911976" lon="-8.027936">
        <time>2022-07-14T08:22:27Z</time>
      </trkpt>
      <trkpt lat="42.91198" lon="-8.028006">
        <time>2022-07-14T08:22:32Z</time>
      </trkpt>
      <trkpt lat="42.912" lon="-8.028082">
        <time>2022-07-14T08:22:37Z</time>
      </trkpt>
      <trkpt lat="42.91201" lon="-8.028167">
        <time>2022-07-14T08:22:42Z</time>
      </trkpt>
      <trkpt lat="42.912025" lon="-8.028238">
        <time>2022-07-14T08:22:46Z</time>
      </trkpt>
      <trkpt lat="42.912045" lon="-8.028306">
        <time>2022-07-14T08:22:50Z</time>
      </trkpt>
      <trkpt lat="42.91205" lon="-8.028371">
        <time>2022-07-14T08:22:54Z</time>
      </trkpt>
      <trkpt lat="42.912064" lon="-8.028438">
        <time>2022-07-14T08:22:58Z</time>
      </trkpt>
      <trkpt lat="42.912075" lon="-8.028517">
        <time>2022-07-14T08:23:03Z</time>
      </trkpt>
      <trkpt lat="42.912075" lon="-8.028585">
        <time>2022-07-14T08:23:07Z</time>
      </trkpt>
      <trkpt lat="42.912083" lon="-8.028657">
        <time>2022-07-14T08:23:11Z</time>
      </trkpt>
      <trkpt lat="42.912098" lon="-8.028726">
        <time>2022-07-14T08:23:15Z</time>
      </trkpt>
      <trkpt lat="42.912113" lon="-8.028815">
        <time>2022-07-14T08:23:20Z</time>
      </trkpt>
      <trkpt lat="42.91213" lon="-8.028888">
        <time>2022-07-14T08:23:24Z</time>
      </trkpt>
      <trkpt lat="42.912144" lon="-8.028958">
        <time>2022-07-14T08:23:28Z</time>
      </trkpt>
      <trkpt lat="42.91215" lon="-8.029036">
        <time>2022-07-14T08:23:32Z</time>
      </trkpt>
      <trkpt lat="42.91217" lon="-8.029116">
        <time>2022-07-14T08:23:37Z</time>
      </trkpt>
      <trkpt lat="42.912174" lon="-8.029189">
        <time>2022-07-14T08:23:41Z</time>
      </trkpt>
      <trkpt lat="42.91219" lon="-8.029271">
        <time>2022-07-14T08:23:46Z</time>
      </trkpt>
      <trkpt lat="42.912197" lon="-8.029348">
        <time>2022-07-14T08:23:51Z</time>
      </trkpt>
      <trkpt lat="42.9122" lon="-8.02942">
        <time>2022-07-14T08:23:56Z</time>
      </trkpt>
      <trkpt lat="42.91221" lon="-8.029486">
        <time>2022-07-14T08:24:02Z</time>
      </trkpt>
      <trkpt lat="42.912205" lon="-8.029584">
        <time>2022-07-14T08:24:08Z</time>
      </trkpt>
      <trkpt lat="42.912197" lon="-8.029669">
        <time>2022-07-14T08:24:12Z</time>
      </trkpt>
      <trkpt lat="42.912178" lon="-8.029756">
        <time>2022-07-14T08:24:16Z</time>
      </trkpt>
      <trkpt lat="42.912167" lon="-8.029826">
        <time>2022-07-14T08:24:20Z</time>
      </trkpt>
      <trkpt lat="42.912167" lon="-8.029907">
        <time>2022-07-14T08:24:26Z</time>
      </trkpt>
      <trkpt lat="42.912178" lon="-8.029976">
        <time>2022-07-14T08:24:30Z</time>
      </trkpt>
      <trkpt lat="42.91218" lon="-8.030037">
        <time>2022-07-14T08:24:34Z</time>
      </trkpt>
      <trkpt lat="42.91218" lon="-8.03012">
        <time>2022-07-14T08:24:39Z</time>
      </trkpt>
      <trkpt lat="42.912178" lon="-8.0302">
        <time>2022-07-14T08:24:43Z</time>
      </trkpt>
      <trkpt lat="42.912186" lon="-8.030282">
        <time>2022-07-14T08:24:49Z</time>
      </trkpt>
      <trkpt lat="42.912193" lon="-8.0303545">
        <time>2022-07-14T08:24:53Z</time>
      </trkpt>
      <trkpt lat="42.9122" lon="-8.030418">
        <time>2022-07-14T08:24:57Z</time>
      </trkpt>
      <trkpt lat="42.912212" lon="-8.03049">
        <time>2022-07-14T08:25:02Z</time>
      </trkpt>
      <trkpt lat="42.91221" lon="-8.030571">
        <time>2022-07-14T08:25:07Z</time>
      </trkpt>
      <trkpt lat="42.9122" lon="-8.030632">
        <time>2022-07-14T08:25:13Z</time>
      </trkpt>
      <trkpt lat="42.912186" lon="-8.030621">
        <time>2022-07-14T08:25:37Z</time>
      </trkpt>
      <trkpt lat="42.912174" lon="-8.030705">
        <time>2022-07-14T08:25:41Z</time>
      </trkpt>
      <trkpt lat="42.912163" lon="-8.030771">
        <time>2022-07-14T08:25:44Z</time>
      </trkpt>
      <trkpt lat="42.912163" lon="-8.030844">
        <time>2022-07-14T08:25:48Z</time>
      </trkpt>
      <trkpt lat="42.912163" lon="-8.030915">
        <time>2022-07-14T08:25:53Z</time>
      </trkpt>
      <trkpt lat="42.91216" lon="-8.030994">
        <time>2022-07-14T08:25:58Z</time>
      </trkpt>
      <trkpt lat="42.91215" lon="-8.031061">
        <time>2022-07-14T08:26:02Z</time>
      </trkpt>
      <trkpt lat="42.912144" lon="-8.031149">
        <time>2022-07-14T08:26:07Z</time>
      </trkpt>
      <trkpt lat="42.91213" lon="-8.031226">
        <time>2022-07-14T08:26:11Z</time>
      </trkpt>
      <trkpt lat="42.912113" lon="-8.0313">
        <time>2022-07-14T08:26:15Z</time>
      </trkpt>
      <trkpt lat="42.912098" lon="-8.03137">
        <time>2022-07-14T08:26:19Z</time>
      </trkpt>
      <trkpt lat="42.91207" lon="-8.031458">
        <time>2022-07-14T08:26:24Z</time>
      </trkpt>
      <trkpt lat="42.91205" lon="-8.031538">
        <time>2022-07-14T08:26:28Z</time>
      </trkpt>
      <trkpt lat="42.912037" lon="-8.031599">
        <time>2022-07-14T08:26:32Z</time>
      </trkpt>
      <trkpt lat="42.91202" lon="-8.031679">
        <time>2022-07-14T08:26:37Z</time>
      </trkpt>
      <trkpt lat="42.91201" lon="-8.0317545">
        <time>2022-07-14T08:26:41Z</time>
      </trkpt>
      <trkpt lat="42.912006" lon="-8.03183">
        <time>2022-07-14T08:26:45Z</time>
      </trkpt>
      <trkpt lat="42.912003" lon="-8.031904">
        <time>2022-07-14T08:26:49Z</time>
      </trkpt>
      <trkpt lat="42.912" lon="-8.031977">
        <time>2022-07-14T08:26:53Z</time>
      </trkpt>
      <trkpt lat="42.91201" lon="-8.032048">
        <time>2022-07-14T08:26:57Z</time>
      </trkpt>
      <trkpt lat="42.912018" lon="-8.032123">
        <time>2022-07-14T08:27:02Z</time>
      </trkpt>
      <trkpt lat="42.912025" lon="-8.032197">
        <time>2022-07-14T08:27:07Z</time>
      </trkpt>
      <trkpt lat="42.91204" lon="-8.032264">
        <time>2022-07-14T08:27:11Z</time>
      </trkpt>
      <trkpt lat="42.912056" lon="-8.032339">
        <time>2022-07-14T08:27:16Z</time>
      </trkpt>
      <trkpt lat="42.912056" lon="-8.032419">
        <time>2022-07-14T08:27:23Z</time>
      </trkpt>
      <trkpt lat="42.912045" lon="-8.032491">
        <time>2022-07-14T08:27:28Z</time>
      </trkpt>
      <trkpt lat="42.912045" lon="-8.032577">
        <time>2022-07-14T08:27:33Z</time>
      </trkpt>
      <trkpt lat="42.91203" lon="-8.032654">
        <time>2022-07-14T08:27:37Z</time>
      </trkpt>
      <trkpt lat="42.912006" lon="-8.03272">
        <time>2022-07-14T08:27:40Z</time>
      </trkpt>
      <trkpt lat="42.91199" lon="-8.032793">
        <time>2022-07-14T08:27:44Z</time>
      </trkpt>
      <trkpt lat="42.911987" lon="-8.03287">
        <time>2022-07-14T08:27:48Z</time>
      </trkpt>
      <trkpt lat="42.91199" lon="-8.032944">
        <time>2022-07-14T08:27:52Z</time>
      </trkpt>
      <trkpt lat="42.91198" lon="-8.033027">
        <time>2022-07-14T08:27:56Z</time>
      </trkpt>
      <trkpt lat="42.911976" lon="-8.033098">
        <time>2022-07-14T08:28:00Z</time>
      </trkpt>
      <trkpt lat="42.911983" lon="-8.033173">
        <time>2022-07-14T08:28:05Z</time>
      </trkpt>
      <trkpt lat="42.91198" lon="-8.0332575">
        <time>2022-07-14T08:28:10Z</time>
      </trkpt>
      <trkpt lat="42.911983" lon="-8.033336">
        <time>2022-07-14T08:28:14Z</time>
      </trkpt>
      <trkpt lat="42.911995" lon="-8.0334">
        <time>2022-07-14T08:28:18Z</time>
      </trkpt>
      <trkpt lat="42.912014" lon="-8.033466">
        <time>2022-07-14T08:28:24Z</time>
      </trkpt>
      <trkpt lat="42.912033" lon="-8.033529">
        <time>2022-07-14T08:28:29Z</time>
      </trkpt>
      <trkpt lat="42.91204" lon="-8.033614">
        <time>2022-07-14T08:28:35Z</time>
      </trkpt>
      <trkpt lat="42.912052" lon="-8.033696">
        <time>2022-07-14T08:28:41Z</time>
      </trkpt>
      <trkpt lat="42.912052" lon="-8.033778">
        <time>2022-07-14T08:28:45Z</time>
      </trkpt>
      <trkpt lat="42.912056" lon="-8.033839">
        <time>2022-07-14T08:28:48Z</time>
      </trkpt>
      <trkpt lat="42.912056" lon="-8.033919">
        <time>2022-07-14T08:28:52Z</time>
      </trkpt>
      <trkpt lat="42.912056" lon="-8.03399">
        <time>2022-07-14T08:28:56Z</time>
      </trkpt>
      <trkpt lat="42.91207" lon="-8.034061">
        <time>2022-07-14T08:29:00Z</time>
      </trkpt>
      <trkpt lat="42.912083" lon="-8.034126">
        <time>2022-07-14T08:29:04Z</time>
      </trkpt>
      <trkpt lat="42.912106" lon="-8.034198">
        <time>2022-07-14T08:29:09Z</time>
      </trkpt>
      <trkpt lat="42.91213" lon="-8.034255">
        <time>2022-07-14T08:29:13Z</time>
      </trkpt>
      <trkpt lat="42.91216" lon="-8.034335">
        <time>2022-07-14T08:29:18Z</time>
      </trkpt>
      <trkpt lat="42.91218" lon="-8.034407">
        <time>2022-07-14T08:29:23Z</time>
      </trkpt>
      <trkpt lat="42.912193" lon="-8.0344925">
        <time>2022-07-14T08:29:28Z</time>
      </trkpt>
      <trkpt lat="42.912205" lon="-8.034577">
        <time>2022-07-14T08:29:33Z</time>
      </trkpt>
      <trkpt lat="42.912205" lon="-8.034656">
        <time>2022-07-14T08:29:37Z</time>
      </trkpt>
      <trkpt lat="42.912205" lon="-8.0347395">
        <time>2022-07-14T08:29:41Z</time>
      </trkpt>
      <trkpt lat="42.912212" lon="-8.0348">
        <time>2022-07-14T08:29:44Z</time>
      </trkpt>
      <trkpt lat="42.912243" lon="-8.034868">
        <time>2022-07-14T08:29:49Z</time>
      </trkpt>
      <trkpt lat="42.91226" lon="-8.034955">
        <time>2022-07-14T08:29:54Z</time>
      </trkpt>
      <trkpt lat="42.91228" lon="-8.035036">
        <time>2022-07-14T08:29:59Z</time>
      </trkpt>
      <trkpt lat="42.912308" lon="-8.035099">
        <time>2022-07-14T08:30:03Z</time>
      </trkpt>
      <trkpt lat="42.912323" lon="-8.035181">
        <time>2022-07-14T08:30:08Z</time>
      </trkpt>
      <trkpt lat="42.912346" lon="-8.035247">
        <time>2022-07-14T08:30:12Z</time>
      </trkpt>
      <trkpt lat="42.912365" lon="-8.035315">
        <time>2022-07-14T08:30:16Z</time>
      </trkpt>
      <trkpt lat="42.912388" lon="-8.035388">
        <time>2022-07-14T08:30:21Z</time>
      </trkpt>
      <trkpt lat="42.91241" lon="-8.035453">
        <time>2022-07-14T08:30:25Z</time>
      </trkpt>
      <trkpt lat="42.912426" lon="-8.035516">
        <time>2022-07-14T08:30:29Z</time>
      </trkpt>
      <trkpt lat="42.912457" lon="-8.035584">
        <time>2022-07-14T08:30:34Z</time>
      </trkpt>
      <trkpt lat="42.912487" lon="-8.035655">
        <time>2022-07-14T08:30:39Z</time>
      </trkpt>
      <trkpt lat="42.912518" lon="-8.035734">
        <time>2022-07-14T08:30:43Z</time>
      </trkpt>
      <trkpt lat="42.912533" lon="-8.035817">
        <time>2022-07-14T08:30:47Z</time>
      </trkpt>
      <trkpt lat="42.912544" lon="-8.035894">
        <time>2022-07-14T08:30:51Z</time>
      </trkpt>
      <trkpt lat="42.912548" lon="-8.035971">
        <time>2022-07-14T08:30:55Z</time>
      </trkpt>
      <trkpt lat="42.91256" lon="-8.036052">
        <time>2022-07-14T08:31:00Z</time>
      </trkpt>
      <trkpt lat="42.912563" lon="-8.036129">
        <time>2022-07-14T08:31:04Z</time>
      </trkpt>
      <trkpt lat="42.912556" lon="-8.036208">
        <time>2022-07-14T08:31:08Z</time>
      </trkpt>
      <trkpt lat="42.912548" lon="-8.03628">
        <time>2022-07-14T08:31:12Z</time>
      </trkpt>
      <trkpt lat="42.91254" lon="-8.036355">
        <time>2022-07-14T08:31:16Z</time>
      </trkpt>
      <trkpt lat="42.91253" lon="-8.03644">
        <time>2022-07-14T08:31:21Z</time>
      </trkpt>
      <trkpt lat="42.912525" lon="-8.036528">
        <time>2022-07-14T08:31:26Z</time>
      </trkpt>
      <trkpt lat="42.912533" lon="-8.036596">
        <time>2022-07-14T08:31:30Z</time>
      </trkpt>
      <trkpt lat="42.91254" lon="-8.03667">
        <time>2022-07-14T08:31:34Z</time>
      </trkpt>
      <trkpt lat="42.912556" lon="-8.036747">
        <time>2022-07-14T08:31:39Z</time>
      </trkpt>
      <trkpt lat="42.912563" lon="-8.036817">
        <time>2022-07-14T08:31:43Z</time>
      </trkpt>
      <trkpt lat="42.912575" lon="-8.036882">
        <time>2022-07-14T08:31:47Z</time>
      </trkpt>
      <trkpt lat="42.91259" lon="-8.036962">
        <time>2022-07-14T08:31:52Z</time>
      </trkpt>
      <trkpt lat="42.912605" lon="-8.03703">
        <time>2022-07-14T08:31:56Z</time>
      </trkpt>
      <trkpt lat="42.91262" lon="-8.037099">
        <time>2022-07-14T08:32:00Z</time>
      </trkpt>
      <trkpt lat="42.912643" lon="-8.03717">
        <time>2022-07-14T08:32:04Z</time>
      </trkpt>
      <trkpt lat="42.91266" lon="-8.037242">
        <time>2022-07-14T08:32:08Z</time>
      </trkpt>
      <trkpt lat="42.912678" lon="-8.037306">
        <time>2022-07-14T08:32:12Z</time>
      </trkpt>
      <trkpt lat="42.91271" lon="-8.03737">
        <time>2022-07-14T08:32:16Z</time>
      </trkpt>
      <trkpt lat="42.91273" lon="-8.037435">
        <time>2022-07-14T08:32:20Z</time>
      </trkpt>
      <trkpt lat="42.912758" lon="-8.037494">
        <time>2022-07-14T08:32:24Z</time>
      </trkpt>
      <trkpt lat="42.912792" lon="-8.037561">
        <time>2022-07-14T08:32:29Z</time>
      </trkpt>
      <trkpt lat="42.91283" lon="-8.037618">
        <time>2022-07-14T08:32:33Z</time>
      </trkpt>
      <trkpt lat="42.912865" lon="-8.037679">
        <time>2022-07-14T08:32:37Z</time>
      </trkpt>
      <trkpt lat="42.91289" lon="-8.037735">
        <time>2022-07-14T08:32:41Z</time>
      </trkpt>
      <trkpt lat="42.912918" lon="-8.03781">
        <time>2022-07-14T08:32:46Z</time>
      </trkpt>
      <trkpt lat="42.912945" lon="-8.0378685">
        <time>2022-07-14T08:32:52Z</time>
      </trkpt>
      <trkpt lat="42.912975" lon="-8.03792">
        <time>2022-07-14T08:32:58Z</time>
      </trkpt>
      <trkpt lat="42.91301" lon="-8.037978">
        <time>2022-07-14T08:33:06Z</time>
      </trkpt>
      <trkpt lat="42.91303" lon="-8.038048">
        <time>2022-07-14T08:33:12Z</time>
      </trkpt>
      <trkpt lat="42.913048" lon="-8.038122">
        <time>2022-07-14T08:33:17Z</time>
      </trkpt>
      <trkpt lat="42.913074" lon="-8.038194">
        <time>2022-07-14T08:33:21Z</time>
      </trkpt>
      <trkpt lat="42.91309" lon="-8.03826">
        <time>2022-07-14T08:33:25Z</time>
      </trkpt>
      <trkpt lat="42.91311" lon="-8.038314">
        <time>2022-07-14T08:33:30Z</time>
      </trkpt>
      <trkpt lat="42.913136" lon="-8.038379">
        <time>2022-07-14T08:33:36Z</time>
      </trkpt>
      <trkpt lat="42.91315" lon="-8.038461">
        <time>2022-07-14T08:33:42Z</time>
      </trkpt>
      <trkpt lat="42.913185" lon="-8.038534">
        <time>2022-07-14T08:33:47Z</time>
      </trkpt>
      <trkpt lat="42.91322" lon="-8.038591">
        <time>2022-07-14T08:33:50Z</time>
      </trkpt>
      <trkpt lat="42.913254" lon="-8.038651">
        <time>2022-07-14T08:33:54Z</time>
      </trkpt>
      <trkpt lat="42.913284" lon="-8.038725">
        <time>2022-07-14T08:33:59Z</time>
      </trkpt>
      <trkpt lat="42.9133" lon="-8.038789">
        <time>2022-07-14T08:34:03Z</time>
      </trkpt>
      <trkpt lat="42.913338" lon="-8.038852">
        <time>2022-07-14T08:34:10Z</time>
      </trkpt>
      <trkpt lat="42.913364" lon="-8.038912">
        <time>2022-07-14T08:34:14Z</time>
      </trkpt>
      <trkpt lat="42.913387" lon="-8.038982">
        <time>2022-07-14T08:34:18Z</time>
      </trkpt>
      <trkpt lat="42.91342" lon="-8.039037">
        <time>2022-07-14T08:34:22Z</time>
      </trkpt>
      <trkpt lat="42.913452" lon="-8.039095">
        <time>2022-07-14T08:34:27Z</time>
      </trkpt>
      <trkpt lat="42.913483" lon="-8.039161">
        <time>2022-07-14T08:34:32Z</time>
      </trkpt>
      <trkpt lat="42.913517" lon="-8.039227">
        <time>2022-07-14T08:34:36Z</time>
      </trkpt>
      <trkpt lat="42.913548" lon="-8.039287">
        <time>2022-07-14T08:34:40Z</time>
      </trkpt>
      <trkpt lat="42.913597" lon="-8.03934">
        <time>2022-07-14T08:34:45Z</time>
      </trkpt>
      <trkpt lat="42.913662" lon="-8.039376">
        <time>2022-07-14T08:34:49Z</time>
      </trkpt>
      <trkpt lat="42.913704" lon="-8.039392">
        <time>2022-07-14T08:34:52Z</time>
      </trkpt>
      <trkpt lat="42.913754" lon="-8.039423">
        <time>2022-07-14T08:34:56Z</time>
      </trkpt>
      <trkpt lat="42.913795" lon="-8.039464">
        <time>2022-07-14T08:35:00Z</time>
      </trkpt>
      <trkpt lat="42.91384" lon="-8.03951">
        <time>2022-07-14T08:35:05Z</time>
      </trkpt>
      <trkpt lat="42.913887" lon="-8.039561">
        <time>2022-07-14T08:35:12Z</time>
      </trkpt>
      <trkpt lat="42.913925" lon="-8.03961">
        <time>2022-07-14T08:35:18Z</time>
      </trkpt>
      <trkpt lat="42.913963" lon="-8.03967">
        <time>2022-07-14T08:35:24Z</time>
      </trkpt>
      <trkpt lat="42.914005" lon="-8.039737">
        <time>2022-07-14T08:35:29Z</time>
      </trkpt>
      <trkpt lat="42.91404" lon="-8.039792">
        <time>2022-07-14T08:35:33Z</time>
      </trkpt>
      <trkpt lat="42.914085" lon="-8.039837">
        <time>2022-07-14T08:35:37Z</time>
      </trkpt>
      <trkpt lat="42.91412" lon="-8.03988">
        <time>2022-07-14T08:35:40Z</time>
      </trkpt>
      <trkpt lat="42.91417" lon="-8.039921">
        <time>2022-07-14T08:35:44Z</time>
      </trkpt>
      <trkpt lat="42.91421" lon="-8.039965">
        <time>2022-07-14T08:35:48Z</time>
      </trkpt>
      <trkpt lat="42.914253" lon="-8.040018">
        <time>2022-07-14T08:35:53Z</time>
      </trkpt>
      <trkpt lat="42.9143" lon="-8.040053">
        <time>2022-07-14T08:35:58Z</time>
      </trkpt>
      <trkpt lat="42.91435" lon="-8.040103">
        <time>2022-07-14T08:36:03Z</time>
      </trkpt>
      <trkpt lat="42.914387" lon="-8.040149">
        <time>2022-07-14T08:36:07Z</time>
      </trkpt>
      <trkpt lat="42.914436" lon="-8.04019">
        <time>2022-07-14T08:36:11Z</time>
      </trkpt>
      <trkpt lat="42.914474" lon="-8.040238">
        <time>2022-07-14T08:36:15Z</time>
      </trkpt>
      <trkpt lat="42.914513" lon="-8.040287">
        <time>2022-07-14T08:36:19Z</time>
      </trkpt>
      <trkpt lat="42.91455" lon="-8.040334">
        <time>2022-07-14T08:36:23Z</time>
      </trkpt>
      <trkpt lat="42.9146" lon="-8.040374">
        <time>2022-07-14T08:36:29Z</time>
      </trkpt>
      <trkpt lat="42.914646" lon="-8.040429">
        <time>2022-07-14T08:36:34Z</time>
      </trkpt>
      <trkpt lat="42.914692" lon="-8.040475">
        <time>2022-07-14T08:36:39Z</time>
      </trkpt>
      <trkpt lat="42.91473" lon="-8.040513">
        <time>2022-07-14T08:36:43Z</time>
      </trkpt>
      <trkpt lat="42.914772" lon="-8.040577">
        <time>2022-07-14T08:36:48Z</time>
      </trkpt>
      <trkpt lat="42.91482" lon="-8.040631">
        <time>2022-07-14T08:36:54Z</time>
      </trkpt>
      <trkpt lat="42.91487" lon="-8.040688">
        <time>2022-07-14T08:36:59Z</time>
      </trkpt>
      <trkpt lat="42.914917" lon="-8.040735">
        <time>2022-07-14T08:37:04Z</time>
      </trkpt>
      <trkpt lat="42.91496" lon="-8.040813">
        <time>2022-07-14T08:37:09Z</time>
      </trkpt>
      <trkpt lat="42.914986" lon="-8.040873">
        <time>2022-07-14T08:37:13Z</time>
      </trkpt>
      <trkpt lat="42.915028" lon="-8.040934">
        <time>2022-07-14T08:37:17Z</time>
      </trkpt>
      <trkpt lat="42.915066" lon="-8.04099">
        <time>2022-07-14T08:37:21Z</time>
      </trkpt>
      <trkpt lat="42.915104" lon="-8.041039">
        <time>2022-07-14T08:37:26Z</time>
      </trkpt>
      <trkpt lat="42.915146" lon="-8.0411">
        <time>2022-07-14T08:37:31Z</time>
      </trkpt>
      <trkpt lat="42.915176" lon="-8.041172">
        <time>2022-07-14T08:37:35Z</time>
      </trkpt>
      <trkpt lat="42.915215" lon="-8.041235">
        <time>2022-07-14T08:37:40Z</time>
      </trkpt>
      <trkpt lat="42.91525" lon="-8.041294">
        <time>2022-07-14T08:37:45Z</time>
      </trkpt>
      <trkpt lat="42.915283" lon="-8.041364">
        <time>2022-07-14T08:37:50Z</time>
      </trkpt>
      <trkpt lat="42.9153" lon="-8.041438">
        <time>2022-07-14T08:37:55Z</time>
      </trkpt>
      <trkpt lat="42.915287" lon="-8.041502">
        <time>2022-07-14T08:38:00Z</time>
      </trkpt>
      <trkpt lat="42.915283" lon="-8.041585">
        <time>2022-07-14T08:38:05Z</time>
      </trkpt>
      <trkpt lat="42.91529" lon="-8.041658">
        <time>2022-07-14T08:38:10Z</time>
      </trkpt>
      <trkpt lat="42.9153" lon="-8.041743">
        <time>2022-07-14T08:38:45Z</time>
      </trkpt>
      <trkpt lat="42.915356" lon="-8.041782">
        <time>2022-07-14T08:38:58Z</time>
      </trkpt>
      <trkpt lat="42.915398" lon="-8.041839">
        <time>2022-07-14T08:39:01Z</time>
      </trkpt>
      <trkpt lat="42.915436" lon="-8.041895">
        <time>2022-07-14T08:39:04Z</time>
      </trkpt>
      <trkpt lat="42.915466" lon="-8.041935">
        <time>2022-07-14T08:39:07Z</time>
      </trkpt>
      <trkpt lat="42.9155" lon="-8.041998">
        <time>2022-07-14T08:39:12Z</time>
      </trkpt>
      <trkpt lat="42.91553" lon="-8.042057">
        <time>2022-07-14T08:39:18Z</time>
      </trkpt>
      <trkpt lat="42.915554" lon="-8.042127">
        <time>2022-07-14T08:39:23Z</time>
      </trkpt>
      <trkpt lat="42.91561" lon="-8.042151">
        <time>2022-07-14T08:39:29Z</time>
      </trkpt>
      <trkpt lat="42.915672" lon="-8.04218">
        <time>2022-07-14T08:39:35Z</time>
      </trkpt>
      <trkpt lat="42.91572" lon="-8.042212">
        <time>2022-07-14T08:39:39Z</time>
      </trkpt>
      <trkpt lat="42.915768" lon="-8.042248">
        <time>2022-07-14T08:39:45Z</time>
      </trkpt>
      <trkpt lat="42.915825" lon="-8.042274">
        <time>2022-07-14T08:39:51Z</time>
      </trkpt>
      <trkpt lat="42.915863" lon="-8.0423">
        <time>2022-07-14T08:39:57Z</time>
      </trkpt>
      <trkpt lat="42.915916" lon="-8.042344">
        <time>2022-07-14T08:40:04Z</time>
      </trkpt>
      <trkpt lat="42.915955" lon="-8.042388">
        <time>2022-07-14T08:40:08Z</time>
      </trkpt>
      <trkpt lat="42.9161" lon="-8.042417">
        <time>2022-07-14T08:40:43Z</time>
      </trkpt>
      <trkpt lat="42.916153" lon="-8.042475">
        <time>2022-07-14T08:40:50Z</time>
      </trkpt>
      <trkpt lat="42.916195" lon="-8.042519">
        <time>2022-07-14T08:40:55Z</time>
      </trkpt>
      <trkpt lat="42.916233" lon="-8.042573">
        <time>2022-07-14T08:41:00Z</time>
      </trkpt>
      <trkpt lat="42.916264" lon="-8.042622">
        <time>2022-07-14T08:41:05Z</time>
      </trkpt>
      <trkpt lat="42.916264" lon="-8.042691">
        <time>2022-07-14T08:41:11Z</time>
      </trkpt>
      <trkpt lat="42.91626" lon="-8.042777">
        <time>2022-07-14T08:41:20Z</time>
      </trkpt>
      <trkpt lat="42.916237" lon="-8.042844">
        <time>2022-07-14T08:41:25Z</time>
      </trkpt>
      <trkpt lat="42.916225" lon="-8.042923">
        <time>2022-07-14T08:41:29Z</time>
      </trkpt>
      <trkpt lat="42.916218" lon="-8.043">
        <time>2022-07-14T08:41:33Z</time>
      </trkpt>
      <trkpt lat="42.91623" lon="-8.043056">
        <time>2022-07-14T08:41:37Z</time>
      </trkpt>
      <trkpt lat="42.91626" lon="-8.043138">
        <time>2022-07-14T08:41:48Z</time>
      </trkpt>
      <trkpt lat="42.91627" lon="-8.04321">
        <time>2022-07-14T08:41:53Z</time>
      </trkpt>
      <trkpt lat="42.916283" lon="-8.043293">
        <time>2022-07-14T08:41:58Z</time>
      </trkpt>
      <trkpt lat="42.91628" lon="-8.043367">
        <time>2022-07-14T08:42:02Z</time>
      </trkpt>
      <trkpt lat="42.916283" lon="-8.043452">
        <time>2022-07-14T08:42:07Z</time>
      </trkpt>
      <trkpt lat="42.916283" lon="-8.043543">
        <time>2022-07-14T08:42:12Z</time>
      </trkpt>
      <trkpt lat="42.916283" lon="-8.043607">
        <time>2022-07-14T08:42:16Z</time>
      </trkpt>
      <trkpt lat="42.916294" lon="-8.043688">
        <time>2022-07-14T08:42:22Z</time>
      </trkpt>
      <trkpt lat="42.916298" lon="-8.043758">
        <time>2022-07-14T08:42:27Z</time>
      </trkpt>
      <trkpt lat="42.916306" lon="-8.043831">
        <time>2022-07-14T08:42:32Z</time>
      </trkpt>
      <trkpt lat="42.91631" lon="-8.043904">
        <time>2022-07-14T08:42:37Z</time>
      </trkpt>
      <trkpt lat="42.916313" lon="-8.043975">
        <time>2022-07-14T08:42:41Z</time>
      </trkpt>
      <trkpt lat="42.916317" lon="-8.044051">
        <time>2022-07-14T08:42:45Z</time>
      </trkpt>
      <trkpt lat="42.916325" lon="-8.044119">
        <time>2022-07-14T08:42:49Z</time>
      </trkpt>
      <trkpt lat="42.91632" lon="-8.044193">
        <time>2022-07-14T08:42:54Z</time>
      </trkpt>
      <trkpt lat="42.916313" lon="-8.044274">
        <time>2022-07-14T08:42:59Z</time>
      </trkpt>
      <trkpt lat="42.916332" lon="-8.044346">
        <time>2022-07-14T08:43:04Z</time>
      </trkpt>
      <trkpt lat="42.916355" lon="-8.044394">
        <time>2022-07-14T08:43:09Z</time>
      </trkpt>
      <trkpt lat="42.91637" lon="-8.044478">
        <time>2022-07-14T08:43:17Z</time>
      </trkpt>
      <trkpt lat="42.916374" lon="-8.044535">
        <time>2022-07-14T08:43:22Z</time>
      </trkpt>
      <trkpt lat="42.91637" lon="-8.044613">
        <time>2022-07-14T08:43:30Z</time>
      </trkpt>
      <trkpt lat="42.916348" lon="-8.044682">
        <time>2022-07-14T08:43:35Z</time>
      </trkpt>
      <trkpt lat="42.91633" lon="-8.044755">
        <time>2022-07-14T08:43:41Z</time>
      </trkpt>
      <trkpt lat="42.91632" lon="-8.044829">
        <time>2022-07-14T08:43:46Z</time>
      </trkpt>
      <trkpt lat="42.916317" lon="-8.044922">
        <time>2022-07-14T08:43:51Z</time>
      </trkpt>
      <trkpt lat="42.916313" lon="-8.044987">
        <time>2022-07-14T08:43:55Z</time>
      </trkpt>
      <trkpt lat="42.916294" lon="-8.045066">
        <time>2022-07-14T08:44:02Z</time>
      </trkpt>
      <trkpt lat="42.916275" lon="-8.04513">
        <time>2022-07-14T08:44:06Z</time>
      </trkpt>
      <trkpt lat="42.916256" lon="-8.045196">
        <time>2022-07-14T08:44:10Z</time>
      </trkpt>
      <trkpt lat="42.91626" lon="-8.045264">
        <time>2022-07-14T08:44:15Z</time>
      </trkpt>
      <trkpt lat="42.916252" lon="-8.045347">
        <time>2022-07-14T08:44:21Z</time>
      </trkpt>
      <trkpt lat="42.91624" lon="-8.045415">
        <time>2022-07-14T08:44:25Z</time>
      </trkpt>
      <trkpt lat="42.91622" lon="-8.045492">
        <time>2022-07-14T08:44:30Z</time>
      </trkpt>
      <trkpt lat="42.916203" lon="-8.045569">
        <time>2022-07-14T08:44:35Z</time>
      </trkpt>
      <trkpt lat="42.916183" lon="-8.045641">
        <time>2022-07-14T08:44:39Z</time>
      </trkpt>
      <trkpt lat="42.916164" lon="-8.04571">
        <time>2022-07-14T08:44:43Z</time>
      </trkpt>
      <trkpt lat="42.916145" lon="-8.045762">
        <time>2022-07-14T08:44:47Z</time>
      </trkpt>
      <trkpt lat="42.916126" lon="-8.045835">
        <time>2022-07-14T08:44:53Z</time>
      </trkpt>
      <trkpt lat="42.916107" lon="-8.045899">
        <time>2022-07-14T08:44:59Z</time>
      </trkpt>
      <trkpt lat="42.916092" lon="-8.045968">
        <time>2022-07-14T08:45:06Z</time>
      </trkpt>
      <trkpt lat="42.916065" lon="-8.046059">
        <time>2022-07-14T08:45:13Z</time>
      </trkpt>
      <trkpt lat="42.91604" lon="-8.046124">
        <time>2022-07-14T08:45:16Z</time>
      </trkpt>
      <trkpt lat="42.91601" lon="-8.046189">
        <time>2022-07-14T08:45:19Z</time>
      </trkpt>
      <trkpt lat="42.915977" lon="-8.046256">
        <time>2022-07-14T08:45:22Z</time>
      </trkpt>
      <trkpt lat="42.91596" lon="-8.046315">
        <time>2022-07-14T08:45:25Z</time>
      </trkpt>
      <trkpt lat="42.915966" lon="-8.046385">
        <time>2022-07-14T08:45:29Z</time>
      </trkpt>
      <trkpt lat="42.91598" lon="-8.046457">
        <time>2022-07-14T08:45:33Z</time>
      </trkpt>
      <trkpt lat="42.91602" lon="-8.04652">
        <time>2022-07-14T08:45:37Z</time>
      </trkpt>
      <trkpt lat="42.916042" lon="-8.046583">
        <time>2022-07-14T08:45:41Z</time>
      </trkpt>
      <trkpt lat="42.916054" lon="-8.046659">
        <time>2022-07-14T08:45:46Z</time>
      </trkpt>
      <trkpt lat="42.91608" lon="-8.046712">
        <time>2022-07-14T08:45:50Z</time>
      </trkpt>
      <trkpt lat="42.916115" lon="-8.046769">
        <time>2022-07-14T08:45:55Z</time>
      </trkpt>
      <trkpt lat="42.91615" lon="-8.046826">
        <time>2022-07-14T08:46:00Z</time>
      </trkpt>
      <trkpt lat="42.91618" lon="-8.046885">
        <time>2022-07-14T08:46:05Z</time>
      </trkpt>
      <trkpt lat="42.91623" lon="-8.04694">
        <time>2022-07-14T08:46:10Z</time>
      </trkpt>
      <trkpt lat="42.91628" lon="-8.046987">
        <time>2022-07-14T08:46:14Z</time>
      </trkpt>
      <trkpt lat="42.916317" lon="-8.047037">
        <time>2022-07-14T08:46:18Z</time>
      </trkpt>
      <trkpt lat="42.916363" lon="-8.047094">
        <time>2022-07-14T08:46:23Z</time>
      </trkpt>
      <trkpt lat="42.916397" lon="-8.04715">
        <time>2022-07-14T08:46:27Z</time>
      </trkpt>
      <trkpt lat="42.916435" lon="-8.047217">
        <time>2022-07-14T08:46:33Z</time>
      </trkpt>
      <trkpt lat="42.916473" lon="-8.047282">
        <time>2022-07-14T08:46:38Z</time>
      </trkpt>
      <trkpt lat="42.916492" lon="-8.047353">
        <time>2022-07-14T08:46:42Z</time>
      </trkpt>
      <trkpt lat="42.916527" lon="-8.047424">
        <time>2022-07-14T08:46:47Z</time>
      </trkpt>
      <trkpt lat="42.916557" lon="-8.047486">
        <time>2022-07-14T08:46:51Z</time>
      </trkpt>
      <trkpt lat="42.91659" lon="-8.047545">
        <time>2022-07-14T08:46:56Z</time>
      </trkpt>
      <trkpt lat="42.91663" lon="-8.0476055">
        <time>2022-07-14T08:47:01Z</time>
      </trkpt>
      <trkpt lat="42.91666" lon="-8.047666">
        <time>2022-07-14T08:47:06Z</time>
      </trkpt>
      <trkpt lat="42.916687" lon="-8.047732">
        <time>2022-07-14T08:47:11Z</time>
      </trkpt>
      <trkpt lat="42.916706" lon="-8.047806">
        <time>2022-07-14T08:47:16Z</time>
      </trkpt>
      <trkpt lat="42.916725" lon="-8.047885">
        <time>2022-07-14T08:47:21Z</time>
      </trkpt>
      <trkpt lat="42.916733" lon="-8.047963">
        <time>2022-07-14T08:47:26Z</time>
      </trkpt>
      <trkpt lat="42.916737" lon="-8.048032">
        <time>2022-07-14T08:47:30Z</time>
      </trkpt>
      <trkpt lat="42.91674" lon="-8.048097">
        <time>2022-07-14T08:47:34Z</time>
      </trkpt>
      <trkpt lat="42.916748" lon="-8.048178">
        <time>2022-07-14T08:47:39Z</time>
      </trkpt>
      <trkpt lat="42.916748" lon="-8.048245">
        <time>2022-07-14T08:47:43Z</time>
      </trkpt>
      <trkpt lat="42.91674" lon="-8.048328">
        <time>2022-07-14T08:47:48Z</time>
      </trkpt>
      <trkpt lat="42.91673" lon="-8.048391">
        <time>2022-07-14T08:47:52Z</time>
      </trkpt>
      <trkpt lat="42.91671" lon="-8.048467">
        <time>2022-07-14T08:47:57Z</time>
      </trkpt>
      <trkpt lat="42.916687" lon="-8.048535">
        <time>2022-07-14T08:48:01Z</time>
      </trkpt>
      <trkpt lat="42.91666" lon="-8.048593">
        <time>2022-07-14T08:48:05Z</time>
      </trkpt>
      <trkpt lat="42.916637" lon="-8.048657">
        <time>2022-07-14T08:48:09Z</time>
      </trkpt>
      <trkpt lat="42.91662" lon="-8.048724">
        <time>2022-07-14T08:48:13Z</time>
      </trkpt>
      <trkpt lat="42.91659" lon="-8.048801">
        <time>2022-07-14T08:48:18Z</time>
      </trkpt>
      <trkpt lat="42.9166" lon="-8.048878">
        <time>2022-07-14T08:48:23Z</time>
      </trkpt>
      <trkpt lat="42.916626" lon="-8.048936">
        <time>2022-07-14T08:48:28Z</time>
      </trkpt>
      <trkpt lat="42.91667" lon="-8.048962">
        <time>2022-07-14T08:48:34Z</time>
      </trkpt>
      <trkpt lat="42.916725" lon="-8.048995">
        <time>2022-07-14T08:48:39Z</time>
      </trkpt>
      <trkpt lat="42.916767" lon="-8.049039">
        <time>2022-07-14T08:48:44Z</time>
      </trkpt>
      <trkpt lat="42.91682" lon="-8.049077">
        <time>2022-07-14T08:48:49Z</time>
      </trkpt>
      <trkpt lat="42.916878" lon="-8.04912">
        <time>2022-07-14T08:48:54Z</time>
      </trkpt>
      <trkpt lat="42.91692" lon="-8.049176">
        <time>2022-07-14T08:48:59Z</time>
      </trkpt>
      <trkpt lat="42.916958" lon="-8.049249">
        <time>2022-07-14T08:49:05Z</time>
      </trkpt>
      <trkpt lat="42.917" lon="-8.049304">
        <time>2022-07-14T08:49:10Z</time>
      </trkpt>
      <trkpt lat="42.91705" lon="-8.049347">
        <time>2022-07-14T08:49:14Z</time>
      </trkpt>
      <trkpt lat="42.917084" lon="-8.049398">
        <time>2022-07-14T08:49:18Z</time>
      </trkpt>
      <trkpt lat="42.917126" lon="-8.04945">
        <time>2022-07-14T08:49:22Z</time>
      </trkpt>
      <trkpt lat="42.917164" lon="-8.049507">
        <time>2022-07-14T08:49:27Z</time>
      </trkpt>
      <trkpt lat="42.91721" lon="-8.049559">
        <time>2022-07-14T08:49:32Z</time>
      </trkpt>
      <trkpt lat="42.91725" lon="-8.049603">
        <time>2022-07-14T08:49:36Z</time>
      </trkpt>
      <trkpt lat="42.917286" lon="-8.049655">
        <time>2022-07-14T08:49:41Z</time>
      </trkpt>
      <trkpt lat="42.917313" lon="-8.049721">
        <time>2022-07-14T08:49:46Z</time>
      </trkpt>
      <trkpt lat="42.917347" lon="-8.04978">
        <time>2022-07-14T08:49:52Z</time>
      </trkpt>
      <trkpt lat="42.91738" lon="-8.049825">
        <time>2022-07-14T08:49:56Z</time>
      </trkpt>
      <trkpt lat="42.91741" lon="-8.049883">
        <time>2022-07-14T08:50:01Z</time>
      </trkpt>
      <trkpt lat="42.91743" lon="-8.049966">
        <time>2022-07-14T08:50:06Z</time>
      </trkpt>
      <trkpt lat="42.917435" lon="-8.0500345">
        <time>2022-07-14T08:50:10Z</time>
      </trkpt>
      <trkpt lat="42.91744" lon="-8.050104">
        <time>2022-07-14T08:50:14Z</time>
      </trkpt>
      <trkpt lat="42.917442" lon="-8.050177">
        <time>2022-07-14T08:50:18Z</time>
      </trkpt>
      <trkpt lat="42.91745" lon="-8.05025">
        <time>2022-07-14T08:50:22Z</time>
      </trkpt>
      <trkpt lat="42.917465" lon="-8.050316">
        <time>2022-07-14T08:50:26Z</time>
      </trkpt>
      <trkpt lat="42.917473" lon="-8.050395">
        <time>2022-07-14T08:50:31Z</time>
      </trkpt>
      <trkpt lat="42.91748" lon="-8.050474">
        <time>2022-07-14T08:50:36Z</time>
      </trkpt>
      <trkpt lat="42.917484" lon="-8.050563">
        <time>2022-07-14T08:50:41Z</time>
      </trkpt>
      <trkpt lat="42.91749" lon="-8.050632">
        <time>2022-07-14T08:50:45Z</time>
      </trkpt>
      <trkpt lat="42.9175" lon="-8.050721">
        <time>2022-07-14T08:50:50Z</time>
      </trkpt>
      <trkpt lat="42.917515" lon="-8.0508">
        <time>2022-07-14T08:50:55Z</time>
      </trkpt>
      <trkpt lat="42.91753" lon="-8.050868">
        <time>2022-07-14T08:51:00Z</time>
      </trkpt>
      <trkpt lat="42.917538" lon="-8.050941">
        <time>2022-07-14T08:51:05Z</time>
      </trkpt>
      <trkpt lat="42.917545" lon="-8.051008">
        <time>2022-07-14T08:51:11Z</time>
      </trkpt>
      <trkpt lat="42.91756" lon="-8.051088">
        <time>2022-07-14T08:51:18Z</time>
      </trkpt>
      <trkpt lat="42.917576" lon="-8.051169">
        <time>2022-07-14T08:51:23Z</time>
      </trkpt>
      <trkpt lat="42.917587" lon="-8.051255">
        <time>2022-07-14T08:51:28Z</time>
      </trkpt>
      <trkpt lat="42.917587" lon="-8.051326">
        <time>2022-07-14T08:51:32Z</time>
      </trkpt>
      <trkpt lat="42.91759" lon="-8.051413">
        <time>2022-07-14T08:51:37Z</time>
      </trkpt>
      <trkpt lat="42.917603" lon="-8.051489">
        <time>2022-07-14T08:51:42Z</time>
      </trkpt>
      <trkpt lat="42.91761" lon="-8.051562">
        <time>2022-07-14T08:51:47Z</time>
      </trkpt>
      <trkpt lat="42.91761" lon="-8.051631">
        <time>2022-07-14T08:51:53Z</time>
      </trkpt>
      <trkpt lat="42.917553" lon="-8.051673">
        <time>2022-07-14T08:52:02Z</time>
      </trkpt>
      <trkpt lat="42.917492" lon="-8.051727">
        <time>2022-07-14T08:52:08Z</time>
      </trkpt>
      <trkpt lat="42.917442" lon="-8.05176">
        <time>2022-07-14T08:52:12Z</time>
      </trkpt>
      <trkpt lat="42.91739" lon="-8.051783">
        <time>2022-07-14T08:52:16Z</time>
      </trkpt>
      <trkpt lat="42.917328" lon="-8.051801">
        <time>2022-07-14T08:52:21Z</time>
      </trkpt>
      <trkpt lat="42.917282" lon="-8.051825">
        <time>2022-07-14T08:52:25Z</time>
      </trkpt>
      <trkpt lat="42.91723" lon="-8.051869">
        <time>2022-07-14T08:52:29Z</time>
      </trkpt>
      <trkpt lat="42.917187" lon="-8.051908">
        <time>2022-07-14T08:52:33Z</time>
      </trkpt>
      <trkpt lat="42.91713" lon="-8.051935">
        <time>2022-07-14T08:52:39Z</time>
      </trkpt>
      <trkpt lat="42.917088" lon="-8.051957">
        <time>2022-07-14T08:52:44Z</time>
      </trkpt>
      <trkpt lat="42.917034" lon="-8.052005">
        <time>2022-07-14T08:52:51Z</time>
      </trkpt>
      <trkpt lat="42.916996" lon="-8.052053">
        <time>2022-07-14T08:52:57Z</time>
      </trkpt>
      <trkpt lat="42.916954" lon="-8.052116">
        <time>2022-07-14T08:53:03Z</time>
      </trkpt>
      <trkpt lat="42.916924" lon="-8.052176">
        <time>2022-07-14T08:53:07Z</time>
      </trkpt>
      <trkpt lat="42.916897" lon="-8.052242">
        <time>2022-07-14T08:53:11Z</time>
      </trkpt>
      <trkpt lat="42.916878" lon="-8.052312">
        <time>2022-07-14T08:53:15Z</time>
      </trkpt>
      <trkpt lat="42.916866" lon="-8.052387">
        <time>2022-07-14T08:53:19Z</time>
      </trkpt>
      <trkpt lat="42.916843" lon="-8.052481">
        <time>2022-07-14T08:53:23Z</time>
      </trkpt>
      <trkpt lat="42.916824" lon="-8.052541">
        <time>2022-07-14T08:53:26Z</time>
      </trkpt>
      <trkpt lat="42.916813" lon="-8.052613">
        <time>2022-07-14T08:53:30Z</time>
      </trkpt>
      <trkpt lat="42.916798" lon="-8.052683">
        <time>2022-07-14T08:53:34Z</time>
      </trkpt>
      <trkpt lat="42.916775" lon="-8.052761">
        <time>2022-07-14T08:53:39Z</time>
      </trkpt>
      <trkpt lat="42.91675" lon="-8.052824">
        <time>2022-07-14T08:53:43Z</time>
      </trkpt>
      <trkpt lat="42.916733" lon="-8.052898">
        <time>2022-07-14T08:53:48Z</time>
      </trkpt>
      <trkpt lat="42.916714" lon="-8.052961">
        <time>2022-07-14T08:53:53Z</time>
      </trkpt>
      <trkpt lat="42.916683" lon="-8.053026">
        <time>2022-07-14T08:53:59Z</time>
      </trkpt>
      <trkpt lat="42.916653" lon="-8.053091">
        <time>2022-07-14T08:54:03Z</time>
      </trkpt>
      <trkpt lat="42.916622" lon="-8.053149">
        <time>2022-07-14T08:54:07Z</time>
      </trkpt>
      <trkpt lat="42.9166" lon="-8.05321">
        <time>2022-07-14T08:54:13Z</time>
      </trkpt>
      <trkpt lat="42.916553" lon="-8.053288">
        <time>2022-07-14T08:54:19Z</time>
      </trkpt>
      <trkpt lat="42.91653" lon="-8.053347">
        <time>2022-07-14T08:54:24Z</time>
      </trkpt>
      <trkpt lat="42.916492" lon="-8.053404">
        <time>2022-07-14T08:54:29Z</time>
      </trkpt>
      <trkpt lat="42.916466" lon="-8.053468">
        <time>2022-07-14T08:54:34Z</time>
      </trkpt>
      <trkpt lat="42.91644" lon="-8.053523">
        <time>2022-07-14T08:54:39Z</time>
      </trkpt>
      <trkpt lat="42.91641" lon="-8.053586">
        <time>2022-07-14T08:54:44Z</time>
      </trkpt>
      <trkpt lat="42.916386" lon="-8.053649">
        <time>2022-07-14T08:54:49Z</time>
      </trkpt>
      <trkpt lat="42.91636" lon="-8.053725">
        <time>2022-07-14T08:54:54Z</time>
      </trkpt>
      <trkpt lat="42.916332" lon="-8.053789">
        <time>2022-07-14T08:54:58Z</time>
      </trkpt>
      <trkpt lat="42.916306" lon="-8.053861">
        <time>2022-07-14T08:55:03Z</time>
      </trkpt>
      <trkpt lat="42.916267" lon="-8.05392">
        <time>2022-07-14T08:55:09Z</time>
      </trkpt>
      <trkpt lat="42.916225" lon="-8.053962">
        <time>2022-07-14T08:55:13Z</time>
      </trkpt>
      <trkpt lat="42.916187" lon="-8.054014">
        <time>2022-07-14T08:55:17Z</time>
      </trkpt>
      <trkpt lat="42.916157" lon="-8.05409">
        <time>2022-07-14T08:55:21Z</time>
      </trkpt>
      <trkpt lat="42.916115" lon="-8.054162">
        <time>2022-07-14T08:55:25Z</time>
      </trkpt>
      <trkpt lat="42.91609" lon="-8.054219">
        <time>2022-07-14T08:55:28Z</time>
      </trkpt>
      <trkpt lat="42.916065" lon="-8.054288">
        <time>2022-07-14T08:55:32Z</time>
      </trkpt>
      <trkpt lat="42.916046" lon="-8.054361">
        <time>2022-07-14T08:55:37Z</time>
      </trkpt>
      <trkpt lat="42.916027" lon="-8.054431">
        <time>2022-07-14T08:55:42Z</time>
      </trkpt>
      <trkpt lat="42.916008" lon="-8.054497">
        <time>2022-07-14T08:55:47Z</time>
      </trkpt>
      <trkpt lat="42.915974" lon="-8.054561">
        <time>2022-07-14T08:55:52Z</time>
      </trkpt>
      <trkpt lat="42.91595" lon="-8.054629">
        <time>2022-07-14T08:55:58Z</time>
      </trkpt>
      <trkpt lat="42.915916" lon="-8.054695">
        <time>2022-07-14T08:56:03Z</time>
      </trkpt>
      <trkpt lat="42.915897" lon="-8.054763">
        <time>2022-07-14T08:56:08Z</time>
      </trkpt>
      <trkpt lat="42.91586" lon="-8.054842">
        <time>2022-07-14T08:56:13Z</time>
      </trkpt>
      <trkpt lat="42.915836" lon="-8.054909">
        <time>2022-07-14T08:56:17Z</time>
      </trkpt>
      <trkpt lat="42.915825" lon="-8.054981">
        <time>2022-07-14T08:56:22Z</time>
      </trkpt>
      <trkpt lat="42.9158" lon="-8.055068">
        <time>2022-07-14T08:56:27Z</time>
      </trkpt>
      <trkpt lat="42.915783" lon="-8.055146">
        <time>2022-07-14T08:56:31Z</time>
      </trkpt>
      <trkpt lat="42.915768" lon="-8.055223">
        <time>2022-07-14T08:56:35Z</time>
      </trkpt>
      <trkpt lat="42.915745" lon="-8.055299">
        <time>2022-07-14T08:56:39Z</time>
      </trkpt>
      <trkpt lat="42.91571" lon="-8.055371">
        <time>2022-07-14T08:56:42Z</time>
      </trkpt>
      <trkpt lat="42.915695" lon="-8.055432">
        <time>2022-07-14T08:56:45Z</time>
      </trkpt>
      <trkpt lat="42.915676" lon="-8.055507">
        <time>2022-07-14T08:56:49Z</time>
      </trkpt>
      <trkpt lat="42.915707" lon="-8.055552">
        <time>2022-07-14T08:56:56Z</time>
      </trkpt>
      <trkpt lat="42.91569" lon="-8.055614">
        <time>2022-07-14T08:57:02Z</time>
      </trkpt>
      <trkpt lat="42.915672" lon="-8.055682">
        <time>2022-07-14T08:57:06Z</time>
      </trkpt>
      <trkpt lat="42.915653" lon="-8.055768">
        <time>2022-07-14T08:57:11Z</time>
      </trkpt>
      <trkpt lat="42.915638" lon="-8.055832">
        <time>2022-07-14T08:57:15Z</time>
      </trkpt>
      <trkpt lat="42.91562" lon="-8.055913">
        <time>2022-07-14T08:57:20Z</time>
      </trkpt>
      <trkpt lat="42.915607" lon="-8.055988">
        <time>2022-07-14T08:57:24Z</time>
      </trkpt>
      <trkpt lat="42.915596" lon="-8.056064">
        <time>2022-07-14T08:57:28Z</time>
      </trkpt>
      <trkpt lat="42.91559" lon="-8.056141">
        <time>2022-07-14T08:57:33Z</time>
      </trkpt>
      <trkpt lat="42.915585" lon="-8.056229">
        <time>2022-07-14T08:57:38Z</time>
      </trkpt>
      <trkpt lat="42.915577" lon="-8.056292">
        <time>2022-07-14T08:57:41Z</time>
      </trkpt>
      <trkpt lat="42.915577" lon="-8.056367">
        <time>2022-07-14T08:57:45Z</time>
      </trkpt>
      <trkpt lat="42.915577" lon="-8.056432">
        <time>2022-07-14T08:57:52Z</time>
      </trkpt>
      <trkpt lat="42.91556" lon="-8.056524">
        <time>2022-07-14T08:58:01Z</time>
      </trkpt>
      <trkpt lat="42.91555" lon="-8.056589">
        <time>2022-07-14T08:58:05Z</time>
      </trkpt>
      <trkpt lat="42.915524" lon="-8.0566635">
        <time>2022-07-14T08:58:10Z</time>
      </trkpt>
      <trkpt lat="42.9155" lon="-8.056737">
        <time>2022-07-14T08:58:15Z</time>
      </trkpt>
      <trkpt lat="42.915485" lon="-8.056804">
        <time>2022-07-14T08:58:19Z</time>
      </trkpt>
      <trkpt lat="42.915462" lon="-8.056883">
        <time>2022-07-14T08:58:24Z</time>
      </trkpt>
      <trkpt lat="42.91545" lon="-8.056947">
        <time>2022-07-14T08:58:29Z</time>
      </trkpt>
      <trkpt lat="42.91547" lon="-8.057014">
        <time>2022-07-14T08:58:35Z</time>
      </trkpt>
      <trkpt lat="42.91551" lon="-8.05708">
        <time>2022-07-14T08:58:41Z</time>
      </trkpt>
      <trkpt lat="42.915535" lon="-8.057143">
        <time>2022-07-14T08:58:46Z</time>
      </trkpt>
      <trkpt lat="42.91559" lon="-8.057166">
        <time>2022-07-14T08:58:52Z</time>
      </trkpt>
      <trkpt lat="42.91563" lon="-8.057133">
        <time>2022-07-14T08:58:58Z</time>
      </trkpt>
      <trkpt lat="42.91573" lon="-8.057124">
        <time>2022-07-14T09:11:55Z</time>
      </trkpt>
      <trkpt lat="42.9157" lon="-8.057183">
        <time>2022-07-14T09:15:50Z</time>
      </trkpt>
      <trkpt lat="42.915646" lon="-8.057197">
        <time>2022-07-14T09:15:55Z</time>
      </trkpt>
      <trkpt lat="42.915573" lon="-8.057179">
        <time>2022-07-14T09:15:59Z</time>
      </trkpt>
      <trkpt lat="42.915535" lon="-8.057146">
        <time>2022-07-14T09:16:03Z</time>
      </trkpt>
      <trkpt lat="42.91549" lon="-8.05709">
        <time>2022-07-14T09:16:08Z</time>
      </trkpt>
      <trkpt lat="42.915443" lon="-8.057101">
        <time>2022-07-14T09:16:13Z</time>
      </trkpt>
      <trkpt lat="42.91541" lon="-8.05717">
        <time>2022-07-14T09:16:18Z</time>
      </trkpt>
      <trkpt lat="42.915386" lon="-8.057242">
        <time>2022-07-14T09:16:22Z</time>
      </trkpt>
      <trkpt lat="42.915367" lon="-8.057307">
        <time>2022-07-14T09:16:26Z</time>
      </trkpt>
      <trkpt lat="42.915356" lon="-8.057377">
        <time>2022-07-14T09:16:31Z</time>
      </trkpt>
      <trkpt lat="42.915348" lon="-8.057453">
        <time>2022-07-14T09:16:36Z</time>
      </trkpt>
      <trkpt lat="42.915337" lon="-8.057521">
        <time>2022-07-14T09:16:40Z</time>
      </trkpt>
      <trkpt lat="42.91534" lon="-8.057597">
        <time>2022-07-14T09:16:45Z</time>
      </trkpt>
      <trkpt lat="42.91534" lon="-8.057664">
        <time>2022-07-14T09:16:50Z</time>
      </trkpt>
      <trkpt lat="42.915344" lon="-8.057745">
        <time>2022-07-14T09:16:56Z</time>
      </trkpt>
      <trkpt lat="42.91534" lon="-8.057819">
        <time>2022-07-14T09:17:00Z</time>
      </trkpt>
      <trkpt lat="42.91534" lon="-8.057889">
        <time>2022-07-14T09:17:04Z</time>
      </trkpt>
      <trkpt lat="42.91535" lon="-8.0579405">
        <time>2022-07-14T09:17:10Z</time>
      </trkpt>
      <trkpt lat="42.91536" lon="-8.058035">
        <time>2022-07-14T09:17:19Z</time>
      </trkpt>
      <trkpt lat="42.91536" lon="-8.058099">
        <time>2022-07-14T09:17:23Z</time>
      </trkpt>
      <trkpt lat="42.91537" lon="-8.058172">
        <time>2022-07-14T09:17:28Z</time>
      </trkpt>
      <trkpt lat="42.915382" lon="-8.058249">
        <time>2022-07-14T09:17:33Z</time>
      </trkpt>
      <trkpt lat="42.915386" lon="-8.058327">
        <time>2022-07-14T09:17:38Z</time>
      </trkpt>
      <trkpt lat="42.915386" lon="-8.058388">
        <time>2022-07-14T09:17:42Z</time>
      </trkpt>
      <trkpt lat="42.9154" lon="-8.058474">
        <time>2022-07-14T09:17:48Z</time>
      </trkpt>
      <trkpt lat="42.915417" lon="-8.058557">
        <time>2022-07-14T09:17:53Z</time>
      </trkpt>
      <trkpt lat="42.915424" lon="-8.05864">
        <time>2022-07-14T09:17:58Z</time>
      </trkpt>
      <trkpt lat="42.91544" lon="-8.058714">
        <time>2022-07-14T09:18:03Z</time>
      </trkpt>
      <trkpt lat="42.91546" lon="-8.058774">
        <time>2022-07-14T09:18:08Z</time>
      </trkpt>
      <trkpt lat="42.915462" lon="-8.058863">
        <time>2022-07-14T09:18:13Z</time>
      </trkpt>
      <trkpt lat="42.91545" lon="-8.05892">
        <time>2022-07-14T09:18:16Z</time>
      </trkpt>
      <trkpt lat="42.915436" lon="-8.059001">
        <time>2022-07-14T09:18:21Z</time>
      </trkpt>
      <trkpt lat="42.915405" lon="-8.059081">
        <time>2022-07-14T09:18:24Z</time>
      </trkpt>
      <trkpt lat="42.915386" lon="-8.059158">
        <time>2022-07-14T09:18:27Z</time>
      </trkpt>
      <trkpt lat="42.915367" lon="-8.05922">
        <time>2022-07-14T09:18:31Z</time>
      </trkpt>
      <trkpt lat="42.91535" lon="-8.059278">
        <time>2022-07-14T09:18:36Z</time>
      </trkpt>
      <trkpt lat="42.915348" lon="-8.059368">
        <time>2022-07-14T09:18:42Z</time>
      </trkpt>
      <trkpt lat="42.915344" lon="-8.059451">
        <time>2022-07-14T09:18:46Z</time>
      </trkpt>
      <trkpt lat="42.91534" lon="-8.059517">
        <time>2022-07-14T09:18:50Z</time>
      </trkpt>
      <trkpt lat="42.91535" lon="-8.059595">
        <time>2022-07-14T09:18:55Z</time>
      </trkpt>
      <trkpt lat="42.915367" lon="-8.05967">
        <time>2022-07-14T09:18:59Z</time>
      </trkpt>
      <trkpt lat="42.91538" lon="-8.059743">
        <time>2022-07-14T09:19:03Z</time>
      </trkpt>
      <trkpt lat="42.915398" lon="-8.05982">
        <time>2022-07-14T09:19:08Z</time>
      </trkpt>
      <trkpt lat="42.91542" lon="-8.059871">
        <time>2022-07-14T09:19:12Z</time>
      </trkpt>
      <trkpt lat="42.915443" lon="-8.059949">
        <time>2022-07-14T09:19:18Z</time>
      </trkpt>
      <trkpt lat="42.91546" lon="-8.060012">
        <time>2022-07-14T09:19:22Z</time>
      </trkpt>
      <trkpt lat="42.915474" lon="-8.060087">
        <time>2022-07-14T09:19:26Z</time>
      </trkpt>
      <trkpt lat="42.915485" lon="-8.060163">
        <time>2022-07-14T09:19:30Z</time>
      </trkpt>
      <trkpt lat="42.9155" lon="-8.060221">
        <time>2022-07-14T09:19:34Z</time>
      </trkpt>
      <trkpt lat="42.915527" lon="-8.06029">
        <time>2022-07-14T09:19:39Z</time>
      </trkpt>
      <trkpt lat="42.915554" lon="-8.060352">
        <time>2022-07-14T09:19:44Z</time>
      </trkpt>
      <trkpt lat="42.915592" lon="-8.060421">
        <time>2022-07-14T09:19:49Z</time>
      </trkpt>
      <trkpt lat="42.915627" lon="-8.06048">
        <time>2022-07-14T09:19:53Z</time>
      </trkpt>
      <trkpt lat="42.91565" lon="-8.060553">
        <time>2022-07-14T09:19:58Z</time>
      </trkpt>
      <trkpt lat="42.915665" lon="-8.060642">
        <time>2022-07-14T09:20:03Z</time>
      </trkpt>
      <trkpt lat="42.91568" lon="-8.060716">
        <time>2022-07-14T09:20:07Z</time>
      </trkpt>
      <trkpt lat="42.9157" lon="-8.060785">
        <time>2022-07-14T09:20:11Z</time>
      </trkpt>
      <trkpt lat="42.91572" lon="-8.060856">
        <time>2022-07-14T09:20:15Z</time>
      </trkpt>
      <trkpt lat="42.915745" lon="-8.060928">
        <time>2022-07-14T09:20:19Z</time>
      </trkpt>
      <trkpt lat="42.915783" lon="-8.060999">
        <time>2022-07-14T09:20:23Z</time>
      </trkpt>
      <trkpt lat="42.9158" lon="-8.061081">
        <time>2022-07-14T09:20:27Z</time>
      </trkpt>
      <trkpt lat="42.915817" lon="-8.061148">
        <time>2022-07-14T09:20:31Z</time>
      </trkpt>
      <trkpt lat="42.91584" lon="-8.06121">
        <time>2022-07-14T09:20:35Z</time>
      </trkpt>
      <trkpt lat="42.91585" lon="-8.061288">
        <time>2022-07-14T09:20:39Z</time>
      </trkpt>
      <trkpt lat="42.91587" lon="-8.061355">
        <time>2022-07-14T09:20:43Z</time>
      </trkpt>
      <trkpt lat="42.9159" lon="-8.061416">
        <time>2022-07-14T09:20:48Z</time>
      </trkpt>
      <trkpt lat="42.915924" lon="-8.061489">
        <time>2022-07-14T09:20:53Z</time>
      </trkpt>
      <trkpt lat="42.915947" lon="-8.061553">
        <time>2022-07-14T09:20:57Z</time>
      </trkpt>
      <trkpt lat="42.915977" lon="-8.061628">
        <time>2022-07-14T09:21:02Z</time>
      </trkpt>
      <trkpt lat="42.916008" lon="-8.06169">
        <time>2022-07-14T09:21:06Z</time>
      </trkpt>
      <trkpt lat="42.916046" lon="-8.061738">
        <time>2022-07-14T09:21:10Z</time>
      </trkpt>
      <trkpt lat="42.91608" lon="-8.061797">
        <time>2022-07-14T09:21:14Z</time>
      </trkpt>
      <trkpt lat="42.916126" lon="-8.061848">
        <time>2022-07-14T09:21:17Z</time>
      </trkpt>
      <trkpt lat="42.916164" lon="-8.061882">
        <time>2022-07-14T09:21:21Z</time>
      </trkpt>
      <trkpt lat="42.916187" lon="-8.061951">
        <time>2022-07-14T09:21:27Z</time>
      </trkpt>
      <trkpt lat="42.9162" lon="-8.062021">
        <time>2022-07-14T09:21:32Z</time>
      </trkpt>
      <trkpt lat="42.9162" lon="-8.062084">
        <time>2022-07-14T09:21:36Z</time>
      </trkpt>
      <trkpt lat="42.91621" lon="-8.062165">
        <time>2022-07-14T09:21:42Z</time>
      </trkpt>
      <trkpt lat="42.916225" lon="-8.062241">
        <time>2022-07-14T09:21:46Z</time>
      </trkpt>
      <trkpt lat="42.916237" lon="-8.062316">
        <time>2022-07-14T09:21:50Z</time>
      </trkpt>
      <trkpt lat="42.916252" lon="-8.062394">
        <time>2022-07-14T09:21:55Z</time>
      </trkpt>
      <trkpt lat="42.91628" lon="-8.062458">
        <time>2022-07-14T09:22:00Z</time>
      </trkpt>
      <trkpt lat="42.916306" lon="-8.062528">
        <time>2022-07-14T09:22:05Z</time>
      </trkpt>
      <trkpt lat="42.916313" lon="-8.062608">
        <time>2022-07-14T09:22:09Z</time>
      </trkpt>
      <trkpt lat="42.916325" lon="-8.062672">
        <time>2022-07-14T09:22:13Z</time>
      </trkpt>
      <trkpt lat="42.916332" lon="-8.062748">
        <time>2022-07-14T09:22:18Z</time>
      </trkpt>
      <trkpt lat="42.91636" lon="-8.062821">
        <time>2022-07-14T09:22:24Z</time>
      </trkpt>
      <trkpt lat="42.916367" lon="-8.062907">
        <time>2022-07-14T09:22:29Z</time>
      </trkpt>
      <trkpt lat="42.916393" lon="-8.062979">
        <time>2022-07-14T09:22:34Z</time>
      </trkpt>
      <trkpt lat="42.91642" lon="-8.063054">
        <time>2022-07-14T09:22:39Z</time>
      </trkpt>
      <trkpt lat="42.91644" lon="-8.063128">
        <time>2022-07-14T09:22:44Z</time>
      </trkpt>
      <trkpt lat="42.91644" lon="-8.063201">
        <time>2022-07-14T09:22:49Z</time>
      </trkpt>
      <trkpt lat="42.91645" lon="-8.0633">
        <time>2022-07-14T09:22:57Z</time>
      </trkpt>
      <trkpt lat="42.916466" lon="-8.063375">
        <time>2022-07-14T09:23:01Z</time>
      </trkpt>
      <trkpt lat="42.91648" lon="-8.063473">
        <time>2022-07-14T09:23:04Z</time>
      </trkpt>
      <trkpt lat="42.9165" lon="-8.063552">
        <time>2022-07-14T09:23:10Z</time>
      </trkpt>
      <trkpt lat="42.91653" lon="-8.063614">
        <time>2022-07-14T09:23:15Z</time>
      </trkpt>
      <trkpt lat="42.916565" lon="-8.063664">
        <time>2022-07-14T09:23:19Z</time>
      </trkpt>
      <trkpt lat="42.916595" lon="-8.063727">
        <time>2022-07-14T09:23:24Z</time>
      </trkpt>
      <trkpt lat="42.91661" lon="-8.0637865">
        <time>2022-07-14T09:23:29Z</time>
      </trkpt>
      <trkpt lat="42.91664" lon="-8.063852">
        <time>2022-07-14T09:23:35Z</time>
      </trkpt>
      <trkpt lat="42.91667" lon="-8.063915">
        <time>2022-07-14T09:23:39Z</time>
      </trkpt>
      <trkpt lat="42.916706" lon="-8.06397">
        <time>2022-07-14T09:23:43Z</time>
      </trkpt>
      <trkpt lat="42.91675" lon="-8.064003">
        <time>2022-07-14T09:23:48Z</time>
      </trkpt>
      <trkpt lat="42.916798" lon="-8.064028">
        <time>2022-07-14T09:23:54Z</time>
      </trkpt>
      <trkpt lat="42.91687" lon="-8.064046">
        <time>2022-07-14T09:24:01Z</time>
      </trkpt>
      <trkpt lat="42.916927" lon="-8.064063">
        <time>2022-07-14T09:24:05Z</time>
      </trkpt>
      <trkpt lat="42.91697" lon="-8.064095">
        <time>2022-07-14T09:24:09Z</time>
      </trkpt>
      <trkpt lat="42.916996" lon="-8.064159">
        <time>2022-07-14T09:24:14Z</time>
      </trkpt>
      <trkpt lat="42.917" lon="-8.064231">
        <time>2022-07-14T09:24:19Z</time>
      </trkpt>
      <trkpt lat="42.91701" lon="-8.064299">
        <time>2022-07-14T09:24:25Z</time>
      </trkpt>
      <trkpt lat="42.917015" lon="-8.064373">
        <time>2022-07-14T09:24:30Z</time>
      </trkpt>
      <trkpt lat="42.917" lon="-8.064454">
        <time>2022-07-14T09:24:35Z</time>
      </trkpt>
      <trkpt lat="42.91698" lon="-8.0645275">
        <time>2022-07-14T09:24:40Z</time>
      </trkpt>
      <trkpt lat="42.916958" lon="-8.064606">
        <time>2022-07-14T09:24:44Z</time>
      </trkpt>
      <trkpt lat="42.916935" lon="-8.064668">
        <time>2022-07-14T09:24:47Z</time>
      </trkpt>
      <trkpt lat="42.91692" lon="-8.064735">
        <time>2022-07-14T09:24:51Z</time>
      </trkpt>
      <trkpt lat="42.9169" lon="-8.064801">
        <time>2022-07-14T09:24:56Z</time>
      </trkpt>
      <trkpt lat="42.91688" lon="-8.064884">
        <time>2022-07-14T09:25:02Z</time>
      </trkpt>
      <trkpt lat="42.91687" lon="-8.064958">
        <time>2022-07-14T09:25:07Z</time>
      </trkpt>
      <trkpt lat="42.91685" lon="-8.065032">
        <time>2022-07-14T09:25:12Z</time>
      </trkpt>
      <trkpt lat="42.916817" lon="-8.065093">
        <time>2022-07-14T09:25:16Z</time>
      </trkpt>
      <trkpt lat="42.916798" lon="-8.065158">
        <time>2022-07-14T09:25:20Z</time>
      </trkpt>
      <trkpt lat="42.91677" lon="-8.065234">
        <time>2022-07-14T09:25:25Z</time>
      </trkpt>
      <trkpt lat="42.916744" lon="-8.065294">
        <time>2022-07-14T09:25:30Z</time>
      </trkpt>
      <trkpt lat="42.916763" lon="-8.065301">
        <time>2022-07-14T09:26:08Z</time>
      </trkpt>
      <trkpt lat="42.916733" lon="-8.065369">
        <time>2022-07-14T09:26:12Z</time>
      </trkpt>
      <trkpt lat="42.91671" lon="-8.065441">
        <time>2022-07-14T09:26:16Z</time>
      </trkpt>
      <trkpt lat="42.916683" lon="-8.065503">
        <time>2022-07-14T09:26:20Z</time>
      </trkpt>
      <trkpt lat="42.91666" lon="-8.065576">
        <time>2022-07-14T09:26:25Z</time>
      </trkpt>
      <trkpt lat="42.916637" lon="-8.065644">
        <time>2022-07-14T09:26:30Z</time>
      </trkpt>
      <trkpt lat="42.916615" lon="-8.065719">
        <time>2022-07-14T09:26:35Z</time>
      </trkpt>
      <trkpt lat="42.91659" lon="-8.065792">
        <time>2022-07-14T09:26:40Z</time>
      </trkpt>
      <trkpt lat="42.916576" lon="-8.065869">
        <time>2022-07-14T09:26:45Z</time>
      </trkpt>
      <trkpt lat="42.91655" lon="-8.065941">
        <time>2022-07-14T09:26:50Z</time>
      </trkpt>
      <trkpt lat="42.91653" lon="-8.066018">
        <time>2022-07-14T09:26:55Z</time>
      </trkpt>
      <trkpt lat="42.91652" lon="-8.066086">
        <time>2022-07-14T09:26:59Z</time>
      </trkpt>
      <trkpt lat="42.916496" lon="-8.066163">
        <time>2022-07-14T09:27:04Z</time>
      </trkpt>
      <trkpt lat="42.916462" lon="-8.066245">
        <time>2022-07-14T09:27:09Z</time>
      </trkpt>
      <trkpt lat="42.916443" lon="-8.066317">
        <time>2022-07-14T09:27:13Z</time>
      </trkpt>
      <trkpt lat="42.916424" lon="-8.066394">
        <time>2022-07-14T09:27:18Z</time>
      </trkpt>
      <trkpt lat="42.916416" lon="-8.066465">
        <time>2022-07-14T09:27:22Z</time>
      </trkpt>
      <trkpt lat="42.916405" lon="-8.066532">
        <time>2022-07-14T09:27:26Z</time>
      </trkpt>
      <trkpt lat="42.9164" lon="-8.066604">
        <time>2022-07-14T09:27:30Z</time>
      </trkpt>
      <trkpt lat="42.916393" lon="-8.066679">
        <time>2022-07-14T09:27:35Z</time>
      </trkpt>
      <trkpt lat="42.916386" lon="-8.066762">
        <time>2022-07-14T09:27:40Z</time>
      </trkpt>
      <trkpt lat="42.916374" lon="-8.066835">
        <time>2022-07-14T09:27:44Z</time>
      </trkpt>
      <trkpt lat="42.91636" lon="-8.06692">
        <time>2022-07-14T09:27:49Z</time>
      </trkpt>
      <trkpt lat="42.91634" lon="-8.066985">
        <time>2022-07-14T09:27:53Z</time>
      </trkpt>
      <trkpt lat="42.91632" lon="-8.067055">
        <time>2022-07-14T09:27:57Z</time>
      </trkpt>
      <trkpt lat="42.916294" lon="-8.06712">
        <time>2022-07-14T09:28:01Z</time>
      </trkpt>
      <trkpt lat="42.91627" lon="-8.067181">
        <time>2022-07-14T09:28:05Z</time>
      </trkpt>
      <trkpt lat="42.91625" lon="-8.067257">
        <time>2022-07-14T09:28:10Z</time>
      </trkpt>
      <trkpt lat="42.916233" lon="-8.067333">
        <time>2022-07-14T09:28:14Z</time>
      </trkpt>
      <trkpt lat="42.916218" lon="-8.067408">
        <time>2022-07-14T09:28:18Z</time>
      </trkpt>
      <trkpt lat="42.91621" lon="-8.067477">
        <time>2022-07-14T09:28:22Z</time>
      </trkpt>
      <trkpt lat="42.916203" lon="-8.067552">
        <time>2022-07-14T09:28:26Z</time>
      </trkpt>
      <trkpt lat="42.9162" lon="-8.067633">
        <time>2022-07-14T09:28:31Z</time>
      </trkpt>
      <trkpt lat="42.91619" lon="-8.06772">
        <time>2022-07-14T09:28:36Z</time>
      </trkpt>
      <trkpt lat="42.916187" lon="-8.067793">
        <time>2022-07-14T09:28:41Z</time>
      </trkpt>
      <trkpt lat="42.916183" lon="-8.067883">
        <time>2022-07-14T09:28:46Z</time>
      </trkpt>
      <trkpt lat="42.916176" lon="-8.067953">
        <time>2022-07-14T09:28:50Z</time>
      </trkpt>
      <trkpt lat="42.916164" lon="-8.068036">
        <time>2022-07-14T09:28:55Z</time>
      </trkpt>
      <trkpt lat="42.916157" lon="-8.06813">
        <time>2022-07-14T09:29:00Z</time>
      </trkpt>
      <trkpt lat="42.91615" lon="-8.068198">
        <time>2022-07-14T09:29:04Z</time>
      </trkpt>
      <trkpt lat="42.916134" lon="-8.068275">
        <time>2022-07-14T09:29:08Z</time>
      </trkpt>
      <trkpt lat="42.91612" lon="-8.068338">
        <time>2022-07-14T09:29:11Z</time>
      </trkpt>
      <trkpt lat="42.91611" lon="-8.068405">
        <time>2022-07-14T09:29:15Z</time>
      </trkpt>
      <trkpt lat="42.916107" lon="-8.068485">
        <time>2022-07-14T09:29:20Z</time>
      </trkpt>
      <trkpt lat="42.916103" lon="-8.068551">
        <time>2022-07-14T09:29:24Z</time>
      </trkpt>
      <trkpt lat="42.916096" lon="-8.068635">
        <time>2022-07-14T09:29:29Z</time>
      </trkpt>
      <trkpt lat="42.916084" lon="-8.068703">
        <time>2022-07-14T09:29:33Z</time>
      </trkpt>
      <trkpt lat="42.91607" lon="-8.068769">
        <time>2022-07-14T09:29:37Z</time>
      </trkpt>
      <trkpt lat="42.916046" lon="-8.068846">
        <time>2022-07-14T09:29:42Z</time>
      </trkpt>
      <trkpt lat="42.916035" lon="-8.068915">
        <time>2022-07-14T09:29:46Z</time>
      </trkpt>
      <trkpt lat="42.916016" lon="-8.068975">
        <time>2022-07-14T09:29:50Z</time>
      </trkpt>
      <trkpt lat="42.915997" lon="-8.069055">
        <time>2022-07-14T09:29:55Z</time>
      </trkpt>
      <trkpt lat="42.915977" lon="-8.06912">
        <time>2022-07-14T09:30:00Z</time>
      </trkpt>
      <trkpt lat="42.915947" lon="-8.069196">
        <time>2022-07-14T09:30:05Z</time>
      </trkpt>
      <trkpt lat="42.915924" lon="-8.069252">
        <time>2022-07-14T09:30:09Z</time>
      </trkpt>
      <trkpt lat="42.915897" lon="-8.069328">
        <time>2022-07-14T09:30:14Z</time>
      </trkpt>
      <trkpt lat="42.915867" lon="-8.069403">
        <time>2022-07-14T09:30:20Z</time>
      </trkpt>
      <trkpt lat="42.915844" lon="-8.069471">
        <time>2022-07-14T09:30:24Z</time>
      </trkpt>
      <trkpt lat="42.915825" lon="-8.06953">
        <time>2022-07-14T09:30:28Z</time>
      </trkpt>
      <trkpt lat="42.915806" lon="-8.069612">
        <time>2022-07-14T09:30:33Z</time>
      </trkpt>
      <trkpt lat="42.915794" lon="-8.069695">
        <time>2022-07-14T09:30:38Z</time>
      </trkpt>
      <trkpt lat="42.91577" lon="-8.0697775">
        <time>2022-07-14T09:30:43Z</time>
      </trkpt>
      <trkpt lat="42.915752" lon="-8.069858">
        <time>2022-07-14T09:30:48Z</time>
      </trkpt>
      <trkpt lat="42.915737" lon="-8.069947">
        <time>2022-07-14T09:30:53Z</time>
      </trkpt>
      <trkpt lat="42.91573" lon="-8.070022">
        <time>2022-07-14T09:30:57Z</time>
      </trkpt>
      <trkpt lat="42.915726" lon="-8.070088">
        <time>2022-07-14T09:31:01Z</time>
      </trkpt>
      <trkpt lat="42.915726" lon="-8.070178">
        <time>2022-07-14T09:31:06Z</time>
      </trkpt>
      <trkpt lat="42.91573" lon="-8.0702505">
        <time>2022-07-14T09:31:10Z</time>
      </trkpt>
      <trkpt lat="42.915733" lon="-8.070326">
        <time>2022-07-14T09:31:15Z</time>
      </trkpt>
      <trkpt lat="42.915745" lon="-8.070396">
        <time>2022-07-14T09:31:19Z</time>
      </trkpt>
      <trkpt lat="42.915756" lon="-8.070466">
        <time>2022-07-14T09:31:23Z</time>
      </trkpt>
      <trkpt lat="42.915768" lon="-8.070534">
        <time>2022-07-14T09:31:27Z</time>
      </trkpt>
      <trkpt lat="42.91578" lon="-8.070608">
        <time>2022-07-14T09:31:31Z</time>
      </trkpt>
      <trkpt lat="42.91578" lon="-8.070681">
        <time>2022-07-14T09:31:35Z</time>
      </trkpt>
      <trkpt lat="42.915775" lon="-8.070754">
        <time>2022-07-14T09:31:39Z</time>
      </trkpt>
      <trkpt lat="42.91578" lon="-8.07083">
        <time>2022-07-14T09:31:43Z</time>
      </trkpt>
      <trkpt lat="42.915783" lon="-8.070902">
        <time>2022-07-14T09:31:48Z</time>
      </trkpt>
      <trkpt lat="42.91579" lon="-8.070971">
        <time>2022-07-14T09:31:52Z</time>
      </trkpt>
      <trkpt lat="42.915787" lon="-8.071057">
        <time>2022-07-14T09:31:57Z</time>
      </trkpt>
      <trkpt lat="42.915783" lon="-8.071135">
        <time>2022-07-14T09:32:02Z</time>
      </trkpt>
      <trkpt lat="42.915768" lon="-8.071213">
        <time>2022-07-14T09:32:06Z</time>
      </trkpt>
      <trkpt lat="42.91576" lon="-8.071286">
        <time>2022-07-14T09:32:10Z</time>
      </trkpt>
      <trkpt lat="42.915756" lon="-8.071366">
        <time>2022-07-14T09:32:15Z</time>
      </trkpt>
      <trkpt lat="42.915752" lon="-8.071437">
        <time>2022-07-14T09:32:19Z</time>
      </trkpt>
      <trkpt lat="42.915756" lon="-8.071521">
        <time>2022-07-14T09:32:23Z</time>
      </trkpt>
      <trkpt lat="42.915764" lon="-8.071596">
        <time>2022-07-14T09:32:27Z</time>
      </trkpt>
      <trkpt lat="42.915775" lon="-8.071664">
        <time>2022-07-14T09:32:32Z</time>
      </trkpt>
      <trkpt lat="42.9158" lon="-8.071733">
        <time>2022-07-14T09:32:37Z</time>
      </trkpt>
      <trkpt lat="42.915817" lon="-8.071804">
        <time>2022-07-14T09:32:41Z</time>
      </trkpt>
      <trkpt lat="42.915836" lon="-8.07186">
        <time>2022-07-14T09:32:45Z</time>
      </trkpt>
      <trkpt lat="42.915882" lon="-8.071929">
        <time>2022-07-14T09:32:50Z</time>
      </trkpt>
      <trkpt lat="42.915916" lon="-8.071979">
        <time>2022-07-14T09:32:54Z</time>
      </trkpt>
      <trkpt lat="42.915943" lon="-8.072047">
        <time>2022-07-14T09:32:59Z</time>
      </trkpt>
      <trkpt lat="42.915962" lon="-8.072109">
        <time>2022-07-14T09:33:03Z</time>
      </trkpt>
      <trkpt lat="42.91598" lon="-8.072184">
        <time>2022-07-14T09:33:07Z</time>
      </trkpt>
      <trkpt lat="42.915985" lon="-8.07225">
        <time>2022-07-14T09:33:11Z</time>
      </trkpt>
      <trkpt lat="42.915966" lon="-8.072332">
        <time>2022-07-14T09:33:16Z</time>
      </trkpt>
      <trkpt lat="42.91595" lon="-8.072403">
        <time>2022-07-14T09:33:20Z</time>
      </trkpt>
      <trkpt lat="42.915928" lon="-8.072485">
        <time>2022-07-14T09:33:24Z</time>
      </trkpt>
      <trkpt lat="42.9159" lon="-8.072564">
        <time>2022-07-14T09:33:28Z</time>
      </trkpt>
      <trkpt lat="42.91588" lon="-8.072633">
        <time>2022-07-14T09:33:32Z</time>
      </trkpt>
      <trkpt lat="42.915855" lon="-8.07269">
        <time>2022-07-14T09:33:36Z</time>
      </trkpt>
      <trkpt lat="42.915825" lon="-8.072767">
        <time>2022-07-14T09:33:41Z</time>
      </trkpt>
      <trkpt lat="42.915794" lon="-8.072829">
        <time>2022-07-14T09:33:45Z</time>
      </trkpt>
      <trkpt lat="42.915756" lon="-8.072889">
        <time>2022-07-14T09:33:49Z</time>
      </trkpt>
      <trkpt lat="42.91573" lon="-8.072947">
        <time>2022-07-14T09:33:53Z</time>
      </trkpt>
      <trkpt lat="42.9157" lon="-8.07301">
        <time>2022-07-14T09:33:58Z</time>
      </trkpt>
      <trkpt lat="42.91567" lon="-8.073082">
        <time>2022-07-14T09:34:03Z</time>
      </trkpt>
      <trkpt lat="42.915634" lon="-8.073149">
        <time>2022-07-14T09:34:07Z</time>
      </trkpt>
      <trkpt lat="42.915607" lon="-8.073208">
        <time>2022-07-14T09:34:11Z</time>
      </trkpt>
      <trkpt lat="42.915585" lon="-8.073265">
        <time>2022-07-14T09:34:15Z</time>
      </trkpt>
      <trkpt lat="42.91555" lon="-8.073349">
        <time>2022-07-14T09:34:20Z</time>
      </trkpt>
      <trkpt lat="42.91553" lon="-8.073428">
        <time>2022-07-14T09:34:24Z</time>
      </trkpt>
      <trkpt lat="42.915527" lon="-8.073502">
        <time>2022-07-14T09:34:28Z</time>
      </trkpt>
      <trkpt lat="42.91554" lon="-8.073578">
        <time>2022-07-14T09:34:33Z</time>
      </trkpt>
      <trkpt lat="42.91555" lon="-8.073652">
        <time>2022-07-14T09:34:38Z</time>
      </trkpt>
      <trkpt lat="42.915592" lon="-8.073719">
        <time>2022-07-14T09:34:43Z</time>
      </trkpt>
      <trkpt lat="42.915623" lon="-8.073768">
        <time>2022-07-14T09:34:46Z</time>
      </trkpt>
      <trkpt lat="42.915672" lon="-8.073828">
        <time>2022-07-14T09:34:50Z</time>
      </trkpt>
      <trkpt lat="42.915714" lon="-8.073874">
        <time>2022-07-14T09:34:54Z</time>
      </trkpt>
      <trkpt lat="42.915756" lon="-8.073938">
        <time>2022-07-14T09:34:59Z</time>
      </trkpt>
      <trkpt lat="42.9158" lon="-8.073987">
        <time>2022-07-14T09:35:04Z</time>
      </trkpt>
      <trkpt lat="42.91584" lon="-8.074045">
        <time>2022-07-14T09:35:09Z</time>
      </trkpt>
      <trkpt lat="42.915882" lon="-8.074113">
        <time>2022-07-14T09:35:13Z</time>
      </trkpt>
      <trkpt lat="42.915916" lon="-8.074177">
        <time>2022-07-14T09:35:17Z</time>
      </trkpt>
      <trkpt lat="42.91594" lon="-8.074231">
        <time>2022-07-14T09:35:21Z</time>
      </trkpt>
      <trkpt lat="42.91596" lon="-8.074311">
        <time>2022-07-14T09:35:26Z</time>
      </trkpt>
      <trkpt lat="42.915962" lon="-8.074387">
        <time>2022-07-14T09:35:30Z</time>
      </trkpt>
      <trkpt lat="42.915962" lon="-8.074461">
        <time>2022-07-14T09:35:34Z</time>
      </trkpt>
      <trkpt lat="42.91596" lon="-8.074533">
        <time>2022-07-14T09:35:38Z</time>
      </trkpt>
      <trkpt lat="42.915962" lon="-8.074602">
        <time>2022-07-14T09:35:42Z</time>
      </trkpt>
      <trkpt lat="42.915974" lon="-8.074679">
        <time>2022-07-14T09:35:47Z</time>
      </trkpt>
      <trkpt lat="42.91597" lon="-8.074771">
        <time>2022-07-14T09:35:52Z</time>
      </trkpt>
      <trkpt lat="42.91597" lon="-8.074845">
        <time>2022-07-14T09:35:56Z</time>
      </trkpt>
      <trkpt lat="42.91597" lon="-8.074922">
        <time>2022-07-14T09:36:00Z</time>
      </trkpt>
      <trkpt lat="42.91597" lon="-8.075005">
        <time>2022-07-14T09:36:04Z</time>
      </trkpt>
      <trkpt lat="42.915977" lon="-8.07508">
        <time>2022-07-14T09:36:08Z</time>
      </trkpt>
      <trkpt lat="42.91598" lon="-8.07516">
        <time>2022-07-14T09:36:12Z</time>
      </trkpt>
      <trkpt lat="42.915985" lon="-8.07523">
        <time>2022-07-14T09:36:16Z</time>
      </trkpt>
      <trkpt lat="42.915985" lon="-8.075307">
        <time>2022-07-14T09:36:21Z</time>
      </trkpt>
      <trkpt lat="42.915985" lon="-8.075388">
        <time>2022-07-14T09:36:26Z</time>
      </trkpt>
      <trkpt lat="42.91599" lon="-8.075461">
        <time>2022-07-14T09:36:30Z</time>
      </trkpt>
      <trkpt lat="42.915997" lon="-8.075549">
        <time>2022-07-14T09:36:34Z</time>
      </trkpt>
      <trkpt lat="42.916008" lon="-8.075615">
        <time>2022-07-14T09:36:37Z</time>
      </trkpt>
      <trkpt lat="42.916016" lon="-8.07569">
        <time>2022-07-14T09:36:41Z</time>
      </trkpt>
      <trkpt lat="42.91602" lon="-8.075775">
        <time>2022-07-14T09:36:46Z</time>
      </trkpt>
      <trkpt lat="42.916023" lon="-8.075856">
        <time>2022-07-14T09:36:51Z</time>
      </trkpt>
      <trkpt lat="42.91603" lon="-8.075942">
        <time>2022-07-14T09:36:55Z</time>
      </trkpt>
      <trkpt lat="42.91604" lon="-8.076032">
        <time>2022-07-14T09:36:59Z</time>
      </trkpt>
      <trkpt lat="42.91605" lon="-8.076098">
        <time>2022-07-14T09:37:02Z</time>
      </trkpt>
      <trkpt lat="42.91606" lon="-8.076183">
        <time>2022-07-14T09:37:06Z</time>
      </trkpt>
      <trkpt lat="42.91607" lon="-8.076252">
        <time>2022-07-14T09:37:10Z</time>
      </trkpt>
      <trkpt lat="42.91608" lon="-8.076322">
        <time>2022-07-14T09:37:15Z</time>
      </trkpt>
      <trkpt lat="42.916092" lon="-8.076393">
        <time>2022-07-14T09:37:20Z</time>
      </trkpt>
      <trkpt lat="42.916103" lon="-8.076464">
        <time>2022-07-14T09:37:24Z</time>
      </trkpt>
      <trkpt lat="42.916115" lon="-8.076544">
        <time>2022-07-14T09:37:28Z</time>
      </trkpt>
      <trkpt lat="42.916122" lon="-8.076611">
        <time>2022-07-14T09:37:32Z</time>
      </trkpt>
      <trkpt lat="42.916122" lon="-8.076688">
        <time>2022-07-14T09:37:37Z</time>
      </trkpt>
      <trkpt lat="42.91611" lon="-8.076759">
        <time>2022-07-14T09:37:41Z</time>
      </trkpt>
      <trkpt lat="42.91611" lon="-8.076838">
        <time>2022-07-14T09:37:45Z</time>
      </trkpt>
      <trkpt lat="42.916107" lon="-8.07691">
        <time>2022-07-14T09:37:49Z</time>
      </trkpt>
      <trkpt lat="42.91612" lon="-8.076974">
        <time>2022-07-14T09:37:54Z</time>
      </trkpt>
      <trkpt lat="42.916115" lon="-8.077065">
        <time>2022-07-14T09:37:59Z</time>
      </trkpt>
      <trkpt lat="42.91612" lon="-8.077136">
        <time>2022-07-14T09:38:03Z</time>
      </trkpt>
      <trkpt lat="42.91611" lon="-8.077211">
        <time>2022-07-14T09:38:08Z</time>
      </trkpt>
      <trkpt lat="42.916107" lon="-8.077297">
        <time>2022-07-14T09:38:13Z</time>
      </trkpt>
      <trkpt lat="42.916096" lon="-8.077369">
        <time>2022-07-14T09:38:17Z</time>
      </trkpt>
      <trkpt lat="42.9161" lon="-8.077448">
        <time>2022-07-14T09:38:22Z</time>
      </trkpt>
      <trkpt lat="42.916096" lon="-8.07753">
        <time>2022-07-14T09:38:27Z</time>
      </trkpt>
      <trkpt lat="42.916077" lon="-8.077606">
        <time>2022-07-14T09:38:31Z</time>
      </trkpt>
      <trkpt lat="42.916058" lon="-8.077681">
        <time>2022-07-14T09:38:35Z</time>
      </trkpt>
      <trkpt lat="42.91605" lon="-8.077745">
        <time>2022-07-14T09:38:39Z</time>
      </trkpt>
      <trkpt lat="42.91604" lon="-8.077817">
        <time>2022-07-14T09:38:43Z</time>
      </trkpt>
      <trkpt lat="42.91604" lon="-8.077899">
        <time>2022-07-14T09:38:48Z</time>
      </trkpt>
      <trkpt lat="42.91608" lon="-8.077942">
        <time>2022-07-14T09:38:52Z</time>
      </trkpt>
      <trkpt lat="42.91613" lon="-8.077978">
        <time>2022-07-14T09:38:56Z</time>
      </trkpt>
      <trkpt lat="42.916183" lon="-8.078003">
        <time>2022-07-14T09:39:01Z</time>
      </trkpt>
      <trkpt lat="42.91624" lon="-8.078026">
        <time>2022-07-14T09:39:06Z</time>
      </trkpt>
      <trkpt lat="42.916298" lon="-8.07804">
        <time>2022-07-14T09:39:10Z</time>
      </trkpt>
      <trkpt lat="42.916344" lon="-8.078058">
        <time>2022-07-14T09:39:14Z</time>
      </trkpt>
      <trkpt lat="42.916386" lon="-8.078101">
        <time>2022-07-14T09:39:19Z</time>
      </trkpt>
      <trkpt lat="42.91644" lon="-8.078169">
        <time>2022-07-14T09:39:24Z</time>
      </trkpt>
      <trkpt lat="42.916473" lon="-8.0782175">
        <time>2022-07-14T09:39:28Z</time>
      </trkpt>
      <trkpt lat="42.9165" lon="-8.078273">
        <time>2022-07-14T09:39:33Z</time>
      </trkpt>
      <trkpt lat="42.916542" lon="-8.078343">
        <time>2022-07-14T09:39:38Z</time>
      </trkpt>
      <trkpt lat="42.916565" lon="-8.078413">
        <time>2022-07-14T09:39:43Z</time>
      </trkpt>
      <trkpt lat="42.916588" lon="-8.078486">
        <time>2022-07-14T09:39:48Z</time>
      </trkpt>
      <trkpt lat="42.916615" lon="-8.078566">
        <time>2022-07-14T09:39:52Z</time>
      </trkpt>
      <trkpt lat="42.916645" lon="-8.078638">
        <time>2022-07-14T09:39:56Z</time>
      </trkpt>
      <trkpt lat="42.916664" lon="-8.078702">
        <time>2022-07-14T09:40:00Z</time>
      </trkpt>
      <trkpt lat="42.916687" lon="-8.078768">
        <time>2022-07-14T09:40:05Z</time>
      </trkpt>
      <trkpt lat="42.916725" lon="-8.078835">
        <time>2022-07-14T09:40:10Z</time>
      </trkpt>
      <trkpt lat="42.916767" lon="-8.078896">
        <time>2022-07-14T09:40:14Z</time>
      </trkpt>
      <trkpt lat="42.916813" lon="-8.078946">
        <time>2022-07-14T09:40:18Z</time>
      </trkpt>
      <trkpt lat="42.916855" lon="-8.078984">
        <time>2022-07-14T09:40:23Z</time>
      </trkpt>
      <trkpt lat="42.91691" lon="-8.078997">
        <time>2022-07-14T09:40:28Z</time>
      </trkpt>
      <trkpt lat="42.916965" lon="-8.079008">
        <time>2022-07-14T09:40:33Z</time>
      </trkpt>
      <trkpt lat="42.91702" lon="-8.079013">
        <time>2022-07-14T09:40:37Z</time>
      </trkpt>
      <trkpt lat="42.917072" lon="-8.079016">
        <time>2022-07-14T09:40:41Z</time>
      </trkpt>
      <trkpt lat="42.91712" lon="-8.079017">
        <time>2022-07-14T09:40:45Z</time>
      </trkpt>
      <trkpt lat="42.91718" lon="-8.079026">
        <time>2022-07-14T09:40:50Z</time>
      </trkpt>
      <trkpt lat="42.917233" lon="-8.079037">
        <time>2022-07-14T09:40:54Z</time>
      </trkpt>
      <trkpt lat="42.91729" lon="-8.079042">
        <time>2022-07-14T09:40:58Z</time>
      </trkpt>
      <trkpt lat="42.91734" lon="-8.079044">
        <time>2022-07-14T09:41:02Z</time>
      </trkpt>
      <trkpt lat="42.917397" lon="-8.079045">
        <time>2022-07-14T09:41:07Z</time>
      </trkpt>
      <trkpt lat="42.917454" lon="-8.07906">
        <time>2022-07-14T09:41:12Z</time>
      </trkpt>
      <trkpt lat="42.917507" lon="-8.079069">
        <time>2022-07-14T09:41:16Z</time>
      </trkpt>
      <trkpt lat="42.91756" lon="-8.079082">
        <time>2022-07-14T09:41:21Z</time>
      </trkpt>
      <trkpt lat="42.91761" lon="-8.079117">
        <time>2022-07-14T09:41:26Z</time>
      </trkpt>
      <trkpt lat="42.917652" lon="-8.079153">
        <time>2022-07-14T09:41:30Z</time>
      </trkpt>
      <trkpt lat="42.917698" lon="-8.079192">
        <time>2022-07-14T09:41:35Z</time>
      </trkpt>
      <trkpt lat="42.917736" lon="-8.079233">
        <time>2022-07-14T09:41:40Z</time>
      </trkpt>
      <trkpt lat="42.917774" lon="-8.079284">
        <time>2022-07-14T09:41:45Z</time>
      </trkpt>
      <trkpt lat="42.917816" lon="-8.079347">
        <time>2022-07-14T09:41:51Z</time>
      </trkpt>
      <trkpt lat="42.917847" lon="-8.079394">
        <time>2022-07-14T09:41:55Z</time>
      </trkpt>
      <trkpt lat="42.917877" lon="-8.079453">
        <time>2022-07-14T09:42:00Z</time>
      </trkpt>
      <trkpt lat="42.91791" lon="-8.079532">
        <time>2022-07-14T09:42:05Z</time>
      </trkpt>
      <trkpt lat="42.91794" lon="-8.079603">
        <time>2022-07-14T09:42:10Z</time>
      </trkpt>
      <trkpt lat="42.917953" lon="-8.079663">
        <time>2022-07-14T09:42:14Z</time>
      </trkpt>
      <trkpt lat="42.917984" lon="-8.079737">
        <time>2022-07-14T09:42:19Z</time>
      </trkpt>
      <trkpt lat="42.918015" lon="-8.07981">
        <time>2022-07-14T09:42:24Z</time>
      </trkpt>
      <trkpt lat="42.918022" lon="-8.079885">
        <time>2022-07-14T09:42:29Z</time>
      </trkpt>
      <trkpt lat="42.918026" lon="-8.079962">
        <time>2022-07-14T09:42:33Z</time>
      </trkpt>
      <trkpt lat="42.91804" lon="-8.080032">
        <time>2022-07-14T09:42:37Z</time>
      </trkpt>
      <trkpt lat="42.918053" lon="-8.080097">
        <time>2022-07-14T09:42:41Z</time>
      </trkpt>
      <trkpt lat="42.918068" lon="-8.080178">
        <time>2022-07-14T09:42:46Z</time>
      </trkpt>
      <trkpt lat="42.91809" lon="-8.080248">
        <time>2022-07-14T09:42:50Z</time>
      </trkpt>
      <trkpt lat="42.91811" lon="-8.080325">
        <time>2022-07-14T09:42:55Z</time>
      </trkpt>
      <trkpt lat="42.91813" lon="-8.080408">
        <time>2022-07-14T09:43:00Z</time>
      </trkpt>
      <trkpt lat="42.918148" lon="-8.080483">
        <time>2022-07-14T09:43:04Z</time>
      </trkpt>
      <trkpt lat="42.918163" lon="-8.080552">
        <time>2022-07-14T09:43:09Z</time>
      </trkpt>
      <trkpt lat="42.918194" lon="-8.080611">
        <time>2022-07-14T09:43:14Z</time>
      </trkpt>
      <trkpt lat="42.918213" lon="-8.080681">
        <time>2022-07-14T09:43:19Z</time>
      </trkpt>
      <trkpt lat="42.91824" lon="-8.080751">
        <time>2022-07-14T09:43:25Z</time>
      </trkpt>
      <trkpt lat="42.918262" lon="-8.080807">
        <time>2022-07-14T09:43:29Z</time>
      </trkpt>
      <trkpt lat="42.918285" lon="-8.080876">
        <time>2022-07-14T09:43:34Z</time>
      </trkpt>
      <trkpt lat="42.918297" lon="-8.080977">
        <time>2022-07-14T09:43:40Z</time>
      </trkpt>
      <trkpt lat="42.918304" lon="-8.081054">
        <time>2022-07-14T09:43:44Z</time>
      </trkpt>
      <trkpt lat="42.918304" lon="-8.081123">
        <time>2022-07-14T09:43:48Z</time>
      </trkpt>
      <trkpt lat="42.918316" lon="-8.081197">
        <time>2022-07-14T09:43:53Z</time>
      </trkpt>
      <trkpt lat="42.91832" lon="-8.081278">
        <time>2022-07-14T09:43:58Z</time>
      </trkpt>
      <trkpt lat="42.91832" lon="-8.081349">
        <time>2022-07-14T09:44:02Z</time>
      </trkpt>
      <trkpt lat="42.918316" lon="-8.081416">
        <time>2022-07-14T09:44:06Z</time>
      </trkpt>
      <trkpt lat="42.918297" lon="-8.081493">
        <time>2022-07-14T09:44:11Z</time>
      </trkpt>
      <trkpt lat="42.918293" lon="-8.081566">
        <time>2022-07-14T09:44:16Z</time>
      </trkpt>
      <trkpt lat="42.918304" lon="-8.081633">
        <time>2022-07-14T09:44:20Z</time>
      </trkpt>
      <trkpt lat="42.91834" lon="-8.081697">
        <time>2022-07-14T09:44:25Z</time>
      </trkpt>
      <trkpt lat="42.918385" lon="-8.081753">
        <time>2022-07-14T09:44:29Z</time>
      </trkpt>
      <trkpt lat="42.91841" lon="-8.081805">
        <time>2022-07-14T09:44:34Z</time>
      </trkpt>
      <trkpt lat="42.918385" lon="-8.08187">
        <time>2022-07-14T09:44:42Z</time>
      </trkpt>
      <trkpt lat="42.918358" lon="-8.081924">
        <time>2022-07-14T09:44:47Z</time>
      </trkpt>
      <trkpt lat="42.918327" lon="-8.081996">
        <time>2022-07-14T09:44:53Z</time>
      </trkpt>
      <trkpt lat="42.918324" lon="-8.082075">
        <time>2022-07-14T09:44:58Z</time>
      </trkpt>
      <trkpt lat="42.918324" lon="-8.082145">
        <time>2022-07-14T09:45:02Z</time>
      </trkpt>
      <trkpt lat="42.918327" lon="-8.082219">
        <time>2022-07-14T09:45:07Z</time>
      </trkpt>
      <trkpt lat="42.918335" lon="-8.082305">
        <time>2022-07-14T09:45:12Z</time>
      </trkpt>
      <trkpt lat="42.918346" lon="-8.082368">
        <time>2022-07-14T09:45:16Z</time>
      </trkpt>
      <trkpt lat="42.91836" lon="-8.08245">
        <time>2022-07-14T09:45:22Z</time>
      </trkpt>
      <trkpt lat="42.91836" lon="-8.08253">
        <time>2022-07-14T09:45:27Z</time>
      </trkpt>
      <trkpt lat="42.918373" lon="-8.0826025">
        <time>2022-07-14T09:45:32Z</time>
      </trkpt>
      <trkpt lat="42.91839" lon="-8.082672">
        <time>2022-07-14T09:45:37Z</time>
      </trkpt>
      <trkpt lat="42.918404" lon="-8.082732">
        <time>2022-07-14T09:45:41Z</time>
      </trkpt>
      <trkpt lat="42.91842" lon="-8.082799">
        <time>2022-07-14T09:45:46Z</time>
      </trkpt>
      <trkpt lat="42.91841" lon="-8.082876">
        <time>2022-07-14T09:45:51Z</time>
      </trkpt>
      <trkpt lat="42.918434" lon="-8.082981">
        <time>2022-07-14T09:46:01Z</time>
      </trkpt>
      <trkpt lat="42.918427" lon="-8.083058">
        <time>2022-07-14T09:46:06Z</time>
      </trkpt>
      <trkpt lat="42.918404" lon="-8.083144">
        <time>2022-07-14T09:46:12Z</time>
      </trkpt>
      <trkpt lat="42.91838" lon="-8.083223">
        <time>2022-07-14T09:46:17Z</time>
      </trkpt>
      <trkpt lat="42.918354" lon="-8.083293">
        <time>2022-07-14T09:46:22Z</time>
      </trkpt>
      <trkpt lat="42.918327" lon="-8.083345">
        <time>2022-07-14T09:46:26Z</time>
      </trkpt>
      <trkpt lat="42.918297" lon="-8.083405">
        <time>2022-07-14T09:46:31Z</time>
      </trkpt>
      <trkpt lat="42.918266" lon="-8.083462">
        <time>2022-07-14T09:46:36Z</time>
      </trkpt>
      <trkpt lat="42.918232" lon="-8.083522">
        <time>2022-07-14T09:46:41Z</time>
      </trkpt>
      <trkpt lat="42.9182" lon="-8.083582">
        <time>2022-07-14T09:46:47Z</time>
      </trkpt>
      <trkpt lat="42.918163" lon="-8.083655">
        <time>2022-07-14T09:46:52Z</time>
      </trkpt>
      <trkpt lat="42.918137" lon="-8.083705">
        <time>2022-07-14T09:46:55Z</time>
      </trkpt>
      <trkpt lat="42.918095" lon="-8.083767">
        <time>2022-07-14T09:47:00Z</time>
      </trkpt>
      <trkpt lat="42.918076" lon="-8.08383">
        <time>2022-07-14T09:47:04Z</time>
      </trkpt>
      <trkpt lat="42.918053" lon="-8.083907">
        <time>2022-07-14T09:47:09Z</time>
      </trkpt>
      <trkpt lat="42.918026" lon="-8.083978">
        <time>2022-07-14T09:47:13Z</time>
      </trkpt>
      <trkpt lat="42.918003" lon="-8.08405">
        <time>2022-07-14T09:47:17Z</time>
      </trkpt>
      <trkpt lat="42.918" lon="-8.08412">
        <time>2022-07-14T09:47:22Z</time>
      </trkpt>
      <trkpt lat="42.91799" lon="-8.084202">
        <time>2022-07-14T09:47:27Z</time>
      </trkpt>
      <trkpt lat="42.917973" lon="-8.084287">
        <time>2022-07-14T09:47:31Z</time>
      </trkpt>
      <trkpt lat="42.91797" lon="-8.084359">
        <time>2022-07-14T09:47:35Z</time>
      </trkpt>
      <trkpt lat="42.917973" lon="-8.084432">
        <time>2022-07-14T09:47:39Z</time>
      </trkpt>
      <trkpt lat="42.917976" lon="-8.084511">
        <time>2022-07-14T09:47:43Z</time>
      </trkpt>
      <trkpt lat="42.917995" lon="-8.084575">
        <time>2022-07-14T09:47:47Z</time>
      </trkpt>
      <trkpt lat="42.918003" lon="-8.08465">
        <time>2022-07-14T09:47:52Z</time>
      </trkpt>
      <trkpt lat="42.91801" lon="-8.084719">
        <time>2022-07-14T09:47:57Z</time>
      </trkpt>
      <trkpt lat="42.918037" lon="-8.084786">
        <time>2022-07-14T09:48:03Z</time>
      </trkpt>
      <trkpt lat="42.918083" lon="-8.084838">
        <time>2022-07-14T09:48:13Z</time>
      </trkpt>
      <trkpt lat="42.918133" lon="-8.084913">
        <time>2022-07-14T09:48:17Z</time>
      </trkpt>
      <trkpt lat="42.91818" lon="-8.084992">
        <time>2022-07-14T09:48:20Z</time>
      </trkpt>
      <trkpt lat="42.918182" lon="-8.085063">
        <time>2022-07-14T09:48:23Z</time>
      </trkpt>
      <trkpt lat="42.918182" lon="-8.085152">
        <time>2022-07-14T09:48:27Z</time>
      </trkpt>
      <trkpt lat="42.9182" lon="-8.085226">
        <time>2022-07-14T09:48:31Z</time>
      </trkpt>
      <trkpt lat="42.918213" lon="-8.085313">
        <time>2022-07-14T09:48:36Z</time>
      </trkpt>
      <trkpt lat="42.91823" lon="-8.085395">
        <time>2022-07-14T09:48:40Z</time>
      </trkpt>
      <trkpt lat="42.918213" lon="-8.085468">
        <time>2022-07-14T09:48:44Z</time>
      </trkpt>
      <trkpt lat="42.918213" lon="-8.085541">
        <time>2022-07-14T09:48:48Z</time>
      </trkpt>
      <trkpt lat="42.91822" lon="-8.08561">
        <time>2022-07-14T09:48:52Z</time>
      </trkpt>
      <trkpt lat="42.918247" lon="-8.085668">
        <time>2022-07-14T09:48:57Z</time>
      </trkpt>
      <trkpt lat="42.91826" lon="-8.085736">
        <time>2022-07-14T09:49:03Z</time>
      </trkpt>
      <trkpt lat="42.918297" lon="-8.085788">
        <time>2022-07-14T09:49:15Z</time>
      </trkpt>
      <trkpt lat="42.91837" lon="-8.085822">
        <time>2022-07-14T09:50:24Z</time>
      </trkpt>
      <trkpt lat="42.918385" lon="-8.085846">
        <time>2022-07-14T09:52:21Z</time>
      </trkpt>
      <trkpt lat="42.91843" lon="-8.08596">
        <time>2022-07-14T09:52:24Z</time>
      </trkpt>
      <trkpt lat="42.91843" lon="-8.085964">
        <time>2022-07-14T09:52:25Z</time>
      </trkpt>
      <trkpt lat="42.918465" lon="-8.086051">
        <time>2022-07-14T09:52:31Z</time>
      </trkpt>
      <trkpt lat="42.918495" lon="-8.086127">
        <time>2022-07-14T09:52:36Z</time>
      </trkpt>
      <trkpt lat="42.91851" lon="-8.086207">
        <time>2022-07-14T09:52:40Z</time>
      </trkpt>
      <trkpt lat="42.91852" lon="-8.086286">
        <time>2022-07-14T09:52:44Z</time>
      </trkpt>
      <trkpt lat="42.91852" lon="-8.086345">
        <time>2022-07-14T09:52:48Z</time>
      </trkpt>
      <trkpt lat="42.918533" lon="-8.086425">
        <time>2022-07-14T09:52:53Z</time>
      </trkpt>
      <trkpt lat="42.918545" lon="-8.086496">
        <time>2022-07-14T09:52:57Z</time>
      </trkpt>
      <trkpt lat="42.918552" lon="-8.08658">
        <time>2022-07-14T09:53:02Z</time>
      </trkpt>
      <trkpt lat="42.918568" lon="-8.086651">
        <time>2022-07-14T09:53:06Z</time>
      </trkpt>
      <trkpt lat="42.91858" lon="-8.086724">
        <time>2022-07-14T09:53:11Z</time>
      </trkpt>
      <trkpt lat="42.918594" lon="-8.086796">
        <time>2022-07-14T09:53:15Z</time>
      </trkpt>
      <trkpt lat="42.918602" lon="-8.086859">
        <time>2022-07-14T09:53:19Z</time>
      </trkpt>
      <trkpt lat="42.918613" lon="-8.086946">
        <time>2022-07-14T09:53:24Z</time>
      </trkpt>
      <trkpt lat="42.918633" lon="-8.08703">
        <time>2022-07-14T09:53:29Z</time>
      </trkpt>
      <trkpt lat="42.918648" lon="-8.087103">
        <time>2022-07-14T09:53:33Z</time>
      </trkpt>
      <trkpt lat="42.918655" lon="-8.087169">
        <time>2022-07-14T09:53:37Z</time>
      </trkpt>
      <trkpt lat="42.918667" lon="-8.087241">
        <time>2022-07-14T09:53:42Z</time>
      </trkpt>
      <trkpt lat="42.918682" lon="-8.087306">
        <time>2022-07-14T09:53:47Z</time>
      </trkpt>
      <trkpt lat="42.918697" lon="-8.087381">
        <time>2022-07-14T09:53:52Z</time>
      </trkpt>
      <trkpt lat="42.918705" lon="-8.0874605">
        <time>2022-07-14T09:53:57Z</time>
      </trkpt>
      <trkpt lat="42.918716" lon="-8.087527">
        <time>2022-07-14T09:54:01Z</time>
      </trkpt>
      <trkpt lat="42.918713" lon="-8.087606">
        <time>2022-07-14T09:54:06Z</time>
      </trkpt>
      <trkpt lat="42.91869" lon="-8.087685">
        <time>2022-07-14T09:54:11Z</time>
      </trkpt>
      <trkpt lat="42.91867" lon="-8.087759">
        <time>2022-07-14T09:54:16Z</time>
      </trkpt>
      <trkpt lat="42.918648" lon="-8.087834">
        <time>2022-07-14T09:54:20Z</time>
      </trkpt>
      <trkpt lat="42.91862" lon="-8.087894">
        <time>2022-07-14T09:54:24Z</time>
      </trkpt>
      <trkpt lat="42.918594" lon="-8.087958">
        <time>2022-07-14T09:54:29Z</time>
      </trkpt>
      <trkpt lat="42.91857" lon="-8.088024">
        <time>2022-07-14T09:54:34Z</time>
      </trkpt>
      <trkpt lat="42.918545" lon="-8.088094">
        <time>2022-07-14T09:54:39Z</time>
      </trkpt>
      <trkpt lat="42.918526" lon="-8.08817">
        <time>2022-07-14T09:54:44Z</time>
      </trkpt>
      <trkpt lat="42.918518" lon="-8.088236">
        <time>2022-07-14T09:54:48Z</time>
      </trkpt>
      <trkpt lat="42.91852" lon="-8.088307">
        <time>2022-07-14T09:54:53Z</time>
      </trkpt>
      <trkpt lat="42.918526" lon="-8.088387">
        <time>2022-07-14T09:54:58Z</time>
      </trkpt>
      <trkpt lat="42.91852" lon="-8.088456">
        <time>2022-07-14T09:55:03Z</time>
      </trkpt>
      <trkpt lat="42.918518" lon="-8.088534">
        <time>2022-07-14T09:55:09Z</time>
      </trkpt>
      <trkpt lat="42.918518" lon="-8.08862">
        <time>2022-07-14T09:55:13Z</time>
      </trkpt>
      <trkpt lat="42.91852" lon="-8.088691">
        <time>2022-07-14T09:55:17Z</time>
      </trkpt>
      <trkpt lat="42.918518" lon="-8.088768">
        <time>2022-07-14T09:55:22Z</time>
      </trkpt>
      <trkpt lat="42.918503" lon="-8.088841">
        <time>2022-07-14T09:55:28Z</time>
      </trkpt>
      <trkpt lat="42.918495" lon="-8.088911">
        <time>2022-07-14T09:55:34Z</time>
      </trkpt>
      <trkpt lat="42.918495" lon="-8.088986">
        <time>2022-07-14T09:55:39Z</time>
      </trkpt>
      <trkpt lat="42.918514" lon="-8.089067">
        <time>2022-07-14T09:55:44Z</time>
      </trkpt>
      <trkpt lat="42.91854" lon="-8.089133">
        <time>2022-07-14T09:55:49Z</time>
      </trkpt>
      <trkpt lat="42.918537" lon="-8.089177">
        <time>2022-07-14T09:56:00Z</time>
      </trkpt>
      <trkpt lat="42.918545" lon="-8.08925">
        <time>2022-07-14T10:00:03Z</time>
      </trkpt>
      <trkpt lat="42.918613" lon="-8.089233">
        <time>2022-07-14T10:00:08Z</time>
      </trkpt>
      <trkpt lat="42.918674" lon="-8.0892105">
        <time>2022-07-14T10:00:11Z</time>
      </trkpt>
      <trkpt lat="42.918728" lon="-8.089194">
        <time>2022-07-14T10:00:14Z</time>
      </trkpt>
      <trkpt lat="42.918774" lon="-8.089173">
        <time>2022-07-14T10:00:19Z</time>
      </trkpt>
      <trkpt lat="42.91882" lon="-8.089124">
        <time>2022-07-14T10:00:26Z</time>
      </trkpt>
      <trkpt lat="42.918854" lon="-8.089061">
        <time>2022-07-14T10:00:31Z</time>
      </trkpt>
      <trkpt lat="42.918888" lon="-8.089004">
        <time>2022-07-14T10:00:35Z</time>
      </trkpt>
      <trkpt lat="42.91894" lon="-8.088953">
        <time>2022-07-14T10:00:40Z</time>
      </trkpt>
      <trkpt lat="42.918995" lon="-8.088908">
        <time>2022-07-14T10:00:44Z</time>
      </trkpt>
      <trkpt lat="42.919044" lon="-8.088885">
        <time>2022-07-14T10:00:51Z</time>
      </trkpt>
      <trkpt lat="42.919094" lon="-8.0889015">
        <time>2022-07-14T10:00:58Z</time>
      </trkpt>
      <trkpt lat="42.919132" lon="-8.088954">
        <time>2022-07-14T10:01:04Z</time>
      </trkpt>
      <trkpt lat="42.919144" lon="-8.08902">
        <time>2022-07-14T10:01:09Z</time>
      </trkpt>
      <trkpt lat="42.919155" lon="-8.089088">
        <time>2022-07-14T10:01:14Z</time>
      </trkpt>
      <trkpt lat="42.919186" lon="-8.089172">
        <time>2022-07-14T10:01:19Z</time>
      </trkpt>
      <trkpt lat="42.919205" lon="-8.089234">
        <time>2022-07-14T10:01:23Z</time>
      </trkpt>
      <trkpt lat="42.91924" lon="-8.089303">
        <time>2022-07-14T10:01:29Z</time>
      </trkpt>
      <trkpt lat="42.919266" lon="-8.089368">
        <time>2022-07-14T10:01:34Z</time>
      </trkpt>
      <trkpt lat="42.91928" lon="-8.089431">
        <time>2022-07-14T10:01:39Z</time>
      </trkpt>
      <trkpt lat="42.919292" lon="-8.089502">
        <time>2022-07-14T10:01:46Z</time>
      </trkpt>
      <trkpt lat="42.91931" lon="-8.089575">
        <time>2022-07-14T10:01:51Z</time>
      </trkpt>
      <trkpt lat="42.919327" lon="-8.089641">
        <time>2022-07-14T10:01:56Z</time>
      </trkpt>
      <trkpt lat="42.91934" lon="-8.089714">
        <time>2022-07-14T10:02:03Z</time>
      </trkpt>
      <trkpt lat="42.91935" lon="-8.08979">
        <time>2022-07-14T10:02:09Z</time>
      </trkpt>
      <trkpt lat="42.919365" lon="-8.08987">
        <time>2022-07-14T10:02:15Z</time>
      </trkpt>
      <trkpt lat="42.919373" lon="-8.089942">
        <time>2022-07-14T10:02:20Z</time>
      </trkpt>
      <trkpt lat="42.919388" lon="-8.090006">
        <time>2022-07-14T10:02:25Z</time>
      </trkpt>
      <trkpt lat="42.91942" lon="-8.0900755">
        <time>2022-07-14T10:02:31Z</time>
      </trkpt>
      <trkpt lat="42.91944" lon="-8.090134">
        <time>2022-07-14T10:02:36Z</time>
      </trkpt>
      <trkpt lat="42.919456" lon="-8.090208">
        <time>2022-07-14T10:02:41Z</time>
      </trkpt>
      <trkpt lat="42.919468" lon="-8.09027">
        <time>2022-07-14T10:02:46Z</time>
      </trkpt>
      <trkpt lat="42.919483" lon="-8.090346">
        <time>2022-07-14T10:02:53Z</time>
      </trkpt>
      <trkpt lat="42.919483" lon="-8.090428">
        <time>2022-07-14T10:02:59Z</time>
      </trkpt>
      <trkpt lat="42.919483" lon="-8.090512">
        <time>2022-07-14T10:03:05Z</time>
      </trkpt>
      <trkpt lat="42.91949" lon="-8.090585">
        <time>2022-07-14T10:03:10Z</time>
      </trkpt>
      <trkpt lat="42.91949" lon="-8.090657">
        <time>2022-07-14T10:03:15Z</time>
      </trkpt>
      <trkpt lat="42.919487" lon="-8.090734">
        <time>2022-07-14T10:03:21Z</time>
      </trkpt>
      <trkpt lat="42.919487" lon="-8.090803">
        <time>2022-07-14T10:03:26Z</time>
      </trkpt>
      <trkpt lat="42.91949" lon="-8.090882">
        <time>2022-07-14T10:03:32Z</time>
      </trkpt>
      <trkpt lat="42.919502" lon="-8.090965">
        <time>2022-07-14T10:03:38Z</time>
      </trkpt>
      <trkpt lat="42.919525" lon="-8.091036">
        <time>2022-07-14T10:03:43Z</time>
      </trkpt>
      <trkpt lat="42.919556" lon="-8.091088">
        <time>2022-07-14T10:03:48Z</time>
      </trkpt>
      <trkpt lat="42.9196" lon="-8.091145">
        <time>2022-07-14T10:03:54Z</time>
      </trkpt>
      <trkpt lat="42.919643" lon="-8.091205">
        <time>2022-07-14T10:04:00Z</time>
      </trkpt>
      <trkpt lat="42.919674" lon="-8.091251">
        <time>2022-07-14T10:04:04Z</time>
      </trkpt>
      <trkpt lat="42.919712" lon="-8.091295">
        <time>2022-07-14T10:04:09Z</time>
      </trkpt>
      <trkpt lat="42.919754" lon="-8.091348">
        <time>2022-07-14T10:04:16Z</time>
      </trkpt>
      <trkpt lat="42.919804" lon="-8.091388">
        <time>2022-07-14T10:04:23Z</time>
      </trkpt>
      <trkpt lat="42.919846" lon="-8.091447">
        <time>2022-07-14T10:04:29Z</time>
      </trkpt>
      <trkpt lat="42.919884" lon="-8.091502">
        <time>2022-07-14T10:04:35Z</time>
      </trkpt>
      <trkpt lat="42.919914" lon="-8.091556">
        <time>2022-07-14T10:04:43Z</time>
      </trkpt>
      <trkpt lat="42.919945" lon="-8.091626">
        <time>2022-07-14T10:04:49Z</time>
      </trkpt>
      <trkpt lat="42.919968" lon="-8.091676">
        <time>2022-07-14T10:04:53Z</time>
      </trkpt>
      <trkpt lat="42.920013" lon="-8.091728">
        <time>2022-07-14T10:04:59Z</time>
      </trkpt>
      <trkpt lat="42.920063" lon="-8.091779">
        <time>2022-07-14T10:05:04Z</time>
      </trkpt>
      <trkpt lat="42.920097" lon="-8.0918255">
        <time>2022-07-14T10:05:09Z</time>
      </trkpt>
      <trkpt lat="42.92014" lon="-8.091884">
        <time>2022-07-14T10:05:16Z</time>
      </trkpt>
      <trkpt lat="42.920174" lon="-8.091929">
        <time>2022-07-14T10:05:22Z</time>
      </trkpt>
      <trkpt lat="42.920223" lon="-8.091975">
        <time>2022-07-14T10:05:28Z</time>
      </trkpt>
      <trkpt lat="42.92027" lon="-8.09201">
        <time>2022-07-14T10:05:36Z</time>
      </trkpt>
      <trkpt lat="42.9203" lon="-8.092067">
        <time>2022-07-14T10:05:42Z</time>
      </trkpt>
      <trkpt lat="42.920338" lon="-8.092128">
        <time>2022-07-14T10:05:49Z</time>
      </trkpt>
      <trkpt lat="42.920372" lon="-8.092173">
        <time>2022-07-14T10:05:55Z</time>
      </trkpt>
      <trkpt lat="42.92039" lon="-8.092238">
        <time>2022-07-14T10:06:03Z</time>
      </trkpt>
      <trkpt lat="42.920406" lon="-8.09231">
        <time>2022-07-14T10:06:10Z</time>
      </trkpt>
      <trkpt lat="42.920418" lon="-8.092384">
        <time>2022-07-14T10:06:16Z</time>
      </trkpt>
      <trkpt lat="42.920456" lon="-8.092448">
        <time>2022-07-14T10:06:23Z</time>
      </trkpt>
      <trkpt lat="42.920506" lon="-8.092483">
        <time>2022-07-14T10:06:29Z</time>
      </trkpt>
      <trkpt lat="42.920547" lon="-8.092524">
        <time>2022-07-14T10:06:36Z</time>
      </trkpt>
      <trkpt lat="42.92059" lon="-8.092535">
        <time>2022-07-14T10:07:08Z</time>
      </trkpt>
      <trkpt lat="42.92065" lon="-8.092572">
        <time>2022-07-14T10:07:14Z</time>
      </trkpt>
      <trkpt lat="42.920704" lon="-8.092602">
        <time>2022-07-14T10:07:18Z</time>
      </trkpt>
      <trkpt lat="42.920757" lon="-8.092634">
        <time>2022-07-14T10:07:23Z</time>
      </trkpt>
      <trkpt lat="42.9208" lon="-8.092658">
        <time>2022-07-14T10:07:28Z</time>
      </trkpt>
      <trkpt lat="42.920856" lon="-8.092689">
        <time>2022-07-14T10:07:34Z</time>
      </trkpt>
      <trkpt lat="42.9209" lon="-8.092722">
        <time>2022-07-14T10:07:38Z</time>
      </trkpt>
      <trkpt lat="42.92095" lon="-8.092745">
        <time>2022-07-14T10:07:43Z</time>
      </trkpt>
      <trkpt lat="42.921005" lon="-8.092762">
        <time>2022-07-14T10:07:49Z</time>
      </trkpt>
      <trkpt lat="42.921062" lon="-8.092794">
        <time>2022-07-14T10:07:55Z</time>
      </trkpt>
      <trkpt lat="42.921116" lon="-8.092817">
        <time>2022-07-14T10:08:00Z</time>
      </trkpt>
      <trkpt lat="42.921165" lon="-8.092838">
        <time>2022-07-14T10:08:04Z</time>
      </trkpt>
      <trkpt lat="42.921215" lon="-8.092849">
        <time>2022-07-14T10:08:09Z</time>
      </trkpt>
      <trkpt lat="42.921276" lon="-8.092865">
        <time>2022-07-14T10:08:15Z</time>
      </trkpt>
      <trkpt lat="42.92135" lon="-8.09288">
        <time>2022-07-14T10:08:21Z</time>
      </trkpt>
      <trkpt lat="42.921402" lon="-8.0929">
        <time>2022-07-14T10:08:27Z</time>
      </trkpt>
      <trkpt lat="42.921455" lon="-8.092924">
        <time>2022-07-14T10:08:32Z</time>
      </trkpt>
      <trkpt lat="42.921513" lon="-8.092943">
        <time>2022-07-14T10:08:37Z</time>
      </trkpt>
      <trkpt lat="42.921562" lon="-8.092963">
        <time>2022-07-14T10:08:41Z</time>
      </trkpt>
      <trkpt lat="42.921623" lon="-8.09299">
        <time>2022-07-14T10:08:46Z</time>
      </trkpt>
      <trkpt lat="42.92168" lon="-8.093016">
        <time>2022-07-14T10:08:51Z</time>
      </trkpt>
      <trkpt lat="42.92173" lon="-8.093038">
        <time>2022-07-14T10:08:56Z</time>
      </trkpt>
      <trkpt lat="42.921776" lon="-8.093046">
        <time>2022-07-14T10:09:01Z</time>
      </trkpt>
      <trkpt lat="42.921837" lon="-8.093083">
        <time>2022-07-14T10:09:08Z</time>
      </trkpt>
      <trkpt lat="42.92188" lon="-8.09311">
        <time>2022-07-14T10:09:12Z</time>
      </trkpt>
      <trkpt lat="42.921936" lon="-8.0931425">
        <time>2022-07-14T10:09:17Z</time>
      </trkpt>
      <trkpt lat="42.921986" lon="-8.093168">
        <time>2022-07-14T10:09:23Z</time>
      </trkpt>
      <trkpt lat="42.922043" lon="-8.093203">
        <time>2022-07-14T10:09:29Z</time>
      </trkpt>
      <trkpt lat="42.92209" lon="-8.093224">
        <time>2022-07-14T10:09:32Z</time>
      </trkpt>
      <trkpt lat="42.922146" lon="-8.093265">
        <time>2022-07-14T10:09:39Z</time>
      </trkpt>
      <trkpt lat="42.922188" lon="-8.0933">
        <time>2022-07-14T10:09:44Z</time>
      </trkpt>
      <trkpt lat="42.922237" lon="-8.093339">
        <time>2022-07-14T10:09:49Z</time>
      </trkpt>
      <trkpt lat="42.922287" lon="-8.093377">
        <time>2022-07-14T10:09:54Z</time>
      </trkpt>
      <trkpt lat="42.922337" lon="-8.0934105">
        <time>2022-07-14T10:09:59Z</time>
      </trkpt>
      <trkpt lat="42.922386" lon="-8.093451">
        <time>2022-07-14T10:10:04Z</time>
      </trkpt>
      <trkpt lat="42.92244" lon="-8.093482">
        <time>2022-07-14T10:10:09Z</time>
      </trkpt>
      <trkpt lat="42.92248" lon="-8.093513">
        <time>2022-07-14T10:10:13Z</time>
      </trkpt>
      <trkpt lat="42.922523" lon="-8.093547">
        <time>2022-07-14T10:10:18Z</time>
      </trkpt>
      <trkpt lat="42.922577" lon="-8.093587">
        <time>2022-07-14T10:10:24Z</time>
      </trkpt>
      <trkpt lat="42.922623" lon="-8.09362">
        <time>2022-07-14T10:10:27Z</time>
      </trkpt>
      <trkpt lat="42.922684" lon="-8.093673">
        <time>2022-07-14T10:10:34Z</time>
      </trkpt>
      <trkpt lat="42.922733" lon="-8.093716">
        <time>2022-07-14T10:10:39Z</time>
      </trkpt>
      <trkpt lat="42.92277" lon="-8.093753">
        <time>2022-07-14T10:10:43Z</time>
      </trkpt>
      <trkpt lat="42.92282" lon="-8.093792">
        <time>2022-07-14T10:10:48Z</time>
      </trkpt>
      <trkpt lat="42.922867" lon="-8.093823">
        <time>2022-07-14T10:10:54Z</time>
      </trkpt>
      <trkpt lat="42.922913" lon="-8.093855">
        <time>2022-07-14T10:10:58Z</time>
      </trkpt>
      <trkpt lat="42.922966" lon="-8.093895">
        <time>2022-07-14T10:11:03Z</time>
      </trkpt>
      <trkpt lat="42.923008" lon="-8.093928">
        <time>2022-07-14T10:11:07Z</time>
      </trkpt>
      <trkpt lat="42.923058" lon="-8.093967">
        <time>2022-07-14T10:11:12Z</time>
      </trkpt>
      <trkpt lat="42.923107" lon="-8.094008">
        <time>2022-07-14T10:11:17Z</time>
      </trkpt>
      <trkpt lat="42.923157" lon="-8.0940485">
        <time>2022-07-14T10:11:22Z</time>
      </trkpt>
      <trkpt lat="42.9232" lon="-8.094086">
        <time>2022-07-14T10:11:27Z</time>
      </trkpt>
      <trkpt lat="42.923244" lon="-8.094127">
        <time>2022-07-14T10:11:32Z</time>
      </trkpt>
      <trkpt lat="42.923294" lon="-8.094169">
        <time>2022-07-14T10:11:37Z</time>
      </trkpt>
      <trkpt lat="42.923336" lon="-8.094205">
        <time>2022-07-14T10:11:42Z</time>
      </trkpt>
      <trkpt lat="42.92338" lon="-8.094247">
        <time>2022-07-14T10:11:47Z</time>
      </trkpt>
      <trkpt lat="42.923424" lon="-8.094295">
        <time>2022-07-14T10:11:52Z</time>
      </trkpt>
      <trkpt lat="42.92347" lon="-8.094332">
        <time>2022-07-14T10:11:57Z</time>
      </trkpt>
      <trkpt lat="42.923515" lon="-8.094367">
        <time>2022-07-14T10:12:02Z</time>
      </trkpt>
      <trkpt lat="42.92356" lon="-8.094403">
        <time>2022-07-14T10:12:07Z</time>
      </trkpt>
      <trkpt lat="42.923607" lon="-8.094444">
        <time>2022-07-14T10:12:13Z</time>
      </trkpt>
      <trkpt lat="42.92366" lon="-8.094482">
        <time>2022-07-14T10:12:18Z</time>
      </trkpt>
      <trkpt lat="42.92371" lon="-8.094528">
        <time>2022-07-14T10:12:23Z</time>
      </trkpt>
      <trkpt lat="42.923748" lon="-8.094571">
        <time>2022-07-14T10:12:27Z</time>
      </trkpt>
      <trkpt lat="42.923786" lon="-8.094614">
        <time>2022-07-14T10:12:31Z</time>
      </trkpt>
      <trkpt lat="42.923836" lon="-8.094665">
        <time>2022-07-14T10:12:36Z</time>
      </trkpt>
      <trkpt lat="42.923874" lon="-8.094717">
        <time>2022-07-14T10:12:41Z</time>
      </trkpt>
      <trkpt lat="42.923912" lon="-8.094776">
        <time>2022-07-14T10:12:46Z</time>
      </trkpt>
      <trkpt lat="42.92395" lon="-8.09484">
        <time>2022-07-14T10:12:51Z</time>
      </trkpt>
      <trkpt lat="42.92399" lon="-8.094892">
        <time>2022-07-14T10:12:55Z</time>
      </trkpt>
      <trkpt lat="42.92403" lon="-8.094947">
        <time>2022-07-14T10:12:59Z</time>
      </trkpt>
      <trkpt lat="42.924065" lon="-8.095003">
        <time>2022-07-14T10:13:03Z</time>
      </trkpt>
      <trkpt lat="42.924095" lon="-8.0950575">
        <time>2022-07-14T10:13:07Z</time>
      </trkpt>
      <trkpt lat="42.924126" lon="-8.095115">
        <time>2022-07-14T10:13:11Z</time>
      </trkpt>
      <trkpt lat="42.924156" lon="-8.095178">
        <time>2022-07-14T10:13:15Z</time>
      </trkpt>
      <trkpt lat="42.92419" lon="-8.095256">
        <time>2022-07-14T10:13:20Z</time>
      </trkpt>
      <trkpt lat="42.924217" lon="-8.095322">
        <time>2022-07-14T10:13:24Z</time>
      </trkpt>
      <trkpt lat="42.92424" lon="-8.095391">
        <time>2022-07-14T10:13:28Z</time>
      </trkpt>
      <trkpt lat="42.92426" lon="-8.095459">
        <time>2022-07-14T10:13:32Z</time>
      </trkpt>
      <trkpt lat="42.924286" lon="-8.095529">
        <time>2022-07-14T10:13:36Z</time>
      </trkpt>
      <trkpt lat="42.924305" lon="-8.095597">
        <time>2022-07-14T10:13:40Z</time>
      </trkpt>
      <trkpt lat="42.924328" lon="-8.09567">
        <time>2022-07-14T10:13:44Z</time>
      </trkpt>
      <trkpt lat="42.924343" lon="-8.095743">
        <time>2022-07-14T10:13:48Z</time>
      </trkpt>
      <trkpt lat="42.924366" lon="-8.095821">
        <time>2022-07-14T10:13:52Z</time>
      </trkpt>
      <trkpt lat="42.92439" lon="-8.0959">
        <time>2022-07-14T10:13:56Z</time>
      </trkpt>
      <trkpt lat="42.924408" lon="-8.095975">
        <time>2022-07-14T10:14:00Z</time>
      </trkpt>
      <trkpt lat="42.924435" lon="-8.096049">
        <time>2022-07-14T10:14:04Z</time>
      </trkpt>
      <trkpt lat="42.924454" lon="-8.096121">
        <time>2022-07-14T10:14:08Z</time>
      </trkpt>
      <trkpt lat="42.924473" lon="-8.096195">
        <time>2022-07-14T10:14:12Z</time>
      </trkpt>
      <trkpt lat="42.92449" lon="-8.096274">
        <time>2022-07-14T10:14:16Z</time>
      </trkpt>
      <trkpt lat="42.92451" lon="-8.0963545">
        <time>2022-07-14T10:14:20Z</time>
      </trkpt>
      <trkpt lat="42.924534" lon="-8.09643">
        <time>2022-07-14T10:14:24Z</time>
      </trkpt>
      <trkpt lat="42.924553" lon="-8.096501">
        <time>2022-07-14T10:14:28Z</time>
      </trkpt>
      <trkpt lat="42.924572" lon="-8.096575">
        <time>2022-07-14T10:14:32Z</time>
      </trkpt>
      <trkpt lat="42.924587" lon="-8.09665">
        <time>2022-07-14T10:14:36Z</time>
      </trkpt>
      <trkpt lat="42.924603" lon="-8.096724">
        <time>2022-07-14T10:14:40Z</time>
      </trkpt>
      <trkpt lat="42.924618" lon="-8.096793">
        <time>2022-07-14T10:14:44Z</time>
      </trkpt>
      <trkpt lat="42.924633" lon="-8.096863">
        <time>2022-07-14T10:14:48Z</time>
      </trkpt>
      <trkpt lat="42.92465" lon="-8.096945">
        <time>2022-07-14T10:14:53Z</time>
      </trkpt>
      <trkpt lat="42.924664" lon="-8.097013">
        <time>2022-07-14T10:14:57Z</time>
      </trkpt>
      <trkpt lat="42.92469" lon="-8.097091">
        <time>2022-07-14T10:15:01Z</time>
      </trkpt>
      <trkpt lat="42.92471" lon="-8.097158">
        <time>2022-07-14T10:15:05Z</time>
      </trkpt>
      <trkpt lat="42.924732" lon="-8.097239">
        <time>2022-07-14T10:15:10Z</time>
      </trkpt>
      <trkpt lat="42.924736" lon="-8.097319">
        <time>2022-07-14T10:15:14Z</time>
      </trkpt>
      <trkpt lat="42.924725" lon="-8.097403">
        <time>2022-07-14T10:15:18Z</time>
      </trkpt>
      <trkpt lat="42.924706" lon="-8.097482">
        <time>2022-07-14T10:15:22Z</time>
      </trkpt>
      <trkpt lat="42.92468" lon="-8.097544">
        <time>2022-07-14T10:15:26Z</time>
      </trkpt>
      <trkpt lat="42.92465" lon="-8.097613">
        <time>2022-07-14T10:15:30Z</time>
      </trkpt>
      <trkpt lat="42.924618" lon="-8.097667">
        <time>2022-07-14T10:15:33Z</time>
      </trkpt>
      <trkpt lat="42.924595" lon="-8.0977335">
        <time>2022-07-14T10:15:38Z</time>
      </trkpt>
      <trkpt lat="42.924576" lon="-8.097803">
        <time>2022-07-14T10:15:43Z</time>
      </trkpt>
      <trkpt lat="42.924564" lon="-8.0978775">
        <time>2022-07-14T10:15:47Z</time>
      </trkpt>
      <trkpt lat="42.924553" lon="-8.097946">
        <time>2022-07-14T10:15:51Z</time>
      </trkpt>
      <trkpt lat="42.924553" lon="-8.098016">
        <time>2022-07-14T10:15:56Z</time>
      </trkpt>
      <trkpt lat="42.92456" lon="-8.098071">
        <time>2022-07-14T10:16:02Z</time>
      </trkpt>
      <trkpt lat="42.92457" lon="-8.098155">
        <time>2022-07-14T10:16:09Z</time>
      </trkpt>
      <trkpt lat="42.924572" lon="-8.098236">
        <time>2022-07-14T10:16:14Z</time>
      </trkpt>
      <trkpt lat="42.924572" lon="-8.098311">
        <time>2022-07-14T10:16:18Z</time>
      </trkpt>
      <trkpt lat="42.924572" lon="-8.098397">
        <time>2022-07-14T10:16:22Z</time>
      </trkpt>
      <trkpt lat="42.92458" lon="-8.098487">
        <time>2022-07-14T10:16:26Z</time>
      </trkpt>
      <trkpt lat="42.924587" lon="-8.098556">
        <time>2022-07-14T10:16:29Z</time>
      </trkpt>
      <trkpt lat="42.9246" lon="-8.098641">
        <time>2022-07-14T10:16:33Z</time>
      </trkpt>
      <trkpt lat="42.92462" lon="-8.098724">
        <time>2022-07-14T10:16:37Z</time>
      </trkpt>
      <trkpt lat="42.924644" lon="-8.098783">
        <time>2022-07-14T10:16:40Z</time>
      </trkpt>
      <trkpt lat="42.924683" lon="-8.098863">
        <time>2022-07-14T10:16:44Z</time>
      </trkpt>
      <trkpt lat="42.924706" lon="-8.0989275">
        <time>2022-07-14T10:16:47Z</time>
      </trkpt>
      <trkpt lat="42.924725" lon="-8.098988">
        <time>2022-07-14T10:16:50Z</time>
      </trkpt>
      <trkpt lat="42.924732" lon="-8.099063">
        <time>2022-07-14T10:16:54Z</time>
      </trkpt>
      <trkpt lat="42.924732" lon="-8.099134">
        <time>2022-07-14T10:16:58Z</time>
      </trkpt>
      <trkpt lat="42.924725" lon="-8.099202">
        <time>2022-07-14T10:17:02Z</time>
      </trkpt>
      <trkpt lat="42.924713" lon="-8.099277">
        <time>2022-07-14T10:17:06Z</time>
      </trkpt>
      <trkpt lat="42.924698" lon="-8.099345">
        <time>2022-07-14T10:17:10Z</time>
      </trkpt>
      <trkpt lat="42.924683" lon="-8.099415">
        <time>2022-07-14T10:17:14Z</time>
      </trkpt>
      <trkpt lat="42.924667" lon="-8.099499">
        <time>2022-07-14T10:17:19Z</time>
      </trkpt>
      <trkpt lat="42.924664" lon="-8.099579">
        <time>2022-07-14T10:17:24Z</time>
      </trkpt>
      <trkpt lat="42.924667" lon="-8.099648">
        <time>2022-07-14T10:17:28Z</time>
      </trkpt>
      <trkpt lat="42.924664" lon="-8.099722">
        <time>2022-07-14T10:17:32Z</time>
      </trkpt>
      <trkpt lat="42.92466" lon="-8.099806">
        <time>2022-07-14T10:17:36Z</time>
      </trkpt>
      <trkpt lat="42.924656" lon="-8.099899">
        <time>2022-07-14T10:17:40Z</time>
      </trkpt>
      <trkpt lat="42.924652" lon="-8.099971">
        <time>2022-07-14T10:17:43Z</time>
      </trkpt>
      <trkpt lat="42.924652" lon="-8.100041">
        <time>2022-07-14T10:17:46Z</time>
      </trkpt>
      <trkpt lat="42.924644" lon="-8.100118">
        <time>2022-07-14T10:17:49Z</time>
      </trkpt>
      <trkpt lat="42.92464" lon="-8.100188">
        <time>2022-07-14T10:17:52Z</time>
      </trkpt>
      <trkpt lat="42.924644" lon="-8.100266">
        <time>2022-07-14T10:17:56Z</time>
      </trkpt>
      <trkpt lat="42.92464" lon="-8.100345">
        <time>2022-07-14T10:18:00Z</time>
      </trkpt>
      <trkpt lat="42.924637" lon="-8.100413">
        <time>2022-07-14T10:18:04Z</time>
      </trkpt>
      <trkpt lat="42.92464" lon="-8.100493">
        <time>2022-07-14T10:18:09Z</time>
      </trkpt>
      <trkpt lat="42.92464" lon="-8.100561">
        <time>2022-07-14T10:18:13Z</time>
      </trkpt>
      <trkpt lat="42.924644" lon="-8.100635">
        <time>2022-07-14T10:18:18Z</time>
      </trkpt>
      <trkpt lat="42.92464" lon="-8.100709">
        <time>2022-07-14T10:18:25Z</time>
      </trkpt>
      <trkpt lat="42.924637" lon="-8.100777">
        <time>2022-07-14T10:18:30Z</time>
      </trkpt>
      <trkpt lat="42.924637" lon="-8.100856">
        <time>2022-07-14T10:18:35Z</time>
      </trkpt>
      <trkpt lat="42.92464" lon="-8.100938">
        <time>2022-07-14T10:18:40Z</time>
      </trkpt>
      <trkpt lat="42.924644" lon="-8.101018">
        <time>2022-07-14T10:18:44Z</time>
      </trkpt>
      <trkpt lat="42.924652" lon="-8.101099">
        <time>2022-07-14T10:18:48Z</time>
      </trkpt>
      <trkpt lat="42.92465" lon="-8.101188">
        <time>2022-07-14T10:18:52Z</time>
      </trkpt>
      <trkpt lat="42.924644" lon="-8.101265">
        <time>2022-07-14T10:18:56Z</time>
      </trkpt>
      <trkpt lat="42.92464" lon="-8.10133">
        <time>2022-07-14T10:19:00Z</time>
      </trkpt>
      <trkpt lat="42.92464" lon="-8.101417">
        <time>2022-07-14T10:19:05Z</time>
      </trkpt>
      <trkpt lat="42.92464" lon="-8.101501">
        <time>2022-07-14T10:19:09Z</time>
      </trkpt>
      <trkpt lat="42.924644" lon="-8.101571">
        <time>2022-07-14T10:19:12Z</time>
      </trkpt>
      <trkpt lat="42.924652" lon="-8.1016445">
        <time>2022-07-14T10:19:16Z</time>
      </trkpt>
      <trkpt lat="42.924667" lon="-8.101719">
        <time>2022-07-14T10:19:21Z</time>
      </trkpt>
      <trkpt lat="42.924686" lon="-8.101801">
        <time>2022-07-14T10:19:26Z</time>
      </trkpt>
      <trkpt lat="42.92471" lon="-8.101876">
        <time>2022-07-14T10:19:30Z</time>
      </trkpt>
      <trkpt lat="42.924725" lon="-8.1019335">
        <time>2022-07-14T10:19:33Z</time>
      </trkpt>
      <trkpt lat="42.924744" lon="-8.102015">
        <time>2022-07-14T10:19:37Z</time>
      </trkpt>
      <trkpt lat="42.92476" lon="-8.102077">
        <time>2022-07-14T10:19:40Z</time>
      </trkpt>
      <trkpt lat="42.92478" lon="-8.102148">
        <time>2022-07-14T10:19:44Z</time>
      </trkpt>
      <trkpt lat="42.92481" lon="-8.102201">
        <time>2022-07-14T10:19:48Z</time>
      </trkpt>
      <trkpt lat="42.924835" lon="-8.10227">
        <time>2022-07-14T10:19:53Z</time>
      </trkpt>
      <trkpt lat="42.92486" lon="-8.102342">
        <time>2022-07-14T10:19:57Z</time>
      </trkpt>
      <trkpt lat="42.924885" lon="-8.102415">
        <time>2022-07-14T10:20:01Z</time>
      </trkpt>
      <trkpt lat="42.924904" lon="-8.102464">
        <time>2022-07-14T10:20:06Z</time>
      </trkpt>
      <trkpt lat="42.924934" lon="-8.102552">
        <time>2022-07-14T10:20:14Z</time>
      </trkpt>
      <trkpt lat="42.924953" lon="-8.10262">
        <time>2022-07-14T10:20:18Z</time>
      </trkpt>
      <trkpt lat="42.92497" lon="-8.102692">
        <time>2022-07-14T10:20:23Z</time>
      </trkpt>
      <trkpt lat="42.92499" lon="-8.102775">
        <time>2022-07-14T10:20:28Z</time>
      </trkpt>
      <trkpt lat="42.925007" lon="-8.102847">
        <time>2022-07-14T10:20:32Z</time>
      </trkpt>
      <trkpt lat="42.92503" lon="-8.102912">
        <time>2022-07-14T10:20:36Z</time>
      </trkpt>
      <trkpt lat="42.925045" lon="-8.102984">
        <time>2022-07-14T10:20:40Z</time>
      </trkpt>
      <trkpt lat="42.925068" lon="-8.103048">
        <time>2022-07-14T10:20:44Z</time>
      </trkpt>
      <trkpt lat="42.92509" lon="-8.103111">
        <time>2022-07-14T10:20:48Z</time>
      </trkpt>
      <trkpt lat="42.925114" lon="-8.103194">
        <time>2022-07-14T10:20:53Z</time>
      </trkpt>
      <trkpt lat="42.925133" lon="-8.103264">
        <time>2022-07-14T10:20:58Z</time>
      </trkpt>
      <trkpt lat="42.92516" lon="-8.103328">
        <time>2022-07-14T10:21:04Z</time>
      </trkpt>
      <trkpt lat="42.925198" lon="-8.103383">
        <time>2022-07-14T10:21:26Z</time>
      </trkpt>
      <trkpt lat="42.925224" lon="-8.103462">
        <time>2022-07-14T10:21:30Z</time>
      </trkpt>
      <trkpt lat="42.925243" lon="-8.10352">
        <time>2022-07-14T10:21:33Z</time>
      </trkpt>
      <trkpt lat="42.925274" lon="-8.103588">
        <time>2022-07-14T10:21:37Z</time>
      </trkpt>
      <trkpt lat="42.92531" lon="-8.103647">
        <time>2022-07-14T10:21:41Z</time>
      </trkpt>
      <trkpt lat="42.925346" lon="-8.103698">
        <time>2022-07-14T10:21:45Z</time>
      </trkpt>
      <trkpt lat="42.925385" lon="-8.103741">
        <time>2022-07-14T10:21:49Z</time>
      </trkpt>
      <trkpt lat="42.925426" lon="-8.103781">
        <time>2022-07-14T10:21:53Z</time>
      </trkpt>
      <trkpt lat="42.925476" lon="-8.103829">
        <time>2022-07-14T10:21:58Z</time>
      </trkpt>
      <trkpt lat="42.925533" lon="-8.103873">
        <time>2022-07-14T10:22:03Z</time>
      </trkpt>
      <trkpt lat="42.92557" lon="-8.103902">
        <time>2022-07-14T10:22:06Z</time>
      </trkpt>
      <trkpt lat="42.925613" lon="-8.103948">
        <time>2022-07-14T10:22:10Z</time>
      </trkpt>
      <trkpt lat="42.92565" lon="-8.103984">
        <time>2022-07-14T10:22:15Z</time>
      </trkpt>
      <trkpt lat="42.92571" lon="-8.104023">
        <time>2022-07-14T10:22:20Z</time>
      </trkpt>
      <trkpt lat="42.925755" lon="-8.104059">
        <time>2022-07-14T10:22:25Z</time>
      </trkpt>
      <trkpt lat="42.92581" lon="-8.104093">
        <time>2022-07-14T10:22:31Z</time>
      </trkpt>
      <trkpt lat="42.925865" lon="-8.104125">
        <time>2022-07-14T10:22:36Z</time>
      </trkpt>
      <trkpt lat="42.925922" lon="-8.104148">
        <time>2022-07-14T10:22:41Z</time>
      </trkpt>
      <trkpt lat="42.92597" lon="-8.104158">
        <time>2022-07-14T10:22:47Z</time>
      </trkpt>
      <trkpt lat="42.92602" lon="-8.104171">
        <time>2022-07-14T10:22:52Z</time>
      </trkpt>
      <trkpt lat="42.92608" lon="-8.104179">
        <time>2022-07-14T10:22:57Z</time>
      </trkpt>
      <trkpt lat="42.92614" lon="-8.104188">
        <time>2022-07-14T10:23:02Z</time>
      </trkpt>
      <trkpt lat="42.9262" lon="-8.104197">
        <time>2022-07-14T10:23:06Z</time>
      </trkpt>
      <trkpt lat="42.926254" lon="-8.104199">
        <time>2022-07-14T10:23:10Z</time>
      </trkpt>
      <trkpt lat="42.926315" lon="-8.104203">
        <time>2022-07-14T10:23:15Z</time>
      </trkpt>
      <trkpt lat="42.92637" lon="-8.10421">
        <time>2022-07-14T10:23:19Z</time>
      </trkpt>
      <trkpt lat="42.926422" lon="-8.104223">
        <time>2022-07-14T10:23:24Z</time>
      </trkpt>
      <trkpt lat="42.92646" lon="-8.104258">
        <time>2022-07-14T10:23:30Z</time>
      </trkpt>
      <trkpt lat="42.92652" lon="-8.104315">
        <time>2022-07-14T10:23:40Z</time>
      </trkpt>
      <trkpt lat="42.92655" lon="-8.10437">
        <time>2022-07-14T10:23:45Z</time>
      </trkpt>
      <trkpt lat="42.926582" lon="-8.104423">
        <time>2022-07-14T10:23:50Z</time>
      </trkpt>
      <trkpt lat="42.926636" lon="-8.104478">
        <time>2022-07-14T10:24:00Z</time>
      </trkpt>
      <trkpt lat="42.92667" lon="-8.104536">
        <time>2022-07-14T10:24:06Z</time>
      </trkpt>
      <trkpt lat="42.926704" lon="-8.104597">
        <time>2022-07-14T10:24:11Z</time>
      </trkpt>
      <trkpt lat="42.926727" lon="-8.104683">
        <time>2022-07-14T10:24:16Z</time>
      </trkpt>
      <trkpt lat="42.926754" lon="-8.10475">
        <time>2022-07-14T10:24:20Z</time>
      </trkpt>
      <trkpt lat="42.926777" lon="-8.104828">
        <time>2022-07-14T10:24:24Z</time>
      </trkpt>
      <trkpt lat="42.926785" lon="-8.104882">
        <time>2022-07-14T10:24:27Z</time>
      </trkpt>
      <trkpt lat="42.926807" lon="-8.1049595">
        <time>2022-07-14T10:24:32Z</time>
      </trkpt>
      <trkpt lat="42.926826" lon="-8.105028">
        <time>2022-07-14T10:24:36Z</time>
      </trkpt>
      <trkpt lat="42.92684" lon="-8.105092">
        <time>2022-07-14T10:24:40Z</time>
      </trkpt>
      <trkpt lat="42.92686" lon="-8.105166">
        <time>2022-07-14T10:24:45Z</time>
      </trkpt>
      <trkpt lat="42.926884" lon="-8.105218">
        <time>2022-07-14T10:24:49Z</time>
      </trkpt>
      <trkpt lat="42.926918" lon="-8.105268">
        <time>2022-07-14T10:24:56Z</time>
      </trkpt>
      <trkpt lat="42.92694" lon="-8.105353">
        <time>2022-07-14T10:25:03Z</time>
      </trkpt>
      <trkpt lat="42.92696" lon="-8.10544">
        <time>2022-07-14T10:25:08Z</time>
      </trkpt>
      <trkpt lat="42.92697" lon="-8.105518">
        <time>2022-07-14T10:25:12Z</time>
      </trkpt>
      <trkpt lat="42.926983" lon="-8.105579">
        <time>2022-07-14T10:25:16Z</time>
      </trkpt>
      <trkpt lat="42.927013" lon="-8.105659">
        <time>2022-07-14T10:25:20Z</time>
      </trkpt>
      <trkpt lat="42.92704" lon="-8.105717">
        <time>2022-07-14T10:25:24Z</time>
      </trkpt>
      <trkpt lat="42.92706" lon="-8.105788">
        <time>2022-07-14T10:25:29Z</time>
      </trkpt>
      <trkpt lat="42.92709" lon="-8.105849">
        <time>2022-07-14T10:25:33Z</time>
      </trkpt>
      <trkpt lat="42.927113" lon="-8.105911">
        <time>2022-07-14T10:25:38Z</time>
      </trkpt>
      <trkpt lat="42.92714" lon="-8.10599">
        <time>2022-07-14T10:25:43Z</time>
      </trkpt>
      <trkpt lat="42.92716" lon="-8.106064">
        <time>2022-07-14T10:25:48Z</time>
      </trkpt>
      <trkpt lat="42.92718" lon="-8.106131">
        <time>2022-07-14T10:25:52Z</time>
      </trkpt>
      <trkpt lat="42.927208" lon="-8.106212">
        <time>2022-07-14T10:25:57Z</time>
      </trkpt>
      <trkpt lat="42.927227" lon="-8.106285">
        <time>2022-07-14T10:26:02Z</time>
      </trkpt>
      <trkpt lat="42.927254" lon="-8.106377">
        <time>2022-07-14T10:26:07Z</time>
      </trkpt>
      <trkpt lat="42.927273" lon="-8.106444">
        <time>2022-07-14T10:26:11Z</time>
      </trkpt>
      <trkpt lat="42.92729" lon="-8.106512">
        <time>2022-07-14T10:26:15Z</time>
      </trkpt>
      <trkpt lat="42.92731" lon="-8.106582">
        <time>2022-07-14T10:26:19Z</time>
      </trkpt>
      <trkpt lat="42.92733" lon="-8.106647">
        <time>2022-07-14T10:26:23Z</time>
      </trkpt>
      <trkpt lat="42.927345" lon="-8.106725">
        <time>2022-07-14T10:26:28Z</time>
      </trkpt>
      <trkpt lat="42.92736" lon="-8.106793">
        <time>2022-07-14T10:26:32Z</time>
      </trkpt>
      <trkpt lat="42.927376" lon="-8.106861">
        <time>2022-07-14T10:26:36Z</time>
      </trkpt>
      <trkpt lat="42.927395" lon="-8.106926">
        <time>2022-07-14T10:26:40Z</time>
      </trkpt>
      <trkpt lat="42.927414" lon="-8.10701">
        <time>2022-07-14T10:26:45Z</time>
      </trkpt>
      <trkpt lat="42.927433" lon="-8.107088">
        <time>2022-07-14T10:26:49Z</time>
      </trkpt>
      <trkpt lat="42.927452" lon="-8.10716">
        <time>2022-07-14T10:26:53Z</time>
      </trkpt>
      <trkpt lat="42.927475" lon="-8.107232">
        <time>2022-07-14T10:26:57Z</time>
      </trkpt>
      <trkpt lat="42.927494" lon="-8.107298">
        <time>2022-07-14T10:27:01Z</time>
      </trkpt>
      <trkpt lat="42.927517" lon="-8.107363">
        <time>2022-07-14T10:27:05Z</time>
      </trkpt>
      <trkpt lat="42.927547" lon="-8.107442">
        <time>2022-07-14T10:27:10Z</time>
      </trkpt>
      <trkpt lat="42.927567" lon="-8.107504">
        <time>2022-07-14T10:27:14Z</time>
      </trkpt>
      <trkpt lat="42.927593" lon="-8.107588">
        <time>2022-07-14T10:27:19Z</time>
      </trkpt>
      <trkpt lat="42.927612" lon="-8.107654">
        <time>2022-07-14T10:27:23Z</time>
      </trkpt>
      <trkpt lat="42.92763" lon="-8.107729">
        <time>2022-07-14T10:27:28Z</time>
      </trkpt>
      <trkpt lat="42.92765" lon="-8.107794">
        <time>2022-07-14T10:27:32Z</time>
      </trkpt>
      <trkpt lat="42.927673" lon="-8.107849">
        <time>2022-07-14T10:27:37Z</time>
      </trkpt>
      <trkpt lat="42.927692" lon="-8.107917">
        <time>2022-07-14T10:27:46Z</time>
      </trkpt>
      <trkpt lat="42.927715" lon="-8.107988">
        <time>2022-07-14T10:27:51Z</time>
      </trkpt>
      <trkpt lat="42.927734" lon="-8.108067">
        <time>2022-07-14T10:27:56Z</time>
      </trkpt>
      <trkpt lat="42.927753" lon="-8.108153">
        <time>2022-07-14T10:28:01Z</time>
      </trkpt>
      <trkpt lat="42.92777" lon="-8.108216">
        <time>2022-07-14T10:28:05Z</time>
      </trkpt>
      <trkpt lat="42.92779" lon="-8.10828">
        <time>2022-07-14T10:28:10Z</time>
      </trkpt>
      <trkpt lat="42.927814" lon="-8.108353">
        <time>2022-07-14T10:28:15Z</time>
      </trkpt>
      <trkpt lat="42.927837" lon="-8.108426">
        <time>2022-07-14T10:28:20Z</time>
      </trkpt>
      <trkpt lat="42.92785" lon="-8.10849">
        <time>2022-07-14T10:28:24Z</time>
      </trkpt>
      <trkpt lat="42.927856" lon="-8.108566">
        <time>2022-07-14T10:28:28Z</time>
      </trkpt>
      <trkpt lat="42.927868" lon="-8.108639">
        <time>2022-07-14T10:28:32Z</time>
      </trkpt>
      <trkpt lat="42.927883" lon="-8.108668">
        <time>2022-07-14T10:28:39Z</time>
      </trkpt>
      <trkpt lat="42.9279" lon="-8.108669">
        <time>2022-07-14T10:29:00Z</time>
      </trkpt>
      <trkpt lat="42.927917" lon="-8.108748">
        <time>2022-07-14T10:29:04Z</time>
      </trkpt>
      <trkpt lat="42.927944" lon="-8.108825">
        <time>2022-07-14T10:29:08Z</time>
      </trkpt>
      <trkpt lat="42.92796" lon="-8.108885">
        <time>2022-07-14T10:29:12Z</time>
      </trkpt>
      <trkpt lat="42.92798" lon="-8.10895">
        <time>2022-07-14T10:29:17Z</time>
      </trkpt>
      <trkpt lat="42.928005" lon="-8.109025">
        <time>2022-07-14T10:29:23Z</time>
      </trkpt>
      <trkpt lat="42.92803" lon="-8.109094">
        <time>2022-07-14T10:29:28Z</time>
      </trkpt>
      <trkpt lat="42.928062" lon="-8.109142">
        <time>2022-07-14T10:29:32Z</time>
      </trkpt>
      <trkpt lat="42.928093" lon="-8.109209">
        <time>2022-07-14T10:29:37Z</time>
      </trkpt>
      <trkpt lat="42.928112" lon="-8.109289">
        <time>2022-07-14T10:29:43Z</time>
      </trkpt>
      <trkpt lat="42.928123" lon="-8.109355">
        <time>2022-07-14T10:29:47Z</time>
      </trkpt>
      <trkpt lat="42.928135" lon="-8.109431">
        <time>2022-07-14T10:29:52Z</time>
      </trkpt>
      <trkpt lat="42.928135" lon="-8.109506">
        <time>2022-07-14T10:29:57Z</time>
      </trkpt>
      <trkpt lat="42.92814" lon="-8.109585">
        <time>2022-07-14T10:30:03Z</time>
      </trkpt>
      <trkpt lat="42.92815" lon="-8.109659">
        <time>2022-07-14T10:30:08Z</time>
      </trkpt>
      <trkpt lat="42.928158" lon="-8.109734">
        <time>2022-07-14T10:30:13Z</time>
      </trkpt>
      <trkpt lat="42.92815" lon="-8.109808">
        <time>2022-07-14T10:30:18Z</time>
      </trkpt>
      <trkpt lat="42.928146" lon="-8.109881">
        <time>2022-07-14T10:30:23Z</time>
      </trkpt>
      <trkpt lat="42.92814" lon="-8.109957">
        <time>2022-07-14T10:30:28Z</time>
      </trkpt>
      <trkpt lat="42.92814" lon="-8.110035">
        <time>2022-07-14T10:30:34Z</time>
      </trkpt>
      <trkpt lat="42.928135" lon="-8.110106">
        <time>2022-07-14T10:30:39Z</time>
      </trkpt>
      <trkpt lat="42.92813" lon="-8.110179">
        <time>2022-07-14T10:30:44Z</time>
      </trkpt>
      <trkpt lat="42.928127" lon="-8.110255">
        <time>2022-07-14T10:30:49Z</time>
      </trkpt>
      <trkpt lat="42.928127" lon="-8.110332">
        <time>2022-07-14T10:30:54Z</time>
      </trkpt>
      <trkpt lat="42.928127" lon="-8.110409">
        <time>2022-07-14T10:30:59Z</time>
      </trkpt>
      <trkpt lat="42.928127" lon="-8.110492">
        <time>2022-07-14T10:31:05Z</time>
      </trkpt>
      <trkpt lat="42.928135" lon="-8.110578">
        <time>2022-07-14T10:31:11Z</time>
      </trkpt>
      <trkpt lat="42.92813" lon="-8.110661">
        <time>2022-07-14T10:31:17Z</time>
      </trkpt>
      <trkpt lat="42.92813" lon="-8.110727">
        <time>2022-07-14T10:31:22Z</time>
      </trkpt>
      <trkpt lat="42.928127" lon="-8.110792">
        <time>2022-07-14T10:31:28Z</time>
      </trkpt>
      <trkpt lat="42.92813" lon="-8.110868">
        <time>2022-07-14T10:31:37Z</time>
      </trkpt>
      <trkpt lat="42.928112" lon="-8.110945">
        <time>2022-07-14T10:31:43Z</time>
      </trkpt>
      <trkpt lat="42.92809" lon="-8.111014">
        <time>2022-07-14T10:31:48Z</time>
      </trkpt>
      <trkpt lat="42.928062" lon="-8.111077">
        <time>2022-07-14T10:31:53Z</time>
      </trkpt>
      <trkpt lat="42.92803" lon="-8.1111355">
        <time>2022-07-14T10:31:59Z</time>
      </trkpt>
      <trkpt lat="42.927998" lon="-8.1111965">
        <time>2022-07-14T10:32:05Z</time>
      </trkpt>
      <trkpt lat="42.927967" lon="-8.111255">
        <time>2022-07-14T10:32:11Z</time>
      </trkpt>
      <trkpt lat="42.92793" lon="-8.11131">
        <time>2022-07-14T10:32:17Z</time>
      </trkpt>
      <trkpt lat="42.92791" lon="-8.11138">
        <time>2022-07-14T10:32:22Z</time>
      </trkpt>
      <trkpt lat="42.927883" lon="-8.111444">
        <time>2022-07-14T10:32:29Z</time>
      </trkpt>
      <trkpt lat="42.92785" lon="-8.111505">
        <time>2022-07-14T10:32:36Z</time>
      </trkpt>
      <trkpt lat="42.92781" lon="-8.111564">
        <time>2022-07-14T10:32:41Z</time>
      </trkpt>
      <trkpt lat="42.927776" lon="-8.111618">
        <time>2022-07-14T10:32:45Z</time>
      </trkpt>
      <trkpt lat="42.92774" lon="-8.111662">
        <time>2022-07-14T10:32:49Z</time>
      </trkpt>
      <trkpt lat="42.927696" lon="-8.111708">
        <time>2022-07-14T10:32:54Z</time>
      </trkpt>
      <trkpt lat="42.927654" lon="-8.111763">
        <time>2022-07-14T10:33:00Z</time>
      </trkpt>
      <trkpt lat="42.927624" lon="-8.111819">
        <time>2022-07-14T10:33:05Z</time>
      </trkpt>
      <trkpt lat="42.927586" lon="-8.111876">
        <time>2022-07-14T10:33:10Z</time>
      </trkpt>
      <trkpt lat="42.927544" lon="-8.111919">
        <time>2022-07-14T10:33:16Z</time>
      </trkpt>
      <trkpt lat="42.9275" lon="-8.111971">
        <time>2022-07-14T10:33:22Z</time>
      </trkpt>
      <trkpt lat="42.92747" lon="-8.112018">
        <time>2022-07-14T10:33:27Z</time>
      </trkpt>
      <trkpt lat="42.927425" lon="-8.112081">
        <time>2022-07-14T10:33:33Z</time>
      </trkpt>
      <trkpt lat="42.927387" lon="-8.112132">
        <time>2022-07-14T10:33:38Z</time>
      </trkpt>
      <trkpt lat="42.927345" lon="-8.112187">
        <time>2022-07-14T10:33:44Z</time>
      </trkpt>
      <trkpt lat="42.92731" lon="-8.112253">
        <time>2022-07-14T10:33:49Z</time>
      </trkpt>
      <trkpt lat="42.92728" lon="-8.11231">
        <time>2022-07-14T10:33:54Z</time>
      </trkpt>
      <trkpt lat="42.92724" lon="-8.112353">
        <time>2022-07-14T10:34:00Z</time>
      </trkpt>
      <trkpt lat="42.927193" lon="-8.1124">
        <time>2022-07-14T10:34:06Z</time>
      </trkpt>
      <trkpt lat="42.92715" lon="-8.112452">
        <time>2022-07-14T10:34:11Z</time>
      </trkpt>
      <trkpt lat="42.92712" lon="-8.112507">
        <time>2022-07-14T10:34:16Z</time>
      </trkpt>
      <trkpt lat="42.927116" lon="-8.112579">
        <time>2022-07-14T10:34:23Z</time>
      </trkpt>
      <trkpt lat="42.927147" lon="-8.112629">
        <time>2022-07-14T10:34:31Z</time>
      </trkpt>
      <trkpt lat="42.927197" lon="-8.112669">
        <time>2022-07-14T10:34:39Z</time>
      </trkpt>
      <trkpt lat="42.927246" lon="-8.112721">
        <time>2022-07-14T10:34:46Z</time>
      </trkpt>
      <trkpt lat="42.92729" lon="-8.1127615">
        <time>2022-07-14T10:34:51Z</time>
      </trkpt>
      <trkpt lat="42.927338" lon="-8.112816">
        <time>2022-07-14T10:34:57Z</time>
      </trkpt>
      <trkpt lat="42.92737" lon="-8.112875">
        <time>2022-07-14T10:35:03Z</time>
      </trkpt>
      <trkpt lat="42.9274" lon="-8.112926">
        <time>2022-07-14T10:35:08Z</time>
      </trkpt>
      <trkpt lat="42.92744" lon="-8.112972">
        <time>2022-07-14T10:35:13Z</time>
      </trkpt>
      <trkpt lat="42.92749" lon="-8.112991">
        <time>2022-07-14T10:35:20Z</time>
      </trkpt>
      <trkpt lat="42.92755" lon="-8.113014">
        <time>2022-07-14T10:35:26Z</time>
      </trkpt>
      <trkpt lat="42.92761" lon="-8.113016">
        <time>2022-07-14T10:35:32Z</time>
      </trkpt>
      <trkpt lat="42.92767" lon="-8.113018">
        <time>2022-07-14T10:35:37Z</time>
      </trkpt>
      <trkpt lat="42.927723" lon="-8.113002">
        <time>2022-07-14T10:35:42Z</time>
      </trkpt>
      <trkpt lat="42.927773" lon="-8.112994">
        <time>2022-07-14T10:35:47Z</time>
      </trkpt>
      <trkpt lat="42.927826" lon="-8.113019">
        <time>2022-07-14T10:35:52Z</time>
      </trkpt>
      <trkpt lat="42.927876" lon="-8.11304">
        <time>2022-07-14T10:35:57Z</time>
      </trkpt>
      <trkpt lat="42.92792" lon="-8.11307">
        <time>2022-07-14T10:36:03Z</time>
      </trkpt>
      <trkpt lat="42.92798" lon="-8.113139">
        <time>2022-07-14T10:36:15Z</time>
      </trkpt>
      <trkpt lat="42.928017" lon="-8.113198">
        <time>2022-07-14T10:36:23Z</time>
      </trkpt>
      <trkpt lat="42.92807" lon="-8.113245">
        <time>2022-07-14T10:36:30Z</time>
      </trkpt>
      <trkpt lat="42.92812" lon="-8.113289">
        <time>2022-07-14T10:36:36Z</time>
      </trkpt>
      <trkpt lat="42.928165" lon="-8.113325">
        <time>2022-07-14T10:36:41Z</time>
      </trkpt>
      <trkpt lat="42.928207" lon="-8.113353">
        <time>2022-07-14T10:36:47Z</time>
      </trkpt>
      <trkpt lat="42.928234" lon="-8.113364">
        <time>2022-07-14T10:39:44Z</time>
      </trkpt>
      <trkpt lat="42.928276" lon="-8.113412">
        <time>2022-07-14T10:39:48Z</time>
      </trkpt>
      <trkpt lat="42.92832" lon="-8.113464">
        <time>2022-07-14T10:39:52Z</time>
      </trkpt>
      <trkpt lat="42.928356" lon="-8.11351">
        <time>2022-07-14T10:39:56Z</time>
      </trkpt>
      <trkpt lat="42.9284" lon="-8.113565">
        <time>2022-07-14T10:40:01Z</time>
      </trkpt>
      <trkpt lat="42.928444" lon="-8.113625">
        <time>2022-07-14T10:40:06Z</time>
      </trkpt>
      <trkpt lat="42.928482" lon="-8.113681">
        <time>2022-07-14T10:40:11Z</time>
      </trkpt>
      <trkpt lat="42.928513" lon="-8.113735">
        <time>2022-07-14T10:40:16Z</time>
      </trkpt>
      <trkpt lat="42.928543" lon="-8.113807">
        <time>2022-07-14T10:40:21Z</time>
      </trkpt>
      <trkpt lat="42.92857" lon="-8.113873">
        <time>2022-07-14T10:40:25Z</time>
      </trkpt>
      <trkpt lat="42.92859" lon="-8.113926">
        <time>2022-07-14T10:40:29Z</time>
      </trkpt>
      <trkpt lat="42.928627" lon="-8.113998">
        <time>2022-07-14T10:40:35Z</time>
      </trkpt>
      <trkpt lat="42.928654" lon="-8.114084">
        <time>2022-07-14T10:40:40Z</time>
      </trkpt>
      <trkpt lat="42.928673" lon="-8.114155">
        <time>2022-07-14T10:40:44Z</time>
      </trkpt>
      <trkpt lat="42.92869" lon="-8.114228">
        <time>2022-07-14T10:40:48Z</time>
      </trkpt>
      <trkpt lat="42.928707" lon="-8.114294">
        <time>2022-07-14T10:40:52Z</time>
      </trkpt>
      <trkpt lat="42.92872" lon="-8.114364">
        <time>2022-07-14T10:40:58Z</time>
      </trkpt>
      <trkpt lat="42.928722" lon="-8.114437">
        <time>2022-07-14T10:41:02Z</time>
      </trkpt>
      <trkpt lat="42.92873" lon="-8.114524">
        <time>2022-07-14T10:41:07Z</time>
      </trkpt>
      <trkpt lat="42.928738" lon="-8.114598">
        <time>2022-07-14T10:41:11Z</time>
      </trkpt>
      <trkpt lat="42.928745" lon="-8.114669">
        <time>2022-07-14T10:41:15Z</time>
      </trkpt>
      <trkpt lat="42.92876" lon="-8.114743">
        <time>2022-07-14T10:41:21Z</time>
      </trkpt>
      <trkpt lat="42.92878" lon="-8.11483">
        <time>2022-07-14T10:41:28Z</time>
      </trkpt>
      <trkpt lat="42.928795" lon="-8.114904">
        <time>2022-07-14T10:41:32Z</time>
      </trkpt>
      <trkpt lat="42.92881" lon="-8.114979">
        <time>2022-07-14T10:41:36Z</time>
      </trkpt>
      <trkpt lat="42.928825" lon="-8.115056">
        <time>2022-07-14T10:41:40Z</time>
      </trkpt>
      <trkpt lat="42.928837" lon="-8.115116">
        <time>2022-07-14T10:41:44Z</time>
      </trkpt>
      <trkpt lat="42.92885" lon="-8.115187">
        <time>2022-07-14T10:41:49Z</time>
      </trkpt>
      <trkpt lat="42.928875" lon="-8.115269">
        <time>2022-07-14T10:41:54Z</time>
      </trkpt>
      <trkpt lat="42.9289" lon="-8.115332">
        <time>2022-07-14T10:41:58Z</time>
      </trkpt>
      <trkpt lat="42.928913" lon="-8.115403">
        <time>2022-07-14T10:42:02Z</time>
      </trkpt>
      <trkpt lat="42.928925" lon="-8.115478">
        <time>2022-07-14T10:42:07Z</time>
      </trkpt>
      <trkpt lat="42.92894" lon="-8.115549">
        <time>2022-07-14T10:42:11Z</time>
      </trkpt>
      <trkpt lat="42.92895" lon="-8.115621">
        <time>2022-07-14T10:42:15Z</time>
      </trkpt>
      <trkpt lat="42.928967" lon="-8.115698">
        <time>2022-07-14T10:42:20Z</time>
      </trkpt>
      <trkpt lat="42.928986" lon="-8.115772">
        <time>2022-07-14T10:42:25Z</time>
      </trkpt>
      <trkpt lat="42.929" lon="-8.115841">
        <time>2022-07-14T10:42:29Z</time>
      </trkpt>
      <trkpt lat="42.92902" lon="-8.115919">
        <time>2022-07-14T10:42:33Z</time>
      </trkpt>
      <trkpt lat="42.929035" lon="-8.115975">
        <time>2022-07-14T10:42:36Z</time>
      </trkpt>
      <trkpt lat="42.929054" lon="-8.116049">
        <time>2022-07-14T10:42:41Z</time>
      </trkpt>
      <trkpt lat="42.929066" lon="-8.1161175">
        <time>2022-07-14T10:42:46Z</time>
      </trkpt>
      <trkpt lat="42.929073" lon="-8.1161995">
        <time>2022-07-14T10:42:51Z</time>
      </trkpt>
      <trkpt lat="42.92908" lon="-8.116268">
        <time>2022-07-14T10:42:56Z</time>
      </trkpt>
      <trkpt lat="42.929092" lon="-8.116359">
        <time>2022-07-14T10:43:01Z</time>
      </trkpt>
      <trkpt lat="42.9291" lon="-8.116436">
        <time>2022-07-14T10:43:05Z</time>
      </trkpt>
      <trkpt lat="42.929104" lon="-8.116507">
        <time>2022-07-14T10:43:10Z</time>
      </trkpt>
      <trkpt lat="42.92912" lon="-8.116579">
        <time>2022-07-14T10:43:15Z</time>
      </trkpt>
      <trkpt lat="42.92913" lon="-8.116646">
        <time>2022-07-14T10:43:20Z</time>
      </trkpt>
      <trkpt lat="42.92914" lon="-8.116715">
        <time>2022-07-14T10:43:25Z</time>
      </trkpt>
      <trkpt lat="42.929157" lon="-8.116798">
        <time>2022-07-14T10:43:30Z</time>
      </trkpt>
      <trkpt lat="42.92917" lon="-8.116868">
        <time>2022-07-14T10:43:34Z</time>
      </trkpt>
      <trkpt lat="42.92918" lon="-8.116942">
        <time>2022-07-14T10:43:39Z</time>
      </trkpt>
      <trkpt lat="42.929195" lon="-8.117026">
        <time>2022-07-14T10:43:44Z</time>
      </trkpt>
      <trkpt lat="42.929214" lon="-8.11709">
        <time>2022-07-14T10:43:49Z</time>
      </trkpt>
      <trkpt lat="42.929245" lon="-8.117146">
        <time>2022-07-14T10:43:57Z</time>
      </trkpt>
      <trkpt lat="42.929253" lon="-8.117232">
        <time>2022-07-14T10:44:03Z</time>
      </trkpt>
      <trkpt lat="42.929264" lon="-8.117314">
        <time>2022-07-14T10:44:08Z</time>
      </trkpt>
      <trkpt lat="42.92928" lon="-8.117378">
        <time>2022-07-14T10:44:12Z</time>
      </trkpt>
      <trkpt lat="42.929302" lon="-8.117472">
        <time>2022-07-14T10:44:18Z</time>
      </trkpt>
      <trkpt lat="42.92931" lon="-8.117546">
        <time>2022-07-14T10:44:22Z</time>
      </trkpt>
      <trkpt lat="42.92931" lon="-8.117631">
        <time>2022-07-14T10:44:26Z</time>
      </trkpt>
      <trkpt lat="42.92932" lon="-8.117706">
        <time>2022-07-14T10:44:30Z</time>
      </trkpt>
      <trkpt lat="42.929325" lon="-8.117766">
        <time>2022-07-14T10:44:34Z</time>
      </trkpt>
      <trkpt lat="42.929333" lon="-8.117845">
        <time>2022-07-14T10:44:39Z</time>
      </trkpt>
      <trkpt lat="42.929348" lon="-8.117922">
        <time>2022-07-14T10:44:44Z</time>
      </trkpt>
      <trkpt lat="42.929367" lon="-8.117986">
        <time>2022-07-14T10:44:48Z</time>
      </trkpt>
      <trkpt lat="42.92938" lon="-8.118062">
        <time>2022-07-14T10:44:52Z</time>
      </trkpt>
      <trkpt lat="42.929394" lon="-8.11813">
        <time>2022-07-14T10:44:56Z</time>
      </trkpt>
      <trkpt lat="42.929405" lon="-8.118204">
        <time>2022-07-14T10:45:01Z</time>
      </trkpt>
      <trkpt lat="42.929413" lon="-8.118282">
        <time>2022-07-14T10:45:05Z</time>
      </trkpt>
      <trkpt lat="42.929417" lon="-8.11836">
        <time>2022-07-14T10:45:09Z</time>
      </trkpt>
      <trkpt lat="42.92943" lon="-8.118434">
        <time>2022-07-14T10:45:14Z</time>
      </trkpt>
      <trkpt lat="42.92945" lon="-8.118496">
        <time>2022-07-14T10:45:18Z</time>
      </trkpt>
      <trkpt lat="42.92947" lon="-8.118558">
        <time>2022-07-14T10:45:22Z</time>
      </trkpt>
      <trkpt lat="42.929485" lon="-8.118637">
        <time>2022-07-14T10:45:28Z</time>
      </trkpt>
      <trkpt lat="42.929497" lon="-8.118702">
        <time>2022-07-14T10:45:32Z</time>
      </trkpt>
      <trkpt lat="42.9295" lon="-8.118774">
        <time>2022-07-14T10:45:37Z</time>
      </trkpt>
      <trkpt lat="42.92951" lon="-8.118844">
        <time>2022-07-14T10:45:42Z</time>
      </trkpt>
      <trkpt lat="42.92951" lon="-8.118938">
        <time>2022-07-14T10:45:47Z</time>
      </trkpt>
      <trkpt lat="42.92951" lon="-8.119012">
        <time>2022-07-14T10:45:51Z</time>
      </trkpt>
      <trkpt lat="42.929504" lon="-8.119077">
        <time>2022-07-14T10:45:55Z</time>
      </trkpt>
      <trkpt lat="42.929504" lon="-8.119154">
        <time>2022-07-14T10:45:59Z</time>
      </trkpt>
      <trkpt lat="42.929497" lon="-8.119233">
        <time>2022-07-14T10:46:03Z</time>
      </trkpt>
      <trkpt lat="42.929497" lon="-8.119303">
        <time>2022-07-14T10:46:07Z</time>
      </trkpt>
      <trkpt lat="42.929497" lon="-8.119371">
        <time>2022-07-14T10:46:11Z</time>
      </trkpt>
      <trkpt lat="42.929493" lon="-8.11946">
        <time>2022-07-14T10:46:16Z</time>
      </trkpt>
      <trkpt lat="42.929497" lon="-8.119548">
        <time>2022-07-14T10:46:21Z</time>
      </trkpt>
      <trkpt lat="42.929504" lon="-8.119614">
        <time>2022-07-14T10:46:25Z</time>
      </trkpt>
      <trkpt lat="42.929535" lon="-8.119681">
        <time>2022-07-14T10:46:30Z</time>
      </trkpt>
      <trkpt lat="42.929546" lon="-8.1197405">
        <time>2022-07-14T10:46:35Z</time>
      </trkpt>
      <trkpt lat="42.92955" lon="-8.119828">
        <time>2022-07-14T10:46:41Z</time>
      </trkpt>
      <trkpt lat="42.929543" lon="-8.11991">
        <time>2022-07-14T10:46:46Z</time>
      </trkpt>
      <trkpt lat="42.929546" lon="-8.119987">
        <time>2022-07-14T10:46:51Z</time>
      </trkpt>
      <trkpt lat="42.929535" lon="-8.120055">
        <time>2022-07-14T10:46:56Z</time>
      </trkpt>
      <trkpt lat="42.929497" lon="-8.120115">
        <time>2022-07-14T10:47:02Z</time>
      </trkpt>
      <trkpt lat="42.92945" lon="-8.120179">
        <time>2022-07-14T10:47:07Z</time>
      </trkpt>
      <trkpt lat="42.92943" lon="-8.120254">
        <time>2022-07-14T10:47:11Z</time>
      </trkpt>
      <trkpt lat="42.929432" lon="-8.120318">
        <time>2022-07-14T10:47:15Z</time>
      </trkpt>
      <trkpt lat="42.929462" lon="-8.120378">
        <time>2022-07-14T10:47:20Z</time>
      </trkpt>
      <trkpt lat="42.9295" lon="-8.120433">
        <time>2022-07-14T10:47:25Z</time>
      </trkpt>
      <trkpt lat="42.929535" lon="-8.120481">
        <time>2022-07-14T10:47:29Z</time>
      </trkpt>
      <trkpt lat="42.929577" lon="-8.120537">
        <time>2022-07-14T10:47:34Z</time>
      </trkpt>
      <trkpt lat="42.9296" lon="-8.120592">
        <time>2022-07-14T10:47:39Z</time>
      </trkpt>
      <trkpt lat="42.929623" lon="-8.120664">
        <time>2022-07-14T10:47:45Z</time>
      </trkpt>
      <trkpt lat="42.92966" lon="-8.120738">
        <time>2022-07-14T10:47:55Z</time>
      </trkpt>
      <trkpt lat="42.929688" lon="-8.120811">
        <time>2022-07-14T10:48:01Z</time>
      </trkpt>
      <trkpt lat="42.9297" lon="-8.12088">
        <time>2022-07-14T10:48:05Z</time>
      </trkpt>
      <trkpt lat="42.929718" lon="-8.120947">
        <time>2022-07-14T10:48:10Z</time>
      </trkpt>
      <trkpt lat="42.929733" lon="-8.121012">
        <time>2022-07-14T10:48:14Z</time>
      </trkpt>
      <trkpt lat="42.929745" lon="-8.121089">
        <time>2022-07-14T10:48:19Z</time>
      </trkpt>
      <trkpt lat="42.929756" lon="-8.121172">
        <time>2022-07-14T10:48:24Z</time>
      </trkpt>
      <trkpt lat="42.92976" lon="-8.121238">
        <time>2022-07-14T10:48:28Z</time>
      </trkpt>
      <trkpt lat="42.92978" lon="-8.12131">
        <time>2022-07-14T10:48:34Z</time>
      </trkpt>
      <trkpt lat="42.929806" lon="-8.121386">
        <time>2022-07-14T10:48:39Z</time>
      </trkpt>
      <trkpt lat="42.929825" lon="-8.12146">
        <time>2022-07-14T10:48:44Z</time>
      </trkpt>
      <trkpt lat="42.929848" lon="-8.121534">
        <time>2022-07-14T10:48:49Z</time>
      </trkpt>
      <trkpt lat="42.92987" lon="-8.121608">
        <time>2022-07-14T10:48:54Z</time>
      </trkpt>
      <trkpt lat="42.929882" lon="-8.121683">
        <time>2022-07-14T10:49:00Z</time>
      </trkpt>
      <trkpt lat="42.92988" lon="-8.121762">
        <time>2022-07-14T10:49:05Z</time>
      </trkpt>
      <trkpt lat="42.92988" lon="-8.121835">
        <time>2022-07-14T10:49:10Z</time>
      </trkpt>
      <trkpt lat="42.929886" lon="-8.121911">
        <time>2022-07-14T10:49:17Z</time>
      </trkpt>
      <trkpt lat="42.929886" lon="-8.121989">
        <time>2022-07-14T10:49:22Z</time>
      </trkpt>
      <trkpt lat="42.929897" lon="-8.122051">
        <time>2022-07-14T10:49:26Z</time>
      </trkpt>
      <trkpt lat="42.9299" lon="-8.122131">
        <time>2022-07-14T10:49:32Z</time>
      </trkpt>
      <trkpt lat="42.9299" lon="-8.122203">
        <time>2022-07-14T10:49:36Z</time>
      </trkpt>
      <trkpt lat="42.9299" lon="-8.122294">
        <time>2022-07-14T10:49:40Z</time>
      </trkpt>
      <trkpt lat="42.929905" lon="-8.122362">
        <time>2022-07-14T10:49:44Z</time>
      </trkpt>
      <trkpt lat="42.929935" lon="-8.122428">
        <time>2022-07-14T10:49:49Z</time>
      </trkpt>
      <trkpt lat="42.929977" lon="-8.122474">
        <time>2022-07-14T10:49:55Z</time>
      </trkpt>
      <trkpt lat="42.929996" lon="-8.122543">
        <time>2022-07-14T10:50:00Z</time>
      </trkpt>
      <trkpt lat="42.930016" lon="-8.122614">
        <time>2022-07-14T10:50:05Z</time>
      </trkpt>
      <trkpt lat="42.930027" lon="-8.122681">
        <time>2022-07-14T10:50:09Z</time>
      </trkpt>
      <trkpt lat="42.930046" lon="-8.122759">
        <time>2022-07-14T10:50:15Z</time>
      </trkpt>
      <trkpt lat="42.93007" lon="-8.122822">
        <time>2022-07-14T10:50:19Z</time>
      </trkpt>
      <trkpt lat="42.930088" lon="-8.12289">
        <time>2022-07-14T10:50:23Z</time>
      </trkpt>
      <trkpt lat="42.930096" lon="-8.122957">
        <time>2022-07-14T10:50:27Z</time>
      </trkpt>
      <trkpt lat="42.93009" lon="-8.123032">
        <time>2022-07-14T10:50:32Z</time>
      </trkpt>
      <trkpt lat="42.930088" lon="-8.123103">
        <time>2022-07-14T10:50:37Z</time>
      </trkpt>
      <trkpt lat="42.930084" lon="-8.123181">
        <time>2022-07-14T10:50:42Z</time>
      </trkpt>
      <trkpt lat="42.93008" lon="-8.12326">
        <time>2022-07-14T10:50:47Z</time>
      </trkpt>
      <trkpt lat="42.930088" lon="-8.123352">
        <time>2022-07-14T10:50:52Z</time>
      </trkpt>
      <trkpt lat="42.9301" lon="-8.123417">
        <time>2022-07-14T10:50:56Z</time>
      </trkpt>
      <trkpt lat="42.930103" lon="-8.123497">
        <time>2022-07-14T10:51:01Z</time>
      </trkpt>
      <trkpt lat="42.930103" lon="-8.123581">
        <time>2022-07-14T10:51:06Z</time>
      </trkpt>
      <trkpt lat="42.930096" lon="-8.123669">
        <time>2022-07-14T10:51:10Z</time>
      </trkpt>
      <trkpt lat="42.93008" lon="-8.123747">
        <time>2022-07-14T10:51:14Z</time>
      </trkpt>
      <trkpt lat="42.930084" lon="-8.123819">
        <time>2022-07-14T10:51:19Z</time>
      </trkpt>
      <trkpt lat="42.93008" lon="-8.123889">
        <time>2022-07-14T10:51:24Z</time>
      </trkpt>
      <trkpt lat="42.93008" lon="-8.123958">
        <time>2022-07-14T10:51:34Z</time>
      </trkpt>
      <trkpt lat="42.930088" lon="-8.124054">
        <time>2022-07-14T10:51:40Z</time>
      </trkpt>
      <trkpt lat="42.9301" lon="-8.124133">
        <time>2022-07-14T10:51:45Z</time>
      </trkpt>
      <trkpt lat="42.930122" lon="-8.124218">
        <time>2022-07-14T10:51:51Z</time>
      </trkpt>
      <trkpt lat="42.93013" lon="-8.124297">
        <time>2022-07-14T10:51:55Z</time>
      </trkpt>
      <trkpt lat="42.930138" lon="-8.124376">
        <time>2022-07-14T10:51:59Z</time>
      </trkpt>
      <trkpt lat="42.930157" lon="-8.124455">
        <time>2022-07-14T10:52:04Z</time>
      </trkpt>
      <trkpt lat="42.930183" lon="-8.124525">
        <time>2022-07-14T10:52:09Z</time>
      </trkpt>
      <trkpt lat="42.930206" lon="-8.124595">
        <time>2022-07-14T10:52:13Z</time>
      </trkpt>
      <trkpt lat="42.930214" lon="-8.124681">
        <time>2022-07-14T10:52:17Z</time>
      </trkpt>
      <trkpt lat="42.930214" lon="-8.124753">
        <time>2022-07-14T10:52:21Z</time>
      </trkpt>
      <trkpt lat="42.93023" lon="-8.124829">
        <time>2022-07-14T10:52:27Z</time>
      </trkpt>
      <trkpt lat="42.93024" lon="-8.124915">
        <time>2022-07-14T10:52:32Z</time>
      </trkpt>
      <trkpt lat="42.93024" lon="-8.12499">
        <time>2022-07-14T10:52:37Z</time>
      </trkpt>
      <trkpt lat="42.930264" lon="-8.125061">
        <time>2022-07-14T10:52:42Z</time>
      </trkpt>
      <trkpt lat="42.930283" lon="-8.125141">
        <time>2022-07-14T10:52:47Z</time>
      </trkpt>
      <trkpt lat="42.930298" lon="-8.125199">
        <time>2022-07-14T10:52:51Z</time>
      </trkpt>
      <trkpt lat="42.930336" lon="-8.125265">
        <time>2022-07-14T10:52:57Z</time>
      </trkpt>
      <trkpt lat="42.930367" lon="-8.12533">
        <time>2022-07-14T10:53:02Z</time>
      </trkpt>
      <trkpt lat="42.9304" lon="-8.125399">
        <time>2022-07-14T10:53:06Z</time>
      </trkpt>
      <trkpt lat="42.930435" lon="-8.1254635">
        <time>2022-07-14T10:53:10Z</time>
      </trkpt>
      <trkpt lat="42.930473" lon="-8.125523">
        <time>2022-07-14T10:53:14Z</time>
      </trkpt>
      <trkpt lat="42.930496" lon="-8.125598">
        <time>2022-07-14T10:53:18Z</time>
      </trkpt>
      <trkpt lat="42.930523" lon="-8.12566">
        <time>2022-07-14T10:53:22Z</time>
      </trkpt>
      <trkpt lat="42.930553" lon="-8.125743">
        <time>2022-07-14T10:53:28Z</time>
      </trkpt>
      <trkpt lat="42.930576" lon="-8.125821">
        <time>2022-07-14T10:53:33Z</time>
      </trkpt>
      <trkpt lat="42.93061" lon="-8.125893">
        <time>2022-07-14T10:53:38Z</time>
      </trkpt>
      <trkpt lat="42.93064" lon="-8.125943">
        <time>2022-07-14T10:53:42Z</time>
      </trkpt>
      <trkpt lat="42.930676" lon="-8.1259985">
        <time>2022-07-14T10:53:46Z</time>
      </trkpt>
      <trkpt lat="42.930714" lon="-8.126059">
        <time>2022-07-14T10:53:50Z</time>
      </trkpt>
      <trkpt lat="42.930748" lon="-8.126119">
        <time>2022-07-14T10:53:54Z</time>
      </trkpt>
      <trkpt lat="42.930782" lon="-8.126178">
        <time>2022-07-14T10:53:58Z</time>
      </trkpt>
      <trkpt lat="42.930836" lon="-8.126253">
        <time>2022-07-14T10:54:02Z</time>
      </trkpt>
      <trkpt lat="42.930874" lon="-8.126311">
        <time>2022-07-14T10:54:05Z</time>
      </trkpt>
      <trkpt lat="42.93089" lon="-8.12637">
        <time>2022-07-14T10:54:08Z</time>
      </trkpt>
      <trkpt lat="42.930904" lon="-8.126436">
        <time>2022-07-14T10:54:12Z</time>
      </trkpt>
      <trkpt lat="42.930927" lon="-8.12651">
        <time>2022-07-14T10:54:18Z</time>
      </trkpt>
      <trkpt lat="42.93094" lon="-8.126575">
        <time>2022-07-14T10:54:22Z</time>
      </trkpt>
      <trkpt lat="42.93095" lon="-8.126644">
        <time>2022-07-14T10:54:26Z</time>
      </trkpt>
      <trkpt lat="42.930958" lon="-8.126727">
        <time>2022-07-14T10:54:32Z</time>
      </trkpt>
      <trkpt lat="42.930965" lon="-8.126817">
        <time>2022-07-14T10:54:37Z</time>
      </trkpt>
      <trkpt lat="42.930977" lon="-8.126887">
        <time>2022-07-14T10:54:42Z</time>
      </trkpt>
      <trkpt lat="42.930992" lon="-8.126964">
        <time>2022-07-14T10:54:47Z</time>
      </trkpt>
      <trkpt lat="42.931007" lon="-8.127032">
        <time>2022-07-14T10:54:51Z</time>
      </trkpt>
      <trkpt lat="42.931015" lon="-8.1271">
        <time>2022-07-14T10:54:55Z</time>
      </trkpt>
      <trkpt lat="42.93102" lon="-8.127171">
        <time>2022-07-14T10:55:00Z</time>
      </trkpt>
      <trkpt lat="42.93102" lon="-8.12725">
        <time>2022-07-14T10:55:06Z</time>
      </trkpt>
      <trkpt lat="42.931023" lon="-8.127316">
        <time>2022-07-14T10:55:12Z</time>
      </trkpt>
      <trkpt lat="42.931046" lon="-8.127375">
        <time>2022-07-14T10:55:17Z</time>
      </trkpt>
      <trkpt lat="42.93106" lon="-8.127446">
        <time>2022-07-14T10:55:23Z</time>
      </trkpt>
      <trkpt lat="42.931065" lon="-8.127527">
        <time>2022-07-14T10:55:28Z</time>
      </trkpt>
      <trkpt lat="42.93106" lon="-8.127594">
        <time>2022-07-14T10:55:32Z</time>
      </trkpt>
      <trkpt lat="42.931046" lon="-8.127663">
        <time>2022-07-14T10:55:37Z</time>
      </trkpt>
      <trkpt lat="42.931057" lon="-8.127747">
        <time>2022-07-14T10:55:43Z</time>
      </trkpt>
      <trkpt lat="42.931046" lon="-8.127812">
        <time>2022-07-14T10:55:47Z</time>
      </trkpt>
      <trkpt lat="42.93104" lon="-8.127885">
        <time>2022-07-14T10:55:52Z</time>
      </trkpt>
      <trkpt lat="42.931034" lon="-8.127956">
        <time>2022-07-14T10:55:56Z</time>
      </trkpt>
      <trkpt lat="42.931015" lon="-8.128037">
        <time>2022-07-14T10:56:01Z</time>
      </trkpt>
      <trkpt lat="42.93099" lon="-8.1281">
        <time>2022-07-14T10:56:06Z</time>
      </trkpt>
      <trkpt lat="42.930973" lon="-8.12818">
        <time>2022-07-14T10:56:12Z</time>
      </trkpt>
      <trkpt lat="42.93096" lon="-8.128254">
        <time>2022-07-14T10:56:17Z</time>
      </trkpt>
      <trkpt lat="42.93095" lon="-8.128335">
        <time>2022-07-14T10:56:21Z</time>
      </trkpt>
      <trkpt lat="42.93094" lon="-8.128402">
        <time>2022-07-14T10:56:25Z</time>
      </trkpt>
      <trkpt lat="42.93093" lon="-8.128465">
        <time>2022-07-14T10:56:29Z</time>
      </trkpt>
      <trkpt lat="42.93093" lon="-8.128547">
        <time>2022-07-14T10:56:34Z</time>
      </trkpt>
      <trkpt lat="42.93092" lon="-8.128623">
        <time>2022-07-14T10:56:38Z</time>
      </trkpt>
      <trkpt lat="42.930923" lon="-8.128694">
        <time>2022-07-14T10:56:42Z</time>
      </trkpt>
      <trkpt lat="42.93095" lon="-8.128788">
        <time>2022-07-14T10:56:48Z</time>
      </trkpt>
      <trkpt lat="42.930958" lon="-8.128869">
        <time>2022-07-14T10:56:53Z</time>
      </trkpt>
      <trkpt lat="42.930965" lon="-8.128955">
        <time>2022-07-14T10:56:57Z</time>
      </trkpt>
      <trkpt lat="42.930973" lon="-8.129027">
        <time>2022-07-14T10:57:01Z</time>
      </trkpt>
      <trkpt lat="42.930977" lon="-8.129101">
        <time>2022-07-14T10:57:04Z</time>
      </trkpt>
      <trkpt lat="42.930984" lon="-8.12918">
        <time>2022-07-14T10:57:08Z</time>
      </trkpt>
      <trkpt lat="42.931" lon="-8.12925">
        <time>2022-07-14T10:57:12Z</time>
      </trkpt>
      <trkpt lat="42.93102" lon="-8.129327">
        <time>2022-07-14T10:57:16Z</time>
      </trkpt>
      <trkpt lat="42.93103" lon="-8.129385">
        <time>2022-07-14T10:57:19Z</time>
      </trkpt>
      <trkpt lat="42.931038" lon="-8.1294565">
        <time>2022-07-14T10:57:23Z</time>
      </trkpt>
      <trkpt lat="42.93103" lon="-8.129535">
        <time>2022-07-14T10:57:28Z</time>
      </trkpt>
      <trkpt lat="42.931026" lon="-8.129606">
        <time>2022-07-14T10:57:33Z</time>
      </trkpt>
      <trkpt lat="42.931007" lon="-8.129672">
        <time>2022-07-14T10:57:38Z</time>
      </trkpt>
      <trkpt lat="42.931" lon="-8.129758">
        <time>2022-07-14T10:57:44Z</time>
      </trkpt>
      <trkpt lat="42.93098" lon="-8.129843">
        <time>2022-07-14T10:57:48Z</time>
      </trkpt>
      <trkpt lat="42.93097" lon="-8.129896">
        <time>2022-07-14T10:57:51Z</time>
      </trkpt>
      <trkpt lat="42.930954" lon="-8.129962">
        <time>2022-07-14T10:57:57Z</time>
      </trkpt>
      <trkpt lat="42.930943" lon="-8.130022">
        <time>2022-07-14T10:58:04Z</time>
      </trkpt>
      <trkpt lat="42.930935" lon="-8.130092">
        <time>2022-07-14T10:58:18Z</time>
      </trkpt>
      <trkpt lat="42.9309" lon="-8.130166">
        <time>2022-07-14T10:58:29Z</time>
      </trkpt>
      <trkpt lat="42.93088" lon="-8.130223">
        <time>2022-07-14T10:58:35Z</time>
      </trkpt>
      <trkpt lat="42.930866" lon="-8.130291">
        <time>2022-07-14T10:58:42Z</time>
      </trkpt>
      <trkpt lat="42.93083" lon="-8.130344">
        <time>2022-07-14T10:58:49Z</time>
      </trkpt>
      <trkpt lat="42.930798" lon="-8.130427">
        <time>2022-07-14T10:58:57Z</time>
      </trkpt>
      <trkpt lat="42.930794" lon="-8.130489">
        <time>2022-07-14T10:59:01Z</time>
      </trkpt>
      <trkpt lat="42.930843" lon="-8.130436">
        <time>2022-07-14T10:59:08Z</time>
      </trkpt>
      <trkpt lat="42.930878" lon="-8.130402">
        <time>2022-07-14T10:59:15Z</time>
      </trkpt>
      <trkpt lat="42.930824" lon="-8.130428">
        <time>2022-07-14T10:59:43Z</time>
      </trkpt>
      <trkpt lat="42.930775" lon="-8.130482">
        <time>2022-07-14T10:59:48Z</time>
      </trkpt>
      <trkpt lat="42.930733" lon="-8.130542">
        <time>2022-07-14T10:59:54Z</time>
      </trkpt>
      <trkpt lat="42.930706" lon="-8.130603">
        <time>2022-07-14T10:59:59Z</time>
      </trkpt>
      <trkpt lat="42.930676" lon="-8.13067">
        <time>2022-07-14T11:00:04Z</time>
      </trkpt>
      <trkpt lat="42.930653" lon="-8.130731">
        <time>2022-07-14T11:00:08Z</time>
      </trkpt>
      <trkpt lat="42.93063" lon="-8.130795">
        <time>2022-07-14T11:00:13Z</time>
      </trkpt>
      <trkpt lat="42.930588" lon="-8.130847">
        <time>2022-07-14T11:00:18Z</time>
      </trkpt>
      <trkpt lat="42.930557" lon="-8.130901">
        <time>2022-07-14T11:00:22Z</time>
      </trkpt>
      <trkpt lat="42.930527" lon="-8.130966">
        <time>2022-07-14T11:00:27Z</time>
      </trkpt>
      <trkpt lat="42.93051" lon="-8.131039">
        <time>2022-07-14T11:00:32Z</time>
      </trkpt>
      <trkpt lat="42.93049" lon="-8.131098">
        <time>2022-07-14T11:00:36Z</time>
      </trkpt>
      <trkpt lat="42.930473" lon="-8.131179">
        <time>2022-07-14T11:00:42Z</time>
      </trkpt>
      <trkpt lat="42.93047" lon="-8.13126">
        <time>2022-07-14T11:00:47Z</time>
      </trkpt>
      <trkpt lat="42.930454" lon="-8.131332">
        <time>2022-07-14T11:00:52Z</time>
      </trkpt>
      <trkpt lat="42.93045" lon="-8.131412">
        <time>2022-07-14T11:00:57Z</time>
      </trkpt>
      <trkpt lat="42.93045" lon="-8.131495">
        <time>2022-07-14T11:01:02Z</time>
      </trkpt>
      <trkpt lat="42.930454" lon="-8.1315775">
        <time>2022-07-14T11:01:07Z</time>
      </trkpt>
      <trkpt lat="42.93045" lon="-8.131658">
        <time>2022-07-14T11:01:12Z</time>
      </trkpt>
      <trkpt lat="42.930443" lon="-8.131736">
        <time>2022-07-14T11:01:17Z</time>
      </trkpt>
      <trkpt lat="42.93045" lon="-8.131811">
        <time>2022-07-14T11:01:22Z</time>
      </trkpt>
      <trkpt lat="42.93046" lon="-8.1318865">
        <time>2022-07-14T11:01:27Z</time>
      </trkpt>
      <trkpt lat="42.930473" lon="-8.131959">
        <time>2022-07-14T11:01:32Z</time>
      </trkpt>
      <trkpt lat="42.930473" lon="-8.132032">
        <time>2022-07-14T11:01:38Z</time>
      </trkpt>
      <trkpt lat="42.93047" lon="-8.132092">
        <time>2022-07-14T11:01:45Z</time>
      </trkpt>
      <trkpt lat="42.930492" lon="-8.132151">
        <time>2022-07-14T11:02:40Z</time>
      </trkpt>
      <trkpt lat="42.930508" lon="-8.132232">
        <time>2022-07-14T11:02:45Z</time>
      </trkpt>
      <trkpt lat="42.930553" lon="-8.132324">
        <time>2022-07-14T11:02:56Z</time>
      </trkpt>
      <trkpt lat="42.930573" lon="-8.13239">
        <time>2022-07-14T11:03:02Z</time>
      </trkpt>
      <trkpt lat="42.930595" lon="-8.132458">
        <time>2022-07-14T11:03:07Z</time>
      </trkpt>
      <trkpt lat="42.930607" lon="-8.132524">
        <time>2022-07-14T11:03:12Z</time>
      </trkpt>
      <trkpt lat="42.930607" lon="-8.132603">
        <time>2022-07-14T11:03:17Z</time>
      </trkpt>
      <trkpt lat="42.93061" lon="-8.13267">
        <time>2022-07-14T11:03:22Z</time>
      </trkpt>
      <trkpt lat="42.93064" lon="-8.132741">
        <time>2022-07-14T11:03:28Z</time>
      </trkpt>
      <trkpt lat="42.930653" lon="-8.132803">
        <time>2022-07-14T11:03:33Z</time>
      </trkpt>
      <trkpt lat="42.930656" lon="-8.132889">
        <time>2022-07-14T11:03:39Z</time>
      </trkpt>
      <trkpt lat="42.930676" lon="-8.132968">
        <time>2022-07-14T11:03:45Z</time>
      </trkpt>
      <trkpt lat="42.9307" lon="-8.133034">
        <time>2022-07-14T11:03:50Z</time>
      </trkpt>
      <trkpt lat="42.930717" lon="-8.133093">
        <time>2022-07-14T11:03:55Z</time>
      </trkpt>
      <trkpt lat="42.930733" lon="-8.133173">
        <time>2022-07-14T11:04:01Z</time>
      </trkpt>
      <trkpt lat="42.930748" lon="-8.133235">
        <time>2022-07-14T11:04:06Z</time>
      </trkpt>
      <trkpt lat="42.93076" lon="-8.133318">
        <time>2022-07-14T11:04:12Z</time>
      </trkpt>
      <trkpt lat="42.93077" lon="-8.133389">
        <time>2022-07-14T11:04:17Z</time>
      </trkpt>
      <trkpt lat="42.930786" lon="-8.133464">
        <time>2022-07-14T11:04:22Z</time>
      </trkpt>
      <trkpt lat="42.9308" lon="-8.133537">
        <time>2022-07-14T11:04:27Z</time>
      </trkpt>
      <trkpt lat="42.930817" lon="-8.13361">
        <time>2022-07-14T11:04:32Z</time>
      </trkpt>
      <trkpt lat="42.930824" lon="-8.133697">
        <time>2022-07-14T11:04:38Z</time>
      </trkpt>
      <trkpt lat="42.930843" lon="-8.133779">
        <time>2022-07-14T11:04:43Z</time>
      </trkpt>
      <trkpt lat="42.93085" lon="-8.133855">
        <time>2022-07-14T11:04:48Z</time>
      </trkpt>
      <trkpt lat="42.930847" lon="-8.13393">
        <time>2022-07-14T11:04:53Z</time>
      </trkpt>
      <trkpt lat="42.930866" lon="-8.134003">
        <time>2022-07-14T11:04:58Z</time>
      </trkpt>
      <trkpt lat="42.93088" lon="-8.134084">
        <time>2022-07-14T11:05:04Z</time>
      </trkpt>
      <trkpt lat="42.93089" lon="-8.134156">
        <time>2022-07-14T11:05:10Z</time>
      </trkpt>
      <trkpt lat="42.930916" lon="-8.134236">
        <time>2022-07-14T11:05:15Z</time>
      </trkpt>
      <trkpt lat="42.93094" lon="-8.134307">
        <time>2022-07-14T11:05:20Z</time>
      </trkpt>
      <trkpt lat="42.930958" lon="-8.13438">
        <time>2022-07-14T11:05:25Z</time>
      </trkpt>
      <trkpt lat="42.93098" lon="-8.134448">
        <time>2022-07-14T11:05:30Z</time>
      </trkpt>
      <trkpt lat="42.930984" lon="-8.134522">
        <time>2022-07-14T11:05:35Z</time>
      </trkpt>
      <trkpt lat="42.930977" lon="-8.134597">
        <time>2022-07-14T11:05:40Z</time>
      </trkpt>
      <trkpt lat="42.93095" lon="-8.134664">
        <time>2022-07-14T11:05:45Z</time>
      </trkpt>
      <trkpt lat="42.930904" lon="-8.134716">
        <time>2022-07-14T11:05:50Z</time>
      </trkpt>
      <trkpt lat="42.930862" lon="-8.134771">
        <time>2022-07-14T11:05:55Z</time>
      </trkpt>
      <trkpt lat="42.930817" lon="-8.134816">
        <time>2022-07-14T11:05:59Z</time>
      </trkpt>
      <trkpt lat="42.93078" lon="-8.134861">
        <time>2022-07-14T11:06:03Z</time>
      </trkpt>
      <trkpt lat="42.93074" lon="-8.13491">
        <time>2022-07-14T11:06:08Z</time>
      </trkpt>
      <trkpt lat="42.930706" lon="-8.134965">
        <time>2022-07-14T11:06:14Z</time>
      </trkpt>
      <trkpt lat="42.930668" lon="-8.135015">
        <time>2022-07-14T11:06:19Z</time>
      </trkpt>
      <trkpt lat="42.930634" lon="-8.13507">
        <time>2022-07-14T11:06:24Z</time>
      </trkpt>
      <trkpt lat="42.930595" lon="-8.135128">
        <time>2022-07-14T11:06:30Z</time>
      </trkpt>
      <trkpt lat="42.930553" lon="-8.135173">
        <time>2022-07-14T11:06:36Z</time>
      </trkpt>
      <trkpt lat="42.930508" lon="-8.135215">
        <time>2022-07-14T11:06:42Z</time>
      </trkpt>
      <trkpt lat="42.930454" lon="-8.135242">
        <time>2022-07-14T11:06:48Z</time>
      </trkpt>
      <trkpt lat="42.93041" lon="-8.13526">
        <time>2022-07-14T11:06:52Z</time>
      </trkpt>
      <trkpt lat="42.93035" lon="-8.135269">
        <time>2022-07-14T11:06:57Z</time>
      </trkpt>
      <trkpt lat="42.930298" lon="-8.13527">
        <time>2022-07-14T11:07:01Z</time>
      </trkpt>
      <trkpt lat="42.930237" lon="-8.135277">
        <time>2022-07-14T11:07:06Z</time>
      </trkpt>
      <trkpt lat="42.930183" lon="-8.135268">
        <time>2022-07-14T11:07:11Z</time>
      </trkpt>
      <trkpt lat="42.93013" lon="-8.135265">
        <time>2022-07-14T11:07:16Z</time>
      </trkpt>
      <trkpt lat="42.930073" lon="-8.13526">
        <time>2022-07-14T11:07:21Z</time>
      </trkpt>
      <trkpt lat="42.93002" lon="-8.135259">
        <time>2022-07-14T11:07:25Z</time>
      </trkpt>
      <trkpt lat="42.929966" lon="-8.135255">
        <time>2022-07-14T11:07:30Z</time>
      </trkpt>
      <trkpt lat="42.929913" lon="-8.135253">
        <time>2022-07-14T11:07:35Z</time>
      </trkpt>
      <trkpt lat="42.92985" lon="-8.13527">
        <time>2022-07-14T11:07:41Z</time>
      </trkpt>
      <trkpt lat="42.929802" lon="-8.135282">
        <time>2022-07-14T11:07:45Z</time>
      </trkpt>
      <trkpt lat="42.92974" lon="-8.13529">
        <time>2022-07-14T11:07:50Z</time>
      </trkpt>
      <trkpt lat="42.929684" lon="-8.135294">
        <time>2022-07-14T11:07:54Z</time>
      </trkpt>
      <trkpt lat="42.929634" lon="-8.135308">
        <time>2022-07-14T11:07:58Z</time>
      </trkpt>
      <trkpt lat="42.92959" lon="-8.135337">
        <time>2022-07-14T11:08:03Z</time>
      </trkpt>
      <trkpt lat="42.92954" lon="-8.135377">
        <time>2022-07-14T11:08:07Z</time>
      </trkpt>
      <trkpt lat="42.92949" lon="-8.135403">
        <time>2022-07-14T11:08:12Z</time>
      </trkpt>
      <trkpt lat="42.92944" lon="-8.135427">
        <time>2022-07-14T11:08:16Z</time>
      </trkpt>
      <trkpt lat="42.929386" lon="-8.135453">
        <time>2022-07-14T11:08:20Z</time>
      </trkpt>
      <trkpt lat="42.929337" lon="-8.135485">
        <time>2022-07-14T11:08:24Z</time>
      </trkpt>
      <trkpt lat="42.929287" lon="-8.135519">
        <time>2022-07-14T11:08:29Z</time>
      </trkpt>
      <trkpt lat="42.92925" lon="-8.135577">
        <time>2022-07-14T11:08:34Z</time>
      </trkpt>
      <trkpt lat="42.92923" lon="-8.135652">
        <time>2022-07-14T11:08:39Z</time>
      </trkpt>
      <trkpt lat="42.929222" lon="-8.135725">
        <time>2022-07-14T11:08:43Z</time>
      </trkpt>
      <trkpt lat="42.929203" lon="-8.135797">
        <time>2022-07-14T11:08:46Z</time>
      </trkpt>
      <trkpt lat="42.92921" lon="-8.135903">
        <time>2022-07-14T11:08:50Z</time>
      </trkpt>
      <trkpt lat="42.929276" lon="-8.135949">
        <time>2022-07-14T11:08:55Z</time>
      </trkpt>
      <trkpt lat="42.929276" lon="-8.136005">
        <time>2022-07-14T11:09:01Z</time>
      </trkpt>
      <trkpt lat="42.929237" lon="-8.136062">
        <time>2022-07-14T11:09:07Z</time>
      </trkpt>
      <trkpt lat="42.929195" lon="-8.13609">
        <time>2022-07-14T11:09:12Z</time>
      </trkpt>
      <trkpt lat="42.929142" lon="-8.13612">
        <time>2022-07-14T11:09:17Z</time>
      </trkpt>
      <trkpt lat="42.929092" lon="-8.136153">
        <time>2022-07-14T11:09:22Z</time>
      </trkpt>
      <trkpt lat="42.929043" lon="-8.136171">
        <time>2022-07-14T11:09:27Z</time>
      </trkpt>
      <trkpt lat="42.928986" lon="-8.1362">
        <time>2022-07-14T11:09:33Z</time>
      </trkpt>
      <trkpt lat="42.928944" lon="-8.136244">
        <time>2022-07-14T11:09:38Z</time>
      </trkpt>
      <trkpt lat="42.928905" lon="-8.136291">
        <time>2022-07-14T11:09:44Z</time>
      </trkpt>
      <trkpt lat="42.928875" lon="-8.136344">
        <time>2022-07-14T11:09:49Z</time>
      </trkpt>
      <trkpt lat="42.928898" lon="-8.1363945">
        <time>2022-07-14T11:09:55Z</time>
      </trkpt>
      <trkpt lat="42.92896" lon="-8.1363735">
        <time>2022-07-14T11:10:00Z</time>
      </trkpt>
      <trkpt lat="42.92901" lon="-8.136357">
        <time>2022-07-14T11:10:04Z</time>
      </trkpt>
      <trkpt lat="42.929058" lon="-8.136345">
        <time>2022-07-14T11:10:08Z</time>
      </trkpt>
      <trkpt lat="42.92911" lon="-8.136332">
        <time>2022-07-14T11:10:13Z</time>
      </trkpt>
      <trkpt lat="42.929165" lon="-8.136316">
        <time>2022-07-14T11:10:18Z</time>
      </trkpt>
      <trkpt lat="42.929214" lon="-8.136293">
        <time>2022-07-14T11:10:23Z</time>
      </trkpt>
      <trkpt lat="42.929268" lon="-8.136262">
        <time>2022-07-14T11:10:29Z</time>
      </trkpt>
      <trkpt lat="42.929314" lon="-8.136232">
        <time>2022-07-14T11:10:35Z</time>
      </trkpt>
      <trkpt lat="42.929367" lon="-8.136212">
        <time>2022-07-14T11:10:40Z</time>
      </trkpt>
      <trkpt lat="42.92943" lon="-8.136196">
        <time>2022-07-14T11:10:45Z</time>
      </trkpt>
      <trkpt lat="42.929485" lon="-8.136187">
        <time>2022-07-14T11:10:51Z</time>
      </trkpt>
      <trkpt lat="42.92954" lon="-8.136169">
        <time>2022-07-14T11:10:56Z</time>
      </trkpt>
      <trkpt lat="42.929592" lon="-8.136155">
        <time>2022-07-14T11:11:01Z</time>
      </trkpt>
      <trkpt lat="42.92965" lon="-8.13614">
        <time>2022-07-14T11:11:06Z</time>
      </trkpt>
      <trkpt lat="42.929703" lon="-8.136128">
        <time>2022-07-14T11:11:11Z</time>
      </trkpt>
      <trkpt lat="42.92975" lon="-8.136114">
        <time>2022-07-14T11:11:14Z</time>
      </trkpt>
      <trkpt lat="42.92981" lon="-8.136109">
        <time>2022-07-14T11:11:19Z</time>
      </trkpt>
      <trkpt lat="42.92986" lon="-8.136102">
        <time>2022-07-14T11:11:24Z</time>
      </trkpt>
      <trkpt lat="42.929916" lon="-8.136105">
        <time>2022-07-14T11:11:30Z</time>
      </trkpt>
      <trkpt lat="42.929974" lon="-8.13611">
        <time>2022-07-14T11:11:34Z</time>
      </trkpt>
      <trkpt lat="42.930023" lon="-8.136107">
        <time>2022-07-14T11:11:38Z</time>
      </trkpt>
      <trkpt lat="42.930084" lon="-8.136109">
        <time>2022-07-14T11:11:43Z</time>
      </trkpt>
      <trkpt lat="42.930134" lon="-8.136114">
        <time>2022-07-14T11:11:48Z</time>
      </trkpt>
      <trkpt lat="42.930157" lon="-8.136122">
        <time>2022-07-14T11:12:04Z</time>
      </trkpt>
      <trkpt lat="42.93023" lon="-8.136151">
        <time>2022-07-14T11:12:11Z</time>
      </trkpt>
      <trkpt lat="42.93028" lon="-8.13617">
        <time>2022-07-14T11:12:14Z</time>
      </trkpt>
      <trkpt lat="42.930336" lon="-8.136192">
        <time>2022-07-14T11:12:18Z</time>
      </trkpt>
      <trkpt lat="42.93038" lon="-8.136206">
        <time>2022-07-14T11:12:22Z</time>
      </trkpt>
      <trkpt lat="42.930435" lon="-8.136211">
        <time>2022-07-14T11:12:27Z</time>
      </trkpt>
      <trkpt lat="42.930485" lon="-8.136226">
        <time>2022-07-14T11:12:32Z</time>
      </trkpt>
      <trkpt lat="42.93054" lon="-8.136258">
        <time>2022-07-14T11:12:38Z</time>
      </trkpt>
      <trkpt lat="42.930588" lon="-8.136297">
        <time>2022-07-14T11:12:43Z</time>
      </trkpt>
      <trkpt lat="42.930634" lon="-8.136345">
        <time>2022-07-14T11:12:48Z</time>
      </trkpt>
      <trkpt lat="42.93069" lon="-8.136414">
        <time>2022-07-14T11:12:53Z</time>
      </trkpt>
      <trkpt lat="42.93071" lon="-8.136453">
        <time>2022-07-14T11:12:58Z</time>
      </trkpt>
      <trkpt lat="42.930737" lon="-8.136513">
        <time>2022-07-14T11:13:03Z</time>
      </trkpt>
      <trkpt lat="42.93076" lon="-8.136577">
        <time>2022-07-14T11:13:07Z</time>
      </trkpt>
      <trkpt lat="42.930782" lon="-8.136645">
        <time>2022-07-14T11:13:12Z</time>
      </trkpt>
      <trkpt lat="42.930805" lon="-8.136718">
        <time>2022-07-14T11:13:17Z</time>
      </trkpt>
      <trkpt lat="42.93083" lon="-8.136794">
        <time>2022-07-14T11:13:22Z</time>
      </trkpt>
      <trkpt lat="42.930843" lon="-8.136871">
        <time>2022-07-14T11:13:27Z</time>
      </trkpt>
      <trkpt lat="42.930855" lon="-8.136953">
        <time>2022-07-14T11:13:32Z</time>
      </trkpt>
      <trkpt lat="42.930836" lon="-8.137024">
        <time>2022-07-14T11:13:37Z</time>
      </trkpt>
      <trkpt lat="42.93082" lon="-8.137096">
        <time>2022-07-14T11:13:41Z</time>
      </trkpt>
      <trkpt lat="42.930805" lon="-8.137182">
        <time>2022-07-14T11:13:46Z</time>
      </trkpt>
      <trkpt lat="42.930794" lon="-8.13725">
        <time>2022-07-14T11:13:50Z</time>
      </trkpt>
      <trkpt lat="42.9308" lon="-8.137338">
        <time>2022-07-14T11:13:55Z</time>
      </trkpt>
      <trkpt lat="42.930817" lon="-8.137408">
        <time>2022-07-14T11:14:00Z</time>
      </trkpt>
      <trkpt lat="42.930836" lon="-8.137484">
        <time>2022-07-14T11:14:05Z</time>
      </trkpt>
      <trkpt lat="42.930862" lon="-8.137555">
        <time>2022-07-14T11:14:10Z</time>
      </trkpt>
      <trkpt lat="42.930878" lon="-8.137629">
        <time>2022-07-14T11:14:15Z</time>
      </trkpt>
      <trkpt lat="42.930874" lon="-8.137707">
        <time>2022-07-14T11:14:20Z</time>
      </trkpt>
      <trkpt lat="42.93089" lon="-8.137776">
        <time>2022-07-14T11:14:25Z</time>
      </trkpt>
      <trkpt lat="42.930897" lon="-8.137851">
        <time>2022-07-14T11:14:31Z</time>
      </trkpt>
      <trkpt lat="42.930893" lon="-8.1379175">
        <time>2022-07-14T11:14:36Z</time>
      </trkpt>
      <trkpt lat="42.930904" lon="-8.137998">
        <time>2022-07-14T11:14:41Z</time>
      </trkpt>
      <trkpt lat="42.930973" lon="-8.138161">
        <time>2022-07-14T11:14:54Z</time>
      </trkpt>
      <trkpt lat="42.930954" lon="-8.138238">
        <time>2022-07-14T11:15:00Z</time>
      </trkpt>
      <trkpt lat="42.93094" lon="-8.138319">
        <time>2022-07-14T11:15:05Z</time>
      </trkpt>
      <trkpt lat="42.930935" lon="-8.138381">
        <time>2022-07-14T11:15:09Z</time>
      </trkpt>
      <trkpt lat="42.930927" lon="-8.138459">
        <time>2022-07-14T11:15:14Z</time>
      </trkpt>
      <trkpt lat="42.93093" lon="-8.138534">
        <time>2022-07-14T11:15:19Z</time>
      </trkpt>
      <trkpt lat="42.93094" lon="-8.138598">
        <time>2022-07-14T11:15:24Z</time>
      </trkpt>
      <trkpt lat="42.9309" lon="-8.138657">
        <time>2022-07-14T11:15:30Z</time>
      </trkpt>
      <trkpt lat="42.93087" lon="-8.138728">
        <time>2022-07-14T11:15:35Z</time>
      </trkpt>
      <trkpt lat="42.93085" lon="-8.138782">
        <time>2022-07-14T11:15:39Z</time>
      </trkpt>
      <trkpt lat="42.930843" lon="-8.138855">
        <time>2022-07-14T11:15:48Z</time>
      </trkpt>
      <trkpt lat="42.930836" lon="-8.138924">
        <time>2022-07-14T11:15:54Z</time>
      </trkpt>
      <trkpt lat="42.930843" lon="-8.139002">
        <time>2022-07-14T11:15:59Z</time>
      </trkpt>
      <trkpt lat="42.930847" lon="-8.139072">
        <time>2022-07-14T11:16:03Z</time>
      </trkpt>
      <trkpt lat="42.93083" lon="-8.139144">
        <time>2022-07-14T11:16:07Z</time>
      </trkpt>
      <trkpt lat="42.93081" lon="-8.139208">
        <time>2022-07-14T11:16:11Z</time>
      </trkpt>
      <trkpt lat="42.9308" lon="-8.139295">
        <time>2022-07-14T11:16:16Z</time>
      </trkpt>
      <trkpt lat="42.930794" lon="-8.139378">
        <time>2022-07-14T11:16:21Z</time>
      </trkpt>
      <trkpt lat="42.93078" lon="-8.139447">
        <time>2022-07-14T11:16:25Z</time>
      </trkpt>
      <trkpt lat="42.930767" lon="-8.139514">
        <time>2022-07-14T11:16:29Z</time>
      </trkpt>
      <trkpt lat="42.930748" lon="-8.139592">
        <time>2022-07-14T11:16:34Z</time>
      </trkpt>
      <trkpt lat="42.93072" lon="-8.139677">
        <time>2022-07-14T11:16:39Z</time>
      </trkpt>
      <trkpt lat="42.930725" lon="-8.139714">
        <time>2022-07-14T11:16:52Z</time>
      </trkpt>
      <trkpt lat="42.930717" lon="-8.139799">
        <time>2022-07-14T11:16:58Z</time>
      </trkpt>
      <trkpt lat="42.930714" lon="-8.139867">
        <time>2022-07-14T11:17:02Z</time>
      </trkpt>
      <trkpt lat="42.93071" lon="-8.139944">
        <time>2022-07-14T11:17:07Z</time>
      </trkpt>
      <trkpt lat="42.930706" lon="-8.140017">
        <time>2022-07-14T11:17:11Z</time>
      </trkpt>
      <trkpt lat="42.93069" lon="-8.140078">
        <time>2022-07-14T11:17:15Z</time>
      </trkpt>
      <trkpt lat="42.93066" lon="-8.140159">
        <time>2022-07-14T11:17:20Z</time>
      </trkpt>
      <trkpt lat="42.930634" lon="-8.140226">
        <time>2022-07-14T11:17:25Z</time>
      </trkpt>
      <trkpt lat="42.930614" lon="-8.140287">
        <time>2022-07-14T11:17:29Z</time>
      </trkpt>
      <trkpt lat="42.930588" lon="-8.140356">
        <time>2022-07-14T11:17:34Z</time>
      </trkpt>
      <trkpt lat="42.93056" lon="-8.140425">
        <time>2022-07-14T11:17:39Z</time>
      </trkpt>
      <trkpt lat="42.930523" lon="-8.140496">
        <time>2022-07-14T11:17:45Z</time>
      </trkpt>
      <trkpt lat="42.930485" lon="-8.140571">
        <time>2022-07-14T11:17:51Z</time>
      </trkpt>
      <trkpt lat="42.93045" lon="-8.140632">
        <time>2022-07-14T11:17:56Z</time>
      </trkpt>
      <trkpt lat="42.930424" lon="-8.140689">
        <time>2022-07-14T11:18:00Z</time>
      </trkpt>
      <trkpt lat="42.93039" lon="-8.140751">
        <time>2022-07-14T11:18:05Z</time>
      </trkpt>
      <trkpt lat="42.93036" lon="-8.14081">
        <time>2022-07-14T11:18:10Z</time>
      </trkpt>
      <trkpt lat="42.93033" lon="-8.140874">
        <time>2022-07-14T11:18:15Z</time>
      </trkpt>
      <trkpt lat="42.9303" lon="-8.140925">
        <time>2022-07-14T11:18:19Z</time>
      </trkpt>
      <trkpt lat="42.930267" lon="-8.141004">
        <time>2022-07-14T11:18:24Z</time>
      </trkpt>
      <trkpt lat="42.93024" lon="-8.141061">
        <time>2022-07-14T11:18:28Z</time>
      </trkpt>
      <trkpt lat="42.93022" lon="-8.141132">
        <time>2022-07-14T11:18:34Z</time>
      </trkpt>
      <trkpt lat="42.930206" lon="-8.141192">
        <time>2022-07-14T11:18:40Z</time>
      </trkpt>
      <trkpt lat="42.930176" lon="-8.141262">
        <time>2022-07-14T11:18:51Z</time>
      </trkpt>
      <trkpt lat="42.930134" lon="-8.141323">
        <time>2022-07-14T11:18:56Z</time>
      </trkpt>
      <trkpt lat="42.930096" lon="-8.14137">
        <time>2022-07-14T11:19:00Z</time>
      </trkpt>
      <trkpt lat="42.93006" lon="-8.141437">
        <time>2022-07-14T11:19:05Z</time>
      </trkpt>
      <trkpt lat="42.930046" lon="-8.141507">
        <time>2022-07-14T11:19:09Z</time>
      </trkpt>
      <trkpt lat="42.930027" lon="-8.141583">
        <time>2022-07-14T11:19:14Z</time>
      </trkpt>
      <trkpt lat="42.93001" lon="-8.141662">
        <time>2022-07-14T11:19:19Z</time>
      </trkpt>
      <trkpt lat="42.929996" lon="-8.141723">
        <time>2022-07-14T11:19:23Z</time>
      </trkpt>
      <trkpt lat="42.929993" lon="-8.141794">
        <time>2022-07-14T11:19:28Z</time>
      </trkpt>
      <trkpt lat="42.929985" lon="-8.141869">
        <time>2022-07-14T11:19:33Z</time>
      </trkpt>
      <trkpt lat="42.92997" lon="-8.141948">
        <time>2022-07-14T11:19:38Z</time>
      </trkpt>
      <trkpt lat="42.929962" lon="-8.1420145">
        <time>2022-07-14T11:19:42Z</time>
      </trkpt>
      <trkpt lat="42.929947" lon="-8.142094">
        <time>2022-07-14T11:19:47Z</time>
      </trkpt>
      <trkpt lat="42.929928" lon="-8.1421795">
        <time>2022-07-14T11:19:52Z</time>
      </trkpt>
      <trkpt lat="42.929916" lon="-8.142257">
        <time>2022-07-14T11:19:57Z</time>
      </trkpt>
      <trkpt lat="42.929916" lon="-8.142328">
        <time>2022-07-14T11:20:02Z</time>
      </trkpt>
      <trkpt lat="42.929916" lon="-8.142399">
        <time>2022-07-14T11:20:07Z</time>
      </trkpt>
      <trkpt lat="42.929913" lon="-8.142467">
        <time>2022-07-14T11:20:13Z</time>
      </trkpt>
      <trkpt lat="42.929955" lon="-8.142528">
        <time>2022-07-14T11:21:11Z</time>
      </trkpt>
      <trkpt lat="42.92995" lon="-8.142609">
        <time>2022-07-14T11:21:16Z</time>
      </trkpt>
      <trkpt lat="42.929947" lon="-8.142677">
        <time>2022-07-14T11:21:20Z</time>
      </trkpt>
      <trkpt lat="42.929947" lon="-8.142753">
        <time>2022-07-14T11:21:24Z</time>
      </trkpt>
      <trkpt lat="42.92994" lon="-8.142827">
        <time>2022-07-14T11:21:29Z</time>
      </trkpt>
      <trkpt lat="42.929928" lon="-8.142904">
        <time>2022-07-14T11:21:34Z</time>
      </trkpt>
      <trkpt lat="42.929924" lon="-8.142975">
        <time>2022-07-14T11:21:39Z</time>
      </trkpt>
      <trkpt lat="42.929893" lon="-8.143067">
        <time>2022-07-14T11:21:45Z</time>
      </trkpt>
      <trkpt lat="42.929886" lon="-8.143156">
        <time>2022-07-14T11:21:51Z</time>
      </trkpt>
      <trkpt lat="42.929905" lon="-8.143234">
        <time>2022-07-14T11:21:58Z</time>
      </trkpt>
      <trkpt lat="42.929905" lon="-8.143316">
        <time>2022-07-14T11:22:03Z</time>
      </trkpt>
      <trkpt lat="42.929905" lon="-8.1433935">
        <time>2022-07-14T11:22:08Z</time>
      </trkpt>
      <trkpt lat="42.929905" lon="-8.143456">
        <time>2022-07-14T11:22:13Z</time>
      </trkpt>
      <trkpt lat="42.929916" lon="-8.143529">
        <time>2022-07-14T11:22:19Z</time>
      </trkpt>
      <trkpt lat="42.929955" lon="-8.143581">
        <time>2022-07-14T11:22:29Z</time>
      </trkpt>
      <trkpt lat="42.92994" lon="-8.143637">
        <time>2022-07-14T11:22:37Z</time>
      </trkpt>
      <trkpt lat="42.929928" lon="-8.143717">
        <time>2022-07-14T11:22:44Z</time>
      </trkpt>
      <trkpt lat="42.929928" lon="-8.143796">
        <time>2022-07-14T11:22:50Z</time>
      </trkpt>
      <trkpt lat="42.92992" lon="-8.143863">
        <time>2022-07-14T11:22:55Z</time>
      </trkpt>
      <trkpt lat="42.92992" lon="-8.143929">
        <time>2022-07-14T11:23:00Z</time>
      </trkpt>
      <trkpt lat="42.92992" lon="-8.144015">
        <time>2022-07-14T11:23:06Z</time>
      </trkpt>
      <trkpt lat="42.929913" lon="-8.1441">
        <time>2022-07-14T11:23:11Z</time>
      </trkpt>
      <trkpt lat="42.929913" lon="-8.144185">
        <time>2022-07-14T11:23:20Z</time>
      </trkpt>
      <trkpt lat="42.92992" lon="-8.144268">
        <time>2022-07-14T11:23:25Z</time>
      </trkpt>
      <trkpt lat="42.929916" lon="-8.144341">
        <time>2022-07-14T11:23:30Z</time>
      </trkpt>
      <trkpt lat="42.929928" lon="-8.144432">
        <time>2022-07-14T11:23:35Z</time>
      </trkpt>
      <trkpt lat="42.929924" lon="-8.144511">
        <time>2022-07-14T11:23:40Z</time>
      </trkpt>
      <trkpt lat="42.929924" lon="-8.144587">
        <time>2022-07-14T11:23:45Z</time>
      </trkpt>
      <trkpt lat="42.92993" lon="-8.144667">
        <time>2022-07-14T11:23:50Z</time>
      </trkpt>
      <trkpt lat="42.929935" lon="-8.144734">
        <time>2022-07-14T11:23:55Z</time>
      </trkpt>
      <trkpt lat="42.92993" lon="-8.144815">
        <time>2022-07-14T11:24:01Z</time>
      </trkpt>
      <trkpt lat="42.92994" lon="-8.14488">
        <time>2022-07-14T11:24:06Z</time>
      </trkpt>
      <trkpt lat="42.929966" lon="-8.144939">
        <time>2022-07-14T11:24:14Z</time>
      </trkpt>
      <trkpt lat="42.929947" lon="-8.145022">
        <time>2022-07-14T11:24:21Z</time>
      </trkpt>
      <trkpt lat="42.92995" lon="-8.145105">
        <time>2022-07-14T11:24:27Z</time>
      </trkpt>
      <trkpt lat="42.929962" lon="-8.14517">
        <time>2022-07-14T11:24:32Z</time>
      </trkpt>
      <trkpt lat="42.92996" lon="-8.145242">
        <time>2022-07-14T11:24:38Z</time>
      </trkpt>
      <trkpt lat="42.929943" lon="-8.145313">
        <time>2022-07-14T11:24:44Z</time>
      </trkpt>
      <trkpt lat="42.929947" lon="-8.1453905">
        <time>2022-07-14T11:24:49Z</time>
      </trkpt>
      <trkpt lat="42.92995" lon="-8.145473">
        <time>2022-07-14T11:24:54Z</time>
      </trkpt>
      <trkpt lat="42.929974" lon="-8.145548">
        <time>2022-07-14T11:25:00Z</time>
      </trkpt>
      <trkpt lat="42.929993" lon="-8.145593">
        <time>2022-07-14T11:25:10Z</time>
      </trkpt>
      <trkpt lat="42.929974" lon="-8.145667">
        <time>2022-07-14T11:25:17Z</time>
      </trkpt>
      <trkpt lat="42.929974" lon="-8.145742">
        <time>2022-07-14T11:25:22Z</time>
      </trkpt>
      <trkpt lat="42.929966" lon="-8.145807">
        <time>2022-07-14T11:25:26Z</time>
      </trkpt>
      <trkpt lat="42.929955" lon="-8.145887">
        <time>2022-07-14T11:25:31Z</time>
      </trkpt>
      <trkpt lat="42.929943" lon="-8.145949">
        <time>2022-07-14T11:25:35Z</time>
      </trkpt>
      <trkpt lat="42.929955" lon="-8.146028">
        <time>2022-07-14T11:25:40Z</time>
      </trkpt>
      <trkpt lat="42.929947" lon="-8.146102">
        <time>2022-07-14T11:25:45Z</time>
      </trkpt>
      <trkpt lat="42.929947" lon="-8.146167">
        <time>2022-07-14T11:25:49Z</time>
      </trkpt>
      <trkpt lat="42.92995" lon="-8.146241">
        <time>2022-07-14T11:25:54Z</time>
      </trkpt>
      <trkpt lat="42.929955" lon="-8.146312">
        <time>2022-07-14T11:25:59Z</time>
      </trkpt>
      <trkpt lat="42.929955" lon="-8.146385">
        <time>2022-07-14T11:26:04Z</time>
      </trkpt>
      <trkpt lat="42.929947" lon="-8.146456">
        <time>2022-07-14T11:26:09Z</time>
      </trkpt>
      <trkpt lat="42.929947" lon="-8.146527">
        <time>2022-07-14T11:26:15Z</time>
      </trkpt>
      <trkpt lat="42.92994" lon="-8.146611">
        <time>2022-07-14T11:26:21Z</time>
      </trkpt>
      <trkpt lat="42.929974" lon="-8.146742">
        <time>2022-07-14T11:26:39Z</time>
      </trkpt>
      <trkpt lat="42.929962" lon="-8.14681">
        <time>2022-07-14T11:26:45Z</time>
      </trkpt>
      <trkpt lat="42.92998" lon="-8.146879">
        <time>2022-07-14T11:26:51Z</time>
      </trkpt>
      <trkpt lat="42.92998" lon="-8.146957">
        <time>2022-07-14T11:26:57Z</time>
      </trkpt>
      <trkpt lat="42.929977" lon="-8.147037">
        <time>2022-07-14T11:27:03Z</time>
      </trkpt>
      <trkpt lat="42.92997" lon="-8.14711">
        <time>2022-07-14T11:27:08Z</time>
      </trkpt>
      <trkpt lat="42.929962" lon="-8.147181">
        <time>2022-07-14T11:27:12Z</time>
      </trkpt>
      <trkpt lat="42.929966" lon="-8.147264">
        <time>2022-07-14T11:27:17Z</time>
      </trkpt>
      <trkpt lat="42.92998" lon="-8.147332">
        <time>2022-07-14T11:27:21Z</time>
      </trkpt>
      <trkpt lat="42.929977" lon="-8.147407">
        <time>2022-07-14T11:27:26Z</time>
      </trkpt>
      <trkpt lat="42.929985" lon="-8.147476">
        <time>2022-07-14T11:27:32Z</time>
      </trkpt>
      <trkpt lat="42.92999" lon="-8.147497">
        <time>2022-07-14T11:27:43Z</time>
      </trkpt>
      <trkpt lat="42.929977" lon="-8.147568">
        <time>2022-07-14T11:27:51Z</time>
      </trkpt>
      <trkpt lat="42.92997" lon="-8.147646">
        <time>2022-07-14T11:27:57Z</time>
      </trkpt>
      <trkpt lat="42.92997" lon="-8.147728">
        <time>2022-07-14T11:28:07Z</time>
      </trkpt>
      <trkpt lat="42.929962" lon="-8.147809">
        <time>2022-07-14T11:28:12Z</time>
      </trkpt>
      <trkpt lat="42.92996" lon="-8.147882">
        <time>2022-07-14T11:28:17Z</time>
      </trkpt>
      <trkpt lat="42.929966" lon="-8.147953">
        <time>2022-07-14T11:28:22Z</time>
      </trkpt>
      <trkpt lat="42.92996" lon="-8.148031">
        <time>2022-07-14T11:28:27Z</time>
      </trkpt>
      <trkpt lat="42.929955" lon="-8.148105">
        <time>2022-07-14T11:28:32Z</time>
      </trkpt>
      <trkpt lat="42.929962" lon="-8.148174">
        <time>2022-07-14T11:28:37Z</time>
      </trkpt>
      <trkpt lat="42.929966" lon="-8.148239">
        <time>2022-07-14T11:28:42Z</time>
      </trkpt>
      <trkpt lat="42.92992" lon="-8.148297">
        <time>2022-07-14T11:28:48Z</time>
      </trkpt>
      <trkpt lat="42.929886" lon="-8.148349">
        <time>2022-07-14T11:28:53Z</time>
      </trkpt>
      <trkpt lat="42.929844" lon="-8.148383">
        <time>2022-07-14T11:28:59Z</time>
      </trkpt>
      <trkpt lat="42.92983" lon="-8.148423">
        <time>2022-07-14T11:29:23Z</time>
      </trkpt>
      <trkpt lat="42.92985" lon="-8.148454">
        <time>2022-07-14T11:29:48Z</time>
      </trkpt>
      <trkpt lat="42.929882" lon="-8.14847">
        <time>2022-07-14T11:30:00Z</time>
      </trkpt>
      <trkpt lat="42.929886" lon="-8.148553">
        <time>2022-07-14T11:30:09Z</time>
      </trkpt>
      <trkpt lat="42.929867" lon="-8.148632">
        <time>2022-07-14T11:30:15Z</time>
      </trkpt>
      <trkpt lat="42.92986" lon="-8.1487055">
        <time>2022-07-14T11:30:20Z</time>
      </trkpt>
      <trkpt lat="42.929817" lon="-8.148749">
        <time>2022-07-14T11:30:24Z</time>
      </trkpt>
      <trkpt lat="42.929764" lon="-8.148784">
        <time>2022-07-14T11:30:28Z</time>
      </trkpt>
      <trkpt lat="42.92972" lon="-8.148763">
        <time>2022-07-14T11:30:32Z</time>
      </trkpt>
      <trkpt lat="42.929703" lon="-8.148687">
        <time>2022-07-14T11:30:37Z</time>
      </trkpt>
      <trkpt lat="42.929695" lon="-8.148626">
        <time>2022-07-14T11:30:41Z</time>
      </trkpt>
      <trkpt lat="42.92973" lon="-8.148568">
        <time>2022-07-14T11:30:49Z</time>
      </trkpt>
      <trkpt lat="42.929764" lon="-8.148524">
        <time>2022-07-14T11:30:56Z</time>
      </trkpt>
      <trkpt lat="42.929768" lon="-8.148491">
        <time>2022-07-14T11:32:36Z</time>
      </trkpt>
      <trkpt lat="42.92961" lon="-8.148461">
        <time>2022-07-14T11:40:01Z</time>
      </trkpt>
      <trkpt lat="42.930027" lon="-8.149517">
        <time>2022-07-15T04:55:02Z</time>
      </trkpt>
      <trkpt lat="42.930027" lon="-8.149542">
        <time>2022-07-15T04:55:03Z</time>
      </trkpt>
      <trkpt lat="42.930027" lon="-8.149546">
        <time>2022-07-15T04:55:04Z</time>
      </trkpt>
      <trkpt lat="42.930027" lon="-8.149553">
        <time>2022-07-15T04:55:05Z</time>
      </trkpt>
      <trkpt lat="42.930027" lon="-8.149565">
        <time>2022-07-15T04:55:06Z</time>
      </trkpt>
      <trkpt lat="42.930027" lon="-8.149579">
        <time>2022-07-15T04:55:07Z</time>
      </trkpt>
      <trkpt lat="42.930027" lon="-8.149597">
        <time>2022-07-15T04:55:08Z</time>
      </trkpt>
      <trkpt lat="42.930023" lon="-8.149615">
        <time>2022-07-15T04:55:09Z</time>
      </trkpt>
      <trkpt lat="42.930027" lon="-8.149636">
        <time>2022-07-15T04:55:10Z</time>
      </trkpt>
      <trkpt lat="42.930027" lon="-8.149657">
        <time>2022-07-15T04:55:11Z</time>
      </trkpt>
      <trkpt lat="42.930027" lon="-8.149678">
        <time>2022-07-15T04:55:12Z</time>
      </trkpt>
      <trkpt lat="42.93003" lon="-8.149766">
        <time>2022-07-15T04:55:16Z</time>
      </trkpt>
      <trkpt lat="42.93004" lon="-8.149838">
        <time>2022-07-15T04:55:20Z</time>
      </trkpt>
      <trkpt lat="42.930046" lon="-8.149907">
        <time>2022-07-15T04:55:23Z</time>
      </trkpt>
      <trkpt lat="42.93005" lon="-8.149986">
        <time>2022-07-15T04:55:29Z</time>
      </trkpt>
      <trkpt lat="42.930054" lon="-8.150063">
        <time>2022-07-15T04:55:34Z</time>
      </trkpt>
      <trkpt lat="42.930058" lon="-8.150133">
        <time>2022-07-15T04:55:38Z</time>
      </trkpt>
      <trkpt lat="42.930058" lon="-8.150218">
        <time>2022-07-15T04:55:42Z</time>
      </trkpt>
      <trkpt lat="42.93006" lon="-8.1502905">
        <time>2022-07-15T04:55:45Z</time>
      </trkpt>
      <trkpt lat="42.93006" lon="-8.150373">
        <time>2022-07-15T04:55:49Z</time>
      </trkpt>
      <trkpt lat="42.93006" lon="-8.15044">
        <time>2022-07-15T04:55:53Z</time>
      </trkpt>
      <trkpt lat="42.93006" lon="-8.1505165">
        <time>2022-07-15T04:55:58Z</time>
      </trkpt>
      <trkpt lat="42.93006" lon="-8.150597">
        <time>2022-07-15T04:56:02Z</time>
      </trkpt>
      <trkpt lat="42.930058" lon="-8.150666">
        <time>2022-07-15T04:56:05Z</time>
      </trkpt>
      <trkpt lat="42.930054" lon="-8.150742">
        <time>2022-07-15T04:56:09Z</time>
      </trkpt>
      <trkpt lat="42.93005" lon="-8.1508045">
        <time>2022-07-15T04:56:13Z</time>
      </trkpt>
      <trkpt lat="42.930058" lon="-8.150935">
        <time>2022-07-15T04:56:18Z</time>
      </trkpt>
      <trkpt lat="42.930058" lon="-8.150939">
        <time>2022-07-15T04:56:19Z</time>
      </trkpt>
      <trkpt lat="42.930065" lon="-8.151022">
        <time>2022-07-15T04:56:26Z</time>
      </trkpt>
      <trkpt lat="42.930065" lon="-8.1511135">
        <time>2022-07-15T04:56:31Z</time>
      </trkpt>
      <trkpt lat="42.930065" lon="-8.151183">
        <time>2022-07-15T04:56:35Z</time>
      </trkpt>
      <trkpt lat="42.930058" lon="-8.151258">
        <time>2022-07-15T04:56:40Z</time>
      </trkpt>
      <trkpt lat="42.930054" lon="-8.151335">
        <time>2022-07-15T04:56:44Z</time>
      </trkpt>
      <trkpt lat="42.930046" lon="-8.151411">
        <time>2022-07-15T04:56:48Z</time>
      </trkpt>
      <trkpt lat="42.93005" lon="-8.151483">
        <time>2022-07-15T04:56:52Z</time>
      </trkpt>
      <trkpt lat="42.93005" lon="-8.151565">
        <time>2022-07-15T04:56:57Z</time>
      </trkpt>
      <trkpt lat="42.930046" lon="-8.151638">
        <time>2022-07-15T04:57:01Z</time>
      </trkpt>
      <trkpt lat="42.930042" lon="-8.151717">
        <time>2022-07-15T04:57:06Z</time>
      </trkpt>
      <trkpt lat="42.93004" lon="-8.151792">
        <time>2022-07-15T04:57:10Z</time>
      </trkpt>
      <trkpt lat="42.930035" lon="-8.151875">
        <time>2022-07-15T04:57:15Z</time>
      </trkpt>
      <trkpt lat="42.930027" lon="-8.151948">
        <time>2022-07-15T04:57:20Z</time>
      </trkpt>
      <trkpt lat="42.93002" lon="-8.152023">
        <time>2022-07-15T04:57:25Z</time>
      </trkpt>
      <trkpt lat="42.930008" lon="-8.152094">
        <time>2022-07-15T04:57:30Z</time>
      </trkpt>
      <trkpt lat="42.93" lon="-8.152183">
        <time>2022-07-15T04:57:35Z</time>
      </trkpt>
      <trkpt lat="42.92999" lon="-8.152257">
        <time>2022-07-15T04:57:40Z</time>
      </trkpt>
      <trkpt lat="42.92999" lon="-8.152326">
        <time>2022-07-15T04:57:44Z</time>
      </trkpt>
      <trkpt lat="42.92998" lon="-8.1524">
        <time>2022-07-15T04:57:48Z</time>
      </trkpt>
      <trkpt lat="42.929974" lon="-8.152471">
        <time>2022-07-15T04:57:53Z</time>
      </trkpt>
      <trkpt lat="42.929962" lon="-8.152547">
        <time>2022-07-15T04:57:58Z</time>
      </trkpt>
      <trkpt lat="42.92995" lon="-8.152624">
        <time>2022-07-15T04:58:03Z</time>
      </trkpt>
      <trkpt lat="42.92994" lon="-8.152699">
        <time>2022-07-15T04:58:07Z</time>
      </trkpt>
      <trkpt lat="42.92993" lon="-8.152769">
        <time>2022-07-15T04:58:11Z</time>
      </trkpt>
      <trkpt lat="42.92992" lon="-8.152855">
        <time>2022-07-15T04:58:16Z</time>
      </trkpt>
      <trkpt lat="42.929905" lon="-8.152915">
        <time>2022-07-15T04:58:19Z</time>
      </trkpt>
      <trkpt lat="42.929882" lon="-8.152985">
        <time>2022-07-15T04:58:24Z</time>
      </trkpt>
      <trkpt lat="42.929867" lon="-8.1530485">
        <time>2022-07-15T04:58:28Z</time>
      </trkpt>
      <trkpt lat="42.929848" lon="-8.153128">
        <time>2022-07-15T04:58:33Z</time>
      </trkpt>
      <trkpt lat="42.92984" lon="-8.15321">
        <time>2022-07-15T04:58:38Z</time>
      </trkpt>
      <trkpt lat="42.92983" lon="-8.153287">
        <time>2022-07-15T04:58:42Z</time>
      </trkpt>
      <trkpt lat="42.929813" lon="-8.153348">
        <time>2022-07-15T04:58:46Z</time>
      </trkpt>
      <trkpt lat="42.9298" lon="-8.153414">
        <time>2022-07-15T04:58:50Z</time>
      </trkpt>
      <trkpt lat="42.92977" lon="-8.153488">
        <time>2022-07-15T04:58:54Z</time>
      </trkpt>
      <trkpt lat="42.929752" lon="-8.153547">
        <time>2022-07-15T04:58:58Z</time>
      </trkpt>
      <trkpt lat="42.929733" lon="-8.153625">
        <time>2022-07-15T04:59:02Z</time>
      </trkpt>
      <trkpt lat="42.929714" lon="-8.153692">
        <time>2022-07-15T04:59:06Z</time>
      </trkpt>
      <trkpt lat="42.92969" lon="-8.153756">
        <time>2022-07-15T04:59:10Z</time>
      </trkpt>
      <trkpt lat="42.929665" lon="-8.153831">
        <time>2022-07-15T04:59:15Z</time>
      </trkpt>
      <trkpt lat="42.929634" lon="-8.153884">
        <time>2022-07-15T04:59:19Z</time>
      </trkpt>
      <trkpt lat="42.9296" lon="-8.153943">
        <time>2022-07-15T04:59:24Z</time>
      </trkpt>
      <trkpt lat="42.929565" lon="-8.154016">
        <time>2022-07-15T04:59:29Z</time>
      </trkpt>
      <trkpt lat="42.929543" lon="-8.15409">
        <time>2022-07-15T04:59:34Z</time>
      </trkpt>
      <trkpt lat="42.92952" lon="-8.154159">
        <time>2022-07-15T04:59:38Z</time>
      </trkpt>
      <trkpt lat="42.929497" lon="-8.154213">
        <time>2022-07-15T04:59:42Z</time>
      </trkpt>
      <trkpt lat="42.929474" lon="-8.154285">
        <time>2022-07-15T04:59:47Z</time>
      </trkpt>
      <trkpt lat="42.929443" lon="-8.154359">
        <time>2022-07-15T04:59:52Z</time>
      </trkpt>
      <trkpt lat="42.929424" lon="-8.154444">
        <time>2022-07-15T04:59:57Z</time>
      </trkpt>
      <trkpt lat="42.9294" lon="-8.154517">
        <time>2022-07-15T05:00:02Z</time>
      </trkpt>
      <trkpt lat="42.92937" lon="-8.154595">
        <time>2022-07-15T05:00:07Z</time>
      </trkpt>
      <trkpt lat="42.929344" lon="-8.154665">
        <time>2022-07-15T05:00:12Z</time>
      </trkpt>
      <trkpt lat="42.929325" lon="-8.154728">
        <time>2022-07-15T05:00:16Z</time>
      </trkpt>
      <trkpt lat="42.9293" lon="-8.154791">
        <time>2022-07-15T05:00:20Z</time>
      </trkpt>
      <trkpt lat="42.92927" lon="-8.154866">
        <time>2022-07-15T05:00:25Z</time>
      </trkpt>
      <trkpt lat="42.929253" lon="-8.154927">
        <time>2022-07-15T05:00:29Z</time>
      </trkpt>
      <trkpt lat="42.929226" lon="-8.154997">
        <time>2022-07-15T05:00:34Z</time>
      </trkpt>
      <trkpt lat="42.9292" lon="-8.155061">
        <time>2022-07-15T05:00:38Z</time>
      </trkpt>
      <trkpt lat="42.929173" lon="-8.155109">
        <time>2022-07-15T05:00:42Z</time>
      </trkpt>
      <trkpt lat="42.929123" lon="-8.155189">
        <time>2022-07-15T05:00:47Z</time>
      </trkpt>
      <trkpt lat="42.929104" lon="-8.155249">
        <time>2022-07-15T05:00:50Z</time>
      </trkpt>
      <trkpt lat="42.929085" lon="-8.155309">
        <time>2022-07-15T05:00:54Z</time>
      </trkpt>
      <trkpt lat="42.929054" lon="-8.155392">
        <time>2022-07-15T05:00:59Z</time>
      </trkpt>
      <trkpt lat="42.92903" lon="-8.155451">
        <time>2022-07-15T05:01:03Z</time>
      </trkpt>
      <trkpt lat="42.92901" lon="-8.155519">
        <time>2022-07-15T05:01:08Z</time>
      </trkpt>
      <trkpt lat="42.92898" lon="-8.155585">
        <time>2022-07-15T05:01:12Z</time>
      </trkpt>
      <trkpt lat="42.928955" lon="-8.155657">
        <time>2022-07-15T05:01:16Z</time>
      </trkpt>
      <trkpt lat="42.928936" lon="-8.155724">
        <time>2022-07-15T05:01:20Z</time>
      </trkpt>
      <trkpt lat="42.928917" lon="-8.155788">
        <time>2022-07-15T05:01:24Z</time>
      </trkpt>
      <trkpt lat="42.928894" lon="-8.155859">
        <time>2022-07-15T05:01:29Z</time>
      </trkpt>
      <trkpt lat="42.92887" lon="-8.155921">
        <time>2022-07-15T05:01:33Z</time>
      </trkpt>
      <trkpt lat="42.928875" lon="-8.155994">
        <time>2022-07-15T05:01:36Z</time>
      </trkpt>
      <trkpt lat="42.92889" lon="-8.15606">
        <time>2022-07-15T05:01:40Z</time>
      </trkpt>
      <trkpt lat="42.92886" lon="-8.156139">
        <time>2022-07-15T05:01:45Z</time>
      </trkpt>
      <trkpt lat="42.928825" lon="-8.156207">
        <time>2022-07-15T05:01:49Z</time>
      </trkpt>
      <trkpt lat="42.928795" lon="-8.15627">
        <time>2022-07-15T05:01:53Z</time>
      </trkpt>
      <trkpt lat="42.92877" lon="-8.156325">
        <time>2022-07-15T05:01:57Z</time>
      </trkpt>
      <trkpt lat="42.92873" lon="-8.156386">
        <time>2022-07-15T05:02:01Z</time>
      </trkpt>
      <trkpt lat="42.92869" lon="-8.156441">
        <time>2022-07-15T05:02:05Z</time>
      </trkpt>
      <trkpt lat="42.928665" lon="-8.156514">
        <time>2022-07-15T05:02:09Z</time>
      </trkpt>
      <trkpt lat="42.928635" lon="-8.156585">
        <time>2022-07-15T05:02:13Z</time>
      </trkpt>
      <trkpt lat="42.928616" lon="-8.156645">
        <time>2022-07-15T05:02:19Z</time>
      </trkpt>
      <trkpt lat="42.928596" lon="-8.15672">
        <time>2022-07-15T05:02:25Z</time>
      </trkpt>
      <trkpt lat="42.928574" lon="-8.1568">
        <time>2022-07-15T05:02:30Z</time>
      </trkpt>
      <trkpt lat="42.928535" lon="-8.156869">
        <time>2022-07-15T05:02:34Z</time>
      </trkpt>
      <trkpt lat="42.9285" lon="-8.156941">
        <time>2022-07-15T05:02:39Z</time>
      </trkpt>
      <trkpt lat="42.92847" lon="-8.157006">
        <time>2022-07-15T05:02:43Z</time>
      </trkpt>
      <trkpt lat="42.92843" lon="-8.157064">
        <time>2022-07-15T05:02:47Z</time>
      </trkpt>
      <trkpt lat="42.9284" lon="-8.15712">
        <time>2022-07-15T05:02:51Z</time>
      </trkpt>
      <trkpt lat="42.92838" lon="-8.15719">
        <time>2022-07-15T05:02:55Z</time>
      </trkpt>
      <trkpt lat="42.928352" lon="-8.157272">
        <time>2022-07-15T05:02:59Z</time>
      </trkpt>
      <trkpt lat="42.928318" lon="-8.157325">
        <time>2022-07-15T05:03:02Z</time>
      </trkpt>
      <trkpt lat="42.928303" lon="-8.15739">
        <time>2022-07-15T05:03:06Z</time>
      </trkpt>
      <trkpt lat="42.92829" lon="-8.157465">
        <time>2022-07-15T05:03:11Z</time>
      </trkpt>
      <trkpt lat="42.928265" lon="-8.157537">
        <time>2022-07-15T05:03:15Z</time>
      </trkpt>
      <trkpt lat="42.928238" lon="-8.157604">
        <time>2022-07-15T05:03:19Z</time>
      </trkpt>
      <trkpt lat="42.928207" lon="-8.157697">
        <time>2022-07-15T05:03:26Z</time>
      </trkpt>
      <trkpt lat="42.928177" lon="-8.157766">
        <time>2022-07-15T05:03:30Z</time>
      </trkpt>
      <trkpt lat="42.928146" lon="-8.157834">
        <time>2022-07-15T05:03:35Z</time>
      </trkpt>
      <trkpt lat="42.928127" lon="-8.157899">
        <time>2022-07-15T05:03:40Z</time>
      </trkpt>
      <trkpt lat="42.9281" lon="-8.157977">
        <time>2022-07-15T05:03:45Z</time>
      </trkpt>
      <trkpt lat="42.92807" lon="-8.158043">
        <time>2022-07-15T05:03:50Z</time>
      </trkpt>
      <trkpt lat="42.92805" lon="-8.158114">
        <time>2022-07-15T05:03:55Z</time>
      </trkpt>
      <trkpt lat="42.928017" lon="-8.158181">
        <time>2022-07-15T05:03:59Z</time>
      </trkpt>
      <trkpt lat="42.927994" lon="-8.15824">
        <time>2022-07-15T05:04:03Z</time>
      </trkpt>
      <trkpt lat="42.928" lon="-8.158313">
        <time>2022-07-15T05:04:08Z</time>
      </trkpt>
      <trkpt lat="42.928013" lon="-8.158389">
        <time>2022-07-15T05:04:13Z</time>
      </trkpt>
      <trkpt lat="42.92801" lon="-8.158457">
        <time>2022-07-15T05:04:17Z</time>
      </trkpt>
      <trkpt lat="42.927998" lon="-8.158529">
        <time>2022-07-15T05:04:22Z</time>
      </trkpt>
      <trkpt lat="42.92797" lon="-8.158587">
        <time>2022-07-15T05:04:26Z</time>
      </trkpt>
      <trkpt lat="42.92795" lon="-8.158674">
        <time>2022-07-15T05:04:33Z</time>
      </trkpt>
      <trkpt lat="42.927944" lon="-8.158746">
        <time>2022-07-15T05:04:38Z</time>
      </trkpt>
      <trkpt lat="42.927944" lon="-8.158811">
        <time>2022-07-15T05:04:43Z</time>
      </trkpt>
      <trkpt lat="42.927917" lon="-8.158884">
        <time>2022-07-15T05:04:48Z</time>
      </trkpt>
      <trkpt lat="42.927887" lon="-8.158967">
        <time>2022-07-15T05:04:53Z</time>
      </trkpt>
      <trkpt lat="42.927883" lon="-8.159024">
        <time>2022-07-15T05:04:57Z</time>
      </trkpt>
      <trkpt lat="42.927917" lon="-8.159085">
        <time>2022-07-15T05:05:02Z</time>
      </trkpt>
      <trkpt lat="42.927933" lon="-8.159153">
        <time>2022-07-15T05:05:06Z</time>
      </trkpt>
      <trkpt lat="42.927906" lon="-8.159224">
        <time>2022-07-15T05:05:10Z</time>
      </trkpt>
      <trkpt lat="42.927876" lon="-8.159279">
        <time>2022-07-15T05:05:14Z</time>
      </trkpt>
      <trkpt lat="42.92784" lon="-8.159343">
        <time>2022-07-15T05:05:19Z</time>
      </trkpt>
      <trkpt lat="42.927807" lon="-8.159408">
        <time>2022-07-15T05:05:23Z</time>
      </trkpt>
      <trkpt lat="42.927773" lon="-8.159482">
        <time>2022-07-15T05:05:27Z</time>
      </trkpt>
      <trkpt lat="42.92774" lon="-8.159534">
        <time>2022-07-15T05:05:30Z</time>
      </trkpt>
      <trkpt lat="42.92769" lon="-8.159586">
        <time>2022-07-15T05:05:33Z</time>
      </trkpt>
      <trkpt lat="42.92766" lon="-8.159636">
        <time>2022-07-15T05:05:36Z</time>
      </trkpt>
      <trkpt lat="42.927624" lon="-8.159692">
        <time>2022-07-15T05:05:42Z</time>
      </trkpt>
      <trkpt lat="42.927597" lon="-8.159768">
        <time>2022-07-15T05:05:46Z</time>
      </trkpt>
      <trkpt lat="42.92757" lon="-8.159836">
        <time>2022-07-15T05:05:50Z</time>
      </trkpt>
      <trkpt lat="42.927555" lon="-8.159914">
        <time>2022-07-15T05:05:55Z</time>
      </trkpt>
      <trkpt lat="42.92754" lon="-8.159991">
        <time>2022-07-15T05:05:59Z</time>
      </trkpt>
      <trkpt lat="42.927505" lon="-8.160058">
        <time>2022-07-15T05:06:03Z</time>
      </trkpt>
      <trkpt lat="42.92746" lon="-8.16013">
        <time>2022-07-15T05:06:07Z</time>
      </trkpt>
      <trkpt lat="42.927418" lon="-8.160186">
        <time>2022-07-15T05:06:10Z</time>
      </trkpt>
      <trkpt lat="42.92738" lon="-8.1602335">
        <time>2022-07-15T05:06:13Z</time>
      </trkpt>
      <trkpt lat="42.927353" lon="-8.160283">
        <time>2022-07-15T05:06:16Z</time>
      </trkpt>
      <trkpt lat="42.927296" lon="-8.160332">
        <time>2022-07-15T05:06:20Z</time>
      </trkpt>
      <trkpt lat="42.927254" lon="-8.160362">
        <time>2022-07-15T05:06:22Z</time>
      </trkpt>
      <trkpt lat="42.92721" lon="-8.160419">
        <time>2022-07-15T05:06:25Z</time>
      </trkpt>
      <trkpt lat="42.92718" lon="-8.16047">
        <time>2022-07-15T05:06:28Z</time>
      </trkpt>
      <trkpt lat="42.92714" lon="-8.160537">
        <time>2022-07-15T05:06:32Z</time>
      </trkpt>
      <trkpt lat="42.927097" lon="-8.160585">
        <time>2022-07-15T05:06:35Z</time>
      </trkpt>
      <trkpt lat="42.927063" lon="-8.160629">
        <time>2022-07-15T05:06:38Z</time>
      </trkpt>
      <trkpt lat="42.927025" lon="-8.160682">
        <time>2022-07-15T05:06:42Z</time>
      </trkpt>
      <trkpt lat="42.926987" lon="-8.16073">
        <time>2022-07-15T05:06:46Z</time>
      </trkpt>
      <trkpt lat="42.926952" lon="-8.160798">
        <time>2022-07-15T05:06:51Z</time>
      </trkpt>
      <trkpt lat="42.926926" lon="-8.160865">
        <time>2022-07-15T05:06:55Z</time>
      </trkpt>
      <trkpt lat="42.926895" lon="-8.160926">
        <time>2022-07-15T05:06:59Z</time>
      </trkpt>
      <trkpt lat="42.926857" lon="-8.160986">
        <time>2022-07-15T05:07:04Z</time>
      </trkpt>
      <trkpt lat="42.926823" lon="-8.161044">
        <time>2022-07-15T05:07:08Z</time>
      </trkpt>
      <trkpt lat="42.926785" lon="-8.161094">
        <time>2022-07-15T05:07:13Z</time>
      </trkpt>
      <trkpt lat="42.926758" lon="-8.1611595">
        <time>2022-07-15T05:07:18Z</time>
      </trkpt>
      <trkpt lat="42.92675" lon="-8.161238">
        <time>2022-07-15T05:07:23Z</time>
      </trkpt>
      <trkpt lat="42.926735" lon="-8.161315">
        <time>2022-07-15T05:07:28Z</time>
      </trkpt>
      <trkpt lat="42.926716" lon="-8.1613865">
        <time>2022-07-15T05:07:33Z</time>
      </trkpt>
      <trkpt lat="42.926697" lon="-8.161461">
        <time>2022-07-15T05:07:38Z</time>
      </trkpt>
      <trkpt lat="42.926674" lon="-8.161534">
        <time>2022-07-15T05:07:43Z</time>
      </trkpt>
      <trkpt lat="42.926647" lon="-8.161604">
        <time>2022-07-15T05:07:48Z</time>
      </trkpt>
      <trkpt lat="42.92662" lon="-8.161658">
        <time>2022-07-15T05:07:52Z</time>
      </trkpt>
      <trkpt lat="42.926605" lon="-8.161733">
        <time>2022-07-15T05:07:57Z</time>
      </trkpt>
      <trkpt lat="42.926594" lon="-8.161802">
        <time>2022-07-15T05:08:01Z</time>
      </trkpt>
      <trkpt lat="42.92657" lon="-8.161868">
        <time>2022-07-15T05:08:05Z</time>
      </trkpt>
      <trkpt lat="42.926544" lon="-8.161933">
        <time>2022-07-15T05:08:09Z</time>
      </trkpt>
      <trkpt lat="42.926517" lon="-8.162">
        <time>2022-07-15T05:08:13Z</time>
      </trkpt>
      <trkpt lat="42.926487" lon="-8.162065">
        <time>2022-07-15T05:08:18Z</time>
      </trkpt>
      <trkpt lat="42.926453" lon="-8.162125">
        <time>2022-07-15T05:08:22Z</time>
      </trkpt>
      <trkpt lat="42.926414" lon="-8.162188">
        <time>2022-07-15T05:08:27Z</time>
      </trkpt>
      <trkpt lat="42.92639" lon="-8.162256">
        <time>2022-07-15T05:08:31Z</time>
      </trkpt>
      <trkpt lat="42.92638" lon="-8.162316">
        <time>2022-07-15T05:08:35Z</time>
      </trkpt>
      <trkpt lat="42.926365" lon="-8.162397">
        <time>2022-07-15T05:08:40Z</time>
      </trkpt>
      <trkpt lat="42.926342" lon="-8.162465">
        <time>2022-07-15T05:08:44Z</time>
      </trkpt>
      <trkpt lat="42.926327" lon="-8.162542">
        <time>2022-07-15T05:08:49Z</time>
      </trkpt>
      <trkpt lat="42.926323" lon="-8.16261">
        <time>2022-07-15T05:08:53Z</time>
      </trkpt>
      <trkpt lat="42.926304" lon="-8.162682">
        <time>2022-07-15T05:08:58Z</time>
      </trkpt>
      <trkpt lat="42.926292" lon="-8.162753">
        <time>2022-07-15T05:09:02Z</time>
      </trkpt>
      <trkpt lat="42.92627" lon="-8.162835">
        <time>2022-07-15T05:09:06Z</time>
      </trkpt>
      <trkpt lat="42.926258" lon="-8.162912">
        <time>2022-07-15T05:09:12Z</time>
      </trkpt>
      <trkpt lat="42.92625" lon="-8.162987">
        <time>2022-07-15T05:09:17Z</time>
      </trkpt>
      <trkpt lat="42.926243" lon="-8.163059">
        <time>2022-07-15T05:09:22Z</time>
      </trkpt>
      <trkpt lat="42.92622" lon="-8.163131">
        <time>2022-07-15T05:09:26Z</time>
      </trkpt>
      <trkpt lat="42.92621" lon="-8.163197">
        <time>2022-07-15T05:09:30Z</time>
      </trkpt>
      <trkpt lat="42.92621" lon="-8.163277">
        <time>2022-07-15T05:09:35Z</time>
      </trkpt>
      <trkpt lat="42.926224" lon="-8.16335">
        <time>2022-07-15T05:09:40Z</time>
      </trkpt>
      <trkpt lat="42.926224" lon="-8.163421">
        <time>2022-07-15T05:09:44Z</time>
      </trkpt>
      <trkpt lat="42.926224" lon="-8.163489">
        <time>2022-07-15T05:09:48Z</time>
      </trkpt>
      <trkpt lat="42.926228" lon="-8.163578">
        <time>2022-07-15T05:09:53Z</time>
      </trkpt>
      <trkpt lat="42.92624" lon="-8.163655">
        <time>2022-07-15T05:09:57Z</time>
      </trkpt>
      <trkpt lat="42.926216" lon="-8.163731">
        <time>2022-07-15T05:10:02Z</time>
      </trkpt>
      <trkpt lat="42.92619" lon="-8.163792">
        <time>2022-07-15T05:10:06Z</time>
      </trkpt>
      <trkpt lat="42.9262" lon="-8.163865">
        <time>2022-07-15T05:10:11Z</time>
      </trkpt>
      <trkpt lat="42.92622" lon="-8.163941">
        <time>2022-07-15T05:10:16Z</time>
      </trkpt>
      <trkpt lat="42.92624" lon="-8.164005">
        <time>2022-07-15T05:10:20Z</time>
      </trkpt>
      <trkpt lat="42.92623" lon="-8.164094">
        <time>2022-07-15T05:10:25Z</time>
      </trkpt>
      <trkpt lat="42.92624" lon="-8.164168">
        <time>2022-07-15T05:10:29Z</time>
      </trkpt>
      <trkpt lat="42.92626" lon="-8.164244">
        <time>2022-07-15T05:10:33Z</time>
      </trkpt>
      <trkpt lat="42.92625" lon="-8.1643095">
        <time>2022-07-15T05:10:37Z</time>
      </trkpt>
      <trkpt lat="42.926224" lon="-8.164375">
        <time>2022-07-15T05:10:42Z</time>
      </trkpt>
      <trkpt lat="42.926216" lon="-8.164452">
        <time>2022-07-15T05:10:46Z</time>
      </trkpt>
      <trkpt lat="42.926224" lon="-8.16454">
        <time>2022-07-15T05:10:50Z</time>
      </trkpt>
      <trkpt lat="42.92623" lon="-8.164609">
        <time>2022-07-15T05:10:53Z</time>
      </trkpt>
      <trkpt lat="42.92624" lon="-8.16469">
        <time>2022-07-15T05:10:57Z</time>
      </trkpt>
      <trkpt lat="42.92627" lon="-8.164759">
        <time>2022-07-15T05:11:01Z</time>
      </trkpt>
      <trkpt lat="42.9263" lon="-8.164826">
        <time>2022-07-15T05:11:05Z</time>
      </trkpt>
      <trkpt lat="42.92632" lon="-8.164897">
        <time>2022-07-15T05:11:09Z</time>
      </trkpt>
      <trkpt lat="42.926342" lon="-8.164971">
        <time>2022-07-15T05:11:14Z</time>
      </trkpt>
      <trkpt lat="42.926357" lon="-8.165044">
        <time>2022-07-15T05:11:18Z</time>
      </trkpt>
      <trkpt lat="42.926353" lon="-8.165129">
        <time>2022-07-15T05:11:22Z</time>
      </trkpt>
      <trkpt lat="42.92635" lon="-8.165191">
        <time>2022-07-15T05:11:25Z</time>
      </trkpt>
      <trkpt lat="42.926342" lon="-8.165275">
        <time>2022-07-15T05:11:29Z</time>
      </trkpt>
      <trkpt lat="42.92634" lon="-8.165349">
        <time>2022-07-15T05:11:33Z</time>
      </trkpt>
      <trkpt lat="42.926334" lon="-8.165426">
        <time>2022-07-15T05:11:38Z</time>
      </trkpt>
      <trkpt lat="42.926346" lon="-8.165502">
        <time>2022-07-15T05:11:43Z</time>
      </trkpt>
      <trkpt lat="42.926365" lon="-8.165581">
        <time>2022-07-15T05:11:48Z</time>
      </trkpt>
      <trkpt lat="42.926384" lon="-8.16564">
        <time>2022-07-15T05:11:52Z</time>
      </trkpt>
      <trkpt lat="42.926395" lon="-8.165711">
        <time>2022-07-15T05:11:57Z</time>
      </trkpt>
      <trkpt lat="42.92642" lon="-8.165792">
        <time>2022-07-15T05:12:02Z</time>
      </trkpt>
      <trkpt lat="42.92645" lon="-8.165859">
        <time>2022-07-15T05:12:06Z</time>
      </trkpt>
      <trkpt lat="42.926483" lon="-8.165932">
        <time>2022-07-15T05:12:10Z</time>
      </trkpt>
      <trkpt lat="42.92652" lon="-8.165986">
        <time>2022-07-15T05:12:14Z</time>
      </trkpt>
      <trkpt lat="42.92656" lon="-8.166044">
        <time>2022-07-15T05:12:19Z</time>
      </trkpt>
      <trkpt lat="42.926575" lon="-8.166119">
        <time>2022-07-15T05:12:24Z</time>
      </trkpt>
      <trkpt lat="42.926605" lon="-8.166188">
        <time>2022-07-15T05:12:29Z</time>
      </trkpt>
      <trkpt lat="42.926632" lon="-8.16627">
        <time>2022-07-15T05:12:33Z</time>
      </trkpt>
      <trkpt lat="42.92665" lon="-8.1663475">
        <time>2022-07-15T05:12:37Z</time>
      </trkpt>
      <trkpt lat="42.926674" lon="-8.166423">
        <time>2022-07-15T05:12:42Z</time>
      </trkpt>
      <trkpt lat="42.926704" lon="-8.166499">
        <time>2022-07-15T05:12:47Z</time>
      </trkpt>
      <trkpt lat="42.926727" lon="-8.166577">
        <time>2022-07-15T05:12:51Z</time>
      </trkpt>
      <trkpt lat="42.926754" lon="-8.166643">
        <time>2022-07-15T05:12:55Z</time>
      </trkpt>
      <trkpt lat="42.926773" lon="-8.166714">
        <time>2022-07-15T05:13:00Z</time>
      </trkpt>
      <trkpt lat="42.92678" lon="-8.166784">
        <time>2022-07-15T05:13:05Z</time>
      </trkpt>
      <trkpt lat="42.92678" lon="-8.166872">
        <time>2022-07-15T05:13:10Z</time>
      </trkpt>
      <trkpt lat="42.926777" lon="-8.166965">
        <time>2022-07-15T05:13:15Z</time>
      </trkpt>
      <trkpt lat="42.92678" lon="-8.167047">
        <time>2022-07-15T05:13:20Z</time>
      </trkpt>
      <trkpt lat="42.92679" lon="-8.16711">
        <time>2022-07-15T05:13:24Z</time>
      </trkpt>
      <trkpt lat="42.926785" lon="-8.167199">
        <time>2022-07-15T05:13:29Z</time>
      </trkpt>
      <trkpt lat="42.92679" lon="-8.167276">
        <time>2022-07-15T05:13:33Z</time>
      </trkpt>
      <trkpt lat="42.926777" lon="-8.16736">
        <time>2022-07-15T05:13:37Z</time>
      </trkpt>
      <trkpt lat="42.926773" lon="-8.167443">
        <time>2022-07-15T05:13:41Z</time>
      </trkpt>
      <trkpt lat="42.92677" lon="-8.167512">
        <time>2022-07-15T05:13:45Z</time>
      </trkpt>
      <trkpt lat="42.92677" lon="-8.167603">
        <time>2022-07-15T05:13:50Z</time>
      </trkpt>
      <trkpt lat="42.92678" lon="-8.16767">
        <time>2022-07-15T05:13:54Z</time>
      </trkpt>
      <trkpt lat="42.92679" lon="-8.167741">
        <time>2022-07-15T05:13:59Z</time>
      </trkpt>
      <trkpt lat="42.9268" lon="-8.167822">
        <time>2022-07-15T05:14:05Z</time>
      </trkpt>
      <trkpt lat="42.926804" lon="-8.167901">
        <time>2022-07-15T05:14:10Z</time>
      </trkpt>
      <trkpt lat="42.926815" lon="-8.167989">
        <time>2022-07-15T05:14:15Z</time>
      </trkpt>
      <trkpt lat="42.926823" lon="-8.168065">
        <time>2022-07-15T05:14:19Z</time>
      </trkpt>
      <trkpt lat="42.92683" lon="-8.168147">
        <time>2022-07-15T05:14:23Z</time>
      </trkpt>
      <trkpt lat="42.926838" lon="-8.168218">
        <time>2022-07-15T05:14:27Z</time>
      </trkpt>
      <trkpt lat="42.926857" lon="-8.168291">
        <time>2022-07-15T05:14:32Z</time>
      </trkpt>
      <trkpt lat="42.926872" lon="-8.168359">
        <time>2022-07-15T05:14:36Z</time>
      </trkpt>
      <trkpt lat="42.926888" lon="-8.168432">
        <time>2022-07-15T05:14:40Z</time>
      </trkpt>
      <trkpt lat="42.926903" lon="-8.168513">
        <time>2022-07-15T05:14:44Z</time>
      </trkpt>
      <trkpt lat="42.926914" lon="-8.168588">
        <time>2022-07-15T05:14:48Z</time>
      </trkpt>
      <trkpt lat="42.926926" lon="-8.168645">
        <time>2022-07-15T05:14:52Z</time>
      </trkpt>
      <trkpt lat="42.92694" lon="-8.168725">
        <time>2022-07-15T05:14:58Z</time>
      </trkpt>
      <trkpt lat="42.926952" lon="-8.168807">
        <time>2022-07-15T05:15:03Z</time>
      </trkpt>
      <trkpt lat="42.92696" lon="-8.168881">
        <time>2022-07-15T05:15:07Z</time>
      </trkpt>
      <trkpt lat="42.926964" lon="-8.168955">
        <time>2022-07-15T05:15:11Z</time>
      </trkpt>
      <trkpt lat="42.92698" lon="-8.169027">
        <time>2022-07-15T05:15:15Z</time>
      </trkpt>
      <trkpt lat="42.926994" lon="-8.169093">
        <time>2022-07-15T05:15:19Z</time>
      </trkpt>
      <trkpt lat="42.927006" lon="-8.169171">
        <time>2022-07-15T05:15:24Z</time>
      </trkpt>
      <trkpt lat="42.92702" lon="-8.169249">
        <time>2022-07-15T05:15:29Z</time>
      </trkpt>
      <trkpt lat="42.927044" lon="-8.169314">
        <time>2022-07-15T05:15:33Z</time>
      </trkpt>
      <trkpt lat="42.927063" lon="-8.169379">
        <time>2022-07-15T05:15:37Z</time>
      </trkpt>
      <trkpt lat="42.92708" lon="-8.16945">
        <time>2022-07-15T05:15:42Z</time>
      </trkpt>
      <trkpt lat="42.9271" lon="-8.169522">
        <time>2022-07-15T05:15:47Z</time>
      </trkpt>
      <trkpt lat="42.92712" lon="-8.169593">
        <time>2022-07-15T05:15:51Z</time>
      </trkpt>
      <trkpt lat="42.927143" lon="-8.169668">
        <time>2022-07-15T05:15:55Z</time>
      </trkpt>
      <trkpt lat="42.927155" lon="-8.169748">
        <time>2022-07-15T05:15:59Z</time>
      </trkpt>
      <trkpt lat="42.927166" lon="-8.169824">
        <time>2022-07-15T05:16:03Z</time>
      </trkpt>
      <trkpt lat="42.92717" lon="-8.169894">
        <time>2022-07-15T05:16:08Z</time>
      </trkpt>
      <trkpt lat="42.92716" lon="-8.169973">
        <time>2022-07-15T05:16:13Z</time>
      </trkpt>
      <trkpt lat="42.92715" lon="-8.170061">
        <time>2022-07-15T05:16:18Z</time>
      </trkpt>
      <trkpt lat="42.92714" lon="-8.170132">
        <time>2022-07-15T05:16:22Z</time>
      </trkpt>
      <trkpt lat="42.927143" lon="-8.170211">
        <time>2022-07-15T05:16:27Z</time>
      </trkpt>
      <trkpt lat="42.92713" lon="-8.17029">
        <time>2022-07-15T05:16:32Z</time>
      </trkpt>
      <trkpt lat="42.927113" lon="-8.170382">
        <time>2022-07-15T05:16:37Z</time>
      </trkpt>
      <trkpt lat="42.927097" lon="-8.170447">
        <time>2022-07-15T05:16:40Z</time>
      </trkpt>
      <trkpt lat="42.927082" lon="-8.170528">
        <time>2022-07-15T05:16:44Z</time>
      </trkpt>
      <trkpt lat="42.927086" lon="-8.170607">
        <time>2022-07-15T05:16:49Z</time>
      </trkpt>
      <trkpt lat="42.92708" lon="-8.170703">
        <time>2022-07-15T05:16:54Z</time>
      </trkpt>
      <trkpt lat="42.927086" lon="-8.17078">
        <time>2022-07-15T05:16:58Z</time>
      </trkpt>
      <trkpt lat="42.927086" lon="-8.170848">
        <time>2022-07-15T05:17:01Z</time>
      </trkpt>
      <trkpt lat="42.927082" lon="-8.170931">
        <time>2022-07-15T05:17:05Z</time>
      </trkpt>
      <trkpt lat="42.927086" lon="-8.171005">
        <time>2022-07-15T05:17:09Z</time>
      </trkpt>
      <trkpt lat="42.927097" lon="-8.171079">
        <time>2022-07-15T05:17:14Z</time>
      </trkpt>
      <trkpt lat="42.927094" lon="-8.171162">
        <time>2022-07-15T05:17:19Z</time>
      </trkpt>
      <trkpt lat="42.927082" lon="-8.171228">
        <time>2022-07-15T05:17:23Z</time>
      </trkpt>
      <trkpt lat="42.92708" lon="-8.171307">
        <time>2022-07-15T05:17:28Z</time>
      </trkpt>
      <trkpt lat="42.927086" lon="-8.171386">
        <time>2022-07-15T05:17:33Z</time>
      </trkpt>
      <trkpt lat="42.927105" lon="-8.171463">
        <time>2022-07-15T05:17:38Z</time>
      </trkpt>
      <trkpt lat="42.9271" lon="-8.171533">
        <time>2022-07-15T05:17:42Z</time>
      </trkpt>
      <trkpt lat="42.9271" lon="-8.171603">
        <time>2022-07-15T05:17:47Z</time>
      </trkpt>
      <trkpt lat="42.927094" lon="-8.17168">
        <time>2022-07-15T05:17:52Z</time>
      </trkpt>
      <trkpt lat="42.927105" lon="-8.171754">
        <time>2022-07-15T05:17:56Z</time>
      </trkpt>
      <trkpt lat="42.927105" lon="-8.171831">
        <time>2022-07-15T05:18:01Z</time>
      </trkpt>
      <trkpt lat="42.927116" lon="-8.1719">
        <time>2022-07-15T05:18:06Z</time>
      </trkpt>
      <trkpt lat="42.927128" lon="-8.171963">
        <time>2022-07-15T05:18:12Z</time>
      </trkpt>
      <trkpt lat="42.92715" lon="-8.172032">
        <time>2022-07-15T05:18:17Z</time>
      </trkpt>
      <trkpt lat="42.92718" lon="-8.172088">
        <time>2022-07-15T05:18:24Z</time>
      </trkpt>
      <trkpt lat="42.92722" lon="-8.172144">
        <time>2022-07-15T05:18:29Z</time>
      </trkpt>
      <trkpt lat="42.92724" lon="-8.172204">
        <time>2022-07-15T05:18:35Z</time>
      </trkpt>
      <trkpt lat="42.92726" lon="-8.172284">
        <time>2022-07-15T05:18:41Z</time>
      </trkpt>
      <trkpt lat="42.92728" lon="-8.172351">
        <time>2022-07-15T05:18:45Z</time>
      </trkpt>
      <trkpt lat="42.9273" lon="-8.172422">
        <time>2022-07-15T05:18:49Z</time>
      </trkpt>
      <trkpt lat="42.92731" lon="-8.172492">
        <time>2022-07-15T05:18:53Z</time>
      </trkpt>
      <trkpt lat="42.927322" lon="-8.172554">
        <time>2022-07-15T05:18:57Z</time>
      </trkpt>
      <trkpt lat="42.92733" lon="-8.172627">
        <time>2022-07-15T05:19:02Z</time>
      </trkpt>
      <trkpt lat="42.927353" lon="-8.172699">
        <time>2022-07-15T05:19:07Z</time>
      </trkpt>
      <trkpt lat="42.92738" lon="-8.172759">
        <time>2022-07-15T05:19:12Z</time>
      </trkpt>
      <trkpt lat="42.92739" lon="-8.172831">
        <time>2022-07-15T05:19:17Z</time>
      </trkpt>
      <trkpt lat="42.927414" lon="-8.172913">
        <time>2022-07-15T05:19:22Z</time>
      </trkpt>
      <trkpt lat="42.92743" lon="-8.172981">
        <time>2022-07-15T05:19:26Z</time>
      </trkpt>
      <trkpt lat="42.927456" lon="-8.173046">
        <time>2022-07-15T05:19:30Z</time>
      </trkpt>
      <trkpt lat="42.927475" lon="-8.173121">
        <time>2022-07-15T05:19:34Z</time>
      </trkpt>
      <trkpt lat="42.92748" lon="-8.173184">
        <time>2022-07-15T05:19:37Z</time>
      </trkpt>
      <trkpt lat="42.927494" lon="-8.17326">
        <time>2022-07-15T05:19:42Z</time>
      </trkpt>
      <trkpt lat="42.92752" lon="-8.173307">
        <time>2022-07-15T05:19:46Z</time>
      </trkpt>
      <trkpt lat="42.927536" lon="-8.173382">
        <time>2022-07-15T05:19:51Z</time>
      </trkpt>
      <trkpt lat="42.927536" lon="-8.1734705">
        <time>2022-07-15T05:19:56Z</time>
      </trkpt>
      <trkpt lat="42.927517" lon="-8.173545">
        <time>2022-07-15T05:20:01Z</time>
      </trkpt>
      <trkpt lat="42.927486" lon="-8.173605">
        <time>2022-07-15T05:20:06Z</time>
      </trkpt>
      <trkpt lat="42.92744" lon="-8.173662">
        <time>2022-07-15T05:20:12Z</time>
      </trkpt>
      <trkpt lat="42.92739" lon="-8.17372">
        <time>2022-07-15T05:20:16Z</time>
      </trkpt>
      <trkpt lat="42.92735" lon="-8.173764">
        <time>2022-07-15T05:20:19Z</time>
      </trkpt>
      <trkpt lat="42.927307" lon="-8.173807">
        <time>2022-07-15T05:20:23Z</time>
      </trkpt>
      <trkpt lat="42.927277" lon="-8.173857">
        <time>2022-07-15T05:20:28Z</time>
      </trkpt>
      <trkpt lat="42.927242" lon="-8.173908">
        <time>2022-07-15T05:20:33Z</time>
      </trkpt>
      <trkpt lat="42.927197" lon="-8.173959">
        <time>2022-07-15T05:20:38Z</time>
      </trkpt>
      <trkpt lat="42.927147" lon="-8.174015">
        <time>2022-07-15T05:20:42Z</time>
      </trkpt>
      <trkpt lat="42.9271" lon="-8.174038">
        <time>2022-07-15T05:20:47Z</time>
      </trkpt>
      <trkpt lat="42.92704" lon="-8.174053">
        <time>2022-07-15T05:20:53Z</time>
      </trkpt>
      <trkpt lat="42.92699" lon="-8.174058">
        <time>2022-07-15T05:20:57Z</time>
      </trkpt>
      <trkpt lat="42.92694" lon="-8.174069">
        <time>2022-07-15T05:21:01Z</time>
      </trkpt>
      <trkpt lat="42.926884" lon="-8.174062">
        <time>2022-07-15T05:21:06Z</time>
      </trkpt>
      <trkpt lat="42.926834" lon="-8.17406">
        <time>2022-07-15T05:21:11Z</time>
      </trkpt>
      <trkpt lat="42.92677" lon="-8.174068">
        <time>2022-07-15T05:21:16Z</time>
      </trkpt>
      <trkpt lat="42.9267" lon="-8.174072">
        <time>2022-07-15T05:21:20Z</time>
      </trkpt>
      <trkpt lat="42.92665" lon="-8.1740885">
        <time>2022-07-15T05:21:23Z</time>
      </trkpt>
      <trkpt lat="42.9266" lon="-8.174119">
        <time>2022-07-15T05:21:27Z</time>
      </trkpt>
      <trkpt lat="42.92655" lon="-8.174154">
        <time>2022-07-15T05:21:31Z</time>
      </trkpt>
      <trkpt lat="42.926517" lon="-8.174193">
        <time>2022-07-15T05:21:36Z</time>
      </trkpt>
      <trkpt lat="42.926476" lon="-8.174253">
        <time>2022-07-15T05:21:41Z</time>
      </trkpt>
      <trkpt lat="42.926437" lon="-8.174299">
        <time>2022-07-15T05:21:45Z</time>
      </trkpt>
      <trkpt lat="42.9264" lon="-8.174366">
        <time>2022-07-15T05:21:50Z</time>
      </trkpt>
      <trkpt lat="42.92637" lon="-8.174418">
        <time>2022-07-15T05:21:53Z</time>
      </trkpt>
      <trkpt lat="42.92633" lon="-8.174491">
        <time>2022-07-15T05:21:57Z</time>
      </trkpt>
      <trkpt lat="42.926304" lon="-8.174545">
        <time>2022-07-15T05:22:01Z</time>
      </trkpt>
      <trkpt lat="42.92628" lon="-8.174615">
        <time>2022-07-15T05:22:06Z</time>
      </trkpt>
      <trkpt lat="42.926258" lon="-8.17469">
        <time>2022-07-15T05:22:11Z</time>
      </trkpt>
      <trkpt lat="42.926243" lon="-8.174771">
        <time>2022-07-15T05:22:16Z</time>
      </trkpt>
      <trkpt lat="42.926212" lon="-8.174841">
        <time>2022-07-15T05:22:20Z</time>
      </trkpt>
      <trkpt lat="42.92618" lon="-8.174902">
        <time>2022-07-15T05:22:25Z</time>
      </trkpt>
      <trkpt lat="42.92616" lon="-8.174973">
        <time>2022-07-15T05:22:29Z</time>
      </trkpt>
      <trkpt lat="42.926132" lon="-8.175033">
        <time>2022-07-15T05:22:32Z</time>
      </trkpt>
      <trkpt lat="42.926105" lon="-8.175097">
        <time>2022-07-15T05:22:36Z</time>
      </trkpt>
      <trkpt lat="42.926086" lon="-8.175153">
        <time>2022-07-15T05:22:41Z</time>
      </trkpt>
      <trkpt lat="42.926056" lon="-8.175219">
        <time>2022-07-15T05:22:46Z</time>
      </trkpt>
      <trkpt lat="42.926018" lon="-8.17528">
        <time>2022-07-15T05:22:51Z</time>
      </trkpt>
      <trkpt lat="42.925987" lon="-8.175343">
        <time>2022-07-15T05:22:56Z</time>
      </trkpt>
      <trkpt lat="42.92596" lon="-8.175418">
        <time>2022-07-15T05:23:00Z</time>
      </trkpt>
      <trkpt lat="42.925934" lon="-8.175485">
        <time>2022-07-15T05:23:04Z</time>
      </trkpt>
      <trkpt lat="42.9259" lon="-8.175548">
        <time>2022-07-15T05:23:07Z</time>
      </trkpt>
      <trkpt lat="42.925865" lon="-8.17561">
        <time>2022-07-15T05:23:10Z</time>
      </trkpt>
      <trkpt lat="42.92583" lon="-8.175675">
        <time>2022-07-15T05:23:14Z</time>
      </trkpt>
      <trkpt lat="42.925804" lon="-8.17573">
        <time>2022-07-15T05:23:18Z</time>
      </trkpt>
      <trkpt lat="42.92578" lon="-8.175807">
        <time>2022-07-15T05:23:23Z</time>
      </trkpt>
      <trkpt lat="42.92576" lon="-8.175884">
        <time>2022-07-15T05:23:27Z</time>
      </trkpt>
      <trkpt lat="42.92573" lon="-8.175951">
        <time>2022-07-15T05:23:31Z</time>
      </trkpt>
      <trkpt lat="42.92571" lon="-8.176022">
        <time>2022-07-15T05:23:36Z</time>
      </trkpt>
      <trkpt lat="42.925697" lon="-8.1761">
        <time>2022-07-15T05:23:41Z</time>
      </trkpt>
      <trkpt lat="42.925674" lon="-8.176184">
        <time>2022-07-15T05:23:46Z</time>
      </trkpt>
      <trkpt lat="42.92565" lon="-8.17625">
        <time>2022-07-15T05:23:50Z</time>
      </trkpt>
      <trkpt lat="42.925636" lon="-8.176313">
        <time>2022-07-15T05:23:54Z</time>
      </trkpt>
      <trkpt lat="42.925625" lon="-8.176385">
        <time>2022-07-15T05:23:59Z</time>
      </trkpt>
      <trkpt lat="42.925602" lon="-8.176475">
        <time>2022-07-15T05:24:04Z</time>
      </trkpt>
      <trkpt lat="42.925575" lon="-8.176546">
        <time>2022-07-15T05:24:08Z</time>
      </trkpt>
      <trkpt lat="42.925564" lon="-8.17661">
        <time>2022-07-15T05:24:13Z</time>
      </trkpt>
      <trkpt lat="42.925533" lon="-8.176697">
        <time>2022-07-15T05:24:19Z</time>
      </trkpt>
      <trkpt lat="42.925518" lon="-8.176762">
        <time>2022-07-15T05:24:23Z</time>
      </trkpt>
      <trkpt lat="42.92551" lon="-8.176838">
        <time>2022-07-15T05:24:28Z</time>
      </trkpt>
      <trkpt lat="42.925484" lon="-8.176916">
        <time>2022-07-15T05:24:33Z</time>
      </trkpt>
      <trkpt lat="42.92546" lon="-8.176989">
        <time>2022-07-15T05:24:37Z</time>
      </trkpt>
      <trkpt lat="42.925438" lon="-8.177056">
        <time>2022-07-15T05:24:41Z</time>
      </trkpt>
      <trkpt lat="42.92541" lon="-8.177122">
        <time>2022-07-15T05:24:45Z</time>
      </trkpt>
      <trkpt lat="42.92539" lon="-8.177192">
        <time>2022-07-15T05:24:49Z</time>
      </trkpt>
      <trkpt lat="42.92537" lon="-8.177259">
        <time>2022-07-15T05:24:53Z</time>
      </trkpt>
      <trkpt lat="42.925343" lon="-8.177339">
        <time>2022-07-15T05:24:57Z</time>
      </trkpt>
      <trkpt lat="42.925323" lon="-8.177404">
        <time>2022-07-15T05:25:00Z</time>
      </trkpt>
      <trkpt lat="42.925297" lon="-8.177475">
        <time>2022-07-15T05:25:04Z</time>
      </trkpt>
      <trkpt lat="42.92528" lon="-8.177538">
        <time>2022-07-15T05:25:08Z</time>
      </trkpt>
      <trkpt lat="42.92527" lon="-8.177621">
        <time>2022-07-15T05:25:13Z</time>
      </trkpt>
      <trkpt lat="42.92527" lon="-8.177719">
        <time>2022-07-15T05:25:18Z</time>
      </trkpt>
      <trkpt lat="42.925262" lon="-8.177798">
        <time>2022-07-15T05:25:22Z</time>
      </trkpt>
      <trkpt lat="42.92525" lon="-8.177867">
        <time>2022-07-15T05:25:26Z</time>
      </trkpt>
      <trkpt lat="42.92524" lon="-8.177941">
        <time>2022-07-15T05:25:31Z</time>
      </trkpt>
      <trkpt lat="42.925236" lon="-8.178024">
        <time>2022-07-15T05:25:36Z</time>
      </trkpt>
      <trkpt lat="42.925247" lon="-8.178107">
        <time>2022-07-15T05:25:40Z</time>
      </trkpt>
      <trkpt lat="42.925255" lon="-8.178183">
        <time>2022-07-15T05:25:44Z</time>
      </trkpt>
      <trkpt lat="42.925255" lon="-8.178256">
        <time>2022-07-15T05:25:48Z</time>
      </trkpt>
      <trkpt lat="42.925247" lon="-8.178328">
        <time>2022-07-15T05:25:52Z</time>
      </trkpt>
      <trkpt lat="42.925243" lon="-8.178408">
        <time>2022-07-15T05:25:57Z</time>
      </trkpt>
      <trkpt lat="42.925236" lon="-8.178482">
        <time>2022-07-15T05:26:02Z</time>
      </trkpt>
      <trkpt lat="42.925247" lon="-8.178584">
        <time>2022-07-15T05:26:07Z</time>
      </trkpt>
      <trkpt lat="42.92526" lon="-8.178655">
        <time>2022-07-15T05:26:10Z</time>
      </trkpt>
      <trkpt lat="42.925274" lon="-8.178733">
        <time>2022-07-15T05:26:14Z</time>
      </trkpt>
      <trkpt lat="42.925278" lon="-8.178811">
        <time>2022-07-15T05:26:18Z</time>
      </trkpt>
      <trkpt lat="42.925274" lon="-8.178882">
        <time>2022-07-15T05:26:22Z</time>
      </trkpt>
      <trkpt lat="42.92528" lon="-8.178961">
        <time>2022-07-15T05:26:27Z</time>
      </trkpt>
      <trkpt lat="42.925293" lon="-8.179025">
        <time>2022-07-15T05:26:31Z</time>
      </trkpt>
      <trkpt lat="42.925323" lon="-8.179098">
        <time>2022-07-15T05:26:35Z</time>
      </trkpt>
      <trkpt lat="42.925335" lon="-8.17916">
        <time>2022-07-15T05:26:38Z</time>
      </trkpt>
      <trkpt lat="42.92534" lon="-8.179238">
        <time>2022-07-15T05:26:42Z</time>
      </trkpt>
      <trkpt lat="42.92535" lon="-8.1793">
        <time>2022-07-15T05:26:46Z</time>
      </trkpt>
      <trkpt lat="42.925373" lon="-8.179376">
        <time>2022-07-15T05:26:52Z</time>
      </trkpt>
      <trkpt lat="42.92538" lon="-8.179443">
        <time>2022-07-15T05:26:56Z</time>
      </trkpt>
      <trkpt lat="42.925396" lon="-8.179513">
        <time>2022-07-15T05:27:00Z</time>
      </trkpt>
      <trkpt lat="42.92542" lon="-8.179579">
        <time>2022-07-15T05:27:04Z</time>
      </trkpt>
      <trkpt lat="42.92543" lon="-8.179656">
        <time>2022-07-15T05:27:08Z</time>
      </trkpt>
      <trkpt lat="42.92544" lon="-8.179735">
        <time>2022-07-15T05:27:12Z</time>
      </trkpt>
      <trkpt lat="42.925465" lon="-8.179798">
        <time>2022-07-15T05:27:16Z</time>
      </trkpt>
      <trkpt lat="42.925495" lon="-8.179866">
        <time>2022-07-15T05:27:20Z</time>
      </trkpt>
      <trkpt lat="42.925514" lon="-8.179932">
        <time>2022-07-15T05:27:24Z</time>
      </trkpt>
      <trkpt lat="42.925537" lon="-8.179997">
        <time>2022-07-15T05:27:28Z</time>
      </trkpt>
      <trkpt lat="42.925568" lon="-8.180064">
        <time>2022-07-15T05:27:32Z</time>
      </trkpt>
      <trkpt lat="42.925594" lon="-8.180133">
        <time>2022-07-15T05:27:36Z</time>
      </trkpt>
      <trkpt lat="42.925613" lon="-8.180207">
        <time>2022-07-15T05:27:41Z</time>
      </trkpt>
      <trkpt lat="42.92557" lon="-8.180271">
        <time>2022-07-15T05:27:47Z</time>
      </trkpt>
      <trkpt lat="42.92552" lon="-8.180318">
        <time>2022-07-15T05:27:53Z</time>
      </trkpt>
      <trkpt lat="42.925484" lon="-8.18036">
        <time>2022-07-15T05:27:59Z</time>
      </trkpt>
      <trkpt lat="42.925423" lon="-8.180371">
        <time>2022-07-15T05:28:04Z</time>
      </trkpt>
      <trkpt lat="42.925377" lon="-8.180385">
        <time>2022-07-15T05:28:08Z</time>
      </trkpt>
      <trkpt lat="42.925323" lon="-8.180391">
        <time>2022-07-15T05:28:12Z</time>
      </trkpt>
      <trkpt lat="42.925274" lon="-8.18039">
        <time>2022-07-15T05:28:17Z</time>
      </trkpt>
      <trkpt lat="42.92521" lon="-8.180389">
        <time>2022-07-15T05:28:22Z</time>
      </trkpt>
      <trkpt lat="42.925156" lon="-8.180386">
        <time>2022-07-15T05:28:26Z</time>
      </trkpt>
      <trkpt lat="42.92509" lon="-8.18039">
        <time>2022-07-15T05:28:30Z</time>
      </trkpt>
      <trkpt lat="42.925037" lon="-8.180407">
        <time>2022-07-15T05:28:34Z</time>
      </trkpt>
      <trkpt lat="42.92498" lon="-8.180445">
        <time>2022-07-15T05:28:39Z</time>
      </trkpt>
      <trkpt lat="42.924927" lon="-8.180503">
        <time>2022-07-15T05:28:44Z</time>
      </trkpt>
      <trkpt lat="42.924885" lon="-8.180556">
        <time>2022-07-15T05:28:48Z</time>
      </trkpt>
      <trkpt lat="42.92485" lon="-8.180602">
        <time>2022-07-15T05:28:51Z</time>
      </trkpt>
      <trkpt lat="42.924816" lon="-8.180661">
        <time>2022-07-15T05:28:55Z</time>
      </trkpt>
      <trkpt lat="42.924786" lon="-8.18072">
        <time>2022-07-15T05:28:59Z</time>
      </trkpt>
      <trkpt lat="42.924767" lon="-8.180797">
        <time>2022-07-15T05:29:04Z</time>
      </trkpt>
      <trkpt lat="42.924755" lon="-8.180868">
        <time>2022-07-15T05:29:08Z</time>
      </trkpt>
      <trkpt lat="42.924744" lon="-8.180943">
        <time>2022-07-15T05:29:12Z</time>
      </trkpt>
      <trkpt lat="42.924732" lon="-8.181011">
        <time>2022-07-15T05:29:16Z</time>
      </trkpt>
      <trkpt lat="42.92472" lon="-8.181097">
        <time>2022-07-15T05:29:21Z</time>
      </trkpt>
      <trkpt lat="42.92471" lon="-8.181192">
        <time>2022-07-15T05:29:25Z</time>
      </trkpt>
      <trkpt lat="42.924706" lon="-8.181267">
        <time>2022-07-15T05:29:29Z</time>
      </trkpt>
      <trkpt lat="42.924698" lon="-8.181346">
        <time>2022-07-15T05:29:34Z</time>
      </trkpt>
      <trkpt lat="42.924694" lon="-8.181419">
        <time>2022-07-15T05:29:38Z</time>
      </trkpt>
      <trkpt lat="42.924686" lon="-8.18149">
        <time>2022-07-15T05:29:42Z</time>
      </trkpt>
      <trkpt lat="42.92467" lon="-8.181564">
        <time>2022-07-15T05:29:47Z</time>
      </trkpt>
      <trkpt lat="42.924664" lon="-8.181654">
        <time>2022-07-15T05:29:52Z</time>
      </trkpt>
      <trkpt lat="42.924652" lon="-8.181734">
        <time>2022-07-15T05:29:57Z</time>
      </trkpt>
      <trkpt lat="42.924637" lon="-8.181815">
        <time>2022-07-15T05:30:02Z</time>
      </trkpt>
      <trkpt lat="42.924625" lon="-8.1818905">
        <time>2022-07-15T05:30:06Z</time>
      </trkpt>
      <trkpt lat="42.924606" lon="-8.181974">
        <time>2022-07-15T05:30:11Z</time>
      </trkpt>
      <trkpt lat="42.924587" lon="-8.182043">
        <time>2022-07-15T05:30:15Z</time>
      </trkpt>
      <trkpt lat="42.924576" lon="-8.182118">
        <time>2022-07-15T05:30:19Z</time>
      </trkpt>
      <trkpt lat="42.92457" lon="-8.182185">
        <time>2022-07-15T05:30:24Z</time>
      </trkpt>
      <trkpt lat="42.924553" lon="-8.18226">
        <time>2022-07-15T05:30:29Z</time>
      </trkpt>
      <trkpt lat="42.92454" lon="-8.182339">
        <time>2022-07-15T05:30:34Z</time>
      </trkpt>
      <trkpt lat="42.924538" lon="-8.182411">
        <time>2022-07-15T05:30:39Z</time>
      </trkpt>
      <trkpt lat="42.92453" lon="-8.1824875">
        <time>2022-07-15T05:30:44Z</time>
      </trkpt>
      <trkpt lat="42.92453" lon="-8.182561">
        <time>2022-07-15T05:30:50Z</time>
      </trkpt>
      <trkpt lat="42.92453" lon="-8.182631">
        <time>2022-07-15T05:30:55Z</time>
      </trkpt>
      <trkpt lat="42.924522" lon="-8.182702">
        <time>2022-07-15T05:30:59Z</time>
      </trkpt>
      <trkpt lat="42.924507" lon="-8.18277">
        <time>2022-07-15T05:31:03Z</time>
      </trkpt>
      <trkpt lat="42.92448" lon="-8.182844">
        <time>2022-07-15T05:31:08Z</time>
      </trkpt>
      <trkpt lat="42.924454" lon="-8.182915">
        <time>2022-07-15T05:31:14Z</time>
      </trkpt>
      <trkpt lat="42.924423" lon="-8.182969">
        <time>2022-07-15T05:31:19Z</time>
      </trkpt>
      <trkpt lat="42.924397" lon="-8.183032">
        <time>2022-07-15T05:31:25Z</time>
      </trkpt>
      <trkpt lat="42.92437" lon="-8.183108">
        <time>2022-07-15T05:31:31Z</time>
      </trkpt>
      <trkpt lat="42.924343" lon="-8.183166">
        <time>2022-07-15T05:31:36Z</time>
      </trkpt>
      <trkpt lat="42.924324" lon="-8.183232">
        <time>2022-07-15T05:31:42Z</time>
      </trkpt>
      <trkpt lat="42.924286" lon="-8.183305">
        <time>2022-07-15T05:31:46Z</time>
      </trkpt>
      <trkpt lat="42.92427" lon="-8.183375">
        <time>2022-07-15T05:31:52Z</time>
      </trkpt>
      <trkpt lat="42.92427" lon="-8.183444">
        <time>2022-07-15T05:31:57Z</time>
      </trkpt>
      <trkpt lat="42.92428" lon="-8.183516">
        <time>2022-07-15T05:32:03Z</time>
      </trkpt>
      <trkpt lat="42.924286" lon="-8.183589">
        <time>2022-07-15T05:32:09Z</time>
      </trkpt>
      <trkpt lat="42.924282" lon="-8.18367">
        <time>2022-07-15T05:32:15Z</time>
      </trkpt>
      <trkpt lat="42.924286" lon="-8.183747">
        <time>2022-07-15T05:32:21Z</time>
      </trkpt>
      <trkpt lat="42.924286" lon="-8.183826">
        <time>2022-07-15T05:32:26Z</time>
      </trkpt>
      <trkpt lat="42.92427" lon="-8.183906">
        <time>2022-07-15T05:32:30Z</time>
      </trkpt>
      <trkpt lat="42.924267" lon="-8.183982">
        <time>2022-07-15T05:32:34Z</time>
      </trkpt>
      <trkpt lat="42.924248" lon="-8.184051">
        <time>2022-07-15T05:32:39Z</time>
      </trkpt>
      <trkpt lat="42.924244" lon="-8.18413">
        <time>2022-07-15T05:32:44Z</time>
      </trkpt>
      <trkpt lat="42.924232" lon="-8.184195">
        <time>2022-07-15T05:32:48Z</time>
      </trkpt>
      <trkpt lat="42.92421" lon="-8.18426">
        <time>2022-07-15T05:32:54Z</time>
      </trkpt>
      <trkpt lat="42.924175" lon="-8.184328">
        <time>2022-07-15T05:32:59Z</time>
      </trkpt>
      <trkpt lat="42.924152" lon="-8.184391">
        <time>2022-07-15T05:33:04Z</time>
      </trkpt>
      <trkpt lat="42.924114" lon="-8.184452">
        <time>2022-07-15T05:33:09Z</time>
      </trkpt>
      <trkpt lat="42.924072" lon="-8.184504">
        <time>2022-07-15T05:33:14Z</time>
      </trkpt>
      <trkpt lat="42.92403" lon="-8.1845455">
        <time>2022-07-15T05:33:18Z</time>
      </trkpt>
      <trkpt lat="42.92399" lon="-8.1846">
        <time>2022-07-15T05:33:23Z</time>
      </trkpt>
      <trkpt lat="42.923946" lon="-8.184653">
        <time>2022-07-15T05:33:28Z</time>
      </trkpt>
      <trkpt lat="42.923897" lon="-8.184687">
        <time>2022-07-15T05:33:33Z</time>
      </trkpt>
      <trkpt lat="42.923847" lon="-8.18471">
        <time>2022-07-15T05:33:38Z</time>
      </trkpt>
      <trkpt lat="42.92379" lon="-8.184742">
        <time>2022-07-15T05:33:43Z</time>
      </trkpt>
      <trkpt lat="42.923737" lon="-8.184772">
        <time>2022-07-15T05:33:48Z</time>
      </trkpt>
      <trkpt lat="42.923676" lon="-8.184804">
        <time>2022-07-15T05:33:52Z</time>
      </trkpt>
      <trkpt lat="42.923626" lon="-8.184828">
        <time>2022-07-15T05:33:55Z</time>
      </trkpt>
      <trkpt lat="42.923576" lon="-8.184841">
        <time>2022-07-15T05:33:59Z</time>
      </trkpt>
      <trkpt lat="42.92352" lon="-8.184863">
        <time>2022-07-15T05:34:04Z</time>
      </trkpt>
      <trkpt lat="42.923466" lon="-8.184879">
        <time>2022-07-15T05:34:08Z</time>
      </trkpt>
      <trkpt lat="42.92342" lon="-8.184888">
        <time>2022-07-15T05:34:12Z</time>
      </trkpt>
      <trkpt lat="42.92336" lon="-8.184904">
        <time>2022-07-15T05:34:17Z</time>
      </trkpt>
      <trkpt lat="42.923313" lon="-8.184922">
        <time>2022-07-15T05:34:21Z</time>
      </trkpt>
      <trkpt lat="42.92325" lon="-8.184935">
        <time>2022-07-15T05:34:26Z</time>
      </trkpt>
      <trkpt lat="42.923195" lon="-8.184942">
        <time>2022-07-15T05:34:30Z</time>
      </trkpt>
      <trkpt lat="42.923134" lon="-8.184965">
        <time>2022-07-15T05:34:35Z</time>
      </trkpt>
      <trkpt lat="42.92308" lon="-8.184983">
        <time>2022-07-15T05:34:39Z</time>
      </trkpt>
      <trkpt lat="42.923023" lon="-8.185003">
        <time>2022-07-15T05:34:43Z</time>
      </trkpt>
      <trkpt lat="42.922974" lon="-8.185035">
        <time>2022-07-15T05:34:47Z</time>
      </trkpt>
      <trkpt lat="42.922928" lon="-8.185075">
        <time>2022-07-15T05:34:51Z</time>
      </trkpt>
      <trkpt lat="42.92288" lon="-8.185113">
        <time>2022-07-15T05:34:55Z</time>
      </trkpt>
      <trkpt lat="42.922832" lon="-8.185151">
        <time>2022-07-15T05:34:59Z</time>
      </trkpt>
      <trkpt lat="42.922787" lon="-8.185207">
        <time>2022-07-15T05:35:04Z</time>
      </trkpt>
      <trkpt lat="42.922752" lon="-8.185264">
        <time>2022-07-15T05:35:08Z</time>
      </trkpt>
      <trkpt lat="42.92271" lon="-8.185334">
        <time>2022-07-15T05:35:13Z</time>
      </trkpt>
      <trkpt lat="42.922688" lon="-8.185397">
        <time>2022-07-15T05:35:17Z</time>
      </trkpt>
      <trkpt lat="42.922657" lon="-8.185467">
        <time>2022-07-15T05:35:22Z</time>
      </trkpt>
      <trkpt lat="42.92263" lon="-8.18553">
        <time>2022-07-15T05:35:26Z</time>
      </trkpt>
      <trkpt lat="42.92262" lon="-8.185595">
        <time>2022-07-15T05:35:30Z</time>
      </trkpt>
      <trkpt lat="42.92262" lon="-8.185666">
        <time>2022-07-15T05:35:34Z</time>
      </trkpt>
      <trkpt lat="42.922626" lon="-8.1857395">
        <time>2022-07-15T05:35:39Z</time>
      </trkpt>
      <trkpt lat="42.92265" lon="-8.185806">
        <time>2022-07-15T05:35:44Z</time>
      </trkpt>
      <trkpt lat="42.922684" lon="-8.18586">
        <time>2022-07-15T05:35:49Z</time>
      </trkpt>
      <trkpt lat="42.92273" lon="-8.185866">
        <time>2022-07-15T05:35:54Z</time>
      </trkpt>
      <trkpt lat="42.922756" lon="-8.18589">
        <time>2022-07-15T05:40:57Z</time>
      </trkpt>
      <trkpt lat="42.922718" lon="-8.185862">
        <time>2022-07-15T05:41:57Z</time>
      </trkpt>
      <trkpt lat="42.92277" lon="-8.185885">
        <time>2022-07-15T05:42:03Z</time>
      </trkpt>
      <trkpt lat="42.922752" lon="-8.185858">
        <time>2022-07-15T05:43:13Z</time>
      </trkpt>
      <trkpt lat="42.92275" lon="-8.185799">
        <time>2022-07-15T05:55:35Z</time>
      </trkpt>
      <trkpt lat="42.922703" lon="-8.185869">
        <time>2022-07-15T05:55:40Z</time>
      </trkpt>
      <trkpt lat="42.922684" lon="-8.185928">
        <time>2022-07-15T05:55:43Z</time>
      </trkpt>
      <trkpt lat="42.922676" lon="-8.186024">
        <time>2022-07-15T05:56:02Z</time>
      </trkpt>
      <trkpt lat="42.92268" lon="-8.186116">
        <time>2022-07-15T05:56:07Z</time>
      </trkpt>
      <trkpt lat="42.92268" lon="-8.186192">
        <time>2022-07-15T05:56:11Z</time>
      </trkpt>
      <trkpt lat="42.922676" lon="-8.186278">
        <time>2022-07-15T05:56:16Z</time>
      </trkpt>
      <trkpt lat="42.92266" lon="-8.186359">
        <time>2022-07-15T05:56:21Z</time>
      </trkpt>
      <trkpt lat="42.92265" lon="-8.18642">
        <time>2022-07-15T05:56:25Z</time>
      </trkpt>
      <trkpt lat="42.92263" lon="-8.186496">
        <time>2022-07-15T05:56:30Z</time>
      </trkpt>
      <trkpt lat="42.92262" lon="-8.186558">
        <time>2022-07-15T05:56:34Z</time>
      </trkpt>
      <trkpt lat="42.92261" lon="-8.18664">
        <time>2022-07-15T05:56:39Z</time>
      </trkpt>
      <trkpt lat="42.922596" lon="-8.186718">
        <time>2022-07-15T05:56:44Z</time>
      </trkpt>
      <trkpt lat="42.922592" lon="-8.18679">
        <time>2022-07-15T05:56:49Z</time>
      </trkpt>
      <trkpt lat="42.922596" lon="-8.186863">
        <time>2022-07-15T05:56:54Z</time>
      </trkpt>
      <trkpt lat="42.92261" lon="-8.186938">
        <time>2022-07-15T05:56:59Z</time>
      </trkpt>
      <trkpt lat="42.92264" lon="-8.187006">
        <time>2022-07-15T05:57:04Z</time>
      </trkpt>
      <trkpt lat="42.922676" lon="-8.187074">
        <time>2022-07-15T05:57:09Z</time>
      </trkpt>
      <trkpt lat="42.9227" lon="-8.187127">
        <time>2022-07-15T05:57:13Z</time>
      </trkpt>
      <trkpt lat="42.92272" lon="-8.1872">
        <time>2022-07-15T05:57:18Z</time>
      </trkpt>
      <trkpt lat="42.922745" lon="-8.187268">
        <time>2022-07-15T05:57:22Z</time>
      </trkpt>
      <trkpt lat="42.92276" lon="-8.187331">
        <time>2022-07-15T05:57:26Z</time>
      </trkpt>
      <trkpt lat="42.922768" lon="-8.187405">
        <time>2022-07-15T05:57:31Z</time>
      </trkpt>
      <trkpt lat="42.92277" lon="-8.187477">
        <time>2022-07-15T05:57:36Z</time>
      </trkpt>
      <trkpt lat="42.922775" lon="-8.187555">
        <time>2022-07-15T05:57:41Z</time>
      </trkpt>
      <trkpt lat="42.922775" lon="-8.187637">
        <time>2022-07-15T05:57:46Z</time>
      </trkpt>
      <trkpt lat="42.92278" lon="-8.187714">
        <time>2022-07-15T05:57:51Z</time>
      </trkpt>
      <trkpt lat="42.9228" lon="-8.187791">
        <time>2022-07-15T05:57:56Z</time>
      </trkpt>
      <trkpt lat="42.922832" lon="-8.187848">
        <time>2022-07-15T05:58:01Z</time>
      </trkpt>
      <trkpt lat="42.922874" lon="-8.187892">
        <time>2022-07-15T05:58:06Z</time>
      </trkpt>
      <trkpt lat="42.922928" lon="-8.187917">
        <time>2022-07-15T05:58:12Z</time>
      </trkpt>
      <trkpt lat="42.92298" lon="-8.187935">
        <time>2022-07-15T05:58:17Z</time>
      </trkpt>
      <trkpt lat="42.92302" lon="-8.187959">
        <time>2022-07-15T05:58:23Z</time>
      </trkpt>
      <trkpt lat="42.92306" lon="-8.18801">
        <time>2022-07-15T05:58:29Z</time>
      </trkpt>
      <trkpt lat="42.923115" lon="-8.18828">
        <time>2022-07-15T05:58:50Z</time>
      </trkpt>
      <trkpt lat="42.923115" lon="-8.188283">
        <time>2022-07-15T05:58:51Z</time>
      </trkpt>
      <trkpt lat="42.923088" lon="-8.188359">
        <time>2022-07-15T05:58:59Z</time>
      </trkpt>
      <trkpt lat="42.923054" lon="-8.188424">
        <time>2022-07-15T05:59:05Z</time>
      </trkpt>
      <trkpt lat="42.92302" lon="-8.188498">
        <time>2022-07-15T05:59:11Z</time>
      </trkpt>
      <trkpt lat="42.92301" lon="-8.188555">
        <time>2022-07-15T05:59:15Z</time>
      </trkpt>
      <trkpt lat="42.923046" lon="-8.188615">
        <time>2022-07-15T05:59:20Z</time>
      </trkpt>
      <trkpt lat="42.9231" lon="-8.188644">
        <time>2022-07-15T05:59:25Z</time>
      </trkpt>
      <trkpt lat="42.92315" lon="-8.188655">
        <time>2022-07-15T05:59:29Z</time>
      </trkpt>
      <trkpt lat="42.9232" lon="-8.188665">
        <time>2022-07-15T05:59:33Z</time>
      </trkpt>
      <trkpt lat="42.923244" lon="-8.188693">
        <time>2022-07-15T05:59:38Z</time>
      </trkpt>
      <trkpt lat="42.9233" lon="-8.188717">
        <time>2022-07-15T05:59:44Z</time>
      </trkpt>
      <trkpt lat="42.923347" lon="-8.188749">
        <time>2022-07-15T05:59:49Z</time>
      </trkpt>
      <trkpt lat="42.9234" lon="-8.188794">
        <time>2022-07-15T05:59:55Z</time>
      </trkpt>
      <trkpt lat="42.923447" lon="-8.188818">
        <time>2022-07-15T06:00:00Z</time>
      </trkpt>
      <trkpt lat="42.9235" lon="-8.18884">
        <time>2022-07-15T06:00:04Z</time>
      </trkpt>
      <trkpt lat="42.923553" lon="-8.188866">
        <time>2022-07-15T06:00:09Z</time>
      </trkpt>
      <trkpt lat="42.923603" lon="-8.188885">
        <time>2022-07-15T06:00:13Z</time>
      </trkpt>
      <trkpt lat="42.923653" lon="-8.1889105">
        <time>2022-07-15T06:00:18Z</time>
      </trkpt>
      <trkpt lat="42.92371" lon="-8.188929">
        <time>2022-07-15T06:00:23Z</time>
      </trkpt>
      <trkpt lat="42.923763" lon="-8.188954">
        <time>2022-07-15T06:00:28Z</time>
      </trkpt>
      <trkpt lat="42.923813" lon="-8.188981">
        <time>2022-07-15T06:00:32Z</time>
      </trkpt>
      <trkpt lat="42.923878" lon="-8.189">
        <time>2022-07-15T06:00:37Z</time>
      </trkpt>
      <trkpt lat="42.923935" lon="-8.18902">
        <time>2022-07-15T06:00:41Z</time>
      </trkpt>
      <trkpt lat="42.92399" lon="-8.189042">
        <time>2022-07-15T06:00:46Z</time>
      </trkpt>
      <trkpt lat="42.92405" lon="-8.189071">
        <time>2022-07-15T06:00:51Z</time>
      </trkpt>
      <trkpt lat="42.9241" lon="-8.189085">
        <time>2022-07-15T06:00:55Z</time>
      </trkpt>
      <trkpt lat="42.924156" lon="-8.189096">
        <time>2022-07-15T06:01:00Z</time>
      </trkpt>
      <trkpt lat="42.924206" lon="-8.189114">
        <time>2022-07-15T06:01:04Z</time>
      </trkpt>
      <trkpt lat="42.92425" lon="-8.189144">
        <time>2022-07-15T06:01:09Z</time>
      </trkpt>
      <trkpt lat="42.92431" lon="-8.189163">
        <time>2022-07-15T06:01:14Z</time>
      </trkpt>
      <trkpt lat="42.924362" lon="-8.189186">
        <time>2022-07-15T06:01:19Z</time>
      </trkpt>
      <trkpt lat="42.924416" lon="-8.189217">
        <time>2022-07-15T06:01:24Z</time>
      </trkpt>
      <trkpt lat="42.92448" lon="-8.189249">
        <time>2022-07-15T06:01:29Z</time>
      </trkpt>
      <trkpt lat="42.924526" lon="-8.189277">
        <time>2022-07-15T06:01:32Z</time>
      </trkpt>
      <trkpt lat="42.924576" lon="-8.189299">
        <time>2022-07-15T06:01:36Z</time>
      </trkpt>
      <trkpt lat="42.924625" lon="-8.189325">
        <time>2022-07-15T06:01:40Z</time>
      </trkpt>
      <trkpt lat="42.92467" lon="-8.189354">
        <time>2022-07-15T06:01:44Z</time>
      </trkpt>
      <trkpt lat="42.92472" lon="-8.18938">
        <time>2022-07-15T06:01:49Z</time>
      </trkpt>
      <trkpt lat="42.924778" lon="-8.189406">
        <time>2022-07-15T06:01:54Z</time>
      </trkpt>
      <trkpt lat="42.92484" lon="-8.189426">
        <time>2022-07-15T06:01:59Z</time>
      </trkpt>
      <trkpt lat="42.9249" lon="-8.189442">
        <time>2022-07-15T06:02:04Z</time>
      </trkpt>
      <trkpt lat="42.92496" lon="-8.189461">
        <time>2022-07-15T06:02:09Z</time>
      </trkpt>
      <trkpt lat="42.92501" lon="-8.189487">
        <time>2022-07-15T06:02:14Z</time>
      </trkpt>
      <trkpt lat="42.925064" lon="-8.189514">
        <time>2022-07-15T06:02:19Z</time>
      </trkpt>
      <trkpt lat="42.925114" lon="-8.189542">
        <time>2022-07-15T06:02:24Z</time>
      </trkpt>
      <trkpt lat="42.925167" lon="-8.189565">
        <time>2022-07-15T06:02:28Z</time>
      </trkpt>
      <trkpt lat="42.925217" lon="-8.189586">
        <time>2022-07-15T06:02:32Z</time>
      </trkpt>
      <trkpt lat="42.925266" lon="-8.189591">
        <time>2022-07-15T06:02:36Z</time>
      </trkpt>
      <trkpt lat="42.925327" lon="-8.18961">
        <time>2022-07-15T06:02:47Z</time>
      </trkpt>
      <trkpt lat="42.92538" lon="-8.189643">
        <time>2022-07-15T06:02:52Z</time>
      </trkpt>
      <trkpt lat="42.925438" lon="-8.189676">
        <time>2022-07-15T06:02:56Z</time>
      </trkpt>
      <trkpt lat="42.925488" lon="-8.189704">
        <time>2022-07-15T06:03:00Z</time>
      </trkpt>
      <trkpt lat="42.92553" lon="-8.189722">
        <time>2022-07-15T06:03:04Z</time>
      </trkpt>
      <trkpt lat="42.92559" lon="-8.189752">
        <time>2022-07-15T06:03:09Z</time>
      </trkpt>
      <trkpt lat="42.92564" lon="-8.1897745">
        <time>2022-07-15T06:03:13Z</time>
      </trkpt>
      <trkpt lat="42.925694" lon="-8.189805">
        <time>2022-07-15T06:03:18Z</time>
      </trkpt>
      <trkpt lat="42.92575" lon="-8.189829">
        <time>2022-07-15T06:03:22Z</time>
      </trkpt>
      <trkpt lat="42.925793" lon="-8.189845">
        <time>2022-07-15T06:03:25Z</time>
      </trkpt>
      <trkpt lat="42.92585" lon="-8.189885">
        <time>2022-07-15T06:03:30Z</time>
      </trkpt>
      <trkpt lat="42.9259" lon="-8.189921">
        <time>2022-07-15T06:03:34Z</time>
      </trkpt>
      <trkpt lat="42.92595" lon="-8.189945">
        <time>2022-07-15T06:03:39Z</time>
      </trkpt>
      <trkpt lat="42.926003" lon="-8.189983">
        <time>2022-07-15T06:03:44Z</time>
      </trkpt>
      <trkpt lat="42.926044" lon="-8.190028">
        <time>2022-07-15T06:03:48Z</time>
      </trkpt>
      <trkpt lat="42.92609" lon="-8.190082">
        <time>2022-07-15T06:03:53Z</time>
      </trkpt>
      <trkpt lat="42.92612" lon="-8.190137">
        <time>2022-07-15T06:03:57Z</time>
      </trkpt>
      <trkpt lat="42.926147" lon="-8.190206">
        <time>2022-07-15T06:04:02Z</time>
      </trkpt>
      <trkpt lat="42.926155" lon="-8.190277">
        <time>2022-07-15T06:04:07Z</time>
      </trkpt>
      <trkpt lat="42.926167" lon="-8.190355">
        <time>2022-07-15T06:04:12Z</time>
      </trkpt>
      <trkpt lat="42.926163" lon="-8.190427">
        <time>2022-07-15T06:04:16Z</time>
      </trkpt>
      <trkpt lat="42.926167" lon="-8.190498">
        <time>2022-07-15T06:04:20Z</time>
      </trkpt>
      <trkpt lat="42.926167" lon="-8.190582">
        <time>2022-07-15T06:04:25Z</time>
      </trkpt>
      <trkpt lat="42.926163" lon="-8.190645">
        <time>2022-07-15T06:04:29Z</time>
      </trkpt>
      <trkpt lat="42.92617" lon="-8.190719">
        <time>2022-07-15T06:04:34Z</time>
      </trkpt>
      <trkpt lat="42.926167" lon="-8.1908">
        <time>2022-07-15T06:04:39Z</time>
      </trkpt>
      <trkpt lat="42.926167" lon="-8.190865">
        <time>2022-07-15T06:04:43Z</time>
      </trkpt>
      <trkpt lat="42.92616" lon="-8.19094">
        <time>2022-07-15T06:04:48Z</time>
      </trkpt>
      <trkpt lat="42.92616" lon="-8.191014">
        <time>2022-07-15T06:04:53Z</time>
      </trkpt>
      <trkpt lat="42.926167" lon="-8.191091">
        <time>2022-07-15T06:04:58Z</time>
      </trkpt>
      <trkpt lat="42.926167" lon="-8.191169">
        <time>2022-07-15T06:05:03Z</time>
      </trkpt>
      <trkpt lat="42.926167" lon="-8.191239">
        <time>2022-07-15T06:05:08Z</time>
      </trkpt>
      <trkpt lat="42.926155" lon="-8.191319">
        <time>2022-07-15T06:05:14Z</time>
      </trkpt>
      <trkpt lat="42.92615" lon="-8.191386">
        <time>2022-07-15T06:05:18Z</time>
      </trkpt>
      <trkpt lat="42.926147" lon="-8.19147">
        <time>2022-07-15T06:05:23Z</time>
      </trkpt>
      <trkpt lat="42.926144" lon="-8.191535">
        <time>2022-07-15T06:05:27Z</time>
      </trkpt>
      <trkpt lat="42.926147" lon="-8.191614">
        <time>2022-07-15T06:05:32Z</time>
      </trkpt>
      <trkpt lat="42.926144" lon="-8.191681">
        <time>2022-07-15T06:05:36Z</time>
      </trkpt>
      <trkpt lat="42.926144" lon="-8.191764">
        <time>2022-07-15T06:05:41Z</time>
      </trkpt>
      <trkpt lat="42.926147" lon="-8.191827">
        <time>2022-07-15T06:05:45Z</time>
      </trkpt>
      <trkpt lat="42.926144" lon="-8.191914">
        <time>2022-07-15T06:05:50Z</time>
      </trkpt>
      <trkpt lat="42.926144" lon="-8.191989">
        <time>2022-07-15T06:05:55Z</time>
      </trkpt>
      <trkpt lat="42.92615" lon="-8.19206">
        <time>2022-07-15T06:06:00Z</time>
      </trkpt>
      <trkpt lat="42.926144" lon="-8.192139">
        <time>2022-07-15T06:06:05Z</time>
      </trkpt>
      <trkpt lat="42.926147" lon="-8.192213">
        <time>2022-07-15T06:06:09Z</time>
      </trkpt>
      <trkpt lat="42.926147" lon="-8.192285">
        <time>2022-07-15T06:06:13Z</time>
      </trkpt>
      <trkpt lat="42.92615" lon="-8.192361">
        <time>2022-07-15T06:06:17Z</time>
      </trkpt>
      <trkpt lat="42.926155" lon="-8.19243">
        <time>2022-07-15T06:06:22Z</time>
      </trkpt>
      <trkpt lat="42.92615" lon="-8.192497">
        <time>2022-07-15T06:06:26Z</time>
      </trkpt>
      <trkpt lat="42.926144" lon="-8.192584">
        <time>2022-07-15T06:06:31Z</time>
      </trkpt>
      <trkpt lat="42.926144" lon="-8.192657">
        <time>2022-07-15T06:06:35Z</time>
      </trkpt>
      <trkpt lat="42.926147" lon="-8.192735">
        <time>2022-07-15T06:06:39Z</time>
      </trkpt>
      <trkpt lat="42.92616" lon="-8.192797">
        <time>2022-07-15T06:06:44Z</time>
      </trkpt>
      <trkpt lat="42.926163" lon="-8.192867">
        <time>2022-07-15T06:06:48Z</time>
      </trkpt>
      <trkpt lat="42.926174" lon="-8.192941">
        <time>2022-07-15T06:06:53Z</time>
      </trkpt>
      <trkpt lat="42.926193" lon="-8.193023">
        <time>2022-07-15T06:06:58Z</time>
      </trkpt>
      <trkpt lat="42.926205" lon="-8.193108">
        <time>2022-07-15T06:07:03Z</time>
      </trkpt>
      <trkpt lat="42.92623" lon="-8.193189">
        <time>2022-07-15T06:07:09Z</time>
      </trkpt>
      <trkpt lat="42.926258" lon="-8.193258">
        <time>2022-07-15T06:07:14Z</time>
      </trkpt>
      <trkpt lat="42.926296" lon="-8.193331">
        <time>2022-07-15T06:07:21Z</time>
      </trkpt>
      <trkpt lat="42.92632" lon="-8.193407">
        <time>2022-07-15T06:07:26Z</time>
      </trkpt>
      <trkpt lat="42.92632" lon="-8.193478">
        <time>2022-07-15T06:07:30Z</time>
      </trkpt>
      <trkpt lat="42.92634" lon="-8.193545">
        <time>2022-07-15T06:07:34Z</time>
      </trkpt>
      <trkpt lat="42.92635" lon="-8.193611">
        <time>2022-07-15T06:07:38Z</time>
      </trkpt>
      <trkpt lat="42.926365" lon="-8.193682">
        <time>2022-07-15T06:07:42Z</time>
      </trkpt>
      <trkpt lat="42.926395" lon="-8.193748">
        <time>2022-07-15T06:07:47Z</time>
      </trkpt>
      <trkpt lat="42.92641" lon="-8.193821">
        <time>2022-07-15T06:07:51Z</time>
      </trkpt>
      <trkpt lat="42.92641" lon="-8.193892">
        <time>2022-07-15T06:07:55Z</time>
      </trkpt>
      <trkpt lat="42.92641" lon="-8.193966">
        <time>2022-07-15T06:07:59Z</time>
      </trkpt>
      <trkpt lat="42.926426" lon="-8.194036">
        <time>2022-07-15T06:08:03Z</time>
      </trkpt>
      <trkpt lat="42.926445" lon="-8.194097">
        <time>2022-07-15T06:08:07Z</time>
      </trkpt>
      <trkpt lat="42.92646" lon="-8.194167">
        <time>2022-07-15T06:08:11Z</time>
      </trkpt>
      <trkpt lat="42.926476" lon="-8.19425">
        <time>2022-07-15T06:08:16Z</time>
      </trkpt>
      <trkpt lat="42.9265" lon="-8.194314">
        <time>2022-07-15T06:08:20Z</time>
      </trkpt>
      <trkpt lat="42.92652" lon="-8.194386">
        <time>2022-07-15T06:08:25Z</time>
      </trkpt>
      <trkpt lat="42.926533" lon="-8.194461">
        <time>2022-07-15T06:08:29Z</time>
      </trkpt>
      <trkpt lat="42.926548" lon="-8.1945305">
        <time>2022-07-15T06:08:33Z</time>
      </trkpt>
      <trkpt lat="42.92656" lon="-8.194594">
        <time>2022-07-15T06:08:37Z</time>
      </trkpt>
      <trkpt lat="42.92657" lon="-8.194667">
        <time>2022-07-15T06:08:41Z</time>
      </trkpt>
      <trkpt lat="42.926582" lon="-8.1947365">
        <time>2022-07-15T06:08:46Z</time>
      </trkpt>
      <trkpt lat="42.926605" lon="-8.194818">
        <time>2022-07-15T06:08:51Z</time>
      </trkpt>
      <trkpt lat="42.926632" lon="-8.194886">
        <time>2022-07-15T06:08:56Z</time>
      </trkpt>
      <trkpt lat="42.926655" lon="-8.194948">
        <time>2022-07-15T06:09:00Z</time>
      </trkpt>
      <trkpt lat="42.926678" lon="-8.195035">
        <time>2022-07-15T06:09:06Z</time>
      </trkpt>
      <trkpt lat="42.926678" lon="-8.195109">
        <time>2022-07-15T06:09:11Z</time>
      </trkpt>
      <trkpt lat="42.926666" lon="-8.195192">
        <time>2022-07-15T06:09:16Z</time>
      </trkpt>
      <trkpt lat="42.92666" lon="-8.195253">
        <time>2022-07-15T06:09:20Z</time>
      </trkpt>
      <trkpt lat="42.926655" lon="-8.195327">
        <time>2022-07-15T06:09:25Z</time>
      </trkpt>
      <trkpt lat="42.926643" lon="-8.195399">
        <time>2022-07-15T06:09:30Z</time>
      </trkpt>
      <trkpt lat="42.926632" lon="-8.19548">
        <time>2022-07-15T06:09:35Z</time>
      </trkpt>
      <trkpt lat="42.92663" lon="-8.195542">
        <time>2022-07-15T06:09:39Z</time>
      </trkpt>
      <trkpt lat="42.926624" lon="-8.195622">
        <time>2022-07-15T06:09:44Z</time>
      </trkpt>
      <trkpt lat="42.926613" lon="-8.195688">
        <time>2022-07-15T06:09:48Z</time>
      </trkpt>
      <trkpt lat="42.9266" lon="-8.19576">
        <time>2022-07-15T06:09:53Z</time>
      </trkpt>
      <trkpt lat="42.926617" lon="-8.195852">
        <time>2022-07-15T06:10:03Z</time>
      </trkpt>
      <trkpt lat="42.92662" lon="-8.195932">
        <time>2022-07-15T06:10:08Z</time>
      </trkpt>
      <trkpt lat="42.926586" lon="-8.196005">
        <time>2022-07-15T06:10:13Z</time>
      </trkpt>
      <trkpt lat="42.92654" lon="-8.196069">
        <time>2022-07-15T06:10:17Z</time>
      </trkpt>
      <trkpt lat="42.926506" lon="-8.1961355">
        <time>2022-07-15T06:10:21Z</time>
      </trkpt>
      <trkpt lat="42.926468" lon="-8.196198">
        <time>2022-07-15T06:10:25Z</time>
      </trkpt>
      <trkpt lat="42.926434" lon="-8.196245">
        <time>2022-07-15T06:10:29Z</time>
      </trkpt>
      <trkpt lat="42.9264" lon="-8.196299">
        <time>2022-07-15T06:10:33Z</time>
      </trkpt>
      <trkpt lat="42.92637" lon="-8.196358">
        <time>2022-07-15T06:10:38Z</time>
      </trkpt>
      <trkpt lat="42.92634" lon="-8.196417">
        <time>2022-07-15T06:10:43Z</time>
      </trkpt>
      <trkpt lat="42.926292" lon="-8.196467">
        <time>2022-07-15T06:10:48Z</time>
      </trkpt>
      <trkpt lat="42.92625" lon="-8.196531">
        <time>2022-07-15T06:10:52Z</time>
      </trkpt>
      <trkpt lat="42.92622" lon="-8.196591">
        <time>2022-07-15T06:10:56Z</time>
      </trkpt>
      <trkpt lat="42.9262" lon="-8.196654">
        <time>2022-07-15T06:11:01Z</time>
      </trkpt>
      <trkpt lat="42.926178" lon="-8.196719">
        <time>2022-07-15T06:11:07Z</time>
      </trkpt>
      <trkpt lat="42.92616" lon="-8.19679">
        <time>2022-07-15T06:11:12Z</time>
      </trkpt>
      <trkpt lat="42.92614" lon="-8.196858">
        <time>2022-07-15T06:11:18Z</time>
      </trkpt>
      <trkpt lat="42.92611" lon="-8.196929">
        <time>2022-07-15T06:11:23Z</time>
      </trkpt>
      <trkpt lat="42.92609" lon="-8.196982">
        <time>2022-07-15T06:11:27Z</time>
      </trkpt>
      <trkpt lat="42.926067" lon="-8.19706">
        <time>2022-07-15T06:11:32Z</time>
      </trkpt>
      <trkpt lat="42.92605" lon="-8.197137">
        <time>2022-07-15T06:11:36Z</time>
      </trkpt>
      <trkpt lat="42.92602" lon="-8.197203">
        <time>2022-07-15T06:11:41Z</time>
      </trkpt>
      <trkpt lat="42.925995" lon="-8.197263">
        <time>2022-07-15T06:11:46Z</time>
      </trkpt>
      <trkpt lat="42.925957" lon="-8.1973295">
        <time>2022-07-15T06:11:51Z</time>
      </trkpt>
      <trkpt lat="42.92594" lon="-8.1974">
        <time>2022-07-15T06:11:56Z</time>
      </trkpt>
      <trkpt lat="42.925915" lon="-8.197486">
        <time>2022-07-15T06:12:01Z</time>
      </trkpt>
      <trkpt lat="42.925884" lon="-8.197549">
        <time>2022-07-15T06:12:05Z</time>
      </trkpt>
      <trkpt lat="42.925865" lon="-8.197605">
        <time>2022-07-15T06:12:09Z</time>
      </trkpt>
      <trkpt lat="42.925854" lon="-8.197682">
        <time>2022-07-15T06:12:15Z</time>
      </trkpt>
      <trkpt lat="42.925846" lon="-8.197757">
        <time>2022-07-15T06:12:20Z</time>
      </trkpt>
      <trkpt lat="42.925854" lon="-8.197828">
        <time>2022-07-15T06:12:24Z</time>
      </trkpt>
      <trkpt lat="42.925877" lon="-8.197887">
        <time>2022-07-15T06:12:29Z</time>
      </trkpt>
      <trkpt lat="42.925915" lon="-8.197949">
        <time>2022-07-15T06:12:33Z</time>
      </trkpt>
      <trkpt lat="42.92595" lon="-8.197991">
        <time>2022-07-15T06:12:38Z</time>
      </trkpt>
      <trkpt lat="42.92604" lon="-8.1980715">
        <time>2022-07-15T06:13:00Z</time>
      </trkpt>
      <trkpt lat="42.926075" lon="-8.198125">
        <time>2022-07-15T06:13:07Z</time>
      </trkpt>
      <trkpt lat="42.92611" lon="-8.198177">
        <time>2022-07-15T06:13:15Z</time>
      </trkpt>
      <trkpt lat="42.92615" lon="-8.198237">
        <time>2022-07-15T06:13:22Z</time>
      </trkpt>
      <trkpt lat="42.926193" lon="-8.198255">
        <time>2022-07-15T06:13:30Z</time>
      </trkpt>
      <trkpt lat="42.92625" lon="-8.198268">
        <time>2022-07-15T06:14:11Z</time>
      </trkpt>
      <trkpt lat="42.92629" lon="-8.198335">
        <time>2022-07-15T06:14:17Z</time>
      </trkpt>
      <trkpt lat="42.926323" lon="-8.198404">
        <time>2022-07-15T06:14:21Z</time>
      </trkpt>
      <trkpt lat="42.92635" lon="-8.198471">
        <time>2022-07-15T06:14:26Z</time>
      </trkpt>
      <trkpt lat="42.926373" lon="-8.19853">
        <time>2022-07-15T06:14:32Z</time>
      </trkpt>
      <trkpt lat="42.926388" lon="-8.198597">
        <time>2022-07-15T06:14:43Z</time>
      </trkpt>
      <trkpt lat="42.926373" lon="-8.198595">
        <time>2022-07-15T06:16:20Z</time>
      </trkpt>
      <trkpt lat="42.926395" lon="-8.198659">
        <time>2022-07-15T06:16:38Z</time>
      </trkpt>
      <trkpt lat="42.926434" lon="-8.19872">
        <time>2022-07-15T06:16:44Z</time>
      </trkpt>
      <trkpt lat="42.92647" lon="-8.198764">
        <time>2022-07-15T06:16:49Z</time>
      </trkpt>
      <trkpt lat="42.926517" lon="-8.198817">
        <time>2022-07-15T06:16:55Z</time>
      </trkpt>
      <trkpt lat="42.926563" lon="-8.198863">
        <time>2022-07-15T06:17:00Z</time>
      </trkpt>
      <trkpt lat="42.926605" lon="-8.198906">
        <time>2022-07-15T06:17:05Z</time>
      </trkpt>
      <trkpt lat="42.92664" lon="-8.19894">
        <time>2022-07-15T06:17:10Z</time>
      </trkpt>
      <trkpt lat="42.926697" lon="-8.198977">
        <time>2022-07-15T06:17:16Z</time>
      </trkpt>
      <trkpt lat="42.926754" lon="-8.199004">
        <time>2022-07-15T06:17:21Z</time>
      </trkpt>
      <trkpt lat="42.926792" lon="-8.199059">
        <time>2022-07-15T06:17:26Z</time>
      </trkpt>
      <trkpt lat="42.926823" lon="-8.199124">
        <time>2022-07-15T06:17:31Z</time>
      </trkpt>
      <trkpt lat="42.92686" lon="-8.199183">
        <time>2022-07-15T06:17:36Z</time>
      </trkpt>
      <trkpt lat="42.926895" lon="-8.199241">
        <time>2022-07-15T06:17:42Z</time>
      </trkpt>
      <trkpt lat="42.926918" lon="-8.1993065">
        <time>2022-07-15T06:17:47Z</time>
      </trkpt>
      <trkpt lat="42.92695" lon="-8.199368">
        <time>2022-07-15T06:17:52Z</time>
      </trkpt>
      <trkpt lat="42.926975" lon="-8.199433">
        <time>2022-07-15T06:17:56Z</time>
      </trkpt>
      <trkpt lat="42.927013" lon="-8.199466">
        <time>2022-07-15T06:18:00Z</time>
      </trkpt>
      <trkpt lat="42.92706" lon="-8.199516">
        <time>2022-07-15T06:18:05Z</time>
      </trkpt>
      <trkpt lat="42.92709" lon="-8.19957">
        <time>2022-07-15T06:18:09Z</time>
      </trkpt>
      <trkpt lat="42.927116" lon="-8.199643">
        <time>2022-07-15T06:18:14Z</time>
      </trkpt>
      <trkpt lat="42.927147" lon="-8.199714">
        <time>2022-07-15T06:18:20Z</time>
      </trkpt>
      <trkpt lat="42.92719" lon="-8.199792">
        <time>2022-07-15T06:18:27Z</time>
      </trkpt>
      <trkpt lat="42.927223" lon="-8.199852">
        <time>2022-07-15T06:18:33Z</time>
      </trkpt>
      <trkpt lat="42.927265" lon="-8.19993">
        <time>2022-07-15T06:18:38Z</time>
      </trkpt>
      <trkpt lat="42.927284" lon="-8.199983">
        <time>2022-07-15T06:18:42Z</time>
      </trkpt>
      <trkpt lat="42.92732" lon="-8.200047">
        <time>2022-07-15T06:18:48Z</time>
      </trkpt>
      <trkpt lat="42.92737" lon="-8.200091">
        <time>2022-07-15T06:18:53Z</time>
      </trkpt>
      <trkpt lat="42.927395" lon="-8.200152">
        <time>2022-07-15T06:18:58Z</time>
      </trkpt>
      <trkpt lat="42.927418" lon="-8.200217">
        <time>2022-07-15T06:19:02Z</time>
      </trkpt>
      <trkpt lat="42.927444" lon="-8.200289">
        <time>2022-07-15T06:19:07Z</time>
      </trkpt>
      <trkpt lat="42.927467" lon="-8.200362">
        <time>2022-07-15T06:19:11Z</time>
      </trkpt>
      <trkpt lat="42.927494" lon="-8.200414">
        <time>2022-07-15T06:19:15Z</time>
      </trkpt>
      <trkpt lat="42.927525" lon="-8.200475">
        <time>2022-07-15T06:19:20Z</time>
      </trkpt>
      <trkpt lat="42.92756" lon="-8.20054">
        <time>2022-07-15T06:19:26Z</time>
      </trkpt>
      <trkpt lat="42.927574" lon="-8.200609">
        <time>2022-07-15T06:19:30Z</time>
      </trkpt>
      <trkpt lat="42.927612" lon="-8.20066">
        <time>2022-07-15T06:19:35Z</time>
      </trkpt>
      <trkpt lat="42.927654" lon="-8.200721">
        <time>2022-07-15T06:19:40Z</time>
      </trkpt>
      <trkpt lat="42.927685" lon="-8.200773">
        <time>2022-07-15T06:19:44Z</time>
      </trkpt>
      <trkpt lat="42.927704" lon="-8.20084">
        <time>2022-07-15T06:19:49Z</time>
      </trkpt>
      <trkpt lat="42.927685" lon="-8.20091">
        <time>2022-07-15T06:19:55Z</time>
      </trkpt>
      <trkpt lat="42.92768" lon="-8.200981">
        <time>2022-07-15T06:20:01Z</time>
      </trkpt>
      <trkpt lat="42.927666" lon="-8.201054">
        <time>2022-07-15T06:20:07Z</time>
      </trkpt>
      <trkpt lat="42.92766" lon="-8.201131">
        <time>2022-07-15T06:20:13Z</time>
      </trkpt>
      <trkpt lat="42.927658" lon="-8.201206">
        <time>2022-07-15T06:20:18Z</time>
      </trkpt>
      <trkpt lat="42.92766" lon="-8.201275">
        <time>2022-07-15T06:20:24Z</time>
      </trkpt>
      <trkpt lat="42.927673" lon="-8.201343">
        <time>2022-07-15T06:20:29Z</time>
      </trkpt>
      <trkpt lat="42.92769" lon="-8.201421">
        <time>2022-07-15T06:20:35Z</time>
      </trkpt>
      <trkpt lat="42.927708" lon="-8.201489">
        <time>2022-07-15T06:20:39Z</time>
      </trkpt>
      <trkpt lat="42.927727" lon="-8.201562">
        <time>2022-07-15T06:20:43Z</time>
      </trkpt>
      <trkpt lat="42.92774" lon="-8.2016325">
        <time>2022-07-15T06:20:47Z</time>
      </trkpt>
      <trkpt lat="42.92775" lon="-8.201692">
        <time>2022-07-15T06:20:51Z</time>
      </trkpt>
      <trkpt lat="42.927773" lon="-8.201758">
        <time>2022-07-15T06:20:56Z</time>
      </trkpt>
      <trkpt lat="42.92778" lon="-8.2018385">
        <time>2022-07-15T06:21:02Z</time>
      </trkpt>
      <trkpt lat="42.927788" lon="-8.201911">
        <time>2022-07-15T06:21:07Z</time>
      </trkpt>
      <trkpt lat="42.927803" lon="-8.201995">
        <time>2022-07-15T06:21:12Z</time>
      </trkpt>
      <trkpt lat="42.927814" lon="-8.202064">
        <time>2022-07-15T06:21:16Z</time>
      </trkpt>
      <trkpt lat="42.927814" lon="-8.202133">
        <time>2022-07-15T06:21:20Z</time>
      </trkpt>
      <trkpt lat="42.927814" lon="-8.2022">
        <time>2022-07-15T06:21:26Z</time>
      </trkpt>
      <trkpt lat="42.9278" lon="-8.202283">
        <time>2022-07-15T06:21:33Z</time>
      </trkpt>
      <trkpt lat="42.92778" lon="-8.202369">
        <time>2022-07-15T06:21:40Z</time>
      </trkpt>
      <trkpt lat="42.927765" lon="-8.202429">
        <time>2022-07-15T06:21:44Z</time>
      </trkpt>
      <trkpt lat="42.927746" lon="-8.202505">
        <time>2022-07-15T06:21:49Z</time>
      </trkpt>
      <trkpt lat="42.927742" lon="-8.202561">
        <time>2022-07-15T06:21:54Z</time>
      </trkpt>
      <trkpt lat="42.927734" lon="-8.202643">
        <time>2022-07-15T06:22:01Z</time>
      </trkpt>
      <trkpt lat="42.927727" lon="-8.202713">
        <time>2022-07-15T06:22:07Z</time>
      </trkpt>
      <trkpt lat="42.927727" lon="-8.202784">
        <time>2022-07-15T06:22:14Z</time>
      </trkpt>
      <trkpt lat="42.927715" lon="-8.202873">
        <time>2022-07-15T06:22:20Z</time>
      </trkpt>
      <trkpt lat="42.927704" lon="-8.202946">
        <time>2022-07-15T06:22:25Z</time>
      </trkpt>
      <trkpt lat="42.92769" lon="-8.203024">
        <time>2022-07-15T06:22:30Z</time>
      </trkpt>
      <trkpt lat="42.927677" lon="-8.203093">
        <time>2022-07-15T06:22:36Z</time>
      </trkpt>
      <trkpt lat="42.92767" lon="-8.203165">
        <time>2022-07-15T06:22:42Z</time>
      </trkpt>
      <trkpt lat="42.92766" lon="-8.203242">
        <time>2022-07-15T06:22:49Z</time>
      </trkpt>
      <trkpt lat="42.927647" lon="-8.20332">
        <time>2022-07-15T06:22:54Z</time>
      </trkpt>
      <trkpt lat="42.927628" lon="-8.203383">
        <time>2022-07-15T06:22:58Z</time>
      </trkpt>
      <trkpt lat="42.92761" lon="-8.203453">
        <time>2022-07-15T06:23:03Z</time>
      </trkpt>
      <trkpt lat="42.92759" lon="-8.203516">
        <time>2022-07-15T06:23:08Z</time>
      </trkpt>
      <trkpt lat="42.92757" lon="-8.203598">
        <time>2022-07-15T06:23:14Z</time>
      </trkpt>
      <trkpt lat="42.92755" lon="-8.203657">
        <time>2022-07-15T06:23:17Z</time>
      </trkpt>
      <trkpt lat="42.927547" lon="-8.20373">
        <time>2022-07-15T06:23:22Z</time>
      </trkpt>
      <trkpt lat="42.92754" lon="-8.203803">
        <time>2022-07-15T06:23:27Z</time>
      </trkpt>
      <trkpt lat="42.927525" lon="-8.203873">
        <time>2022-07-15T06:23:32Z</time>
      </trkpt>
      <trkpt lat="42.927525" lon="-8.203941">
        <time>2022-07-15T06:23:40Z</time>
      </trkpt>
      <trkpt lat="42.927498" lon="-8.204003">
        <time>2022-07-15T06:23:46Z</time>
      </trkpt>
      <trkpt lat="42.927486" lon="-8.204088">
        <time>2022-07-15T06:23:53Z</time>
      </trkpt>
      <trkpt lat="42.927486" lon="-8.20417">
        <time>2022-07-15T06:23:59Z</time>
      </trkpt>
      <trkpt lat="42.927486" lon="-8.2042465">
        <time>2022-07-15T06:24:05Z</time>
      </trkpt>
      <trkpt lat="42.927483" lon="-8.204326">
        <time>2022-07-15T06:24:10Z</time>
      </trkpt>
      <trkpt lat="42.927475" lon="-8.204393">
        <time>2022-07-15T06:24:14Z</time>
      </trkpt>
      <trkpt lat="42.927467" lon="-8.204466">
        <time>2022-07-15T06:24:19Z</time>
      </trkpt>
      <trkpt lat="42.927467" lon="-8.204538">
        <time>2022-07-15T06:24:24Z</time>
      </trkpt>
      <trkpt lat="42.927464" lon="-8.204611">
        <time>2022-07-15T06:24:29Z</time>
      </trkpt>
      <trkpt lat="42.92746" lon="-8.204693">
        <time>2022-07-15T06:24:34Z</time>
      </trkpt>
      <trkpt lat="42.92746" lon="-8.204757">
        <time>2022-07-15T06:24:39Z</time>
      </trkpt>
      <trkpt lat="42.927444" lon="-8.204824">
        <time>2022-07-15T06:24:44Z</time>
      </trkpt>
      <trkpt lat="42.92744" lon="-8.204904">
        <time>2022-07-15T06:24:49Z</time>
      </trkpt>
      <trkpt lat="42.927452" lon="-8.204978">
        <time>2022-07-15T06:24:54Z</time>
      </trkpt>
      <trkpt lat="42.92745" lon="-8.205042">
        <time>2022-07-15T06:24:58Z</time>
      </trkpt>
      <trkpt lat="42.927464" lon="-8.205121">
        <time>2022-07-15T06:25:04Z</time>
      </trkpt>
      <trkpt lat="42.927464" lon="-8.205197">
        <time>2022-07-15T06:25:10Z</time>
      </trkpt>
      <trkpt lat="42.927467" lon="-8.205276">
        <time>2022-07-15T06:25:16Z</time>
      </trkpt>
      <trkpt lat="42.92746" lon="-8.205347">
        <time>2022-07-15T06:25:20Z</time>
      </trkpt>
      <trkpt lat="42.92746" lon="-8.20542">
        <time>2022-07-15T06:25:25Z</time>
      </trkpt>
      <trkpt lat="42.927452" lon="-8.205498">
        <time>2022-07-15T06:25:30Z</time>
      </trkpt>
      <trkpt lat="42.927437" lon="-8.205572">
        <time>2022-07-15T06:25:34Z</time>
      </trkpt>
      <trkpt lat="42.927444" lon="-8.205632">
        <time>2022-07-15T06:25:39Z</time>
      </trkpt>
      <trkpt lat="42.92745" lon="-8.205712">
        <time>2022-07-15T06:25:46Z</time>
      </trkpt>
      <trkpt lat="42.927444" lon="-8.205776">
        <time>2022-07-15T06:25:51Z</time>
      </trkpt>
      <trkpt lat="42.92745" lon="-8.205865">
        <time>2022-07-15T06:25:56Z</time>
      </trkpt>
      <trkpt lat="42.927456" lon="-8.205927">
        <time>2022-07-15T06:26:00Z</time>
      </trkpt>
      <trkpt lat="42.927475" lon="-8.206009">
        <time>2022-07-15T06:26:06Z</time>
      </trkpt>
      <trkpt lat="42.92749" lon="-8.206074">
        <time>2022-07-15T06:26:10Z</time>
      </trkpt>
      <trkpt lat="42.927505" lon="-8.206157">
        <time>2022-07-15T06:26:16Z</time>
      </trkpt>
      <trkpt lat="42.92751" lon="-8.206225">
        <time>2022-07-15T06:26:20Z</time>
      </trkpt>
      <trkpt lat="42.92751" lon="-8.206301">
        <time>2022-07-15T06:26:25Z</time>
      </trkpt>
      <trkpt lat="42.927513" lon="-8.206362">
        <time>2022-07-15T06:26:29Z</time>
      </trkpt>
      <trkpt lat="42.92751" lon="-8.2064495">
        <time>2022-07-15T06:26:35Z</time>
      </trkpt>
      <trkpt lat="42.927505" lon="-8.206528">
        <time>2022-07-15T06:26:40Z</time>
      </trkpt>
      <trkpt lat="42.927498" lon="-8.206603">
        <time>2022-07-15T06:26:45Z</time>
      </trkpt>
      <trkpt lat="42.9275" lon="-8.206662">
        <time>2022-07-15T06:26:50Z</time>
      </trkpt>
      <trkpt lat="42.927532" lon="-8.206729">
        <time>2022-07-15T06:26:55Z</time>
      </trkpt>
      <trkpt lat="42.92755" lon="-8.206822">
        <time>2022-07-15T06:27:00Z</time>
      </trkpt>
      <trkpt lat="42.927567" lon="-8.206894">
        <time>2022-07-15T06:27:04Z</time>
      </trkpt>
      <trkpt lat="42.92759" lon="-8.206959">
        <time>2022-07-15T06:27:09Z</time>
      </trkpt>
      <trkpt lat="42.927597" lon="-8.207028">
        <time>2022-07-15T06:27:14Z</time>
      </trkpt>
      <trkpt lat="42.927597" lon="-8.207114">
        <time>2022-07-15T06:27:19Z</time>
      </trkpt>
      <trkpt lat="42.927593" lon="-8.207185">
        <time>2022-07-15T06:27:23Z</time>
      </trkpt>
      <trkpt lat="42.927586" lon="-8.207253">
        <time>2022-07-15T06:27:27Z</time>
      </trkpt>
      <trkpt lat="42.92759" lon="-8.207338">
        <time>2022-07-15T06:27:32Z</time>
      </trkpt>
      <trkpt lat="42.927597" lon="-8.207417">
        <time>2022-07-15T06:27:37Z</time>
      </trkpt>
      <trkpt lat="42.92761" lon="-8.20749">
        <time>2022-07-15T06:27:42Z</time>
      </trkpt>
      <trkpt lat="42.92762" lon="-8.207566">
        <time>2022-07-15T06:27:48Z</time>
      </trkpt>
      <trkpt lat="42.927624" lon="-8.207634">
        <time>2022-07-15T06:27:53Z</time>
      </trkpt>
      <trkpt lat="42.92761" lon="-8.207714">
        <time>2022-07-15T06:27:59Z</time>
      </trkpt>
      <trkpt lat="42.92757" lon="-8.20778">
        <time>2022-07-15T06:28:05Z</time>
      </trkpt>
      <trkpt lat="42.927578" lon="-8.207859">
        <time>2022-07-15T06:28:10Z</time>
      </trkpt>
      <trkpt lat="42.927578" lon="-8.20784">
        <time>2022-07-15T06:28:20Z</time>
      </trkpt>
      <trkpt lat="42.92759" lon="-8.207872">
        <time>2022-07-15T06:28:30Z</time>
      </trkpt>
      <trkpt lat="42.9276" lon="-8.207963">
        <time>2022-07-15T06:28:36Z</time>
      </trkpt>
      <trkpt lat="42.927624" lon="-8.208033">
        <time>2022-07-15T06:28:41Z</time>
      </trkpt>
      <trkpt lat="42.927643" lon="-8.208105">
        <time>2022-07-15T06:28:48Z</time>
      </trkpt>
      <trkpt lat="42.927666" lon="-8.208171">
        <time>2022-07-15T06:28:53Z</time>
      </trkpt>
      <trkpt lat="42.9277" lon="-8.208239">
        <time>2022-07-15T06:28:58Z</time>
      </trkpt>
      <trkpt lat="42.927727" lon="-8.208286">
        <time>2022-07-15T06:29:02Z</time>
      </trkpt>
      <trkpt lat="42.927765" lon="-8.208347">
        <time>2022-07-15T06:29:07Z</time>
      </trkpt>
      <trkpt lat="42.927795" lon="-8.20842">
        <time>2022-07-15T06:29:11Z</time>
      </trkpt>
      <trkpt lat="42.927826" lon="-8.208477">
        <time>2022-07-15T06:29:15Z</time>
      </trkpt>
      <trkpt lat="42.92785" lon="-8.20853">
        <time>2022-07-15T06:29:19Z</time>
      </trkpt>
      <trkpt lat="42.927876" lon="-8.208598">
        <time>2022-07-15T06:29:24Z</time>
      </trkpt>
      <trkpt lat="42.92791" lon="-8.208651">
        <time>2022-07-15T06:29:29Z</time>
      </trkpt>
      <trkpt lat="42.927937" lon="-8.208706">
        <time>2022-07-15T06:29:35Z</time>
      </trkpt>
      <trkpt lat="42.927975" lon="-8.208768">
        <time>2022-07-15T06:29:40Z</time>
      </trkpt>
      <trkpt lat="42.928005" lon="-8.208827">
        <time>2022-07-15T06:29:46Z</time>
      </trkpt>
      <trkpt lat="42.928036" lon="-8.208888">
        <time>2022-07-15T06:29:51Z</time>
      </trkpt>
      <trkpt lat="42.928062" lon="-8.208941">
        <time>2022-07-15T06:29:56Z</time>
      </trkpt>
      <trkpt lat="42.928097" lon="-8.209001">
        <time>2022-07-15T06:30:02Z</time>
      </trkpt>
      <trkpt lat="42.928127" lon="-8.209063">
        <time>2022-07-15T06:30:08Z</time>
      </trkpt>
      <trkpt lat="42.928158" lon="-8.209128">
        <time>2022-07-15T06:30:13Z</time>
      </trkpt>
      <trkpt lat="42.928173" lon="-8.209199">
        <time>2022-07-15T06:30:18Z</time>
      </trkpt>
      <trkpt lat="42.928196" lon="-8.209283">
        <time>2022-07-15T06:30:23Z</time>
      </trkpt>
      <trkpt lat="42.92821" lon="-8.209359">
        <time>2022-07-15T06:30:27Z</time>
      </trkpt>
      <trkpt lat="42.928234" lon="-8.2094345">
        <time>2022-07-15T06:30:32Z</time>
      </trkpt>
      <trkpt lat="42.928257" lon="-8.209498">
        <time>2022-07-15T06:30:37Z</time>
      </trkpt>
      <trkpt lat="42.928284" lon="-8.209556">
        <time>2022-07-15T06:30:42Z</time>
      </trkpt>
      <trkpt lat="42.92831" lon="-8.209629">
        <time>2022-07-15T06:30:47Z</time>
      </trkpt>
      <trkpt lat="42.92833" lon="-8.209703">
        <time>2022-07-15T06:30:52Z</time>
      </trkpt>
      <trkpt lat="42.928352" lon="-8.209762">
        <time>2022-07-15T06:30:57Z</time>
      </trkpt>
      <trkpt lat="42.928375" lon="-8.209825">
        <time>2022-07-15T06:31:02Z</time>
      </trkpt>
      <trkpt lat="42.928402" lon="-8.20989">
        <time>2022-07-15T06:31:08Z</time>
      </trkpt>
      <trkpt lat="42.928417" lon="-8.209968">
        <time>2022-07-15T06:31:14Z</time>
      </trkpt>
      <trkpt lat="42.92843" lon="-8.210037">
        <time>2022-07-15T06:31:18Z</time>
      </trkpt>
      <trkpt lat="42.928444" lon="-8.210101">
        <time>2022-07-15T06:31:22Z</time>
      </trkpt>
      <trkpt lat="42.928467" lon="-8.210165">
        <time>2022-07-15T06:31:27Z</time>
      </trkpt>
      <trkpt lat="42.9285" lon="-8.21023">
        <time>2022-07-15T06:31:34Z</time>
      </trkpt>
      <trkpt lat="42.92852" lon="-8.210293">
        <time>2022-07-15T06:31:40Z</time>
      </trkpt>
      <trkpt lat="42.928543" lon="-8.210373">
        <time>2022-07-15T06:31:46Z</time>
      </trkpt>
      <trkpt lat="42.92856" lon="-8.210445">
        <time>2022-07-15T06:31:51Z</time>
      </trkpt>
      <trkpt lat="42.928574" lon="-8.210499">
        <time>2022-07-15T06:31:57Z</time>
      </trkpt>
      <trkpt lat="42.928623" lon="-8.21055">
        <time>2022-07-15T06:32:29Z</time>
      </trkpt>
      <trkpt lat="42.928658" lon="-8.210849">
        <time>2022-07-15T06:34:21Z</time>
      </trkpt>
      <trkpt lat="42.928642" lon="-8.210939">
        <time>2022-07-15T06:34:27Z</time>
      </trkpt>
      <trkpt lat="42.92864" lon="-8.211007">
        <time>2022-07-15T06:34:32Z</time>
      </trkpt>
      <trkpt lat="42.928646" lon="-8.211085">
        <time>2022-07-15T06:34:38Z</time>
      </trkpt>
      <trkpt lat="42.928646" lon="-8.211159">
        <time>2022-07-15T06:34:43Z</time>
      </trkpt>
      <trkpt lat="42.928642" lon="-8.21124">
        <time>2022-07-15T06:34:48Z</time>
      </trkpt>
      <trkpt lat="42.92864" lon="-8.211317">
        <time>2022-07-15T06:34:53Z</time>
      </trkpt>
      <trkpt lat="42.928646" lon="-8.211395">
        <time>2022-07-15T06:34:59Z</time>
      </trkpt>
      <trkpt lat="42.92865" lon="-8.211471">
        <time>2022-07-15T06:35:05Z</time>
      </trkpt>
      <trkpt lat="42.928684" lon="-8.211667">
        <time>2022-07-15T06:35:48Z</time>
      </trkpt>
      <trkpt lat="42.928677" lon="-8.211739">
        <time>2022-07-15T06:35:54Z</time>
      </trkpt>
      <trkpt lat="42.928684" lon="-8.211818">
        <time>2022-07-15T06:36:01Z</time>
      </trkpt>
      <trkpt lat="42.92869" lon="-8.211884">
        <time>2022-07-15T06:36:08Z</time>
      </trkpt>
      <trkpt lat="42.928703" lon="-8.211967">
        <time>2022-07-15T06:36:14Z</time>
      </trkpt>
      <trkpt lat="42.928703" lon="-8.212038">
        <time>2022-07-15T06:36:20Z</time>
      </trkpt>
      <trkpt lat="42.928707" lon="-8.212114">
        <time>2022-07-15T06:36:26Z</time>
      </trkpt>
      <trkpt lat="42.928703" lon="-8.212188">
        <time>2022-07-15T06:36:33Z</time>
      </trkpt>
      <trkpt lat="42.928707" lon="-8.212267">
        <time>2022-07-15T06:36:39Z</time>
      </trkpt>
      <trkpt lat="42.928722" lon="-8.21234">
        <time>2022-07-15T06:36:45Z</time>
      </trkpt>
      <trkpt lat="42.92873" lon="-8.212416">
        <time>2022-07-15T06:36:50Z</time>
      </trkpt>
      <trkpt lat="42.92873" lon="-8.212494">
        <time>2022-07-15T06:36:55Z</time>
      </trkpt>
      <trkpt lat="42.928738" lon="-8.212558">
        <time>2022-07-15T06:37:00Z</time>
      </trkpt>
      <trkpt lat="42.92875" lon="-8.212631">
        <time>2022-07-15T06:37:06Z</time>
      </trkpt>
      <trkpt lat="42.928753" lon="-8.212712">
        <time>2022-07-15T06:37:12Z</time>
      </trkpt>
      <trkpt lat="42.928745" lon="-8.212792">
        <time>2022-07-15T06:37:17Z</time>
      </trkpt>
      <trkpt lat="42.92874" lon="-8.212861">
        <time>2022-07-15T06:37:23Z</time>
      </trkpt>
      <trkpt lat="42.928753" lon="-8.212936">
        <time>2022-07-15T06:37:28Z</time>
      </trkpt>
      <trkpt lat="42.928757" lon="-8.213019">
        <time>2022-07-15T06:37:34Z</time>
      </trkpt>
      <trkpt lat="42.928745" lon="-8.213091">
        <time>2022-07-15T06:37:39Z</time>
      </trkpt>
      <trkpt lat="42.92874" lon="-8.213164">
        <time>2022-07-15T06:37:48Z</time>
      </trkpt>
      <trkpt lat="42.928745" lon="-8.213239">
        <time>2022-07-15T06:37:55Z</time>
      </trkpt>
      <trkpt lat="42.92875" lon="-8.213323">
        <time>2022-07-15T06:38:01Z</time>
      </trkpt>
      <trkpt lat="42.928753" lon="-8.213395">
        <time>2022-07-15T06:38:06Z</time>
      </trkpt>
      <trkpt lat="42.928757" lon="-8.213473">
        <time>2022-07-15T06:38:12Z</time>
      </trkpt>
      <trkpt lat="42.928776" lon="-8.213553">
        <time>2022-07-15T06:38:18Z</time>
      </trkpt>
      <trkpt lat="42.928787" lon="-8.213635">
        <time>2022-07-15T06:38:23Z</time>
      </trkpt>
      <trkpt lat="42.92878" lon="-8.213713">
        <time>2022-07-15T06:38:28Z</time>
      </trkpt>
      <trkpt lat="42.92877" lon="-8.213782">
        <time>2022-07-15T06:38:33Z</time>
      </trkpt>
      <trkpt lat="42.928753" lon="-8.213842">
        <time>2022-07-15T06:38:37Z</time>
      </trkpt>
      <trkpt lat="42.928738" lon="-8.2139225">
        <time>2022-07-15T06:38:42Z</time>
      </trkpt>
      <trkpt lat="42.928722" lon="-8.213992">
        <time>2022-07-15T06:38:47Z</time>
      </trkpt>
      <trkpt lat="42.92871" lon="-8.214061">
        <time>2022-07-15T06:38:52Z</time>
      </trkpt>
      <trkpt lat="42.928688" lon="-8.214132">
        <time>2022-07-15T06:38:58Z</time>
      </trkpt>
      <trkpt lat="42.92866" lon="-8.214198">
        <time>2022-07-15T06:39:04Z</time>
      </trkpt>
      <trkpt lat="42.928658" lon="-8.214265">
        <time>2022-07-15T06:39:11Z</time>
      </trkpt>
      <trkpt lat="42.928627" lon="-8.214332">
        <time>2022-07-15T06:39:18Z</time>
      </trkpt>
      <trkpt lat="42.928593" lon="-8.214381">
        <time>2022-07-15T06:39:24Z</time>
      </trkpt>
      <trkpt lat="42.92856" lon="-8.214446">
        <time>2022-07-15T06:39:31Z</time>
      </trkpt>
      <trkpt lat="42.928535" lon="-8.214509">
        <time>2022-07-15T06:39:38Z</time>
      </trkpt>
      <trkpt lat="42.9285" lon="-8.214566">
        <time>2022-07-15T06:39:45Z</time>
      </trkpt>
      <trkpt lat="42.92848" lon="-8.214635">
        <time>2022-07-15T06:39:50Z</time>
      </trkpt>
      <trkpt lat="42.928448" lon="-8.214691">
        <time>2022-07-15T06:39:55Z</time>
      </trkpt>
      <trkpt lat="42.928413" lon="-8.214746">
        <time>2022-07-15T06:40:00Z</time>
      </trkpt>
      <trkpt lat="42.928383" lon="-8.214823">
        <time>2022-07-15T06:40:06Z</time>
      </trkpt>
      <trkpt lat="42.92836" lon="-8.214893">
        <time>2022-07-15T06:40:11Z</time>
      </trkpt>
      <trkpt lat="42.928345" lon="-8.214967">
        <time>2022-07-15T06:40:17Z</time>
      </trkpt>
      <trkpt lat="42.928318" lon="-8.215034">
        <time>2022-07-15T06:40:22Z</time>
      </trkpt>
      <trkpt lat="42.92829" lon="-8.2150955">
        <time>2022-07-15T06:40:27Z</time>
      </trkpt>
      <trkpt lat="42.92827" lon="-8.215158">
        <time>2022-07-15T06:40:32Z</time>
      </trkpt>
      <trkpt lat="42.928246" lon="-8.215232">
        <time>2022-07-15T06:40:38Z</time>
      </trkpt>
      <trkpt lat="42.928204" lon="-8.215294">
        <time>2022-07-15T06:40:43Z</time>
      </trkpt>
      <trkpt lat="42.928177" lon="-8.215355">
        <time>2022-07-15T06:40:48Z</time>
      </trkpt>
      <trkpt lat="42.92815" lon="-8.215417">
        <time>2022-07-15T06:40:52Z</time>
      </trkpt>
      <trkpt lat="42.928112" lon="-8.215486">
        <time>2022-07-15T06:40:57Z</time>
      </trkpt>
      <trkpt lat="42.928085" lon="-8.215552">
        <time>2022-07-15T06:41:02Z</time>
      </trkpt>
      <trkpt lat="42.928055" lon="-8.21562">
        <time>2022-07-15T06:41:07Z</time>
      </trkpt>
      <trkpt lat="42.928032" lon="-8.215681">
        <time>2022-07-15T06:41:12Z</time>
      </trkpt>
      <trkpt lat="42.928" lon="-8.215751">
        <time>2022-07-15T06:41:17Z</time>
      </trkpt>
      <trkpt lat="42.92797" lon="-8.215817">
        <time>2022-07-15T06:41:22Z</time>
      </trkpt>
      <trkpt lat="42.927948" lon="-8.215874">
        <time>2022-07-15T06:41:26Z</time>
      </trkpt>
      <trkpt lat="42.927917" lon="-8.215939">
        <time>2022-07-15T06:41:31Z</time>
      </trkpt>
      <trkpt lat="42.927887" lon="-8.215996">
        <time>2022-07-15T06:41:36Z</time>
      </trkpt>
      <trkpt lat="42.927853" lon="-8.216055">
        <time>2022-07-15T06:41:41Z</time>
      </trkpt>
      <trkpt lat="42.927826" lon="-8.216116">
        <time>2022-07-15T06:41:46Z</time>
      </trkpt>
      <trkpt lat="42.927803" lon="-8.216178">
        <time>2022-07-15T06:41:51Z</time>
      </trkpt>
      <trkpt lat="42.92777" lon="-8.216252">
        <time>2022-07-15T06:41:56Z</time>
      </trkpt>
      <trkpt lat="42.927742" lon="-8.216308">
        <time>2022-07-15T06:42:00Z</time>
      </trkpt>
      <trkpt lat="42.92772" lon="-8.216392">
        <time>2022-07-15T06:42:05Z</time>
      </trkpt>
      <trkpt lat="42.927696" lon="-8.216451">
        <time>2022-07-15T06:42:09Z</time>
      </trkpt>
      <trkpt lat="42.92767" lon="-8.216528">
        <time>2022-07-15T06:42:14Z</time>
      </trkpt>
      <trkpt lat="42.927647" lon="-8.216583">
        <time>2022-07-15T06:42:18Z</time>
      </trkpt>
      <trkpt lat="42.92762" lon="-8.216647">
        <time>2022-07-15T06:42:23Z</time>
      </trkpt>
      <trkpt lat="42.927593" lon="-8.216706">
        <time>2022-07-15T06:42:28Z</time>
      </trkpt>
      <trkpt lat="42.927563" lon="-8.2167845">
        <time>2022-07-15T06:42:33Z</time>
      </trkpt>
      <trkpt lat="42.927536" lon="-8.216846">
        <time>2022-07-15T06:42:37Z</time>
      </trkpt>
      <trkpt lat="42.92751" lon="-8.216919">
        <time>2022-07-15T06:42:42Z</time>
      </trkpt>
      <trkpt lat="42.927486" lon="-8.216979">
        <time>2022-07-15T06:42:46Z</time>
      </trkpt>
      <trkpt lat="42.92746" lon="-8.217054">
        <time>2022-07-15T06:42:51Z</time>
      </trkpt>
      <trkpt lat="42.927437" lon="-8.217119">
        <time>2022-07-15T06:42:55Z</time>
      </trkpt>
      <trkpt lat="42.92743" lon="-8.217192">
        <time>2022-07-15T06:43:00Z</time>
      </trkpt>
      <trkpt lat="42.92741" lon="-8.217267">
        <time>2022-07-15T06:43:05Z</time>
      </trkpt>
      <trkpt lat="42.927387" lon="-8.217325">
        <time>2022-07-15T06:43:10Z</time>
      </trkpt>
      <trkpt lat="42.927357" lon="-8.2174015">
        <time>2022-07-15T06:43:15Z</time>
      </trkpt>
      <trkpt lat="42.927334" lon="-8.21746">
        <time>2022-07-15T06:43:19Z</time>
      </trkpt>
      <trkpt lat="42.927307" lon="-8.217535">
        <time>2022-07-15T06:43:24Z</time>
      </trkpt>
      <trkpt lat="42.927288" lon="-8.217592">
        <time>2022-07-15T06:43:28Z</time>
      </trkpt>
      <trkpt lat="42.927265" lon="-8.217662">
        <time>2022-07-15T06:43:33Z</time>
      </trkpt>
      <trkpt lat="42.927235" lon="-8.217719">
        <time>2022-07-15T06:43:38Z</time>
      </trkpt>
      <trkpt lat="42.927216" lon="-8.217786">
        <time>2022-07-15T06:43:43Z</time>
      </trkpt>
      <trkpt lat="42.92718" lon="-8.21785">
        <time>2022-07-15T06:43:49Z</time>
      </trkpt>
      <trkpt lat="42.927155" lon="-8.217903">
        <time>2022-07-15T06:43:54Z</time>
      </trkpt>
      <trkpt lat="42.92711" lon="-8.217959">
        <time>2022-07-15T06:44:00Z</time>
      </trkpt>
      <trkpt lat="42.927063" lon="-8.217988">
        <time>2022-07-15T06:44:05Z</time>
      </trkpt>
      <trkpt lat="42.927017" lon="-8.218029">
        <time>2022-07-15T06:44:10Z</time>
      </trkpt>
      <trkpt lat="42.926975" lon="-8.21807">
        <time>2022-07-15T06:44:15Z</time>
      </trkpt>
      <trkpt lat="42.926956" lon="-8.218138">
        <time>2022-07-15T06:44:20Z</time>
      </trkpt>
      <trkpt lat="42.92692" lon="-8.218197">
        <time>2022-07-15T06:44:25Z</time>
      </trkpt>
      <trkpt lat="42.92691" lon="-8.218273">
        <time>2022-07-15T06:44:31Z</time>
      </trkpt>
      <trkpt lat="42.9269" lon="-8.218348">
        <time>2022-07-15T06:44:37Z</time>
      </trkpt>
      <trkpt lat="42.926884" lon="-8.218411">
        <time>2022-07-15T06:44:41Z</time>
      </trkpt>
      <trkpt lat="42.926865" lon="-8.218489">
        <time>2022-07-15T06:44:50Z</time>
      </trkpt>
      <trkpt lat="42.92685" lon="-8.218562">
        <time>2022-07-15T06:44:57Z</time>
      </trkpt>
      <trkpt lat="42.926823" lon="-8.21864">
        <time>2022-07-15T06:45:04Z</time>
      </trkpt>
      <trkpt lat="42.9268" lon="-8.218709">
        <time>2022-07-15T06:45:10Z</time>
      </trkpt>
      <trkpt lat="42.92679" lon="-8.218787">
        <time>2022-07-15T06:45:15Z</time>
      </trkpt>
      <trkpt lat="42.92677" lon="-8.218845">
        <time>2022-07-15T06:45:19Z</time>
      </trkpt>
      <trkpt lat="42.926758" lon="-8.218913">
        <time>2022-07-15T06:45:24Z</time>
      </trkpt>
      <trkpt lat="42.926743" lon="-8.21899">
        <time>2022-07-15T06:45:29Z</time>
      </trkpt>
      <trkpt lat="42.92672" lon="-8.219065">
        <time>2022-07-15T06:45:33Z</time>
      </trkpt>
      <trkpt lat="42.92669" lon="-8.219147">
        <time>2022-07-15T06:45:37Z</time>
      </trkpt>
      <trkpt lat="42.926678" lon="-8.219209">
        <time>2022-07-15T06:45:40Z</time>
      </trkpt>
      <trkpt lat="42.926666" lon="-8.219283">
        <time>2022-07-15T06:45:45Z</time>
      </trkpt>
      <trkpt lat="42.92664" lon="-8.219347">
        <time>2022-07-15T06:45:50Z</time>
      </trkpt>
      <trkpt lat="42.926624" lon="-8.21941">
        <time>2022-07-15T06:45:55Z</time>
      </trkpt>
      <trkpt lat="42.926605" lon="-8.219479">
        <time>2022-07-15T06:46:00Z</time>
      </trkpt>
      <trkpt lat="42.92659" lon="-8.219548">
        <time>2022-07-15T06:46:06Z</time>
      </trkpt>
      <trkpt lat="42.92658" lon="-8.219621">
        <time>2022-07-15T06:46:11Z</time>
      </trkpt>
      <trkpt lat="42.926548" lon="-8.21968">
        <time>2022-07-15T06:46:16Z</time>
      </trkpt>
      <trkpt lat="42.92652" lon="-8.219744">
        <time>2022-07-15T06:46:21Z</time>
      </trkpt>
      <trkpt lat="42.92651" lon="-8.219817">
        <time>2022-07-15T06:46:27Z</time>
      </trkpt>
      <trkpt lat="42.92649" lon="-8.219884">
        <time>2022-07-15T06:46:32Z</time>
      </trkpt>
      <trkpt lat="42.926476" lon="-8.219952">
        <time>2022-07-15T06:46:36Z</time>
      </trkpt>
      <trkpt lat="42.926468" lon="-8.220031">
        <time>2022-07-15T06:46:41Z</time>
      </trkpt>
      <trkpt lat="42.92646" lon="-8.2201">
        <time>2022-07-15T06:46:47Z</time>
      </trkpt>
      <trkpt lat="42.92644" lon="-8.220183">
        <time>2022-07-15T06:46:52Z</time>
      </trkpt>
      <trkpt lat="42.926422" lon="-8.220252">
        <time>2022-07-15T06:46:57Z</time>
      </trkpt>
      <trkpt lat="42.926407" lon="-8.220321">
        <time>2022-07-15T06:47:02Z</time>
      </trkpt>
      <trkpt lat="42.92638" lon="-8.220393">
        <time>2022-07-15T06:47:06Z</time>
      </trkpt>
      <trkpt lat="42.926357" lon="-8.220454">
        <time>2022-07-15T06:47:10Z</time>
      </trkpt>
      <trkpt lat="42.92633" lon="-8.220512">
        <time>2022-07-15T06:47:15Z</time>
      </trkpt>
      <trkpt lat="42.926308" lon="-8.220587">
        <time>2022-07-15T06:47:20Z</time>
      </trkpt>
      <trkpt lat="42.92629" lon="-8.220664">
        <time>2022-07-15T06:47:25Z</time>
      </trkpt>
      <trkpt lat="42.92627" lon="-8.220733">
        <time>2022-07-15T06:47:29Z</time>
      </trkpt>
      <trkpt lat="42.926247" lon="-8.220797">
        <time>2022-07-15T06:47:33Z</time>
      </trkpt>
      <trkpt lat="42.92623" lon="-8.220873">
        <time>2022-07-15T06:47:38Z</time>
      </trkpt>
      <trkpt lat="42.926216" lon="-8.220944">
        <time>2022-07-15T06:47:42Z</time>
      </trkpt>
      <trkpt lat="42.926205" lon="-8.221015">
        <time>2022-07-15T06:47:46Z</time>
      </trkpt>
      <trkpt lat="42.926186" lon="-8.221075">
        <time>2022-07-15T06:47:50Z</time>
      </trkpt>
      <trkpt lat="42.92616" lon="-8.221136">
        <time>2022-07-15T06:47:55Z</time>
      </trkpt>
      <trkpt lat="42.92614" lon="-8.22122">
        <time>2022-07-15T06:48:01Z</time>
      </trkpt>
      <trkpt lat="42.926117" lon="-8.221292">
        <time>2022-07-15T06:48:06Z</time>
      </trkpt>
      <trkpt lat="42.9261" lon="-8.221354">
        <time>2022-07-15T06:48:11Z</time>
      </trkpt>
      <trkpt lat="42.926083" lon="-8.221437">
        <time>2022-07-15T06:48:17Z</time>
      </trkpt>
      <trkpt lat="42.926067" lon="-8.221509">
        <time>2022-07-15T06:48:21Z</time>
      </trkpt>
      <trkpt lat="42.92605" lon="-8.22158">
        <time>2022-07-15T06:48:25Z</time>
      </trkpt>
      <trkpt lat="42.926025" lon="-8.221643">
        <time>2022-07-15T06:48:29Z</time>
      </trkpt>
      <trkpt lat="42.92601" lon="-8.221703">
        <time>2022-07-15T06:48:33Z</time>
      </trkpt>
      <trkpt lat="42.92599" lon="-8.221773">
        <time>2022-07-15T06:48:38Z</time>
      </trkpt>
      <trkpt lat="42.92597" lon="-8.22185">
        <time>2022-07-15T06:48:43Z</time>
      </trkpt>
      <trkpt lat="42.92595" lon="-8.221915">
        <time>2022-07-15T06:48:47Z</time>
      </trkpt>
      <trkpt lat="42.925934" lon="-8.221976">
        <time>2022-07-15T06:48:51Z</time>
      </trkpt>
      <trkpt lat="42.92592" lon="-8.222049">
        <time>2022-07-15T06:48:56Z</time>
      </trkpt>
      <trkpt lat="42.925907" lon="-8.222133">
        <time>2022-07-15T06:49:02Z</time>
      </trkpt>
      <trkpt lat="42.92591" lon="-8.222201">
        <time>2022-07-15T06:49:07Z</time>
      </trkpt>
      <trkpt lat="42.925907" lon="-8.222279">
        <time>2022-07-15T06:49:12Z</time>
      </trkpt>
      <trkpt lat="42.925915" lon="-8.222361">
        <time>2022-07-15T06:49:17Z</time>
      </trkpt>
      <trkpt lat="42.925922" lon="-8.222435">
        <time>2022-07-15T06:49:22Z</time>
      </trkpt>
      <trkpt lat="42.92593" lon="-8.222511">
        <time>2022-07-15T06:49:27Z</time>
      </trkpt>
      <trkpt lat="42.92593" lon="-8.2225895">
        <time>2022-07-15T06:49:32Z</time>
      </trkpt>
      <trkpt lat="42.925934" lon="-8.222664">
        <time>2022-07-15T06:49:37Z</time>
      </trkpt>
      <trkpt lat="42.925938" lon="-8.222748">
        <time>2022-07-15T06:49:42Z</time>
      </trkpt>
      <trkpt lat="42.925934" lon="-8.222821">
        <time>2022-07-15T06:49:46Z</time>
      </trkpt>
      <trkpt lat="42.925926" lon="-8.222888">
        <time>2022-07-15T06:49:50Z</time>
      </trkpt>
      <trkpt lat="42.925907" lon="-8.22297">
        <time>2022-07-15T06:49:55Z</time>
      </trkpt>
      <trkpt lat="42.92588" lon="-8.223048">
        <time>2022-07-15T06:50:00Z</time>
      </trkpt>
      <trkpt lat="42.925858" lon="-8.223114">
        <time>2022-07-15T06:50:04Z</time>
      </trkpt>
      <trkpt lat="42.92583" lon="-8.223176">
        <time>2022-07-15T06:50:08Z</time>
      </trkpt>
      <trkpt lat="42.9258" lon="-8.223261">
        <time>2022-07-15T06:50:14Z</time>
      </trkpt>
      <trkpt lat="42.925777" lon="-8.22332">
        <time>2022-07-15T06:50:18Z</time>
      </trkpt>
      <trkpt lat="42.925747" lon="-8.2233925">
        <time>2022-07-15T06:50:23Z</time>
      </trkpt>
      <trkpt lat="42.92572" lon="-8.223463">
        <time>2022-07-15T06:50:28Z</time>
      </trkpt>
      <trkpt lat="42.9257" lon="-8.223525">
        <time>2022-07-15T06:50:33Z</time>
      </trkpt>
      <trkpt lat="42.92568" lon="-8.223602">
        <time>2022-07-15T06:50:39Z</time>
      </trkpt>
      <trkpt lat="42.92565" lon="-8.223669">
        <time>2022-07-15T06:50:44Z</time>
      </trkpt>
      <trkpt lat="42.925625" lon="-8.223742">
        <time>2022-07-15T06:50:49Z</time>
      </trkpt>
      <trkpt lat="42.925606" lon="-8.223806">
        <time>2022-07-15T06:50:53Z</time>
      </trkpt>
      <trkpt lat="42.925583" lon="-8.223882">
        <time>2022-07-15T06:50:58Z</time>
      </trkpt>
      <trkpt lat="42.925564" lon="-8.223957">
        <time>2022-07-15T06:51:03Z</time>
      </trkpt>
      <trkpt lat="42.925545" lon="-8.224022">
        <time>2022-07-15T06:51:08Z</time>
      </trkpt>
      <trkpt lat="42.92552" lon="-8.224082">
        <time>2022-07-15T06:51:13Z</time>
      </trkpt>
      <trkpt lat="42.92549" lon="-8.22415">
        <time>2022-07-15T06:51:18Z</time>
      </trkpt>
      <trkpt lat="42.925453" lon="-8.224199">
        <time>2022-07-15T06:51:23Z</time>
      </trkpt>
      <trkpt lat="42.92542" lon="-8.224258">
        <time>2022-07-15T06:51:28Z</time>
      </trkpt>
      <trkpt lat="42.925385" lon="-8.224317">
        <time>2022-07-15T06:51:33Z</time>
      </trkpt>
      <trkpt lat="42.925358" lon="-8.22437">
        <time>2022-07-15T06:51:38Z</time>
      </trkpt>
      <trkpt lat="42.92532" lon="-8.224434">
        <time>2022-07-15T06:51:43Z</time>
      </trkpt>
      <trkpt lat="42.92528" lon="-8.224496">
        <time>2022-07-15T06:51:48Z</time>
      </trkpt>
      <trkpt lat="42.925247" lon="-8.224561">
        <time>2022-07-15T06:51:53Z</time>
      </trkpt>
      <trkpt lat="42.92522" lon="-8.224612">
        <time>2022-07-15T06:51:58Z</time>
      </trkpt>
      <trkpt lat="42.925182" lon="-8.224668">
        <time>2022-07-15T06:52:04Z</time>
      </trkpt>
      <trkpt lat="42.925137" lon="-8.224679">
        <time>2022-07-15T06:52:16Z</time>
      </trkpt>
      <trkpt lat="42.925156" lon="-8.224682">
        <time>2022-07-15T06:56:16Z</time>
      </trkpt>
      <trkpt lat="42.925156" lon="-8.224763">
        <time>2022-07-15T06:56:22Z</time>
      </trkpt>
      <trkpt lat="42.925148" lon="-8.224851">
        <time>2022-07-15T06:56:26Z</time>
      </trkpt>
      <trkpt lat="42.92512" lon="-8.224909">
        <time>2022-07-15T06:56:30Z</time>
      </trkpt>
      <trkpt lat="42.925087" lon="-8.224971">
        <time>2022-07-15T06:56:35Z</time>
      </trkpt>
      <trkpt lat="42.92506" lon="-8.225036">
        <time>2022-07-15T06:56:41Z</time>
      </trkpt>
      <trkpt lat="42.925037" lon="-8.225106">
        <time>2022-07-15T06:56:46Z</time>
      </trkpt>
      <trkpt lat="42.925022" lon="-8.225166">
        <time>2022-07-15T06:56:51Z</time>
      </trkpt>
      <trkpt lat="42.924984" lon="-8.225222">
        <time>2022-07-15T06:56:56Z</time>
      </trkpt>
      <trkpt lat="42.924965" lon="-8.225298">
        <time>2022-07-15T06:57:01Z</time>
      </trkpt>
      <trkpt lat="42.924942" lon="-8.225364">
        <time>2022-07-15T06:57:05Z</time>
      </trkpt>
      <trkpt lat="42.92491" lon="-8.225441">
        <time>2022-07-15T06:57:09Z</time>
      </trkpt>
      <trkpt lat="42.924896" lon="-8.225505">
        <time>2022-07-15T06:57:14Z</time>
      </trkpt>
      <trkpt lat="42.924885" lon="-8.225575">
        <time>2022-07-15T06:57:19Z</time>
      </trkpt>
      <trkpt lat="42.924854" lon="-8.225641">
        <time>2022-07-15T06:57:23Z</time>
      </trkpt>
      <trkpt lat="42.924824" lon="-8.225701">
        <time>2022-07-15T06:57:28Z</time>
      </trkpt>
      <trkpt lat="42.92479" lon="-8.225764">
        <time>2022-07-15T06:57:32Z</time>
      </trkpt>
      <trkpt lat="42.924763" lon="-8.2258215">
        <time>2022-07-15T06:57:35Z</time>
      </trkpt>
      <trkpt lat="42.92473" lon="-8.225886">
        <time>2022-07-15T06:57:40Z</time>
      </trkpt>
      <trkpt lat="42.92469" lon="-8.225953">
        <time>2022-07-15T06:57:44Z</time>
      </trkpt>
      <trkpt lat="42.92467" lon="-8.226013">
        <time>2022-07-15T06:57:48Z</time>
      </trkpt>
      <trkpt lat="42.924633" lon="-8.226081">
        <time>2022-07-15T06:57:53Z</time>
      </trkpt>
      <trkpt lat="42.9246" lon="-8.226156">
        <time>2022-07-15T06:57:58Z</time>
      </trkpt>
      <trkpt lat="42.924572" lon="-8.226222">
        <time>2022-07-15T06:58:03Z</time>
      </trkpt>
      <trkpt lat="42.924553" lon="-8.226286">
        <time>2022-07-15T06:58:07Z</time>
      </trkpt>
      <trkpt lat="42.92453" lon="-8.22635">
        <time>2022-07-15T06:58:11Z</time>
      </trkpt>
      <trkpt lat="42.924496" lon="-8.226415">
        <time>2022-07-15T06:58:16Z</time>
      </trkpt>
      <trkpt lat="42.92445" lon="-8.22646">
        <time>2022-07-15T06:58:20Z</time>
      </trkpt>
      <trkpt lat="42.924404" lon="-8.226509">
        <time>2022-07-15T06:58:25Z</time>
      </trkpt>
      <trkpt lat="42.924355" lon="-8.226551">
        <time>2022-07-15T06:58:31Z</time>
      </trkpt>
      <trkpt lat="42.924297" lon="-8.226599">
        <time>2022-07-15T06:58:36Z</time>
      </trkpt>
      <trkpt lat="42.92426" lon="-8.226644">
        <time>2022-07-15T06:58:40Z</time>
      </trkpt>
      <trkpt lat="42.92422" lon="-8.226677">
        <time>2022-07-15T06:58:44Z</time>
      </trkpt>
      <trkpt lat="42.924164" lon="-8.22672">
        <time>2022-07-15T06:58:49Z</time>
      </trkpt>
      <trkpt lat="42.924126" lon="-8.226758">
        <time>2022-07-15T06:58:53Z</time>
      </trkpt>
      <trkpt lat="42.92409" lon="-8.226812">
        <time>2022-07-15T06:58:58Z</time>
      </trkpt>
      <trkpt lat="42.924046" lon="-8.226874">
        <time>2022-07-15T06:59:03Z</time>
      </trkpt>
      <trkpt lat="42.923996" lon="-8.226932">
        <time>2022-07-15T06:59:08Z</time>
      </trkpt>
      <trkpt lat="42.923958" lon="-8.226974">
        <time>2022-07-15T06:59:12Z</time>
      </trkpt>
      <trkpt lat="42.92392" lon="-8.227032">
        <time>2022-07-15T06:59:17Z</time>
      </trkpt>
      <trkpt lat="42.923878" lon="-8.22708">
        <time>2022-07-15T06:59:21Z</time>
      </trkpt>
      <trkpt lat="42.923843" lon="-8.227148">
        <time>2022-07-15T06:59:25Z</time>
      </trkpt>
      <trkpt lat="42.923817" lon="-8.227207">
        <time>2022-07-15T06:59:29Z</time>
      </trkpt>
      <trkpt lat="42.923794" lon="-8.227264">
        <time>2022-07-15T06:59:33Z</time>
      </trkpt>
      <trkpt lat="42.92377" lon="-8.227336">
        <time>2022-07-15T06:59:38Z</time>
      </trkpt>
      <trkpt lat="42.92374" lon="-8.227399">
        <time>2022-07-15T06:59:43Z</time>
      </trkpt>
      <trkpt lat="42.92371" lon="-8.227455">
        <time>2022-07-15T06:59:47Z</time>
      </trkpt>
      <trkpt lat="42.923676" lon="-8.227527">
        <time>2022-07-15T06:59:52Z</time>
      </trkpt>
      <trkpt lat="42.92364" lon="-8.227589">
        <time>2022-07-15T06:59:56Z</time>
      </trkpt>
      <trkpt lat="42.92361" lon="-8.227644">
        <time>2022-07-15T07:00:00Z</time>
      </trkpt>
      <trkpt lat="42.923573" lon="-8.2277">
        <time>2022-07-15T07:00:05Z</time>
      </trkpt>
      <trkpt lat="42.923553" lon="-8.227769">
        <time>2022-07-15T07:00:10Z</time>
      </trkpt>
      <trkpt lat="42.923527" lon="-8.227839">
        <time>2022-07-15T07:00:15Z</time>
      </trkpt>
      <trkpt lat="42.923492" lon="-8.227911">
        <time>2022-07-15T07:00:20Z</time>
      </trkpt>
      <trkpt lat="42.923462" lon="-8.227982">
        <time>2022-07-15T07:00:25Z</time>
      </trkpt>
      <trkpt lat="42.92343" lon="-8.228036">
        <time>2022-07-15T07:00:29Z</time>
      </trkpt>
      <trkpt lat="42.9234" lon="-8.228101">
        <time>2022-07-15T07:00:34Z</time>
      </trkpt>
      <trkpt lat="42.92337" lon="-8.2281475">
        <time>2022-07-15T07:00:39Z</time>
      </trkpt>
      <trkpt lat="42.923336" lon="-8.228208">
        <time>2022-07-15T07:00:44Z</time>
      </trkpt>
      <trkpt lat="42.923298" lon="-8.228273">
        <time>2022-07-15T07:00:50Z</time>
      </trkpt>
      <trkpt lat="42.923252" lon="-8.228336">
        <time>2022-07-15T07:00:56Z</time>
      </trkpt>
      <trkpt lat="42.92321" lon="-8.228396">
        <time>2022-07-15T07:01:02Z</time>
      </trkpt>
      <trkpt lat="42.923172" lon="-8.22845">
        <time>2022-07-15T07:01:07Z</time>
      </trkpt>
      <trkpt lat="42.923134" lon="-8.228499">
        <time>2022-07-15T07:01:12Z</time>
      </trkpt>
      <trkpt lat="42.92309" lon="-8.228562">
        <time>2022-07-15T07:01:18Z</time>
      </trkpt>
      <trkpt lat="42.92306" lon="-8.228612">
        <time>2022-07-15T07:01:24Z</time>
      </trkpt>
      <trkpt lat="42.923016" lon="-8.228678">
        <time>2022-07-15T07:01:30Z</time>
      </trkpt>
      <trkpt lat="42.92299" lon="-8.228736">
        <time>2022-07-15T07:01:34Z</time>
      </trkpt>
      <trkpt lat="42.92295" lon="-8.228788">
        <time>2022-07-15T07:01:39Z</time>
      </trkpt>
      <trkpt lat="42.922913" lon="-8.228847">
        <time>2022-07-15T07:01:44Z</time>
      </trkpt>
      <trkpt lat="42.922874" lon="-8.228901">
        <time>2022-07-15T07:01:48Z</time>
      </trkpt>
      <trkpt lat="42.922836" lon="-8.228943">
        <time>2022-07-15T07:01:52Z</time>
      </trkpt>
      <trkpt lat="42.922813" lon="-8.229011">
        <time>2022-07-15T07:01:58Z</time>
      </trkpt>
      <trkpt lat="42.922794" lon="-8.229073">
        <time>2022-07-15T07:02:04Z</time>
      </trkpt>
      <trkpt lat="42.92276" lon="-8.22914">
        <time>2022-07-15T07:02:10Z</time>
      </trkpt>
      <trkpt lat="42.92273" lon="-8.229205">
        <time>2022-07-15T07:02:15Z</time>
      </trkpt>
      <trkpt lat="42.922695" lon="-8.229269">
        <time>2022-07-15T07:02:20Z</time>
      </trkpt>
      <trkpt lat="42.92266" lon="-8.22934">
        <time>2022-07-15T07:02:25Z</time>
      </trkpt>
      <trkpt lat="42.922646" lon="-8.229417">
        <time>2022-07-15T07:02:29Z</time>
      </trkpt>
      <trkpt lat="42.922634" lon="-8.229482">
        <time>2022-07-15T07:02:33Z</time>
      </trkpt>
      <trkpt lat="42.922607" lon="-8.229568">
        <time>2022-07-15T07:02:38Z</time>
      </trkpt>
      <trkpt lat="42.922592" lon="-8.229629">
        <time>2022-07-15T07:02:42Z</time>
      </trkpt>
      <trkpt lat="42.922565" lon="-8.229715">
        <time>2022-07-15T07:02:47Z</time>
      </trkpt>
      <trkpt lat="42.922554" lon="-8.2297945">
        <time>2022-07-15T07:02:52Z</time>
      </trkpt>
      <trkpt lat="42.92253" lon="-8.229867">
        <time>2022-07-15T07:02:57Z</time>
      </trkpt>
      <trkpt lat="42.922516" lon="-8.229924">
        <time>2022-07-15T07:03:01Z</time>
      </trkpt>
      <trkpt lat="42.922455" lon="-8.229976">
        <time>2022-07-15T07:03:18Z</time>
      </trkpt>
      <trkpt lat="42.922417" lon="-8.230031">
        <time>2022-07-15T07:03:24Z</time>
      </trkpt>
      <trkpt lat="42.922382" lon="-8.230106">
        <time>2022-07-15T07:03:29Z</time>
      </trkpt>
      <trkpt lat="42.922356" lon="-8.230176">
        <time>2022-07-15T07:03:34Z</time>
      </trkpt>
      <trkpt lat="42.922325" lon="-8.230243">
        <time>2022-07-15T07:03:38Z</time>
      </trkpt>
      <trkpt lat="42.922302" lon="-8.230301">
        <time>2022-07-15T07:03:41Z</time>
      </trkpt>
      <trkpt lat="42.92228" lon="-8.230376">
        <time>2022-07-15T07:03:45Z</time>
      </trkpt>
      <trkpt lat="42.92227" lon="-8.23046">
        <time>2022-07-15T07:03:50Z</time>
      </trkpt>
      <trkpt lat="42.922256" lon="-8.230543">
        <time>2022-07-15T07:03:55Z</time>
      </trkpt>
      <trkpt lat="42.92223" lon="-8.230611">
        <time>2022-07-15T07:03:59Z</time>
      </trkpt>
      <trkpt lat="42.92221" lon="-8.230675">
        <time>2022-07-15T07:04:04Z</time>
      </trkpt>
      <trkpt lat="42.9222" lon="-8.230757">
        <time>2022-07-15T07:04:09Z</time>
      </trkpt>
      <trkpt lat="42.92218" lon="-8.230835">
        <time>2022-07-15T07:04:14Z</time>
      </trkpt>
      <trkpt lat="42.922165" lon="-8.2309065">
        <time>2022-07-15T07:04:19Z</time>
      </trkpt>
      <trkpt lat="42.92215" lon="-8.230974">
        <time>2022-07-15T07:04:24Z</time>
      </trkpt>
      <trkpt lat="42.92214" lon="-8.231053">
        <time>2022-07-15T07:04:30Z</time>
      </trkpt>
      <trkpt lat="42.922127" lon="-8.231116">
        <time>2022-07-15T07:04:35Z</time>
      </trkpt>
      <trkpt lat="42.92212" lon="-8.231196">
        <time>2022-07-15T07:04:42Z</time>
      </trkpt>
      <trkpt lat="42.922108" lon="-8.231259">
        <time>2022-07-15T07:04:47Z</time>
      </trkpt>
      <trkpt lat="42.922096" lon="-8.231331">
        <time>2022-07-15T07:04:53Z</time>
      </trkpt>
      <trkpt lat="42.92207" lon="-8.231397">
        <time>2022-07-15T07:04:58Z</time>
      </trkpt>
      <trkpt lat="42.922028" lon="-8.231454">
        <time>2022-07-15T07:05:03Z</time>
      </trkpt>
      <trkpt lat="42.921997" lon="-8.23151">
        <time>2022-07-15T07:05:07Z</time>
      </trkpt>
      <trkpt lat="42.921978" lon="-8.231581">
        <time>2022-07-15T07:05:13Z</time>
      </trkpt>
      <trkpt lat="42.92195" lon="-8.231635">
        <time>2022-07-15T07:05:20Z</time>
      </trkpt>
      <trkpt lat="42.9219" lon="-8.231685">
        <time>2022-07-15T07:05:26Z</time>
      </trkpt>
      <trkpt lat="42.921867" lon="-8.231733">
        <time>2022-07-15T07:05:30Z</time>
      </trkpt>
      <trkpt lat="42.921837" lon="-8.231794">
        <time>2022-07-15T07:05:34Z</time>
      </trkpt>
      <trkpt lat="42.921814" lon="-8.231861">
        <time>2022-07-15T07:05:39Z</time>
      </trkpt>
      <trkpt lat="42.921795" lon="-8.231923">
        <time>2022-07-15T07:05:44Z</time>
      </trkpt>
      <trkpt lat="42.92177" lon="-8.231992">
        <time>2022-07-15T07:05:50Z</time>
      </trkpt>
      <trkpt lat="42.921726" lon="-8.232061">
        <time>2022-07-15T07:05:56Z</time>
      </trkpt>
      <trkpt lat="42.921696" lon="-8.232121">
        <time>2022-07-15T07:06:01Z</time>
      </trkpt>
      <trkpt lat="42.92166" lon="-8.232187">
        <time>2022-07-15T07:06:05Z</time>
      </trkpt>
      <trkpt lat="42.92164" lon="-8.232244">
        <time>2022-07-15T07:06:09Z</time>
      </trkpt>
      <trkpt lat="42.921608" lon="-8.23231">
        <time>2022-07-15T07:06:14Z</time>
      </trkpt>
      <trkpt lat="42.921574" lon="-8.232368">
        <time>2022-07-15T07:06:19Z</time>
      </trkpt>
      <trkpt lat="42.92154" lon="-8.232422">
        <time>2022-07-15T07:06:24Z</time>
      </trkpt>
      <trkpt lat="42.921513" lon="-8.2324915">
        <time>2022-07-15T07:06:29Z</time>
      </trkpt>
      <trkpt lat="42.921494" lon="-8.232564">
        <time>2022-07-15T07:06:33Z</time>
      </trkpt>
      <trkpt lat="42.921474" lon="-8.23263">
        <time>2022-07-15T07:06:37Z</time>
      </trkpt>
      <trkpt lat="42.92145" lon="-8.232694">
        <time>2022-07-15T07:06:41Z</time>
      </trkpt>
      <trkpt lat="42.921425" lon="-8.232755">
        <time>2022-07-15T07:06:48Z</time>
      </trkpt>
      <trkpt lat="42.921375" lon="-8.232819">
        <time>2022-07-15T07:06:54Z</time>
      </trkpt>
      <trkpt lat="42.921333" lon="-8.232871">
        <time>2022-07-15T07:06:58Z</time>
      </trkpt>
      <trkpt lat="42.921295" lon="-8.232925">
        <time>2022-07-15T07:07:02Z</time>
      </trkpt>
      <trkpt lat="42.92126" lon="-8.232984">
        <time>2022-07-15T07:07:07Z</time>
      </trkpt>
      <trkpt lat="42.921227" lon="-8.233036">
        <time>2022-07-15T07:07:12Z</time>
      </trkpt>
      <trkpt lat="42.921192" lon="-8.233101">
        <time>2022-07-15T07:07:17Z</time>
      </trkpt>
      <trkpt lat="42.921154" lon="-8.233155">
        <time>2022-07-15T07:07:22Z</time>
      </trkpt>
      <trkpt lat="42.92114" lon="-8.233229">
        <time>2022-07-15T07:07:27Z</time>
      </trkpt>
      <trkpt lat="42.921104" lon="-8.23329">
        <time>2022-07-15T07:07:32Z</time>
      </trkpt>
      <trkpt lat="42.921078" lon="-8.23336">
        <time>2022-07-15T07:07:37Z</time>
      </trkpt>
      <trkpt lat="42.92105" lon="-8.233421">
        <time>2022-07-15T07:07:41Z</time>
      </trkpt>
      <trkpt lat="42.921017" lon="-8.233471">
        <time>2022-07-15T07:07:46Z</time>
      </trkpt>
      <trkpt lat="42.92098" lon="-8.233533">
        <time>2022-07-15T07:07:52Z</time>
      </trkpt>
      <trkpt lat="42.920944" lon="-8.233601">
        <time>2022-07-15T07:07:57Z</time>
      </trkpt>
      <trkpt lat="42.920933" lon="-8.233678">
        <time>2022-07-15T07:08:02Z</time>
      </trkpt>
      <trkpt lat="42.920933" lon="-8.233748">
        <time>2022-07-15T07:08:06Z</time>
      </trkpt>
      <trkpt lat="42.920914" lon="-8.233818">
        <time>2022-07-15T07:08:11Z</time>
      </trkpt>
      <trkpt lat="42.92089" lon="-8.233886">
        <time>2022-07-15T07:08:16Z</time>
      </trkpt>
      <trkpt lat="42.920876" lon="-8.233963">
        <time>2022-07-15T07:08:21Z</time>
      </trkpt>
      <trkpt lat="42.920868" lon="-8.234031">
        <time>2022-07-15T07:08:25Z</time>
      </trkpt>
      <trkpt lat="42.920856" lon="-8.234111">
        <time>2022-07-15T07:08:30Z</time>
      </trkpt>
      <trkpt lat="42.920853" lon="-8.234178">
        <time>2022-07-15T07:08:34Z</time>
      </trkpt>
      <trkpt lat="42.920845" lon="-8.234261">
        <time>2022-07-15T07:08:39Z</time>
      </trkpt>
      <trkpt lat="42.920837" lon="-8.234329">
        <time>2022-07-15T07:08:43Z</time>
      </trkpt>
      <trkpt lat="42.92082" lon="-8.234394">
        <time>2022-07-15T07:08:47Z</time>
      </trkpt>
      <trkpt lat="42.920803" lon="-8.234464">
        <time>2022-07-15T07:08:52Z</time>
      </trkpt>
      <trkpt lat="42.92078" lon="-8.234543">
        <time>2022-07-15T07:08:58Z</time>
      </trkpt>
      <trkpt lat="42.92077" lon="-8.234625">
        <time>2022-07-15T07:09:03Z</time>
      </trkpt>
      <trkpt lat="42.920746" lon="-8.234701">
        <time>2022-07-15T07:09:08Z</time>
      </trkpt>
      <trkpt lat="42.92072" lon="-8.234769">
        <time>2022-07-15T07:09:13Z</time>
      </trkpt>
      <trkpt lat="42.9207" lon="-8.234833">
        <time>2022-07-15T07:09:18Z</time>
      </trkpt>
      <trkpt lat="42.920662" lon="-8.234896">
        <time>2022-07-15T07:09:24Z</time>
      </trkpt>
      <trkpt lat="42.920628" lon="-8.234955">
        <time>2022-07-15T07:09:29Z</time>
      </trkpt>
      <trkpt lat="42.92061" lon="-8.235028">
        <time>2022-07-15T07:09:34Z</time>
      </trkpt>
      <trkpt lat="42.92058" lon="-8.2351">
        <time>2022-07-15T07:09:39Z</time>
      </trkpt>
      <trkpt lat="42.92055" lon="-8.235169">
        <time>2022-07-15T07:09:43Z</time>
      </trkpt>
      <trkpt lat="42.920525" lon="-8.235213">
        <time>2022-07-15T07:09:47Z</time>
      </trkpt>
      <trkpt lat="42.920486" lon="-8.2352705">
        <time>2022-07-15T07:09:53Z</time>
      </trkpt>
      <trkpt lat="42.920464" lon="-8.235352">
        <time>2022-07-15T07:09:58Z</time>
      </trkpt>
      <trkpt lat="42.920433" lon="-8.235425">
        <time>2022-07-15T07:10:02Z</time>
      </trkpt>
      <trkpt lat="42.920406" lon="-8.235477">
        <time>2022-07-15T07:10:05Z</time>
      </trkpt>
      <trkpt lat="42.920395" lon="-8.23555">
        <time>2022-07-15T07:10:09Z</time>
      </trkpt>
      <trkpt lat="42.920395" lon="-8.235623">
        <time>2022-07-15T07:10:13Z</time>
      </trkpt>
      <trkpt lat="42.920395" lon="-8.235704">
        <time>2022-07-15T07:10:17Z</time>
      </trkpt>
      <trkpt lat="42.920403" lon="-8.235772">
        <time>2022-07-15T07:10:21Z</time>
      </trkpt>
      <trkpt lat="42.920403" lon="-8.235846">
        <time>2022-07-15T07:10:26Z</time>
      </trkpt>
      <trkpt lat="42.9204" lon="-8.235909">
        <time>2022-07-15T07:10:33Z</time>
      </trkpt>
      <trkpt lat="42.920387" lon="-8.236003">
        <time>2022-07-15T07:10:41Z</time>
      </trkpt>
      <trkpt lat="42.920376" lon="-8.236073">
        <time>2022-07-15T07:10:47Z</time>
      </trkpt>
      <trkpt lat="42.92038" lon="-8.236155">
        <time>2022-07-15T07:10:56Z</time>
      </trkpt>
      <trkpt lat="42.920372" lon="-8.236234">
        <time>2022-07-15T07:11:01Z</time>
      </trkpt>
      <trkpt lat="42.920376" lon="-8.236313">
        <time>2022-07-15T07:11:06Z</time>
      </trkpt>
      <trkpt lat="42.92038" lon="-8.236379">
        <time>2022-07-15T07:11:11Z</time>
      </trkpt>
      <trkpt lat="42.92038" lon="-8.236459">
        <time>2022-07-15T07:11:17Z</time>
      </trkpt>
      <trkpt lat="42.920372" lon="-8.236524">
        <time>2022-07-15T07:11:22Z</time>
      </trkpt>
      <trkpt lat="42.920364" lon="-8.236599">
        <time>2022-07-15T07:11:27Z</time>
      </trkpt>
      <trkpt lat="42.920364" lon="-8.236683">
        <time>2022-07-15T07:11:32Z</time>
      </trkpt>
      <trkpt lat="42.920372" lon="-8.236756">
        <time>2022-07-15T07:11:37Z</time>
      </trkpt>
      <trkpt lat="42.920383" lon="-8.236824">
        <time>2022-07-15T07:11:42Z</time>
      </trkpt>
      <trkpt lat="42.92039" lon="-8.236904">
        <time>2022-07-15T07:11:48Z</time>
      </trkpt>
      <trkpt lat="42.920395" lon="-8.236971">
        <time>2022-07-15T07:11:52Z</time>
      </trkpt>
      <trkpt lat="42.92037" lon="-8.237031">
        <time>2022-07-15T07:11:57Z</time>
      </trkpt>
      <trkpt lat="42.920338" lon="-8.237093">
        <time>2022-07-15T07:12:02Z</time>
      </trkpt>
      <trkpt lat="42.92031" lon="-8.23715">
        <time>2022-07-15T07:12:07Z</time>
      </trkpt>
      <trkpt lat="42.92027" lon="-8.237211">
        <time>2022-07-15T07:12:13Z</time>
      </trkpt>
      <trkpt lat="42.92023" lon="-8.237251">
        <time>2022-07-15T07:12:18Z</time>
      </trkpt>
      <trkpt lat="42.920185" lon="-8.237306">
        <time>2022-07-15T07:12:23Z</time>
      </trkpt>
      <trkpt lat="42.92014" lon="-8.237346">
        <time>2022-07-15T07:12:27Z</time>
      </trkpt>
      <trkpt lat="42.920105" lon="-8.237416">
        <time>2022-07-15T07:12:46Z</time>
      </trkpt>
      <trkpt lat="42.920036" lon="-8.237445">
        <time>2022-07-15T07:12:51Z</time>
      </trkpt>
      <trkpt lat="42.919987" lon="-8.237464">
        <time>2022-07-15T07:12:55Z</time>
      </trkpt>
      <trkpt lat="42.919933" lon="-8.237465">
        <time>2022-07-15T07:12:59Z</time>
      </trkpt>
      <trkpt lat="42.91988" lon="-8.237482">
        <time>2022-07-15T07:13:03Z</time>
      </trkpt>
      <trkpt lat="42.919834" lon="-8.237497">
        <time>2022-07-15T07:13:08Z</time>
      </trkpt>
      <trkpt lat="42.919792" lon="-8.237548">
        <time>2022-07-15T07:13:14Z</time>
      </trkpt>
      <trkpt lat="42.91979" lon="-8.237629">
        <time>2022-07-15T07:13:19Z</time>
      </trkpt>
      <trkpt lat="42.919765" lon="-8.237697">
        <time>2022-07-15T07:13:24Z</time>
      </trkpt>
      <trkpt lat="42.919746" lon="-8.237778">
        <time>2022-07-15T07:13:29Z</time>
      </trkpt>
      <trkpt lat="42.919724" lon="-8.237846">
        <time>2022-07-15T07:13:33Z</time>
      </trkpt>
      <trkpt lat="42.91969" lon="-8.237915">
        <time>2022-07-15T07:13:38Z</time>
      </trkpt>
      <trkpt lat="42.919666" lon="-8.237978">
        <time>2022-07-15T07:13:43Z</time>
      </trkpt>
      <trkpt lat="42.919643" lon="-8.238042">
        <time>2022-07-15T07:13:48Z</time>
      </trkpt>
      <trkpt lat="42.91962" lon="-8.238108">
        <time>2022-07-15T07:13:53Z</time>
      </trkpt>
      <trkpt lat="42.919598" lon="-8.23817">
        <time>2022-07-15T07:13:58Z</time>
      </trkpt>
      <trkpt lat="42.91958" lon="-8.2382345">
        <time>2022-07-15T07:14:03Z</time>
      </trkpt>
      <trkpt lat="42.91955" lon="-8.238314">
        <time>2022-07-15T07:14:09Z</time>
      </trkpt>
      <trkpt lat="42.91952" lon="-8.238374">
        <time>2022-07-15T07:14:14Z</time>
      </trkpt>
      <trkpt lat="42.919483" lon="-8.238432">
        <time>2022-07-15T07:14:19Z</time>
      </trkpt>
      <trkpt lat="42.919464" lon="-8.238493">
        <time>2022-07-15T07:14:24Z</time>
      </trkpt>
      <trkpt lat="42.91943" lon="-8.238571">
        <time>2022-07-15T07:14:29Z</time>
      </trkpt>
      <trkpt lat="42.919388" lon="-8.238626">
        <time>2022-07-15T07:14:33Z</time>
      </trkpt>
      <trkpt lat="42.91935" lon="-8.23868">
        <time>2022-07-15T07:14:38Z</time>
      </trkpt>
      <trkpt lat="42.91931" lon="-8.238752">
        <time>2022-07-15T07:14:43Z</time>
      </trkpt>
      <trkpt lat="42.91929" lon="-8.238828">
        <time>2022-07-15T07:14:49Z</time>
      </trkpt>
      <trkpt lat="42.919266" lon="-8.238895">
        <time>2022-07-15T07:14:54Z</time>
      </trkpt>
      <trkpt lat="42.919243" lon="-8.238954">
        <time>2022-07-15T07:14:58Z</time>
      </trkpt>
      <trkpt lat="42.919212" lon="-8.239033">
        <time>2022-07-15T07:15:03Z</time>
      </trkpt>
      <trkpt lat="42.91919" lon="-8.239094">
        <time>2022-07-15T07:15:07Z</time>
      </trkpt>
      <trkpt lat="42.91917" lon="-8.239172">
        <time>2022-07-15T07:15:12Z</time>
      </trkpt>
      <trkpt lat="42.91915" lon="-8.239231">
        <time>2022-07-15T07:15:16Z</time>
      </trkpt>
      <trkpt lat="42.919117" lon="-8.239302">
        <time>2022-07-15T07:15:22Z</time>
      </trkpt>
      <trkpt lat="42.919086" lon="-8.239354">
        <time>2022-07-15T07:15:26Z</time>
      </trkpt>
      <trkpt lat="42.91905" lon="-8.239396">
        <time>2022-07-15T07:15:31Z</time>
      </trkpt>
      <trkpt lat="42.919014" lon="-8.239453">
        <time>2022-07-15T07:15:37Z</time>
      </trkpt>
      <trkpt lat="42.918953" lon="-8.239552">
        <time>2022-07-15T07:15:48Z</time>
      </trkpt>
      <trkpt lat="42.918922" lon="-8.239631">
        <time>2022-07-15T07:15:54Z</time>
      </trkpt>
      <trkpt lat="42.918896" lon="-8.239696">
        <time>2022-07-15T07:16:00Z</time>
      </trkpt>
      <trkpt lat="42.91887" lon="-8.239758">
        <time>2022-07-15T07:16:07Z</time>
      </trkpt>
      <trkpt lat="42.91883" lon="-8.239812">
        <time>2022-07-15T07:16:12Z</time>
      </trkpt>
      <trkpt lat="42.918785" lon="-8.239864">
        <time>2022-07-15T07:16:17Z</time>
      </trkpt>
      <trkpt lat="42.918743" lon="-8.239904">
        <time>2022-07-15T07:16:21Z</time>
      </trkpt>
      <trkpt lat="42.9187" lon="-8.239954">
        <time>2022-07-15T07:16:26Z</time>
      </trkpt>
      <trkpt lat="42.918663" lon="-8.239994">
        <time>2022-07-15T07:16:31Z</time>
      </trkpt>
      <trkpt lat="42.91862" lon="-8.240033">
        <time>2022-07-15T07:16:37Z</time>
      </trkpt>
      <trkpt lat="42.918568" lon="-8.240089">
        <time>2022-07-15T07:16:43Z</time>
      </trkpt>
      <trkpt lat="42.91852" lon="-8.240137">
        <time>2022-07-15T07:16:48Z</time>
      </trkpt>
      <trkpt lat="42.918484" lon="-8.240188">
        <time>2022-07-15T07:16:53Z</time>
      </trkpt>
      <trkpt lat="42.918446" lon="-8.24023">
        <time>2022-07-15T07:16:58Z</time>
      </trkpt>
      <trkpt lat="42.918407" lon="-8.240273">
        <time>2022-07-15T07:17:06Z</time>
      </trkpt>
      <trkpt lat="42.91835" lon="-8.240302">
        <time>2022-07-15T07:17:12Z</time>
      </trkpt>
      <trkpt lat="42.9183" lon="-8.240335">
        <time>2022-07-15T07:17:18Z</time>
      </trkpt>
      <trkpt lat="42.91825" lon="-8.240378">
        <time>2022-07-15T07:17:23Z</time>
      </trkpt>
      <trkpt lat="42.918217" lon="-8.240439">
        <time>2022-07-15T07:17:29Z</time>
      </trkpt>
      <trkpt lat="42.91818" lon="-8.240485">
        <time>2022-07-15T07:17:34Z</time>
      </trkpt>
      <trkpt lat="42.918144" lon="-8.240562">
        <time>2022-07-15T07:17:39Z</time>
      </trkpt>
      <trkpt lat="42.918118" lon="-8.240639">
        <time>2022-07-15T07:17:44Z</time>
      </trkpt>
      <trkpt lat="42.91809" lon="-8.240706">
        <time>2022-07-15T07:17:49Z</time>
      </trkpt>
      <trkpt lat="42.91808" lon="-8.240768">
        <time>2022-07-15T07:17:54Z</time>
      </trkpt>
      <trkpt lat="42.918068" lon="-8.240847">
        <time>2022-07-15T07:18:00Z</time>
      </trkpt>
      <trkpt lat="42.91806" lon="-8.240916">
        <time>2022-07-15T07:18:06Z</time>
      </trkpt>
      <trkpt lat="42.918037" lon="-8.240974">
        <time>2022-07-15T07:18:14Z</time>
      </trkpt>
      <trkpt lat="42.918007" lon="-8.24104">
        <time>2022-07-15T07:18:22Z</time>
      </trkpt>
      <trkpt lat="42.917973" lon="-8.241097">
        <time>2022-07-15T07:18:28Z</time>
      </trkpt>
      <trkpt lat="42.917965" lon="-8.241162">
        <time>2022-07-15T07:18:35Z</time>
      </trkpt>
      <trkpt lat="42.917927" lon="-8.241233">
        <time>2022-07-15T07:18:42Z</time>
      </trkpt>
      <trkpt lat="42.917896" lon="-8.241288">
        <time>2022-07-15T07:18:46Z</time>
      </trkpt>
      <trkpt lat="42.91786" lon="-8.241346">
        <time>2022-07-15T07:18:51Z</time>
      </trkpt>
      <trkpt lat="42.917816" lon="-8.241388">
        <time>2022-07-15T07:18:55Z</time>
      </trkpt>
      <trkpt lat="42.917786" lon="-8.24145">
        <time>2022-07-15T07:19:01Z</time>
      </trkpt>
      <trkpt lat="42.917755" lon="-8.241527">
        <time>2022-07-15T07:19:07Z</time>
      </trkpt>
      <trkpt lat="42.917747" lon="-8.241589">
        <time>2022-07-15T07:19:11Z</time>
      </trkpt>
      <trkpt lat="42.91775" lon="-8.241589">
        <time>2022-07-15T07:19:21Z</time>
      </trkpt>
      <trkpt lat="42.91776" lon="-8.241653">
        <time>2022-07-15T07:19:38Z</time>
      </trkpt>
      <trkpt lat="42.91775" lon="-8.24172">
        <time>2022-07-15T07:19:41Z</time>
      </trkpt>
      <trkpt lat="42.917755" lon="-8.241801">
        <time>2022-07-15T07:19:46Z</time>
      </trkpt>
      <trkpt lat="42.91778" lon="-8.241863">
        <time>2022-07-15T07:19:51Z</time>
      </trkpt>
      <trkpt lat="42.917816" lon="-8.241925">
        <time>2022-07-15T07:20:00Z</time>
      </trkpt>
      <trkpt lat="42.917847" lon="-8.241979">
        <time>2022-07-15T07:20:04Z</time>
      </trkpt>
      <trkpt lat="42.91789" lon="-8.242042">
        <time>2022-07-15T07:20:08Z</time>
      </trkpt>
      <trkpt lat="42.917908" lon="-8.242089">
        <time>2022-07-15T07:20:13Z</time>
      </trkpt>
      <trkpt lat="42.917896" lon="-8.242168">
        <time>2022-07-15T07:20:18Z</time>
      </trkpt>
      <trkpt lat="42.917892" lon="-8.242242">
        <time>2022-07-15T07:20:23Z</time>
      </trkpt>
      <trkpt lat="42.917927" lon="-8.242309">
        <time>2022-07-15T07:20:29Z</time>
      </trkpt>
      <trkpt lat="42.917957" lon="-8.242367">
        <time>2022-07-15T07:20:33Z</time>
      </trkpt>
      <trkpt lat="42.917988" lon="-8.242434">
        <time>2022-07-15T07:20:38Z</time>
      </trkpt>
      <trkpt lat="42.91801" lon="-8.2424965">
        <time>2022-07-15T07:20:44Z</time>
      </trkpt>
      <trkpt lat="42.918015" lon="-8.242563">
        <time>2022-07-15T07:20:50Z</time>
      </trkpt>
      <trkpt lat="42.918022" lon="-8.242651">
        <time>2022-07-15T07:21:13Z</time>
      </trkpt>
      <trkpt lat="42.91804" lon="-8.24273">
        <time>2022-07-15T07:21:17Z</time>
      </trkpt>
      <trkpt lat="42.91806" lon="-8.24275">
        <time>2022-07-15T07:21:39Z</time>
      </trkpt>
      <trkpt lat="42.918064" lon="-8.242673">
        <time>2022-07-15T07:23:32Z</time>
      </trkpt>
      <trkpt lat="42.918076" lon="-8.242728">
        <time>2022-07-15T07:25:54Z</time>
      </trkpt>
      <trkpt lat="42.91811" lon="-8.242814">
        <time>2022-07-15T07:25:59Z</time>
      </trkpt>
      <trkpt lat="42.91813" lon="-8.242882">
        <time>2022-07-15T07:26:03Z</time>
      </trkpt>
      <trkpt lat="42.91815" lon="-8.242937">
        <time>2022-07-15T07:26:07Z</time>
      </trkpt>
      <trkpt lat="42.918186" lon="-8.243">
        <time>2022-07-15T07:26:11Z</time>
      </trkpt>
      <trkpt lat="42.918224" lon="-8.243062">
        <time>2022-07-15T07:26:16Z</time>
      </trkpt>
      <trkpt lat="42.918262" lon="-8.24312">
        <time>2022-07-15T07:26:21Z</time>
      </trkpt>
      <trkpt lat="42.91827" lon="-8.243184">
        <time>2022-07-15T07:26:27Z</time>
      </trkpt>
      <trkpt lat="42.918247" lon="-8.243306">
        <time>2022-07-15T07:28:16Z</time>
      </trkpt>
      <trkpt lat="42.918205" lon="-8.243354">
        <time>2022-07-15T07:28:21Z</time>
      </trkpt>
      <trkpt lat="42.91805" lon="-8.243379">
        <time>2022-07-15T07:29:55Z</time>
      </trkpt>
      <trkpt lat="42.917984" lon="-8.243405">
        <time>2022-07-15T07:30:00Z</time>
      </trkpt>
      <trkpt lat="42.91794" lon="-8.24343">
        <time>2022-07-15T07:30:03Z</time>
      </trkpt>
      <trkpt lat="42.917915" lon="-8.243485">
        <time>2022-07-15T07:30:08Z</time>
      </trkpt>
      <trkpt lat="42.917934" lon="-8.243561">
        <time>2022-07-15T07:30:15Z</time>
      </trkpt>
      <trkpt lat="42.917957" lon="-8.243622">
        <time>2022-07-15T07:30:20Z</time>
      </trkpt>
      <trkpt lat="42.91798" lon="-8.243687">
        <time>2022-07-15T07:30:25Z</time>
      </trkpt>
      <trkpt lat="42.917984" lon="-8.243766">
        <time>2022-07-15T07:30:30Z</time>
      </trkpt>
      <trkpt lat="42.917973" lon="-8.243837">
        <time>2022-07-15T07:30:34Z</time>
      </trkpt>
      <trkpt lat="42.917976" lon="-8.243912">
        <time>2022-07-15T07:30:38Z</time>
      </trkpt>
      <trkpt lat="42.917995" lon="-8.243993">
        <time>2022-07-15T07:30:42Z</time>
      </trkpt>
      <trkpt lat="42.91799" lon="-8.244063">
        <time>2022-07-15T07:30:47Z</time>
      </trkpt>
      <trkpt lat="42.917984" lon="-8.244131">
        <time>2022-07-15T07:30:52Z</time>
      </trkpt>
      <trkpt lat="42.91798" lon="-8.244212">
        <time>2022-07-15T07:30:58Z</time>
      </trkpt>
      <trkpt lat="42.91798" lon="-8.244289">
        <time>2022-07-15T07:31:04Z</time>
      </trkpt>
      <trkpt lat="42.91796" lon="-8.244357">
        <time>2022-07-15T07:31:10Z</time>
      </trkpt>
      <trkpt lat="42.917927" lon="-8.244409">
        <time>2022-07-15T07:31:15Z</time>
      </trkpt>
      <trkpt lat="42.917908" lon="-8.244483">
        <time>2022-07-15T07:31:22Z</time>
      </trkpt>
      <trkpt lat="42.917892" lon="-8.244544">
        <time>2022-07-15T07:31:28Z</time>
      </trkpt>
      <trkpt lat="42.917877" lon="-8.244617">
        <time>2022-07-15T07:31:34Z</time>
      </trkpt>
      <trkpt lat="42.917847" lon="-8.244694">
        <time>2022-07-15T07:31:39Z</time>
      </trkpt>
      <trkpt lat="42.917824" lon="-8.244751">
        <time>2022-07-15T07:31:42Z</time>
      </trkpt>
      <trkpt lat="42.917824" lon="-8.244832">
        <time>2022-07-15T07:31:47Z</time>
      </trkpt>
      <trkpt lat="42.91784" lon="-8.244911">
        <time>2022-07-15T07:31:52Z</time>
      </trkpt>
      <trkpt lat="42.917843" lon="-8.244988">
        <time>2022-07-15T07:31:57Z</time>
      </trkpt>
      <trkpt lat="42.91783" lon="-8.245062">
        <time>2022-07-15T07:32:02Z</time>
      </trkpt>
      <trkpt lat="42.91782" lon="-8.245128">
        <time>2022-07-15T07:32:07Z</time>
      </trkpt>
      <trkpt lat="42.917805" lon="-8.245198">
        <time>2022-07-15T07:32:12Z</time>
      </trkpt>
      <trkpt lat="42.9178" lon="-8.245287">
        <time>2022-07-15T07:32:17Z</time>
      </trkpt>
      <trkpt lat="42.91781" lon="-8.245355">
        <time>2022-07-15T07:32:21Z</time>
      </trkpt>
      <trkpt lat="42.91781" lon="-8.245419">
        <time>2022-07-15T07:32:25Z</time>
      </trkpt>
      <trkpt lat="42.91779" lon="-8.245506">
        <time>2022-07-15T07:32:31Z</time>
      </trkpt>
      <trkpt lat="42.91779" lon="-8.245579">
        <time>2022-07-15T07:32:36Z</time>
      </trkpt>
      <trkpt lat="42.917793" lon="-8.245658">
        <time>2022-07-15T07:32:41Z</time>
      </trkpt>
      <trkpt lat="42.9178" lon="-8.245734">
        <time>2022-07-15T07:32:46Z</time>
      </trkpt>
      <trkpt lat="42.91782" lon="-8.245819">
        <time>2022-07-15T07:32:51Z</time>
      </trkpt>
      <trkpt lat="42.91785" lon="-8.245887">
        <time>2022-07-15T07:32:56Z</time>
      </trkpt>
      <trkpt lat="42.917862" lon="-8.24595">
        <time>2022-07-15T07:33:00Z</time>
      </trkpt>
      <trkpt lat="42.917877" lon="-8.246025">
        <time>2022-07-15T07:33:05Z</time>
      </trkpt>
      <trkpt lat="42.917892" lon="-8.246086">
        <time>2022-07-15T07:33:09Z</time>
      </trkpt>
      <trkpt lat="42.917915" lon="-8.246157">
        <time>2022-07-15T07:33:14Z</time>
      </trkpt>
      <trkpt lat="42.91794" lon="-8.246225">
        <time>2022-07-15T07:33:19Z</time>
      </trkpt>
      <trkpt lat="42.917953" lon="-8.246295">
        <time>2022-07-15T07:33:23Z</time>
      </trkpt>
      <trkpt lat="42.91796" lon="-8.246364">
        <time>2022-07-15T07:33:27Z</time>
      </trkpt>
      <trkpt lat="42.917973" lon="-8.24643">
        <time>2022-07-15T07:33:31Z</time>
      </trkpt>
      <trkpt lat="42.917988" lon="-8.246509">
        <time>2022-07-15T07:33:36Z</time>
      </trkpt>
      <trkpt lat="42.918003" lon="-8.246581">
        <time>2022-07-15T07:33:41Z</time>
      </trkpt>
      <trkpt lat="42.91801" lon="-8.246645">
        <time>2022-07-15T07:33:45Z</time>
      </trkpt>
      <trkpt lat="42.918022" lon="-8.246732">
        <time>2022-07-15T07:33:51Z</time>
      </trkpt>
      <trkpt lat="42.918037" lon="-8.246808">
        <time>2022-07-15T07:33:56Z</time>
      </trkpt>
      <trkpt lat="42.918053" lon="-8.2468815">
        <time>2022-07-15T07:34:02Z</time>
      </trkpt>
      <trkpt lat="42.918076" lon="-8.246954">
        <time>2022-07-15T07:34:07Z</time>
      </trkpt>
      <trkpt lat="42.918083" lon="-8.247022">
        <time>2022-07-15T07:34:11Z</time>
      </trkpt>
      <trkpt lat="42.91809" lon="-8.247104">
        <time>2022-07-15T07:34:17Z</time>
      </trkpt>
      <trkpt lat="42.918102" lon="-8.247187">
        <time>2022-07-15T07:34:23Z</time>
      </trkpt>
      <trkpt lat="42.918125" lon="-8.247265">
        <time>2022-07-15T07:34:29Z</time>
      </trkpt>
      <trkpt lat="42.918137" lon="-8.247335">
        <time>2022-07-15T07:34:33Z</time>
      </trkpt>
      <trkpt lat="42.918148" lon="-8.247406">
        <time>2022-07-15T07:34:37Z</time>
      </trkpt>
      <trkpt lat="42.918148" lon="-8.247482">
        <time>2022-07-15T07:34:41Z</time>
      </trkpt>
      <trkpt lat="42.91816" lon="-8.24756">
        <time>2022-07-15T07:34:45Z</time>
      </trkpt>
      <trkpt lat="42.918175" lon="-8.247642">
        <time>2022-07-15T07:34:50Z</time>
      </trkpt>
      <trkpt lat="42.918182" lon="-8.247711">
        <time>2022-07-15T07:34:54Z</time>
      </trkpt>
      <trkpt lat="42.918194" lon="-8.247792">
        <time>2022-07-15T07:34:59Z</time>
      </trkpt>
      <trkpt lat="42.918198" lon="-8.247857">
        <time>2022-07-15T07:35:03Z</time>
      </trkpt>
      <trkpt lat="42.91821" lon="-8.247931">
        <time>2022-07-15T07:35:08Z</time>
      </trkpt>
      <trkpt lat="42.918224" lon="-8.248011">
        <time>2022-07-15T07:35:13Z</time>
      </trkpt>
      <trkpt lat="42.91823" lon="-8.248086">
        <time>2022-07-15T07:35:18Z</time>
      </trkpt>
      <trkpt lat="42.918243" lon="-8.248167">
        <time>2022-07-15T07:35:22Z</time>
      </trkpt>
      <trkpt lat="42.91826" lon="-8.248237">
        <time>2022-07-15T07:35:26Z</time>
      </trkpt>
      <trkpt lat="42.918278" lon="-8.248305">
        <time>2022-07-15T07:35:30Z</time>
      </trkpt>
      <trkpt lat="42.918285" lon="-8.248366">
        <time>2022-07-15T07:35:34Z</time>
      </trkpt>
      <trkpt lat="42.91831" lon="-8.248435">
        <time>2022-07-15T07:35:38Z</time>
      </trkpt>
      <trkpt lat="42.91832" lon="-8.248514">
        <time>2022-07-15T07:35:43Z</time>
      </trkpt>
      <trkpt lat="42.91834" lon="-8.248577">
        <time>2022-07-15T07:35:47Z</time>
      </trkpt>
      <trkpt lat="42.91836" lon="-8.248647">
        <time>2022-07-15T07:35:52Z</time>
      </trkpt>
      <trkpt lat="42.91838" lon="-8.24871">
        <time>2022-07-15T07:35:56Z</time>
      </trkpt>
      <trkpt lat="42.9184" lon="-8.248783">
        <time>2022-07-15T07:36:01Z</time>
      </trkpt>
      <trkpt lat="42.918415" lon="-8.248844">
        <time>2022-07-15T07:36:05Z</time>
      </trkpt>
      <trkpt lat="42.918434" lon="-8.248919">
        <time>2022-07-15T07:36:10Z</time>
      </trkpt>
      <trkpt lat="42.918457" lon="-8.248998">
        <time>2022-07-15T07:36:15Z</time>
      </trkpt>
      <trkpt lat="42.918472" lon="-8.249078">
        <time>2022-07-15T07:36:20Z</time>
      </trkpt>
      <trkpt lat="42.91849" lon="-8.249159">
        <time>2022-07-15T07:36:25Z</time>
      </trkpt>
      <trkpt lat="42.918503" lon="-8.249238">
        <time>2022-07-15T07:36:30Z</time>
      </trkpt>
      <trkpt lat="42.91851" lon="-8.249309">
        <time>2022-07-15T07:36:34Z</time>
      </trkpt>
      <trkpt lat="42.918518" lon="-8.249387">
        <time>2022-07-15T07:36:39Z</time>
      </trkpt>
      <trkpt lat="42.91853" lon="-8.249471">
        <time>2022-07-15T07:36:44Z</time>
      </trkpt>
      <trkpt lat="42.918537" lon="-8.249536">
        <time>2022-07-15T07:36:48Z</time>
      </trkpt>
      <trkpt lat="42.918556" lon="-8.249608">
        <time>2022-07-15T07:36:53Z</time>
      </trkpt>
      <trkpt lat="42.91857" lon="-8.249677">
        <time>2022-07-15T07:36:57Z</time>
      </trkpt>
      <trkpt lat="42.918587" lon="-8.24975">
        <time>2022-07-15T07:37:02Z</time>
      </trkpt>
      <trkpt lat="42.918606" lon="-8.249817">
        <time>2022-07-15T07:37:06Z</time>
      </trkpt>
      <trkpt lat="42.918617" lon="-8.249886">
        <time>2022-07-15T07:37:11Z</time>
      </trkpt>
      <trkpt lat="42.91863" lon="-8.249964">
        <time>2022-07-15T07:37:16Z</time>
      </trkpt>
      <trkpt lat="42.91864" lon="-8.250037">
        <time>2022-07-15T07:37:21Z</time>
      </trkpt>
      <trkpt lat="42.91864" lon="-8.250117">
        <time>2022-07-15T07:37:27Z</time>
      </trkpt>
      <trkpt lat="42.91866" lon="-8.250181">
        <time>2022-07-15T07:37:31Z</time>
      </trkpt>
      <trkpt lat="42.91868" lon="-8.250249">
        <time>2022-07-15T07:37:35Z</time>
      </trkpt>
      <trkpt lat="42.91869" lon="-8.250323">
        <time>2022-07-15T07:37:39Z</time>
      </trkpt>
      <trkpt lat="42.918697" lon="-8.2504015">
        <time>2022-07-15T07:37:43Z</time>
      </trkpt>
      <trkpt lat="42.9187" lon="-8.250477">
        <time>2022-07-15T07:37:47Z</time>
      </trkpt>
      <trkpt lat="42.91871" lon="-8.250551">
        <time>2022-07-15T07:37:51Z</time>
      </trkpt>
      <trkpt lat="42.918716" lon="-8.250624">
        <time>2022-07-15T07:37:55Z</time>
      </trkpt>
      <trkpt lat="42.91872" lon="-8.250715">
        <time>2022-07-15T07:38:00Z</time>
      </trkpt>
      <trkpt lat="42.918747" lon="-8.25078">
        <time>2022-07-15T07:38:04Z</time>
      </trkpt>
      <trkpt lat="42.91877" lon="-8.25085">
        <time>2022-07-15T07:38:08Z</time>
      </trkpt>
      <trkpt lat="42.918797" lon="-8.250913">
        <time>2022-07-15T07:38:12Z</time>
      </trkpt>
      <trkpt lat="42.918827" lon="-8.250974">
        <time>2022-07-15T07:38:17Z</time>
      </trkpt>
      <trkpt lat="42.918854" lon="-8.251037">
        <time>2022-07-15T07:38:22Z</time>
      </trkpt>
      <trkpt lat="42.918877" lon="-8.251105">
        <time>2022-07-15T07:38:26Z</time>
      </trkpt>
      <trkpt lat="42.91889" lon="-8.251181">
        <time>2022-07-15T07:38:30Z</time>
      </trkpt>
      <trkpt lat="42.91892" lon="-8.251243">
        <time>2022-07-15T07:38:34Z</time>
      </trkpt>
      <trkpt lat="42.918945" lon="-8.251315">
        <time>2022-07-15T07:38:39Z</time>
      </trkpt>
      <trkpt lat="42.91898" lon="-8.251365">
        <time>2022-07-15T07:38:43Z</time>
      </trkpt>
      <trkpt lat="42.919006" lon="-8.25143">
        <time>2022-07-15T07:38:48Z</time>
      </trkpt>
      <trkpt lat="42.919044" lon="-8.2515">
        <time>2022-07-15T07:38:52Z</time>
      </trkpt>
      <trkpt lat="42.919067" lon="-8.251555">
        <time>2022-07-15T07:38:56Z</time>
      </trkpt>
      <trkpt lat="42.9191" lon="-8.251611">
        <time>2022-07-15T07:39:00Z</time>
      </trkpt>
      <trkpt lat="42.91913" lon="-8.251667">
        <time>2022-07-15T07:39:04Z</time>
      </trkpt>
      <trkpt lat="42.919167" lon="-8.251751">
        <time>2022-07-15T07:39:09Z</time>
      </trkpt>
      <trkpt lat="42.919193" lon="-8.251814">
        <time>2022-07-15T07:39:13Z</time>
      </trkpt>
      <trkpt lat="42.91923" lon="-8.2518835">
        <time>2022-07-15T07:39:18Z</time>
      </trkpt>
      <trkpt lat="42.91927" lon="-8.251951">
        <time>2022-07-15T07:39:23Z</time>
      </trkpt>
      <trkpt lat="42.919304" lon="-8.252004">
        <time>2022-07-15T07:39:26Z</time>
      </trkpt>
      <trkpt lat="42.919327" lon="-8.25206">
        <time>2022-07-15T07:39:30Z</time>
      </trkpt>
      <trkpt lat="42.919353" lon="-8.252126">
        <time>2022-07-15T07:39:35Z</time>
      </trkpt>
      <trkpt lat="42.91938" lon="-8.252198">
        <time>2022-07-15T07:39:40Z</time>
      </trkpt>
      <trkpt lat="42.9194" lon="-8.252262">
        <time>2022-07-15T07:39:44Z</time>
      </trkpt>
      <trkpt lat="42.91944" lon="-8.252329">
        <time>2022-07-15T07:39:50Z</time>
      </trkpt>
      <trkpt lat="42.919476" lon="-8.252378">
        <time>2022-07-15T07:39:55Z</time>
      </trkpt>
      <trkpt lat="42.9195" lon="-8.25244">
        <time>2022-07-15T07:39:59Z</time>
      </trkpt>
      <trkpt lat="42.919533" lon="-8.252501">
        <time>2022-07-15T07:40:04Z</time>
      </trkpt>
      <trkpt lat="42.91957" lon="-8.252564">
        <time>2022-07-15T07:40:09Z</time>
      </trkpt>
      <trkpt lat="42.9196" lon="-8.252625">
        <time>2022-07-15T07:40:13Z</time>
      </trkpt>
      <trkpt lat="42.91963" lon="-8.252678">
        <time>2022-07-15T07:40:18Z</time>
      </trkpt>
      <trkpt lat="42.919662" lon="-8.252738">
        <time>2022-07-15T07:40:23Z</time>
      </trkpt>
      <trkpt lat="42.91971" lon="-8.252794">
        <time>2022-07-15T07:40:28Z</time>
      </trkpt>
      <trkpt lat="42.919754" lon="-8.252819">
        <time>2022-07-15T07:40:32Z</time>
      </trkpt>
      <trkpt lat="42.919807" lon="-8.252865">
        <time>2022-07-15T07:40:37Z</time>
      </trkpt>
      <trkpt lat="42.919857" lon="-8.252902">
        <time>2022-07-15T07:40:41Z</time>
      </trkpt>
      <trkpt lat="42.91991" lon="-8.252936">
        <time>2022-07-15T07:40:45Z</time>
      </trkpt>
      <trkpt lat="42.91996" lon="-8.252974">
        <time>2022-07-15T07:40:50Z</time>
      </trkpt>
      <trkpt lat="42.920006" lon="-8.253014">
        <time>2022-07-15T07:40:55Z</time>
      </trkpt>
      <trkpt lat="42.92006" lon="-8.253056">
        <time>2022-07-15T07:41:01Z</time>
      </trkpt>
      <trkpt lat="42.920113" lon="-8.253097">
        <time>2022-07-15T07:41:07Z</time>
      </trkpt>
      <trkpt lat="42.920174" lon="-8.253118">
        <time>2022-07-15T07:41:12Z</time>
      </trkpt>
      <trkpt lat="42.920223" lon="-8.253132">
        <time>2022-07-15T07:41:16Z</time>
      </trkpt>
      <trkpt lat="42.920273" lon="-8.253157">
        <time>2022-07-15T07:41:21Z</time>
      </trkpt>
      <trkpt lat="42.920322" lon="-8.253182">
        <time>2022-07-15T07:41:25Z</time>
      </trkpt>
      <trkpt lat="42.920376" lon="-8.253208">
        <time>2022-07-15T07:41:30Z</time>
      </trkpt>
      <trkpt lat="42.920437" lon="-8.253254">
        <time>2022-07-15T07:41:35Z</time>
      </trkpt>
      <trkpt lat="42.920475" lon="-8.253298">
        <time>2022-07-15T07:41:38Z</time>
      </trkpt>
      <trkpt lat="42.92051" lon="-8.253345">
        <time>2022-07-15T07:41:42Z</time>
      </trkpt>
      <trkpt lat="42.92055" lon="-8.253396">
        <time>2022-07-15T07:41:47Z</time>
      </trkpt>
      <trkpt lat="42.920593" lon="-8.253429">
        <time>2022-07-15T07:41:51Z</time>
      </trkpt>
      <trkpt lat="42.920654" lon="-8.253472">
        <time>2022-07-15T07:41:56Z</time>
      </trkpt>
      <trkpt lat="42.920685" lon="-8.253514">
        <time>2022-07-15T07:42:00Z</time>
      </trkpt>
      <trkpt lat="42.920727" lon="-8.253584">
        <time>2022-07-15T07:42:06Z</time>
      </trkpt>
      <trkpt lat="42.92076" lon="-8.253641">
        <time>2022-07-15T07:42:10Z</time>
      </trkpt>
      <trkpt lat="42.92082" lon="-8.253692">
        <time>2022-07-15T07:42:15Z</time>
      </trkpt>
      <trkpt lat="42.920856" lon="-8.253744">
        <time>2022-07-15T07:42:20Z</time>
      </trkpt>
      <trkpt lat="42.92089" lon="-8.253808">
        <time>2022-07-15T07:42:26Z</time>
      </trkpt>
      <trkpt lat="42.92093" lon="-8.253862">
        <time>2022-07-15T07:42:31Z</time>
      </trkpt>
      <trkpt lat="42.920963" lon="-8.253923">
        <time>2022-07-15T07:42:36Z</time>
      </trkpt>
      <trkpt lat="42.921013" lon="-8.253968">
        <time>2022-07-15T07:42:40Z</time>
      </trkpt>
      <trkpt lat="42.921055" lon="-8.254013">
        <time>2022-07-15T07:42:45Z</time>
      </trkpt>
      <trkpt lat="42.921093" lon="-8.254073">
        <time>2022-07-15T07:42:49Z</time>
      </trkpt>
      <trkpt lat="42.921112" lon="-8.254129">
        <time>2022-07-15T07:42:53Z</time>
      </trkpt>
      <trkpt lat="42.92115" lon="-8.254195">
        <time>2022-07-15T07:42:58Z</time>
      </trkpt>
      <trkpt lat="42.921185" lon="-8.25427">
        <time>2022-07-15T07:43:04Z</time>
      </trkpt>
      <trkpt lat="42.92121" lon="-8.254328">
        <time>2022-07-15T07:43:08Z</time>
      </trkpt>
      <trkpt lat="42.921238" lon="-8.254395">
        <time>2022-07-15T07:43:13Z</time>
      </trkpt>
      <trkpt lat="42.92127" lon="-8.2544565">
        <time>2022-07-15T07:43:19Z</time>
      </trkpt>
      <trkpt lat="42.921284" lon="-8.25452">
        <time>2022-07-15T07:43:24Z</time>
      </trkpt>
      <trkpt lat="42.92131" lon="-8.254584">
        <time>2022-07-15T07:43:29Z</time>
      </trkpt>
      <trkpt lat="42.92134" lon="-8.254648">
        <time>2022-07-15T07:43:34Z</time>
      </trkpt>
      <trkpt lat="42.921375" lon="-8.254711">
        <time>2022-07-15T07:43:39Z</time>
      </trkpt>
      <trkpt lat="42.9214" lon="-8.254781">
        <time>2022-07-15T07:43:44Z</time>
      </trkpt>
      <trkpt lat="42.921417" lon="-8.254843">
        <time>2022-07-15T07:43:48Z</time>
      </trkpt>
      <trkpt lat="42.92144" lon="-8.254906">
        <time>2022-07-15T07:43:52Z</time>
      </trkpt>
      <trkpt lat="42.921474" lon="-8.254974">
        <time>2022-07-15T07:43:57Z</time>
      </trkpt>
      <trkpt lat="42.921505" lon="-8.255033">
        <time>2022-07-15T07:44:01Z</time>
      </trkpt>
      <trkpt lat="42.921528" lon="-8.2550955">
        <time>2022-07-15T07:44:05Z</time>
      </trkpt>
      <trkpt lat="42.921547" lon="-8.25516">
        <time>2022-07-15T07:44:09Z</time>
      </trkpt>
      <trkpt lat="42.921574" lon="-8.255231">
        <time>2022-07-15T07:44:13Z</time>
      </trkpt>
      <trkpt lat="42.9216" lon="-8.255291">
        <time>2022-07-15T07:44:17Z</time>
      </trkpt>
      <trkpt lat="42.92162" lon="-8.255362">
        <time>2022-07-15T07:44:22Z</time>
      </trkpt>
      <trkpt lat="42.92165" lon="-8.255433">
        <time>2022-07-15T07:44:27Z</time>
      </trkpt>
      <trkpt lat="42.92167" lon="-8.255496">
        <time>2022-07-15T07:44:31Z</time>
      </trkpt>
      <trkpt lat="42.92169" lon="-8.255564">
        <time>2022-07-15T07:44:36Z</time>
      </trkpt>
      <trkpt lat="42.921715" lon="-8.255638">
        <time>2022-07-15T07:44:41Z</time>
      </trkpt>
      <trkpt lat="42.921734" lon="-8.255709">
        <time>2022-07-15T07:44:46Z</time>
      </trkpt>
      <trkpt lat="42.921764" lon="-8.25578">
        <time>2022-07-15T07:44:51Z</time>
      </trkpt>
      <trkpt lat="42.921787" lon="-8.255841">
        <time>2022-07-15T07:44:55Z</time>
      </trkpt>
      <trkpt lat="42.921814" lon="-8.2559">
        <time>2022-07-15T07:44:59Z</time>
      </trkpt>
      <trkpt lat="42.921844" lon="-8.255974">
        <time>2022-07-15T07:45:04Z</time>
      </trkpt>
      <trkpt lat="42.921867" lon="-8.256031">
        <time>2022-07-15T07:45:08Z</time>
      </trkpt>
      <trkpt lat="42.921898" lon="-8.256097">
        <time>2022-07-15T07:45:13Z</time>
      </trkpt>
      <trkpt lat="42.92192" lon="-8.256152">
        <time>2022-07-15T07:45:17Z</time>
      </trkpt>
      <trkpt lat="42.921955" lon="-8.256217">
        <time>2022-07-15T07:45:22Z</time>
      </trkpt>
      <trkpt lat="42.921978" lon="-8.2562685">
        <time>2022-07-15T07:45:29Z</time>
      </trkpt>
      <trkpt lat="42.922005" lon="-8.256342">
        <time>2022-07-15T07:45:34Z</time>
      </trkpt>
      <trkpt lat="42.92204" lon="-8.256404">
        <time>2022-07-15T07:45:39Z</time>
      </trkpt>
      <trkpt lat="42.922085" lon="-8.256454">
        <time>2022-07-15T07:45:43Z</time>
      </trkpt>
      <trkpt lat="42.922123" lon="-8.256508">
        <time>2022-07-15T07:45:47Z</time>
      </trkpt>
      <trkpt lat="42.922157" lon="-8.256568">
        <time>2022-07-15T07:45:51Z</time>
      </trkpt>
      <trkpt lat="42.922188" lon="-8.256626">
        <time>2022-07-15T07:45:55Z</time>
      </trkpt>
      <trkpt lat="42.922226" lon="-8.256697">
        <time>2022-07-15T07:45:59Z</time>
      </trkpt>
      <trkpt lat="42.922256" lon="-8.256772">
        <time>2022-07-15T07:46:03Z</time>
      </trkpt>
      <trkpt lat="42.922283" lon="-8.256831">
        <time>2022-07-15T07:46:07Z</time>
      </trkpt>
      <trkpt lat="42.922302" lon="-8.256887">
        <time>2022-07-15T07:46:11Z</time>
      </trkpt>
      <trkpt lat="42.92231" lon="-8.256966">
        <time>2022-07-15T07:46:16Z</time>
      </trkpt>
      <trkpt lat="42.92231" lon="-8.257045">
        <time>2022-07-15T07:46:21Z</time>
      </trkpt>
      <trkpt lat="42.922302" lon="-8.257116">
        <time>2022-07-15T07:46:25Z</time>
      </trkpt>
      <trkpt lat="42.922306" lon="-8.257185">
        <time>2022-07-15T07:46:29Z</time>
      </trkpt>
      <trkpt lat="42.922314" lon="-8.257269">
        <time>2022-07-15T07:46:34Z</time>
      </trkpt>
      <trkpt lat="42.92233" lon="-8.25735">
        <time>2022-07-15T07:46:39Z</time>
      </trkpt>
      <trkpt lat="42.922344" lon="-8.257416">
        <time>2022-07-15T07:46:43Z</time>
      </trkpt>
      <trkpt lat="42.92236" lon="-8.257483">
        <time>2022-07-15T07:46:47Z</time>
      </trkpt>
      <trkpt lat="42.922367" lon="-8.257566">
        <time>2022-07-15T07:46:52Z</time>
      </trkpt>
      <trkpt lat="42.922382" lon="-8.257655">
        <time>2022-07-15T07:46:57Z</time>
      </trkpt>
      <trkpt lat="42.922386" lon="-8.257734">
        <time>2022-07-15T07:47:01Z</time>
      </trkpt>
      <trkpt lat="42.922386" lon="-8.257803">
        <time>2022-07-15T07:47:05Z</time>
      </trkpt>
      <trkpt lat="42.922386" lon="-8.257868">
        <time>2022-07-15T07:47:09Z</time>
      </trkpt>
      <trkpt lat="42.922386" lon="-8.257956">
        <time>2022-07-15T07:47:13Z</time>
      </trkpt>
      <trkpt lat="42.922382" lon="-8.258024">
        <time>2022-07-15T07:47:17Z</time>
      </trkpt>
      <trkpt lat="42.922398" lon="-8.258108">
        <time>2022-07-15T07:47:23Z</time>
      </trkpt>
      <trkpt lat="42.922417" lon="-8.258176">
        <time>2022-07-15T07:47:28Z</time>
      </trkpt>
      <trkpt lat="42.922432" lon="-8.25825">
        <time>2022-07-15T07:47:33Z</time>
      </trkpt>
      <trkpt lat="42.922436" lon="-8.25833">
        <time>2022-07-15T07:47:38Z</time>
      </trkpt>
      <trkpt lat="42.92243" lon="-8.258397">
        <time>2022-07-15T07:47:42Z</time>
      </trkpt>
      <trkpt lat="42.92243" lon="-8.258476">
        <time>2022-07-15T07:47:47Z</time>
      </trkpt>
      <trkpt lat="42.922432" lon="-8.258563">
        <time>2022-07-15T07:47:53Z</time>
      </trkpt>
      <trkpt lat="42.922436" lon="-8.258636">
        <time>2022-07-15T07:47:58Z</time>
      </trkpt>
      <trkpt lat="42.922436" lon="-8.258712">
        <time>2022-07-15T07:48:03Z</time>
      </trkpt>
      <trkpt lat="42.92242" lon="-8.25878">
        <time>2022-07-15T07:48:08Z</time>
      </trkpt>
      <trkpt lat="42.92238" lon="-8.258829">
        <time>2022-07-15T07:48:13Z</time>
      </trkpt>
      <trkpt lat="42.922333" lon="-8.258881">
        <time>2022-07-15T07:48:18Z</time>
      </trkpt>
      <trkpt lat="42.92232" lon="-8.258935">
        <time>2022-07-15T07:48:22Z</time>
      </trkpt>
      <trkpt lat="42.922325" lon="-8.259021">
        <time>2022-07-15T07:48:29Z</time>
      </trkpt>
      <trkpt lat="42.922333" lon="-8.259085">
        <time>2022-07-15T07:48:33Z</time>
      </trkpt>
      <trkpt lat="42.922344" lon="-8.259166">
        <time>2022-07-15T07:48:39Z</time>
      </trkpt>
      <trkpt lat="42.922344" lon="-8.259231">
        <time>2022-07-15T07:48:43Z</time>
      </trkpt>
      <trkpt lat="42.92233" lon="-8.25931">
        <time>2022-07-15T07:48:47Z</time>
      </trkpt>
      <trkpt lat="42.922325" lon="-8.259377">
        <time>2022-07-15T07:48:51Z</time>
      </trkpt>
      <trkpt lat="42.922333" lon="-8.259451">
        <time>2022-07-15T07:48:55Z</time>
      </trkpt>
      <trkpt lat="42.922344" lon="-8.259523">
        <time>2022-07-15T07:48:59Z</time>
      </trkpt>
      <trkpt lat="42.922337" lon="-8.259588">
        <time>2022-07-15T07:49:03Z</time>
      </trkpt>
      <trkpt lat="42.92232" lon="-8.259671">
        <time>2022-07-15T07:49:08Z</time>
      </trkpt>
      <trkpt lat="42.922295" lon="-8.25975">
        <time>2022-07-15T07:49:13Z</time>
      </trkpt>
      <trkpt lat="42.922287" lon="-8.259823">
        <time>2022-07-15T07:49:17Z</time>
      </trkpt>
      <trkpt lat="42.92229" lon="-8.259911">
        <time>2022-07-15T07:49:22Z</time>
      </trkpt>
      <trkpt lat="42.9223" lon="-8.259983">
        <time>2022-07-15T07:49:26Z</time>
      </trkpt>
      <trkpt lat="42.922302" lon="-8.260058">
        <time>2022-07-15T07:49:31Z</time>
      </trkpt>
      <trkpt lat="42.922302" lon="-8.260139">
        <time>2022-07-15T07:49:36Z</time>
      </trkpt>
      <trkpt lat="42.922325" lon="-8.260208">
        <time>2022-07-15T07:49:41Z</time>
      </trkpt>
      <trkpt lat="42.922318" lon="-8.260283">
        <time>2022-07-15T07:49:45Z</time>
      </trkpt>
      <trkpt lat="42.922333" lon="-8.26035">
        <time>2022-07-15T07:49:49Z</time>
      </trkpt>
      <trkpt lat="42.92235" lon="-8.260421">
        <time>2022-07-15T07:49:54Z</time>
      </trkpt>
      <trkpt lat="42.92237" lon="-8.2604885">
        <time>2022-07-15T07:49:59Z</time>
      </trkpt>
      <trkpt lat="42.922382" lon="-8.260555">
        <time>2022-07-15T07:50:04Z</time>
      </trkpt>
      <trkpt lat="42.92241" lon="-8.260638">
        <time>2022-07-15T07:50:10Z</time>
      </trkpt>
      <trkpt lat="42.922424" lon="-8.260713">
        <time>2022-07-15T07:50:16Z</time>
      </trkpt>
      <trkpt lat="42.922447" lon="-8.260782">
        <time>2022-07-15T07:50:21Z</time>
      </trkpt>
      <trkpt lat="42.922462" lon="-8.260848">
        <time>2022-07-15T07:50:25Z</time>
      </trkpt>
      <trkpt lat="42.922455" lon="-8.26092">
        <time>2022-07-15T07:50:29Z</time>
      </trkpt>
      <trkpt lat="42.92245" lon="-8.261003">
        <time>2022-07-15T07:50:34Z</time>
      </trkpt>
      <trkpt lat="42.92246" lon="-8.261076">
        <time>2022-07-15T07:50:40Z</time>
      </trkpt>
      <trkpt lat="42.92247" lon="-8.261149">
        <time>2022-07-15T07:50:45Z</time>
      </trkpt>
      <trkpt lat="42.92248" lon="-8.261215">
        <time>2022-07-15T07:50:50Z</time>
      </trkpt>
      <trkpt lat="42.922493" lon="-8.261292">
        <time>2022-07-15T07:50:55Z</time>
      </trkpt>
      <trkpt lat="42.922504" lon="-8.261369">
        <time>2022-07-15T07:51:00Z</time>
      </trkpt>
      <trkpt lat="42.922504" lon="-8.261436">
        <time>2022-07-15T07:51:04Z</time>
      </trkpt>
      <trkpt lat="42.922504" lon="-8.261511">
        <time>2022-07-15T07:51:09Z</time>
      </trkpt>
      <trkpt lat="42.922516" lon="-8.261585">
        <time>2022-07-15T07:51:14Z</time>
      </trkpt>
      <trkpt lat="42.922516" lon="-8.261651">
        <time>2022-07-15T07:51:18Z</time>
      </trkpt>
      <trkpt lat="42.922527" lon="-8.261721">
        <time>2022-07-15T07:51:22Z</time>
      </trkpt>
      <trkpt lat="42.922558" lon="-8.261765">
        <time>2022-07-15T07:51:29Z</time>
      </trkpt>
      <trkpt lat="42.922558" lon="-8.26181">
        <time>2022-07-15T07:52:16Z</time>
      </trkpt>
      <trkpt lat="42.922626" lon="-8.261828">
        <time>2022-07-15T07:53:25Z</time>
      </trkpt>
      <trkpt lat="42.92267" lon="-8.261901">
        <time>2022-07-15T07:53:31Z</time>
      </trkpt>
      <trkpt lat="42.922718" lon="-8.261941">
        <time>2022-07-15T07:53:36Z</time>
      </trkpt>
      <trkpt lat="42.922745" lon="-8.262003">
        <time>2022-07-15T07:53:40Z</time>
      </trkpt>
      <trkpt lat="42.922764" lon="-8.262065">
        <time>2022-07-15T07:53:44Z</time>
      </trkpt>
      <trkpt lat="42.92279" lon="-8.262122">
        <time>2022-07-15T07:53:50Z</time>
      </trkpt>
      <trkpt lat="42.92282" lon="-8.262196">
        <time>2022-07-15T07:53:56Z</time>
      </trkpt>
      <trkpt lat="42.922844" lon="-8.262271">
        <time>2022-07-15T07:54:02Z</time>
      </trkpt>
      <trkpt lat="42.922874" lon="-8.262338">
        <time>2022-07-15T07:54:07Z</time>
      </trkpt>
      <trkpt lat="42.922894" lon="-8.262398">
        <time>2022-07-15T07:54:12Z</time>
      </trkpt>
      <trkpt lat="42.922897" lon="-8.262477">
        <time>2022-07-15T07:54:17Z</time>
      </trkpt>
      <trkpt lat="42.922916" lon="-8.262572">
        <time>2022-07-15T07:54:22Z</time>
      </trkpt>
      <trkpt lat="42.922928" lon="-8.262644">
        <time>2022-07-15T07:54:26Z</time>
      </trkpt>
      <trkpt lat="42.922955" lon="-8.262716">
        <time>2022-07-15T07:54:31Z</time>
      </trkpt>
      <trkpt lat="42.922966" lon="-8.262783">
        <time>2022-07-15T07:54:35Z</time>
      </trkpt>
      <trkpt lat="42.922974" lon="-8.262866">
        <time>2022-07-15T07:54:40Z</time>
      </trkpt>
      <trkpt lat="42.92299" lon="-8.262935">
        <time>2022-07-15T07:54:44Z</time>
      </trkpt>
      <trkpt lat="42.92301" lon="-8.26299">
        <time>2022-07-15T07:54:48Z</time>
      </trkpt>
      <trkpt lat="42.923027" lon="-8.263065">
        <time>2022-07-15T07:54:53Z</time>
      </trkpt>
      <trkpt lat="42.92305" lon="-8.263143">
        <time>2022-07-15T07:54:57Z</time>
      </trkpt>
      <trkpt lat="42.923073" lon="-8.263206">
        <time>2022-07-15T07:55:01Z</time>
      </trkpt>
      <trkpt lat="42.923088" lon="-8.263273">
        <time>2022-07-15T07:55:05Z</time>
      </trkpt>
      <trkpt lat="42.9231" lon="-8.263347">
        <time>2022-07-15T07:55:09Z</time>
      </trkpt>
      <trkpt lat="42.92311" lon="-8.26342">
        <time>2022-07-15T07:55:13Z</time>
      </trkpt>
      <trkpt lat="42.923134" lon="-8.26352">
        <time>2022-07-15T07:55:18Z</time>
      </trkpt>
      <trkpt lat="42.923153" lon="-8.263616">
        <time>2022-07-15T07:55:25Z</time>
      </trkpt>
      <trkpt lat="42.92317" lon="-8.26369">
        <time>2022-07-15T07:55:30Z</time>
      </trkpt>
      <trkpt lat="42.923187" lon="-8.263761">
        <time>2022-07-15T07:55:35Z</time>
      </trkpt>
      <trkpt lat="42.923206" lon="-8.263832">
        <time>2022-07-15T07:55:40Z</time>
      </trkpt>
      <trkpt lat="42.923225" lon="-8.263899">
        <time>2022-07-15T07:55:44Z</time>
      </trkpt>
      <trkpt lat="42.92325" lon="-8.263967">
        <time>2022-07-15T07:55:49Z</time>
      </trkpt>
      <trkpt lat="42.923267" lon="-8.264032">
        <time>2022-07-15T07:55:53Z</time>
      </trkpt>
      <trkpt lat="42.923286" lon="-8.264105">
        <time>2022-07-15T07:55:58Z</time>
      </trkpt>
      <trkpt lat="42.92331" lon="-8.264169">
        <time>2022-07-15T07:56:02Z</time>
      </trkpt>
      <trkpt lat="42.923325" lon="-8.264241">
        <time>2022-07-15T07:56:07Z</time>
      </trkpt>
      <trkpt lat="42.923344" lon="-8.264321">
        <time>2022-07-15T07:56:12Z</time>
      </trkpt>
      <trkpt lat="42.923363" lon="-8.264392">
        <time>2022-07-15T07:56:17Z</time>
      </trkpt>
      <trkpt lat="42.923378" lon="-8.264457">
        <time>2022-07-15T07:56:21Z</time>
      </trkpt>
      <trkpt lat="42.923397" lon="-8.264533">
        <time>2022-07-15T07:56:26Z</time>
      </trkpt>
      <trkpt lat="42.92341" lon="-8.264598">
        <time>2022-07-15T07:56:30Z</time>
      </trkpt>
      <trkpt lat="42.92343" lon="-8.264676">
        <time>2022-07-15T07:56:35Z</time>
      </trkpt>
      <trkpt lat="42.923443" lon="-8.264742">
        <time>2022-07-15T07:56:39Z</time>
      </trkpt>
      <trkpt lat="42.92346" lon="-8.264824">
        <time>2022-07-15T07:56:44Z</time>
      </trkpt>
      <trkpt lat="42.92347" lon="-8.264889">
        <time>2022-07-15T07:56:48Z</time>
      </trkpt>
      <trkpt lat="42.92348" lon="-8.264951">
        <time>2022-07-15T07:56:52Z</time>
      </trkpt>
      <trkpt lat="42.923496" lon="-8.265025">
        <time>2022-07-15T07:56:57Z</time>
      </trkpt>
      <trkpt lat="42.923523" lon="-8.265085">
        <time>2022-07-15T07:57:02Z</time>
      </trkpt>
      <trkpt lat="42.923546" lon="-8.265148">
        <time>2022-07-15T07:57:08Z</time>
      </trkpt>
      <trkpt lat="42.92356" lon="-8.26523">
        <time>2022-07-15T07:57:14Z</time>
      </trkpt>
      <trkpt lat="42.923565" lon="-8.265289">
        <time>2022-07-15T07:57:18Z</time>
      </trkpt>
      <trkpt lat="42.923576" lon="-8.265365">
        <time>2022-07-15T07:57:24Z</time>
      </trkpt>
      <trkpt lat="42.9236" lon="-8.265435">
        <time>2022-07-15T07:57:30Z</time>
      </trkpt>
      <trkpt lat="42.92361" lon="-8.265512">
        <time>2022-07-15T07:57:35Z</time>
      </trkpt>
      <trkpt lat="42.92362" lon="-8.265584">
        <time>2022-07-15T07:57:40Z</time>
      </trkpt>
      <trkpt lat="42.92361" lon="-8.265658">
        <time>2022-07-15T07:57:44Z</time>
      </trkpt>
      <trkpt lat="42.923588" lon="-8.2657385">
        <time>2022-07-15T07:57:49Z</time>
      </trkpt>
      <trkpt lat="42.923553" lon="-8.265806">
        <time>2022-07-15T07:57:53Z</time>
      </trkpt>
      <trkpt lat="42.923523" lon="-8.265877">
        <time>2022-07-15T07:57:58Z</time>
      </trkpt>
      <trkpt lat="42.92351" lon="-8.265954">
        <time>2022-07-15T07:58:03Z</time>
      </trkpt>
      <trkpt lat="42.923504" lon="-8.266029">
        <time>2022-07-15T07:58:08Z</time>
      </trkpt>
      <trkpt lat="42.923496" lon="-8.266107">
        <time>2022-07-15T07:58:13Z</time>
      </trkpt>
      <trkpt lat="42.923477" lon="-8.266187">
        <time>2022-07-15T07:58:18Z</time>
      </trkpt>
      <trkpt lat="42.923473" lon="-8.266247">
        <time>2022-07-15T07:58:22Z</time>
      </trkpt>
      <trkpt lat="42.923473" lon="-8.266322">
        <time>2022-07-15T07:58:28Z</time>
      </trkpt>
      <trkpt lat="42.923466" lon="-8.266403">
        <time>2022-07-15T07:58:33Z</time>
      </trkpt>
      <trkpt lat="42.92347" lon="-8.266484">
        <time>2022-07-15T07:58:37Z</time>
      </trkpt>
      <trkpt lat="42.92348" lon="-8.266561">
        <time>2022-07-15T07:58:41Z</time>
      </trkpt>
      <trkpt lat="42.9235" lon="-8.266629">
        <time>2022-07-15T07:58:45Z</time>
      </trkpt>
      <trkpt lat="42.923508" lon="-8.2667055">
        <time>2022-07-15T07:58:49Z</time>
      </trkpt>
      <trkpt lat="42.923527" lon="-8.266772">
        <time>2022-07-15T07:58:52Z</time>
      </trkpt>
      <trkpt lat="42.923515" lon="-8.266858">
        <time>2022-07-15T07:58:55Z</time>
      </trkpt>
      <trkpt lat="42.9235" lon="-8.266923">
        <time>2022-07-15T07:58:58Z</time>
      </trkpt>
      <trkpt lat="42.923492" lon="-8.266996">
        <time>2022-07-15T07:59:02Z</time>
      </trkpt>
      <trkpt lat="42.92349" lon="-8.267061">
        <time>2022-07-15T07:59:06Z</time>
      </trkpt>
      <trkpt lat="42.923515" lon="-8.267125">
        <time>2022-07-15T07:59:10Z</time>
      </trkpt>
      <trkpt lat="42.92354" lon="-8.267193">
        <time>2022-07-15T07:59:15Z</time>
      </trkpt>
      <trkpt lat="42.92355" lon="-8.267269">
        <time>2022-07-15T07:59:20Z</time>
      </trkpt>
      <trkpt lat="42.923576" lon="-8.26733">
        <time>2022-07-15T07:59:24Z</time>
      </trkpt>
      <trkpt lat="42.923595" lon="-8.267391">
        <time>2022-07-15T07:59:28Z</time>
      </trkpt>
      <trkpt lat="42.923622" lon="-8.267453">
        <time>2022-07-15T07:59:33Z</time>
      </trkpt>
      <trkpt lat="42.923664" lon="-8.267508">
        <time>2022-07-15T07:59:38Z</time>
      </trkpt>
      <trkpt lat="42.923702" lon="-8.267558">
        <time>2022-07-15T07:59:43Z</time>
      </trkpt>
      <trkpt lat="42.923744" lon="-8.267606">
        <time>2022-07-15T07:59:47Z</time>
      </trkpt>
      <trkpt lat="42.923775" lon="-8.267658">
        <time>2022-07-15T07:59:51Z</time>
      </trkpt>
      <trkpt lat="42.923817" lon="-8.267714">
        <time>2022-07-15T07:59:56Z</time>
      </trkpt>
      <trkpt lat="42.92386" lon="-8.267768">
        <time>2022-07-15T08:00:00Z</time>
      </trkpt>
      <trkpt lat="42.923897" lon="-8.267809">
        <time>2022-07-15T08:00:04Z</time>
      </trkpt>
      <trkpt lat="42.923935" lon="-8.267862">
        <time>2022-07-15T08:00:09Z</time>
      </trkpt>
      <trkpt lat="42.923973" lon="-8.267925">
        <time>2022-07-15T08:00:13Z</time>
      </trkpt>
      <trkpt lat="42.924004" lon="-8.267984">
        <time>2022-07-15T08:00:17Z</time>
      </trkpt>
      <trkpt lat="42.924053" lon="-8.268031">
        <time>2022-07-15T08:00:22Z</time>
      </trkpt>
      <trkpt lat="42.92409" lon="-8.268077">
        <time>2022-07-15T08:00:27Z</time>
      </trkpt>
      <trkpt lat="42.92413" lon="-8.268145">
        <time>2022-07-15T08:00:33Z</time>
      </trkpt>
      <trkpt lat="42.924156" lon="-8.268203">
        <time>2022-07-15T08:00:38Z</time>
      </trkpt>
      <trkpt lat="42.924187" lon="-8.268253">
        <time>2022-07-15T08:00:43Z</time>
      </trkpt>
      <trkpt lat="42.924244" lon="-8.268287">
        <time>2022-07-15T08:00:47Z</time>
      </trkpt>
      <trkpt lat="42.924282" lon="-8.268322">
        <time>2022-07-15T08:00:51Z</time>
      </trkpt>
      <trkpt lat="42.924335" lon="-8.268362">
        <time>2022-07-15T08:00:56Z</time>
      </trkpt>
      <trkpt lat="42.92438" lon="-8.268398">
        <time>2022-07-15T08:01:01Z</time>
      </trkpt>
      <trkpt lat="42.924423" lon="-8.2684555">
        <time>2022-07-15T08:01:06Z</time>
      </trkpt>
      <trkpt lat="42.924477" lon="-8.268497">
        <time>2022-07-15T08:01:10Z</time>
      </trkpt>
      <trkpt lat="42.92453" lon="-8.268532">
        <time>2022-07-15T08:01:14Z</time>
      </trkpt>
      <trkpt lat="42.924583" lon="-8.268552">
        <time>2022-07-15T08:01:17Z</time>
      </trkpt>
      <trkpt lat="42.92463" lon="-8.268582">
        <time>2022-07-15T08:01:20Z</time>
      </trkpt>
      <trkpt lat="42.924683" lon="-8.268609">
        <time>2022-07-15T08:01:24Z</time>
      </trkpt>
      <trkpt lat="42.924732" lon="-8.268648">
        <time>2022-07-15T08:01:30Z</time>
      </trkpt>
      <trkpt lat="42.924778" lon="-8.268696">
        <time>2022-07-15T08:01:35Z</time>
      </trkpt>
      <trkpt lat="42.924812" lon="-8.268749">
        <time>2022-07-15T08:01:39Z</time>
      </trkpt>
      <trkpt lat="42.92484" lon="-8.26881">
        <time>2022-07-15T08:01:44Z</time>
      </trkpt>
      <trkpt lat="42.924862" lon="-8.268884">
        <time>2022-07-15T08:01:50Z</time>
      </trkpt>
      <trkpt lat="42.924892" lon="-8.268955">
        <time>2022-07-15T08:01:55Z</time>
      </trkpt>
      <trkpt lat="42.92492" lon="-8.269032">
        <time>2022-07-15T08:02:00Z</time>
      </trkpt>
      <trkpt lat="42.92493" lon="-8.269106">
        <time>2022-07-15T08:02:05Z</time>
      </trkpt>
      <trkpt lat="42.924946" lon="-8.269183">
        <time>2022-07-15T08:02:10Z</time>
      </trkpt>
      <trkpt lat="42.924953" lon="-8.269259">
        <time>2022-07-15T08:02:14Z</time>
      </trkpt>
      <trkpt lat="42.92497" lon="-8.269337">
        <time>2022-07-15T08:02:18Z</time>
      </trkpt>
      <trkpt lat="42.92498" lon="-8.269409">
        <time>2022-07-15T08:02:23Z</time>
      </trkpt>
      <trkpt lat="42.925007" lon="-8.269485">
        <time>2022-07-15T08:02:28Z</time>
      </trkpt>
      <trkpt lat="42.925014" lon="-8.269554">
        <time>2022-07-15T08:02:32Z</time>
      </trkpt>
      <trkpt lat="42.925014" lon="-8.269641">
        <time>2022-07-15T08:02:36Z</time>
      </trkpt>
      <trkpt lat="42.925026" lon="-8.269731">
        <time>2022-07-15T08:02:40Z</time>
      </trkpt>
      <trkpt lat="42.925037" lon="-8.269803">
        <time>2022-07-15T08:02:44Z</time>
      </trkpt>
      <trkpt lat="42.92505" lon="-8.269882">
        <time>2022-07-15T08:02:49Z</time>
      </trkpt>
      <trkpt lat="42.925056" lon="-8.2699585">
        <time>2022-07-15T08:02:53Z</time>
      </trkpt>
      <trkpt lat="42.925056" lon="-8.27003">
        <time>2022-07-15T08:02:58Z</time>
      </trkpt>
      <trkpt lat="42.92506" lon="-8.270098">
        <time>2022-07-15T08:03:03Z</time>
      </trkpt>
      <trkpt lat="42.925083" lon="-8.270177">
        <time>2022-07-15T08:03:09Z</time>
      </trkpt>
      <trkpt lat="42.925087" lon="-8.270253">
        <time>2022-07-15T08:03:13Z</time>
      </trkpt>
      <trkpt lat="42.92511" lon="-8.270319">
        <time>2022-07-15T08:03:16Z</time>
      </trkpt>
      <trkpt lat="42.925137" lon="-8.270376">
        <time>2022-07-15T08:03:19Z</time>
      </trkpt>
      <trkpt lat="42.92515" lon="-8.270455">
        <time>2022-07-15T08:03:24Z</time>
      </trkpt>
      <trkpt lat="42.925175" lon="-8.270529">
        <time>2022-07-15T08:03:29Z</time>
      </trkpt>
      <trkpt lat="42.9252" lon="-8.270593">
        <time>2022-07-15T08:03:34Z</time>
      </trkpt>
      <trkpt lat="42.92522" lon="-8.270675">
        <time>2022-07-15T08:03:39Z</time>
      </trkpt>
      <trkpt lat="42.925247" lon="-8.270751">
        <time>2022-07-15T08:03:43Z</time>
      </trkpt>
      <trkpt lat="42.925255" lon="-8.27083">
        <time>2022-07-15T08:03:47Z</time>
      </trkpt>
      <trkpt lat="42.925274" lon="-8.270907">
        <time>2022-07-15T08:03:51Z</time>
      </trkpt>
      <trkpt lat="42.925278" lon="-8.270982">
        <time>2022-07-15T08:03:55Z</time>
      </trkpt>
      <trkpt lat="42.92527" lon="-8.271052">
        <time>2022-07-15T08:04:00Z</time>
      </trkpt>
      <trkpt lat="42.925274" lon="-8.271132">
        <time>2022-07-15T08:04:05Z</time>
      </trkpt>
      <trkpt lat="42.925274" lon="-8.271205">
        <time>2022-07-15T08:04:10Z</time>
      </trkpt>
      <trkpt lat="42.925293" lon="-8.271265">
        <time>2022-07-15T08:04:14Z</time>
      </trkpt>
      <trkpt lat="42.92531" lon="-8.271344">
        <time>2022-07-15T08:04:19Z</time>
      </trkpt>
      <trkpt lat="42.925304" lon="-8.271417">
        <time>2022-07-15T08:04:23Z</time>
      </trkpt>
      <trkpt lat="42.92531" lon="-8.271503">
        <time>2022-07-15T08:04:27Z</time>
      </trkpt>
      <trkpt lat="42.925316" lon="-8.271566">
        <time>2022-07-15T08:04:31Z</time>
      </trkpt>
      <trkpt lat="42.925335" lon="-8.271636">
        <time>2022-07-15T08:04:35Z</time>
      </trkpt>
      <trkpt lat="42.925346" lon="-8.271702">
        <time>2022-07-15T08:04:40Z</time>
      </trkpt>
      <trkpt lat="42.92537" lon="-8.271772">
        <time>2022-07-15T08:04:45Z</time>
      </trkpt>
      <trkpt lat="42.925396" lon="-8.271829">
        <time>2022-07-15T08:04:50Z</time>
      </trkpt>
      <trkpt lat="42.925426" lon="-8.271899">
        <time>2022-07-15T08:04:56Z</time>
      </trkpt>
      <trkpt lat="42.92544" lon="-8.271967">
        <time>2022-07-15T08:05:00Z</time>
      </trkpt>
      <trkpt lat="42.925446" lon="-8.272044">
        <time>2022-07-15T08:05:05Z</time>
      </trkpt>
      <trkpt lat="42.925446" lon="-8.272114">
        <time>2022-07-15T08:05:09Z</time>
      </trkpt>
      <trkpt lat="42.92546" lon="-8.272197">
        <time>2022-07-15T08:05:13Z</time>
      </trkpt>
      <trkpt lat="42.92548" lon="-8.272279">
        <time>2022-07-15T08:05:18Z</time>
      </trkpt>
      <trkpt lat="42.92551" lon="-8.272348">
        <time>2022-07-15T08:05:22Z</time>
      </trkpt>
      <trkpt lat="42.92553" lon="-8.272426">
        <time>2022-07-15T08:05:27Z</time>
      </trkpt>
      <trkpt lat="42.92554" lon="-8.272495">
        <time>2022-07-15T08:05:31Z</time>
      </trkpt>
      <trkpt lat="42.925564" lon="-8.272562">
        <time>2022-07-15T08:05:35Z</time>
      </trkpt>
      <trkpt lat="42.925583" lon="-8.272645">
        <time>2022-07-15T08:05:39Z</time>
      </trkpt>
      <trkpt lat="42.925602" lon="-8.272718">
        <time>2022-07-15T08:05:43Z</time>
      </trkpt>
      <trkpt lat="42.925613" lon="-8.272788">
        <time>2022-07-15T08:05:47Z</time>
      </trkpt>
      <trkpt lat="42.925636" lon="-8.272867">
        <time>2022-07-15T08:05:52Z</time>
      </trkpt>
      <trkpt lat="42.925636" lon="-8.272952">
        <time>2022-07-15T08:05:56Z</time>
      </trkpt>
      <trkpt lat="42.925636" lon="-8.273026">
        <time>2022-07-15T08:06:00Z</time>
      </trkpt>
      <trkpt lat="42.925648" lon="-8.2731">
        <time>2022-07-15T08:06:05Z</time>
      </trkpt>
      <trkpt lat="42.925663" lon="-8.273181">
        <time>2022-07-15T08:06:09Z</time>
      </trkpt>
      <trkpt lat="42.925667" lon="-8.273244">
        <time>2022-07-15T08:06:13Z</time>
      </trkpt>
      <trkpt lat="42.925697" lon="-8.273308">
        <time>2022-07-15T08:06:18Z</time>
      </trkpt>
      <trkpt lat="42.92572" lon="-8.273386">
        <time>2022-07-15T08:06:23Z</time>
      </trkpt>
      <trkpt lat="42.925743" lon="-8.273456">
        <time>2022-07-15T08:06:29Z</time>
      </trkpt>
      <trkpt lat="42.925755" lon="-8.27353">
        <time>2022-07-15T08:06:33Z</time>
      </trkpt>
      <trkpt lat="42.92576" lon="-8.273602">
        <time>2022-07-15T08:06:37Z</time>
      </trkpt>
      <trkpt lat="42.92578" lon="-8.273676">
        <time>2022-07-15T08:06:42Z</time>
      </trkpt>
      <trkpt lat="42.925797" lon="-8.273747">
        <time>2022-07-15T08:06:47Z</time>
      </trkpt>
      <trkpt lat="42.925823" lon="-8.273828">
        <time>2022-07-15T08:06:52Z</time>
      </trkpt>
      <trkpt lat="42.925842" lon="-8.273908">
        <time>2022-07-15T08:06:57Z</time>
      </trkpt>
      <trkpt lat="42.925873" lon="-8.273976">
        <time>2022-07-15T08:07:02Z</time>
      </trkpt>
      <trkpt lat="42.9259" lon="-8.274031">
        <time>2022-07-15T08:07:07Z</time>
      </trkpt>
      <trkpt lat="42.925938" lon="-8.274077">
        <time>2022-07-15T08:07:11Z</time>
      </trkpt>
      <trkpt lat="42.925964" lon="-8.274152">
        <time>2022-07-15T08:07:16Z</time>
      </trkpt>
      <trkpt lat="42.926" lon="-8.274206">
        <time>2022-07-15T08:07:21Z</time>
      </trkpt>
      <trkpt lat="42.926033" lon="-8.274246">
        <time>2022-07-15T08:07:25Z</time>
      </trkpt>
      <trkpt lat="42.92608" lon="-8.274292">
        <time>2022-07-15T08:07:30Z</time>
      </trkpt>
      <trkpt lat="42.926098" lon="-8.274362">
        <time>2022-07-15T08:07:35Z</time>
      </trkpt>
      <trkpt lat="42.926113" lon="-8.274426">
        <time>2022-07-15T08:07:40Z</time>
      </trkpt>
      <trkpt lat="42.926136" lon="-8.274493">
        <time>2022-07-15T08:07:45Z</time>
      </trkpt>
      <trkpt lat="42.926163" lon="-8.274552">
        <time>2022-07-15T08:07:50Z</time>
      </trkpt>
      <trkpt lat="42.926178" lon="-8.274644">
        <time>2022-07-15T08:07:55Z</time>
      </trkpt>
      <trkpt lat="42.92621" lon="-8.274708">
        <time>2022-07-15T08:08:00Z</time>
      </trkpt>
      <trkpt lat="42.926243" lon="-8.274764">
        <time>2022-07-15T08:08:04Z</time>
      </trkpt>
      <trkpt lat="42.92627" lon="-8.274821">
        <time>2022-07-15T08:08:08Z</time>
      </trkpt>
      <trkpt lat="42.92629" lon="-8.274891">
        <time>2022-07-15T08:08:13Z</time>
      </trkpt>
      <trkpt lat="42.926292" lon="-8.274951">
        <time>2022-07-15T08:08:18Z</time>
      </trkpt>
      <trkpt lat="42.92629" lon="-8.275041">
        <time>2022-07-15T08:08:23Z</time>
      </trkpt>
      <trkpt lat="42.926315" lon="-8.275094">
        <time>2022-07-15T08:08:26Z</time>
      </trkpt>
      <trkpt lat="42.926346" lon="-8.275161">
        <time>2022-07-15T08:08:31Z</time>
      </trkpt>
      <trkpt lat="42.926373" lon="-8.27524">
        <time>2022-07-15T08:08:36Z</time>
      </trkpt>
      <trkpt lat="42.926384" lon="-8.275312">
        <time>2022-07-15T08:08:40Z</time>
      </trkpt>
      <trkpt lat="42.926384" lon="-8.275386">
        <time>2022-07-15T08:08:44Z</time>
      </trkpt>
      <trkpt lat="42.926395" lon="-8.27546">
        <time>2022-07-15T08:08:48Z</time>
      </trkpt>
      <trkpt lat="42.926403" lon="-8.27553">
        <time>2022-07-15T08:08:52Z</time>
      </trkpt>
      <trkpt lat="42.92641" lon="-8.2756">
        <time>2022-07-15T08:08:57Z</time>
      </trkpt>
      <trkpt lat="42.92641" lon="-8.275682">
        <time>2022-07-15T08:09:02Z</time>
      </trkpt>
      <trkpt lat="42.926414" lon="-8.275765">
        <time>2022-07-15T08:09:07Z</time>
      </trkpt>
      <trkpt lat="42.92641" lon="-8.275834">
        <time>2022-07-15T08:09:11Z</time>
      </trkpt>
      <trkpt lat="42.926414" lon="-8.275918">
        <time>2022-07-15T08:09:16Z</time>
      </trkpt>
      <trkpt lat="42.926422" lon="-8.276">
        <time>2022-07-15T08:09:21Z</time>
      </trkpt>
      <trkpt lat="42.926434" lon="-8.276066">
        <time>2022-07-15T08:09:25Z</time>
      </trkpt>
      <trkpt lat="42.926434" lon="-8.276147">
        <time>2022-07-15T08:09:30Z</time>
      </trkpt>
      <trkpt lat="42.926422" lon="-8.27622">
        <time>2022-07-15T08:09:34Z</time>
      </trkpt>
      <trkpt lat="42.92642" lon="-8.276298">
        <time>2022-07-15T08:09:39Z</time>
      </trkpt>
      <trkpt lat="42.926426" lon="-8.276372">
        <time>2022-07-15T08:09:44Z</time>
      </trkpt>
      <trkpt lat="42.92645" lon="-8.27644">
        <time>2022-07-15T08:09:49Z</time>
      </trkpt>
      <trkpt lat="42.92645" lon="-8.276522">
        <time>2022-07-15T08:09:54Z</time>
      </trkpt>
      <trkpt lat="42.92646" lon="-8.276594">
        <time>2022-07-15T08:09:59Z</time>
      </trkpt>
      <trkpt lat="42.92647" lon="-8.276669">
        <time>2022-07-15T08:10:04Z</time>
      </trkpt>
      <trkpt lat="42.926483" lon="-8.276752">
        <time>2022-07-15T08:10:09Z</time>
      </trkpt>
      <trkpt lat="42.926483" lon="-8.276839">
        <time>2022-07-15T08:10:14Z</time>
      </trkpt>
      <trkpt lat="42.92646" lon="-8.276909">
        <time>2022-07-15T08:10:18Z</time>
      </trkpt>
      <trkpt lat="42.92645" lon="-8.276974">
        <time>2022-07-15T08:10:23Z</time>
      </trkpt>
      <trkpt lat="42.92643" lon="-8.277046">
        <time>2022-07-15T08:10:28Z</time>
      </trkpt>
      <trkpt lat="42.926403" lon="-8.277114">
        <time>2022-07-15T08:10:32Z</time>
      </trkpt>
      <trkpt lat="42.926384" lon="-8.277179">
        <time>2022-07-15T08:10:36Z</time>
      </trkpt>
      <trkpt lat="42.92637" lon="-8.277257">
        <time>2022-07-15T08:10:41Z</time>
      </trkpt>
      <trkpt lat="42.926357" lon="-8.277336">
        <time>2022-07-15T08:10:46Z</time>
      </trkpt>
      <trkpt lat="42.926346" lon="-8.277416">
        <time>2022-07-15T08:10:51Z</time>
      </trkpt>
      <trkpt lat="42.926334" lon="-8.277492">
        <time>2022-07-15T08:10:56Z</time>
      </trkpt>
      <trkpt lat="42.926308" lon="-8.277551">
        <time>2022-07-15T08:11:00Z</time>
      </trkpt>
      <trkpt lat="42.92626" lon="-8.277605">
        <time>2022-07-15T08:11:06Z</time>
      </trkpt>
      <trkpt lat="42.926247" lon="-8.277681">
        <time>2022-07-15T08:11:12Z</time>
      </trkpt>
      <trkpt lat="42.926247" lon="-8.277746">
        <time>2022-07-15T08:11:17Z</time>
      </trkpt>
      <trkpt lat="42.92626" lon="-8.277815">
        <time>2022-07-15T08:11:25Z</time>
      </trkpt>
      <trkpt lat="42.92627" lon="-8.27789">
        <time>2022-07-15T08:11:30Z</time>
      </trkpt>
      <trkpt lat="42.926292" lon="-8.277957">
        <time>2022-07-15T08:11:35Z</time>
      </trkpt>
      <trkpt lat="42.926304" lon="-8.278039">
        <time>2022-07-15T08:11:40Z</time>
      </trkpt>
      <trkpt lat="42.926296" lon="-8.278114">
        <time>2022-07-15T08:11:44Z</time>
      </trkpt>
      <trkpt lat="42.926304" lon="-8.278193">
        <time>2022-07-15T08:11:49Z</time>
      </trkpt>
      <trkpt lat="42.92632" lon="-8.278259">
        <time>2022-07-15T08:11:53Z</time>
      </trkpt>
      <trkpt lat="42.926327" lon="-8.278337">
        <time>2022-07-15T08:11:58Z</time>
      </trkpt>
      <trkpt lat="42.926346" lon="-8.278418">
        <time>2022-07-15T08:12:04Z</time>
      </trkpt>
      <trkpt lat="42.926357" lon="-8.278471">
        <time>2022-07-15T08:12:09Z</time>
      </trkpt>
      <trkpt lat="42.926373" lon="-8.278549">
        <time>2022-07-15T08:12:15Z</time>
      </trkpt>
      <trkpt lat="42.926376" lon="-8.278632">
        <time>2022-07-15T08:12:20Z</time>
      </trkpt>
      <trkpt lat="42.926376" lon="-8.278706">
        <time>2022-07-15T08:12:24Z</time>
      </trkpt>
      <trkpt lat="42.92638" lon="-8.278777">
        <time>2022-07-15T08:12:28Z</time>
      </trkpt>
      <trkpt lat="42.926384" lon="-8.278843">
        <time>2022-07-15T08:12:32Z</time>
      </trkpt>
      <trkpt lat="42.926388" lon="-8.278923">
        <time>2022-07-15T08:12:37Z</time>
      </trkpt>
      <trkpt lat="42.92639" lon="-8.278998">
        <time>2022-07-15T08:12:42Z</time>
      </trkpt>
      <trkpt lat="42.9264" lon="-8.279074">
        <time>2022-07-15T08:12:47Z</time>
      </trkpt>
      <trkpt lat="42.9264" lon="-8.279161">
        <time>2022-07-15T08:12:52Z</time>
      </trkpt>
      <trkpt lat="42.926407" lon="-8.279234">
        <time>2022-07-15T08:12:57Z</time>
      </trkpt>
      <trkpt lat="42.92641" lon="-8.279312">
        <time>2022-07-15T08:13:02Z</time>
      </trkpt>
      <trkpt lat="42.926422" lon="-8.279385">
        <time>2022-07-15T08:13:07Z</time>
      </trkpt>
      <trkpt lat="42.926434" lon="-8.27946">
        <time>2022-07-15T08:13:12Z</time>
      </trkpt>
      <trkpt lat="42.926437" lon="-8.279537">
        <time>2022-07-15T08:13:17Z</time>
      </trkpt>
      <trkpt lat="42.926437" lon="-8.279615">
        <time>2022-07-15T08:13:22Z</time>
      </trkpt>
      <trkpt lat="42.92644" lon="-8.279675">
        <time>2022-07-15T08:13:26Z</time>
      </trkpt>
      <trkpt lat="42.926445" lon="-8.27976">
        <time>2022-07-15T08:13:31Z</time>
      </trkpt>
      <trkpt lat="42.926456" lon="-8.27982">
        <time>2022-07-15T08:13:35Z</time>
      </trkpt>
      <trkpt lat="42.926464" lon="-8.279906">
        <time>2022-07-15T08:13:41Z</time>
      </trkpt>
      <trkpt lat="42.926456" lon="-8.280013">
        <time>2022-07-15T08:13:47Z</time>
      </trkpt>
      <trkpt lat="42.92645" lon="-8.280093">
        <time>2022-07-15T08:13:51Z</time>
      </trkpt>
      <trkpt lat="42.926453" lon="-8.280165">
        <time>2022-07-15T08:13:56Z</time>
      </trkpt>
      <trkpt lat="42.926464" lon="-8.280235">
        <time>2022-07-15T08:14:01Z</time>
      </trkpt>
      <trkpt lat="42.926456" lon="-8.280306">
        <time>2022-07-15T08:14:06Z</time>
      </trkpt>
      <trkpt lat="42.926445" lon="-8.280397">
        <time>2022-07-15T08:14:12Z</time>
      </trkpt>
      <trkpt lat="42.92644" lon="-8.280462">
        <time>2022-07-15T08:14:16Z</time>
      </trkpt>
      <trkpt lat="42.92642" lon="-8.280534">
        <time>2022-07-15T08:14:20Z</time>
      </trkpt>
      <trkpt lat="42.92641" lon="-8.280605">
        <time>2022-07-15T08:14:25Z</time>
      </trkpt>
      <trkpt lat="42.926395" lon="-8.280673">
        <time>2022-07-15T08:14:29Z</time>
      </trkpt>
      <trkpt lat="42.926384" lon="-8.280744">
        <time>2022-07-15T08:14:34Z</time>
      </trkpt>
      <trkpt lat="42.926373" lon="-8.280817">
        <time>2022-07-15T08:14:40Z</time>
      </trkpt>
      <trkpt lat="42.926353" lon="-8.2808895">
        <time>2022-07-15T08:14:45Z</time>
      </trkpt>
      <trkpt lat="42.926334" lon="-8.2809515">
        <time>2022-07-15T08:14:49Z</time>
      </trkpt>
      <trkpt lat="42.926327" lon="-8.281021">
        <time>2022-07-15T08:14:54Z</time>
      </trkpt>
      <trkpt lat="42.926323" lon="-8.281106">
        <time>2022-07-15T08:15:00Z</time>
      </trkpt>
      <trkpt lat="42.926308" lon="-8.28118">
        <time>2022-07-15T08:15:06Z</time>
      </trkpt>
      <trkpt lat="42.926292" lon="-8.281255">
        <time>2022-07-15T08:15:12Z</time>
      </trkpt>
      <trkpt lat="42.926277" lon="-8.281328">
        <time>2022-07-15T08:15:17Z</time>
      </trkpt>
      <trkpt lat="42.926254" lon="-8.281399">
        <time>2022-07-15T08:15:21Z</time>
      </trkpt>
      <trkpt lat="42.92623" lon="-8.281457">
        <time>2022-07-15T08:15:24Z</time>
      </trkpt>
      <trkpt lat="42.92622" lon="-8.28153">
        <time>2022-07-15T08:15:29Z</time>
      </trkpt>
      <trkpt lat="42.926197" lon="-8.281588">
        <time>2022-07-15T08:15:34Z</time>
      </trkpt>
      <trkpt lat="42.92618" lon="-8.281666">
        <time>2022-07-15T08:15:41Z</time>
      </trkpt>
      <trkpt lat="42.92615" lon="-8.281738">
        <time>2022-07-15T08:15:46Z</time>
      </trkpt>
      <trkpt lat="42.926113" lon="-8.281808">
        <time>2022-07-15T08:15:50Z</time>
      </trkpt>
      <trkpt lat="42.92608" lon="-8.281867">
        <time>2022-07-15T08:15:53Z</time>
      </trkpt>
      <trkpt lat="42.926052" lon="-8.281921">
        <time>2022-07-15T08:15:57Z</time>
      </trkpt>
      <trkpt lat="42.92603" lon="-8.281987">
        <time>2022-07-15T08:16:02Z</time>
      </trkpt>
      <trkpt lat="42.926014" lon="-8.282056">
        <time>2022-07-15T08:16:07Z</time>
      </trkpt>
      <trkpt lat="42.925976" lon="-8.282118">
        <time>2022-07-15T08:16:12Z</time>
      </trkpt>
      <trkpt lat="42.925938" lon="-8.282172">
        <time>2022-07-15T08:16:16Z</time>
      </trkpt>
      <trkpt lat="42.925903" lon="-8.282222">
        <time>2022-07-15T08:16:20Z</time>
      </trkpt>
      <trkpt lat="42.925865" lon="-8.282286">
        <time>2022-07-15T08:16:24Z</time>
      </trkpt>
      <trkpt lat="42.925823" lon="-8.282341">
        <time>2022-07-15T08:16:29Z</time>
      </trkpt>
      <trkpt lat="42.925785" lon="-8.282384">
        <time>2022-07-15T08:16:33Z</time>
      </trkpt>
      <trkpt lat="42.925743" lon="-8.28244">
        <time>2022-07-15T08:16:38Z</time>
      </trkpt>
      <trkpt lat="42.92572" lon="-8.2824955">
        <time>2022-07-15T08:16:44Z</time>
      </trkpt>
      <trkpt lat="42.9257" lon="-8.282565">
        <time>2022-07-15T08:16:49Z</time>
      </trkpt>
      <trkpt lat="42.925682" lon="-8.282636">
        <time>2022-07-15T08:16:53Z</time>
      </trkpt>
      <trkpt lat="42.92566" lon="-8.282712">
        <time>2022-07-15T08:16:58Z</time>
      </trkpt>
      <trkpt lat="42.925648" lon="-8.282787">
        <time>2022-07-15T08:17:03Z</time>
      </trkpt>
      <trkpt lat="42.925625" lon="-8.282856">
        <time>2022-07-15T08:17:07Z</time>
      </trkpt>
      <trkpt lat="42.925602" lon="-8.282928">
        <time>2022-07-15T08:17:12Z</time>
      </trkpt>
      <trkpt lat="42.925583" lon="-8.282982">
        <time>2022-07-15T08:17:16Z</time>
      </trkpt>
      <trkpt lat="42.92557" lon="-8.28306">
        <time>2022-07-15T08:17:22Z</time>
      </trkpt>
      <trkpt lat="42.925564" lon="-8.283126">
        <time>2022-07-15T08:17:29Z</time>
      </trkpt>
      <trkpt lat="42.925545" lon="-8.283199">
        <time>2022-07-15T08:17:34Z</time>
      </trkpt>
      <trkpt lat="42.92553" lon="-8.283272">
        <time>2022-07-15T08:17:39Z</time>
      </trkpt>
      <trkpt lat="42.92552" lon="-8.28334">
        <time>2022-07-15T08:17:46Z</time>
      </trkpt>
      <trkpt lat="42.925507" lon="-8.28342">
        <time>2022-07-15T08:17:52Z</time>
      </trkpt>
      <trkpt lat="42.92549" lon="-8.283496">
        <time>2022-07-15T08:17:57Z</time>
      </trkpt>
      <trkpt lat="42.92548" lon="-8.283559">
        <time>2022-07-15T08:18:02Z</time>
      </trkpt>
      <trkpt lat="42.92546" lon="-8.283632">
        <time>2022-07-15T08:18:07Z</time>
      </trkpt>
      <trkpt lat="42.925438" lon="-8.283699">
        <time>2022-07-15T08:18:12Z</time>
      </trkpt>
      <trkpt lat="42.925423" lon="-8.283766">
        <time>2022-07-15T08:18:17Z</time>
      </trkpt>
      <trkpt lat="42.925426" lon="-8.283848">
        <time>2022-07-15T08:18:23Z</time>
      </trkpt>
      <trkpt lat="42.925423" lon="-8.28392">
        <time>2022-07-15T08:18:28Z</time>
      </trkpt>
      <trkpt lat="42.925438" lon="-8.283991">
        <time>2022-07-15T08:18:34Z</time>
      </trkpt>
      <trkpt lat="42.92545" lon="-8.284056">
        <time>2022-07-15T08:18:39Z</time>
      </trkpt>
      <trkpt lat="42.92547" lon="-8.284134">
        <time>2022-07-15T08:18:45Z</time>
      </trkpt>
      <trkpt lat="42.92548" lon="-8.284216">
        <time>2022-07-15T08:18:51Z</time>
      </trkpt>
      <trkpt lat="42.92549" lon="-8.284283">
        <time>2022-07-15T08:18:56Z</time>
      </trkpt>
      <trkpt lat="42.925495" lon="-8.284355">
        <time>2022-07-15T08:19:01Z</time>
      </trkpt>
      <trkpt lat="42.925484" lon="-8.284436">
        <time>2022-07-15T08:19:06Z</time>
      </trkpt>
      <trkpt lat="42.9255" lon="-8.28451">
        <time>2022-07-15T08:19:13Z</time>
      </trkpt>
      <trkpt lat="42.9255" lon="-8.284579">
        <time>2022-07-15T08:19:21Z</time>
      </trkpt>
      <trkpt lat="42.92549" lon="-8.284642">
        <time>2022-07-15T08:19:26Z</time>
      </trkpt>
      <trkpt lat="42.925476" lon="-8.284732">
        <time>2022-07-15T08:19:32Z</time>
      </trkpt>
      <trkpt lat="42.92545" lon="-8.284797">
        <time>2022-07-15T08:19:36Z</time>
      </trkpt>
      <trkpt lat="42.925438" lon="-8.284861">
        <time>2022-07-15T08:19:41Z</time>
      </trkpt>
      <trkpt lat="42.925423" lon="-8.284935">
        <time>2022-07-15T08:19:48Z</time>
      </trkpt>
      <trkpt lat="42.925423" lon="-8.285002">
        <time>2022-07-15T08:19:54Z</time>
      </trkpt>
      <trkpt lat="42.925415" lon="-8.285081">
        <time>2022-07-15T08:20:00Z</time>
      </trkpt>
      <trkpt lat="42.92541" lon="-8.285157">
        <time>2022-07-15T08:20:06Z</time>
      </trkpt>
      <trkpt lat="42.925396" lon="-8.285223">
        <time>2022-07-15T08:20:12Z</time>
      </trkpt>
      <trkpt lat="42.92539" lon="-8.285298">
        <time>2022-07-15T08:20:18Z</time>
      </trkpt>
      <trkpt lat="42.925377" lon="-8.285366">
        <time>2022-07-15T08:20:24Z</time>
      </trkpt>
      <trkpt lat="42.92538" lon="-8.285446">
        <time>2022-07-15T08:20:31Z</time>
      </trkpt>
      <trkpt lat="42.925354" lon="-8.285518">
        <time>2022-07-15T08:20:35Z</time>
      </trkpt>
      <trkpt lat="42.925323" lon="-8.285575">
        <time>2022-07-15T08:20:38Z</time>
      </trkpt>
      <trkpt lat="42.925304" lon="-8.285642">
        <time>2022-07-15T08:20:42Z</time>
      </trkpt>
      <trkpt lat="42.92528" lon="-8.285713">
        <time>2022-07-15T08:20:47Z</time>
      </trkpt>
      <trkpt lat="42.925255" lon="-8.28579">
        <time>2022-07-15T08:20:52Z</time>
      </trkpt>
      <trkpt lat="42.925236" lon="-8.285875">
        <time>2022-07-15T08:20:57Z</time>
      </trkpt>
      <trkpt lat="42.925232" lon="-8.285942">
        <time>2022-07-15T08:21:01Z</time>
      </trkpt>
      <trkpt lat="42.925224" lon="-8.286025">
        <time>2022-07-15T08:21:08Z</time>
      </trkpt>
      <trkpt lat="42.925205" lon="-8.286098">
        <time>2022-07-15T08:21:12Z</time>
      </trkpt>
      <trkpt lat="42.925186" lon="-8.286185">
        <time>2022-07-15T08:21:17Z</time>
      </trkpt>
      <trkpt lat="42.925175" lon="-8.28625">
        <time>2022-07-15T08:21:21Z</time>
      </trkpt>
      <trkpt lat="42.925167" lon="-8.286329">
        <time>2022-07-15T08:21:26Z</time>
      </trkpt>
      <trkpt lat="42.92515" lon="-8.286396">
        <time>2022-07-15T08:21:30Z</time>
      </trkpt>
      <trkpt lat="42.92517" lon="-8.286458">
        <time>2022-07-15T08:21:41Z</time>
      </trkpt>
      <trkpt lat="42.925175" lon="-8.286534">
        <time>2022-07-15T08:21:47Z</time>
      </trkpt>
      <trkpt lat="42.925167" lon="-8.286628">
        <time>2022-07-15T08:21:52Z</time>
      </trkpt>
      <trkpt lat="42.92516" lon="-8.286701">
        <time>2022-07-15T08:21:56Z</time>
      </trkpt>
      <trkpt lat="42.925163" lon="-8.286769">
        <time>2022-07-15T08:22:01Z</time>
      </trkpt>
      <trkpt lat="42.925163" lon="-8.2868395">
        <time>2022-07-15T08:22:06Z</time>
      </trkpt>
      <trkpt lat="42.925182" lon="-8.286907">
        <time>2022-07-15T08:22:12Z</time>
      </trkpt>
      <trkpt lat="42.92518" lon="-8.286993">
        <time>2022-07-15T08:22:18Z</time>
      </trkpt>
      <trkpt lat="42.92517" lon="-8.287058">
        <time>2022-07-15T08:22:22Z</time>
      </trkpt>
      <trkpt lat="42.92516" lon="-8.287135">
        <time>2022-07-15T08:22:27Z</time>
      </trkpt>
      <trkpt lat="42.92514" lon="-8.287213">
        <time>2022-07-15T08:22:32Z</time>
      </trkpt>
      <trkpt lat="42.925133" lon="-8.287278">
        <time>2022-07-15T08:22:37Z</time>
      </trkpt>
      <trkpt lat="42.92514" lon="-8.287353">
        <time>2022-07-15T08:22:45Z</time>
      </trkpt>
      <trkpt lat="42.92516" lon="-8.287417">
        <time>2022-07-15T08:22:53Z</time>
      </trkpt>
      <trkpt lat="42.925148" lon="-8.287487">
        <time>2022-07-15T08:23:01Z</time>
      </trkpt>
      <trkpt lat="42.925114" lon="-8.287537">
        <time>2022-07-15T08:23:06Z</time>
      </trkpt>
      <trkpt lat="42.925064" lon="-8.28766">
        <time>2022-07-15T08:23:15Z</time>
      </trkpt>
      <trkpt lat="42.925034" lon="-8.287732">
        <time>2022-07-15T08:23:19Z</time>
      </trkpt>
      <trkpt lat="42.92501" lon="-8.2878065">
        <time>2022-07-15T08:23:23Z</time>
      </trkpt>
      <trkpt lat="42.925003" lon="-8.287868">
        <time>2022-07-15T08:23:27Z</time>
      </trkpt>
      <trkpt lat="42.92499" lon="-8.28794">
        <time>2022-07-15T08:23:31Z</time>
      </trkpt>
      <trkpt lat="42.92498" lon="-8.28801">
        <time>2022-07-15T08:23:35Z</time>
      </trkpt>
      <trkpt lat="42.92496" lon="-8.288085">
        <time>2022-07-15T08:23:40Z</time>
      </trkpt>
      <trkpt lat="42.924942" lon="-8.288158">
        <time>2022-07-15T08:23:46Z</time>
      </trkpt>
      <trkpt lat="42.92493" lon="-8.288233">
        <time>2022-07-15T08:23:52Z</time>
      </trkpt>
      <trkpt lat="42.92491" lon="-8.288302">
        <time>2022-07-15T08:23:57Z</time>
      </trkpt>
      <trkpt lat="42.924892" lon="-8.28837">
        <time>2022-07-15T08:24:02Z</time>
      </trkpt>
      <trkpt lat="42.924873" lon="-8.288438">
        <time>2022-07-15T08:24:07Z</time>
      </trkpt>
      <trkpt lat="42.92484" lon="-8.288502">
        <time>2022-07-15T08:24:12Z</time>
      </trkpt>
      <trkpt lat="42.924797" lon="-8.288564">
        <time>2022-07-15T08:24:17Z</time>
      </trkpt>
      <trkpt lat="42.924774" lon="-8.288625">
        <time>2022-07-15T08:24:21Z</time>
      </trkpt>
      <trkpt lat="42.924744" lon="-8.2886915">
        <time>2022-07-15T08:24:26Z</time>
      </trkpt>
      <trkpt lat="42.924694" lon="-8.288753">
        <time>2022-07-15T08:24:31Z</time>
      </trkpt>
      <trkpt lat="42.92466" lon="-8.288799">
        <time>2022-07-15T08:24:34Z</time>
      </trkpt>
      <trkpt lat="42.92462" lon="-8.28886">
        <time>2022-07-15T08:24:38Z</time>
      </trkpt>
      <trkpt lat="42.924587" lon="-8.288908">
        <time>2022-07-15T08:24:41Z</time>
      </trkpt>
      <trkpt lat="42.92455" lon="-8.288979">
        <time>2022-07-15T08:24:46Z</time>
      </trkpt>
      <trkpt lat="42.924526" lon="-8.289048">
        <time>2022-07-15T08:24:50Z</time>
      </trkpt>
      <trkpt lat="42.924503" lon="-8.28912">
        <time>2022-07-15T08:24:54Z</time>
      </trkpt>
      <trkpt lat="42.924484" lon="-8.289199">
        <time>2022-07-15T08:24:59Z</time>
      </trkpt>
      <trkpt lat="42.924473" lon="-8.289267">
        <time>2022-07-15T08:25:04Z</time>
      </trkpt>
      <trkpt lat="42.924458" lon="-8.289339">
        <time>2022-07-15T08:25:09Z</time>
      </trkpt>
      <trkpt lat="42.924454" lon="-8.289412">
        <time>2022-07-15T08:25:15Z</time>
      </trkpt>
      <trkpt lat="42.924435" lon="-8.289484">
        <time>2022-07-15T08:25:20Z</time>
      </trkpt>
      <trkpt lat="42.92441" lon="-8.289553">
        <time>2022-07-15T08:25:25Z</time>
      </trkpt>
      <trkpt lat="42.924397" lon="-8.289626">
        <time>2022-07-15T08:25:30Z</time>
      </trkpt>
      <trkpt lat="42.924377" lon="-8.289694">
        <time>2022-07-15T08:25:34Z</time>
      </trkpt>
      <trkpt lat="42.92436" lon="-8.289768">
        <time>2022-07-15T08:25:39Z</time>
      </trkpt>
      <trkpt lat="42.924343" lon="-8.289844">
        <time>2022-07-15T08:25:44Z</time>
      </trkpt>
      <trkpt lat="42.924316" lon="-8.289907">
        <time>2022-07-15T08:25:48Z</time>
      </trkpt>
      <trkpt lat="42.9243" lon="-8.28997">
        <time>2022-07-15T08:25:53Z</time>
      </trkpt>
      <trkpt lat="42.924282" lon="-8.290046">
        <time>2022-07-15T08:25:58Z</time>
      </trkpt>
      <trkpt lat="42.924263" lon="-8.290117">
        <time>2022-07-15T08:26:03Z</time>
      </trkpt>
      <trkpt lat="42.92424" lon="-8.290182">
        <time>2022-07-15T08:26:08Z</time>
      </trkpt>
      <trkpt lat="42.9242" lon="-8.290226">
        <time>2022-07-15T08:26:13Z</time>
      </trkpt>
      <trkpt lat="42.92414" lon="-8.290244">
        <time>2022-07-15T08:26:18Z</time>
      </trkpt>
      <trkpt lat="42.924103" lon="-8.29026">
        <time>2022-07-15T08:26:22Z</time>
      </trkpt>
      <trkpt lat="42.924053" lon="-8.290309">
        <time>2022-07-15T08:26:27Z</time>
      </trkpt>
      <trkpt lat="42.92402" lon="-8.290367">
        <time>2022-07-15T08:26:31Z</time>
      </trkpt>
      <trkpt lat="42.92398" lon="-8.29042">
        <time>2022-07-15T08:26:35Z</time>
      </trkpt>
      <trkpt lat="42.92394" lon="-8.290474">
        <time>2022-07-15T08:26:39Z</time>
      </trkpt>
      <trkpt lat="42.923904" lon="-8.290533">
        <time>2022-07-15T08:26:43Z</time>
      </trkpt>
      <trkpt lat="42.923866" lon="-8.290586">
        <time>2022-07-15T08:26:47Z</time>
      </trkpt>
      <trkpt lat="42.923843" lon="-8.290645">
        <time>2022-07-15T08:26:52Z</time>
      </trkpt>
      <trkpt lat="42.923813" lon="-8.290711">
        <time>2022-07-15T08:26:58Z</time>
      </trkpt>
      <trkpt lat="42.92378" lon="-8.2907715">
        <time>2022-07-15T08:27:04Z</time>
      </trkpt>
      <trkpt lat="42.923748" lon="-8.290824">
        <time>2022-07-15T08:27:08Z</time>
      </trkpt>
      <trkpt lat="42.923695" lon="-8.290866">
        <time>2022-07-15T08:27:13Z</time>
      </trkpt>
      <trkpt lat="42.92365" lon="-8.290933">
        <time>2022-07-15T08:27:19Z</time>
      </trkpt>
      <trkpt lat="42.923615" lon="-8.290988">
        <time>2022-07-15T08:27:23Z</time>
      </trkpt>
      <trkpt lat="42.923576" lon="-8.291035">
        <time>2022-07-15T08:27:28Z</time>
      </trkpt>
      <trkpt lat="42.923542" lon="-8.291095">
        <time>2022-07-15T08:27:33Z</time>
      </trkpt>
      <trkpt lat="42.92352" lon="-8.29115">
        <time>2022-07-15T08:27:40Z</time>
      </trkpt>
      <trkpt lat="42.923477" lon="-8.291199">
        <time>2022-07-15T08:27:52Z</time>
      </trkpt>
      <trkpt lat="42.92344" lon="-8.291257">
        <time>2022-07-15T08:27:58Z</time>
      </trkpt>
      <trkpt lat="42.923412" lon="-8.291311">
        <time>2022-07-15T08:28:02Z</time>
      </trkpt>
      <trkpt lat="42.923378" lon="-8.291384">
        <time>2022-07-15T08:28:08Z</time>
      </trkpt>
      <trkpt lat="42.92335" lon="-8.291438">
        <time>2022-07-15T08:28:13Z</time>
      </trkpt>
      <trkpt lat="42.92332" lon="-8.291503">
        <time>2022-07-15T08:28:18Z</time>
      </trkpt>
      <trkpt lat="42.923306" lon="-8.291564">
        <time>2022-07-15T08:28:22Z</time>
      </trkpt>
      <trkpt lat="42.92329" lon="-8.291641">
        <time>2022-07-15T08:28:29Z</time>
      </trkpt>
      <trkpt lat="42.923267" lon="-8.291704">
        <time>2022-07-15T08:28:33Z</time>
      </trkpt>
      <trkpt lat="42.923237" lon="-8.29178">
        <time>2022-07-15T08:28:38Z</time>
      </trkpt>
      <trkpt lat="42.923206" lon="-8.291844">
        <time>2022-07-15T08:28:42Z</time>
      </trkpt>
      <trkpt lat="42.92319" lon="-8.291908">
        <time>2022-07-15T08:28:47Z</time>
      </trkpt>
      <trkpt lat="42.923164" lon="-8.291974">
        <time>2022-07-15T08:28:53Z</time>
      </trkpt>
      <trkpt lat="42.923153" lon="-8.292047">
        <time>2022-07-15T08:29:01Z</time>
      </trkpt>
      <trkpt lat="42.92313" lon="-8.29212">
        <time>2022-07-15T08:29:07Z</time>
      </trkpt>
      <trkpt lat="42.9231" lon="-8.292173">
        <time>2022-07-15T08:29:12Z</time>
      </trkpt>
      <trkpt lat="42.9231" lon="-8.292248">
        <time>2022-07-15T08:29:17Z</time>
      </trkpt>
      <trkpt lat="42.92308" lon="-8.292316">
        <time>2022-07-15T08:29:21Z</time>
      </trkpt>
      <trkpt lat="42.92305" lon="-8.292378">
        <time>2022-07-15T08:29:26Z</time>
      </trkpt>
      <trkpt lat="42.92303" lon="-8.292444">
        <time>2022-07-15T08:29:32Z</time>
      </trkpt>
      <trkpt lat="42.923016" lon="-8.292511">
        <time>2022-07-15T08:29:39Z</time>
      </trkpt>
      <trkpt lat="42.92298" lon="-8.292574">
        <time>2022-07-15T08:29:44Z</time>
      </trkpt>
      <trkpt lat="42.92295" lon="-8.292642">
        <time>2022-07-15T08:29:50Z</time>
      </trkpt>
      <trkpt lat="42.92291" lon="-8.292702">
        <time>2022-07-15T08:29:55Z</time>
      </trkpt>
      <trkpt lat="42.92287" lon="-8.2927475">
        <time>2022-07-15T08:29:59Z</time>
      </trkpt>
      <trkpt lat="42.922836" lon="-8.292804">
        <time>2022-07-15T08:30:05Z</time>
      </trkpt>
      <trkpt lat="42.922802" lon="-8.292856">
        <time>2022-07-15T08:30:11Z</time>
      </trkpt>
      <trkpt lat="42.922756" lon="-8.292945">
        <time>2022-07-15T08:30:23Z</time>
      </trkpt>
      <trkpt lat="42.922733" lon="-8.293017">
        <time>2022-07-15T08:30:31Z</time>
      </trkpt>
      <trkpt lat="42.92271" lon="-8.293082">
        <time>2022-07-15T08:30:38Z</time>
      </trkpt>
      <trkpt lat="42.922688" lon="-8.293155">
        <time>2022-07-15T08:30:43Z</time>
      </trkpt>
      <trkpt lat="42.92267" lon="-8.293237">
        <time>2022-07-15T08:30:48Z</time>
      </trkpt>
      <trkpt lat="42.922646" lon="-8.29331">
        <time>2022-07-15T08:30:53Z</time>
      </trkpt>
      <trkpt lat="42.922626" lon="-8.293384">
        <time>2022-07-15T08:30:59Z</time>
      </trkpt>
      <trkpt lat="42.9226" lon="-8.293445">
        <time>2022-07-15T08:31:05Z</time>
      </trkpt>
      <trkpt lat="42.92257" lon="-8.29351">
        <time>2022-07-15T08:31:12Z</time>
      </trkpt>
      <trkpt lat="42.922543" lon="-8.293577">
        <time>2022-07-15T08:31:18Z</time>
      </trkpt>
      <trkpt lat="42.922523" lon="-8.293642">
        <time>2022-07-15T08:31:23Z</time>
      </trkpt>
      <trkpt lat="42.92251" lon="-8.293711">
        <time>2022-07-15T08:31:28Z</time>
      </trkpt>
      <trkpt lat="42.922523" lon="-8.293761">
        <time>2022-07-15T08:33:12Z</time>
      </trkpt>
      <trkpt lat="42.922478" lon="-8.293842">
        <time>2022-07-15T08:33:17Z</time>
      </trkpt>
      <trkpt lat="42.922436" lon="-8.293904">
        <time>2022-07-15T08:33:20Z</time>
      </trkpt>
      <trkpt lat="42.9224" lon="-8.293947">
        <time>2022-07-15T08:33:24Z</time>
      </trkpt>
      <trkpt lat="42.922367" lon="-8.294">
        <time>2022-07-15T08:33:30Z</time>
      </trkpt>
      <trkpt lat="42.92234" lon="-8.29406">
        <time>2022-07-15T08:33:37Z</time>
      </trkpt>
      <trkpt lat="42.922306" lon="-8.294123">
        <time>2022-07-15T08:33:44Z</time>
      </trkpt>
      <trkpt lat="42.92228" lon="-8.294187">
        <time>2022-07-15T08:33:50Z</time>
      </trkpt>
      <trkpt lat="42.922253" lon="-8.294251">
        <time>2022-07-15T08:33:55Z</time>
      </trkpt>
      <trkpt lat="42.922226" lon="-8.2943125">
        <time>2022-07-15T08:34:00Z</time>
      </trkpt>
      <trkpt lat="42.922203" lon="-8.294372">
        <time>2022-07-15T08:34:06Z</time>
      </trkpt>
      <trkpt lat="42.92217" lon="-8.294436">
        <time>2022-07-15T08:34:13Z</time>
      </trkpt>
      <trkpt lat="42.922134" lon="-8.294494">
        <time>2022-07-15T08:34:18Z</time>
      </trkpt>
      <trkpt lat="42.92211" lon="-8.29455">
        <time>2022-07-15T08:34:23Z</time>
      </trkpt>
      <trkpt lat="42.922066" lon="-8.294631">
        <time>2022-07-15T08:34:35Z</time>
      </trkpt>
      <trkpt lat="42.92202" lon="-8.294692">
        <time>2022-07-15T08:34:41Z</time>
      </trkpt>
      <trkpt lat="42.92198" lon="-8.294741">
        <time>2022-07-15T08:34:46Z</time>
      </trkpt>
      <trkpt lat="42.921944" lon="-8.294812">
        <time>2022-07-15T08:34:53Z</time>
      </trkpt>
      <trkpt lat="42.921913" lon="-8.294868">
        <time>2022-07-15T08:35:08Z</time>
      </trkpt>
      <trkpt lat="42.921875" lon="-8.294916">
        <time>2022-07-15T08:35:13Z</time>
      </trkpt>
      <trkpt lat="42.92183" lon="-8.294973">
        <time>2022-07-15T08:35:19Z</time>
      </trkpt>
      <trkpt lat="42.921787" lon="-8.295032">
        <time>2022-07-15T08:35:24Z</time>
      </trkpt>
      <trkpt lat="42.921757" lon="-8.295083">
        <time>2022-07-15T08:35:28Z</time>
      </trkpt>
      <trkpt lat="42.92172" lon="-8.295138">
        <time>2022-07-15T08:35:33Z</time>
      </trkpt>
      <trkpt lat="42.921688" lon="-8.295208">
        <time>2022-07-15T08:35:39Z</time>
      </trkpt>
      <trkpt lat="42.92166" lon="-8.295273">
        <time>2022-07-15T08:35:44Z</time>
      </trkpt>
      <trkpt lat="42.92163" lon="-8.295341">
        <time>2022-07-15T08:35:50Z</time>
      </trkpt>
      <trkpt lat="42.921604" lon="-8.295404">
        <time>2022-07-15T08:35:55Z</time>
      </trkpt>
      <trkpt lat="42.921577" lon="-8.295483">
        <time>2022-07-15T08:36:00Z</time>
      </trkpt>
      <trkpt lat="42.921555" lon="-8.295546">
        <time>2022-07-15T08:36:04Z</time>
      </trkpt>
      <trkpt lat="42.921528" lon="-8.295609">
        <time>2022-07-15T08:36:09Z</time>
      </trkpt>
      <trkpt lat="42.921494" lon="-8.295682">
        <time>2022-07-15T08:36:14Z</time>
      </trkpt>
      <trkpt lat="42.921467" lon="-8.295762">
        <time>2022-07-15T08:36:19Z</time>
      </trkpt>
      <trkpt lat="42.921432" lon="-8.295821">
        <time>2022-07-15T08:36:23Z</time>
      </trkpt>
      <trkpt lat="42.921406" lon="-8.295872">
        <time>2022-07-15T08:36:27Z</time>
      </trkpt>
      <trkpt lat="42.92137" lon="-8.295939">
        <time>2022-07-15T08:36:33Z</time>
      </trkpt>
      <trkpt lat="42.92134" lon="-8.295999">
        <time>2022-07-15T08:36:38Z</time>
      </trkpt>
      <trkpt lat="42.92131" lon="-8.296054">
        <time>2022-07-15T08:36:43Z</time>
      </trkpt>
      <trkpt lat="42.92126" lon="-8.296115">
        <time>2022-07-15T08:36:48Z</time>
      </trkpt>
      <trkpt lat="42.92122" lon="-8.296159">
        <time>2022-07-15T08:36:52Z</time>
      </trkpt>
      <trkpt lat="42.92118" lon="-8.296211">
        <time>2022-07-15T08:36:56Z</time>
      </trkpt>
      <trkpt lat="42.92114" lon="-8.296263">
        <time>2022-07-15T08:37:02Z</time>
      </trkpt>
      <trkpt lat="42.921104" lon="-8.296316">
        <time>2022-07-15T08:37:07Z</time>
      </trkpt>
      <trkpt lat="42.921062" lon="-8.2963705">
        <time>2022-07-15T08:37:12Z</time>
      </trkpt>
      <trkpt lat="42.92103" lon="-8.29642">
        <time>2022-07-15T08:37:16Z</time>
      </trkpt>
      <trkpt lat="42.920982" lon="-8.296473">
        <time>2022-07-15T08:37:21Z</time>
      </trkpt>
      <trkpt lat="42.920933" lon="-8.296531">
        <time>2022-07-15T08:37:26Z</time>
      </trkpt>
      <trkpt lat="42.920895" lon="-8.296578">
        <time>2022-07-15T08:37:30Z</time>
      </trkpt>
      <trkpt lat="42.920853" lon="-8.296622">
        <time>2022-07-15T08:37:35Z</time>
      </trkpt>
      <trkpt lat="42.92081" lon="-8.29667">
        <time>2022-07-15T08:37:40Z</time>
      </trkpt>
      <trkpt lat="42.92078" lon="-8.296724">
        <time>2022-07-15T08:37:45Z</time>
      </trkpt>
      <trkpt lat="42.92074" lon="-8.296782">
        <time>2022-07-15T08:37:51Z</time>
      </trkpt>
      <trkpt lat="42.920696" lon="-8.29684">
        <time>2022-07-15T08:37:56Z</time>
      </trkpt>
      <trkpt lat="42.920662" lon="-8.296889">
        <time>2022-07-15T08:38:00Z</time>
      </trkpt>
      <trkpt lat="42.920624" lon="-8.296939">
        <time>2022-07-15T08:38:05Z</time>
      </trkpt>
      <trkpt lat="42.92059" lon="-8.296991">
        <time>2022-07-15T08:38:10Z</time>
      </trkpt>
      <trkpt lat="42.920547" lon="-8.297047">
        <time>2022-07-15T08:38:15Z</time>
      </trkpt>
      <trkpt lat="42.920517" lon="-8.297097">
        <time>2022-07-15T08:38:21Z</time>
      </trkpt>
      <trkpt lat="42.92049" lon="-8.297168">
        <time>2022-07-15T08:38:28Z</time>
      </trkpt>
      <trkpt lat="42.920467" lon="-8.29723">
        <time>2022-07-15T08:38:33Z</time>
      </trkpt>
      <trkpt lat="42.92044" lon="-8.297298">
        <time>2022-07-15T08:38:38Z</time>
      </trkpt>
      <trkpt lat="42.92041" lon="-8.297367">
        <time>2022-07-15T08:38:43Z</time>
      </trkpt>
      <trkpt lat="42.9204" lon="-8.297432">
        <time>2022-07-15T08:38:48Z</time>
      </trkpt>
      <trkpt lat="42.9204" lon="-8.297511">
        <time>2022-07-15T08:38:53Z</time>
      </trkpt>
      <trkpt lat="42.920395" lon="-8.297584">
        <time>2022-07-15T08:38:58Z</time>
      </trkpt>
      <trkpt lat="42.92039" lon="-8.297648">
        <time>2022-07-15T08:39:02Z</time>
      </trkpt>
      <trkpt lat="42.92039" lon="-8.29773">
        <time>2022-07-15T08:39:07Z</time>
      </trkpt>
      <trkpt lat="42.920387" lon="-8.297793">
        <time>2022-07-15T08:39:12Z</time>
      </trkpt>
      <trkpt lat="42.920372" lon="-8.297859">
        <time>2022-07-15T08:39:17Z</time>
      </trkpt>
      <trkpt lat="42.92036" lon="-8.297936">
        <time>2022-07-15T08:39:23Z</time>
      </trkpt>
      <trkpt lat="42.92034" lon="-8.298013">
        <time>2022-07-15T08:39:28Z</time>
      </trkpt>
      <trkpt lat="42.920326" lon="-8.298076">
        <time>2022-07-15T08:39:32Z</time>
      </trkpt>
      <trkpt lat="42.920307" lon="-8.298142">
        <time>2022-07-15T08:39:36Z</time>
      </trkpt>
      <trkpt lat="42.920284" lon="-8.298204">
        <time>2022-07-15T08:39:41Z</time>
      </trkpt>
      <trkpt lat="42.920273" lon="-8.298279">
        <time>2022-07-15T08:39:46Z</time>
      </trkpt>
      <trkpt lat="42.92027" lon="-8.298355">
        <time>2022-07-15T08:39:52Z</time>
      </trkpt>
      <trkpt lat="42.92028" lon="-8.298428">
        <time>2022-07-15T08:39:57Z</time>
      </trkpt>
      <trkpt lat="42.92028" lon="-8.29849">
        <time>2022-07-15T08:40:01Z</time>
      </trkpt>
      <trkpt lat="42.92026" lon="-8.298558">
        <time>2022-07-15T08:40:06Z</time>
      </trkpt>
      <trkpt lat="42.92026" lon="-8.29866">
        <time>2022-07-15T08:40:17Z</time>
      </trkpt>
      <trkpt lat="42.920242" lon="-8.29873">
        <time>2022-07-15T08:40:23Z</time>
      </trkpt>
      <trkpt lat="42.920227" lon="-8.298795">
        <time>2022-07-15T08:40:28Z</time>
      </trkpt>
      <trkpt lat="42.920208" lon="-8.298858">
        <time>2022-07-15T08:40:33Z</time>
      </trkpt>
      <trkpt lat="42.920185" lon="-8.298933">
        <time>2022-07-15T08:40:40Z</time>
      </trkpt>
      <trkpt lat="42.920147" lon="-8.298997">
        <time>2022-07-15T08:40:45Z</time>
      </trkpt>
      <trkpt lat="42.920113" lon="-8.299042">
        <time>2022-07-15T08:40:50Z</time>
      </trkpt>
      <trkpt lat="42.920063" lon="-8.299077">
        <time>2022-07-15T08:40:55Z</time>
      </trkpt>
      <trkpt lat="42.920013" lon="-8.299126">
        <time>2022-07-15T08:41:00Z</time>
      </trkpt>
      <trkpt lat="42.919964" lon="-8.299167">
        <time>2022-07-15T08:41:05Z</time>
      </trkpt>
      <trkpt lat="42.919918" lon="-8.299216">
        <time>2022-07-15T08:41:10Z</time>
      </trkpt>
      <trkpt lat="42.919876" lon="-8.299256">
        <time>2022-07-15T08:41:15Z</time>
      </trkpt>
      <trkpt lat="42.919838" lon="-8.299313">
        <time>2022-07-15T08:41:20Z</time>
      </trkpt>
      <trkpt lat="42.919785" lon="-8.299375">
        <time>2022-07-15T08:41:26Z</time>
      </trkpt>
      <trkpt lat="42.919746" lon="-8.299406">
        <time>2022-07-15T08:41:30Z</time>
      </trkpt>
      <trkpt lat="42.9197" lon="-8.299456">
        <time>2022-07-15T08:41:35Z</time>
      </trkpt>
      <trkpt lat="42.91965" lon="-8.299484">
        <time>2022-07-15T08:41:40Z</time>
      </trkpt>
      <trkpt lat="42.9196" lon="-8.299515">
        <time>2022-07-15T08:41:44Z</time>
      </trkpt>
      <trkpt lat="42.91956" lon="-8.299562">
        <time>2022-07-15T08:41:49Z</time>
      </trkpt>
      <trkpt lat="42.919525" lon="-8.299606">
        <time>2022-07-15T08:41:53Z</time>
      </trkpt>
      <trkpt lat="42.91948" lon="-8.299656">
        <time>2022-07-15T08:41:58Z</time>
      </trkpt>
      <trkpt lat="42.919453" lon="-8.299711">
        <time>2022-07-15T08:42:03Z</time>
      </trkpt>
      <trkpt lat="42.919422" lon="-8.299778">
        <time>2022-07-15T08:42:08Z</time>
      </trkpt>
      <trkpt lat="42.91938" lon="-8.299836">
        <time>2022-07-15T08:42:13Z</time>
      </trkpt>
      <trkpt lat="42.919346" lon="-8.299901">
        <time>2022-07-15T08:42:18Z</time>
      </trkpt>
      <trkpt lat="42.91932" lon="-8.299967">
        <time>2022-07-15T08:42:22Z</time>
      </trkpt>
      <trkpt lat="42.91929" lon="-8.300029">
        <time>2022-07-15T08:42:26Z</time>
      </trkpt>
      <trkpt lat="42.91927" lon="-8.300088">
        <time>2022-07-15T08:42:30Z</time>
      </trkpt>
      <trkpt lat="42.91924" lon="-8.300159">
        <time>2022-07-15T08:42:35Z</time>
      </trkpt>
      <trkpt lat="42.919224" lon="-8.300239">
        <time>2022-07-15T08:42:40Z</time>
      </trkpt>
      <trkpt lat="42.919205" lon="-8.300303">
        <time>2022-07-15T08:42:44Z</time>
      </trkpt>
      <trkpt lat="42.91919" lon="-8.30038">
        <time>2022-07-15T08:42:49Z</time>
      </trkpt>
      <trkpt lat="42.919174" lon="-8.300449">
        <time>2022-07-15T08:42:54Z</time>
      </trkpt>
      <trkpt lat="42.919163" lon="-8.300515">
        <time>2022-07-15T08:42:59Z</time>
      </trkpt>
      <trkpt lat="42.91914" lon="-8.300587">
        <time>2022-07-15T08:43:04Z</time>
      </trkpt>
      <trkpt lat="42.91912" lon="-8.300653">
        <time>2022-07-15T08:43:09Z</time>
      </trkpt>
      <trkpt lat="42.919098" lon="-8.30072">
        <time>2022-07-15T08:43:14Z</time>
      </trkpt>
      <trkpt lat="42.919075" lon="-8.300779">
        <time>2022-07-15T08:43:20Z</time>
      </trkpt>
      <trkpt lat="42.919025" lon="-8.300859">
        <time>2022-07-15T08:43:42Z</time>
      </trkpt>
      <trkpt lat="42.918983" lon="-8.300914">
        <time>2022-07-15T08:43:49Z</time>
      </trkpt>
      <trkpt lat="42.918945" lon="-8.300966">
        <time>2022-07-15T08:43:54Z</time>
      </trkpt>
      <trkpt lat="42.9189" lon="-8.301022">
        <time>2022-07-15T08:43:59Z</time>
      </trkpt>
      <trkpt lat="42.918865" lon="-8.301081">
        <time>2022-07-15T08:44:03Z</time>
      </trkpt>
      <trkpt lat="42.918865" lon="-8.3011465">
        <time>2022-07-15T08:44:09Z</time>
      </trkpt>
      <trkpt lat="42.918945" lon="-8.30133">
        <time>2022-07-15T08:44:21Z</time>
      </trkpt>
      <trkpt lat="42.91894" lon="-8.301335">
        <time>2022-07-15T08:44:22Z</time>
      </trkpt>
      <trkpt lat="42.91897" lon="-8.301395">
        <time>2022-07-15T08:44:28Z</time>
      </trkpt>
      <trkpt lat="42.91898" lon="-8.30147">
        <time>2022-07-15T08:44:36Z</time>
      </trkpt>
      <trkpt lat="42.91899" lon="-8.301537">
        <time>2022-07-15T08:44:42Z</time>
      </trkpt>
      <trkpt lat="42.919025" lon="-8.301584">
        <time>2022-07-15T08:44:48Z</time>
      </trkpt>
      <trkpt lat="42.919044" lon="-8.301654">
        <time>2022-07-15T08:44:54Z</time>
      </trkpt>
      <trkpt lat="42.919044" lon="-8.301734">
        <time>2022-07-15T08:45:00Z</time>
      </trkpt>
      <trkpt lat="42.91907" lon="-8.301793">
        <time>2022-07-15T08:45:06Z</time>
      </trkpt>
      <trkpt lat="42.91908" lon="-8.301874">
        <time>2022-07-15T08:45:12Z</time>
      </trkpt>
      <trkpt lat="42.9191" lon="-8.301934">
        <time>2022-07-15T08:45:17Z</time>
      </trkpt>
      <trkpt lat="42.919117" lon="-8.302002">
        <time>2022-07-15T08:45:22Z</time>
      </trkpt>
      <trkpt lat="42.91913" lon="-8.302073">
        <time>2022-07-15T08:45:27Z</time>
      </trkpt>
      <trkpt lat="42.91914" lon="-8.302145">
        <time>2022-07-15T08:45:32Z</time>
      </trkpt>
      <trkpt lat="42.919125" lon="-8.3022375">
        <time>2022-07-15T08:45:37Z</time>
      </trkpt>
      <trkpt lat="42.91912" lon="-8.302314">
        <time>2022-07-15T08:45:41Z</time>
      </trkpt>
      <trkpt lat="42.91912" lon="-8.3023815">
        <time>2022-07-15T08:45:45Z</time>
      </trkpt>
      <trkpt lat="42.919136" lon="-8.302459">
        <time>2022-07-15T08:45:50Z</time>
      </trkpt>
      <trkpt lat="42.91915" lon="-8.302534">
        <time>2022-07-15T08:45:55Z</time>
      </trkpt>
      <trkpt lat="42.919155" lon="-8.302609">
        <time>2022-07-15T08:45:59Z</time>
      </trkpt>
      <trkpt lat="42.919174" lon="-8.302668">
        <time>2022-07-15T08:46:03Z</time>
      </trkpt>
      <trkpt lat="42.919186" lon="-8.302757">
        <time>2022-07-15T08:46:08Z</time>
      </trkpt>
      <trkpt lat="42.919193" lon="-8.302827">
        <time>2022-07-15T08:46:12Z</time>
      </trkpt>
      <trkpt lat="42.919216" lon="-8.302895">
        <time>2022-07-15T08:46:17Z</time>
      </trkpt>
      <trkpt lat="42.919228" lon="-8.302966">
        <time>2022-07-15T08:46:22Z</time>
      </trkpt>
      <trkpt lat="42.919235" lon="-8.303044">
        <time>2022-07-15T08:46:27Z</time>
      </trkpt>
      <trkpt lat="42.91925" lon="-8.303117">
        <time>2022-07-15T08:46:32Z</time>
      </trkpt>
      <trkpt lat="42.91927" lon="-8.303198">
        <time>2022-07-15T08:46:38Z</time>
      </trkpt>
      <trkpt lat="42.919285" lon="-8.303273">
        <time>2022-07-15T08:46:43Z</time>
      </trkpt>
      <trkpt lat="42.919292" lon="-8.303342">
        <time>2022-07-15T08:46:51Z</time>
      </trkpt>
      <trkpt lat="42.9193" lon="-8.303422">
        <time>2022-07-15T08:46:57Z</time>
      </trkpt>
      <trkpt lat="42.919308" lon="-8.303492">
        <time>2022-07-15T08:47:01Z</time>
      </trkpt>
      <trkpt lat="42.91931" lon="-8.303561">
        <time>2022-07-15T08:47:05Z</time>
      </trkpt>
      <trkpt lat="42.919308" lon="-8.303637">
        <time>2022-07-15T08:47:10Z</time>
      </trkpt>
      <trkpt lat="42.919308" lon="-8.303701">
        <time>2022-07-15T08:47:15Z</time>
      </trkpt>
      <trkpt lat="42.919273" lon="-8.303759">
        <time>2022-07-15T08:47:21Z</time>
      </trkpt>
      <trkpt lat="42.919235" lon="-8.303806">
        <time>2022-07-15T08:47:27Z</time>
      </trkpt>
      <trkpt lat="42.919216" lon="-8.303876">
        <time>2022-07-15T08:47:35Z</time>
      </trkpt>
      <trkpt lat="42.91919" lon="-8.303902">
        <time>2022-07-15T08:48:31Z</time>
      </trkpt>
      <trkpt lat="42.919136" lon="-8.303931">
        <time>2022-07-15T08:48:43Z</time>
      </trkpt>
      <trkpt lat="42.919098" lon="-8.304011">
        <time>2022-07-15T08:50:27Z</time>
      </trkpt>
      <trkpt lat="42.919167" lon="-8.303951">
        <time>2022-07-15T08:51:36Z</time>
      </trkpt>
      <trkpt lat="42.919224" lon="-8.303925">
        <time>2022-07-15T09:05:31Z</time>
      </trkpt>
      <trkpt lat="42.919228" lon="-8.304023">
        <time>2022-07-15T09:05:37Z</time>
      </trkpt>
      <trkpt lat="42.91923" lon="-8.304099">
        <time>2022-07-15T09:05:41Z</time>
      </trkpt>
      <trkpt lat="42.919224" lon="-8.304159">
        <time>2022-07-15T09:05:45Z</time>
      </trkpt>
      <trkpt lat="42.91921" lon="-8.304235">
        <time>2022-07-15T09:05:50Z</time>
      </trkpt>
      <trkpt lat="42.9192" lon="-8.304303">
        <time>2022-07-15T09:05:55Z</time>
      </trkpt>
      <trkpt lat="42.919186" lon="-8.304384">
        <time>2022-07-15T09:06:01Z</time>
      </trkpt>
      <trkpt lat="42.919174" lon="-8.304463">
        <time>2022-07-15T09:06:07Z</time>
      </trkpt>
      <trkpt lat="42.91915" lon="-8.304532">
        <time>2022-07-15T09:06:12Z</time>
      </trkpt>
      <trkpt lat="42.91914" lon="-8.304598">
        <time>2022-07-15T09:06:17Z</time>
      </trkpt>
      <trkpt lat="42.919136" lon="-8.3046665">
        <time>2022-07-15T09:06:21Z</time>
      </trkpt>
      <trkpt lat="42.919125" lon="-8.304748">
        <time>2022-07-15T09:06:27Z</time>
      </trkpt>
      <trkpt lat="42.91911" lon="-8.304808">
        <time>2022-07-15T09:06:32Z</time>
      </trkpt>
      <trkpt lat="42.919094" lon="-8.304882">
        <time>2022-07-15T09:06:37Z</time>
      </trkpt>
      <trkpt lat="42.919086" lon="-8.304966">
        <time>2022-07-15T09:06:42Z</time>
      </trkpt>
      <trkpt lat="42.91908" lon="-8.305042">
        <time>2022-07-15T09:06:47Z</time>
      </trkpt>
      <trkpt lat="42.919067" lon="-8.305118">
        <time>2022-07-15T09:06:53Z</time>
      </trkpt>
      <trkpt lat="42.91904" lon="-8.305168">
        <time>2022-07-15T09:06:58Z</time>
      </trkpt>
      <trkpt lat="42.918983" lon="-8.305207">
        <time>2022-07-15T09:07:03Z</time>
      </trkpt>
      <trkpt lat="42.91894" lon="-8.305239">
        <time>2022-07-15T09:07:08Z</time>
      </trkpt>
      <trkpt lat="42.91889" lon="-8.305242">
        <time>2022-07-15T09:07:21Z</time>
      </trkpt>
      <trkpt lat="42.91884" lon="-8.305293">
        <time>2022-07-15T09:07:28Z</time>
      </trkpt>
      <trkpt lat="42.91882" lon="-8.305362">
        <time>2022-07-15T09:07:33Z</time>
      </trkpt>
      <trkpt lat="42.91882" lon="-8.305437">
        <time>2022-07-15T09:07:38Z</time>
      </trkpt>
      <trkpt lat="42.918823" lon="-8.305518">
        <time>2022-07-15T09:07:43Z</time>
      </trkpt>
      <trkpt lat="42.918835" lon="-8.305584">
        <time>2022-07-15T09:07:48Z</time>
      </trkpt>
      <trkpt lat="42.918877" lon="-8.305629">
        <time>2022-07-15T09:07:54Z</time>
      </trkpt>
      <trkpt lat="42.918922" lon="-8.30567">
        <time>2022-07-15T09:07:59Z</time>
      </trkpt>
      <trkpt lat="42.918953" lon="-8.305728">
        <time>2022-07-15T09:08:05Z</time>
      </trkpt>
      <trkpt lat="42.918972" lon="-8.305807">
        <time>2022-07-15T09:08:11Z</time>
      </trkpt>
      <trkpt lat="42.918964" lon="-8.305889">
        <time>2022-07-15T09:08:17Z</time>
      </trkpt>
      <trkpt lat="42.91896" lon="-8.305956">
        <time>2022-07-15T09:08:22Z</time>
      </trkpt>
      <trkpt lat="42.918953" lon="-8.306035">
        <time>2022-07-15T09:08:28Z</time>
      </trkpt>
      <trkpt lat="42.918957" lon="-8.3061">
        <time>2022-07-15T09:08:35Z</time>
      </trkpt>
      <trkpt lat="42.91897" lon="-8.306175">
        <time>2022-07-15T09:08:41Z</time>
      </trkpt>
      <trkpt lat="42.91897" lon="-8.30625">
        <time>2022-07-15T09:08:49Z</time>
      </trkpt>
      <trkpt lat="42.918983" lon="-8.306332">
        <time>2022-07-15T09:08:54Z</time>
      </trkpt>
      <trkpt lat="42.919006" lon="-8.306403">
        <time>2022-07-15T09:08:59Z</time>
      </trkpt>
      <trkpt lat="42.91901" lon="-8.306469">
        <time>2022-07-15T09:09:04Z</time>
      </trkpt>
      <trkpt lat="42.91902" lon="-8.306529">
        <time>2022-07-15T09:09:13Z</time>
      </trkpt>
      <trkpt lat="42.919025" lon="-8.306599">
        <time>2022-07-15T09:09:24Z</time>
      </trkpt>
      <trkpt lat="42.91901" lon="-8.306683">
        <time>2022-07-15T09:09:30Z</time>
      </trkpt>
      <trkpt lat="42.918995" lon="-8.306743">
        <time>2022-07-15T09:09:34Z</time>
      </trkpt>
      <trkpt lat="42.918983" lon="-8.306819">
        <time>2022-07-15T09:09:40Z</time>
      </trkpt>
      <trkpt lat="42.91896" lon="-8.306894">
        <time>2022-07-15T09:09:46Z</time>
      </trkpt>
      <trkpt lat="42.918938" lon="-8.306956">
        <time>2022-07-15T09:09:51Z</time>
      </trkpt>
      <trkpt lat="42.918907" lon="-8.307036">
        <time>2022-07-15T09:09:57Z</time>
      </trkpt>
      <trkpt lat="42.918884" lon="-8.307098">
        <time>2022-07-15T09:10:01Z</time>
      </trkpt>
      <trkpt lat="42.91885" lon="-8.307148">
        <time>2022-07-15T09:10:06Z</time>
      </trkpt>
      <trkpt lat="42.918816" lon="-8.307198">
        <time>2022-07-15T09:10:13Z</time>
      </trkpt>
      <trkpt lat="42.91878" lon="-8.307256">
        <time>2022-07-15T09:10:19Z</time>
      </trkpt>
      <trkpt lat="42.91875" lon="-8.307311">
        <time>2022-07-15T09:10:25Z</time>
      </trkpt>
      <trkpt lat="42.91871" lon="-8.307373">
        <time>2022-07-15T09:10:30Z</time>
      </trkpt>
      <trkpt lat="42.918667" lon="-8.307435">
        <time>2022-07-15T09:10:35Z</time>
      </trkpt>
      <trkpt lat="42.918625" lon="-8.307502">
        <time>2022-07-15T09:10:40Z</time>
      </trkpt>
      <trkpt lat="42.918594" lon="-8.307562">
        <time>2022-07-15T09:10:44Z</time>
      </trkpt>
      <trkpt lat="42.918552" lon="-8.307617">
        <time>2022-07-15T09:10:49Z</time>
      </trkpt>
      <trkpt lat="42.918526" lon="-8.307678">
        <time>2022-07-15T09:10:54Z</time>
      </trkpt>
      <trkpt lat="42.918495" lon="-8.307747">
        <time>2022-07-15T09:10:59Z</time>
      </trkpt>
      <trkpt lat="42.918472" lon="-8.307818">
        <time>2022-07-15T09:11:04Z</time>
      </trkpt>
      <trkpt lat="42.91846" lon="-8.307884">
        <time>2022-07-15T09:11:09Z</time>
      </trkpt>
      <trkpt lat="42.91844" lon="-8.307948">
        <time>2022-07-15T09:11:15Z</time>
      </trkpt>
      <trkpt lat="42.918423" lon="-8.308031">
        <time>2022-07-15T09:11:21Z</time>
      </trkpt>
      <trkpt lat="42.918415" lon="-8.308104">
        <time>2022-07-15T09:11:26Z</time>
      </trkpt>
      <trkpt lat="42.9184" lon="-8.308185">
        <time>2022-07-15T09:11:31Z</time>
      </trkpt>
      <trkpt lat="42.918392" lon="-8.308255">
        <time>2022-07-15T09:11:35Z</time>
      </trkpt>
      <trkpt lat="42.918392" lon="-8.308325">
        <time>2022-07-15T09:11:39Z</time>
      </trkpt>
      <trkpt lat="42.91839" lon="-8.30839">
        <time>2022-07-15T09:11:43Z</time>
      </trkpt>
      <trkpt lat="42.918385" lon="-8.308469">
        <time>2022-07-15T09:11:48Z</time>
      </trkpt>
      <trkpt lat="42.91838" lon="-8.30854">
        <time>2022-07-15T09:11:52Z</time>
      </trkpt>
      <trkpt lat="42.9184" lon="-8.308612">
        <time>2022-07-15T09:11:57Z</time>
      </trkpt>
      <trkpt lat="42.918423" lon="-8.308685">
        <time>2022-07-15T09:12:02Z</time>
      </trkpt>
      <trkpt lat="42.91844" lon="-8.308748">
        <time>2022-07-15T09:12:06Z</time>
      </trkpt>
      <trkpt lat="42.918457" lon="-8.308808">
        <time>2022-07-15T09:12:10Z</time>
      </trkpt>
      <trkpt lat="42.91847" lon="-8.308892">
        <time>2022-07-15T09:13:04Z</time>
      </trkpt>
      <trkpt lat="42.918423" lon="-8.308964">
        <time>2022-07-15T09:13:10Z</time>
      </trkpt>
      <trkpt lat="42.918396" lon="-8.30903">
        <time>2022-07-15T09:13:15Z</time>
      </trkpt>
      <trkpt lat="42.918373" lon="-8.309101">
        <time>2022-07-15T09:13:20Z</time>
      </trkpt>
      <trkpt lat="42.918354" lon="-8.309168">
        <time>2022-07-15T09:13:25Z</time>
      </trkpt>
      <trkpt lat="42.918346" lon="-8.309245">
        <time>2022-07-15T09:13:30Z</time>
      </trkpt>
      <trkpt lat="42.918346" lon="-8.309322">
        <time>2022-07-15T09:13:35Z</time>
      </trkpt>
      <trkpt lat="42.918346" lon="-8.309402">
        <time>2022-07-15T09:13:40Z</time>
      </trkpt>
      <trkpt lat="42.91835" lon="-8.309472">
        <time>2022-07-15T09:13:45Z</time>
      </trkpt>
      <trkpt lat="42.91835" lon="-8.309547">
        <time>2022-07-15T09:13:50Z</time>
      </trkpt>
      <trkpt lat="42.918358" lon="-8.309615">
        <time>2022-07-15T09:13:55Z</time>
      </trkpt>
      <trkpt lat="42.918354" lon="-8.309701">
        <time>2022-07-15T09:14:01Z</time>
      </trkpt>
      <trkpt lat="42.91835" lon="-8.309776">
        <time>2022-07-15T09:14:06Z</time>
      </trkpt>
      <trkpt lat="42.918346" lon="-8.309854">
        <time>2022-07-15T09:14:11Z</time>
      </trkpt>
      <trkpt lat="42.91835" lon="-8.309916">
        <time>2022-07-15T09:14:15Z</time>
      </trkpt>
      <trkpt lat="42.91836" lon="-8.309986">
        <time>2022-07-15T09:14:20Z</time>
      </trkpt>
      <trkpt lat="42.918365" lon="-8.310072">
        <time>2022-07-15T09:14:26Z</time>
      </trkpt>
      <trkpt lat="42.918365" lon="-8.310149">
        <time>2022-07-15T09:14:31Z</time>
      </trkpt>
      <trkpt lat="42.91836" lon="-8.310229">
        <time>2022-07-15T09:14:36Z</time>
      </trkpt>
      <trkpt lat="42.918358" lon="-8.310304">
        <time>2022-07-15T09:14:40Z</time>
      </trkpt>
      <trkpt lat="42.918346" lon="-8.310379">
        <time>2022-07-15T09:14:45Z</time>
      </trkpt>
      <trkpt lat="42.91834" lon="-8.3104515">
        <time>2022-07-15T09:14:50Z</time>
      </trkpt>
      <trkpt lat="42.918324" lon="-8.310533">
        <time>2022-07-15T09:14:55Z</time>
      </trkpt>
      <trkpt lat="42.9183" lon="-8.310603">
        <time>2022-07-15T09:15:00Z</time>
      </trkpt>
      <trkpt lat="42.91826" lon="-8.310646">
        <time>2022-07-15T09:15:06Z</time>
      </trkpt>
      <trkpt lat="42.918205" lon="-8.31064">
        <time>2022-07-15T09:15:12Z</time>
      </trkpt>
      <trkpt lat="42.918148" lon="-8.310623">
        <time>2022-07-15T09:15:17Z</time>
      </trkpt>
      <trkpt lat="42.918095" lon="-8.310599">
        <time>2022-07-15T09:15:22Z</time>
      </trkpt>
      <trkpt lat="42.918045" lon="-8.310596">
        <time>2022-07-15T09:15:26Z</time>
      </trkpt>
      <trkpt lat="42.917988" lon="-8.310595">
        <time>2022-07-15T09:15:31Z</time>
      </trkpt>
      <trkpt lat="42.917934" lon="-8.310583">
        <time>2022-07-15T09:15:36Z</time>
      </trkpt>
      <trkpt lat="42.917877" lon="-8.310564">
        <time>2022-07-15T09:15:41Z</time>
      </trkpt>
      <trkpt lat="42.917824" lon="-8.310553">
        <time>2022-07-15T09:15:46Z</time>
      </trkpt>
      <trkpt lat="42.91777" lon="-8.31054">
        <time>2022-07-15T09:15:50Z</time>
      </trkpt>
      <trkpt lat="42.91772" lon="-8.310525">
        <time>2022-07-15T09:15:54Z</time>
      </trkpt>
      <trkpt lat="42.917656" lon="-8.310503">
        <time>2022-07-15T09:16:00Z</time>
      </trkpt>
      <trkpt lat="42.9176" lon="-8.310489">
        <time>2022-07-15T09:16:05Z</time>
      </trkpt>
      <trkpt lat="42.91755" lon="-8.3104725">
        <time>2022-07-15T09:16:09Z</time>
      </trkpt>
      <trkpt lat="42.9175" lon="-8.31049">
        <time>2022-07-15T09:16:14Z</time>
      </trkpt>
      <trkpt lat="42.91748" lon="-8.310555">
        <time>2022-07-15T09:16:19Z</time>
      </trkpt>
      <trkpt lat="42.917458" lon="-8.310645">
        <time>2022-07-15T09:16:24Z</time>
      </trkpt>
      <trkpt lat="42.91745" lon="-8.310719">
        <time>2022-07-15T09:16:29Z</time>
      </trkpt>
      <trkpt lat="42.917442" lon="-8.310785">
        <time>2022-07-15T09:16:33Z</time>
      </trkpt>
      <trkpt lat="42.917427" lon="-8.3108635">
        <time>2022-07-15T09:16:38Z</time>
      </trkpt>
      <trkpt lat="42.91741" lon="-8.310925">
        <time>2022-07-15T09:16:42Z</time>
      </trkpt>
      <trkpt lat="42.917404" lon="-8.311004">
        <time>2022-07-15T09:16:47Z</time>
      </trkpt>
      <trkpt lat="42.917393" lon="-8.311077">
        <time>2022-07-15T09:16:52Z</time>
      </trkpt>
      <trkpt lat="42.91738" lon="-8.31115">
        <time>2022-07-15T09:16:57Z</time>
      </trkpt>
      <trkpt lat="42.917377" lon="-8.311223">
        <time>2022-07-15T09:17:02Z</time>
      </trkpt>
      <trkpt lat="42.917366" lon="-8.311295">
        <time>2022-07-15T09:17:07Z</time>
      </trkpt>
      <trkpt lat="42.91736" lon="-8.311367">
        <time>2022-07-15T09:17:12Z</time>
      </trkpt>
      <trkpt lat="42.91735" lon="-8.311451">
        <time>2022-07-15T09:17:18Z</time>
      </trkpt>
      <trkpt lat="42.917343" lon="-8.311526">
        <time>2022-07-15T09:17:23Z</time>
      </trkpt>
      <trkpt lat="42.917343" lon="-8.311599">
        <time>2022-07-15T09:17:28Z</time>
      </trkpt>
      <trkpt lat="42.917336" lon="-8.311668">
        <time>2022-07-15T09:17:33Z</time>
      </trkpt>
      <trkpt lat="42.91733" lon="-8.311747">
        <time>2022-07-15T09:17:38Z</time>
      </trkpt>
      <trkpt lat="42.917324" lon="-8.31183">
        <time>2022-07-15T09:17:44Z</time>
      </trkpt>
      <trkpt lat="42.91732" lon="-8.311915">
        <time>2022-07-15T09:17:49Z</time>
      </trkpt>
      <trkpt lat="42.917316" lon="-8.311986">
        <time>2022-07-15T09:17:53Z</time>
      </trkpt>
      <trkpt lat="42.91731" lon="-8.312061">
        <time>2022-07-15T09:17:58Z</time>
      </trkpt>
      <trkpt lat="42.9173" lon="-8.312135">
        <time>2022-07-15T09:18:03Z</time>
      </trkpt>
      <trkpt lat="42.917294" lon="-8.312205">
        <time>2022-07-15T09:18:08Z</time>
      </trkpt>
      <trkpt lat="42.91728" lon="-8.312282">
        <time>2022-07-15T09:18:13Z</time>
      </trkpt>
      <trkpt lat="42.917267" lon="-8.312359">
        <time>2022-07-15T09:18:18Z</time>
      </trkpt>
      <trkpt lat="42.917263" lon="-8.312432">
        <time>2022-07-15T09:18:23Z</time>
      </trkpt>
      <trkpt lat="42.917267" lon="-8.312508">
        <time>2022-07-15T09:18:28Z</time>
      </trkpt>
      <trkpt lat="42.91726" lon="-8.312583">
        <time>2022-07-15T09:18:33Z</time>
      </trkpt>
      <trkpt lat="42.917244" lon="-8.312655">
        <time>2022-07-15T09:18:38Z</time>
      </trkpt>
      <trkpt lat="42.917236" lon="-8.312745">
        <time>2022-07-15T09:18:43Z</time>
      </trkpt>
      <trkpt lat="42.917233" lon="-8.312811">
        <time>2022-07-15T09:18:47Z</time>
      </trkpt>
      <trkpt lat="42.91722" lon="-8.312893">
        <time>2022-07-15T09:18:52Z</time>
      </trkpt>
      <trkpt lat="42.91721" lon="-8.312972">
        <time>2022-07-15T09:18:57Z</time>
      </trkpt>
      <trkpt lat="42.9172" lon="-8.313041">
        <time>2022-07-15T09:19:01Z</time>
      </trkpt>
      <trkpt lat="42.917187" lon="-8.313109">
        <time>2022-07-15T09:19:05Z</time>
      </trkpt>
      <trkpt lat="42.91718" lon="-8.313186">
        <time>2022-07-15T09:19:10Z</time>
      </trkpt>
      <trkpt lat="42.917175" lon="-8.313266">
        <time>2022-07-15T09:19:15Z</time>
      </trkpt>
      <trkpt lat="42.91717" lon="-8.313345">
        <time>2022-07-15T09:19:20Z</time>
      </trkpt>
      <trkpt lat="42.917164" lon="-8.313424">
        <time>2022-07-15T09:19:25Z</time>
      </trkpt>
      <trkpt lat="42.917156" lon="-8.313497">
        <time>2022-07-15T09:19:30Z</time>
      </trkpt>
      <trkpt lat="42.91715" lon="-8.313577">
        <time>2022-07-15T09:19:35Z</time>
      </trkpt>
      <trkpt lat="42.917145" lon="-8.313645">
        <time>2022-07-15T09:19:39Z</time>
      </trkpt>
      <trkpt lat="42.917133" lon="-8.313729">
        <time>2022-07-15T09:19:44Z</time>
      </trkpt>
      <trkpt lat="42.917126" lon="-8.313812">
        <time>2022-07-15T09:19:49Z</time>
      </trkpt>
      <trkpt lat="42.91712" lon="-8.313891">
        <time>2022-07-15T09:19:54Z</time>
      </trkpt>
      <trkpt lat="42.91711" lon="-8.31397">
        <time>2022-07-15T09:19:59Z</time>
      </trkpt>
      <trkpt lat="42.9171" lon="-8.314051">
        <time>2022-07-15T09:20:04Z</time>
      </trkpt>
      <trkpt lat="42.91709" lon="-8.314128">
        <time>2022-07-15T09:20:09Z</time>
      </trkpt>
      <trkpt lat="42.91708" lon="-8.314211">
        <time>2022-07-15T09:20:14Z</time>
      </trkpt>
      <trkpt lat="42.917076" lon="-8.314288">
        <time>2022-07-15T09:20:19Z</time>
      </trkpt>
      <trkpt lat="42.91707" lon="-8.314363">
        <time>2022-07-15T09:20:24Z</time>
      </trkpt>
      <trkpt lat="42.917065" lon="-8.314438">
        <time>2022-07-15T09:20:29Z</time>
      </trkpt>
      <trkpt lat="42.917053" lon="-8.314524">
        <time>2022-07-15T09:20:35Z</time>
      </trkpt>
      <trkpt lat="42.917038" lon="-8.314605">
        <time>2022-07-15T09:20:40Z</time>
      </trkpt>
      <trkpt lat="42.917027" lon="-8.314673">
        <time>2022-07-15T09:20:44Z</time>
      </trkpt>
      <trkpt lat="42.91702" lon="-8.31474">
        <time>2022-07-15T09:20:48Z</time>
      </trkpt>
      <trkpt lat="42.91701" lon="-8.314819">
        <time>2022-07-15T09:20:53Z</time>
      </trkpt>
      <trkpt lat="42.917015" lon="-8.314895">
        <time>2022-07-15T09:20:58Z</time>
      </trkpt>
      <trkpt lat="42.91701" lon="-8.31497">
        <time>2022-07-15T09:21:03Z</time>
      </trkpt>
      <trkpt lat="42.917" lon="-8.315048">
        <time>2022-07-15T09:21:08Z</time>
      </trkpt>
      <trkpt lat="42.91699" lon="-8.315119">
        <time>2022-07-15T09:21:12Z</time>
      </trkpt>
      <trkpt lat="42.91698" lon="-8.315186">
        <time>2022-07-15T09:21:16Z</time>
      </trkpt>
      <trkpt lat="42.91698" lon="-8.315261">
        <time>2022-07-15T09:21:22Z</time>
      </trkpt>
      <trkpt lat="42.916973" lon="-8.31534">
        <time>2022-07-15T09:21:27Z</time>
      </trkpt>
      <trkpt lat="42.916965" lon="-8.315408">
        <time>2022-07-15T09:21:31Z</time>
      </trkpt>
      <trkpt lat="42.91694" lon="-8.315459">
        <time>2022-07-15T09:21:36Z</time>
      </trkpt>
      <trkpt lat="42.91688" lon="-8.315483">
        <time>2022-07-15T09:21:41Z</time>
      </trkpt>
      <trkpt lat="42.916832" lon="-8.315517">
        <time>2022-07-15T09:21:46Z</time>
      </trkpt>
      <trkpt lat="42.916798" lon="-8.31557">
        <time>2022-07-15T09:21:50Z</time>
      </trkpt>
      <trkpt lat="42.91677" lon="-8.315641">
        <time>2022-07-15T09:21:55Z</time>
      </trkpt>
      <trkpt lat="42.916756" lon="-8.31572">
        <time>2022-07-15T09:22:00Z</time>
      </trkpt>
      <trkpt lat="42.91674" lon="-8.315783">
        <time>2022-07-15T09:22:04Z</time>
      </trkpt>
      <trkpt lat="42.91673" lon="-8.315858">
        <time>2022-07-15T09:22:09Z</time>
      </trkpt>
      <trkpt lat="42.916718" lon="-8.315938">
        <time>2022-07-15T09:22:15Z</time>
      </trkpt>
      <trkpt lat="42.916702" lon="-8.316014">
        <time>2022-07-15T09:22:21Z</time>
      </trkpt>
      <trkpt lat="42.916687" lon="-8.316082">
        <time>2022-07-15T09:22:26Z</time>
      </trkpt>
      <trkpt lat="42.91667" lon="-8.31616">
        <time>2022-07-15T09:22:31Z</time>
      </trkpt>
      <trkpt lat="42.916656" lon="-8.316244">
        <time>2022-07-15T09:22:36Z</time>
      </trkpt>
      <trkpt lat="42.916653" lon="-8.316318">
        <time>2022-07-15T09:22:41Z</time>
      </trkpt>
      <trkpt lat="42.916637" lon="-8.3164">
        <time>2022-07-15T09:22:47Z</time>
      </trkpt>
      <trkpt lat="42.916622" lon="-8.316477">
        <time>2022-07-15T09:22:52Z</time>
      </trkpt>
      <trkpt lat="42.916615" lon="-8.316542">
        <time>2022-07-15T09:22:56Z</time>
      </trkpt>
      <trkpt lat="42.916615" lon="-8.316619">
        <time>2022-07-15T09:23:03Z</time>
      </trkpt>
      <trkpt lat="42.916595" lon="-8.316693">
        <time>2022-07-15T09:23:08Z</time>
      </trkpt>
      <trkpt lat="42.916584" lon="-8.316773">
        <time>2022-07-15T09:23:13Z</time>
      </trkpt>
      <trkpt lat="42.91657" lon="-8.316854">
        <time>2022-07-15T09:23:18Z</time>
      </trkpt>
      <trkpt lat="42.916553" lon="-8.316935">
        <time>2022-07-15T09:23:23Z</time>
      </trkpt>
      <trkpt lat="42.916546" lon="-8.317011">
        <time>2022-07-15T09:23:29Z</time>
      </trkpt>
      <trkpt lat="42.91654" lon="-8.317081">
        <time>2022-07-15T09:23:35Z</time>
      </trkpt>
      <trkpt lat="42.91653" lon="-8.317163">
        <time>2022-07-15T09:23:41Z</time>
      </trkpt>
      <trkpt lat="42.916515" lon="-8.317248">
        <time>2022-07-15T09:23:47Z</time>
      </trkpt>
      <trkpt lat="42.9165" lon="-8.317319">
        <time>2022-07-15T09:23:52Z</time>
      </trkpt>
      <trkpt lat="42.91648" lon="-8.317395">
        <time>2022-07-15T09:23:57Z</time>
      </trkpt>
      <trkpt lat="42.916473" lon="-8.317467">
        <time>2022-07-15T09:24:02Z</time>
      </trkpt>
      <trkpt lat="42.91647" lon="-8.317537">
        <time>2022-07-15T09:24:07Z</time>
      </trkpt>
      <trkpt lat="42.916454" lon="-8.317606">
        <time>2022-07-15T09:24:12Z</time>
      </trkpt>
      <trkpt lat="42.916435" lon="-8.317684">
        <time>2022-07-15T09:24:18Z</time>
      </trkpt>
      <trkpt lat="42.91642" lon="-8.317771">
        <time>2022-07-15T09:24:23Z</time>
      </trkpt>
      <trkpt lat="42.916405" lon="-8.317849">
        <time>2022-07-15T09:24:28Z</time>
      </trkpt>
      <trkpt lat="42.91639" lon="-8.317918">
        <time>2022-07-15T09:24:33Z</time>
      </trkpt>
      <trkpt lat="42.91639" lon="-8.31799">
        <time>2022-07-15T09:24:39Z</time>
      </trkpt>
      <trkpt lat="42.91639" lon="-8.318075">
        <time>2022-07-15T09:24:46Z</time>
      </trkpt>
      <trkpt lat="42.916378" lon="-8.318146">
        <time>2022-07-15T09:24:51Z</time>
      </trkpt>
      <trkpt lat="42.916367" lon="-8.318215">
        <time>2022-07-15T09:24:56Z</time>
      </trkpt>
      <trkpt lat="42.916348" lon="-8.31829">
        <time>2022-07-15T09:25:01Z</time>
      </trkpt>
      <trkpt lat="42.916325" lon="-8.318375">
        <time>2022-07-15T09:25:06Z</time>
      </trkpt>
      <trkpt lat="42.916306" lon="-8.31844">
        <time>2022-07-15T09:25:10Z</time>
      </trkpt>
      <trkpt lat="42.91628" lon="-8.31852">
        <time>2022-07-15T09:25:15Z</time>
      </trkpt>
      <trkpt lat="42.916256" lon="-8.3186035">
        <time>2022-07-15T09:25:20Z</time>
      </trkpt>
      <trkpt lat="42.91623" lon="-8.318664">
        <time>2022-07-15T09:25:24Z</time>
      </trkpt>
      <trkpt lat="42.916203" lon="-8.318729">
        <time>2022-07-15T09:25:29Z</time>
      </trkpt>
      <trkpt lat="42.91618" lon="-8.318789">
        <time>2022-07-15T09:25:34Z</time>
      </trkpt>
      <trkpt lat="42.916157" lon="-8.318854">
        <time>2022-07-15T09:25:39Z</time>
      </trkpt>
      <trkpt lat="42.91613" lon="-8.318922">
        <time>2022-07-15T09:25:44Z</time>
      </trkpt>
      <trkpt lat="42.9161" lon="-8.318996">
        <time>2022-07-15T09:25:50Z</time>
      </trkpt>
      <trkpt lat="42.916073" lon="-8.319061">
        <time>2022-07-15T09:25:55Z</time>
      </trkpt>
      <trkpt lat="42.91604" lon="-8.319124">
        <time>2022-07-15T09:26:00Z</time>
      </trkpt>
      <trkpt lat="42.916008" lon="-8.319193">
        <time>2022-07-15T09:26:05Z</time>
      </trkpt>
      <trkpt lat="42.915985" lon="-8.319267">
        <time>2022-07-15T09:26:10Z</time>
      </trkpt>
      <trkpt lat="42.915962" lon="-8.319325">
        <time>2022-07-15T09:26:14Z</time>
      </trkpt>
      <trkpt lat="42.915936" lon="-8.319394">
        <time>2022-07-15T09:26:19Z</time>
      </trkpt>
      <trkpt lat="42.915905" lon="-8.319463">
        <time>2022-07-15T09:26:24Z</time>
      </trkpt>
      <trkpt lat="42.915886" lon="-8.319525">
        <time>2022-07-15T09:26:28Z</time>
      </trkpt>
      <trkpt lat="42.915848" lon="-8.319588">
        <time>2022-07-15T09:26:33Z</time>
      </trkpt>
      <trkpt lat="42.915813" lon="-8.319651">
        <time>2022-07-15T09:26:38Z</time>
      </trkpt>
      <trkpt lat="42.915794" lon="-8.319723">
        <time>2022-07-15T09:26:49Z</time>
      </trkpt>
      <trkpt lat="42.91577" lon="-8.31979">
        <time>2022-07-15T09:26:55Z</time>
      </trkpt>
      <trkpt lat="42.91574" lon="-8.319859">
        <time>2022-07-15T09:27:00Z</time>
      </trkpt>
      <trkpt lat="42.91572" lon="-8.319925">
        <time>2022-07-15T09:27:05Z</time>
      </trkpt>
      <trkpt lat="42.9157" lon="-8.319986">
        <time>2022-07-15T09:27:10Z</time>
      </trkpt>
      <trkpt lat="42.91568" lon="-8.320053">
        <time>2022-07-15T09:27:17Z</time>
      </trkpt>
      <trkpt lat="42.91566" lon="-8.320121">
        <time>2022-07-15T09:27:24Z</time>
      </trkpt>
      <trkpt lat="42.915634" lon="-8.320202">
        <time>2022-07-15T09:27:33Z</time>
      </trkpt>
      <trkpt lat="42.915607" lon="-8.320269">
        <time>2022-07-15T09:27:38Z</time>
      </trkpt>
      <trkpt lat="42.91559" lon="-8.32034">
        <time>2022-07-15T09:27:43Z</time>
      </trkpt>
      <trkpt lat="42.915565" lon="-8.320413">
        <time>2022-07-15T09:27:48Z</time>
      </trkpt>
      <trkpt lat="42.91554" lon="-8.320487">
        <time>2022-07-15T09:27:55Z</time>
      </trkpt>
      <trkpt lat="42.915524" lon="-8.320567">
        <time>2022-07-15T09:28:00Z</time>
      </trkpt>
      <trkpt lat="42.91551" lon="-8.320631">
        <time>2022-07-15T09:28:05Z</time>
      </trkpt>
      <trkpt lat="42.91549" lon="-8.320708">
        <time>2022-07-15T09:28:10Z</time>
      </trkpt>
      <trkpt lat="42.91548" lon="-8.320782">
        <time>2022-07-15T09:28:15Z</time>
      </trkpt>
      <trkpt lat="42.915455" lon="-8.320857">
        <time>2022-07-15T09:28:23Z</time>
      </trkpt>
      <trkpt lat="42.915424" lon="-8.320937">
        <time>2022-07-15T09:28:29Z</time>
      </trkpt>
      <trkpt lat="42.915398" lon="-8.321011">
        <time>2022-07-15T09:28:33Z</time>
      </trkpt>
      <trkpt lat="42.915382" lon="-8.321085">
        <time>2022-07-15T09:28:38Z</time>
      </trkpt>
      <trkpt lat="42.91538" lon="-8.321162">
        <time>2022-07-15T09:28:43Z</time>
      </trkpt>
      <trkpt lat="42.915382" lon="-8.321238">
        <time>2022-07-15T09:28:49Z</time>
      </trkpt>
      <trkpt lat="42.915375" lon="-8.321321">
        <time>2022-07-15T09:28:55Z</time>
      </trkpt>
      <trkpt lat="42.915367" lon="-8.321385">
        <time>2022-07-15T09:28:59Z</time>
      </trkpt>
      <trkpt lat="42.915363" lon="-8.321458">
        <time>2022-07-15T09:29:04Z</time>
      </trkpt>
      <trkpt lat="42.915348" lon="-8.321537">
        <time>2022-07-15T09:29:10Z</time>
      </trkpt>
      <trkpt lat="42.915333" lon="-8.321598">
        <time>2022-07-15T09:29:14Z</time>
      </trkpt>
      <trkpt lat="42.915325" lon="-8.321675">
        <time>2022-07-15T09:29:19Z</time>
      </trkpt>
      <trkpt lat="42.915318" lon="-8.32175">
        <time>2022-07-15T09:29:24Z</time>
      </trkpt>
      <trkpt lat="42.91531" lon="-8.321818">
        <time>2022-07-15T09:29:29Z</time>
      </trkpt>
      <trkpt lat="42.9153" lon="-8.321901">
        <time>2022-07-15T09:29:35Z</time>
      </trkpt>
      <trkpt lat="42.91529" lon="-8.321975">
        <time>2022-07-15T09:29:40Z</time>
      </trkpt>
      <trkpt lat="42.915287" lon="-8.32205">
        <time>2022-07-15T09:29:45Z</time>
      </trkpt>
      <trkpt lat="42.915283" lon="-8.322118">
        <time>2022-07-15T09:29:50Z</time>
      </trkpt>
      <trkpt lat="42.915287" lon="-8.322199">
        <time>2022-07-15T09:29:56Z</time>
      </trkpt>
      <trkpt lat="42.915276" lon="-8.322271">
        <time>2022-07-15T09:30:01Z</time>
      </trkpt>
      <trkpt lat="42.915264" lon="-8.32234">
        <time>2022-07-15T09:30:06Z</time>
      </trkpt>
      <trkpt lat="42.91526" lon="-8.322406">
        <time>2022-07-15T09:30:11Z</time>
      </trkpt>
      <trkpt lat="42.91526" lon="-8.32249">
        <time>2022-07-15T09:30:18Z</time>
      </trkpt>
      <trkpt lat="42.91526" lon="-8.322556">
        <time>2022-07-15T09:30:23Z</time>
      </trkpt>
      <trkpt lat="42.915264" lon="-8.322627">
        <time>2022-07-15T09:30:29Z</time>
      </trkpt>
      <trkpt lat="42.915264" lon="-8.322695">
        <time>2022-07-15T09:30:35Z</time>
      </trkpt>
      <trkpt lat="42.91526" lon="-8.32278">
        <time>2022-07-15T09:30:42Z</time>
      </trkpt>
      <trkpt lat="42.915264" lon="-8.322849">
        <time>2022-07-15T09:30:47Z</time>
      </trkpt>
      <trkpt lat="42.91528" lon="-8.322926">
        <time>2022-07-15T09:30:53Z</time>
      </trkpt>
      <trkpt lat="42.91529" lon="-8.32299">
        <time>2022-07-15T09:30:58Z</time>
      </trkpt>
      <trkpt lat="42.915306" lon="-8.323052">
        <time>2022-07-15T09:31:04Z</time>
      </trkpt>
      <trkpt lat="42.915318" lon="-8.323131">
        <time>2022-07-15T09:31:10Z</time>
      </trkpt>
      <trkpt lat="42.915295" lon="-8.3232">
        <time>2022-07-15T09:31:14Z</time>
      </trkpt>
      <trkpt lat="42.915287" lon="-8.323251">
        <time>2022-07-15T09:31:18Z</time>
      </trkpt>
      <trkpt lat="42.915348" lon="-8.323294">
        <time>2022-07-15T09:31:25Z</time>
      </trkpt>
      <trkpt lat="42.915386" lon="-8.323328">
        <time>2022-07-15T09:31:29Z</time>
      </trkpt>
      <trkpt lat="42.91541" lon="-8.323399">
        <time>2022-07-15T09:31:34Z</time>
      </trkpt>
      <trkpt lat="42.915417" lon="-8.323467">
        <time>2022-07-15T09:31:38Z</time>
      </trkpt>
      <trkpt lat="42.91544" lon="-8.323544">
        <time>2022-07-15T09:31:43Z</time>
      </trkpt>
      <trkpt lat="42.915485" lon="-8.323583">
        <time>2022-07-15T09:31:47Z</time>
      </trkpt>
      <trkpt lat="42.915535" lon="-8.323594">
        <time>2022-07-15T09:31:52Z</time>
      </trkpt>
      <trkpt lat="42.9156" lon="-8.323604">
        <time>2022-07-15T09:31:57Z</time>
      </trkpt>
      <trkpt lat="42.91565" lon="-8.323595">
        <time>2022-07-15T09:32:01Z</time>
      </trkpt>
      <trkpt lat="42.915703" lon="-8.323571">
        <time>2022-07-15T09:32:05Z</time>
      </trkpt>
      <trkpt lat="42.91575" lon="-8.323552">
        <time>2022-07-15T09:32:09Z</time>
      </trkpt>
      <trkpt lat="42.9158" lon="-8.323519">
        <time>2022-07-15T09:32:14Z</time>
      </trkpt>
      <trkpt lat="42.91585" lon="-8.32349">
        <time>2022-07-15T09:32:19Z</time>
      </trkpt>
      <trkpt lat="42.915897" lon="-8.323471">
        <time>2022-07-15T09:32:24Z</time>
      </trkpt>
      <trkpt lat="42.915947" lon="-8.323442">
        <time>2022-07-15T09:32:29Z</time>
      </trkpt>
      <trkpt lat="42.916008" lon="-8.323426">
        <time>2022-07-15T09:32:35Z</time>
      </trkpt>
      <trkpt lat="42.91606" lon="-8.323428">
        <time>2022-07-15T09:32:40Z</time>
      </trkpt>
      <trkpt lat="42.916126" lon="-8.32343">
        <time>2022-07-15T09:32:45Z</time>
      </trkpt>
      <trkpt lat="42.916187" lon="-8.323431">
        <time>2022-07-15T09:32:50Z</time>
      </trkpt>
      <trkpt lat="42.91624" lon="-8.323431">
        <time>2022-07-15T09:32:54Z</time>
      </trkpt>
      <trkpt lat="42.916298" lon="-8.323432">
        <time>2022-07-15T09:32:59Z</time>
      </trkpt>
      <trkpt lat="42.916348" lon="-8.323428">
        <time>2022-07-15T09:33:03Z</time>
      </trkpt>
      <trkpt lat="42.91641" lon="-8.323429">
        <time>2022-07-15T09:33:08Z</time>
      </trkpt>
      <trkpt lat="42.916454" lon="-8.323433">
        <time>2022-07-15T09:33:12Z</time>
      </trkpt>
      <trkpt lat="42.916504" lon="-8.323464">
        <time>2022-07-15T09:33:17Z</time>
      </trkpt>
      <trkpt lat="42.916523" lon="-8.3235235">
        <time>2022-07-15T09:33:22Z</time>
      </trkpt>
      <trkpt lat="42.916504" lon="-8.323613">
        <time>2022-07-15T09:33:27Z</time>
      </trkpt>
      <trkpt lat="42.916492" lon="-8.3236885">
        <time>2022-07-15T09:33:32Z</time>
      </trkpt>
      <trkpt lat="42.91648" lon="-8.323785">
        <time>2022-07-15T09:33:38Z</time>
      </trkpt>
      <trkpt lat="42.916462" lon="-8.323855">
        <time>2022-07-15T09:33:42Z</time>
      </trkpt>
      <trkpt lat="42.916447" lon="-8.323915">
        <time>2022-07-15T09:33:46Z</time>
      </trkpt>
      <trkpt lat="42.91644" lon="-8.323989">
        <time>2022-07-15T09:33:51Z</time>
      </trkpt>
      <trkpt lat="42.916428" lon="-8.324074">
        <time>2022-07-15T09:33:56Z</time>
      </trkpt>
      <trkpt lat="42.91642" lon="-8.324152">
        <time>2022-07-15T09:34:01Z</time>
      </trkpt>
      <trkpt lat="42.91641" lon="-8.32423">
        <time>2022-07-15T09:34:06Z</time>
      </trkpt>
      <trkpt lat="42.916397" lon="-8.324304">
        <time>2022-07-15T09:34:11Z</time>
      </trkpt>
      <trkpt lat="42.916386" lon="-8.324382">
        <time>2022-07-15T09:34:16Z</time>
      </trkpt>
      <trkpt lat="42.916374" lon="-8.32445">
        <time>2022-07-15T09:34:20Z</time>
      </trkpt>
      <trkpt lat="42.916367" lon="-8.324517">
        <time>2022-07-15T09:34:24Z</time>
      </trkpt>
      <trkpt lat="42.916355" lon="-8.324603">
        <time>2022-07-15T09:34:29Z</time>
      </trkpt>
      <trkpt lat="42.916348" lon="-8.324681">
        <time>2022-07-15T09:34:34Z</time>
      </trkpt>
      <trkpt lat="42.91634" lon="-8.324754">
        <time>2022-07-15T09:34:38Z</time>
      </trkpt>
      <trkpt lat="42.916344" lon="-8.324825">
        <time>2022-07-15T09:34:42Z</time>
      </trkpt>
      <trkpt lat="42.916348" lon="-8.3249">
        <time>2022-07-15T09:34:47Z</time>
      </trkpt>
      <trkpt lat="42.91635" lon="-8.32498">
        <time>2022-07-15T09:34:52Z</time>
      </trkpt>
      <trkpt lat="42.91635" lon="-8.325066">
        <time>2022-07-15T09:34:57Z</time>
      </trkpt>
      <trkpt lat="42.916348" lon="-8.325139">
        <time>2022-07-15T09:35:01Z</time>
      </trkpt>
      <trkpt lat="42.91634" lon="-8.325213">
        <time>2022-07-15T09:35:05Z</time>
      </trkpt>
      <trkpt lat="42.916336" lon="-8.325285">
        <time>2022-07-15T09:35:10Z</time>
      </trkpt>
      <trkpt lat="42.916336" lon="-8.325364">
        <time>2022-07-15T09:35:15Z</time>
      </trkpt>
      <trkpt lat="42.916336" lon="-8.32543">
        <time>2022-07-15T09:35:19Z</time>
      </trkpt>
      <trkpt lat="42.916344" lon="-8.325511">
        <time>2022-07-15T09:35:24Z</time>
      </trkpt>
      <trkpt lat="42.916355" lon="-8.32557">
        <time>2022-07-15T09:35:28Z</time>
      </trkpt>
      <trkpt lat="42.91637" lon="-8.325645">
        <time>2022-07-15T09:35:34Z</time>
      </trkpt>
      <trkpt lat="42.916393" lon="-8.325702">
        <time>2022-07-15T09:35:43Z</time>
      </trkpt>
      <trkpt lat="42.916416" lon="-8.325775">
        <time>2022-07-15T09:35:49Z</time>
      </trkpt>
      <trkpt lat="42.916435" lon="-8.325846">
        <time>2022-07-15T09:35:54Z</time>
      </trkpt>
      <trkpt lat="42.916443" lon="-8.32592">
        <time>2022-07-15T09:35:58Z</time>
      </trkpt>
      <trkpt lat="42.91645" lon="-8.326">
        <time>2022-07-15T09:36:02Z</time>
      </trkpt>
      <trkpt lat="42.91646" lon="-8.326012">
        <time>2022-07-15T09:36:29Z</time>
      </trkpt>
      <trkpt lat="42.91645" lon="-8.326094">
        <time>2022-07-15T09:36:35Z</time>
      </trkpt>
      <trkpt lat="42.91646" lon="-8.326167">
        <time>2022-07-15T09:36:40Z</time>
      </trkpt>
      <trkpt lat="42.91647" lon="-8.326243">
        <time>2022-07-15T09:36:45Z</time>
      </trkpt>
      <trkpt lat="42.91648" lon="-8.326313">
        <time>2022-07-15T09:36:50Z</time>
      </trkpt>
      <trkpt lat="42.916485" lon="-8.326388">
        <time>2022-07-15T09:36:55Z</time>
      </trkpt>
      <trkpt lat="42.916508" lon="-8.326505">
        <time>2022-07-15T09:37:06Z</time>
      </trkpt>
      <trkpt lat="42.91651" lon="-8.326579">
        <time>2022-07-15T09:37:12Z</time>
      </trkpt>
      <trkpt lat="42.91652" lon="-8.326647">
        <time>2022-07-15T09:37:17Z</time>
      </trkpt>
      <trkpt lat="42.916534" lon="-8.326732">
        <time>2022-07-15T09:37:23Z</time>
      </trkpt>
      <trkpt lat="42.91654" lon="-8.326806">
        <time>2022-07-15T09:37:28Z</time>
      </trkpt>
      <trkpt lat="42.916546" lon="-8.326882">
        <time>2022-07-15T09:37:34Z</time>
      </trkpt>
      <trkpt lat="42.916553" lon="-8.326951">
        <time>2022-07-15T09:37:39Z</time>
      </trkpt>
      <trkpt lat="42.916557" lon="-8.327024">
        <time>2022-07-15T09:37:44Z</time>
      </trkpt>
      <trkpt lat="42.916573" lon="-8.327086">
        <time>2022-07-15T09:37:49Z</time>
      </trkpt>
      <trkpt lat="42.916595" lon="-8.327156">
        <time>2022-07-15T09:37:55Z</time>
      </trkpt>
      <trkpt lat="42.916622" lon="-8.327234">
        <time>2022-07-15T09:38:00Z</time>
      </trkpt>
      <trkpt lat="42.91662" lon="-8.3273">
        <time>2022-07-15T09:38:03Z</time>
      </trkpt>
      <trkpt lat="42.91664" lon="-8.327369">
        <time>2022-07-15T09:38:09Z</time>
      </trkpt>
      <trkpt lat="42.91666" lon="-8.327429">
        <time>2022-07-15T09:38:15Z</time>
      </trkpt>
      <trkpt lat="42.916687" lon="-8.327539">
        <time>2022-07-15T09:38:25Z</time>
      </trkpt>
      <trkpt lat="42.91671" lon="-8.327617">
        <time>2022-07-15T09:38:31Z</time>
      </trkpt>
      <trkpt lat="42.916725" lon="-8.327691">
        <time>2022-07-15T09:38:36Z</time>
      </trkpt>
      <trkpt lat="42.916756" lon="-8.327753">
        <time>2022-07-15T09:38:41Z</time>
      </trkpt>
      <trkpt lat="42.916782" lon="-8.327826">
        <time>2022-07-15T09:38:46Z</time>
      </trkpt>
      <trkpt lat="42.916805" lon="-8.327885">
        <time>2022-07-15T09:38:50Z</time>
      </trkpt>
      <trkpt lat="42.91683" lon="-8.327949">
        <time>2022-07-15T09:38:55Z</time>
      </trkpt>
      <trkpt lat="42.916855" lon="-8.328021">
        <time>2022-07-15T09:39:01Z</time>
      </trkpt>
      <trkpt lat="42.91688" lon="-8.328093">
        <time>2022-07-15T09:39:07Z</time>
      </trkpt>
      <trkpt lat="42.916897" lon="-8.328156">
        <time>2022-07-15T09:39:12Z</time>
      </trkpt>
      <trkpt lat="42.916916" lon="-8.328237">
        <time>2022-07-15T09:39:18Z</time>
      </trkpt>
      <trkpt lat="42.916927" lon="-8.3283">
        <time>2022-07-15T09:39:22Z</time>
      </trkpt>
      <trkpt lat="42.916943" lon="-8.32837">
        <time>2022-07-15T09:39:26Z</time>
      </trkpt>
      <trkpt lat="42.91695" lon="-8.328441">
        <time>2022-07-15T09:39:31Z</time>
      </trkpt>
      <trkpt lat="42.91695" lon="-8.328516">
        <time>2022-07-15T09:39:37Z</time>
      </trkpt>
      <trkpt lat="42.916958" lon="-8.32859">
        <time>2022-07-15T09:39:44Z</time>
      </trkpt>
      <trkpt lat="42.916992" lon="-8.328637">
        <time>2022-07-15T09:39:51Z</time>
      </trkpt>
      <trkpt lat="42.917015" lon="-8.328704">
        <time>2022-07-15T09:39:57Z</time>
      </trkpt>
      <trkpt lat="42.917038" lon="-8.328776">
        <time>2022-07-15T09:40:02Z</time>
      </trkpt>
      <trkpt lat="42.91706" lon="-8.328834">
        <time>2022-07-15T09:40:07Z</time>
      </trkpt>
      <trkpt lat="42.917084" lon="-8.328894">
        <time>2022-07-15T09:40:12Z</time>
      </trkpt>
      <trkpt lat="42.917103" lon="-8.328964">
        <time>2022-07-15T09:40:17Z</time>
      </trkpt>
      <trkpt lat="42.917118" lon="-8.329023">
        <time>2022-07-15T09:40:29Z</time>
      </trkpt>
      <trkpt lat="42.917145" lon="-8.329087">
        <time>2022-07-15T09:40:35Z</time>
      </trkpt>
      <trkpt lat="42.917152" lon="-8.329166">
        <time>2022-07-15T09:40:41Z</time>
      </trkpt>
      <trkpt lat="42.917164" lon="-8.329246">
        <time>2022-07-15T09:40:46Z</time>
      </trkpt>
      <trkpt lat="42.91718" lon="-8.329311">
        <time>2022-07-15T09:40:51Z</time>
      </trkpt>
      <trkpt lat="42.9172" lon="-8.32938">
        <time>2022-07-15T09:40:57Z</time>
      </trkpt>
      <trkpt lat="42.91723" lon="-8.329441">
        <time>2022-07-15T09:41:05Z</time>
      </trkpt>
      <trkpt lat="42.917255" lon="-8.329504">
        <time>2022-07-15T09:41:12Z</time>
      </trkpt>
      <trkpt lat="42.917274" lon="-8.329577">
        <time>2022-07-15T09:41:19Z</time>
      </trkpt>
      <trkpt lat="42.917297" lon="-8.32964">
        <time>2022-07-15T09:41:25Z</time>
      </trkpt>
      <trkpt lat="42.917316" lon="-8.329701">
        <time>2022-07-15T09:41:31Z</time>
      </trkpt>
      <trkpt lat="42.91733" lon="-8.329782">
        <time>2022-07-15T09:41:38Z</time>
      </trkpt>
      <trkpt lat="42.917343" lon="-8.329842">
        <time>2022-07-15T09:41:44Z</time>
      </trkpt>
      <trkpt lat="42.917366" lon="-8.32992">
        <time>2022-07-15T09:41:50Z</time>
      </trkpt>
      <trkpt lat="42.917377" lon="-8.329994">
        <time>2022-07-15T09:41:55Z</time>
      </trkpt>
      <trkpt lat="42.917393" lon="-8.330066">
        <time>2022-07-15T09:42:00Z</time>
      </trkpt>
      <trkpt lat="42.917404" lon="-8.330127">
        <time>2022-07-15T09:42:05Z</time>
      </trkpt>
      <trkpt lat="42.917416" lon="-8.330198">
        <time>2022-07-15T09:42:11Z</time>
      </trkpt>
      <trkpt lat="42.917423" lon="-8.330271">
        <time>2022-07-15T09:42:17Z</time>
      </trkpt>
      <trkpt lat="42.917446" lon="-8.330335">
        <time>2022-07-15T09:42:23Z</time>
      </trkpt>
      <trkpt lat="42.91746" lon="-8.330409">
        <time>2022-07-15T09:42:29Z</time>
      </trkpt>
      <trkpt lat="42.917477" lon="-8.33047">
        <time>2022-07-15T09:42:35Z</time>
      </trkpt>
      <trkpt lat="42.91725" lon="-8.330591">
        <time>2022-07-15T09:43:38Z</time>
      </trkpt>
      <trkpt lat="42.91725" lon="-8.33059">
        <time>2022-07-15T09:43:39Z</time>
      </trkpt>
      <trkpt lat="42.91753" lon="-8.330546">
        <time>2022-07-15T09:43:58Z</time>
      </trkpt>
      <trkpt lat="42.91753" lon="-8.330547">
        <time>2022-07-15T09:43:59Z</time>
      </trkpt>
      <trkpt lat="42.917496" lon="-8.330611">
        <time>2022-07-15T09:44:05Z</time>
      </trkpt>
      <trkpt lat="42.917484" lon="-8.33069">
        <time>2022-07-15T09:44:11Z</time>
      </trkpt>
      <trkpt lat="42.91748" lon="-8.330763">
        <time>2022-07-15T09:44:16Z</time>
      </trkpt>
      <trkpt lat="42.917492" lon="-8.33084">
        <time>2022-07-15T09:44:22Z</time>
      </trkpt>
      <trkpt lat="42.917503" lon="-8.330906">
        <time>2022-07-15T09:44:27Z</time>
      </trkpt>
      <trkpt lat="42.91752" lon="-8.330984">
        <time>2022-07-15T09:44:33Z</time>
      </trkpt>
      <trkpt lat="42.917522" lon="-8.331054">
        <time>2022-07-15T09:44:39Z</time>
      </trkpt>
      <trkpt lat="42.91753" lon="-8.331121">
        <time>2022-07-15T09:44:44Z</time>
      </trkpt>
      <trkpt lat="42.91754" lon="-8.331193">
        <time>2022-07-15T09:44:49Z</time>
      </trkpt>
      <trkpt lat="42.917557" lon="-8.331266">
        <time>2022-07-15T09:44:54Z</time>
      </trkpt>
      <trkpt lat="42.917564" lon="-8.331336">
        <time>2022-07-15T09:44:59Z</time>
      </trkpt>
      <trkpt lat="42.91757" lon="-8.331418">
        <time>2022-07-15T09:45:05Z</time>
      </trkpt>
      <trkpt lat="42.917572" lon="-8.331492">
        <time>2022-07-15T09:45:10Z</time>
      </trkpt>
      <trkpt lat="42.91758" lon="-8.331559">
        <time>2022-07-15T09:45:15Z</time>
      </trkpt>
      <trkpt lat="42.917587" lon="-8.331629">
        <time>2022-07-15T09:45:20Z</time>
      </trkpt>
      <trkpt lat="42.9176" lon="-8.331697">
        <time>2022-07-15T09:45:25Z</time>
      </trkpt>
      <trkpt lat="42.917606" lon="-8.331774">
        <time>2022-07-15T09:45:30Z</time>
      </trkpt>
      <trkpt lat="42.917606" lon="-8.331854">
        <time>2022-07-15T09:45:36Z</time>
      </trkpt>
      <trkpt lat="42.917614" lon="-8.331928">
        <time>2022-07-15T09:45:41Z</time>
      </trkpt>
      <trkpt lat="42.91763" lon="-8.332001">
        <time>2022-07-15T09:45:46Z</time>
      </trkpt>
      <trkpt lat="42.917637" lon="-8.332073">
        <time>2022-07-15T09:45:51Z</time>
      </trkpt>
      <trkpt lat="42.917637" lon="-8.332156">
        <time>2022-07-15T09:45:57Z</time>
      </trkpt>
      <trkpt lat="42.91764" lon="-8.332233">
        <time>2022-07-15T09:46:02Z</time>
      </trkpt>
      <trkpt lat="42.917652" lon="-8.332308">
        <time>2022-07-15T09:46:07Z</time>
      </trkpt>
      <trkpt lat="42.917667" lon="-8.33238">
        <time>2022-07-15T09:46:12Z</time>
      </trkpt>
      <trkpt lat="42.91768" lon="-8.332442">
        <time>2022-07-15T09:46:16Z</time>
      </trkpt>
      <trkpt lat="42.91769" lon="-8.332514">
        <time>2022-07-15T09:46:21Z</time>
      </trkpt>
      <trkpt lat="42.917694" lon="-8.332587">
        <time>2022-07-15T09:46:26Z</time>
      </trkpt>
      <trkpt lat="42.917706" lon="-8.332658">
        <time>2022-07-15T09:46:31Z</time>
      </trkpt>
      <trkpt lat="42.91771" lon="-8.332741">
        <time>2022-07-15T09:46:36Z</time>
      </trkpt>
      <trkpt lat="42.917717" lon="-8.332808">
        <time>2022-07-15T09:46:40Z</time>
      </trkpt>
      <trkpt lat="42.917732" lon="-8.332886">
        <time>2022-07-15T09:46:45Z</time>
      </trkpt>
      <trkpt lat="42.91775" lon="-8.332957">
        <time>2022-07-15T09:46:50Z</time>
      </trkpt>
      <trkpt lat="42.91777" lon="-8.333027">
        <time>2022-07-15T09:46:55Z</time>
      </trkpt>
      <trkpt lat="42.917786" lon="-8.333097">
        <time>2022-07-15T09:47:00Z</time>
      </trkpt>
      <trkpt lat="42.917793" lon="-8.333171">
        <time>2022-07-15T09:47:05Z</time>
      </trkpt>
      <trkpt lat="42.9178" lon="-8.333242">
        <time>2022-07-15T09:47:10Z</time>
      </trkpt>
      <trkpt lat="42.91781" lon="-8.333313">
        <time>2022-07-15T09:47:15Z</time>
      </trkpt>
      <trkpt lat="42.91782" lon="-8.333386">
        <time>2022-07-15T09:47:20Z</time>
      </trkpt>
      <trkpt lat="42.91783" lon="-8.333454">
        <time>2022-07-15T09:47:25Z</time>
      </trkpt>
      <trkpt lat="42.91785" lon="-8.333528">
        <time>2022-07-15T09:47:31Z</time>
      </trkpt>
      <trkpt lat="42.91786" lon="-8.333594">
        <time>2022-07-15T09:47:36Z</time>
      </trkpt>
      <trkpt lat="42.91788" lon="-8.333667">
        <time>2022-07-15T09:47:42Z</time>
      </trkpt>
      <trkpt lat="42.91791" lon="-8.333718">
        <time>2022-07-15T09:47:47Z</time>
      </trkpt>
      <trkpt lat="42.917934" lon="-8.333771">
        <time>2022-07-15T09:47:51Z</time>
      </trkpt>
      <trkpt lat="42.91797" lon="-8.333846">
        <time>2022-07-15T09:48:00Z</time>
      </trkpt>
      <trkpt lat="42.91802" lon="-8.333927">
        <time>2022-07-15T09:48:12Z</time>
      </trkpt>
      <trkpt lat="42.91804" lon="-8.334004">
        <time>2022-07-15T09:48:18Z</time>
      </trkpt>
      <trkpt lat="42.918056" lon="-8.334077">
        <time>2022-07-15T09:48:23Z</time>
      </trkpt>
      <trkpt lat="42.918076" lon="-8.334144">
        <time>2022-07-15T09:48:28Z</time>
      </trkpt>
      <trkpt lat="42.9181" lon="-8.33421">
        <time>2022-07-15T09:48:34Z</time>
      </trkpt>
      <trkpt lat="42.918106" lon="-8.334289">
        <time>2022-07-15T09:48:40Z</time>
      </trkpt>
      <trkpt lat="42.918125" lon="-8.334366">
        <time>2022-07-15T09:48:46Z</time>
      </trkpt>
      <trkpt lat="42.918137" lon="-8.334439">
        <time>2022-07-15T09:48:51Z</time>
      </trkpt>
      <trkpt lat="42.918144" lon="-8.334515">
        <time>2022-07-15T09:48:56Z</time>
      </trkpt>
      <trkpt lat="42.918148" lon="-8.334592">
        <time>2022-07-15T09:49:01Z</time>
      </trkpt>
      <trkpt lat="42.918156" lon="-8.334663">
        <time>2022-07-15T09:49:06Z</time>
      </trkpt>
      <trkpt lat="42.918163" lon="-8.334728">
        <time>2022-07-15T09:49:11Z</time>
      </trkpt>
      <trkpt lat="42.91816" lon="-8.334804">
        <time>2022-07-15T09:49:16Z</time>
      </trkpt>
      <trkpt lat="42.918167" lon="-8.334873">
        <time>2022-07-15T09:49:21Z</time>
      </trkpt>
      <trkpt lat="42.918167" lon="-8.334948">
        <time>2022-07-15T09:49:26Z</time>
      </trkpt>
      <trkpt lat="42.91818" lon="-8.335027">
        <time>2022-07-15T09:49:32Z</time>
      </trkpt>
      <trkpt lat="42.918194" lon="-8.335107">
        <time>2022-07-15T09:49:38Z</time>
      </trkpt>
      <trkpt lat="42.918205" lon="-8.335174">
        <time>2022-07-15T09:49:43Z</time>
      </trkpt>
      <trkpt lat="42.918213" lon="-8.335241">
        <time>2022-07-15T09:49:48Z</time>
      </trkpt>
      <trkpt lat="42.91822" lon="-8.335314">
        <time>2022-07-15T09:49:55Z</time>
      </trkpt>
      <trkpt lat="42.918232" lon="-8.335398">
        <time>2022-07-15T09:50:01Z</time>
      </trkpt>
      <trkpt lat="42.91824" lon="-8.335472">
        <time>2022-07-15T09:50:06Z</time>
      </trkpt>
      <trkpt lat="42.91825" lon="-8.335557">
        <time>2022-07-15T09:50:12Z</time>
      </trkpt>
      <trkpt lat="42.918262" lon="-8.335644">
        <time>2022-07-15T09:50:18Z</time>
      </trkpt>
      <trkpt lat="42.918266" lon="-8.335715">
        <time>2022-07-15T09:50:23Z</time>
      </trkpt>
      <trkpt lat="42.918266" lon="-8.33579">
        <time>2022-07-15T09:50:28Z</time>
      </trkpt>
      <trkpt lat="42.918262" lon="-8.335868">
        <time>2022-07-15T09:50:33Z</time>
      </trkpt>
      <trkpt lat="42.91827" lon="-8.3359375">
        <time>2022-07-15T09:50:38Z</time>
      </trkpt>
      <trkpt lat="42.918274" lon="-8.336009">
        <time>2022-07-15T09:50:43Z</time>
      </trkpt>
      <trkpt lat="42.91828" lon="-8.336076">
        <time>2022-07-15T09:50:48Z</time>
      </trkpt>
      <trkpt lat="42.91829" lon="-8.336155">
        <time>2022-07-15T09:50:54Z</time>
      </trkpt>
      <trkpt lat="42.918297" lon="-8.336224">
        <time>2022-07-15T09:50:59Z</time>
      </trkpt>
      <trkpt lat="42.918304" lon="-8.336296">
        <time>2022-07-15T09:51:04Z</time>
      </trkpt>
      <trkpt lat="42.918312" lon="-8.336368">
        <time>2022-07-15T09:51:09Z</time>
      </trkpt>
      <trkpt lat="42.91832" lon="-8.336439">
        <time>2022-07-15T09:51:14Z</time>
      </trkpt>
      <trkpt lat="42.91832" lon="-8.336516">
        <time>2022-07-15T09:51:19Z</time>
      </trkpt>
      <trkpt lat="42.918324" lon="-8.336592">
        <time>2022-07-15T09:51:24Z</time>
      </trkpt>
      <trkpt lat="42.91833" lon="-8.336664">
        <time>2022-07-15T09:51:29Z</time>
      </trkpt>
      <trkpt lat="42.91834" lon="-8.336734">
        <time>2022-07-15T09:51:34Z</time>
      </trkpt>
      <trkpt lat="42.918346" lon="-8.336805">
        <time>2022-07-15T09:51:39Z</time>
      </trkpt>
      <trkpt lat="42.918354" lon="-8.336872">
        <time>2022-07-15T09:51:44Z</time>
      </trkpt>
      <trkpt lat="42.91837" lon="-8.336953">
        <time>2022-07-15T09:51:52Z</time>
      </trkpt>
      <trkpt lat="42.918373" lon="-8.337031">
        <time>2022-07-15T09:51:57Z</time>
      </trkpt>
      <trkpt lat="42.918385" lon="-8.3371105">
        <time>2022-07-15T09:52:02Z</time>
      </trkpt>
      <trkpt lat="42.918392" lon="-8.33719">
        <time>2022-07-15T09:52:07Z</time>
      </trkpt>
      <trkpt lat="42.918396" lon="-8.337264">
        <time>2022-07-15T09:52:13Z</time>
      </trkpt>
      <trkpt lat="42.918407" lon="-8.337339">
        <time>2022-07-15T09:52:19Z</time>
      </trkpt>
      <trkpt lat="42.918415" lon="-8.337417">
        <time>2022-07-15T09:52:27Z</time>
      </trkpt>
      <trkpt lat="42.918415" lon="-8.33749">
        <time>2022-07-15T09:52:32Z</time>
      </trkpt>
      <trkpt lat="42.91842" lon="-8.337563">
        <time>2022-07-15T09:52:37Z</time>
      </trkpt>
      <trkpt lat="42.918423" lon="-8.337633">
        <time>2022-07-15T09:52:42Z</time>
      </trkpt>
      <trkpt lat="42.918427" lon="-8.337719">
        <time>2022-07-15T09:52:48Z</time>
      </trkpt>
      <trkpt lat="42.918434" lon="-8.33779">
        <time>2022-07-15T09:52:53Z</time>
      </trkpt>
      <trkpt lat="42.918438" lon="-8.337853">
        <time>2022-07-15T09:52:58Z</time>
      </trkpt>
      <trkpt lat="42.91845" lon="-8.337925">
        <time>2022-07-15T09:53:03Z</time>
      </trkpt>
      <trkpt lat="42.918457" lon="-8.338002">
        <time>2022-07-15T09:53:09Z</time>
      </trkpt>
      <trkpt lat="42.918465" lon="-8.338069">
        <time>2022-07-15T09:53:14Z</time>
      </trkpt>
      <trkpt lat="42.918465" lon="-8.338143">
        <time>2022-07-15T09:53:20Z</time>
      </trkpt>
      <trkpt lat="42.91847" lon="-8.338217">
        <time>2022-07-15T09:53:27Z</time>
      </trkpt>
      <trkpt lat="42.918465" lon="-8.338299">
        <time>2022-07-15T09:53:33Z</time>
      </trkpt>
      <trkpt lat="42.918465" lon="-8.338362">
        <time>2022-07-15T09:53:38Z</time>
      </trkpt>
      <trkpt lat="42.91846" lon="-8.338437">
        <time>2022-07-15T09:53:44Z</time>
      </trkpt>
      <trkpt lat="42.918457" lon="-8.338507">
        <time>2022-07-15T09:53:49Z</time>
      </trkpt>
      <trkpt lat="42.918446" lon="-8.33859">
        <time>2022-07-15T09:53:55Z</time>
      </trkpt>
      <trkpt lat="42.918434" lon="-8.338659">
        <time>2022-07-15T09:54:00Z</time>
      </trkpt>
      <trkpt lat="42.91842" lon="-8.338724">
        <time>2022-07-15T09:54:05Z</time>
      </trkpt>
      <trkpt lat="42.91841" lon="-8.338797">
        <time>2022-07-15T09:54:11Z</time>
      </trkpt>
      <trkpt lat="42.9184" lon="-8.338867">
        <time>2022-07-15T09:54:17Z</time>
      </trkpt>
      <trkpt lat="42.918385" lon="-8.33894">
        <time>2022-07-15T09:54:22Z</time>
      </trkpt>
      <trkpt lat="42.918365" lon="-8.339012">
        <time>2022-07-15T09:54:28Z</time>
      </trkpt>
      <trkpt lat="42.91835" lon="-8.339082">
        <time>2022-07-15T09:54:32Z</time>
      </trkpt>
      <trkpt lat="42.918324" lon="-8.33915">
        <time>2022-07-15T09:54:37Z</time>
      </trkpt>
      <trkpt lat="42.9183" lon="-8.339215">
        <time>2022-07-15T09:54:42Z</time>
      </trkpt>
      <trkpt lat="42.918278" lon="-8.339284">
        <time>2022-07-15T09:54:47Z</time>
      </trkpt>
      <trkpt lat="42.918266" lon="-8.339341">
        <time>2022-07-15T09:54:52Z</time>
      </trkpt>
      <trkpt lat="42.918255" lon="-8.339419">
        <time>2022-07-15T09:54:58Z</time>
      </trkpt>
      <trkpt lat="42.918243" lon="-8.339491">
        <time>2022-07-15T09:55:03Z</time>
      </trkpt>
      <trkpt lat="42.918224" lon="-8.339566">
        <time>2022-07-15T09:55:09Z</time>
      </trkpt>
      <trkpt lat="42.9182" lon="-8.33963">
        <time>2022-07-15T09:55:14Z</time>
      </trkpt>
      <trkpt lat="42.918182" lon="-8.3397">
        <time>2022-07-15T09:55:19Z</time>
      </trkpt>
      <trkpt lat="42.918163" lon="-8.339776">
        <time>2022-07-15T09:55:24Z</time>
      </trkpt>
      <trkpt lat="42.918144" lon="-8.339843">
        <time>2022-07-15T09:55:29Z</time>
      </trkpt>
      <trkpt lat="42.918125" lon="-8.339925">
        <time>2022-07-15T09:55:35Z</time>
      </trkpt>
      <trkpt lat="42.918106" lon="-8.339995">
        <time>2022-07-15T09:55:40Z</time>
      </trkpt>
      <trkpt lat="42.918087" lon="-8.340065">
        <time>2022-07-15T09:55:45Z</time>
      </trkpt>
      <trkpt lat="42.91807" lon="-8.340135">
        <time>2022-07-15T09:55:50Z</time>
      </trkpt>
      <trkpt lat="42.918056" lon="-8.340205">
        <time>2022-07-15T09:55:55Z</time>
      </trkpt>
      <trkpt lat="42.918037" lon="-8.340273">
        <time>2022-07-15T09:56:00Z</time>
      </trkpt>
      <trkpt lat="42.91802" lon="-8.340339">
        <time>2022-07-15T09:56:05Z</time>
      </trkpt>
      <trkpt lat="42.917995" lon="-8.340417">
        <time>2022-07-15T09:56:11Z</time>
      </trkpt>
      <trkpt lat="42.917984" lon="-8.340484">
        <time>2022-07-15T09:56:17Z</time>
      </trkpt>
      <trkpt lat="42.917973" lon="-8.340548">
        <time>2022-07-15T09:56:23Z</time>
      </trkpt>
      <trkpt lat="42.917946" lon="-8.340625">
        <time>2022-07-15T09:56:29Z</time>
      </trkpt>
      <trkpt lat="42.917923" lon="-8.340681">
        <time>2022-07-15T09:56:34Z</time>
      </trkpt>
      <trkpt lat="42.9179" lon="-8.340747">
        <time>2022-07-15T09:56:39Z</time>
      </trkpt>
      <trkpt lat="42.917877" lon="-8.340827">
        <time>2022-07-15T09:56:45Z</time>
      </trkpt>
      <trkpt lat="42.91786" lon="-8.340904">
        <time>2022-07-15T09:56:51Z</time>
      </trkpt>
      <trkpt lat="42.917835" lon="-8.340968">
        <time>2022-07-15T09:56:57Z</time>
      </trkpt>
      <trkpt lat="42.917812" lon="-8.341047">
        <time>2022-07-15T09:57:01Z</time>
      </trkpt>
      <trkpt lat="42.917786" lon="-8.341096">
        <time>2022-07-15T09:57:07Z</time>
      </trkpt>
      <trkpt lat="42.917755" lon="-8.341172">
        <time>2022-07-15T09:57:15Z</time>
      </trkpt>
      <trkpt lat="42.917732" lon="-8.341229">
        <time>2022-07-15T09:57:20Z</time>
      </trkpt>
      <trkpt lat="42.917717" lon="-8.341304">
        <time>2022-07-15T09:57:26Z</time>
      </trkpt>
      <trkpt lat="42.9177" lon="-8.341374">
        <time>2022-07-15T09:57:31Z</time>
      </trkpt>
      <trkpt lat="42.91768" lon="-8.341445">
        <time>2022-07-15T09:57:36Z</time>
      </trkpt>
      <trkpt lat="42.917656" lon="-8.341511">
        <time>2022-07-15T09:57:41Z</time>
      </trkpt>
      <trkpt lat="42.91764" lon="-8.341575">
        <time>2022-07-15T09:57:46Z</time>
      </trkpt>
      <trkpt lat="42.91762" lon="-8.341644">
        <time>2022-07-15T09:57:51Z</time>
      </trkpt>
      <trkpt lat="42.9176" lon="-8.341717">
        <time>2022-07-15T09:57:57Z</time>
      </trkpt>
      <trkpt lat="42.91758" lon="-8.341785">
        <time>2022-07-15T09:58:03Z</time>
      </trkpt>
      <trkpt lat="42.917557" lon="-8.341856">
        <time>2022-07-15T09:58:09Z</time>
      </trkpt>
      <trkpt lat="42.91753" lon="-8.341924">
        <time>2022-07-15T09:58:15Z</time>
      </trkpt>
      <trkpt lat="42.917507" lon="-8.341989">
        <time>2022-07-15T09:58:20Z</time>
      </trkpt>
      <trkpt lat="42.917484" lon="-8.342055">
        <time>2022-07-15T09:58:25Z</time>
      </trkpt>
      <trkpt lat="42.917454" lon="-8.342132">
        <time>2022-07-15T09:58:31Z</time>
      </trkpt>
      <trkpt lat="42.91744" lon="-8.342188">
        <time>2022-07-15T09:58:37Z</time>
      </trkpt>
      <trkpt lat="42.91747" lon="-8.342164">
        <time>2022-07-15T09:59:51Z</time>
      </trkpt>
      <trkpt lat="42.917446" lon="-8.34224">
        <time>2022-07-15T09:59:55Z</time>
      </trkpt>
      <trkpt lat="42.917416" lon="-8.342317">
        <time>2022-07-15T09:59:59Z</time>
      </trkpt>
      <trkpt lat="42.917397" lon="-8.342372">
        <time>2022-07-15T10:00:03Z</time>
      </trkpt>
      <trkpt lat="42.91737" lon="-8.342434">
        <time>2022-07-15T10:00:09Z</time>
      </trkpt>
      <trkpt lat="42.91734" lon="-8.342501">
        <time>2022-07-15T10:00:15Z</time>
      </trkpt>
      <trkpt lat="42.91731" lon="-8.342559">
        <time>2022-07-15T10:00:20Z</time>
      </trkpt>
      <trkpt lat="42.91729" lon="-8.34263">
        <time>2022-07-15T10:00:26Z</time>
      </trkpt>
      <trkpt lat="42.91727" lon="-8.34269">
        <time>2022-07-15T10:00:31Z</time>
      </trkpt>
      <trkpt lat="42.917244" lon="-8.342766">
        <time>2022-07-15T10:00:37Z</time>
      </trkpt>
      <trkpt lat="42.917217" lon="-8.342824">
        <time>2022-07-15T10:00:42Z</time>
      </trkpt>
      <trkpt lat="42.91719" lon="-8.342892">
        <time>2022-07-15T10:00:48Z</time>
      </trkpt>
      <trkpt lat="42.917164" lon="-8.342966">
        <time>2022-07-15T10:00:54Z</time>
      </trkpt>
      <trkpt lat="42.917145" lon="-8.343031">
        <time>2022-07-15T10:00:59Z</time>
      </trkpt>
      <trkpt lat="42.917118" lon="-8.343087">
        <time>2022-07-15T10:01:03Z</time>
      </trkpt>
      <trkpt lat="42.917084" lon="-8.343141">
        <time>2022-07-15T10:01:08Z</time>
      </trkpt>
      <trkpt lat="42.917046" lon="-8.343197">
        <time>2022-07-15T10:01:13Z</time>
      </trkpt>
      <trkpt lat="42.916996" lon="-8.3432255">
        <time>2022-07-15T10:01:18Z</time>
      </trkpt>
      <trkpt lat="42.916943" lon="-8.343247">
        <time>2022-07-15T10:01:24Z</time>
      </trkpt>
      <trkpt lat="42.91688" lon="-8.343244">
        <time>2022-07-15T10:01:29Z</time>
      </trkpt>
      <trkpt lat="42.91683" lon="-8.343247">
        <time>2022-07-15T10:01:34Z</time>
      </trkpt>
      <trkpt lat="42.91678" lon="-8.343253">
        <time>2022-07-15T10:01:39Z</time>
      </trkpt>
      <trkpt lat="42.916714" lon="-8.343227">
        <time>2022-07-15T10:01:46Z</time>
      </trkpt>
      <trkpt lat="42.91666" lon="-8.343204">
        <time>2022-07-15T10:01:51Z</time>
      </trkpt>
      <trkpt lat="42.916603" lon="-8.343197">
        <time>2022-07-15T10:01:56Z</time>
      </trkpt>
      <trkpt lat="42.916557" lon="-8.343224">
        <time>2022-07-15T10:02:01Z</time>
      </trkpt>
      <trkpt lat="42.91653" lon="-8.343285">
        <time>2022-07-15T10:02:05Z</time>
      </trkpt>
      <trkpt lat="42.916515" lon="-8.34336">
        <time>2022-07-15T10:02:10Z</time>
      </trkpt>
      <trkpt lat="42.91651" lon="-8.343441">
        <time>2022-07-15T10:02:15Z</time>
      </trkpt>
      <trkpt lat="42.916504" lon="-8.343505">
        <time>2022-07-15T10:02:20Z</time>
      </trkpt>
      <trkpt lat="42.916508" lon="-8.343586">
        <time>2022-07-15T10:02:26Z</time>
      </trkpt>
      <trkpt lat="42.916515" lon="-8.34366">
        <time>2022-07-15T10:02:32Z</time>
      </trkpt>
      <trkpt lat="42.916527" lon="-8.343724">
        <time>2022-07-15T10:02:37Z</time>
      </trkpt>
      <trkpt lat="42.916527" lon="-8.3438">
        <time>2022-07-15T10:02:43Z</time>
      </trkpt>
      <trkpt lat="42.916515" lon="-8.343864">
        <time>2022-07-15T10:02:49Z</time>
      </trkpt>
      <trkpt lat="42.916462" lon="-8.34392">
        <time>2022-07-15T10:03:00Z</time>
      </trkpt>
      <trkpt lat="42.916412" lon="-8.343947">
        <time>2022-07-15T10:03:04Z</time>
      </trkpt>
      <trkpt lat="42.91636" lon="-8.343966">
        <time>2022-07-15T10:03:08Z</time>
      </trkpt>
      <trkpt lat="42.91633" lon="-8.344024">
        <time>2022-07-15T10:03:13Z</time>
      </trkpt>
      <trkpt lat="42.9163" lon="-8.344091">
        <time>2022-07-15T10:03:19Z</time>
      </trkpt>
      <trkpt lat="42.91629" lon="-8.344168">
        <time>2022-07-15T10:03:25Z</time>
      </trkpt>
      <trkpt lat="42.916286" lon="-8.344239">
        <time>2022-07-15T10:03:31Z</time>
      </trkpt>
      <trkpt lat="42.916286" lon="-8.344319">
        <time>2022-07-15T10:03:37Z</time>
      </trkpt>
      <trkpt lat="42.91627" lon="-8.344387">
        <time>2022-07-15T10:03:43Z</time>
      </trkpt>
      <trkpt lat="42.916252" lon="-8.344456">
        <time>2022-07-15T10:03:49Z</time>
      </trkpt>
      <trkpt lat="42.916237" lon="-8.344523">
        <time>2022-07-15T10:03:55Z</time>
      </trkpt>
      <trkpt lat="42.916214" lon="-8.344591">
        <time>2022-07-15T10:04:01Z</time>
      </trkpt>
      <trkpt lat="42.916195" lon="-8.344652">
        <time>2022-07-15T10:04:06Z</time>
      </trkpt>
      <trkpt lat="42.91618" lon="-8.344723">
        <time>2022-07-15T10:04:11Z</time>
      </trkpt>
      <trkpt lat="42.916157" lon="-8.344803">
        <time>2022-07-15T10:04:17Z</time>
      </trkpt>
      <trkpt lat="42.916134" lon="-8.344863">
        <time>2022-07-15T10:04:22Z</time>
      </trkpt>
      <trkpt lat="42.916122" lon="-8.344934">
        <time>2022-07-15T10:04:28Z</time>
      </trkpt>
      <trkpt lat="42.9161" lon="-8.344993">
        <time>2022-07-15T10:04:33Z</time>
      </trkpt>
      <trkpt lat="42.91607" lon="-8.3450575">
        <time>2022-07-15T10:04:38Z</time>
      </trkpt>
      <trkpt lat="42.916046" lon="-8.345133">
        <time>2022-07-15T10:04:44Z</time>
      </trkpt>
      <trkpt lat="42.916035" lon="-8.345201">
        <time>2022-07-15T10:04:50Z</time>
      </trkpt>
      <trkpt lat="42.91602" lon="-8.345265">
        <time>2022-07-15T10:04:54Z</time>
      </trkpt>
      <trkpt lat="42.916" lon="-8.34535">
        <time>2022-07-15T10:05:00Z</time>
      </trkpt>
      <trkpt lat="42.915966" lon="-8.345427">
        <time>2022-07-15T10:05:06Z</time>
      </trkpt>
      <trkpt lat="42.915936" lon="-8.345484">
        <time>2022-07-15T10:05:10Z</time>
      </trkpt>
      <trkpt lat="42.915905" lon="-8.345543">
        <time>2022-07-15T10:05:15Z</time>
      </trkpt>
      <trkpt lat="42.91588" lon="-8.34561">
        <time>2022-07-15T10:05:20Z</time>
      </trkpt>
      <trkpt lat="42.91584" lon="-8.345684">
        <time>2022-07-15T10:05:26Z</time>
      </trkpt>
      <trkpt lat="42.915802" lon="-8.345745">
        <time>2022-07-15T10:05:32Z</time>
      </trkpt>
      <trkpt lat="42.915768" lon="-8.345813">
        <time>2022-07-15T10:05:38Z</time>
      </trkpt>
      <trkpt lat="42.915737" lon="-8.34587">
        <time>2022-07-15T10:05:43Z</time>
      </trkpt>
      <trkpt lat="42.9157" lon="-8.345936">
        <time>2022-07-15T10:05:48Z</time>
      </trkpt>
      <trkpt lat="42.915672" lon="-8.345996">
        <time>2022-07-15T10:05:53Z</time>
      </trkpt>
      <trkpt lat="42.915646" lon="-8.346059">
        <time>2022-07-15T10:05:58Z</time>
      </trkpt>
      <trkpt lat="42.915623" lon="-8.346126">
        <time>2022-07-15T10:06:04Z</time>
      </trkpt>
      <trkpt lat="42.915596" lon="-8.3461895">
        <time>2022-07-15T10:06:09Z</time>
      </trkpt>
      <trkpt lat="42.91557" lon="-8.34625">
        <time>2022-07-15T10:06:14Z</time>
      </trkpt>
      <trkpt lat="42.915527" lon="-8.346313">
        <time>2022-07-15T10:06:20Z</time>
      </trkpt>
      <trkpt lat="42.91549" lon="-8.346368">
        <time>2022-07-15T10:06:25Z</time>
      </trkpt>
      <trkpt lat="42.915455" lon="-8.346421">
        <time>2022-07-15T10:06:30Z</time>
      </trkpt>
      <trkpt lat="42.91542" lon="-8.346479">
        <time>2022-07-15T10:06:35Z</time>
      </trkpt>
      <trkpt lat="42.91539" lon="-8.346542">
        <time>2022-07-15T10:06:40Z</time>
      </trkpt>
      <trkpt lat="42.91536" lon="-8.346602">
        <time>2022-07-15T10:06:45Z</time>
      </trkpt>
      <trkpt lat="42.915333" lon="-8.346662">
        <time>2022-07-15T10:06:50Z</time>
      </trkpt>
      <trkpt lat="42.9153" lon="-8.346723">
        <time>2022-07-15T10:06:55Z</time>
      </trkpt>
      <trkpt lat="42.91526" lon="-8.346777">
        <time>2022-07-15T10:07:00Z</time>
      </trkpt>
      <trkpt lat="42.915226" lon="-8.346835">
        <time>2022-07-15T10:07:06Z</time>
      </trkpt>
      <trkpt lat="42.91519" lon="-8.346883">
        <time>2022-07-15T10:07:11Z</time>
      </trkpt>
      <trkpt lat="42.915157" lon="-8.346942">
        <time>2022-07-15T10:07:16Z</time>
      </trkpt>
      <trkpt lat="42.915127" lon="-8.346998">
        <time>2022-07-15T10:07:21Z</time>
      </trkpt>
      <trkpt lat="42.915096" lon="-8.347056">
        <time>2022-07-15T10:07:26Z</time>
      </trkpt>
      <trkpt lat="42.91505" lon="-8.347121">
        <time>2022-07-15T10:07:32Z</time>
      </trkpt>
      <trkpt lat="42.915016" lon="-8.347186">
        <time>2022-07-15T10:07:38Z</time>
      </trkpt>
      <trkpt lat="42.914986" lon="-8.3472395">
        <time>2022-07-15T10:07:43Z</time>
      </trkpt>
      <trkpt lat="42.914944" lon="-8.347295">
        <time>2022-07-15T10:07:49Z</time>
      </trkpt>
      <trkpt lat="42.914898" lon="-8.347345">
        <time>2022-07-15T10:07:54Z</time>
      </trkpt>
      <trkpt lat="42.914864" lon="-8.347398">
        <time>2022-07-15T10:08:00Z</time>
      </trkpt>
      <trkpt lat="42.914825" lon="-8.34746">
        <time>2022-07-15T10:08:07Z</time>
      </trkpt>
      <trkpt lat="42.914795" lon="-8.347511">
        <time>2022-07-15T10:08:12Z</time>
      </trkpt>
      <trkpt lat="42.91476" lon="-8.347565">
        <time>2022-07-15T10:08:17Z</time>
      </trkpt>
      <trkpt lat="42.91473" lon="-8.347635">
        <time>2022-07-15T10:08:23Z</time>
      </trkpt>
      <trkpt lat="42.914696" lon="-8.347695">
        <time>2022-07-15T10:08:28Z</time>
      </trkpt>
      <trkpt lat="42.914673" lon="-8.347758">
        <time>2022-07-15T10:08:33Z</time>
      </trkpt>
      <trkpt lat="42.91465" lon="-8.347824">
        <time>2022-07-15T10:08:38Z</time>
      </trkpt>
      <trkpt lat="42.914635" lon="-8.347893">
        <time>2022-07-15T10:08:43Z</time>
      </trkpt>
      <trkpt lat="42.91462" lon="-8.34796">
        <time>2022-07-15T10:08:48Z</time>
      </trkpt>
      <trkpt lat="42.914608" lon="-8.348041">
        <time>2022-07-15T10:08:54Z</time>
      </trkpt>
      <trkpt lat="42.91459" lon="-8.348122">
        <time>2022-07-15T10:09:00Z</time>
      </trkpt>
      <trkpt lat="42.914577" lon="-8.348189">
        <time>2022-07-15T10:09:05Z</time>
      </trkpt>
      <trkpt lat="42.914555" lon="-8.348259">
        <time>2022-07-15T10:09:11Z</time>
      </trkpt>
      <trkpt lat="42.91453" lon="-8.348325">
        <time>2022-07-15T10:09:16Z</time>
      </trkpt>
      <trkpt lat="42.914505" lon="-8.348382">
        <time>2022-07-15T10:09:21Z</time>
      </trkpt>
      <trkpt lat="42.914474" lon="-8.348459">
        <time>2022-07-15T10:09:26Z</time>
      </trkpt>
      <trkpt lat="42.91444" lon="-8.348535">
        <time>2022-07-15T10:09:35Z</time>
      </trkpt>
      <trkpt lat="42.914417" lon="-8.348603">
        <time>2022-07-15T10:09:41Z</time>
      </trkpt>
      <trkpt lat="42.9144" lon="-8.348663">
        <time>2022-07-15T10:09:46Z</time>
      </trkpt>
      <trkpt lat="42.914375" lon="-8.348741">
        <time>2022-07-15T10:09:52Z</time>
      </trkpt>
      <trkpt lat="42.91435" lon="-8.348835">
        <time>2022-07-15T10:10:07Z</time>
      </trkpt>
      <trkpt lat="42.914326" lon="-8.348907">
        <time>2022-07-15T10:10:13Z</time>
      </trkpt>
      <trkpt lat="42.91431" lon="-8.348974">
        <time>2022-07-15T10:10:18Z</time>
      </trkpt>
      <trkpt lat="42.914318" lon="-8.349053">
        <time>2022-07-15T10:10:23Z</time>
      </trkpt>
      <trkpt lat="42.914337" lon="-8.349118">
        <time>2022-07-15T10:10:28Z</time>
      </trkpt>
      <trkpt lat="42.914368" lon="-8.3491745">
        <time>2022-07-15T10:10:33Z</time>
      </trkpt>
      <trkpt lat="42.914413" lon="-8.349215">
        <time>2022-07-15T10:10:38Z</time>
      </trkpt>
      <trkpt lat="42.914494" lon="-8.349245">
        <time>2022-07-15T10:10:56Z</time>
      </trkpt>
      <trkpt lat="42.914528" lon="-8.349284">
        <time>2022-07-15T10:11:01Z</time>
      </trkpt>
      <trkpt lat="42.914577" lon="-8.349333">
        <time>2022-07-15T10:11:11Z</time>
      </trkpt>
      <trkpt lat="42.91461" lon="-8.349371">
        <time>2022-07-15T10:11:18Z</time>
      </trkpt>
      <trkpt lat="42.914646" lon="-8.349427">
        <time>2022-07-15T10:11:29Z</time>
      </trkpt>
      <trkpt lat="42.914677" lon="-8.349487">
        <time>2022-07-15T10:11:39Z</time>
      </trkpt>
      <trkpt lat="42.914677" lon="-8.349564">
        <time>2022-07-15T10:11:47Z</time>
      </trkpt>
      <trkpt lat="42.914677" lon="-8.349636">
        <time>2022-07-15T10:11:54Z</time>
      </trkpt>
      <trkpt lat="42.914677" lon="-8.349709">
        <time>2022-07-15T10:12:01Z</time>
      </trkpt>
      <trkpt lat="42.914692" lon="-8.349766">
        <time>2022-07-15T10:12:15Z</time>
      </trkpt>
      <trkpt lat="42.914684" lon="-8.349843">
        <time>2022-07-15T10:12:22Z</time>
      </trkpt>
      <trkpt lat="42.91467" lon="-8.349917">
        <time>2022-07-15T10:12:29Z</time>
      </trkpt>
      <trkpt lat="42.91465" lon="-8.349985">
        <time>2022-07-15T10:12:35Z</time>
      </trkpt>
      <trkpt lat="42.914627" lon="-8.350058">
        <time>2022-07-15T10:12:41Z</time>
      </trkpt>
      <trkpt lat="42.9146" lon="-8.350117">
        <time>2022-07-15T10:12:45Z</time>
      </trkpt>
      <trkpt lat="42.914574" lon="-8.350184">
        <time>2022-07-15T10:12:50Z</time>
      </trkpt>
      <trkpt lat="42.914562" lon="-8.350265">
        <time>2022-07-15T10:12:56Z</time>
      </trkpt>
      <trkpt lat="42.914555" lon="-8.350333">
        <time>2022-07-15T10:13:01Z</time>
      </trkpt>
      <trkpt lat="42.91453" lon="-8.350399">
        <time>2022-07-15T10:13:06Z</time>
      </trkpt>
      <trkpt lat="42.914505" lon="-8.350467">
        <time>2022-07-15T10:13:12Z</time>
      </trkpt>
      <trkpt lat="42.914486" lon="-8.350532">
        <time>2022-07-15T10:13:16Z</time>
      </trkpt>
      <trkpt lat="42.914474" lon="-8.350595">
        <time>2022-07-15T10:14:13Z</time>
      </trkpt>
      <trkpt lat="42.914444" lon="-8.350685">
        <time>2022-07-15T10:14:18Z</time>
      </trkpt>
      <trkpt lat="42.91442" lon="-8.350743">
        <time>2022-07-15T10:14:21Z</time>
      </trkpt>
      <trkpt lat="42.914402" lon="-8.350805">
        <time>2022-07-15T10:14:25Z</time>
      </trkpt>
      <trkpt lat="42.914387" lon="-8.350885">
        <time>2022-07-15T10:14:30Z</time>
      </trkpt>
      <trkpt lat="42.91436" lon="-8.35094">
        <time>2022-07-15T10:14:34Z</time>
      </trkpt>
      <trkpt lat="42.91434" lon="-8.351008">
        <time>2022-07-15T10:14:38Z</time>
      </trkpt>
      <trkpt lat="42.914318" lon="-8.351076">
        <time>2022-07-15T10:14:43Z</time>
      </trkpt>
      <trkpt lat="42.914288" lon="-8.351149">
        <time>2022-07-15T10:14:48Z</time>
      </trkpt>
      <trkpt lat="42.91426" lon="-8.351216">
        <time>2022-07-15T10:14:52Z</time>
      </trkpt>
      <trkpt lat="42.914246" lon="-8.351284">
        <time>2022-07-15T10:14:57Z</time>
      </trkpt>
      <trkpt lat="42.914227" lon="-8.351366">
        <time>2022-07-15T10:15:02Z</time>
      </trkpt>
      <trkpt lat="42.914196" lon="-8.351431">
        <time>2022-07-15T10:15:07Z</time>
      </trkpt>
      <trkpt lat="42.91416" lon="-8.351488">
        <time>2022-07-15T10:15:11Z</time>
      </trkpt>
      <trkpt lat="42.91414" lon="-8.35155">
        <time>2022-07-15T10:15:15Z</time>
      </trkpt>
      <trkpt lat="42.914112" lon="-8.3516245">
        <time>2022-07-15T10:15:20Z</time>
      </trkpt>
      <trkpt lat="42.91409" lon="-8.3517">
        <time>2022-07-15T10:15:25Z</time>
      </trkpt>
      <trkpt lat="42.914062" lon="-8.35176">
        <time>2022-07-15T10:15:29Z</time>
      </trkpt>
      <trkpt lat="42.914036" lon="-8.35184">
        <time>2022-07-15T10:15:34Z</time>
      </trkpt>
      <trkpt lat="42.914013" lon="-8.3519">
        <time>2022-07-15T10:15:38Z</time>
      </trkpt>
      <trkpt lat="42.913994" lon="-8.351971">
        <time>2022-07-15T10:15:43Z</time>
      </trkpt>
      <trkpt lat="42.91398" lon="-8.352045">
        <time>2022-07-15T10:15:48Z</time>
      </trkpt>
      <trkpt lat="42.913956" lon="-8.352105">
        <time>2022-07-15T10:15:52Z</time>
      </trkpt>
      <trkpt lat="42.913933" lon="-8.352173">
        <time>2022-07-15T10:15:57Z</time>
      </trkpt>
      <trkpt lat="42.91391" lon="-8.35225">
        <time>2022-07-15T10:16:02Z</time>
      </trkpt>
      <trkpt lat="42.913887" lon="-8.352321">
        <time>2022-07-15T10:16:06Z</time>
      </trkpt>
      <trkpt lat="42.913864" lon="-8.352388">
        <time>2022-07-15T10:16:11Z</time>
      </trkpt>
      <trkpt lat="42.913834" lon="-8.352455">
        <time>2022-07-15T10:16:16Z</time>
      </trkpt>
      <trkpt lat="42.913815" lon="-8.352515">
        <time>2022-07-15T10:16:20Z</time>
      </trkpt>
      <trkpt lat="42.91378" lon="-8.352584">
        <time>2022-07-15T10:16:25Z</time>
      </trkpt>
      <trkpt lat="42.91375" lon="-8.352644">
        <time>2022-07-15T10:16:29Z</time>
      </trkpt>
      <trkpt lat="42.913723" lon="-8.352707">
        <time>2022-07-15T10:16:34Z</time>
      </trkpt>
      <trkpt lat="42.91369" lon="-8.352786">
        <time>2022-07-15T10:16:39Z</time>
      </trkpt>
      <trkpt lat="42.913654" lon="-8.352836">
        <time>2022-07-15T10:16:43Z</time>
      </trkpt>
      <trkpt lat="42.913612" lon="-8.352911">
        <time>2022-07-15T10:16:48Z</time>
      </trkpt>
      <trkpt lat="42.91357" lon="-8.352967">
        <time>2022-07-15T10:16:52Z</time>
      </trkpt>
      <trkpt lat="42.91352" lon="-8.353019">
        <time>2022-07-15T10:16:57Z</time>
      </trkpt>
      <trkpt lat="42.91348" lon="-8.353068">
        <time>2022-07-15T10:17:01Z</time>
      </trkpt>
      <trkpt lat="42.913437" lon="-8.353117">
        <time>2022-07-15T10:17:05Z</time>
      </trkpt>
      <trkpt lat="42.9134" lon="-8.353168">
        <time>2022-07-15T10:17:10Z</time>
      </trkpt>
      <trkpt lat="42.913353" lon="-8.353221">
        <time>2022-07-15T10:17:15Z</time>
      </trkpt>
      <trkpt lat="42.913315" lon="-8.353262">
        <time>2022-07-15T10:17:23Z</time>
      </trkpt>
      <trkpt lat="42.913258" lon="-8.35331">
        <time>2022-07-15T10:17:31Z</time>
      </trkpt>
      <trkpt lat="42.91322" lon="-8.353353">
        <time>2022-07-15T10:17:35Z</time>
      </trkpt>
      <trkpt lat="42.913174" lon="-8.353399">
        <time>2022-07-15T10:17:40Z</time>
      </trkpt>
      <trkpt lat="42.91313" lon="-8.353441">
        <time>2022-07-15T10:17:45Z</time>
      </trkpt>
      <trkpt lat="42.913086" lon="-8.353492">
        <time>2022-07-15T10:17:50Z</time>
      </trkpt>
      <trkpt lat="42.913048" lon="-8.353539">
        <time>2022-07-15T10:17:55Z</time>
      </trkpt>
      <trkpt lat="42.913006" lon="-8.353588">
        <time>2022-07-15T10:18:00Z</time>
      </trkpt>
      <trkpt lat="42.912964" lon="-8.353647">
        <time>2022-07-15T10:18:05Z</time>
      </trkpt>
      <trkpt lat="42.912937" lon="-8.353698">
        <time>2022-07-15T10:18:09Z</time>
      </trkpt>
      <trkpt lat="42.91291" lon="-8.353775">
        <time>2022-07-15T10:18:15Z</time>
      </trkpt>
      <trkpt lat="42.912884" lon="-8.35384">
        <time>2022-07-15T10:18:20Z</time>
      </trkpt>
      <trkpt lat="42.91286" lon="-8.353909">
        <time>2022-07-15T10:18:25Z</time>
      </trkpt>
      <trkpt lat="42.91284" lon="-8.353976">
        <time>2022-07-15T10:18:30Z</time>
      </trkpt>
      <trkpt lat="42.91281" lon="-8.354052">
        <time>2022-07-15T10:18:36Z</time>
      </trkpt>
      <trkpt lat="42.912792" lon="-8.35413">
        <time>2022-07-15T10:18:42Z</time>
      </trkpt>
      <trkpt lat="42.912777" lon="-8.354192">
        <time>2022-07-15T10:18:47Z</time>
      </trkpt>
      <trkpt lat="42.91276" lon="-8.354261">
        <time>2022-07-15T10:18:52Z</time>
      </trkpt>
      <trkpt lat="42.912743" lon="-8.354336">
        <time>2022-07-15T10:18:58Z</time>
      </trkpt>
      <trkpt lat="42.912724" lon="-8.354407">
        <time>2022-07-15T10:19:03Z</time>
      </trkpt>
      <trkpt lat="42.912697" lon="-8.354473">
        <time>2022-07-15T10:19:08Z</time>
      </trkpt>
      <trkpt lat="42.912674" lon="-8.354548">
        <time>2022-07-15T10:19:14Z</time>
      </trkpt>
      <trkpt lat="42.912666" lon="-8.354626">
        <time>2022-07-15T10:19:19Z</time>
      </trkpt>
      <trkpt lat="42.91265" lon="-8.354697">
        <time>2022-07-15T10:19:24Z</time>
      </trkpt>
      <trkpt lat="42.91264" lon="-8.3547735">
        <time>2022-07-15T10:19:29Z</time>
      </trkpt>
      <trkpt lat="42.912624" lon="-8.354845">
        <time>2022-07-15T10:19:34Z</time>
      </trkpt>
      <trkpt lat="42.91261" lon="-8.354913">
        <time>2022-07-15T10:19:39Z</time>
      </trkpt>
      <trkpt lat="42.91259" lon="-8.354975">
        <time>2022-07-15T10:19:44Z</time>
      </trkpt>
      <trkpt lat="42.91257" lon="-8.35505">
        <time>2022-07-15T10:19:50Z</time>
      </trkpt>
      <trkpt lat="42.912548" lon="-8.355126">
        <time>2022-07-15T10:19:56Z</time>
      </trkpt>
      <trkpt lat="42.912537" lon="-8.355202">
        <time>2022-07-15T10:20:02Z</time>
      </trkpt>
      <trkpt lat="42.912518" lon="-8.355279">
        <time>2022-07-15T10:20:08Z</time>
      </trkpt>
      <trkpt lat="42.912495" lon="-8.355349">
        <time>2022-07-15T10:20:13Z</time>
      </trkpt>
      <trkpt lat="42.912476" lon="-8.355422">
        <time>2022-07-15T10:20:18Z</time>
      </trkpt>
      <trkpt lat="42.91246" lon="-8.355492">
        <time>2022-07-15T10:20:23Z</time>
      </trkpt>
      <trkpt lat="42.91246" lon="-8.3555565">
        <time>2022-07-15T10:20:28Z</time>
      </trkpt>
      <trkpt lat="42.91246" lon="-8.355646">
        <time>2022-07-15T10:20:34Z</time>
      </trkpt>
      <trkpt lat="42.912457" lon="-8.355721">
        <time>2022-07-15T10:20:39Z</time>
      </trkpt>
      <trkpt lat="42.912457" lon="-8.355798">
        <time>2022-07-15T10:20:44Z</time>
      </trkpt>
      <trkpt lat="42.91245" lon="-8.355874">
        <time>2022-07-15T10:20:49Z</time>
      </trkpt>
      <trkpt lat="42.912445" lon="-8.355944">
        <time>2022-07-15T10:20:54Z</time>
      </trkpt>
      <trkpt lat="42.91244" lon="-8.356017">
        <time>2022-07-15T10:20:59Z</time>
      </trkpt>
      <trkpt lat="42.91244" lon="-8.356094">
        <time>2022-07-15T10:21:05Z</time>
      </trkpt>
      <trkpt lat="42.91244" lon="-8.356172">
        <time>2022-07-15T10:21:11Z</time>
      </trkpt>
      <trkpt lat="42.91244" lon="-8.356254">
        <time>2022-07-15T10:21:17Z</time>
      </trkpt>
      <trkpt lat="42.912445" lon="-8.356334">
        <time>2022-07-15T10:21:23Z</time>
      </trkpt>
      <trkpt lat="42.912445" lon="-8.356406">
        <time>2022-07-15T10:21:28Z</time>
      </trkpt>
      <trkpt lat="42.912445" lon="-8.356487">
        <time>2022-07-15T10:21:42Z</time>
      </trkpt>
      <trkpt lat="42.91244" lon="-8.356549">
        <time>2022-07-15T10:21:49Z</time>
      </trkpt>
      <trkpt lat="42.912453" lon="-8.356631">
        <time>2022-07-15T10:21:58Z</time>
      </trkpt>
      <trkpt lat="42.912445" lon="-8.356699">
        <time>2022-07-15T10:22:09Z</time>
      </trkpt>
      <trkpt lat="42.91243" lon="-8.356781">
        <time>2022-07-15T10:22:15Z</time>
      </trkpt>
      <trkpt lat="42.912415" lon="-8.356853">
        <time>2022-07-15T10:22:20Z</time>
      </trkpt>
      <trkpt lat="42.9124" lon="-8.356918">
        <time>2022-07-15T10:22:25Z</time>
      </trkpt>
      <trkpt lat="42.912376" lon="-8.356999">
        <time>2022-07-15T10:22:31Z</time>
      </trkpt>
      <trkpt lat="42.912354" lon="-8.35706">
        <time>2022-07-15T10:22:36Z</time>
      </trkpt>
      <trkpt lat="42.912342" lon="-8.357123">
        <time>2022-07-15T10:22:41Z</time>
      </trkpt>
      <trkpt lat="42.91232" lon="-8.357203">
        <time>2022-07-15T10:22:48Z</time>
      </trkpt>
      <trkpt lat="42.912296" lon="-8.357262">
        <time>2022-07-15T10:22:53Z</time>
      </trkpt>
      <trkpt lat="42.912266" lon="-8.357321">
        <time>2022-07-15T10:22:59Z</time>
      </trkpt>
      <trkpt lat="42.912212" lon="-8.357345">
        <time>2022-07-15T10:23:05Z</time>
      </trkpt>
      <trkpt lat="42.912163" lon="-8.357357">
        <time>2022-07-15T10:23:10Z</time>
      </trkpt>
      <trkpt lat="42.9121" lon="-8.357366">
        <time>2022-07-15T10:23:17Z</time>
      </trkpt>
      <trkpt lat="42.912056" lon="-8.357379">
        <time>2022-07-15T10:23:22Z</time>
      </trkpt>
      <trkpt lat="42.912003" lon="-8.357399">
        <time>2022-07-15T10:23:27Z</time>
      </trkpt>
      <trkpt lat="42.91194" lon="-8.357423">
        <time>2022-07-15T10:23:32Z</time>
      </trkpt>
      <trkpt lat="42.911877" lon="-8.357447">
        <time>2022-07-15T10:23:37Z</time>
      </trkpt>
      <trkpt lat="42.911827" lon="-8.357466">
        <time>2022-07-15T10:23:41Z</time>
      </trkpt>
      <trkpt lat="42.911762" lon="-8.357491">
        <time>2022-07-15T10:23:46Z</time>
      </trkpt>
      <trkpt lat="42.911713" lon="-8.35751">
        <time>2022-07-15T10:23:50Z</time>
      </trkpt>
      <trkpt lat="42.911655" lon="-8.35753">
        <time>2022-07-15T10:23:54Z</time>
      </trkpt>
      <trkpt lat="42.911606" lon="-8.357544">
        <time>2022-07-15T10:23:58Z</time>
      </trkpt>
      <trkpt lat="42.911556" lon="-8.35756">
        <time>2022-07-15T10:24:02Z</time>
      </trkpt>
      <trkpt lat="42.911503" lon="-8.357586">
        <time>2022-07-15T10:24:07Z</time>
      </trkpt>
      <trkpt lat="42.91145" lon="-8.357608">
        <time>2022-07-15T10:24:12Z</time>
      </trkpt>
      <trkpt lat="42.911404" lon="-8.357632">
        <time>2022-07-15T10:24:17Z</time>
      </trkpt>
      <trkpt lat="42.91135" lon="-8.357655">
        <time>2022-07-15T10:24:22Z</time>
      </trkpt>
      <trkpt lat="42.911293" lon="-8.357671">
        <time>2022-07-15T10:24:27Z</time>
      </trkpt>
      <trkpt lat="42.911243" lon="-8.357687">
        <time>2022-07-15T10:24:32Z</time>
      </trkpt>
      <trkpt lat="42.911194" lon="-8.357709">
        <time>2022-07-15T10:24:36Z</time>
      </trkpt>
      <trkpt lat="42.911133" lon="-8.357735">
        <time>2022-07-15T10:24:41Z</time>
      </trkpt>
      <trkpt lat="42.911083" lon="-8.357753">
        <time>2022-07-15T10:24:45Z</time>
      </trkpt>
      <trkpt lat="42.91102" lon="-8.357772">
        <time>2022-07-15T10:24:50Z</time>
      </trkpt>
      <trkpt lat="42.910965" lon="-8.357787">
        <time>2022-07-15T10:24:54Z</time>
      </trkpt>
      <trkpt lat="42.910904" lon="-8.357814">
        <time>2022-07-15T10:24:59Z</time>
      </trkpt>
      <trkpt lat="42.910847" lon="-8.357847">
        <time>2022-07-15T10:25:04Z</time>
      </trkpt>
      <trkpt lat="42.91079" lon="-8.357878">
        <time>2022-07-15T10:25:09Z</time>
      </trkpt>
      <trkpt lat="42.91074" lon="-8.3579">
        <time>2022-07-15T10:25:13Z</time>
      </trkpt>
      <trkpt lat="42.910683" lon="-8.357923">
        <time>2022-07-15T10:25:18Z</time>
      </trkpt>
      <trkpt lat="42.910633" lon="-8.357951">
        <time>2022-07-15T10:25:23Z</time>
      </trkpt>
      <trkpt lat="42.91059" lon="-8.357983">
        <time>2022-07-15T10:25:28Z</time>
      </trkpt>
      <trkpt lat="42.910538" lon="-8.358009">
        <time>2022-07-15T10:25:33Z</time>
      </trkpt>
      <trkpt lat="42.910484" lon="-8.358037">
        <time>2022-07-15T10:25:38Z</time>
      </trkpt>
      <trkpt lat="42.910435" lon="-8.358065">
        <time>2022-07-15T10:25:43Z</time>
      </trkpt>
      <trkpt lat="42.91038" lon="-8.358091">
        <time>2022-07-15T10:25:48Z</time>
      </trkpt>
      <trkpt lat="42.91034" lon="-8.358112">
        <time>2022-07-15T10:25:52Z</time>
      </trkpt>
      <trkpt lat="42.910282" lon="-8.358135">
        <time>2022-07-15T10:25:57Z</time>
      </trkpt>
      <trkpt lat="42.910233" lon="-8.358146">
        <time>2022-07-15T10:26:01Z</time>
      </trkpt>
      <trkpt lat="42.91017" lon="-8.358161">
        <time>2022-07-15T10:26:06Z</time>
      </trkpt>
      <trkpt lat="42.910114" lon="-8.358187">
        <time>2022-07-15T10:26:11Z</time>
      </trkpt>
      <trkpt lat="42.910057" lon="-8.358217">
        <time>2022-07-15T10:26:16Z</time>
      </trkpt>
      <trkpt lat="42.910004" lon="-8.358239">
        <time>2022-07-15T10:26:21Z</time>
      </trkpt>
      <trkpt lat="42.90995" lon="-8.358257">
        <time>2022-07-15T10:26:26Z</time>
      </trkpt>
      <trkpt lat="42.909897" lon="-8.358276">
        <time>2022-07-15T10:26:31Z</time>
      </trkpt>
      <trkpt lat="42.909843" lon="-8.358295">
        <time>2022-07-15T10:26:36Z</time>
      </trkpt>
      <trkpt lat="42.909786" lon="-8.358312">
        <time>2022-07-15T10:26:41Z</time>
      </trkpt>
      <trkpt lat="42.909733" lon="-8.358328">
        <time>2022-07-15T10:26:46Z</time>
      </trkpt>
      <trkpt lat="42.90968" lon="-8.358346">
        <time>2022-07-15T10:26:51Z</time>
      </trkpt>
      <trkpt lat="42.909622" lon="-8.358357">
        <time>2022-07-15T10:26:56Z</time>
      </trkpt>
      <trkpt lat="42.909565" lon="-8.358366">
        <time>2022-07-15T10:27:01Z</time>
      </trkpt>
      <trkpt lat="42.9095" lon="-8.358381">
        <time>2022-07-15T10:27:06Z</time>
      </trkpt>
      <trkpt lat="42.909447" lon="-8.3584">
        <time>2022-07-15T10:27:11Z</time>
      </trkpt>
      <trkpt lat="42.909397" lon="-8.35841">
        <time>2022-07-15T10:27:15Z</time>
      </trkpt>
      <trkpt lat="42.909336" lon="-8.3584">
        <time>2022-07-15T10:27:20Z</time>
      </trkpt>
      <trkpt lat="42.909267" lon="-8.358385">
        <time>2022-07-15T10:27:25Z</time>
      </trkpt>
      <trkpt lat="42.909214" lon="-8.358386">
        <time>2022-07-15T10:27:29Z</time>
      </trkpt>
      <trkpt lat="42.90916" lon="-8.3583975">
        <time>2022-07-15T10:27:33Z</time>
      </trkpt>
      <trkpt lat="42.909107" lon="-8.358412">
        <time>2022-07-15T10:27:37Z</time>
      </trkpt>
      <trkpt lat="42.909058" lon="-8.358422">
        <time>2022-07-15T10:27:41Z</time>
      </trkpt>
      <trkpt lat="42.908993" lon="-8.358435">
        <time>2022-07-15T10:27:46Z</time>
      </trkpt>
      <trkpt lat="42.90893" lon="-8.35845">
        <time>2022-07-15T10:27:51Z</time>
      </trkpt>
      <trkpt lat="42.90887" lon="-8.358459">
        <time>2022-07-15T10:27:56Z</time>
      </trkpt>
      <trkpt lat="42.90883" lon="-8.358474">
        <time>2022-07-15T10:28:00Z</time>
      </trkpt>
      <trkpt lat="42.90876" lon="-8.3585">
        <time>2022-07-15T10:28:07Z</time>
      </trkpt>
      <trkpt lat="42.90872" lon="-8.358512">
        <time>2022-07-15T10:28:15Z</time>
      </trkpt>
      <trkpt lat="42.90867" lon="-8.358522">
        <time>2022-07-15T10:28:19Z</time>
      </trkpt>
      <trkpt lat="42.908615" lon="-8.358534">
        <time>2022-07-15T10:28:23Z</time>
      </trkpt>
      <trkpt lat="42.90856" lon="-8.358551">
        <time>2022-07-15T10:28:27Z</time>
      </trkpt>
      <trkpt lat="42.90851" lon="-8.358566">
        <time>2022-07-15T10:28:31Z</time>
      </trkpt>
      <trkpt lat="42.908443" lon="-8.358582">
        <time>2022-07-15T10:28:36Z</time>
      </trkpt>
      <trkpt lat="42.908386" lon="-8.358601">
        <time>2022-07-15T10:28:41Z</time>
      </trkpt>
      <trkpt lat="42.90832" lon="-8.358627">
        <time>2022-07-15T10:28:46Z</time>
      </trkpt>
      <trkpt lat="42.908264" lon="-8.358646">
        <time>2022-07-15T10:28:51Z</time>
      </trkpt>
      <trkpt lat="42.908207" lon="-8.35866">
        <time>2022-07-15T10:28:55Z</time>
      </trkpt>
      <trkpt lat="42.908157" lon="-8.358669">
        <time>2022-07-15T10:28:59Z</time>
      </trkpt>
      <trkpt lat="42.908104" lon="-8.358693">
        <time>2022-07-15T10:29:04Z</time>
      </trkpt>
      <trkpt lat="42.908054" lon="-8.358711">
        <time>2022-07-15T10:29:09Z</time>
      </trkpt>
      <trkpt lat="42.908" lon="-8.358738">
        <time>2022-07-15T10:29:14Z</time>
      </trkpt>
      <trkpt lat="42.907944" lon="-8.35876">
        <time>2022-07-15T10:29:19Z</time>
      </trkpt>
      <trkpt lat="42.9079" lon="-8.358782">
        <time>2022-07-15T10:29:23Z</time>
      </trkpt>
      <trkpt lat="42.907845" lon="-8.358801">
        <time>2022-07-15T10:29:28Z</time>
      </trkpt>
      <trkpt lat="42.907787" lon="-8.358815">
        <time>2022-07-15T10:29:33Z</time>
      </trkpt>
      <trkpt lat="42.907734" lon="-8.358826">
        <time>2022-07-15T10:29:37Z</time>
      </trkpt>
      <trkpt lat="42.90769" lon="-8.358852">
        <time>2022-07-15T10:29:41Z</time>
      </trkpt>
      <trkpt lat="42.90764" lon="-8.358879">
        <time>2022-07-15T10:29:45Z</time>
      </trkpt>
      <trkpt lat="42.90758" lon="-8.358931">
        <time>2022-07-15T10:29:50Z</time>
      </trkpt>
      <trkpt lat="42.907536" lon="-8.358961">
        <time>2022-07-15T10:29:53Z</time>
      </trkpt>
      <trkpt lat="42.90749" lon="-8.35899">
        <time>2022-07-15T10:29:57Z</time>
      </trkpt>
      <trkpt lat="42.907433" lon="-8.359022">
        <time>2022-07-15T10:30:02Z</time>
      </trkpt>
      <trkpt lat="42.907375" lon="-8.359054">
        <time>2022-07-15T10:30:07Z</time>
      </trkpt>
      <trkpt lat="42.907326" lon="-8.359079">
        <time>2022-07-15T10:30:11Z</time>
      </trkpt>
      <trkpt lat="42.90728" lon="-8.359107">
        <time>2022-07-15T10:30:15Z</time>
      </trkpt>
      <trkpt lat="42.907234" lon="-8.359143">
        <time>2022-07-15T10:30:20Z</time>
      </trkpt>
      <trkpt lat="42.90719" lon="-8.359178">
        <time>2022-07-15T10:30:25Z</time>
      </trkpt>
      <trkpt lat="42.907135" lon="-8.359204">
        <time>2022-07-15T10:30:30Z</time>
      </trkpt>
      <trkpt lat="42.907085" lon="-8.35924">
        <time>2022-07-15T10:30:35Z</time>
      </trkpt>
      <trkpt lat="42.907036" lon="-8.359272">
        <time>2022-07-15T10:30:40Z</time>
      </trkpt>
      <trkpt lat="42.90698" lon="-8.359318">
        <time>2022-07-15T10:30:46Z</time>
      </trkpt>
      <trkpt lat="42.906933" lon="-8.359364">
        <time>2022-07-15T10:30:52Z</time>
      </trkpt>
      <trkpt lat="42.90688" lon="-8.359393">
        <time>2022-07-15T10:30:58Z</time>
      </trkpt>
      <trkpt lat="42.906826" lon="-8.359403">
        <time>2022-07-15T10:31:04Z</time>
      </trkpt>
      <trkpt lat="42.90677" lon="-8.359412">
        <time>2022-07-15T10:31:09Z</time>
      </trkpt>
      <trkpt lat="42.90673" lon="-8.359462">
        <time>2022-07-15T10:31:16Z</time>
      </trkpt>
      <trkpt lat="42.90668" lon="-8.359469">
        <time>2022-07-15T10:31:21Z</time>
      </trkpt>
      <trkpt lat="42.906708" lon="-8.359529">
        <time>2022-07-15T10:31:30Z</time>
      </trkpt>
      <trkpt lat="42.906673" lon="-8.359591">
        <time>2022-07-15T10:31:35Z</time>
      </trkpt>
      <trkpt lat="42.906628" lon="-8.359619">
        <time>2022-07-15T10:31:39Z</time>
      </trkpt>
      <trkpt lat="42.906567" lon="-8.359654">
        <time>2022-07-15T10:31:44Z</time>
      </trkpt>
      <trkpt lat="42.90652" lon="-8.359681">
        <time>2022-07-15T10:31:48Z</time>
      </trkpt>
      <trkpt lat="42.906467" lon="-8.359703">
        <time>2022-07-15T10:31:52Z</time>
      </trkpt>
      <trkpt lat="42.906433" lon="-8.359764">
        <time>2022-07-15T10:31:56Z</time>
      </trkpt>
      <trkpt lat="42.906384" lon="-8.359806">
        <time>2022-07-15T10:32:00Z</time>
      </trkpt>
      <trkpt lat="42.906338" lon="-8.359844">
        <time>2022-07-15T10:32:04Z</time>
      </trkpt>
      <trkpt lat="42.90629" lon="-8.359872">
        <time>2022-07-15T10:32:09Z</time>
      </trkpt>
      <trkpt lat="42.906235" lon="-8.359899">
        <time>2022-07-15T10:32:14Z</time>
      </trkpt>
      <trkpt lat="42.906193" lon="-8.359942">
        <time>2022-07-15T10:32:18Z</time>
      </trkpt>
      <trkpt lat="42.90616" lon="-8.360007">
        <time>2022-07-15T10:32:23Z</time>
      </trkpt>
      <trkpt lat="42.90612" lon="-8.360077">
        <time>2022-07-15T10:32:27Z</time>
      </trkpt>
      <trkpt lat="42.906086" lon="-8.360119">
        <time>2022-07-15T10:32:31Z</time>
      </trkpt>
      <trkpt lat="42.90604" lon="-8.360145">
        <time>2022-07-15T10:32:35Z</time>
      </trkpt>
      <trkpt lat="42.906002" lon="-8.360187">
        <time>2022-07-15T10:32:41Z</time>
      </trkpt>
      <trkpt lat="42.905952" lon="-8.36025">
        <time>2022-07-15T10:32:47Z</time>
      </trkpt>
      <trkpt lat="42.905907" lon="-8.360294">
        <time>2022-07-15T10:32:52Z</time>
      </trkpt>
      <trkpt lat="42.90587" lon="-8.360341">
        <time>2022-07-15T10:32:56Z</time>
      </trkpt>
      <trkpt lat="42.90583" lon="-8.360379">
        <time>2022-07-15T10:33:00Z</time>
      </trkpt>
      <trkpt lat="42.905792" lon="-8.360431">
        <time>2022-07-15T10:33:06Z</time>
      </trkpt>
      <trkpt lat="42.90575" lon="-8.360485">
        <time>2022-07-15T10:33:12Z</time>
      </trkpt>
      <trkpt lat="42.905712" lon="-8.360538">
        <time>2022-07-15T10:33:17Z</time>
      </trkpt>
      <trkpt lat="42.905685" lon="-8.360599">
        <time>2022-07-15T10:33:22Z</time>
      </trkpt>
      <trkpt lat="42.905647" lon="-8.360655">
        <time>2022-07-15T10:33:28Z</time>
      </trkpt>
      <trkpt lat="42.90562" lon="-8.360694">
        <time>2022-07-15T10:33:36Z</time>
      </trkpt>
      <trkpt lat="42.905643" lon="-8.36076">
        <time>2022-07-15T10:33:44Z</time>
      </trkpt>
      <trkpt lat="42.90559" lon="-8.360784">
        <time>2022-07-15T10:33:56Z</time>
      </trkpt>
      <trkpt lat="42.905586" lon="-8.36087">
        <time>2022-07-15T10:34:08Z</time>
      </trkpt>
    </trkseg>
  </trk>
</gpx>
